<?xml version='1.0' encoding='UTF-8'?><gpx version="1.1" creator="JPX - https://github.com/jenetics/jpx" xmlns="http://www.topografix.com/GPX/1/1"><trk><trkseg><trkpt lat="46.1200638" lon="13.5242391"><ele>155.0</ele><time>2026-05-02T06:07:57.359Z</time></trkpt><trkpt lat="46.1202344" lon="13.5242647"><ele>155.0</ele><time>2026-05-02T06:07:58.35Z</time></trkpt><trkpt lat="46.1200741" lon="13.5241377"><ele>155.0</ele><time>2026-05-02T06:08:01.356Z</time></trkpt></trkseg><trkseg><trkpt lat="46.1199876" lon="13.5238444"><ele>155.0</ele><time>2026-05-02T06:50:49.13Z</time></trkpt><trkpt lat="46.1199322" lon="13.5236924"><ele>155.0</ele><time>2026-05-02T06:50:51.129Z</time></trkpt><trkpt lat="46.1198309" lon="13.5233957"><ele>155.0</ele><time>2026-05-02T06:50:55.146Z</time></trkpt><trkpt lat="46.1197811" lon="13.5232503"><ele>155.0</ele><time>2026-05-02T06:50:57.129Z</time></trkpt><trkpt lat="46.1197362" lon="13.5231287"><ele>155.0</ele><time>2026-05-02T06:50:59.127Z</time></trkpt><trkpt lat="46.1197159" lon="13.5230328"><ele>155.0</ele><time>2026-05-02T06:51:01.13Z</time></trkpt><trkpt lat="46.1198228" lon="13.5229709"><ele>155.0</ele><time>2026-05-02T06:51:06.131Z</time></trkpt><trkpt lat="46.1199129" lon="13.5229623"><ele>155.0</ele><time>2026-05-02T06:51:08.131Z</time></trkpt><trkpt lat="46.1198745" lon="13.5228695"><ele>155.0</ele><time>2026-05-02T06:51:15.933Z</time></trkpt><trkpt lat="46.1198171" lon="13.5226612"><ele>155.0</ele><time>2026-05-02T06:51:26.933Z</time></trkpt><trkpt lat="46.1197639" lon="13.522569"><ele>155.0</ele><time>2026-05-02T06:51:30.931Z</time></trkpt><trkpt lat="46.1198034" lon="13.5226642"><ele>155.0</ele><time>2026-05-02T06:51:49.936Z</time></trkpt><trkpt lat="46.1198422" lon="13.5228893"><ele>155.0</ele><time>2026-05-02T06:51:54.935Z</time></trkpt><trkpt lat="46.1199469" lon="13.5230276"><ele>155.0</ele><time>2026-05-02T06:51:56.929Z</time></trkpt><trkpt lat="46.1200101" lon="13.5231089"><ele>155.0</ele><time>2026-05-02T06:51:57.931Z</time></trkpt><trkpt lat="46.1200658" lon="13.5231997"><ele>155.0</ele><time>2026-05-02T06:51:59.929Z</time></trkpt><trkpt lat="46.1200969" lon="13.5232878"><ele>155.0</ele><time>2026-05-02T06:52:02.932Z</time></trkpt><trkpt lat="46.1200793" lon="13.5234245"><ele>155.0</ele><time>2026-05-02T06:52:05.94Z</time></trkpt><trkpt lat="46.120051" lon="13.5235219"><ele>155.0</ele><time>2026-05-02T06:52:07.928Z</time></trkpt><trkpt lat="46.1200689" lon="13.5236331"><ele>155.0</ele><time>2026-05-02T06:52:09.931Z</time></trkpt><trkpt lat="46.1201088" lon="13.5237432"><ele>155.0</ele><time>2026-05-02T06:52:11.93Z</time></trkpt><trkpt lat="46.1201998" lon="13.5239325"><ele>155.0</ele><time>2026-05-02T06:52:16.938Z</time></trkpt><trkpt lat="46.1202437" lon="13.5240245"><ele>155.0</ele><time>2026-05-02T06:52:21.928Z</time></trkpt><trkpt lat="46.1202565" lon="13.524219"><ele>155.0</ele><time>2026-05-02T06:54:06.936Z</time></trkpt><trkpt lat="46.1201847" lon="13.5244083"><ele>155.0</ele><time>2026-05-02T06:54:09.936Z</time></trkpt><trkpt lat="46.1201724" lon="13.5245468"><ele>155.0</ele><time>2026-05-02T06:54:10.937Z</time></trkpt><trkpt lat="46.1201661" lon="13.5247251"><ele>155.0</ele><time>2026-05-02T06:54:11.931Z</time></trkpt><trkpt lat="46.1201701" lon="13.5249169"><ele>155.0</ele><time>2026-05-02T06:54:12.932Z</time></trkpt><trkpt lat="46.1201822" lon="13.5251071"><ele>155.0</ele><time>2026-05-02T06:54:13.944Z</time></trkpt><trkpt lat="46.1202013" lon="13.525293"><ele>155.0</ele><time>2026-05-02T06:54:14.933Z</time></trkpt><trkpt lat="46.1202175" lon="13.5254772"><ele>155.0</ele><time>2026-05-02T06:54:15.944Z</time></trkpt><trkpt lat="46.120236" lon="13.52566"><ele>155.5</ele><time>2026-05-02T06:54:16.929Z</time></trkpt><trkpt lat="46.120262" lon="13.5258408"><ele>156.0</ele><time>2026-05-02T06:54:17.935Z</time></trkpt><trkpt lat="46.1203025" lon="13.5259962"><ele>156.5</ele><time>2026-05-02T06:54:18.933Z</time></trkpt><trkpt lat="46.1203668" lon="13.5261284"><ele>157.0</ele><time>2026-05-02T06:54:19.939Z</time></trkpt><trkpt lat="46.1204359" lon="13.526245"><ele>157.8</ele><time>2026-05-02T06:54:20.938Z</time></trkpt><trkpt lat="46.1204993" lon="13.5263551"><ele>158.6</ele><time>2026-05-02T06:54:21.93Z</time></trkpt><trkpt lat="46.1205366" lon="13.5264799"><ele>159.4</ele><time>2026-05-02T06:54:22.94Z</time></trkpt><trkpt lat="46.1205357" lon="13.5266311"><ele>160.20000000000002</ele><time>2026-05-02T06:54:23.94Z</time></trkpt><trkpt lat="46.1205137" lon="13.5268078"><ele>161.0</ele><time>2026-05-02T06:54:24.935Z</time></trkpt><trkpt lat="46.1204746" lon="13.5269976"><ele>161.0</ele><time>2026-05-02T06:54:25.944Z</time></trkpt><trkpt lat="46.1204209" lon="13.5271744"><ele>161.0</ele><time>2026-05-02T06:54:26.94Z</time></trkpt><trkpt lat="46.1203717" lon="13.5273681"><ele>161.0</ele><time>2026-05-02T06:54:27.928Z</time></trkpt><trkpt lat="46.1203035" lon="13.5277527"><ele>161.25</ele><time>2026-05-02T06:54:29.939Z</time></trkpt><trkpt lat="46.1202899" lon="13.5279496"><ele>161.5</ele><time>2026-05-02T06:54:30.937Z</time></trkpt><trkpt lat="46.120281" lon="13.5281562"><ele>161.75</ele><time>2026-05-02T06:54:31.932Z</time></trkpt><trkpt lat="46.1202914" lon="13.5283454"><ele>162.0</ele><time>2026-05-02T06:54:32.936Z</time></trkpt><trkpt lat="46.1203159" lon="13.528525"><ele>162.0</ele><time>2026-05-02T06:54:33.932Z</time></trkpt><trkpt lat="46.1203306" lon="13.5286731"><ele>162.0</ele><time>2026-05-02T06:54:34.932Z</time></trkpt><trkpt lat="46.1203389" lon="13.5287788"><ele>162.0</ele><time>2026-05-02T06:54:35.929Z</time></trkpt><trkpt lat="46.1203588" lon="13.528942"><ele>162.0</ele><time>2026-05-02T06:54:37.936Z</time></trkpt><trkpt lat="46.1203271" lon="13.5291125"><ele>162.0</ele><time>2026-05-02T06:54:39.94Z</time></trkpt><trkpt lat="46.1202765" lon="13.5291962"><ele>162.16666666666666</ele><time>2026-05-02T06:54:40.94Z</time></trkpt><trkpt lat="46.1202142" lon="13.529274"><ele>162.33333333333334</ele><time>2026-05-02T06:54:41.938Z</time></trkpt><trkpt lat="46.1201611" lon="13.5293663"><ele>162.5</ele><time>2026-05-02T06:54:42.938Z</time></trkpt><trkpt lat="46.1201069" lon="13.5294632"><ele>162.66666666666669</ele><time>2026-05-02T06:54:43.936Z</time></trkpt><trkpt lat="46.120067" lon="13.5295837"><ele>162.83333333333334</ele><time>2026-05-02T06:54:44.931Z</time></trkpt><trkpt lat="46.1200278" lon="13.5297108"><ele>163.0</ele><time>2026-05-02T06:54:45.942Z</time></trkpt><trkpt lat="46.1199848" lon="13.52985"><ele>163.0</ele><time>2026-05-02T06:54:46.938Z</time></trkpt><trkpt lat="46.1199318" lon="13.5299908"><ele>163.0</ele><time>2026-05-02T06:54:47.933Z</time></trkpt><trkpt lat="46.1198593" lon="13.5301189"><ele>163.0</ele><time>2026-05-02T06:54:48.932Z</time></trkpt><trkpt lat="46.1196839" lon="13.5302521"><ele>163.0</ele><time>2026-05-02T06:54:50.931Z</time></trkpt><trkpt lat="46.1195854" lon="13.5302571"><ele>163.8</ele><time>2026-05-02T06:54:51.929Z</time></trkpt><trkpt lat="46.1194793" lon="13.5302492"><ele>164.60000000000002</ele><time>2026-05-02T06:54:52.926Z</time></trkpt><trkpt lat="46.1193803" lon="13.5302473"><ele>165.39999999999998</ele><time>2026-05-02T06:54:53.944Z</time></trkpt><trkpt lat="46.1192778" lon="13.5302595"><ele>166.2</ele><time>2026-05-02T06:54:54.936Z</time></trkpt><trkpt lat="46.1191779" lon="13.5302762"><ele>167.0</ele><time>2026-05-02T06:54:55.932Z</time></trkpt><trkpt lat="46.1190935" lon="13.5303061"><ele>167.16666666666666</ele><time>2026-05-02T06:54:56.927Z</time></trkpt><trkpt lat="46.1190051" lon="13.5303254"><ele>167.33333333333331</ele><time>2026-05-02T06:54:57.929Z</time></trkpt><trkpt lat="46.1189426" lon="13.5303649"><ele>167.5</ele><time>2026-05-02T06:54:58.94Z</time></trkpt><trkpt lat="46.1188852" lon="13.5304308"><ele>167.66666666666666</ele><time>2026-05-02T06:54:59.942Z</time></trkpt><trkpt lat="46.1188227" lon="13.5305277"><ele>167.83333333333334</ele><time>2026-05-02T06:55:00.938Z</time></trkpt><trkpt lat="46.1187755" lon="13.5306442"><ele>168.0</ele><time>2026-05-02T06:55:01.937Z</time></trkpt><trkpt lat="46.1187364" lon="13.5307578"><ele>168.16666666666666</ele><time>2026-05-02T06:55:02.944Z</time></trkpt><trkpt lat="46.1187077" lon="13.5308599"><ele>168.33333333333334</ele><time>2026-05-02T06:55:03.935Z</time></trkpt><trkpt lat="46.11869" lon="13.5309693"><ele>168.5</ele><time>2026-05-02T06:55:04.934Z</time></trkpt><trkpt lat="46.1186835" lon="13.5310838"><ele>168.66666666666669</ele><time>2026-05-02T06:55:05.95Z</time></trkpt><trkpt lat="46.1186812" lon="13.531185"><ele>168.83333333333334</ele><time>2026-05-02T06:55:06.939Z</time></trkpt><trkpt lat="46.1186829" lon="13.5312763"><ele>169.0</ele><time>2026-05-02T06:55:07.94Z</time></trkpt><trkpt lat="46.1186873" lon="13.5314179"><ele>169.25</ele><time>2026-05-02T06:55:09.933Z</time></trkpt><trkpt lat="46.1185698" lon="13.5315207"><ele>169.5</ele><time>2026-05-02T06:55:12.939Z</time></trkpt><trkpt lat="46.1184894" lon="13.5315228"><ele>169.75</ele><time>2026-05-02T06:55:13.939Z</time></trkpt><trkpt lat="46.1183733" lon="13.5315279"><ele>170.0</ele><time>2026-05-02T06:55:14.932Z</time></trkpt><trkpt lat="46.1182544" lon="13.5315349"><ele>170.0</ele><time>2026-05-02T06:55:15.93Z</time></trkpt><trkpt lat="46.118137" lon="13.5315574"><ele>170.0</ele><time>2026-05-02T06:55:16.94Z</time></trkpt><trkpt lat="46.1180243" lon="13.5315913"><ele>170.0</ele><time>2026-05-02T06:55:17.934Z</time></trkpt><trkpt lat="46.1179151" lon="13.5316196"><ele>170.0</ele><time>2026-05-02T06:55:18.934Z</time></trkpt><trkpt lat="46.1178044" lon="13.5316612"><ele>170.0</ele><time>2026-05-02T06:55:19.931Z</time></trkpt><trkpt lat="46.1176932" lon="13.5317406"><ele>170.0</ele><time>2026-05-02T06:55:20.937Z</time></trkpt><trkpt lat="46.1175842" lon="13.5318453"><ele>170.0</ele><time>2026-05-02T06:55:21.932Z</time></trkpt><trkpt lat="46.1174801" lon="13.5319692"><ele>170.0</ele><time>2026-05-02T06:55:22.932Z</time></trkpt><trkpt lat="46.117367" lon="13.5320786"><ele>171.25</ele><time>2026-05-02T06:55:23.936Z</time></trkpt><trkpt lat="46.1172538" lon="13.5321458"><ele>172.5</ele><time>2026-05-02T06:55:24.936Z</time></trkpt><trkpt lat="46.1171457" lon="13.5321592"><ele>173.75</ele><time>2026-05-02T06:55:25.943Z</time></trkpt><trkpt lat="46.1170365" lon="13.5321618"><ele>175.0</ele><time>2026-05-02T06:55:26.928Z</time></trkpt><trkpt lat="46.1169241" lon="13.532151"><ele>175.0</ele><time>2026-05-02T06:55:27.931Z</time></trkpt><trkpt lat="46.1168067" lon="13.5321419"><ele>175.0</ele><time>2026-05-02T06:55:28.932Z</time></trkpt><trkpt lat="46.1166934" lon="13.5321339"><ele>175.0</ele><time>2026-05-02T06:55:29.933Z</time></trkpt><trkpt lat="46.1165892" lon="13.5321377"><ele>175.0</ele><time>2026-05-02T06:55:30.935Z</time></trkpt><trkpt lat="46.1164227" lon="13.5322753"><ele>176.0</ele><time>2026-05-02T06:55:32.939Z</time></trkpt><trkpt lat="46.1163466" lon="13.5324012"><ele>177.0</ele><time>2026-05-02T06:55:33.929Z</time></trkpt><trkpt lat="46.1162663" lon="13.5325576"><ele>178.0</ele><time>2026-05-02T06:55:34.937Z</time></trkpt><trkpt lat="46.116181" lon="13.5327056"><ele>179.0</ele><time>2026-05-02T06:55:35.933Z</time></trkpt><trkpt lat="46.1160888" lon="13.5328328"><ele>179.25</ele><time>2026-05-02T06:55:36.933Z</time></trkpt><trkpt lat="46.115988" lon="13.5329373"><ele>179.5</ele><time>2026-05-02T06:55:37.929Z</time></trkpt><trkpt lat="46.1158712" lon="13.5330226"><ele>179.75</ele><time>2026-05-02T06:55:38.943Z</time></trkpt><trkpt lat="46.1157422" lon="13.5331092"><ele>180.0</ele><time>2026-05-02T06:55:39.933Z</time></trkpt><trkpt lat="46.1155815" lon="13.5331971"><ele>182.66666666666666</ele><time>2026-05-02T06:55:40.937Z</time></trkpt><trkpt lat="46.1154198" lon="13.533295"><ele>185.33333333333331</ele><time>2026-05-02T06:55:41.932Z</time></trkpt><trkpt lat="46.1152464" lon="13.5333887"><ele>188.0</ele><time>2026-05-02T06:55:42.937Z</time></trkpt><trkpt lat="46.1150901" lon="13.5335259"><ele>188.0</ele><time>2026-05-02T06:55:43.931Z</time></trkpt><trkpt lat="46.1149435" lon="13.5337013"><ele>188.0</ele><time>2026-05-02T06:55:44.933Z</time></trkpt><trkpt lat="46.1147805" lon="13.5338809"><ele>188.0</ele><time>2026-05-02T06:55:45.936Z</time></trkpt><trkpt lat="46.1146152" lon="13.5340674"><ele>191.66666666666666</ele><time>2026-05-02T06:55:46.938Z</time></trkpt><trkpt lat="46.1144459" lon="13.5342775"><ele>195.33333333333331</ele><time>2026-05-02T06:55:47.947Z</time></trkpt><trkpt lat="46.1142889" lon="13.534476"><ele>199.0</ele><time>2026-05-02T06:55:48.931Z</time></trkpt><trkpt lat="46.1141492" lon="13.5346482"><ele>201.66666666666666</ele><time>2026-05-02T06:55:49.934Z</time></trkpt><trkpt lat="46.1140325" lon="13.5348241"><ele>204.33333333333331</ele><time>2026-05-02T06:55:50.952Z</time></trkpt><trkpt lat="46.1139187" lon="13.5349603"><ele>207.0</ele><time>2026-05-02T06:55:51.94Z</time></trkpt><trkpt lat="46.1137728" lon="13.5350585"><ele>207.0</ele><time>2026-05-02T06:55:53.936Z</time></trkpt><trkpt lat="46.1138157" lon="13.5351643"><ele>207.0</ele><time>2026-05-02T06:55:55.93Z</time></trkpt><trkpt lat="46.1138928" lon="13.5351892"><ele>207.0</ele><time>2026-05-02T06:55:56.934Z</time></trkpt><trkpt lat="46.113987" lon="13.535175"><ele>207.0</ele><time>2026-05-02T06:55:57.932Z</time></trkpt><trkpt lat="46.1140915" lon="13.5351492"><ele>207.0</ele><time>2026-05-02T06:55:58.931Z</time></trkpt><trkpt lat="46.1142073" lon="13.5350917"><ele>206.5</ele><time>2026-05-02T06:55:59.939Z</time></trkpt><trkpt lat="46.1143269" lon="13.5350701"><ele>206.0</ele><time>2026-05-02T06:56:00.936Z</time></trkpt><trkpt lat="46.1144345" lon="13.5350286"><ele>205.5</ele><time>2026-05-02T06:56:01.934Z</time></trkpt><trkpt lat="46.1145502" lon="13.5349765"><ele>205.0</ele><time>2026-05-02T06:56:02.944Z</time></trkpt><trkpt lat="46.1146809" lon="13.5349382"><ele>205.0</ele><time>2026-05-02T06:56:03.939Z</time></trkpt><trkpt lat="46.1148315" lon="13.5348984"><ele>205.0</ele><time>2026-05-02T06:56:04.938Z</time></trkpt><trkpt lat="46.114995" lon="13.5348785"><ele>205.0</ele><time>2026-05-02T06:56:05.93Z</time></trkpt><trkpt lat="46.1151437" lon="13.534859"><ele>205.8</ele><time>2026-05-02T06:56:06.936Z</time></trkpt><trkpt lat="46.1152766" lon="13.5348377"><ele>206.6</ele><time>2026-05-02T06:56:07.94Z</time></trkpt><trkpt lat="46.1153907" lon="13.5348311"><ele>207.39999999999998</ele><time>2026-05-02T06:56:08.934Z</time></trkpt><trkpt lat="46.1154925" lon="13.5348648"><ele>208.2</ele><time>2026-05-02T06:56:09.942Z</time></trkpt><trkpt lat="46.1155416" lon="13.5349475"><ele>209.0</ele><time>2026-05-02T06:56:10.938Z</time></trkpt><trkpt lat="46.1155506" lon="13.5351297"><ele>209.0</ele><time>2026-05-02T06:56:11.935Z</time></trkpt><trkpt lat="46.1155722" lon="13.5353161"><ele>209.0</ele><time>2026-05-02T06:56:12.94Z</time></trkpt><trkpt lat="46.1156401" lon="13.5355197"><ele>209.0</ele><time>2026-05-02T06:56:14.931Z</time></trkpt><trkpt lat="46.115742" lon="13.5355113"><ele>209.0</ele><time>2026-05-02T06:56:15.939Z</time></trkpt><trkpt lat="46.1158814" lon="13.5354882"><ele>210.66666666666669</ele><time>2026-05-02T06:56:16.934Z</time></trkpt><trkpt lat="46.1160495" lon="13.535438"><ele>212.33333333333331</ele><time>2026-05-02T06:56:17.94Z</time></trkpt><trkpt lat="46.1162745" lon="13.5353609"><ele>214.0</ele><time>2026-05-02T06:56:18.935Z</time></trkpt><trkpt lat="46.1164199" lon="13.5352422"><ele>214.0</ele><time>2026-05-02T06:56:19.944Z</time></trkpt><trkpt lat="46.1165499" lon="13.5351538"><ele>214.0</ele><time>2026-05-02T06:56:20.932Z</time></trkpt><trkpt lat="46.1166692" lon="13.5350787"><ele>214.0</ele><time>2026-05-02T06:56:21.934Z</time></trkpt><trkpt lat="46.1167875" lon="13.5350234"><ele>214.0</ele><time>2026-05-02T06:56:22.93Z</time></trkpt><trkpt lat="46.1169386" lon="13.53499"><ele>218.33333333333331</ele><time>2026-05-02T06:56:23.933Z</time></trkpt><trkpt lat="46.1171155" lon="13.5349943"><ele>222.66666666666669</ele><time>2026-05-02T06:56:24.93Z</time></trkpt><trkpt lat="46.1172958" lon="13.5350582"><ele>227.0</ele><time>2026-05-02T06:56:25.931Z</time></trkpt><trkpt lat="46.1174316" lon="13.5350583"><ele>228.8</ele><time>2026-05-02T06:56:26.932Z</time></trkpt><trkpt lat="46.1175313" lon="13.5350087"><ele>230.6</ele><time>2026-05-02T06:56:27.929Z</time></trkpt><trkpt lat="46.117633" lon="13.5349937"><ele>232.40000000000003</ele><time>2026-05-02T06:56:28.935Z</time></trkpt><trkpt lat="46.1177081" lon="13.5350062"><ele>234.20000000000002</ele><time>2026-05-02T06:56:29.933Z</time></trkpt><trkpt lat="46.1177758" lon="13.5351437"><ele>236.0</ele><time>2026-05-02T06:56:31.941Z</time></trkpt><trkpt lat="46.1177514" lon="13.5353083"><ele>240.0</ele><time>2026-05-02T06:56:32.934Z</time></trkpt><trkpt lat="46.117749" lon="13.5354911"><ele>244.0</ele><time>2026-05-02T06:56:33.935Z</time></trkpt><trkpt lat="46.1178007" lon="13.5358534"><ele>248.0</ele><time>2026-05-02T06:56:35.933Z</time></trkpt><trkpt lat="46.1178319" lon="13.5360476"><ele>250.75</ele><time>2026-05-02T06:56:36.93Z</time></trkpt><trkpt lat="46.1178558" lon="13.5362544"><ele>253.5</ele><time>2026-05-02T06:56:37.932Z</time></trkpt><trkpt lat="46.1178636" lon="13.5364705"><ele>256.25</ele><time>2026-05-02T06:56:38.933Z</time></trkpt><trkpt lat="46.1178708" lon="13.5366694"><ele>259.0</ele><time>2026-05-02T06:56:39.94Z</time></trkpt><trkpt lat="46.1178944" lon="13.5368475"><ele>259.0</ele><time>2026-05-02T06:56:40.939Z</time></trkpt><trkpt lat="46.1179166" lon="13.5369962"><ele>259.0</ele><time>2026-05-02T06:56:41.945Z</time></trkpt><trkpt lat="46.1179336" lon="13.5371192"><ele>259.0</ele><time>2026-05-02T06:56:42.928Z</time></trkpt><trkpt lat="46.1178451" lon="13.5371555"><ele>259.0</ele><time>2026-05-02T06:56:45.933Z</time></trkpt><trkpt lat="46.1177841" lon="13.5370693"><ele>259.0</ele><time>2026-05-02T06:56:46.944Z</time></trkpt><trkpt lat="46.1177186" lon="13.5369603"><ele>259.0</ele><time>2026-05-02T06:56:47.934Z</time></trkpt><trkpt lat="46.1176346" lon="13.5368684"><ele>259.0</ele><time>2026-05-02T06:56:48.932Z</time></trkpt><trkpt lat="46.1175548" lon="13.5367772"><ele>259.0</ele><time>2026-05-02T06:56:49.932Z</time></trkpt><trkpt lat="46.1174547" lon="13.5366938"><ele>259.0</ele><time>2026-05-02T06:56:50.935Z</time></trkpt><trkpt lat="46.1173381" lon="13.5366462"><ele>259.0</ele><time>2026-05-02T06:56:51.933Z</time></trkpt><trkpt lat="46.1172149" lon="13.5366635"><ele>260.3333333333333</ele><time>2026-05-02T06:56:52.935Z</time></trkpt><trkpt lat="46.1170808" lon="13.5367006"><ele>261.6666666666667</ele><time>2026-05-02T06:56:53.93Z</time></trkpt><trkpt lat="46.1169403" lon="13.5367742"><ele>263.0</ele><time>2026-05-02T06:56:54.943Z</time></trkpt><trkpt lat="46.1166722" lon="13.5369603"><ele>263.0</ele><time>2026-05-02T06:56:56.933Z</time></trkpt><trkpt lat="46.116579" lon="13.5370152"><ele>263.0</ele><time>2026-05-02T06:56:57.931Z</time></trkpt><trkpt lat="46.1165055" lon="13.5370309"><ele>263.0</ele><time>2026-05-02T06:56:58.933Z</time></trkpt><trkpt lat="46.1164373" lon="13.5370482"><ele>263.0</ele><time>2026-05-02T06:56:59.923Z</time></trkpt><trkpt lat="46.1163499" lon="13.5371465"><ele>263.0</ele><time>2026-05-02T06:57:01.927Z</time></trkpt><trkpt lat="46.1164023" lon="13.5372359"><ele>263.0</ele><time>2026-05-02T06:57:02.946Z</time></trkpt><trkpt lat="46.1165067" lon="13.5373174"><ele>267.5</ele><time>2026-05-02T06:57:03.93Z</time></trkpt><trkpt lat="46.1166279" lon="13.5373921"><ele>272.0</ele><time>2026-05-02T06:57:04.935Z</time></trkpt><trkpt lat="46.1167492" lon="13.5374535"><ele>276.5</ele><time>2026-05-02T06:57:05.928Z</time></trkpt><trkpt lat="46.1168451" lon="13.5375111"><ele>281.0</ele><time>2026-05-02T06:57:06.932Z</time></trkpt><trkpt lat="46.116935" lon="13.5375548"><ele>281.0</ele><time>2026-05-02T06:57:07.928Z</time></trkpt><trkpt lat="46.1170211" lon="13.537593"><ele>281.0</ele><time>2026-05-02T06:57:08.933Z</time></trkpt><trkpt lat="46.1170803" lon="13.5376339"><ele>281.0</ele><time>2026-05-02T06:57:09.939Z</time></trkpt><trkpt lat="46.1170756" lon="13.5378144"><ele>281.0</ele><time>2026-05-02T06:57:11.935Z</time></trkpt><trkpt lat="46.1170101" lon="13.537914"><ele>281.0</ele><time>2026-05-02T06:57:12.929Z</time></trkpt><trkpt lat="46.1169184" lon="13.5380155"><ele>283.75</ele><time>2026-05-02T06:57:13.938Z</time></trkpt><trkpt lat="46.1168449" lon="13.5380714"><ele>286.5</ele><time>2026-05-02T06:57:14.932Z</time></trkpt><trkpt lat="46.1167643" lon="13.5380973"><ele>289.25</ele><time>2026-05-02T06:57:15.932Z</time></trkpt><trkpt lat="46.1165501" lon="13.5380348"><ele>292.0</ele><time>2026-05-02T06:57:17.938Z</time></trkpt><trkpt lat="46.1164478" lon="13.5379733"><ele>293.5</ele><time>2026-05-02T06:57:18.931Z</time></trkpt><trkpt lat="46.1163447" lon="13.5378909"><ele>295.0</ele><time>2026-05-02T06:57:19.931Z</time></trkpt><trkpt lat="46.1162413" lon="13.5377964"><ele>296.5</ele><time>2026-05-02T06:57:20.93Z</time></trkpt><trkpt lat="46.1161433" lon="13.5376841"><ele>298.0</ele><time>2026-05-02T06:57:21.927Z</time></trkpt><trkpt lat="46.1160402" lon="13.537595"><ele>298.0</ele><time>2026-05-02T06:57:22.93Z</time></trkpt><trkpt lat="46.1159553" lon="13.5375539"><ele>298.0</ele><time>2026-05-02T06:57:23.941Z</time></trkpt><trkpt lat="46.1158719" lon="13.5375527"><ele>298.0</ele><time>2026-05-02T06:57:25.934Z</time></trkpt><trkpt lat="46.1159319" lon="13.5376941"><ele>298.0</ele><time>2026-05-02T06:57:27.93Z</time></trkpt><trkpt lat="46.1160037" lon="13.5378125"><ele>298.0</ele><time>2026-05-02T06:57:28.927Z</time></trkpt><trkpt lat="46.1160681" lon="13.5379915"><ele>304.3333333333333</ele><time>2026-05-02T06:57:29.939Z</time></trkpt><trkpt lat="46.1161345" lon="13.5381908"><ele>310.6666666666667</ele><time>2026-05-02T06:57:30.931Z</time></trkpt><trkpt lat="46.116214" lon="13.5383827"><ele>317.0</ele><time>2026-05-02T06:57:31.937Z</time></trkpt><trkpt lat="46.1162885" lon="13.538561"><ele>317.0</ele><time>2026-05-02T06:57:32.938Z</time></trkpt><trkpt lat="46.11633" lon="13.5387029"><ele>317.0</ele><time>2026-05-02T06:57:33.93Z</time></trkpt><trkpt lat="46.1163571" lon="13.5387871"><ele>317.0</ele><time>2026-05-02T06:57:34.929Z</time></trkpt><trkpt lat="46.1163892" lon="13.538926"><ele>317.0</ele><time>2026-05-02T06:57:36.94Z</time></trkpt><trkpt lat="46.1164322" lon="13.5391578"><ele>317.0</ele><time>2026-05-02T06:57:38.943Z</time></trkpt><trkpt lat="46.1164496" lon="13.539289"><ele>320.6</ele><time>2026-05-02T06:57:39.936Z</time></trkpt><trkpt lat="46.1164798" lon="13.5394286"><ele>324.2</ele><time>2026-05-02T06:57:40.933Z</time></trkpt><trkpt lat="46.1164923" lon="13.5395751"><ele>327.8</ele><time>2026-05-02T06:57:41.932Z</time></trkpt><trkpt lat="46.116505" lon="13.5397208"><ele>331.4</ele><time>2026-05-02T06:57:42.939Z</time></trkpt><trkpt lat="46.1165301" lon="13.539873"><ele>335.0</ele><time>2026-05-02T06:57:43.931Z</time></trkpt><trkpt lat="46.11655" lon="13.5400321"><ele>338.6</ele><time>2026-05-02T06:57:44.932Z</time></trkpt><trkpt lat="46.1165766" lon="13.5401957"><ele>342.2</ele><time>2026-05-02T06:57:45.931Z</time></trkpt><trkpt lat="46.1165888" lon="13.5403503"><ele>345.79999999999995</ele><time>2026-05-02T06:57:46.931Z</time></trkpt><trkpt lat="46.1165821" lon="13.5405014"><ele>349.4</ele><time>2026-05-02T06:57:47.929Z</time></trkpt><trkpt lat="46.1165747" lon="13.540648"><ele>353.0</ele><time>2026-05-02T06:57:48.934Z</time></trkpt><trkpt lat="46.1165577" lon="13.5407896"><ele>353.0</ele><time>2026-05-02T06:57:49.937Z</time></trkpt><trkpt lat="46.1165468" lon="13.5409348"><ele>353.0</ele><time>2026-05-02T06:57:50.933Z</time></trkpt><trkpt lat="46.1165286" lon="13.5410865"><ele>353.0</ele><time>2026-05-02T06:57:51.931Z</time></trkpt><trkpt lat="46.1165032" lon="13.5412446"><ele>353.0</ele><time>2026-05-02T06:57:52.929Z</time></trkpt><trkpt lat="46.1164738" lon="13.5414024"><ele>353.0</ele><time>2026-05-02T06:57:53.931Z</time></trkpt><trkpt lat="46.1164547" lon="13.5415458"><ele>353.79999999999995</ele><time>2026-05-02T06:57:54.939Z</time></trkpt><trkpt lat="46.1164459" lon="13.5416641"><ele>354.6</ele><time>2026-05-02T06:57:55.935Z</time></trkpt><trkpt lat="46.1164014" lon="13.5418468"><ele>355.4</ele><time>2026-05-02T06:57:57.937Z</time></trkpt><trkpt lat="46.1163458" lon="13.542017"><ele>356.20000000000005</ele><time>2026-05-02T06:57:59.94Z</time></trkpt><trkpt lat="46.1163174" lon="13.5421081"><ele>357.0</ele><time>2026-05-02T06:58:00.927Z</time></trkpt><trkpt lat="46.1162886" lon="13.5421953"><ele>355.40000000000003</ele><time>2026-05-02T06:58:01.935Z</time></trkpt><trkpt lat="46.1162743" lon="13.5423"><ele>353.8</ele><time>2026-05-02T06:58:02.942Z</time></trkpt><trkpt lat="46.1162442" lon="13.5424204"><ele>352.2</ele><time>2026-05-02T06:58:03.932Z</time></trkpt><trkpt lat="46.1162119" lon="13.5425464"><ele>350.6</ele><time>2026-05-02T06:58:04.94Z</time></trkpt><trkpt lat="46.1161755" lon="13.5426746"><ele>349.0</ele><time>2026-05-02T06:58:05.933Z</time></trkpt><trkpt lat="46.1161287" lon="13.5428103"><ele>346.4</ele><time>2026-05-02T06:58:06.932Z</time></trkpt><trkpt lat="46.1160755" lon="13.5429416"><ele>343.79999999999995</ele><time>2026-05-02T06:58:07.926Z</time></trkpt><trkpt lat="46.1160286" lon="13.5430721"><ele>341.20000000000005</ele><time>2026-05-02T06:58:08.938Z</time></trkpt><trkpt lat="46.1159792" lon="13.5432151"><ele>338.6</ele><time>2026-05-02T06:58:09.93Z</time></trkpt><trkpt lat="46.1159219" lon="13.5433565"><ele>336.0</ele><time>2026-05-02T06:58:10.935Z</time></trkpt><trkpt lat="46.11586" lon="13.5434983"><ele>336.0</ele><time>2026-05-02T06:58:11.928Z</time></trkpt><trkpt lat="46.115796" lon="13.543631"><ele>336.0</ele><time>2026-05-02T06:58:12.934Z</time></trkpt><trkpt lat="46.1157439" lon="13.5437509"><ele>336.0</ele><time>2026-05-02T06:58:13.933Z</time></trkpt><trkpt lat="46.1156996" lon="13.5438639"><ele>336.0</ele><time>2026-05-02T06:58:14.942Z</time></trkpt><trkpt lat="46.1156623" lon="13.5439943"><ele>336.0</ele><time>2026-05-02T06:58:16.934Z</time></trkpt><trkpt lat="46.1157369" lon="13.5440862"><ele>335.5</ele><time>2026-05-02T06:58:19.941Z</time></trkpt><trkpt lat="46.1159326" lon="13.5441447"><ele>335.0</ele><time>2026-05-02T06:58:22.933Z</time></trkpt><trkpt lat="46.116018" lon="13.544182"><ele>334.5</ele><time>2026-05-02T06:58:23.928Z</time></trkpt><trkpt lat="46.1161148" lon="13.5442168"><ele>334.0</ele><time>2026-05-02T06:58:24.924Z</time></trkpt><trkpt lat="46.1162113" lon="13.5442379"><ele>334.0</ele><time>2026-05-02T06:58:25.929Z</time></trkpt><trkpt lat="46.1163067" lon="13.5442642"><ele>334.0</ele><time>2026-05-02T06:58:26.928Z</time></trkpt><trkpt lat="46.1163868" lon="13.5442986"><ele>334.0</ele><time>2026-05-02T06:58:27.937Z</time></trkpt><trkpt lat="46.116467" lon="13.5443467"><ele>334.0</ele><time>2026-05-02T06:58:28.933Z</time></trkpt><trkpt lat="46.1165382" lon="13.5443946"><ele>334.0</ele><time>2026-05-02T06:58:29.932Z</time></trkpt><trkpt lat="46.11661" lon="13.5444434"><ele>334.0</ele><time>2026-05-02T06:58:30.93Z</time></trkpt><trkpt lat="46.116678" lon="13.5444931"><ele>334.0</ele><time>2026-05-02T06:58:31.933Z</time></trkpt><trkpt lat="46.1167765" lon="13.5445707"><ele>334.0</ele><time>2026-05-02T06:58:33.928Z</time></trkpt><trkpt lat="46.11685" lon="13.5446967"><ele>334.0</ele><time>2026-05-02T06:58:35.935Z</time></trkpt><trkpt lat="46.1168868" lon="13.5447814"><ele>334.0</ele><time>2026-05-02T06:58:36.933Z</time></trkpt><trkpt lat="46.1169295" lon="13.544894"><ele>334.0</ele><time>2026-05-02T06:58:37.935Z</time></trkpt><trkpt lat="46.1169706" lon="13.5450514"><ele>334.0</ele><time>2026-05-02T06:58:38.935Z</time></trkpt><trkpt lat="46.1170023" lon="13.5452149"><ele>334.0</ele><time>2026-05-02T06:58:39.933Z</time></trkpt><trkpt lat="46.1170332" lon="13.5453653"><ele>334.0</ele><time>2026-05-02T06:58:40.94Z</time></trkpt><trkpt lat="46.1171141" lon="13.5456344"><ele>334.0</ele><time>2026-05-02T06:58:42.931Z</time></trkpt><trkpt lat="46.1171648" lon="13.545763"><ele>333.4</ele><time>2026-05-02T06:58:43.935Z</time></trkpt><trkpt lat="46.1172148" lon="13.5458933"><ele>332.79999999999995</ele><time>2026-05-02T06:58:44.927Z</time></trkpt><trkpt lat="46.1172717" lon="13.5460232"><ele>332.20000000000005</ele><time>2026-05-02T06:58:45.936Z</time></trkpt><trkpt lat="46.1173231" lon="13.5461532"><ele>331.6</ele><time>2026-05-02T06:58:46.937Z</time></trkpt><trkpt lat="46.1173783" lon="13.5462754"><ele>331.0</ele><time>2026-05-02T06:58:47.935Z</time></trkpt><trkpt lat="46.1174389" lon="13.5463984"><ele>331.0</ele><time>2026-05-02T06:58:48.933Z</time></trkpt><trkpt lat="46.1175019" lon="13.5464916"><ele>331.0</ele><time>2026-05-02T06:58:49.937Z</time></trkpt><trkpt lat="46.1175666" lon="13.5465779"><ele>331.0</ele><time>2026-05-02T06:58:50.932Z</time></trkpt><trkpt lat="46.1176253" lon="13.5466859"><ele>331.0</ele><time>2026-05-02T06:58:51.938Z</time></trkpt><trkpt lat="46.1176645" lon="13.5468034"><ele>331.0</ele><time>2026-05-02T06:58:52.942Z</time></trkpt><trkpt lat="46.1177055" lon="13.5469267"><ele>332.6</ele><time>2026-05-02T06:58:53.936Z</time></trkpt><trkpt lat="46.1177313" lon="13.5470764"><ele>334.20000000000005</ele><time>2026-05-02T06:58:54.931Z</time></trkpt><trkpt lat="46.117751" lon="13.5472382"><ele>335.79999999999995</ele><time>2026-05-02T06:58:55.94Z</time></trkpt><trkpt lat="46.1177703" lon="13.5473929"><ele>337.4</ele><time>2026-05-02T06:58:56.933Z</time></trkpt><trkpt lat="46.1177941" lon="13.5475345"><ele>339.0</ele><time>2026-05-02T06:58:57.93Z</time></trkpt><trkpt lat="46.1178108" lon="13.5476593"><ele>339.0</ele><time>2026-05-02T06:58:58.935Z</time></trkpt><trkpt lat="46.1178204" lon="13.5477835"><ele>339.0</ele><time>2026-05-02T06:58:59.931Z</time></trkpt><trkpt lat="46.1178232" lon="13.5479006"><ele>339.0</ele><time>2026-05-02T06:59:00.93Z</time></trkpt><trkpt lat="46.11783" lon="13.5480337"><ele>339.0</ele><time>2026-05-02T06:59:01.936Z</time></trkpt><trkpt lat="46.1178142" lon="13.5483073"><ele>337.79999999999995</ele><time>2026-05-02T06:59:03.935Z</time></trkpt><trkpt lat="46.1178137" lon="13.5484342"><ele>336.59999999999997</ele><time>2026-05-02T06:59:04.932Z</time></trkpt><trkpt lat="46.1178161" lon="13.5485636"><ele>335.4</ele><time>2026-05-02T06:59:05.933Z</time></trkpt><trkpt lat="46.1177982" lon="13.5486732"><ele>334.2</ele><time>2026-05-02T06:59:06.926Z</time></trkpt><trkpt lat="46.1177521" lon="13.5487963"><ele>333.0</ele><time>2026-05-02T06:59:07.933Z</time></trkpt><trkpt lat="46.1177004" lon="13.5489194"><ele>330.4</ele><time>2026-05-02T06:59:08.933Z</time></trkpt><trkpt lat="46.1176308" lon="13.5490349"><ele>327.79999999999995</ele><time>2026-05-02T06:59:09.938Z</time></trkpt><trkpt lat="46.117564" lon="13.5491684"><ele>325.2</ele><time>2026-05-02T06:59:10.94Z</time></trkpt><trkpt lat="46.1174856" lon="13.5492836"><ele>322.6</ele><time>2026-05-02T06:59:11.934Z</time></trkpt><trkpt lat="46.1174051" lon="13.5494017"><ele>320.0</ele><time>2026-05-02T06:59:12.93Z</time></trkpt><trkpt lat="46.1173397" lon="13.5495098"><ele>328.0</ele><time>2026-05-02T06:59:13.93Z</time></trkpt><trkpt lat="46.1172824" lon="13.5496175"><ele>336.0</ele><time>2026-05-02T06:59:14.925Z</time></trkpt><trkpt lat="46.1172338" lon="13.549737"><ele>344.0</ele><time>2026-05-02T06:59:15.938Z</time></trkpt><trkpt lat="46.117211" lon="13.5498518"><ele>352.0</ele><time>2026-05-02T06:59:16.936Z</time></trkpt><trkpt lat="46.1171864" lon="13.5499696"><ele>360.0</ele><time>2026-05-02T06:59:17.94Z</time></trkpt><trkpt lat="46.1171595" lon="13.5500945"><ele>368.0</ele><time>2026-05-02T06:59:18.934Z</time></trkpt><trkpt lat="46.1171223" lon="13.5502269"><ele>368.0</ele><time>2026-05-02T06:59:19.938Z</time></trkpt><trkpt lat="46.1170829" lon="13.5503608"><ele>368.0</ele><time>2026-05-02T06:59:20.937Z</time></trkpt><trkpt lat="46.1170342" lon="13.5504867"><ele>368.0</ele><time>2026-05-02T06:59:21.937Z</time></trkpt><trkpt lat="46.1169754" lon="13.5506114"><ele>368.0</ele><time>2026-05-02T06:59:22.93Z</time></trkpt><trkpt lat="46.1168596" lon="13.550842"><ele>365.83333333333337</ele><time>2026-05-02T06:59:24.931Z</time></trkpt><trkpt lat="46.1168193" lon="13.5509483"><ele>363.6666666666667</ele><time>2026-05-02T06:59:25.927Z</time></trkpt><trkpt lat="46.116779" lon="13.551028"><ele>361.5</ele><time>2026-05-02T06:59:26.935Z</time></trkpt><trkpt lat="46.1167459" lon="13.5511093"><ele>359.3333333333333</ele><time>2026-05-02T06:59:27.932Z</time></trkpt><trkpt lat="46.116739" lon="13.55121"><ele>357.16666666666663</ele><time>2026-05-02T06:59:29.926Z</time></trkpt><trkpt lat="46.1168412" lon="13.5511653"><ele>355.0</ele><time>2026-05-02T06:59:33.928Z</time></trkpt><trkpt lat="46.1169135" lon="13.5511066"><ele>355.0</ele><time>2026-05-02T06:59:34.933Z</time></trkpt><trkpt lat="46.1169974" lon="13.551008"><ele>355.0</ele><time>2026-05-02T06:59:35.926Z</time></trkpt><trkpt lat="46.1170865" lon="13.5509142"><ele>355.0</ele><time>2026-05-02T06:59:36.926Z</time></trkpt><trkpt lat="46.1171831" lon="13.5508471"><ele>355.0</ele><time>2026-05-02T06:59:37.927Z</time></trkpt><trkpt lat="46.1172697" lon="13.5507678"><ele>355.0</ele><time>2026-05-02T06:59:38.931Z</time></trkpt><trkpt lat="46.1173596" lon="13.5507088"><ele>351.3333333333333</ele><time>2026-05-02T06:59:39.939Z</time></trkpt><trkpt lat="46.1174309" lon="13.5506463"><ele>347.66666666666663</ele><time>2026-05-02T06:59:40.932Z</time></trkpt><trkpt lat="46.1174865" lon="13.5505669"><ele>344.0</ele><time>2026-05-02T06:59:41.931Z</time></trkpt><trkpt lat="46.1175464" lon="13.5505086"><ele>340.3333333333333</ele><time>2026-05-02T06:59:42.934Z</time></trkpt><trkpt lat="46.1176066" lon="13.5504561"><ele>336.6666666666667</ele><time>2026-05-02T06:59:43.945Z</time></trkpt><trkpt lat="46.1177267" lon="13.550368"><ele>333.0</ele><time>2026-05-02T06:59:45.931Z</time></trkpt><trkpt lat="46.1177912" lon="13.5503412"><ele>330.0</ele><time>2026-05-02T06:59:46.931Z</time></trkpt><trkpt lat="46.1178562" lon="13.5503225"><ele>327.0</ele><time>2026-05-02T06:59:47.935Z</time></trkpt><trkpt lat="46.1179222" lon="13.5503309"><ele>324.0</ele><time>2026-05-02T06:59:48.938Z</time></trkpt><trkpt lat="46.1179943" lon="13.5503264"><ele>321.0</ele><time>2026-05-02T06:59:49.933Z</time></trkpt><trkpt lat="46.1180677" lon="13.5503164"><ele>318.0</ele><time>2026-05-02T06:59:50.938Z</time></trkpt><trkpt lat="46.1181512" lon="13.5503094"><ele>315.0</ele><time>2026-05-02T06:59:51.939Z</time></trkpt><trkpt lat="46.1182531" lon="13.5503102"><ele>313.0</ele><time>2026-05-02T06:59:52.934Z</time></trkpt><trkpt lat="46.1183397" lon="13.5502934"><ele>311.0</ele><time>2026-05-02T06:59:53.929Z</time></trkpt><trkpt lat="46.1184348" lon="13.5502931"><ele>309.0</ele><time>2026-05-02T06:59:54.927Z</time></trkpt><trkpt lat="46.1185252" lon="13.5503079"><ele>307.0</ele><time>2026-05-02T06:59:55.934Z</time></trkpt><trkpt lat="46.1186299" lon="13.5503557"><ele>305.0</ele><time>2026-05-02T06:59:56.93Z</time></trkpt><trkpt lat="46.118731" lon="13.5503761"><ele>308.4</ele><time>2026-05-02T06:59:57.933Z</time></trkpt><trkpt lat="46.1188201" lon="13.550388"><ele>311.8</ele><time>2026-05-02T06:59:58.929Z</time></trkpt><trkpt lat="46.1189015" lon="13.5503989"><ele>315.20000000000005</ele><time>2026-05-02T06:59:59.928Z</time></trkpt><trkpt lat="46.1189726" lon="13.550416"><ele>318.6</ele><time>2026-05-02T07:00:00.929Z</time></trkpt><trkpt lat="46.1190626" lon="13.5504877"><ele>322.0</ele><time>2026-05-02T07:00:02.926Z</time></trkpt><trkpt lat="46.1191476" lon="13.5505885"><ele>322.0</ele><time>2026-05-02T07:00:04.931Z</time></trkpt><trkpt lat="46.1192851" lon="13.5508174"><ele>322.0</ele><time>2026-05-02T07:00:08.931Z</time></trkpt><trkpt lat="46.1193441" lon="13.5508813"><ele>322.0</ele><time>2026-05-02T07:00:09.929Z</time></trkpt><trkpt lat="46.1194102" lon="13.5509527"><ele>322.0</ele><time>2026-05-02T07:00:10.934Z</time></trkpt><trkpt lat="46.1194739" lon="13.5510198"><ele>322.0</ele><time>2026-05-02T07:00:11.931Z</time></trkpt><trkpt lat="46.1195485" lon="13.5510886"><ele>322.0</ele><time>2026-05-02T07:00:12.938Z</time></trkpt><trkpt lat="46.1196237" lon="13.5511551"><ele>322.0</ele><time>2026-05-02T07:00:13.937Z</time></trkpt><trkpt lat="46.1197011" lon="13.5512205"><ele>322.0</ele><time>2026-05-02T07:00:14.932Z</time></trkpt><trkpt lat="46.1197675" lon="13.5512629"><ele>322.0</ele><time>2026-05-02T07:00:15.93Z</time></trkpt><trkpt lat="46.1198741" lon="13.5513409"><ele>322.0</ele><time>2026-05-02T07:00:17.933Z</time></trkpt><trkpt lat="46.1199728" lon="13.5514136"><ele>323.20000000000005</ele><time>2026-05-02T07:00:19.937Z</time></trkpt><trkpt lat="46.1201012" lon="13.5514634"><ele>324.4</ele><time>2026-05-02T07:00:21.936Z</time></trkpt><trkpt lat="46.1201837" lon="13.5514804"><ele>325.6</ele><time>2026-05-02T07:00:22.949Z</time></trkpt><trkpt lat="46.1202586" lon="13.5514881"><ele>326.79999999999995</ele><time>2026-05-02T07:00:23.931Z</time></trkpt><trkpt lat="46.1203298" lon="13.5515016"><ele>328.0</ele><time>2026-05-02T07:00:24.935Z</time></trkpt><trkpt lat="46.1204354" lon="13.5515448"><ele>328.0</ele><time>2026-05-02T07:00:26.935Z</time></trkpt><trkpt lat="46.1206018" lon="13.5516983"><ele>328.0</ele><time>2026-05-02T07:00:29.935Z</time></trkpt><trkpt lat="46.1206526" lon="13.5517619"><ele>328.0</ele><time>2026-05-02T07:00:30.929Z</time></trkpt><trkpt lat="46.1207047" lon="13.5518368"><ele>328.0</ele><time>2026-05-02T07:00:31.938Z</time></trkpt><trkpt lat="46.1207811" lon="13.5519689"><ele>324.0</ele><time>2026-05-02T07:00:33.942Z</time></trkpt><trkpt lat="46.1208388" lon="13.5521279"><ele>320.0</ele><time>2026-05-02T07:00:35.943Z</time></trkpt><trkpt lat="46.1208522" lon="13.5523114"><ele>316.0</ele><time>2026-05-02T07:00:37.925Z</time></trkpt><trkpt lat="46.1208445" lon="13.5524065"><ele>312.0</ele><time>2026-05-02T07:00:38.939Z</time></trkpt><trkpt lat="46.1208309" lon="13.5525995"><ele>312.0</ele><time>2026-05-02T07:00:40.941Z</time></trkpt><trkpt lat="46.1208433" lon="13.5527022"><ele>312.0</ele><time>2026-05-02T07:00:41.935Z</time></trkpt><trkpt lat="46.1208633" lon="13.5528127"><ele>312.0</ele><time>2026-05-02T07:00:42.928Z</time></trkpt><trkpt lat="46.1208783" lon="13.5529283"><ele>312.0</ele><time>2026-05-02T07:00:43.93Z</time></trkpt><trkpt lat="46.1208912" lon="13.5530468"><ele>312.0</ele><time>2026-05-02T07:00:44.934Z</time></trkpt><trkpt lat="46.120904" lon="13.5531628"><ele>312.0</ele><time>2026-05-02T07:00:45.94Z</time></trkpt><trkpt lat="46.1209241" lon="13.5532672"><ele>313.0</ele><time>2026-05-02T07:00:46.928Z</time></trkpt><trkpt lat="46.1209436" lon="13.5533686"><ele>314.0</ele><time>2026-05-02T07:00:47.933Z</time></trkpt><trkpt lat="46.1209981" lon="13.5535498"><ele>315.0</ele><time>2026-05-02T07:00:49.93Z</time></trkpt><trkpt lat="46.1210529" lon="13.5537069"><ele>316.0</ele><time>2026-05-02T07:00:51.929Z</time></trkpt><trkpt lat="46.1211234" lon="13.5538547"><ele>316.0</ele><time>2026-05-02T07:00:53.937Z</time></trkpt><trkpt lat="46.1211606" lon="13.5540056"><ele>316.0</ele><time>2026-05-02T07:00:55.922Z</time></trkpt><trkpt lat="46.1211483" lon="13.5541809"><ele>316.0</ele><time>2026-05-02T07:00:57.924Z</time></trkpt><trkpt lat="46.1211241" lon="13.5542915"><ele>316.0</ele><time>2026-05-02T07:00:58.932Z</time></trkpt><trkpt lat="46.1210838" lon="13.5544249"><ele>316.0</ele><time>2026-05-02T07:00:59.933Z</time></trkpt><trkpt lat="46.1210433" lon="13.5545632"><ele>312.8</ele><time>2026-05-02T07:01:00.938Z</time></trkpt><trkpt lat="46.1209941" lon="13.5547046"><ele>309.6</ele><time>2026-05-02T07:01:01.938Z</time></trkpt><trkpt lat="46.1209531" lon="13.5548555"><ele>306.4</ele><time>2026-05-02T07:01:02.937Z</time></trkpt><trkpt lat="46.120918" lon="13.5549956"><ele>303.2</ele><time>2026-05-02T07:01:03.929Z</time></trkpt><trkpt lat="46.1208689" lon="13.5551224"><ele>300.0</ele><time>2026-05-02T07:01:04.927Z</time></trkpt><trkpt lat="46.1208156" lon="13.5552433"><ele>300.0</ele><time>2026-05-02T07:01:05.931Z</time></trkpt><trkpt lat="46.1207791" lon="13.5553641"><ele>300.0</ele><time>2026-05-02T07:01:06.93Z</time></trkpt><trkpt lat="46.1207535" lon="13.5554775"><ele>300.0</ele><time>2026-05-02T07:01:07.928Z</time></trkpt><trkpt lat="46.1207253" lon="13.555595"><ele>300.0</ele><time>2026-05-02T07:01:08.939Z</time></trkpt><trkpt lat="46.1206451" lon="13.5558364"><ele>300.0</ele><time>2026-05-02T07:01:10.934Z</time></trkpt><trkpt lat="46.1205981" lon="13.5559392"><ele>300.5</ele><time>2026-05-02T07:01:11.935Z</time></trkpt><trkpt lat="46.1205531" lon="13.5560404"><ele>301.0</ele><time>2026-05-02T07:01:12.938Z</time></trkpt><trkpt lat="46.1205108" lon="13.5561339"><ele>301.5</ele><time>2026-05-02T07:01:13.938Z</time></trkpt><trkpt lat="46.1204694" lon="13.5562141"><ele>302.0</ele><time>2026-05-02T07:01:14.934Z</time></trkpt><trkpt lat="46.1204397" lon="13.5562995"><ele>302.5</ele><time>2026-05-02T07:01:15.943Z</time></trkpt><trkpt lat="46.1203946" lon="13.5564516"><ele>303.0</ele><time>2026-05-02T07:01:17.933Z</time></trkpt><trkpt lat="46.1203598" lon="13.5565496"><ele>303.0</ele><time>2026-05-02T07:01:19.938Z</time></trkpt><trkpt lat="46.12032" lon="13.556645"><ele>303.0</ele><time>2026-05-02T07:01:21.936Z</time></trkpt><trkpt lat="46.120268" lon="13.5567181"><ele>303.0</ele><time>2026-05-02T07:01:23.933Z</time></trkpt><trkpt lat="46.1202033" lon="13.5567939"><ele>303.0</ele><time>2026-05-02T07:01:25.927Z</time></trkpt><trkpt lat="46.1201087" lon="13.5569182"><ele>303.0</ele><time>2026-05-02T07:01:27.927Z</time></trkpt><trkpt lat="46.1200524" lon="13.5569735"><ele>303.0</ele><time>2026-05-02T07:01:28.94Z</time></trkpt><trkpt lat="46.1199933" lon="13.5570336"><ele>305.5</ele><time>2026-05-02T07:01:29.928Z</time></trkpt><trkpt lat="46.1198793" lon="13.557155"><ele>308.0</ele><time>2026-05-02T07:01:31.932Z</time></trkpt><trkpt lat="46.1198271" lon="13.557223"><ele>310.5</ele><time>2026-05-02T07:01:32.931Z</time></trkpt><trkpt lat="46.1197835" lon="13.5572924"><ele>313.0</ele><time>2026-05-02T07:01:33.941Z</time></trkpt><trkpt lat="46.1197337" lon="13.5573558"><ele>315.5</ele><time>2026-05-02T07:01:34.941Z</time></trkpt><trkpt lat="46.1196802" lon="13.5574179"><ele>318.0</ele><time>2026-05-02T07:01:35.936Z</time></trkpt><trkpt lat="46.1196317" lon="13.5574764"><ele>318.0</ele><time>2026-05-02T07:01:36.929Z</time></trkpt><trkpt lat="46.1195866" lon="13.5575425"><ele>318.0</ele><time>2026-05-02T07:01:37.934Z</time></trkpt><trkpt lat="46.1194946" lon="13.5576524"><ele>318.0</ele><time>2026-05-02T07:01:39.929Z</time></trkpt><trkpt lat="46.1194551" lon="13.5577455"><ele>318.0</ele><time>2026-05-02T07:01:41.934Z</time></trkpt><trkpt lat="46.1194617" lon="13.5578469"><ele>318.0</ele><time>2026-05-02T07:01:43.934Z</time></trkpt><trkpt lat="46.1195127" lon="13.5579391"><ele>318.0</ele><time>2026-05-02T07:01:45.933Z</time></trkpt><trkpt lat="46.1196004" lon="13.5579583"><ele>318.0</ele><time>2026-05-02T07:01:47.932Z</time></trkpt><trkpt lat="46.1197124" lon="13.557939"><ele>318.0</ele><time>2026-05-02T07:01:49.934Z</time></trkpt><trkpt lat="46.1197789" lon="13.5579188"><ele>318.0</ele><time>2026-05-02T07:01:50.941Z</time></trkpt><trkpt lat="46.1199347" lon="13.5579088"><ele>318.0</ele><time>2026-05-02T07:01:52.924Z</time></trkpt><trkpt lat="46.1200138" lon="13.5579273"><ele>318.0</ele><time>2026-05-02T07:01:53.944Z</time></trkpt><trkpt lat="46.1200877" lon="13.5579507"><ele>314.1666666666667</ele><time>2026-05-02T07:01:54.93Z</time></trkpt><trkpt lat="46.1201653" lon="13.5579663"><ele>310.3333333333333</ele><time>2026-05-02T07:01:55.932Z</time></trkpt><trkpt lat="46.1202343" lon="13.5580231"><ele>306.5</ele><time>2026-05-02T07:01:56.93Z</time></trkpt><trkpt lat="46.1203037" lon="13.5580882"><ele>302.66666666666663</ele><time>2026-05-02T07:01:57.934Z</time></trkpt><trkpt lat="46.120376" lon="13.5581686"><ele>298.8333333333333</ele><time>2026-05-02T07:01:58.94Z</time></trkpt><trkpt lat="46.1204439" lon="13.5582582"><ele>295.0</ele><time>2026-05-02T07:01:59.93Z</time></trkpt><trkpt lat="46.1205044" lon="13.5583485"><ele>295.0</ele><time>2026-05-02T07:02:00.931Z</time></trkpt><trkpt lat="46.1205564" lon="13.5584355"><ele>295.0</ele><time>2026-05-02T07:02:01.934Z</time></trkpt><trkpt lat="46.1206065" lon="13.5584993"><ele>295.0</ele><time>2026-05-02T07:02:02.939Z</time></trkpt><trkpt lat="46.1206433" lon="13.5585794"><ele>295.0</ele><time>2026-05-02T07:02:03.93Z</time></trkpt><trkpt lat="46.1206816" lon="13.5586993"><ele>295.0</ele><time>2026-05-02T07:02:05.931Z</time></trkpt><trkpt lat="46.1207756" lon="13.5587959"><ele>295.0</ele><time>2026-05-02T07:02:07.931Z</time></trkpt><trkpt lat="46.1208648" lon="13.5588529"><ele>296.5</ele><time>2026-05-02T07:02:09.936Z</time></trkpt><trkpt lat="46.1209866" lon="13.5588802"><ele>298.0</ele><time>2026-05-02T07:02:11.934Z</time></trkpt><trkpt lat="46.1211427" lon="13.5589169"><ele>299.5</ele><time>2026-05-02T07:02:13.943Z</time></trkpt><trkpt lat="46.1212647" lon="13.5589111"><ele>301.0</ele><time>2026-05-02T07:02:15.935Z</time></trkpt><trkpt lat="46.1213366" lon="13.5589106"><ele>301.0</ele><time>2026-05-02T07:02:16.93Z</time></trkpt><trkpt lat="46.1214138" lon="13.5589289"><ele>301.0</ele><time>2026-05-02T07:02:17.931Z</time></trkpt><trkpt lat="46.1214908" lon="13.5589565"><ele>301.0</ele><time>2026-05-02T07:02:18.931Z</time></trkpt><trkpt lat="46.1215736" lon="13.5589883"><ele>301.0</ele><time>2026-05-02T07:02:19.93Z</time></trkpt><trkpt lat="46.1216462" lon="13.5590413"><ele>301.0</ele><time>2026-05-02T07:02:20.927Z</time></trkpt><trkpt lat="46.1217247" lon="13.5591263"><ele>301.0</ele><time>2026-05-02T07:02:22.924Z</time></trkpt><trkpt lat="46.1217883" lon="13.5592605"><ele>301.5</ele><time>2026-05-02T07:02:24.929Z</time></trkpt><trkpt lat="46.1218235" lon="13.559344"><ele>302.0</ele><time>2026-05-02T07:02:25.93Z</time></trkpt><trkpt lat="46.1218481" lon="13.5594476"><ele>302.5</ele><time>2026-05-02T07:02:26.923Z</time></trkpt><trkpt lat="46.1218688" lon="13.5595541"><ele>303.0</ele><time>2026-05-02T07:02:27.934Z</time></trkpt><trkpt lat="46.121887" lon="13.5596687"><ele>303.5</ele><time>2026-05-02T07:02:28.941Z</time></trkpt><trkpt lat="46.1219072" lon="13.5597977"><ele>304.0</ele><time>2026-05-02T07:02:29.928Z</time></trkpt><trkpt lat="46.1219298" lon="13.5599224"><ele>304.0</ele><time>2026-05-02T07:02:30.93Z</time></trkpt><trkpt lat="46.1219511" lon="13.5600567"><ele>304.0</ele><time>2026-05-02T07:02:31.926Z</time></trkpt><trkpt lat="46.1219781" lon="13.5601962"><ele>304.0</ele><time>2026-05-02T07:02:32.942Z</time></trkpt><trkpt lat="46.1220172" lon="13.5604416"><ele>304.0</ele><time>2026-05-02T07:02:34.932Z</time></trkpt><trkpt lat="46.1220348" lon="13.5605526"><ele>304.0</ele><time>2026-05-02T07:02:35.928Z</time></trkpt><trkpt lat="46.1220614" lon="13.5606365"><ele>305.85714285714283</ele><time>2026-05-02T07:02:36.943Z</time></trkpt><trkpt lat="46.1221024" lon="13.5607227"><ele>307.7142857142857</ele><time>2026-05-02T07:02:37.941Z</time></trkpt><trkpt lat="46.1221482" lon="13.5607944"><ele>309.57142857142856</ele><time>2026-05-02T07:02:38.941Z</time></trkpt><trkpt lat="46.1221907" lon="13.560873"><ele>311.42857142857144</ele><time>2026-05-02T07:02:39.923Z</time></trkpt><trkpt lat="46.1222292" lon="13.5609544"><ele>313.2857142857143</ele><time>2026-05-02T07:02:40.93Z</time></trkpt><trkpt lat="46.1222555" lon="13.5610524"><ele>315.14285714285717</ele><time>2026-05-02T07:02:41.933Z</time></trkpt><trkpt lat="46.1222747" lon="13.5611644"><ele>317.0</ele><time>2026-05-02T07:02:42.934Z</time></trkpt><trkpt lat="46.1222846" lon="13.561277"><ele>319.5</ele><time>2026-05-02T07:02:43.931Z</time></trkpt><trkpt lat="46.1222955" lon="13.5614037"><ele>322.0</ele><time>2026-05-02T07:02:44.934Z</time></trkpt><trkpt lat="46.1223142" lon="13.561519"><ele>324.5</ele><time>2026-05-02T07:02:45.931Z</time></trkpt><trkpt lat="46.1223365" lon="13.5616294"><ele>327.0</ele><time>2026-05-02T07:02:46.928Z</time></trkpt><trkpt lat="46.1223589" lon="13.5617348"><ele>329.5</ele><time>2026-05-02T07:02:47.932Z</time></trkpt><trkpt lat="46.122403" lon="13.5618366"><ele>332.0</ele><time>2026-05-02T07:02:48.932Z</time></trkpt><trkpt lat="46.1224533" lon="13.5619436"><ele>326.40000000000003</ele><time>2026-05-02T07:02:49.935Z</time></trkpt><trkpt lat="46.1225014" lon="13.5620535"><ele>320.8</ele><time>2026-05-02T07:02:50.929Z</time></trkpt><trkpt lat="46.1225569" lon="13.562158"><ele>315.2</ele><time>2026-05-02T07:02:51.933Z</time></trkpt><trkpt lat="46.1226011" lon="13.5622444"><ele>309.6</ele><time>2026-05-02T07:02:52.931Z</time></trkpt><trkpt lat="46.1226435" lon="13.5623211"><ele>304.0</ele><time>2026-05-02T07:02:53.926Z</time></trkpt><trkpt lat="46.1227877" lon="13.5624999"><ele>304.0</ele><time>2026-05-02T07:02:57.93Z</time></trkpt><trkpt lat="46.1228568" lon="13.5626008"><ele>304.0</ele><time>2026-05-02T07:02:59.933Z</time></trkpt><trkpt lat="46.1229047" lon="13.5627349"><ele>304.0</ele><time>2026-05-02T07:03:01.936Z</time></trkpt><trkpt lat="46.1229462" lon="13.5628108"><ele>304.0</ele><time>2026-05-02T07:03:02.934Z</time></trkpt><trkpt lat="46.1230234" lon="13.56292"><ele>304.0</ele><time>2026-05-02T07:03:04.932Z</time></trkpt><trkpt lat="46.1231159" lon="13.5629973"><ele>303.0</ele><time>2026-05-02T07:03:06.928Z</time></trkpt><trkpt lat="46.1231779" lon="13.5630225"><ele>302.0</ele><time>2026-05-02T07:03:07.936Z</time></trkpt><trkpt lat="46.123254" lon="13.5630499"><ele>301.0</ele><time>2026-05-02T07:03:08.931Z</time></trkpt><trkpt lat="46.1233378" lon="13.5630641"><ele>300.0</ele><time>2026-05-02T07:03:09.931Z</time></trkpt><trkpt lat="46.1234274" lon="13.5630801"><ele>299.0</ele><time>2026-05-02T07:03:10.931Z</time></trkpt><trkpt lat="46.1235143" lon="13.5630924"><ele>298.0</ele><time>2026-05-02T07:03:11.934Z</time></trkpt><trkpt lat="46.1235881" lon="13.5631045"><ele>298.0</ele><time>2026-05-02T07:03:12.947Z</time></trkpt><trkpt lat="46.1236663" lon="13.5631192"><ele>298.0</ele><time>2026-05-02T07:03:13.925Z</time></trkpt><trkpt lat="46.1237353" lon="13.5631499"><ele>298.0</ele><time>2026-05-02T07:03:14.926Z</time></trkpt><trkpt lat="46.1238648" lon="13.5632677"><ele>298.0</ele><time>2026-05-02T07:03:16.929Z</time></trkpt><trkpt lat="46.1239215" lon="13.5633486"><ele>298.0</ele><time>2026-05-02T07:03:17.934Z</time></trkpt><trkpt lat="46.1239798" lon="13.5634528"><ele>298.0</ele><time>2026-05-02T07:03:18.93Z</time></trkpt><trkpt lat="46.124028" lon="13.5635848"><ele>298.0</ele><time>2026-05-02T07:03:19.937Z</time></trkpt><trkpt lat="46.1240897" lon="13.5637241"><ele>298.0</ele><time>2026-05-02T07:03:20.938Z</time></trkpt><trkpt lat="46.124138" lon="13.5638517"><ele>298.0</ele><time>2026-05-02T07:03:21.932Z</time></trkpt><trkpt lat="46.1241935" lon="13.5639727"><ele>298.0</ele><time>2026-05-02T07:03:22.933Z</time></trkpt><trkpt lat="46.1242299" lon="13.5640842"><ele>297.2</ele><time>2026-05-02T07:03:23.935Z</time></trkpt><trkpt lat="46.1242627" lon="13.5642088"><ele>296.4</ele><time>2026-05-02T07:03:24.947Z</time></trkpt><trkpt lat="46.1242814" lon="13.5643457"><ele>295.59999999999997</ele><time>2026-05-02T07:03:25.925Z</time></trkpt><trkpt lat="46.1242937" lon="13.5644814"><ele>294.8</ele><time>2026-05-02T07:03:26.933Z</time></trkpt><trkpt lat="46.1243041" lon="13.5645865"><ele>294.0</ele><time>2026-05-02T07:03:27.93Z</time></trkpt><trkpt lat="46.1243431" lon="13.5647525"><ele>293.8</ele><time>2026-05-02T07:03:29.943Z</time></trkpt><trkpt lat="46.1243729" lon="13.5648441"><ele>293.59999999999997</ele><time>2026-05-02T07:03:30.932Z</time></trkpt><trkpt lat="46.1244227" lon="13.5650278"><ele>293.4</ele><time>2026-05-02T07:03:32.934Z</time></trkpt><trkpt lat="46.1244246" lon="13.5651578"><ele>293.2</ele><time>2026-05-02T07:03:33.936Z</time></trkpt><trkpt lat="46.124426" lon="13.5652972"><ele>293.0</ele><time>2026-05-02T07:03:34.945Z</time></trkpt><trkpt lat="46.1244142" lon="13.5654487"><ele>292.75</ele><time>2026-05-02T07:03:35.923Z</time></trkpt><trkpt lat="46.124381" lon="13.5657515"><ele>292.5</ele><time>2026-05-02T07:03:37.928Z</time></trkpt><trkpt lat="46.1243623" lon="13.5659"><ele>292.25</ele><time>2026-05-02T07:03:38.941Z</time></trkpt><trkpt lat="46.124344" lon="13.5660428"><ele>292.0</ele><time>2026-05-02T07:03:39.938Z</time></trkpt><trkpt lat="46.1243181" lon="13.5661762"><ele>291.5</ele><time>2026-05-02T07:03:40.925Z</time></trkpt><trkpt lat="46.1243075" lon="13.5663016"><ele>291.0</ele><time>2026-05-02T07:03:41.93Z</time></trkpt><trkpt lat="46.1242916" lon="13.5664301"><ele>290.5</ele><time>2026-05-02T07:03:42.933Z</time></trkpt><trkpt lat="46.1242786" lon="13.5665636"><ele>290.0</ele><time>2026-05-02T07:03:43.932Z</time></trkpt><trkpt lat="46.1242688" lon="13.566688"><ele>289.5</ele><time>2026-05-02T07:03:44.93Z</time></trkpt><trkpt lat="46.1242584" lon="13.5668078"><ele>289.0</ele><time>2026-05-02T07:03:45.932Z</time></trkpt><trkpt lat="46.1242506" lon="13.5669169"><ele>286.5</ele><time>2026-05-02T07:03:46.93Z</time></trkpt><trkpt lat="46.1242521" lon="13.5670338"><ele>284.0</ele><time>2026-05-02T07:03:47.929Z</time></trkpt><trkpt lat="46.1242514" lon="13.567151"><ele>281.5</ele><time>2026-05-02T07:03:48.93Z</time></trkpt><trkpt lat="46.1242512" lon="13.567274"><ele>279.0</ele><time>2026-05-02T07:03:49.93Z</time></trkpt><trkpt lat="46.1242435" lon="13.5673953"><ele>276.5</ele><time>2026-05-02T07:03:50.93Z</time></trkpt><trkpt lat="46.1242276" lon="13.5675109"><ele>274.0</ele><time>2026-05-02T07:03:51.934Z</time></trkpt><trkpt lat="46.1242047" lon="13.5676161"><ele>274.0</ele><time>2026-05-02T07:03:52.938Z</time></trkpt><trkpt lat="46.1241592" lon="13.5677029"><ele>274.0</ele><time>2026-05-02T07:03:53.931Z</time></trkpt><trkpt lat="46.1240699" lon="13.5678005"><ele>274.0</ele><time>2026-05-02T07:03:55.936Z</time></trkpt><trkpt lat="46.1241338" lon="13.5677398"><ele>274.0</ele><time>2026-05-02T07:04:01.929Z</time></trkpt><trkpt lat="46.1242415" lon="13.5675697"><ele>274.0</ele><time>2026-05-02T07:04:03.928Z</time></trkpt><trkpt lat="46.1242902" lon="13.5674818"><ele>274.0</ele><time>2026-05-02T07:04:04.937Z</time></trkpt><trkpt lat="46.1243343" lon="13.567391"><ele>274.0</ele><time>2026-05-02T07:04:05.927Z</time></trkpt><trkpt lat="46.1243708" lon="13.5672823"><ele>274.0</ele><time>2026-05-02T07:04:06.925Z</time></trkpt><trkpt lat="46.1244074" lon="13.5671612"><ele>274.0</ele><time>2026-05-02T07:04:07.933Z</time></trkpt><trkpt lat="46.1244394" lon="13.5670512"><ele>274.0</ele><time>2026-05-02T07:04:08.925Z</time></trkpt><trkpt lat="46.1244755" lon="13.5669545"><ele>274.0</ele><time>2026-05-02T07:04:09.931Z</time></trkpt><trkpt lat="46.1245068" lon="13.5668525"><ele>276.5</ele><time>2026-05-02T07:04:10.929Z</time></trkpt><trkpt lat="46.124532" lon="13.5667383"><ele>279.0</ele><time>2026-05-02T07:04:11.926Z</time></trkpt><trkpt lat="46.1245503" lon="13.5666172"><ele>281.5</ele><time>2026-05-02T07:04:12.933Z</time></trkpt><trkpt lat="46.1245694" lon="13.566493"><ele>284.0</ele><time>2026-05-02T07:04:13.932Z</time></trkpt><trkpt lat="46.124587" lon="13.5663631"><ele>286.5</ele><time>2026-05-02T07:04:14.93Z</time></trkpt><trkpt lat="46.1246067" lon="13.56625"><ele>289.0</ele><time>2026-05-02T07:04:15.932Z</time></trkpt><trkpt lat="46.1246142" lon="13.5661389"><ele>289.5</ele><time>2026-05-02T07:04:16.93Z</time></trkpt><trkpt lat="46.1246292" lon="13.5660199"><ele>290.0</ele><time>2026-05-02T07:04:17.934Z</time></trkpt><trkpt lat="46.1246432" lon="13.5659036"><ele>290.5</ele><time>2026-05-02T07:04:18.929Z</time></trkpt><trkpt lat="46.1246619" lon="13.5657765"><ele>291.0</ele><time>2026-05-02T07:04:19.927Z</time></trkpt><trkpt lat="46.1246792" lon="13.5656554"><ele>291.5</ele><time>2026-05-02T07:04:20.928Z</time></trkpt><trkpt lat="46.1246986" lon="13.5655379"><ele>292.0</ele><time>2026-05-02T07:04:21.929Z</time></trkpt><trkpt lat="46.1247234" lon="13.5654091"><ele>292.2</ele><time>2026-05-02T07:04:22.93Z</time></trkpt><trkpt lat="46.1247682" lon="13.5652131"><ele>292.4</ele><time>2026-05-02T07:04:24.929Z</time></trkpt><trkpt lat="46.1247979" lon="13.5650324"><ele>292.6</ele><time>2026-05-02T07:04:26.93Z</time></trkpt><trkpt lat="46.1248088" lon="13.5649281"><ele>292.8</ele><time>2026-05-02T07:04:27.926Z</time></trkpt><trkpt lat="46.1248278" lon="13.5648081"><ele>293.0</ele><time>2026-05-02T07:04:28.931Z</time></trkpt><trkpt lat="46.1248492" lon="13.564699"><ele>293.0</ele><time>2026-05-02T07:04:29.937Z</time></trkpt><trkpt lat="46.1248717" lon="13.5645891"><ele>293.0</ele><time>2026-05-02T07:04:30.929Z</time></trkpt><trkpt lat="46.1248992" lon="13.5644751"><ele>293.0</ele><time>2026-05-02T07:04:31.926Z</time></trkpt><trkpt lat="46.1249194" lon="13.5643747"><ele>293.0</ele><time>2026-05-02T07:04:32.93Z</time></trkpt><trkpt lat="46.1249334" lon="13.5642824"><ele>293.0</ele><time>2026-05-02T07:04:33.926Z</time></trkpt><trkpt lat="46.1249796" lon="13.5641145"><ele>293.0</ele><time>2026-05-02T07:04:35.933Z</time></trkpt><trkpt lat="46.1249936" lon="13.5640204"><ele>283.4</ele><time>2026-05-02T07:04:36.929Z</time></trkpt><trkpt lat="46.1250067" lon="13.5639013"><ele>273.8</ele><time>2026-05-02T07:04:37.926Z</time></trkpt><trkpt lat="46.1250247" lon="13.5637574"><ele>264.2</ele><time>2026-05-02T07:04:38.942Z</time></trkpt><trkpt lat="46.1250266" lon="13.5636193"><ele>254.6</ele><time>2026-05-02T07:04:39.934Z</time></trkpt><trkpt lat="46.1250236" lon="13.5634875"><ele>245.0</ele><time>2026-05-02T07:04:40.925Z</time></trkpt><trkpt lat="46.1250265" lon="13.56337"><ele>243.4</ele><time>2026-05-02T07:04:41.94Z</time></trkpt><trkpt lat="46.125028" lon="13.5632651"><ele>241.8</ele><time>2026-05-02T07:04:42.935Z</time></trkpt><trkpt lat="46.1250247" lon="13.5631609"><ele>240.2</ele><time>2026-05-02T07:04:43.943Z</time></trkpt><trkpt lat="46.1250106" lon="13.5629634"><ele>238.6</ele><time>2026-05-02T07:04:45.932Z</time></trkpt><trkpt lat="46.1249928" lon="13.5627985"><ele>237.0</ele><time>2026-05-02T07:04:47.929Z</time></trkpt><trkpt lat="46.1249797" lon="13.562623"><ele>236.83333333333334</ele><time>2026-05-02T07:04:49.933Z</time></trkpt><trkpt lat="46.1249664" lon="13.562442"><ele>236.66666666666669</ele><time>2026-05-02T07:04:51.939Z</time></trkpt><trkpt lat="46.1249662" lon="13.562344"><ele>236.5</ele><time>2026-05-02T07:04:52.94Z</time></trkpt><trkpt lat="46.1249584" lon="13.5622387"><ele>236.33333333333334</ele><time>2026-05-02T07:04:53.928Z</time></trkpt><trkpt lat="46.1249518" lon="13.5621274"><ele>236.16666666666669</ele><time>2026-05-02T07:04:54.931Z</time></trkpt><trkpt lat="46.1249405" lon="13.5620118"><ele>236.0</ele><time>2026-05-02T07:04:55.93Z</time></trkpt><trkpt lat="46.1249301" lon="13.5618807"><ele>235.0</ele><time>2026-05-02T07:04:56.935Z</time></trkpt><trkpt lat="46.1249202" lon="13.5617575"><ele>234.0</ele><time>2026-05-02T07:04:57.933Z</time></trkpt><trkpt lat="46.1249179" lon="13.5616408"><ele>233.0</ele><time>2026-05-02T07:04:58.928Z</time></trkpt><trkpt lat="46.124897" lon="13.561539"><ele>232.0</ele><time>2026-05-02T07:04:59.932Z</time></trkpt><trkpt lat="46.1248753" lon="13.5614387"><ele>231.0</ele><time>2026-05-02T07:05:00.934Z</time></trkpt><trkpt lat="46.1248472" lon="13.5613526"><ele>230.0</ele><time>2026-05-02T07:05:01.926Z</time></trkpt><trkpt lat="46.1248289" lon="13.5612561"><ele>229.0</ele><time>2026-05-02T07:05:02.94Z</time></trkpt><trkpt lat="46.1248044" lon="13.561165"><ele>229.0</ele><time>2026-05-02T07:05:03.93Z</time></trkpt><trkpt lat="46.1247735" lon="13.5610641"><ele>229.0</ele><time>2026-05-02T07:05:04.935Z</time></trkpt><trkpt lat="46.1246224" lon="13.5608501"><ele>229.0</ele><time>2026-05-02T07:05:07.939Z</time></trkpt><trkpt lat="46.1245442" lon="13.5607818"><ele>229.0</ele><time>2026-05-02T07:05:08.935Z</time></trkpt><trkpt lat="46.1244701" lon="13.5607016"><ele>229.0</ele><time>2026-05-02T07:05:09.928Z</time></trkpt><trkpt lat="46.1243998" lon="13.5605916"><ele>228.99999999999997</ele><time>2026-05-02T07:05:10.928Z</time></trkpt><trkpt lat="46.1243358" lon="13.5604902"><ele>228.99999999999997</ele><time>2026-05-02T07:05:11.926Z</time></trkpt><trkpt lat="46.1242784" lon="13.5603802"><ele>229.0</ele><time>2026-05-02T07:05:12.925Z</time></trkpt><trkpt lat="46.1242251" lon="13.5602815"><ele>229.0</ele><time>2026-05-02T07:05:13.93Z</time></trkpt><trkpt lat="46.1241827" lon="13.5601965"><ele>231.2</ele><time>2026-05-02T07:05:14.937Z</time></trkpt><trkpt lat="46.1241333" lon="13.560116"><ele>233.39999999999998</ele><time>2026-05-02T07:05:15.939Z</time></trkpt><trkpt lat="46.1240462" lon="13.5599846"><ele>235.6</ele><time>2026-05-02T07:05:17.936Z</time></trkpt><trkpt lat="46.1240106" lon="13.5598978"><ele>237.8</ele><time>2026-05-02T07:05:18.927Z</time></trkpt><trkpt lat="46.1239866" lon="13.559796"><ele>240.0</ele><time>2026-05-02T07:05:19.937Z</time></trkpt><trkpt lat="46.1239277" lon="13.5596413"><ele>238.6</ele><time>2026-05-02T07:05:21.935Z</time></trkpt><trkpt lat="46.1239139" lon="13.5594776"><ele>237.2</ele><time>2026-05-02T07:05:23.936Z</time></trkpt><trkpt lat="46.1239254" lon="13.5593758"><ele>235.8</ele><time>2026-05-02T07:05:24.934Z</time></trkpt><trkpt lat="46.1239277" lon="13.559279"><ele>234.4</ele><time>2026-05-02T07:05:25.936Z</time></trkpt><trkpt lat="46.1238933" lon="13.5590923"><ele>233.0</ele><time>2026-05-02T07:05:27.943Z</time></trkpt><trkpt lat="46.123853" lon="13.5589496"><ele>233.00000000000003</ele><time>2026-05-02T07:05:29.926Z</time></trkpt><trkpt lat="46.1238644" lon="13.5588494"><ele>233.0</ele><time>2026-05-02T07:05:31.93Z</time></trkpt><trkpt lat="46.1239451" lon="13.5587905"><ele>233.0</ele><time>2026-05-02T07:05:33.927Z</time></trkpt><trkpt lat="46.1239826" lon="13.5587063"><ele>233.0</ele><time>2026-05-02T07:05:35.929Z</time></trkpt><trkpt lat="46.1239627" lon="13.5585917"><ele>233.00000000000003</ele><time>2026-05-02T07:05:37.931Z</time></trkpt><trkpt lat="46.1239075" lon="13.5584701"><ele>233.0</ele><time>2026-05-02T07:05:39.929Z</time></trkpt><trkpt lat="46.1238217" lon="13.5583267"><ele>230.4</ele><time>2026-05-02T07:05:41.935Z</time></trkpt><trkpt lat="46.1237684" lon="13.5582409"><ele>227.8</ele><time>2026-05-02T07:05:42.931Z</time></trkpt><trkpt lat="46.1237068" lon="13.5581419"><ele>225.2</ele><time>2026-05-02T07:05:43.927Z</time></trkpt><trkpt lat="46.1236471" lon="13.5580281"><ele>222.6</ele><time>2026-05-02T07:05:44.93Z</time></trkpt><trkpt lat="46.1235852" lon="13.5578998"><ele>220.0</ele><time>2026-05-02T07:05:45.933Z</time></trkpt><trkpt lat="46.1235239" lon="13.5577544"><ele>217.0</ele><time>2026-05-02T07:05:46.935Z</time></trkpt><trkpt lat="46.1234057" lon="13.5574135"><ele>214.0</ele><time>2026-05-02T07:05:48.933Z</time></trkpt><trkpt lat="46.1233557" lon="13.5572194"><ele>211.0</ele><time>2026-05-02T07:05:49.928Z</time></trkpt><trkpt lat="46.1233212" lon="13.5570027"><ele>208.0</ele><time>2026-05-02T07:05:50.929Z</time></trkpt><trkpt lat="46.123288" lon="13.5567788"><ele>205.0</ele><time>2026-05-02T07:05:51.938Z</time></trkpt><trkpt lat="46.1232707" lon="13.5565327"><ele>202.0</ele><time>2026-05-02T07:05:52.941Z</time></trkpt><trkpt lat="46.1232817" lon="13.5562671"><ele>201.33333333333331</ele><time>2026-05-02T07:05:53.931Z</time></trkpt><trkpt lat="46.1233013" lon="13.5559839"><ele>200.66666666666669</ele><time>2026-05-02T07:05:54.933Z</time></trkpt><trkpt lat="46.1232846" lon="13.5556866"><ele>200.0</ele><time>2026-05-02T07:05:55.925Z</time></trkpt><trkpt lat="46.1232825" lon="13.555412"><ele>199.0</ele><time>2026-05-02T07:05:56.94Z</time></trkpt><trkpt lat="46.1232743" lon="13.5551501"><ele>198.0</ele><time>2026-05-02T07:05:57.936Z</time></trkpt><trkpt lat="46.1232578" lon="13.5548913"><ele>197.0</ele><time>2026-05-02T07:05:58.932Z</time></trkpt><trkpt lat="46.1232441" lon="13.5546405"><ele>195.66666666666669</ele><time>2026-05-02T07:05:59.928Z</time></trkpt><trkpt lat="46.1232385" lon="13.55439"><ele>194.33333333333331</ele><time>2026-05-02T07:06:00.93Z</time></trkpt><trkpt lat="46.1232366" lon="13.5541244"><ele>193.0</ele><time>2026-05-02T07:06:01.928Z</time></trkpt><trkpt lat="46.1232247" lon="13.5538736"><ele>199.0</ele><time>2026-05-02T07:06:02.93Z</time></trkpt><trkpt lat="46.1232128" lon="13.553616"><ele>205.0</ele><time>2026-05-02T07:06:03.932Z</time></trkpt><trkpt lat="46.1231833" lon="13.5533449"><ele>211.0</ele><time>2026-05-02T07:06:04.929Z</time></trkpt><trkpt lat="46.1231319" lon="13.5530773"><ele>208.0</ele><time>2026-05-02T07:06:05.93Z</time></trkpt><trkpt lat="46.1230711" lon="13.552827"><ele>205.0</ele><time>2026-05-02T07:06:06.934Z</time></trkpt><trkpt lat="46.1229788" lon="13.5525697"><ele>202.0</ele><time>2026-05-02T07:06:07.942Z</time></trkpt><trkpt lat="46.1228214" lon="13.5520479"><ele>199.66666666666666</ele><time>2026-05-02T07:06:09.929Z</time></trkpt><trkpt lat="46.1227602" lon="13.5517705"><ele>197.33333333333331</ele><time>2026-05-02T07:06:10.927Z</time></trkpt><trkpt lat="46.1227018" lon="13.5514729"><ele>195.0</ele><time>2026-05-02T07:06:11.929Z</time></trkpt><trkpt lat="46.1226578" lon="13.5511817"><ele>193.33333333333334</ele><time>2026-05-02T07:06:12.931Z</time></trkpt><trkpt lat="46.1226209" lon="13.5508955"><ele>191.66666666666669</ele><time>2026-05-02T07:06:13.926Z</time></trkpt><trkpt lat="46.1225832" lon="13.5506067"><ele>190.0</ele><time>2026-05-02T07:06:14.932Z</time></trkpt><trkpt lat="46.1225421" lon="13.5502981"><ele>190.0</ele><time>2026-05-02T07:06:15.931Z</time></trkpt><trkpt lat="46.1224981" lon="13.5499857"><ele>190.0</ele><time>2026-05-02T07:06:16.927Z</time></trkpt><trkpt lat="46.1224561" lon="13.549684"><ele>190.0</ele><time>2026-05-02T07:06:17.939Z</time></trkpt><trkpt lat="46.1224085" lon="13.5493525"><ele>204.0</ele><time>2026-05-02T07:06:18.934Z</time></trkpt><trkpt lat="46.122361" lon="13.549013"><ele>218.0</ele><time>2026-05-02T07:06:19.928Z</time></trkpt><trkpt lat="46.1223259" lon="13.5486734"><ele>218.0</ele><time>2026-05-02T07:06:20.941Z</time></trkpt><trkpt lat="46.1223004" lon="13.5483345"><ele>218.0</ele><time>2026-05-02T07:06:21.939Z</time></trkpt><trkpt lat="46.1222861" lon="13.548017"><ele>213.66666666666669</ele><time>2026-05-02T07:06:22.941Z</time></trkpt><trkpt lat="46.1222678" lon="13.5477149"><ele>209.33333333333331</ele><time>2026-05-02T07:06:23.928Z</time></trkpt><trkpt lat="46.1222429" lon="13.547397"><ele>205.0</ele><time>2026-05-02T07:06:24.938Z</time></trkpt><trkpt lat="46.1222124" lon="13.5470892"><ele>200.33333333333331</ele><time>2026-05-02T07:06:25.932Z</time></trkpt><trkpt lat="46.1221867" lon="13.5467732"><ele>195.66666666666666</ele><time>2026-05-02T07:06:26.933Z</time></trkpt><trkpt lat="46.1221635" lon="13.546471"><ele>191.0</ele><time>2026-05-02T07:06:27.932Z</time></trkpt><trkpt lat="46.1221391" lon="13.5461646"><ele>187.0</ele><time>2026-05-02T07:06:28.933Z</time></trkpt><trkpt lat="46.1221021" lon="13.5455635"><ele>183.0</ele><time>2026-05-02T07:06:30.931Z</time></trkpt><trkpt lat="46.1220741" lon="13.5452696"><ele>183.0</ele><time>2026-05-02T07:06:31.933Z</time></trkpt><trkpt lat="46.1220523" lon="13.5449824"><ele>183.0</ele><time>2026-05-02T07:06:32.936Z</time></trkpt><trkpt lat="46.1220372" lon="13.5447009"><ele>183.0</ele><time>2026-05-02T07:06:33.936Z</time></trkpt><trkpt lat="46.1220277" lon="13.5444221"><ele>183.0</ele><time>2026-05-02T07:06:34.929Z</time></trkpt><trkpt lat="46.1220186" lon="13.5441376"><ele>183.0</ele><time>2026-05-02T07:06:35.927Z</time></trkpt><trkpt lat="46.1219949" lon="13.5438601"><ele>183.0</ele><time>2026-05-02T07:06:36.929Z</time></trkpt><trkpt lat="46.1219736" lon="13.5435908"><ele>184.0</ele><time>2026-05-02T07:06:37.93Z</time></trkpt><trkpt lat="46.1219511" lon="13.5433276"><ele>185.0</ele><time>2026-05-02T07:06:38.939Z</time></trkpt><trkpt lat="46.1219301" lon="13.54307"><ele>186.0</ele><time>2026-05-02T07:06:39.93Z</time></trkpt><trkpt lat="46.1218993" lon="13.5428181"><ele>189.33333333333331</ele><time>2026-05-02T07:06:40.928Z</time></trkpt><trkpt lat="46.1218495" lon="13.5425665"><ele>192.66666666666666</ele><time>2026-05-02T07:06:41.929Z</time></trkpt><trkpt lat="46.1217847" lon="13.5423317"><ele>196.0</ele><time>2026-05-02T07:06:42.933Z</time></trkpt><trkpt lat="46.1217247" lon="13.5420644"><ele>197.0</ele><time>2026-05-02T07:06:43.934Z</time></trkpt><trkpt lat="46.1216614" lon="13.5417991"><ele>198.0</ele><time>2026-05-02T07:06:44.932Z</time></trkpt><trkpt lat="46.1216048" lon="13.5415044"><ele>199.0</ele><time>2026-05-02T07:06:45.933Z</time></trkpt><trkpt lat="46.1215498" lon="13.5412468"><ele>192.0</ele><time>2026-05-02T07:06:46.933Z</time></trkpt><trkpt lat="46.1214892" lon="13.5409721"><ele>185.0</ele><time>2026-05-02T07:06:47.933Z</time></trkpt><trkpt lat="46.1214376" lon="13.5407076"><ele>178.0</ele><time>2026-05-02T07:06:48.928Z</time></trkpt><trkpt lat="46.1213415" lon="13.5404238"><ele>178.0</ele><time>2026-05-02T07:06:49.934Z</time></trkpt><trkpt lat="46.1211638" lon="13.5398465"><ele>178.0</ele><time>2026-05-02T07:06:51.935Z</time></trkpt><trkpt lat="46.1210717" lon="13.5395472"><ele>178.0</ele><time>2026-05-02T07:06:52.937Z</time></trkpt><trkpt lat="46.1209848" lon="13.5392541"><ele>178.0</ele><time>2026-05-02T07:06:53.923Z</time></trkpt><trkpt lat="46.1208906" lon="13.5389627"><ele>178.0</ele><time>2026-05-02T07:06:54.931Z</time></trkpt><trkpt lat="46.1208048" lon="13.5386764"><ele>177.0</ele><time>2026-05-02T07:06:55.93Z</time></trkpt><trkpt lat="46.1207187" lon="13.5383917"><ele>176.0</ele><time>2026-05-02T07:06:56.934Z</time></trkpt><trkpt lat="46.1206229" lon="13.538107"><ele>175.0</ele><time>2026-05-02T07:06:57.926Z</time></trkpt><trkpt lat="46.1205533" lon="13.5378285"><ele>174.0</ele><time>2026-05-02T07:06:58.93Z</time></trkpt><trkpt lat="46.1204993" lon="13.5375502"><ele>173.0</ele><time>2026-05-02T07:06:59.93Z</time></trkpt><trkpt lat="46.1204601" lon="13.5372468"><ele>172.0</ele><time>2026-05-02T07:07:00.94Z</time></trkpt><trkpt lat="46.1204335" lon="13.5369591"><ele>171.66666666666669</ele><time>2026-05-02T07:07:01.933Z</time></trkpt><trkpt lat="46.1204171" lon="13.5366722"><ele>171.33333333333334</ele><time>2026-05-02T07:07:02.927Z</time></trkpt><trkpt lat="46.1204005" lon="13.5363847"><ele>171.0</ele><time>2026-05-02T07:07:03.929Z</time></trkpt><trkpt lat="46.1203957" lon="13.5360968"><ele>171.66666666666666</ele><time>2026-05-02T07:07:04.926Z</time></trkpt><trkpt lat="46.1204067" lon="13.535804"><ele>172.33333333333331</ele><time>2026-05-02T07:07:05.939Z</time></trkpt><trkpt lat="46.1204512" lon="13.5354996"><ele>173.0</ele><time>2026-05-02T07:07:06.933Z</time></trkpt><trkpt lat="46.1205394" lon="13.5351958"><ele>174.0</ele><time>2026-05-02T07:07:07.936Z</time></trkpt><trkpt lat="46.1206607" lon="13.5348962"><ele>175.0</ele><time>2026-05-02T07:07:08.922Z</time></trkpt><trkpt lat="46.1207829" lon="13.5346008"><ele>171.0</ele><time>2026-05-02T07:07:09.932Z</time></trkpt><trkpt lat="46.1208851" lon="13.5343362"><ele>167.0</ele><time>2026-05-02T07:07:10.93Z</time></trkpt><trkpt lat="46.1210469" lon="13.5338225"><ele>166.0</ele><time>2026-05-02T07:07:12.93Z</time></trkpt><trkpt lat="46.1211039" lon="13.5335836"><ele>165.0</ele><time>2026-05-02T07:07:13.94Z</time></trkpt><trkpt lat="46.1211253" lon="13.5333506"><ele>164.0</ele><time>2026-05-02T07:07:14.928Z</time></trkpt><trkpt lat="46.1211482" lon="13.5331211"><ele>164.0</ele><time>2026-05-02T07:07:15.939Z</time></trkpt><trkpt lat="46.1211568" lon="13.532899"><ele>164.0</ele><time>2026-05-02T07:07:16.929Z</time></trkpt><trkpt lat="46.1211739" lon="13.5326836"><ele>164.0</ele><time>2026-05-02T07:07:17.937Z</time></trkpt><trkpt lat="46.1211846" lon="13.5324969"><ele>164.0</ele><time>2026-05-02T07:07:18.93Z</time></trkpt><trkpt lat="46.1212" lon="13.5323199"><ele>164.0</ele><time>2026-05-02T07:07:19.933Z</time></trkpt><trkpt lat="46.121214" lon="13.5321519"><ele>164.0</ele><time>2026-05-02T07:07:20.935Z</time></trkpt><trkpt lat="46.1212141" lon="13.5319927"><ele>164.0</ele><time>2026-05-02T07:07:21.932Z</time></trkpt><trkpt lat="46.1212228" lon="13.5318477"><ele>164.0</ele><time>2026-05-02T07:07:22.932Z</time></trkpt><trkpt lat="46.1212287" lon="13.5317028"><ele>164.0</ele><time>2026-05-02T07:07:23.939Z</time></trkpt><trkpt lat="46.1212471" lon="13.5315659"><ele>163.79999999999998</ele><time>2026-05-02T07:07:24.929Z</time></trkpt><trkpt lat="46.1212656" lon="13.5314231"><ele>163.6</ele><time>2026-05-02T07:07:25.931Z</time></trkpt><trkpt lat="46.1212807" lon="13.531269"><ele>163.4</ele><time>2026-05-02T07:07:26.928Z</time></trkpt><trkpt lat="46.1212912" lon="13.5311219"><ele>163.2</ele><time>2026-05-02T07:07:27.937Z</time></trkpt><trkpt lat="46.1213046" lon="13.5309815"><ele>163.0</ele><time>2026-05-02T07:07:28.934Z</time></trkpt><trkpt lat="46.1213198" lon="13.530842"><ele>163.0</ele><time>2026-05-02T07:07:29.936Z</time></trkpt><trkpt lat="46.121336" lon="13.5307002"><ele>163.0</ele><time>2026-05-02T07:07:30.928Z</time></trkpt><trkpt lat="46.1213539" lon="13.5305636"><ele>163.0</ele><time>2026-05-02T07:07:31.929Z</time></trkpt><trkpt lat="46.1214082" lon="13.5302959"><ele>163.0</ele><time>2026-05-02T07:07:33.933Z</time></trkpt><trkpt lat="46.1214324" lon="13.5301515"><ele>163.0</ele><time>2026-05-02T07:07:34.931Z</time></trkpt><trkpt lat="46.1214564" lon="13.5300202"><ele>163.0</ele><time>2026-05-02T07:07:35.929Z</time></trkpt><trkpt lat="46.1214812" lon="13.5298837"><ele>163.0</ele><time>2026-05-02T07:07:36.933Z</time></trkpt><trkpt lat="46.121509" lon="13.5297437"><ele>163.0</ele><time>2026-05-02T07:07:37.927Z</time></trkpt><trkpt lat="46.1215392" lon="13.5296068"><ele>163.0</ele><time>2026-05-02T07:07:38.931Z</time></trkpt><trkpt lat="46.1215599" lon="13.529468"><ele>164.8</ele><time>2026-05-02T07:07:39.934Z</time></trkpt><trkpt lat="46.1215748" lon="13.5293346"><ele>166.60000000000002</ele><time>2026-05-02T07:07:40.931Z</time></trkpt><trkpt lat="46.1215944" lon="13.5292002"><ele>168.39999999999998</ele><time>2026-05-02T07:07:41.929Z</time></trkpt><trkpt lat="46.1216117" lon="13.5290656"><ele>170.2</ele><time>2026-05-02T07:07:42.936Z</time></trkpt><trkpt lat="46.1216323" lon="13.5289272"><ele>172.0</ele><time>2026-05-02T07:07:43.93Z</time></trkpt><trkpt lat="46.1216483" lon="13.5287982"><ele>171.66666666666669</ele><time>2026-05-02T07:07:44.935Z</time></trkpt><trkpt lat="46.1216648" lon="13.5286762"><ele>171.33333333333334</ele><time>2026-05-02T07:07:45.93Z</time></trkpt><trkpt lat="46.1216825" lon="13.5285513"><ele>171.0</ele><time>2026-05-02T07:07:46.929Z</time></trkpt><trkpt lat="46.1217003" lon="13.5284333"><ele>170.66666666666666</ele><time>2026-05-02T07:07:47.927Z</time></trkpt><trkpt lat="46.1217004" lon="13.5283223"><ele>170.33333333333331</ele><time>2026-05-02T07:07:48.934Z</time></trkpt><trkpt lat="46.1217245" lon="13.5282134"><ele>170.0</ele><time>2026-05-02T07:07:50.94Z</time></trkpt><trkpt lat="46.1217967" lon="13.5282801"><ele>170.0</ele><time>2026-05-02T07:07:53.928Z</time></trkpt><trkpt lat="46.1219445" lon="13.5284648"><ele>170.0</ele><time>2026-05-02T07:07:56.954Z</time></trkpt><trkpt lat="46.1220158" lon="13.5285409"><ele>170.0</ele><time>2026-05-02T07:07:57.929Z</time></trkpt><trkpt lat="46.1221263" lon="13.5286236"><ele>170.0</ele><time>2026-05-02T07:07:58.937Z</time></trkpt><trkpt lat="46.1222242" lon="13.5287158"><ele>170.5</ele><time>2026-05-02T07:07:59.944Z</time></trkpt><trkpt lat="46.1223029" lon="13.5288464"><ele>171.0</ele><time>2026-05-02T07:08:00.929Z</time></trkpt><trkpt lat="46.1223291" lon="13.5289946"><ele>171.5</ele><time>2026-05-02T07:08:01.924Z</time></trkpt><trkpt lat="46.1223274" lon="13.5291687"><ele>172.0</ele><time>2026-05-02T07:08:02.929Z</time></trkpt><trkpt lat="46.1222985" lon="13.5293469"><ele>172.0</ele><time>2026-05-02T07:08:03.934Z</time></trkpt><trkpt lat="46.1222545" lon="13.5295375"><ele>172.0</ele><time>2026-05-02T07:08:04.925Z</time></trkpt><trkpt lat="46.1221925" lon="13.5297331"><ele>172.0</ele><time>2026-05-02T07:08:05.937Z</time></trkpt><trkpt lat="46.122131" lon="13.5299241"><ele>172.0</ele><time>2026-05-02T07:08:06.932Z</time></trkpt><trkpt lat="46.1220621" lon="13.5301044"><ele>173.25</ele><time>2026-05-02T07:08:07.928Z</time></trkpt><trkpt lat="46.1220077" lon="13.5302905"><ele>174.5</ele><time>2026-05-02T07:08:08.942Z</time></trkpt><trkpt lat="46.12198" lon="13.5304783"><ele>175.75</ele><time>2026-05-02T07:08:09.927Z</time></trkpt><trkpt lat="46.1219705" lon="13.5306578"><ele>177.0</ele><time>2026-05-02T07:08:10.931Z</time></trkpt><trkpt lat="46.1219785" lon="13.5308263"><ele>177.25</ele><time>2026-05-02T07:08:11.927Z</time></trkpt><trkpt lat="46.1220096" lon="13.5309907"><ele>177.5</ele><time>2026-05-02T07:08:12.936Z</time></trkpt><trkpt lat="46.122052" lon="13.531152"><ele>177.75</ele><time>2026-05-02T07:08:13.937Z</time></trkpt><trkpt lat="46.122123" lon="13.5312976"><ele>178.0</ele><time>2026-05-02T07:08:14.927Z</time></trkpt><trkpt lat="46.1223398" lon="13.5315344"><ele>185.25</ele><time>2026-05-02T07:08:16.936Z</time></trkpt><trkpt lat="46.1224543" lon="13.5316343"><ele>192.5</ele><time>2026-05-02T07:08:17.931Z</time></trkpt><trkpt lat="46.1225702" lon="13.5317246"><ele>199.75</ele><time>2026-05-02T07:08:18.939Z</time></trkpt><trkpt lat="46.1226783" lon="13.531796"><ele>207.0</ele><time>2026-05-02T07:08:19.93Z</time></trkpt><trkpt lat="46.1227562" lon="13.5318635"><ele>207.0</ele><time>2026-05-02T07:08:20.929Z</time></trkpt><trkpt lat="46.122812" lon="13.5319488"><ele>207.0</ele><time>2026-05-02T07:08:21.926Z</time></trkpt><trkpt lat="46.1228242" lon="13.5320887"><ele>207.0</ele><time>2026-05-02T07:08:22.94Z</time></trkpt><trkpt lat="46.1228072" lon="13.5322273"><ele>207.0</ele><time>2026-05-02T07:08:23.93Z</time></trkpt><trkpt lat="46.1227491" lon="13.5323677"><ele>207.0</ele><time>2026-05-02T07:08:24.929Z</time></trkpt><trkpt lat="46.1226825" lon="13.532475"><ele>209.25</ele><time>2026-05-02T07:08:25.935Z</time></trkpt><trkpt lat="46.1226228" lon="13.5325961"><ele>211.5</ele><time>2026-05-02T07:08:26.934Z</time></trkpt><trkpt lat="46.1225854" lon="13.5327366"><ele>213.75</ele><time>2026-05-02T07:08:27.927Z</time></trkpt><trkpt lat="46.1225749" lon="13.5329193"><ele>216.0</ele><time>2026-05-02T07:08:28.938Z</time></trkpt><trkpt lat="46.122598" lon="13.5331451"><ele>215.66666666666669</ele><time>2026-05-02T07:08:29.935Z</time></trkpt><trkpt lat="46.122628" lon="13.5333986"><ele>215.33333333333334</ele><time>2026-05-02T07:08:30.931Z</time></trkpt><trkpt lat="46.1226644" lon="13.533602"><ele>215.0</ele><time>2026-05-02T07:08:31.932Z</time></trkpt><trkpt lat="46.1226756" lon="13.5337906"><ele>215.0</ele><time>2026-05-02T07:08:32.926Z</time></trkpt><trkpt lat="46.1226826" lon="13.5339603"><ele>215.0</ele><time>2026-05-02T07:08:33.936Z</time></trkpt><trkpt lat="46.1227268" lon="13.534157"><ele>215.0</ele><time>2026-05-02T07:08:34.926Z</time></trkpt><trkpt lat="46.1227922" lon="13.5343743"><ele>215.0</ele><time>2026-05-02T07:08:35.948Z</time></trkpt><trkpt lat="46.122965" lon="13.5348008"><ele>213.25</ele><time>2026-05-02T07:08:37.924Z</time></trkpt><trkpt lat="46.1230111" lon="13.534986"><ele>211.5</ele><time>2026-05-02T07:08:38.932Z</time></trkpt><trkpt lat="46.1230284" lon="13.5351566"><ele>209.75</ele><time>2026-05-02T07:08:39.935Z</time></trkpt><trkpt lat="46.1230721" lon="13.5353124"><ele>208.0</ele><time>2026-05-02T07:08:40.927Z</time></trkpt><trkpt lat="46.1231347" lon="13.5354613"><ele>207.66666666666666</ele><time>2026-05-02T07:08:41.935Z</time></trkpt><trkpt lat="46.1232213" lon="13.5356098"><ele>207.33333333333331</ele><time>2026-05-02T07:08:42.928Z</time></trkpt><trkpt lat="46.123314" lon="13.5357859"><ele>207.0</ele><time>2026-05-02T07:08:43.931Z</time></trkpt><trkpt lat="46.1234262" lon="13.5359627"><ele>214.5</ele><time>2026-05-02T07:08:44.935Z</time></trkpt><trkpt lat="46.1235214" lon="13.5361254"><ele>222.0</ele><time>2026-05-02T07:08:45.932Z</time></trkpt><trkpt lat="46.1236209" lon="13.5362718"><ele>229.5</ele><time>2026-05-02T07:08:46.927Z</time></trkpt><trkpt lat="46.123717" lon="13.5363878"><ele>237.0</ele><time>2026-05-02T07:08:47.927Z</time></trkpt><trkpt lat="46.1238053" lon="13.5364756"><ele>237.16666666666666</ele><time>2026-05-02T07:08:48.935Z</time></trkpt><trkpt lat="46.1238546" lon="13.5365879"><ele>237.33333333333331</ele><time>2026-05-02T07:08:49.927Z</time></trkpt><trkpt lat="46.1238839" lon="13.5366824"><ele>237.5</ele><time>2026-05-02T07:08:50.935Z</time></trkpt><trkpt lat="46.123889" lon="13.5367955"><ele>237.66666666666666</ele><time>2026-05-02T07:08:51.934Z</time></trkpt><trkpt lat="46.1238093" lon="13.5369009"><ele>237.83333333333331</ele><time>2026-05-02T07:08:52.922Z</time></trkpt><trkpt lat="46.1237376" lon="13.5369916"><ele>238.0</ele><time>2026-05-02T07:08:53.934Z</time></trkpt><trkpt lat="46.1236864" lon="13.5370786"><ele>237.99999999999997</ele><time>2026-05-02T07:08:54.932Z</time></trkpt><trkpt lat="46.123638" lon="13.537161"><ele>238.0</ele><time>2026-05-02T07:08:55.936Z</time></trkpt><trkpt lat="46.123589" lon="13.5372268"><ele>238.0</ele><time>2026-05-02T07:08:56.924Z</time></trkpt><trkpt lat="46.123623" lon="13.537297"><ele>238.0</ele><time>2026-05-02T07:09:00.927Z</time></trkpt><trkpt lat="46.1237119" lon="13.5371806"><ele>237.99999999999997</ele><time>2026-05-02T07:09:02.936Z</time></trkpt><trkpt lat="46.1237716" lon="13.5370936"><ele>238.0</ele><time>2026-05-02T07:09:03.929Z</time></trkpt><trkpt lat="46.1238401" lon="13.5369914"><ele>238.0</ele><time>2026-05-02T07:09:04.931Z</time></trkpt><trkpt lat="46.123901" lon="13.536876"><ele>238.0</ele><time>2026-05-02T07:09:05.926Z</time></trkpt><trkpt lat="46.1239419" lon="13.5367824"><ele>238.0</ele><time>2026-05-02T07:09:06.926Z</time></trkpt><trkpt lat="46.1239696" lon="13.5366978"><ele>238.0</ele><time>2026-05-02T07:09:07.927Z</time></trkpt><trkpt lat="46.1239752" lon="13.5365292"><ele>238.0</ele><time>2026-05-02T07:09:09.933Z</time></trkpt><trkpt lat="46.1239494" lon="13.5363843"><ele>238.0</ele><time>2026-05-02T07:09:11.93Z</time></trkpt><trkpt lat="46.1238801" lon="13.5362321"><ele>238.0</ele><time>2026-05-02T07:09:13.935Z</time></trkpt><trkpt lat="46.1238431" lon="13.5361361"><ele>238.0</ele><time>2026-05-02T07:09:14.932Z</time></trkpt><trkpt lat="46.1238076" lon="13.5360324"><ele>238.0</ele><time>2026-05-02T07:09:15.933Z</time></trkpt><trkpt lat="46.1237681" lon="13.5359136"><ele>238.0</ele><time>2026-05-02T07:09:16.93Z</time></trkpt><trkpt lat="46.1237432" lon="13.5357758"><ele>237.75</ele><time>2026-05-02T07:09:17.926Z</time></trkpt><trkpt lat="46.1237389" lon="13.5354759"><ele>237.5</ele><time>2026-05-02T07:09:19.932Z</time></trkpt><trkpt lat="46.1237389" lon="13.535303"><ele>237.25</ele><time>2026-05-02T07:09:20.93Z</time></trkpt><trkpt lat="46.1237493" lon="13.5351357"><ele>237.0</ele><time>2026-05-02T07:09:21.93Z</time></trkpt><trkpt lat="46.1237689" lon="13.5349758"><ele>238.6</ele><time>2026-05-02T07:09:22.932Z</time></trkpt><trkpt lat="46.1238001" lon="13.5348401"><ele>240.2</ele><time>2026-05-02T07:09:23.931Z</time></trkpt><trkpt lat="46.1238285" lon="13.5347073"><ele>241.8</ele><time>2026-05-02T07:09:24.934Z</time></trkpt><trkpt lat="46.123844" lon="13.5345752"><ele>243.4</ele><time>2026-05-02T07:09:25.932Z</time></trkpt><trkpt lat="46.1238409" lon="13.5344402"><ele>245.0</ele><time>2026-05-02T07:09:26.938Z</time></trkpt><trkpt lat="46.1238349" lon="13.534289"><ele>246.5</ele><time>2026-05-02T07:09:27.935Z</time></trkpt><trkpt lat="46.1238218" lon="13.5341075"><ele>248.0</ele><time>2026-05-02T07:09:28.93Z</time></trkpt><trkpt lat="46.1238133" lon="13.5339326"><ele>249.5</ele><time>2026-05-02T07:09:29.93Z</time></trkpt><trkpt lat="46.1237958" lon="13.5337691"><ele>251.0</ele><time>2026-05-02T07:09:30.934Z</time></trkpt><trkpt lat="46.1237958" lon="13.5336079"><ele>251.25</ele><time>2026-05-02T07:09:31.929Z</time></trkpt><trkpt lat="46.1238088" lon="13.5334404"><ele>251.5</ele><time>2026-05-02T07:09:32.926Z</time></trkpt><trkpt lat="46.1238375" lon="13.5332688"><ele>251.75</ele><time>2026-05-02T07:09:33.928Z</time></trkpt><trkpt lat="46.1238708" lon="13.5331098"><ele>252.0</ele><time>2026-05-02T07:09:34.928Z</time></trkpt><trkpt lat="46.1239088" lon="13.5329711"><ele>250.39999999999998</ele><time>2026-05-02T07:09:35.933Z</time></trkpt><trkpt lat="46.1239507" lon="13.5328436"><ele>248.79999999999998</ele><time>2026-05-02T07:09:36.928Z</time></trkpt><trkpt lat="46.1239973" lon="13.5327298"><ele>247.2</ele><time>2026-05-02T07:09:37.928Z</time></trkpt><trkpt lat="46.1240566" lon="13.5326358"><ele>245.6</ele><time>2026-05-02T07:09:38.927Z</time></trkpt><trkpt lat="46.124183" lon="13.5325888"><ele>244.0</ele><time>2026-05-02T07:09:40.938Z</time></trkpt><trkpt lat="46.1242688" lon="13.5326593"><ele>249.0</ele><time>2026-05-02T07:09:41.93Z</time></trkpt><trkpt lat="46.1243595" lon="13.5327505"><ele>254.0</ele><time>2026-05-02T07:09:42.932Z</time></trkpt><trkpt lat="46.1244543" lon="13.5328853"><ele>259.0</ele><time>2026-05-02T07:09:43.93Z</time></trkpt><trkpt lat="46.1245762" lon="13.5330254"><ele>264.0</ele><time>2026-05-02T07:09:44.928Z</time></trkpt><trkpt lat="46.1246816" lon="13.5331397"><ele>265.0</ele><time>2026-05-02T07:09:45.93Z</time></trkpt><trkpt lat="46.1247873" lon="13.5332452"><ele>266.0</ele><time>2026-05-02T07:09:46.936Z</time></trkpt><trkpt lat="46.124878" lon="13.5333545"><ele>267.0</ele><time>2026-05-02T07:09:47.943Z</time></trkpt><trkpt lat="46.1249801" lon="13.5334656"><ele>268.0</ele><time>2026-05-02T07:09:48.943Z</time></trkpt><trkpt lat="46.1250684" lon="13.5335796"><ele>268.0</ele><time>2026-05-02T07:09:49.931Z</time></trkpt><trkpt lat="46.125167" lon="13.5336745"><ele>268.0</ele><time>2026-05-02T07:09:50.931Z</time></trkpt><trkpt lat="46.1252579" lon="13.5337733"><ele>268.0</ele><time>2026-05-02T07:09:51.937Z</time></trkpt><trkpt lat="46.1253447" lon="13.5338651"><ele>268.0</ele><time>2026-05-02T07:09:52.933Z</time></trkpt><trkpt lat="46.1254266" lon="13.533976"><ele>272.0</ele><time>2026-05-02T07:09:53.926Z</time></trkpt><trkpt lat="46.1255061" lon="13.5340922"><ele>276.0</ele><time>2026-05-02T07:09:54.935Z</time></trkpt><trkpt lat="46.125564" lon="13.5342148"><ele>280.0</ele><time>2026-05-02T07:09:55.94Z</time></trkpt><trkpt lat="46.1256317" lon="13.5343328"><ele>284.0</ele><time>2026-05-02T07:09:56.938Z</time></trkpt><trkpt lat="46.1256822" lon="13.5344628"><ele>288.0</ele><time>2026-05-02T07:09:57.93Z</time></trkpt><trkpt lat="46.1257052" lon="13.5346093"><ele>286.5</ele><time>2026-05-02T07:09:58.932Z</time></trkpt><trkpt lat="46.125732" lon="13.534775"><ele>285.0</ele><time>2026-05-02T07:09:59.927Z</time></trkpt><trkpt lat="46.1257647" lon="13.5351007"><ele>283.5</ele><time>2026-05-02T07:10:01.936Z</time></trkpt><trkpt lat="46.1257729" lon="13.5352453"><ele>282.0</ele><time>2026-05-02T07:10:02.927Z</time></trkpt><trkpt lat="46.1257634" lon="13.5353599"><ele>283.6666666666667</ele><time>2026-05-02T07:10:03.929Z</time></trkpt><trkpt lat="46.1257279" lon="13.5354555"><ele>285.3333333333333</ele><time>2026-05-02T07:10:04.93Z</time></trkpt><trkpt lat="46.1256804" lon="13.5355323"><ele>287.0</ele><time>2026-05-02T07:10:05.938Z</time></trkpt><trkpt lat="46.1256181" lon="13.5356118"><ele>288.66666666666663</ele><time>2026-05-02T07:10:06.932Z</time></trkpt><trkpt lat="46.1255387" lon="13.53566"><ele>290.3333333333333</ele><time>2026-05-02T07:10:07.933Z</time></trkpt><trkpt lat="46.1254452" lon="13.5356869"><ele>292.0</ele><time>2026-05-02T07:10:08.931Z</time></trkpt><trkpt lat="46.12534" lon="13.5357228"><ele>292.0</ele><time>2026-05-02T07:10:09.928Z</time></trkpt><trkpt lat="46.1252321" lon="13.5357658"><ele>292.0</ele><time>2026-05-02T07:10:10.936Z</time></trkpt><trkpt lat="46.1251292" lon="13.5358"><ele>292.0</ele><time>2026-05-02T07:10:11.937Z</time></trkpt><trkpt lat="46.1250231" lon="13.5358287"><ele>292.0</ele><time>2026-05-02T07:10:12.939Z</time></trkpt><trkpt lat="46.1249495" lon="13.5358503"><ele>292.0</ele><time>2026-05-02T07:10:13.925Z</time></trkpt><trkpt lat="46.12485" lon="13.5359049"><ele>287.8</ele><time>2026-05-02T07:10:15.922Z</time></trkpt><trkpt lat="46.1247877" lon="13.5359557"><ele>283.6</ele><time>2026-05-02T07:10:17.931Z</time></trkpt><trkpt lat="46.1247708" lon="13.5360511"><ele>279.40000000000003</ele><time>2026-05-02T07:10:19.936Z</time></trkpt><trkpt lat="46.1247627" lon="13.536143"><ele>275.2</ele><time>2026-05-02T07:10:20.935Z</time></trkpt><trkpt lat="46.1247634" lon="13.536389"><ele>271.0</ele><time>2026-05-02T07:10:22.929Z</time></trkpt><trkpt lat="46.1247738" lon="13.5365569"><ele>270.75</ele><time>2026-05-02T07:10:23.936Z</time></trkpt><trkpt lat="46.1248092" lon="13.5367568"><ele>270.5</ele><time>2026-05-02T07:10:24.943Z</time></trkpt><trkpt lat="46.1248539" lon="13.536947"><ele>270.25</ele><time>2026-05-02T07:10:25.934Z</time></trkpt><trkpt lat="46.1249061" lon="13.5371231"><ele>270.0</ele><time>2026-05-02T07:10:26.931Z</time></trkpt><trkpt lat="46.1249591" lon="13.5372851"><ele>278.75</ele><time>2026-05-02T07:10:27.927Z</time></trkpt><trkpt lat="46.125024" lon="13.5374428"><ele>287.5</ele><time>2026-05-02T07:10:28.93Z</time></trkpt><trkpt lat="46.1250919" lon="13.537585"><ele>296.25</ele><time>2026-05-02T07:10:29.937Z</time></trkpt><trkpt lat="46.1251601" lon="13.537707"><ele>305.0</ele><time>2026-05-02T07:10:30.938Z</time></trkpt><trkpt lat="46.1252343" lon="13.537801"><ele>305.0</ele><time>2026-05-02T07:10:31.941Z</time></trkpt><trkpt lat="46.1252988" lon="13.537867"><ele>305.0</ele><time>2026-05-02T07:10:32.933Z</time></trkpt><trkpt lat="46.1253648" lon="13.5379272"><ele>305.0</ele><time>2026-05-02T07:10:33.927Z</time></trkpt><trkpt lat="46.1254234" lon="13.5379861"><ele>305.0</ele><time>2026-05-02T07:10:34.929Z</time></trkpt><trkpt lat="46.1254779" lon="13.5380367"><ele>305.0</ele><time>2026-05-02T07:10:35.927Z</time></trkpt><trkpt lat="46.1255326" lon="13.538095"><ele>305.0</ele><time>2026-05-02T07:10:36.93Z</time></trkpt><trkpt lat="46.125595" lon="13.5381725"><ele>305.0</ele><time>2026-05-02T07:10:37.932Z</time></trkpt><trkpt lat="46.1256484" lon="13.5382581"><ele>307.25</ele><time>2026-05-02T07:10:38.924Z</time></trkpt><trkpt lat="46.1257103" lon="13.5383451"><ele>309.5</ele><time>2026-05-02T07:10:39.931Z</time></trkpt><trkpt lat="46.1257678" lon="13.5384294"><ele>311.75</ele><time>2026-05-02T07:10:40.931Z</time></trkpt><trkpt lat="46.1258357" lon="13.5384996"><ele>314.0</ele><time>2026-05-02T07:10:41.93Z</time></trkpt><trkpt lat="46.1259996" lon="13.5386636"><ele>318.0</ele><time>2026-05-02T07:10:43.929Z</time></trkpt><trkpt lat="46.1260977" lon="13.5387611"><ele>322.0</ele><time>2026-05-02T07:10:44.928Z</time></trkpt><trkpt lat="46.1261938" lon="13.5388498"><ele>326.0</ele><time>2026-05-02T07:10:45.925Z</time></trkpt><trkpt lat="46.1262515" lon="13.5389388"><ele>330.0</ele><time>2026-05-02T07:10:46.926Z</time></trkpt><trkpt lat="46.126315" lon="13.5390238"><ele>334.0</ele><time>2026-05-02T07:10:47.93Z</time></trkpt><trkpt lat="46.1263565" lon="13.5391337"><ele>334.0</ele><time>2026-05-02T07:10:48.938Z</time></trkpt><trkpt lat="46.1263658" lon="13.5392365"><ele>334.0</ele><time>2026-05-02T07:10:49.932Z</time></trkpt><trkpt lat="46.1263831" lon="13.5393365"><ele>334.0</ele><time>2026-05-02T07:10:50.931Z</time></trkpt><trkpt lat="46.1264166" lon="13.539423"><ele>334.0</ele><time>2026-05-02T07:10:51.925Z</time></trkpt><trkpt lat="46.126482" lon="13.5394659"><ele>334.0</ele><time>2026-05-02T07:10:53.934Z</time></trkpt><trkpt lat="46.1265872" lon="13.5394872"><ele>334.0</ele><time>2026-05-02T07:10:55.931Z</time></trkpt><trkpt lat="46.1266625" lon="13.5395194"><ele>335.4</ele><time>2026-05-02T07:10:56.926Z</time></trkpt><trkpt lat="46.1267409" lon="13.5395735"><ele>336.79999999999995</ele><time>2026-05-02T07:10:57.927Z</time></trkpt><trkpt lat="46.126828" lon="13.5396197"><ele>338.20000000000005</ele><time>2026-05-02T07:10:58.93Z</time></trkpt><trkpt lat="46.1269258" lon="13.5396855"><ele>339.6</ele><time>2026-05-02T07:10:59.929Z</time></trkpt><trkpt lat="46.127023" lon="13.5397439"><ele>341.0</ele><time>2026-05-02T07:11:00.928Z</time></trkpt><trkpt lat="46.1271334" lon="13.5398261"><ele>341.0</ele><time>2026-05-02T07:11:01.934Z</time></trkpt><trkpt lat="46.1272313" lon="13.5398924"><ele>341.0</ele><time>2026-05-02T07:11:02.943Z</time></trkpt><trkpt lat="46.1274105" lon="13.5400417"><ele>341.0</ele><time>2026-05-02T07:11:04.931Z</time></trkpt><trkpt lat="46.1275042" lon="13.5401196"><ele>341.0</ele><time>2026-05-02T07:11:05.929Z</time></trkpt><trkpt lat="46.127588" lon="13.5402038"><ele>341.33333333333337</ele><time>2026-05-02T07:11:06.934Z</time></trkpt><trkpt lat="46.1276466" lon="13.5402907"><ele>341.6666666666667</ele><time>2026-05-02T07:11:07.934Z</time></trkpt><trkpt lat="46.1277002" lon="13.5403854"><ele>342.0</ele><time>2026-05-02T07:11:08.923Z</time></trkpt><trkpt lat="46.1277252" lon="13.5404767"><ele>342.3333333333333</ele><time>2026-05-02T07:11:09.927Z</time></trkpt><trkpt lat="46.1277333" lon="13.540576"><ele>342.66666666666663</ele><time>2026-05-02T07:11:10.939Z</time></trkpt><trkpt lat="46.1277278" lon="13.5407014"><ele>343.0</ele><time>2026-05-02T07:11:11.932Z</time></trkpt><trkpt lat="46.1277126" lon="13.5408361"><ele>343.0</ele><time>2026-05-02T07:11:12.927Z</time></trkpt><trkpt lat="46.1276753" lon="13.5409794"><ele>343.0</ele><time>2026-05-02T07:11:13.926Z</time></trkpt><trkpt lat="46.1276256" lon="13.5411165"><ele>343.0</ele><time>2026-05-02T07:11:14.928Z</time></trkpt><trkpt lat="46.1275724" lon="13.5412296"><ele>343.0</ele><time>2026-05-02T07:11:15.928Z</time></trkpt><trkpt lat="46.1275188" lon="13.5413359"><ele>343.0</ele><time>2026-05-02T07:11:16.93Z</time></trkpt><trkpt lat="46.1274947" lon="13.5414206"><ele>345.0</ele><time>2026-05-02T07:11:17.933Z</time></trkpt><trkpt lat="46.1275135" lon="13.5415597"><ele>347.0</ele><time>2026-05-02T07:11:19.931Z</time></trkpt><trkpt lat="46.1275963" lon="13.5415862"><ele>349.0</ele><time>2026-05-02T07:11:22.922Z</time></trkpt><trkpt lat="46.1277304" lon="13.5415766"><ele>351.0</ele><time>2026-05-02T07:11:24.928Z</time></trkpt><trkpt lat="46.1278907" lon="13.5416117"><ele>351.0</ele><time>2026-05-02T07:11:26.936Z</time></trkpt><trkpt lat="46.1279881" lon="13.5416604"><ele>351.0</ele><time>2026-05-02T07:11:27.93Z</time></trkpt><trkpt lat="46.1280957" lon="13.5417171"><ele>351.0</ele><time>2026-05-02T07:11:28.934Z</time></trkpt><trkpt lat="46.1282233" lon="13.5417898"><ele>351.0</ele><time>2026-05-02T07:11:29.929Z</time></trkpt><trkpt lat="46.1283571" lon="13.5418605"><ele>353.4</ele><time>2026-05-02T07:11:30.935Z</time></trkpt><trkpt lat="46.1284796" lon="13.5419139"><ele>355.8</ele><time>2026-05-02T07:11:31.936Z</time></trkpt><trkpt lat="46.1285914" lon="13.5419417"><ele>358.2</ele><time>2026-05-02T07:11:32.937Z</time></trkpt><trkpt lat="46.1286924" lon="13.5419803"><ele>360.59999999999997</ele><time>2026-05-02T07:11:33.931Z</time></trkpt><trkpt lat="46.1287865" lon="13.5420149"><ele>363.0</ele><time>2026-05-02T07:11:34.942Z</time></trkpt><trkpt lat="46.1288861" lon="13.542073"><ele>363.0</ele><time>2026-05-02T07:11:35.94Z</time></trkpt><trkpt lat="46.1289706" lon="13.5421445"><ele>363.0</ele><time>2026-05-02T07:11:36.933Z</time></trkpt><trkpt lat="46.1290538" lon="13.5422144"><ele>363.0</ele><time>2026-05-02T07:11:37.941Z</time></trkpt><trkpt lat="46.1291497" lon="13.54226"><ele>363.0</ele><time>2026-05-02T07:11:38.933Z</time></trkpt><trkpt lat="46.1292484" lon="13.5422859"><ele>363.0</ele><time>2026-05-02T07:11:39.929Z</time></trkpt><trkpt lat="46.1293572" lon="13.5423072"><ele>362.6666666666667</ele><time>2026-05-02T07:11:40.928Z</time></trkpt><trkpt lat="46.1294527" lon="13.5423254"><ele>362.3333333333333</ele><time>2026-05-02T07:11:41.933Z</time></trkpt><trkpt lat="46.129551" lon="13.5423588"><ele>362.0</ele><time>2026-05-02T07:11:42.931Z</time></trkpt><trkpt lat="46.1296206" lon="13.5423958"><ele>361.66666666666663</ele><time>2026-05-02T07:11:43.928Z</time></trkpt><trkpt lat="46.1296903" lon="13.5424677"><ele>361.3333333333333</ele><time>2026-05-02T07:11:44.933Z</time></trkpt><trkpt lat="46.1297522" lon="13.5425479"><ele>361.0</ele><time>2026-05-02T07:11:45.926Z</time></trkpt><trkpt lat="46.1297892" lon="13.5427878"><ele>361.66666666666663</ele><time>2026-05-02T07:11:47.941Z</time></trkpt><trkpt lat="46.1297794" lon="13.5428948"><ele>362.3333333333333</ele><time>2026-05-02T07:11:48.926Z</time></trkpt><trkpt lat="46.129833" lon="13.5430135"><ele>363.0</ele><time>2026-05-02T07:11:50.931Z</time></trkpt><trkpt lat="46.1299011" lon="13.5430191"><ele>363.6666666666667</ele><time>2026-05-02T07:11:51.931Z</time></trkpt><trkpt lat="46.1299846" lon="13.5430362"><ele>364.33333333333337</ele><time>2026-05-02T07:11:52.932Z</time></trkpt><trkpt lat="46.1300818" lon="13.5430702"><ele>365.0</ele><time>2026-05-02T07:11:53.935Z</time></trkpt><trkpt lat="46.1301835" lon="13.5431163"><ele>365.0</ele><time>2026-05-02T07:11:54.929Z</time></trkpt><trkpt lat="46.1302832" lon="13.5431586"><ele>365.0</ele><time>2026-05-02T07:11:55.922Z</time></trkpt><trkpt lat="46.1303774" lon="13.5432028"><ele>365.0</ele><time>2026-05-02T07:11:56.933Z</time></trkpt><trkpt lat="46.1304538" lon="13.5432662"><ele>365.0</ele><time>2026-05-02T07:11:57.929Z</time></trkpt><trkpt lat="46.1305332" lon="13.543365"><ele>365.0</ele><time>2026-05-02T07:11:58.927Z</time></trkpt><trkpt lat="46.1306168" lon="13.5434774"><ele>365.0</ele><time>2026-05-02T07:11:59.924Z</time></trkpt><trkpt lat="46.1307032" lon="13.5436073"><ele>365.0</ele><time>2026-05-02T07:12:00.929Z</time></trkpt><trkpt lat="46.1307873" lon="13.5437431"><ele>365.0</ele><time>2026-05-02T07:12:01.928Z</time></trkpt><trkpt lat="46.1308741" lon="13.5438791"><ele>365.0</ele><time>2026-05-02T07:12:02.931Z</time></trkpt><trkpt lat="46.1309665" lon="13.5439796"><ele>367.4</ele><time>2026-05-02T07:12:03.929Z</time></trkpt><trkpt lat="46.1310453" lon="13.5440668"><ele>369.8</ele><time>2026-05-02T07:12:04.93Z</time></trkpt><trkpt lat="46.1311244" lon="13.5441389"><ele>372.20000000000005</ele><time>2026-05-02T07:12:05.925Z</time></trkpt><trkpt lat="46.1311982" lon="13.5441919"><ele>374.6</ele><time>2026-05-02T07:12:06.932Z</time></trkpt><trkpt lat="46.1313464" lon="13.5442919"><ele>377.0</ele><time>2026-05-02T07:12:08.933Z</time></trkpt><trkpt lat="46.1314322" lon="13.5443502"><ele>377.0</ele><time>2026-05-02T07:12:09.942Z</time></trkpt><trkpt lat="46.1315194" lon="13.5444183"><ele>377.0</ele><time>2026-05-02T07:12:10.93Z</time></trkpt><trkpt lat="46.1315985" lon="13.5444917"><ele>377.0</ele><time>2026-05-02T07:12:11.935Z</time></trkpt><trkpt lat="46.1316825" lon="13.5445674"><ele>377.0</ele><time>2026-05-02T07:12:12.926Z</time></trkpt><trkpt lat="46.1317717" lon="13.5446517"><ele>377.0</ele><time>2026-05-02T07:12:13.931Z</time></trkpt><trkpt lat="46.1318753" lon="13.5447172"><ele>378.5</ele><time>2026-05-02T07:12:14.939Z</time></trkpt><trkpt lat="46.1319812" lon="13.5447774"><ele>380.0</ele><time>2026-05-02T07:12:15.927Z</time></trkpt><trkpt lat="46.1321034" lon="13.5448275"><ele>381.5</ele><time>2026-05-02T07:12:16.927Z</time></trkpt><trkpt lat="46.1322221" lon="13.5449052"><ele>383.0</ele><time>2026-05-02T07:12:17.925Z</time></trkpt><trkpt lat="46.1323405" lon="13.5449894"><ele>380.83333333333337</ele><time>2026-05-02T07:12:18.931Z</time></trkpt><trkpt lat="46.1324416" lon="13.5450634"><ele>378.6666666666667</ele><time>2026-05-02T07:12:19.928Z</time></trkpt><trkpt lat="46.1325272" lon="13.5451158"><ele>376.5</ele><time>2026-05-02T07:12:20.936Z</time></trkpt><trkpt lat="46.132613" lon="13.5451544"><ele>374.3333333333333</ele><time>2026-05-02T07:12:21.923Z</time></trkpt><trkpt lat="46.1326904" lon="13.5451919"><ele>372.16666666666663</ele><time>2026-05-02T07:12:22.93Z</time></trkpt><trkpt lat="46.1327591" lon="13.5452184"><ele>370.0</ele><time>2026-05-02T07:12:23.929Z</time></trkpt><trkpt lat="46.1328431" lon="13.5452632"><ele>370.0</ele><time>2026-05-02T07:12:24.941Z</time></trkpt><trkpt lat="46.1329354" lon="13.5453023"><ele>370.0</ele><time>2026-05-02T07:12:25.924Z</time></trkpt><trkpt lat="46.1330316" lon="13.5453467"><ele>370.0</ele><time>2026-05-02T07:12:26.927Z</time></trkpt><trkpt lat="46.1331167" lon="13.5453745"><ele>370.0</ele><time>2026-05-02T07:12:27.935Z</time></trkpt><trkpt lat="46.1332693" lon="13.5454719"><ele>371.66666666666663</ele><time>2026-05-02T07:12:29.932Z</time></trkpt><trkpt lat="46.1333286" lon="13.5455058"><ele>373.3333333333333</ele><time>2026-05-02T07:12:30.928Z</time></trkpt><trkpt lat="46.1334142" lon="13.5455279"><ele>375.0</ele><time>2026-05-02T07:12:32.924Z</time></trkpt><trkpt lat="46.1335057" lon="13.5455035"><ele>376.6666666666667</ele><time>2026-05-02T07:12:34.93Z</time></trkpt><trkpt lat="46.1335911" lon="13.545405"><ele>378.33333333333337</ele><time>2026-05-02T07:12:36.936Z</time></trkpt><trkpt lat="46.1336384" lon="13.5453351"><ele>380.0</ele><time>2026-05-02T07:12:37.934Z</time></trkpt><trkpt lat="46.1336848" lon="13.5452531"><ele>377.1666666666667</ele><time>2026-05-02T07:12:38.934Z</time></trkpt><trkpt lat="46.1337594" lon="13.5451841"><ele>374.33333333333337</ele><time>2026-05-02T07:12:39.931Z</time></trkpt><trkpt lat="46.1338437" lon="13.5451439"><ele>371.5</ele><time>2026-05-02T07:12:40.939Z</time></trkpt><trkpt lat="46.1339209" lon="13.5451324"><ele>368.6666666666667</ele><time>2026-05-02T07:12:41.93Z</time></trkpt><trkpt lat="46.1339937" lon="13.5451121"><ele>365.8333333333333</ele><time>2026-05-02T07:12:42.934Z</time></trkpt><trkpt lat="46.1340591" lon="13.5451034"><ele>363.0</ele><time>2026-05-02T07:12:43.933Z</time></trkpt><trkpt lat="46.1341444" lon="13.5451746"><ele>363.0</ele><time>2026-05-02T07:12:44.929Z</time></trkpt><trkpt lat="46.134205" lon="13.5452402"><ele>363.0</ele><time>2026-05-02T07:12:45.923Z</time></trkpt><trkpt lat="46.1342755" lon="13.54528"><ele>363.0</ele><time>2026-05-02T07:12:46.927Z</time></trkpt><trkpt lat="46.1343588" lon="13.5453297"><ele>363.0</ele><time>2026-05-02T07:12:47.93Z</time></trkpt><trkpt lat="46.1344841" lon="13.5453878"><ele>363.0</ele><time>2026-05-02T07:12:49.927Z</time></trkpt><trkpt lat="46.1345967" lon="13.5454763"><ele>366.59999999999997</ele><time>2026-05-02T07:12:51.926Z</time></trkpt><trkpt lat="46.1346515" lon="13.5455583"><ele>370.2</ele><time>2026-05-02T07:12:52.939Z</time></trkpt><trkpt lat="46.134698" lon="13.5456873"><ele>373.8</ele><time>2026-05-02T07:12:53.934Z</time></trkpt><trkpt lat="46.1347599" lon="13.5458451"><ele>377.4</ele><time>2026-05-02T07:12:54.937Z</time></trkpt><trkpt lat="46.13483" lon="13.5460239"><ele>381.0</ele><time>2026-05-02T07:12:55.929Z</time></trkpt><trkpt lat="46.1348955" lon="13.5462146"><ele>381.0</ele><time>2026-05-02T07:12:56.943Z</time></trkpt><trkpt lat="46.1349616" lon="13.5463903"><ele>381.0</ele><time>2026-05-02T07:12:57.934Z</time></trkpt><trkpt lat="46.1350145" lon="13.5465575"><ele>381.0</ele><time>2026-05-02T07:12:58.937Z</time></trkpt><trkpt lat="46.1350575" lon="13.5467143"><ele>381.0</ele><time>2026-05-02T07:12:59.93Z</time></trkpt><trkpt lat="46.1351197" lon="13.5468493"><ele>381.0</ele><time>2026-05-02T07:13:00.929Z</time></trkpt><trkpt lat="46.1351922" lon="13.5469623"><ele>381.0</ele><time>2026-05-02T07:13:01.924Z</time></trkpt><trkpt lat="46.1352668" lon="13.5470647"><ele>381.0</ele><time>2026-05-02T07:13:02.936Z</time></trkpt><trkpt lat="46.1353628" lon="13.5471695"><ele>381.0</ele><time>2026-05-02T07:13:03.93Z</time></trkpt><trkpt lat="46.1354599" lon="13.5472849"><ele>380.75</ele><time>2026-05-02T07:13:04.924Z</time></trkpt><trkpt lat="46.1355431" lon="13.5473922"><ele>380.5</ele><time>2026-05-02T07:13:05.93Z</time></trkpt><trkpt lat="46.135635" lon="13.5474995"><ele>380.25</ele><time>2026-05-02T07:13:06.928Z</time></trkpt><trkpt lat="46.1357269" lon="13.5475999"><ele>380.0</ele><time>2026-05-02T07:13:07.93Z</time></trkpt><trkpt lat="46.1358232" lon="13.5476897"><ele>380.0</ele><time>2026-05-02T07:13:08.93Z</time></trkpt><trkpt lat="46.1359209" lon="13.5477613"><ele>380.0</ele><time>2026-05-02T07:13:09.93Z</time></trkpt><trkpt lat="46.1360077" lon="13.5478222"><ele>380.0</ele><time>2026-05-02T07:13:10.932Z</time></trkpt><trkpt lat="46.1361763" lon="13.5479376"><ele>380.0</ele><time>2026-05-02T07:13:12.928Z</time></trkpt><trkpt lat="46.1362396" lon="13.5479944"><ele>383.6666666666667</ele><time>2026-05-02T07:13:13.935Z</time></trkpt><trkpt lat="46.1363303" lon="13.5481105"><ele>387.33333333333337</ele><time>2026-05-02T07:13:15.924Z</time></trkpt><trkpt lat="46.1363657" lon="13.5481935"><ele>391.0</ele><time>2026-05-02T07:13:16.925Z</time></trkpt><trkpt lat="46.1363914" lon="13.5483007"><ele>394.6666666666667</ele><time>2026-05-02T07:13:17.928Z</time></trkpt><trkpt lat="46.1363891" lon="13.5483986"><ele>398.3333333333333</ele><time>2026-05-02T07:13:18.931Z</time></trkpt><trkpt lat="46.1364311" lon="13.5485452"><ele>402.0</ele><time>2026-05-02T07:13:20.932Z</time></trkpt><trkpt lat="46.1365289" lon="13.5486359"><ele>400.20000000000005</ele><time>2026-05-02T07:13:22.927Z</time></trkpt><trkpt lat="46.1365862" lon="13.5486777"><ele>398.4</ele><time>2026-05-02T07:13:23.928Z</time></trkpt><trkpt lat="46.1367062" lon="13.5487644"><ele>396.6</ele><time>2026-05-02T07:13:25.93Z</time></trkpt><trkpt lat="46.1367735" lon="13.5488622"><ele>394.79999999999995</ele><time>2026-05-02T07:13:26.929Z</time></trkpt><trkpt lat="46.1368448" lon="13.5489777"><ele>393.0</ele><time>2026-05-02T07:13:27.927Z</time></trkpt><trkpt lat="46.1369262" lon="13.5491013"><ele>393.0</ele><time>2026-05-02T07:13:28.926Z</time></trkpt><trkpt lat="46.1370095" lon="13.5492331"><ele>393.0</ele><time>2026-05-02T07:13:29.928Z</time></trkpt><trkpt lat="46.1370927" lon="13.5493603"><ele>393.0</ele><time>2026-05-02T07:13:30.93Z</time></trkpt><trkpt lat="46.1371701" lon="13.5494819"><ele>393.0</ele><time>2026-05-02T07:13:31.936Z</time></trkpt><trkpt lat="46.1372839" lon="13.5497034"><ele>391.8333333333333</ele><time>2026-05-02T07:13:33.931Z</time></trkpt><trkpt lat="46.1373242" lon="13.5498065"><ele>390.66666666666663</ele><time>2026-05-02T07:13:34.926Z</time></trkpt><trkpt lat="46.1373463" lon="13.5499234"><ele>389.5</ele><time>2026-05-02T07:13:35.93Z</time></trkpt><trkpt lat="46.1373673" lon="13.5500526"><ele>388.3333333333333</ele><time>2026-05-02T07:13:36.928Z</time></trkpt><trkpt lat="46.137395" lon="13.5501861"><ele>387.16666666666663</ele><time>2026-05-02T07:13:37.937Z</time></trkpt><trkpt lat="46.1374112" lon="13.5503149"><ele>386.0</ele><time>2026-05-02T07:13:38.934Z</time></trkpt><trkpt lat="46.137422" lon="13.5504171"><ele>385.99999999999994</ele><time>2026-05-02T07:13:39.93Z</time></trkpt><trkpt lat="46.137422" lon="13.5505288"><ele>386.0</ele><time>2026-05-02T07:13:40.936Z</time></trkpt><trkpt lat="46.1374154" lon="13.5506315"><ele>386.0</ele><time>2026-05-02T07:13:41.928Z</time></trkpt><trkpt lat="46.1373806" lon="13.5508059"><ele>386.0</ele><time>2026-05-02T07:13:43.933Z</time></trkpt><trkpt lat="46.1373785" lon="13.5509053"><ele>385.99999999999994</ele><time>2026-05-02T07:13:44.934Z</time></trkpt><trkpt lat="46.1373895" lon="13.5510235"><ele>386.0</ele><time>2026-05-02T07:13:45.926Z</time></trkpt><trkpt lat="46.1374002" lon="13.5511439"><ele>385.8</ele><time>2026-05-02T07:13:46.93Z</time></trkpt><trkpt lat="46.1374064" lon="13.5512728"><ele>385.6</ele><time>2026-05-02T07:13:47.931Z</time></trkpt><trkpt lat="46.1373816" lon="13.5513896"><ele>385.4</ele><time>2026-05-02T07:13:48.925Z</time></trkpt><trkpt lat="46.1373455" lon="13.5515091"><ele>385.2</ele><time>2026-05-02T07:13:49.926Z</time></trkpt><trkpt lat="46.137315" lon="13.5516475"><ele>385.0</ele><time>2026-05-02T07:13:50.928Z</time></trkpt><trkpt lat="46.1372731" lon="13.5517733"><ele>394.75</ele><time>2026-05-02T07:13:51.938Z</time></trkpt><trkpt lat="46.1372313" lon="13.5518965"><ele>404.5</ele><time>2026-05-02T07:13:52.939Z</time></trkpt><trkpt lat="46.1371779" lon="13.5521434"><ele>414.25</ele><time>2026-05-02T07:13:54.928Z</time></trkpt><trkpt lat="46.137166" lon="13.5522712"><ele>424.0</ele><time>2026-05-02T07:13:55.932Z</time></trkpt><trkpt lat="46.1371679" lon="13.5524222"><ele>424.6</ele><time>2026-05-02T07:13:56.934Z</time></trkpt><trkpt lat="46.1371839" lon="13.5525813"><ele>425.2</ele><time>2026-05-02T07:13:57.931Z</time></trkpt><trkpt lat="46.1372238" lon="13.5527533"><ele>425.80000000000007</ele><time>2026-05-02T07:13:58.934Z</time></trkpt><trkpt lat="46.1372435" lon="13.5529001"><ele>426.40000000000003</ele><time>2026-05-02T07:13:59.929Z</time></trkpt><trkpt lat="46.1372902" lon="13.5530256"><ele>427.0</ele><time>2026-05-02T07:14:00.929Z</time></trkpt><trkpt lat="46.1373389" lon="13.5531229"><ele>422.75</ele><time>2026-05-02T07:14:01.929Z</time></trkpt><trkpt lat="46.1373871" lon="13.5531993"><ele>418.5</ele><time>2026-05-02T07:14:02.93Z</time></trkpt><trkpt lat="46.1374913" lon="13.5532748"><ele>414.25</ele><time>2026-05-02T07:14:04.933Z</time></trkpt><trkpt lat="46.1375987" lon="13.5531367"><ele>410.0</ele><time>2026-05-02T07:14:05.926Z</time></trkpt><trkpt lat="46.1377199" lon="13.5530728"><ele>410.0</ele><time>2026-05-02T07:14:06.929Z</time></trkpt><trkpt lat="46.1378296" lon="13.5530347"><ele>410.0</ele><time>2026-05-02T07:14:07.934Z</time></trkpt><trkpt lat="46.1379799" lon="13.5530692"><ele>410.0</ele><time>2026-05-02T07:14:08.924Z</time></trkpt><trkpt lat="46.1381251" lon="13.5530988"><ele>410.0</ele><time>2026-05-02T07:14:09.929Z</time></trkpt><trkpt lat="46.1382617" lon="13.5531249"><ele>406.25</ele><time>2026-05-02T07:14:10.927Z</time></trkpt><trkpt lat="46.1383941" lon="13.553139"><ele>402.5</ele><time>2026-05-02T07:14:11.932Z</time></trkpt><trkpt lat="46.138511" lon="13.5531382"><ele>398.75</ele><time>2026-05-02T07:14:12.931Z</time></trkpt><trkpt lat="46.1386122" lon="13.5531695"><ele>395.0</ele><time>2026-05-02T07:14:13.932Z</time></trkpt><trkpt lat="46.1388163" lon="13.5532559"><ele>395.0</ele><time>2026-05-02T07:14:15.925Z</time></trkpt><trkpt lat="46.1389221" lon="13.553272"><ele>395.0</ele><time>2026-05-02T07:14:16.929Z</time></trkpt><trkpt lat="46.1390308" lon="13.5532867"><ele>395.0</ele><time>2026-05-02T07:14:17.935Z</time></trkpt><trkpt lat="46.1391341" lon="13.5532818"><ele>395.0</ele><time>2026-05-02T07:14:18.927Z</time></trkpt><trkpt lat="46.1392376" lon="13.5532649"><ele>395.0</ele><time>2026-05-02T07:14:19.926Z</time></trkpt><trkpt lat="46.139338" lon="13.5532456"><ele>394.3333333333333</ele><time>2026-05-02T07:14:20.929Z</time></trkpt><trkpt lat="46.1394391" lon="13.5532241"><ele>393.66666666666663</ele><time>2026-05-02T07:14:21.93Z</time></trkpt><trkpt lat="46.1395154" lon="13.5531916"><ele>393.0</ele><time>2026-05-02T07:14:22.932Z</time></trkpt><trkpt lat="46.1395734" lon="13.5531262"><ele>392.33333333333337</ele><time>2026-05-02T07:14:23.93Z</time></trkpt><trkpt lat="46.1396355" lon="13.5530653"><ele>391.6666666666667</ele><time>2026-05-02T07:14:24.928Z</time></trkpt><trkpt lat="46.1397028" lon="13.5530271"><ele>391.0</ele><time>2026-05-02T07:14:25.926Z</time></trkpt><trkpt lat="46.1397893" lon="13.5530143"><ele>391.0</ele><time>2026-05-02T07:14:26.937Z</time></trkpt><trkpt lat="46.1398594" lon="13.5530037"><ele>391.0</ele><time>2026-05-02T07:14:27.931Z</time></trkpt><trkpt lat="46.1399652" lon="13.5530587"><ele>391.0</ele><time>2026-05-02T07:14:29.926Z</time></trkpt><trkpt lat="46.1400332" lon="13.5531935"><ele>391.0</ele><time>2026-05-02T07:14:31.927Z</time></trkpt><trkpt lat="46.1400398" lon="13.5533829"><ele>391.0</ele><time>2026-05-02T07:14:33.928Z</time></trkpt><trkpt lat="46.1400225" lon="13.5535366"><ele>390.0</ele><time>2026-05-02T07:14:34.929Z</time></trkpt><trkpt lat="46.1399849" lon="13.5538955"><ele>389.0</ele><time>2026-05-02T07:14:36.933Z</time></trkpt><trkpt lat="46.1399823" lon="13.5540871"><ele>388.0</ele><time>2026-05-02T07:14:37.927Z</time></trkpt><trkpt lat="46.1399848" lon="13.5542655"><ele>388.0</ele><time>2026-05-02T07:14:38.927Z</time></trkpt><trkpt lat="46.1399883" lon="13.5544259"><ele>388.0</ele><time>2026-05-02T07:14:39.926Z</time></trkpt><trkpt lat="46.1399828" lon="13.5545673"><ele>388.0</ele><time>2026-05-02T07:14:40.925Z</time></trkpt><trkpt lat="46.1399648" lon="13.5547149"><ele>388.0</ele><time>2026-05-02T07:14:41.934Z</time></trkpt><trkpt lat="46.1399373" lon="13.5548708"><ele>388.0</ele><time>2026-05-02T07:14:42.928Z</time></trkpt><trkpt lat="46.1398885" lon="13.5550309"><ele>392.75</ele><time>2026-05-02T07:14:43.933Z</time></trkpt><trkpt lat="46.1398314" lon="13.5551988"><ele>397.5</ele><time>2026-05-02T07:14:44.929Z</time></trkpt><trkpt lat="46.1397631" lon="13.5553603"><ele>402.25</ele><time>2026-05-02T07:14:45.928Z</time></trkpt><trkpt lat="46.1396932" lon="13.5554864"><ele>407.0</ele><time>2026-05-02T07:14:46.931Z</time></trkpt><trkpt lat="46.1396389" lon="13.5556107"><ele>407.0</ele><time>2026-05-02T07:14:47.93Z</time></trkpt><trkpt lat="46.1395965" lon="13.5557507"><ele>407.0</ele><time>2026-05-02T07:14:48.927Z</time></trkpt><trkpt lat="46.1395487" lon="13.5558911"><ele>407.0</ele><time>2026-05-02T07:14:49.928Z</time></trkpt><trkpt lat="46.1395121" lon="13.5560332"><ele>407.0</ele><time>2026-05-02T07:14:50.943Z</time></trkpt><trkpt lat="46.1394916" lon="13.5561724"><ele>407.0</ele><time>2026-05-02T07:14:51.929Z</time></trkpt><trkpt lat="46.1394651" lon="13.5562967"><ele>402.8</ele><time>2026-05-02T07:14:52.934Z</time></trkpt><trkpt lat="46.1394395" lon="13.5564051"><ele>398.6</ele><time>2026-05-02T07:14:53.93Z</time></trkpt><trkpt lat="46.1394021" lon="13.556501"><ele>394.40000000000003</ele><time>2026-05-02T07:14:54.93Z</time></trkpt><trkpt lat="46.1393567" lon="13.5565981"><ele>390.20000000000005</ele><time>2026-05-02T07:14:55.942Z</time></trkpt><trkpt lat="46.1392573" lon="13.5567677"><ele>386.0</ele><time>2026-05-02T07:14:57.935Z</time></trkpt><trkpt lat="46.1391885" lon="13.5569242"><ele>385.99999999999994</ele><time>2026-05-02T07:14:59.928Z</time></trkpt><trkpt lat="46.1391627" lon="13.5570177"><ele>386.0</ele><time>2026-05-02T07:15:00.93Z</time></trkpt><trkpt lat="46.1391416" lon="13.5571092"><ele>386.0</ele><time>2026-05-02T07:15:01.92Z</time></trkpt><trkpt lat="46.1391218" lon="13.5572015"><ele>386.0</ele><time>2026-05-02T07:15:02.927Z</time></trkpt><trkpt lat="46.1390952" lon="13.5573364"><ele>385.99999999999994</ele><time>2026-05-02T07:15:04.948Z</time></trkpt><trkpt lat="46.1391405" lon="13.5574553"><ele>386.0</ele><time>2026-05-02T07:15:06.931Z</time></trkpt><trkpt lat="46.1392237" lon="13.5575004"><ele>387.20000000000005</ele><time>2026-05-02T07:15:07.933Z</time></trkpt><trkpt lat="46.1393196" lon="13.5575198"><ele>388.40000000000003</ele><time>2026-05-02T07:15:08.927Z</time></trkpt><trkpt lat="46.1394059" lon="13.5575209"><ele>389.6</ele><time>2026-05-02T07:15:09.924Z</time></trkpt><trkpt lat="46.1394977" lon="13.5575193"><ele>390.8</ele><time>2026-05-02T07:15:10.93Z</time></trkpt><trkpt lat="46.1396023" lon="13.5575074"><ele>392.0</ele><time>2026-05-02T07:15:11.929Z</time></trkpt><trkpt lat="46.1396943" lon="13.5574776"><ele>391.99999999999994</ele><time>2026-05-02T07:15:12.934Z</time></trkpt><trkpt lat="46.1397813" lon="13.5574459"><ele>392.0</ele><time>2026-05-02T07:15:13.928Z</time></trkpt><trkpt lat="46.139855" lon="13.5574375"><ele>392.0</ele><time>2026-05-02T07:15:14.93Z</time></trkpt><trkpt lat="46.1399269" lon="13.5574429"><ele>392.0</ele><time>2026-05-02T07:15:15.934Z</time></trkpt><trkpt lat="46.1399973" lon="13.5574698"><ele>391.99999999999994</ele><time>2026-05-02T07:15:16.933Z</time></trkpt><trkpt lat="46.1401124" lon="13.5575698"><ele>392.0</ele><time>2026-05-02T07:15:18.928Z</time></trkpt><trkpt lat="46.1401448" lon="13.5576589"><ele>388.6</ele><time>2026-05-02T07:15:19.92Z</time></trkpt><trkpt lat="46.140169" lon="13.5577852"><ele>385.20000000000005</ele><time>2026-05-02T07:15:20.932Z</time></trkpt><trkpt lat="46.1401838" lon="13.5579378"><ele>381.8</ele><time>2026-05-02T07:15:21.935Z</time></trkpt><trkpt lat="46.1401792" lon="13.558098"><ele>378.4</ele><time>2026-05-02T07:15:22.933Z</time></trkpt><trkpt lat="46.1401543" lon="13.5582668"><ele>375.0</ele><time>2026-05-02T07:15:23.928Z</time></trkpt><trkpt lat="46.1401261" lon="13.5584547"><ele>375.0</ele><time>2026-05-02T07:15:24.929Z</time></trkpt><trkpt lat="46.140032" lon="13.5586116"><ele>375.0</ele><time>2026-05-02T07:15:25.924Z</time></trkpt><trkpt lat="46.1399681" lon="13.5588231"><ele>375.0</ele><time>2026-05-02T07:15:26.93Z</time></trkpt><trkpt lat="46.1398932" lon="13.5589805"><ele>375.0</ele><time>2026-05-02T07:15:27.93Z</time></trkpt><trkpt lat="46.1398266" lon="13.5591168"><ele>377.6</ele><time>2026-05-02T07:15:28.925Z</time></trkpt><trkpt lat="46.1398221" lon="13.5592749"><ele>380.2</ele><time>2026-05-02T07:15:29.924Z</time></trkpt><trkpt lat="46.1397985" lon="13.5594269"><ele>382.79999999999995</ele><time>2026-05-02T07:15:30.928Z</time></trkpt><trkpt lat="46.1398203" lon="13.5595994"><ele>385.4</ele><time>2026-05-02T07:15:32.942Z</time></trkpt><trkpt lat="46.1398577" lon="13.5596922"><ele>388.0</ele><time>2026-05-02T07:15:33.927Z</time></trkpt><trkpt lat="46.1399498" lon="13.5596974"><ele>388.00000000000006</ele><time>2026-05-02T07:15:37.934Z</time></trkpt><trkpt lat="46.1400727" lon="13.5595989"><ele>388.0</ele><time>2026-05-02T07:15:41.94Z</time></trkpt><trkpt lat="46.1401344" lon="13.5595708"><ele>388.0</ele><time>2026-05-02T07:15:43.931Z</time></trkpt><trkpt lat="46.1402231" lon="13.5595355"><ele>388.0</ele><time>2026-05-02T07:15:46.93Z</time></trkpt><trkpt lat="46.1402943" lon="13.5594967"><ele>388.00000000000006</ele><time>2026-05-02T07:15:48.934Z</time></trkpt><trkpt lat="46.1403674" lon="13.5594789"><ele>388.0</ele><time>2026-05-02T07:15:50.939Z</time></trkpt><trkpt lat="46.1404392" lon="13.5594531"><ele>385.25</ele><time>2026-05-02T07:15:52.932Z</time></trkpt><trkpt lat="46.1405287" lon="13.5594223"><ele>382.5</ele><time>2026-05-02T07:15:54.93Z</time></trkpt><trkpt lat="46.1406252" lon="13.5593979"><ele>379.75</ele><time>2026-05-02T07:15:56.93Z</time></trkpt><trkpt lat="46.1407339" lon="13.5593357"><ele>377.0</ele><time>2026-05-02T07:15:58.925Z</time></trkpt><trkpt lat="46.1408704" lon="13.5592651"><ele>375.33333333333337</ele><time>2026-05-02T07:16:00.925Z</time></trkpt><trkpt lat="46.140945" lon="13.5592362"><ele>373.6666666666667</ele><time>2026-05-02T07:16:01.934Z</time></trkpt><trkpt lat="46.1410259" lon="13.5592165"><ele>372.0</ele><time>2026-05-02T07:16:02.923Z</time></trkpt><trkpt lat="46.1411002" lon="13.5591855"><ele>370.3333333333333</ele><time>2026-05-02T07:16:03.93Z</time></trkpt><trkpt lat="46.1411724" lon="13.5591562"><ele>368.66666666666663</ele><time>2026-05-02T07:16:04.928Z</time></trkpt><trkpt lat="46.1412433" lon="13.5591212"><ele>367.0</ele><time>2026-05-02T07:16:05.926Z</time></trkpt><trkpt lat="46.1413263" lon="13.5590724"><ele>367.0</ele><time>2026-05-02T07:16:06.927Z</time></trkpt><trkpt lat="46.1414177" lon="13.5590053"><ele>367.0</ele><time>2026-05-02T07:16:07.922Z</time></trkpt><trkpt lat="46.1415077" lon="13.5589078"><ele>367.0</ele><time>2026-05-02T07:16:08.923Z</time></trkpt><trkpt lat="46.1416003" lon="13.5587984"><ele>367.0</ele><time>2026-05-02T07:16:09.921Z</time></trkpt><trkpt lat="46.1417013" lon="13.5586933"><ele>366.75</ele><time>2026-05-02T07:16:10.928Z</time></trkpt><trkpt lat="46.1418099" lon="13.5585822"><ele>366.5</ele><time>2026-05-02T07:16:11.936Z</time></trkpt><trkpt lat="46.1419268" lon="13.5584692"><ele>366.25</ele><time>2026-05-02T07:16:12.924Z</time></trkpt><trkpt lat="46.1420377" lon="13.5583603"><ele>366.0</ele><time>2026-05-02T07:16:13.929Z</time></trkpt><trkpt lat="46.1421483" lon="13.5582731"><ele>366.0</ele><time>2026-05-02T07:16:14.929Z</time></trkpt><trkpt lat="46.1422592" lon="13.5582056"><ele>366.0</ele><time>2026-05-02T07:16:15.926Z</time></trkpt><trkpt lat="46.1423587" lon="13.5581842"><ele>366.0</ele><time>2026-05-02T07:16:16.932Z</time></trkpt><trkpt lat="46.1424254" lon="13.558174"><ele>366.0</ele><time>2026-05-02T07:16:17.93Z</time></trkpt><trkpt lat="46.1424651" lon="13.5582845"><ele>366.0</ele><time>2026-05-02T07:16:18.933Z</time></trkpt><trkpt lat="46.14245" lon="13.5584023"><ele>368.75</ele><time>2026-05-02T07:16:19.931Z</time></trkpt><trkpt lat="46.1423916" lon="13.5586579"><ele>371.5</ele><time>2026-05-02T07:16:21.929Z</time></trkpt><trkpt lat="46.1423807" lon="13.5588203"><ele>374.25</ele><time>2026-05-02T07:16:22.927Z</time></trkpt><trkpt lat="46.1423894" lon="13.5589928"><ele>377.0</ele><time>2026-05-02T07:16:23.933Z</time></trkpt><trkpt lat="46.1423948" lon="13.5591802"><ele>379.8</ele><time>2026-05-02T07:16:24.928Z</time></trkpt><trkpt lat="46.142398" lon="13.5593588"><ele>382.6</ele><time>2026-05-02T07:16:25.926Z</time></trkpt><trkpt lat="46.1424116" lon="13.5595155"><ele>385.40000000000003</ele><time>2026-05-02T07:16:26.934Z</time></trkpt><trkpt lat="46.1424363" lon="13.55966"><ele>388.20000000000005</ele><time>2026-05-02T07:16:27.932Z</time></trkpt><trkpt lat="46.1424671" lon="13.5597686"><ele>391.0</ele><time>2026-05-02T07:16:28.931Z</time></trkpt><trkpt lat="46.14239" lon="13.5597198"><ele>390.20000000000005</ele><time>2026-05-02T07:16:34.924Z</time></trkpt><trkpt lat="46.1422957" lon="13.5595794"><ele>389.40000000000003</ele><time>2026-05-02T07:16:36.935Z</time></trkpt><trkpt lat="46.1422209" lon="13.5594991"><ele>388.6</ele><time>2026-05-02T07:16:37.935Z</time></trkpt><trkpt lat="46.1421471" lon="13.5594209"><ele>387.8</ele><time>2026-05-02T07:16:38.928Z</time></trkpt><trkpt lat="46.1420821" lon="13.5593742"><ele>387.0</ele><time>2026-05-02T07:16:39.927Z</time></trkpt><trkpt lat="46.1420155" lon="13.5593669"><ele>387.0</ele><time>2026-05-02T07:16:40.944Z</time></trkpt><trkpt lat="46.1418517" lon="13.5594194"><ele>387.0</ele><time>2026-05-02T07:16:42.927Z</time></trkpt><trkpt lat="46.1417781" lon="13.5594857"><ele>387.0</ele><time>2026-05-02T07:16:44.925Z</time></trkpt><trkpt lat="46.1418379" lon="13.559571"><ele>387.0</ele><time>2026-05-02T07:16:48.929Z</time></trkpt><trkpt lat="46.1419275" lon="13.5596067"><ele>387.0</ele><time>2026-05-02T07:16:50.928Z</time></trkpt><trkpt lat="46.1419902" lon="13.5596409"><ele>391.0</ele><time>2026-05-02T07:16:51.926Z</time></trkpt><trkpt lat="46.1420429" lon="13.5597107"><ele>395.0</ele><time>2026-05-02T07:16:52.934Z</time></trkpt><trkpt lat="46.142088" lon="13.5597868"><ele>399.0</ele><time>2026-05-02T07:16:53.924Z</time></trkpt><trkpt lat="46.1421331" lon="13.5598813"><ele>403.0</ele><time>2026-05-02T07:16:54.933Z</time></trkpt><trkpt lat="46.1421772" lon="13.5599832"><ele>407.0</ele><time>2026-05-02T07:16:55.924Z</time></trkpt><trkpt lat="46.142223" lon="13.5600764"><ele>411.0</ele><time>2026-05-02T07:16:56.925Z</time></trkpt><trkpt lat="46.1422775" lon="13.5601841"><ele>411.0</ele><time>2026-05-02T07:16:57.927Z</time></trkpt><trkpt lat="46.1423242" lon="13.5602987"><ele>411.0</ele><time>2026-05-02T07:16:58.931Z</time></trkpt><trkpt lat="46.1423492" lon="13.5604216"><ele>411.0</ele><time>2026-05-02T07:16:59.934Z</time></trkpt><trkpt lat="46.1423617" lon="13.5605482"><ele>411.0</ele><time>2026-05-02T07:17:00.927Z</time></trkpt><trkpt lat="46.1423558" lon="13.560678"><ele>411.0</ele><time>2026-05-02T07:17:01.93Z</time></trkpt><trkpt lat="46.1423525" lon="13.5608965"><ele>414.85714285714283</ele><time>2026-05-02T07:17:03.922Z</time></trkpt><trkpt lat="46.1423525" lon="13.5609968"><ele>418.71428571428567</ele><time>2026-05-02T07:17:04.92Z</time></trkpt><trkpt lat="46.1423535" lon="13.5610958"><ele>422.57142857142856</ele><time>2026-05-02T07:17:05.927Z</time></trkpt><trkpt lat="46.1423462" lon="13.5612083"><ele>426.42857142857144</ele><time>2026-05-02T07:17:06.925Z</time></trkpt><trkpt lat="46.1423442" lon="13.561328"><ele>430.2857142857143</ele><time>2026-05-02T07:17:07.935Z</time></trkpt><trkpt lat="46.1423449" lon="13.5614339"><ele>434.14285714285717</ele><time>2026-05-02T07:17:08.93Z</time></trkpt><trkpt lat="46.1423436" lon="13.5615398"><ele>438.0</ele><time>2026-05-02T07:17:09.925Z</time></trkpt><trkpt lat="46.1423442" lon="13.5616377"><ele>439.2</ele><time>2026-05-02T07:17:10.926Z</time></trkpt><trkpt lat="46.1423189" lon="13.5617962"><ele>440.4</ele><time>2026-05-02T07:17:12.927Z</time></trkpt><trkpt lat="46.142286" lon="13.5619071"><ele>441.59999999999997</ele><time>2026-05-02T07:17:14.928Z</time></trkpt><trkpt lat="46.1422418" lon="13.5620557"><ele>442.79999999999995</ele><time>2026-05-02T07:17:16.925Z</time></trkpt><trkpt lat="46.1421972" lon="13.5622142"><ele>444.0</ele><time>2026-05-02T07:17:18.924Z</time></trkpt><trkpt lat="46.1421359" lon="13.5623732"><ele>444.0</ele><time>2026-05-02T07:17:20.927Z</time></trkpt><trkpt lat="46.1421042" lon="13.5624637"><ele>444.0</ele><time>2026-05-02T07:17:21.927Z</time></trkpt><trkpt lat="46.1420532" lon="13.5625576"><ele>444.0</ele><time>2026-05-02T07:17:22.927Z</time></trkpt><trkpt lat="46.1419534" lon="13.5627509"><ele>444.0</ele><time>2026-05-02T07:17:24.921Z</time></trkpt><trkpt lat="46.1419075" lon="13.5628416"><ele>444.0</ele><time>2026-05-02T07:17:25.934Z</time></trkpt><trkpt lat="46.14188" lon="13.5629352"><ele>444.3333333333333</ele><time>2026-05-02T07:17:26.928Z</time></trkpt><trkpt lat="46.1418662" lon="13.563071"><ele>444.66666666666663</ele><time>2026-05-02T07:17:28.937Z</time></trkpt><trkpt lat="46.1418707" lon="13.5632005"><ele>445.0</ele><time>2026-05-02T07:17:30.928Z</time></trkpt><trkpt lat="46.1419065" lon="13.5633314"><ele>445.3333333333333</ele><time>2026-05-02T07:17:32.929Z</time></trkpt><trkpt lat="46.1419624" lon="13.5633757"><ele>445.66666666666663</ele><time>2026-05-02T07:17:35.929Z</time></trkpt><trkpt lat="46.142032" lon="13.5633498"><ele>446.0</ele><time>2026-05-02T07:17:37.924Z</time></trkpt><trkpt lat="46.1421202" lon="13.5632889"><ele>446.0</ele><time>2026-05-02T07:17:39.933Z</time></trkpt><trkpt lat="46.1422192" lon="13.5632817"><ele>446.0</ele><time>2026-05-02T07:17:41.923Z</time></trkpt><trkpt lat="46.1422995" lon="13.5633318"><ele>446.0</ele><time>2026-05-02T07:17:43.927Z</time></trkpt><trkpt lat="46.1424614" lon="13.5634251"><ele>446.0</ele><time>2026-05-02T07:17:47.929Z</time></trkpt><trkpt lat="46.1425538" lon="13.5634312"><ele>442.99999999999994</ele><time>2026-05-02T07:17:49.923Z</time></trkpt><trkpt lat="46.1426232" lon="13.5634466"><ele>440.0</ele><time>2026-05-02T07:17:51.926Z</time></trkpt><trkpt lat="46.142732" lon="13.5634819"><ele>437.0</ele><time>2026-05-02T07:17:53.922Z</time></trkpt><trkpt lat="46.1427909" lon="13.5635158"><ele>434.0</ele><time>2026-05-02T07:17:54.926Z</time></trkpt><trkpt lat="46.1428489" lon="13.5635577"><ele>430.99999999999994</ele><time>2026-05-02T07:17:55.926Z</time></trkpt><trkpt lat="46.1429157" lon="13.563605"><ele>428.0</ele><time>2026-05-02T07:17:56.921Z</time></trkpt><trkpt lat="46.1429812" lon="13.5636565"><ele>435.0</ele><time>2026-05-02T07:17:57.931Z</time></trkpt><trkpt lat="46.1430381" lon="13.5637254"><ele>441.99999999999994</ele><time>2026-05-02T07:17:58.932Z</time></trkpt><trkpt lat="46.1430911" lon="13.5638835"><ele>448.99999999999994</ele><time>2026-05-02T07:18:00.933Z</time></trkpt><trkpt lat="46.1431157" lon="13.5640412"><ele>456.0</ele><time>2026-05-02T07:18:02.921Z</time></trkpt><trkpt lat="46.1430526" lon="13.5640379"><ele>463.0</ele><time>2026-05-02T07:18:07.92Z</time></trkpt><trkpt lat="46.1428582" lon="13.5639222"><ele>463.00000000000006</ele><time>2026-05-02T07:18:11.92Z</time></trkpt><trkpt lat="46.1427951" lon="13.5638993"><ele>463.0</ele><time>2026-05-02T07:18:12.928Z</time></trkpt><trkpt lat="46.1427309" lon="13.5638853"><ele>463.0</ele><time>2026-05-02T07:18:13.925Z</time></trkpt><trkpt lat="46.1426568" lon="13.5638635"><ele>463.0</ele><time>2026-05-02T07:18:14.927Z</time></trkpt><trkpt lat="46.1425549" lon="13.5638551"><ele>463.00000000000006</ele><time>2026-05-02T07:18:15.927Z</time></trkpt><trkpt lat="46.1424601" lon="13.5638992"><ele>463.0</ele><time>2026-05-02T07:18:16.924Z</time></trkpt><trkpt lat="46.1423598" lon="13.5639315"><ele>464.33333333333337</ele><time>2026-05-02T07:18:17.921Z</time></trkpt><trkpt lat="46.1422683" lon="13.563957"><ele>465.6666666666667</ele><time>2026-05-02T07:18:18.935Z</time></trkpt><trkpt lat="46.1421898" lon="13.5639686"><ele>467.0</ele><time>2026-05-02T07:18:19.927Z</time></trkpt><trkpt lat="46.1421161" lon="13.5639746"><ele>468.33333333333337</ele><time>2026-05-02T07:18:20.931Z</time></trkpt><trkpt lat="46.1420505" lon="13.5639803"><ele>469.6666666666667</ele><time>2026-05-02T07:18:21.923Z</time></trkpt><trkpt lat="46.141923" lon="13.5640087"><ele>471.0</ele><time>2026-05-02T07:18:23.924Z</time></trkpt><trkpt lat="46.1418482" lon="13.5640286"><ele>471.0</ele><time>2026-05-02T07:18:24.921Z</time></trkpt><trkpt lat="46.1417701" lon="13.5640635"><ele>471.0</ele><time>2026-05-02T07:18:25.924Z</time></trkpt><trkpt lat="46.1417019" lon="13.5640957"><ele>471.0</ele><time>2026-05-02T07:18:26.93Z</time></trkpt><trkpt lat="46.1416393" lon="13.5641283"><ele>471.0</ele><time>2026-05-02T07:18:27.924Z</time></trkpt><trkpt lat="46.1415292" lon="13.5641502"><ele>471.0</ele><time>2026-05-02T07:18:29.924Z</time></trkpt><trkpt lat="46.1413781" lon="13.5639429"><ele>474.8</ele><time>2026-05-02T07:18:33.924Z</time></trkpt><trkpt lat="46.1413332" lon="13.5637768"><ele>478.6</ele><time>2026-05-02T07:18:35.933Z</time></trkpt><trkpt lat="46.1412897" lon="13.5637019"><ele>482.4</ele><time>2026-05-02T07:18:36.928Z</time></trkpt><trkpt lat="46.1412462" lon="13.5636152"><ele>486.2</ele><time>2026-05-02T07:18:37.925Z</time></trkpt><trkpt lat="46.1412059" lon="13.5635291"><ele>490.0</ele><time>2026-05-02T07:18:38.935Z</time></trkpt><trkpt lat="46.1411403" lon="13.5633927"><ele>490.0</ele><time>2026-05-02T07:18:40.93Z</time></trkpt><trkpt lat="46.1411181" lon="13.5632517"><ele>490.0</ele><time>2026-05-02T07:18:42.927Z</time></trkpt><trkpt lat="46.141101" lon="13.5630677"><ele>490.0</ele><time>2026-05-02T07:18:44.936Z</time></trkpt><trkpt lat="46.1411079" lon="13.5629552"><ele>490.0</ele><time>2026-05-02T07:18:45.934Z</time></trkpt><trkpt lat="46.1411197" lon="13.5628373"><ele>490.0</ele><time>2026-05-02T07:18:46.923Z</time></trkpt><trkpt lat="46.1411241" lon="13.5627176"><ele>489.6</ele><time>2026-05-02T07:18:47.931Z</time></trkpt><trkpt lat="46.1411333" lon="13.5626052"><ele>489.2</ele><time>2026-05-02T07:18:48.93Z</time></trkpt><trkpt lat="46.1411469" lon="13.5624904"><ele>488.79999999999995</ele><time>2026-05-02T07:18:49.925Z</time></trkpt><trkpt lat="46.1411765" lon="13.5623722"><ele>488.4</ele><time>2026-05-02T07:18:50.933Z</time></trkpt><trkpt lat="46.1412576" lon="13.5621269"><ele>488.0</ele><time>2026-05-02T07:18:52.93Z</time></trkpt><trkpt lat="46.1413057" lon="13.5620072"><ele>485.16666666666663</ele><time>2026-05-02T07:18:53.926Z</time></trkpt><trkpt lat="46.1413365" lon="13.561888"><ele>482.3333333333333</ele><time>2026-05-02T07:18:54.93Z</time></trkpt><trkpt lat="46.1413789" lon="13.5617908"><ele>479.5</ele><time>2026-05-02T07:18:55.93Z</time></trkpt><trkpt lat="46.1414125" lon="13.5616945"><ele>476.66666666666663</ele><time>2026-05-02T07:18:56.926Z</time></trkpt><trkpt lat="46.1414433" lon="13.561608"><ele>473.8333333333333</ele><time>2026-05-02T07:18:57.927Z</time></trkpt><trkpt lat="46.1414556" lon="13.5614589"><ele>471.0</ele><time>2026-05-02T07:18:59.926Z</time></trkpt><trkpt lat="46.1413487" lon="13.5614555"><ele>471.0</ele><time>2026-05-02T07:19:01.924Z</time></trkpt><trkpt lat="46.1412585" lon="13.561508"><ele>471.0</ele><time>2026-05-02T07:19:02.922Z</time></trkpt><trkpt lat="46.1411618" lon="13.5615803"><ele>471.0</ele><time>2026-05-02T07:19:03.928Z</time></trkpt><trkpt lat="46.1410465" lon="13.5616378"><ele>471.0</ele><time>2026-05-02T07:19:04.928Z</time></trkpt><trkpt lat="46.140924" lon="13.5616994"><ele>471.0</ele><time>2026-05-02T07:19:05.935Z</time></trkpt><trkpt lat="46.1408041" lon="13.5617428"><ele>471.0</ele><time>2026-05-02T07:19:06.926Z</time></trkpt><trkpt lat="46.1407032" lon="13.5617838"><ele>471.0</ele><time>2026-05-02T07:19:07.928Z</time></trkpt><trkpt lat="46.1406145" lon="13.5618122"><ele>471.0</ele><time>2026-05-02T07:19:08.936Z</time></trkpt><trkpt lat="46.1405292" lon="13.5618278"><ele>471.0</ele><time>2026-05-02T07:19:09.933Z</time></trkpt><trkpt lat="46.1404502" lon="13.5618407"><ele>467.5</ele><time>2026-05-02T07:19:10.93Z</time></trkpt><trkpt lat="46.1403689" lon="13.5618924"><ele>464.0</ele><time>2026-05-02T07:19:11.922Z</time></trkpt><trkpt lat="46.1401818" lon="13.5619791"><ele>460.5</ele><time>2026-05-02T07:19:13.929Z</time></trkpt><trkpt lat="46.1400946" lon="13.562024"><ele>457.0</ele><time>2026-05-02T07:19:14.93Z</time></trkpt><trkpt lat="46.1400145" lon="13.5620508"><ele>459.8571428571429</ele><time>2026-05-02T07:19:15.922Z</time></trkpt><trkpt lat="46.1399412" lon="13.5620823"><ele>462.7142857142857</ele><time>2026-05-02T07:19:16.921Z</time></trkpt><trkpt lat="46.1398729" lon="13.5620978"><ele>465.57142857142856</ele><time>2026-05-02T07:19:17.934Z</time></trkpt><trkpt lat="46.1398099" lon="13.5621418"><ele>468.42857142857144</ele><time>2026-05-02T07:19:18.932Z</time></trkpt><trkpt lat="46.1397421" lon="13.562196"><ele>471.2857142857142</ele><time>2026-05-02T07:19:19.934Z</time></trkpt><trkpt lat="46.1396802" lon="13.5622526"><ele>474.1428571428571</ele><time>2026-05-02T07:19:20.927Z</time></trkpt><trkpt lat="46.1396173" lon="13.5623059"><ele>477.0</ele><time>2026-05-02T07:19:21.923Z</time></trkpt><trkpt lat="46.1395568" lon="13.562365"><ele>477.0</ele><time>2026-05-02T07:19:22.925Z</time></trkpt><trkpt lat="46.1394864" lon="13.5624444"><ele>477.00000000000006</ele><time>2026-05-02T07:19:23.93Z</time></trkpt><trkpt lat="46.139423" lon="13.5625214"><ele>477.00000000000006</ele><time>2026-05-02T07:19:24.93Z</time></trkpt><trkpt lat="46.1393433" lon="13.5626045"><ele>477.0</ele><time>2026-05-02T07:19:25.929Z</time></trkpt><trkpt lat="46.1392648" lon="13.5626806"><ele>477.0</ele><time>2026-05-02T07:19:26.926Z</time></trkpt><trkpt lat="46.1391917" lon="13.5627557"><ele>477.0</ele><time>2026-05-02T07:19:27.925Z</time></trkpt><trkpt lat="46.1391239" lon="13.562835"><ele>477.0</ele><time>2026-05-02T07:19:28.926Z</time></trkpt><trkpt lat="46.1390636" lon="13.5629116"><ele>477.0</ele><time>2026-05-02T07:19:29.931Z</time></trkpt><trkpt lat="46.1390026" lon="13.5630019"><ele>477.0</ele><time>2026-05-02T07:19:30.94Z</time></trkpt><trkpt lat="46.1389499" lon="13.5630914"><ele>477.0</ele><time>2026-05-02T07:19:31.935Z</time></trkpt><trkpt lat="46.1388996" lon="13.5631562"><ele>477.0</ele><time>2026-05-02T07:19:32.929Z</time></trkpt><trkpt lat="46.1387182" lon="13.563243"><ele>479.6</ele><time>2026-05-02T07:19:37.942Z</time></trkpt><trkpt lat="46.1386591" lon="13.5631094"><ele>482.20000000000005</ele><time>2026-05-02T07:19:39.929Z</time></trkpt><trkpt lat="46.1385958" lon="13.5630385"><ele>484.8</ele><time>2026-05-02T07:19:40.928Z</time></trkpt><trkpt lat="46.1385251" lon="13.5629473"><ele>487.4</ele><time>2026-05-02T07:19:41.929Z</time></trkpt><trkpt lat="46.1384504" lon="13.5628717"><ele>490.0</ele><time>2026-05-02T07:19:42.923Z</time></trkpt><trkpt lat="46.1383712" lon="13.5628079"><ele>490.0</ele><time>2026-05-02T07:19:43.931Z</time></trkpt><trkpt lat="46.1382797" lon="13.5627582"><ele>490.0</ele><time>2026-05-02T07:19:44.918Z</time></trkpt><trkpt lat="46.1381845" lon="13.5627221"><ele>490.0</ele><time>2026-05-02T07:19:45.933Z</time></trkpt><trkpt lat="46.1381081" lon="13.5627001"><ele>490.0</ele><time>2026-05-02T07:19:46.922Z</time></trkpt><trkpt lat="46.138044" lon="13.5626788"><ele>490.0</ele><time>2026-05-02T07:19:47.925Z</time></trkpt><trkpt lat="46.1379427" lon="13.5625943"><ele>499.2</ele><time>2026-05-02T07:19:49.931Z</time></trkpt><trkpt lat="46.1379058" lon="13.5625008"><ele>508.4</ele><time>2026-05-02T07:19:50.938Z</time></trkpt><trkpt lat="46.1378896" lon="13.5624003"><ele>517.6</ele><time>2026-05-02T07:19:51.926Z</time></trkpt><trkpt lat="46.1378728" lon="13.5622949"><ele>526.8</ele><time>2026-05-02T07:19:52.92Z</time></trkpt><trkpt lat="46.1378761" lon="13.5621508"><ele>536.0</ele><time>2026-05-02T07:19:53.926Z</time></trkpt><trkpt lat="46.1378914" lon="13.5618168"><ele>536.6666666666666</ele><time>2026-05-02T07:19:55.936Z</time></trkpt><trkpt lat="46.1379117" lon="13.5616742"><ele>537.3333333333333</ele><time>2026-05-02T07:19:56.931Z</time></trkpt><trkpt lat="46.1379235" lon="13.5615425"><ele>538.0</ele><time>2026-05-02T07:19:57.934Z</time></trkpt><trkpt lat="46.1379319" lon="13.5614426"><ele>538.6666666666666</ele><time>2026-05-02T07:19:58.93Z</time></trkpt><trkpt lat="46.1379224" lon="13.5613415"><ele>539.3333333333334</ele><time>2026-05-02T07:19:59.928Z</time></trkpt><trkpt lat="46.1378954" lon="13.5612317"><ele>540.0</ele><time>2026-05-02T07:20:00.928Z</time></trkpt><trkpt lat="46.1378686" lon="13.5611304"><ele>540.3333333333334</ele><time>2026-05-02T07:20:01.933Z</time></trkpt><trkpt lat="46.1378332" lon="13.5610232"><ele>540.6666666666666</ele><time>2026-05-02T07:20:02.929Z</time></trkpt><trkpt lat="46.1378087" lon="13.5609213"><ele>541.0</ele><time>2026-05-02T07:20:03.925Z</time></trkpt><trkpt lat="46.1377748" lon="13.5608071"><ele>541.3333333333333</ele><time>2026-05-02T07:20:04.931Z</time></trkpt><trkpt lat="46.1377486" lon="13.5606888"><ele>541.6666666666666</ele><time>2026-05-02T07:20:05.933Z</time></trkpt><trkpt lat="46.1377522" lon="13.5605766"><ele>542.0</ele><time>2026-05-02T07:20:06.934Z</time></trkpt><trkpt lat="46.1377657" lon="13.5604677"><ele>542.0</ele><time>2026-05-02T07:20:07.927Z</time></trkpt><trkpt lat="46.1377964" lon="13.5603666"><ele>542.0</ele><time>2026-05-02T07:20:08.925Z</time></trkpt><trkpt lat="46.1378656" lon="13.5602901"><ele>542.0</ele><time>2026-05-02T07:20:09.929Z</time></trkpt><trkpt lat="46.137913" lon="13.5602102"><ele>542.0</ele><time>2026-05-02T07:20:10.935Z</time></trkpt><trkpt lat="46.1379453" lon="13.5601291"><ele>542.0</ele><time>2026-05-02T07:20:11.922Z</time></trkpt><trkpt lat="46.1379886" lon="13.5600459"><ele>542.0</ele><time>2026-05-02T07:20:12.928Z</time></trkpt><trkpt lat="46.1380056" lon="13.559956"><ele>542.0</ele><time>2026-05-02T07:20:13.926Z</time></trkpt><trkpt lat="46.1380262" lon="13.559801"><ele>536.0</ele><time>2026-05-02T07:20:15.939Z</time></trkpt><trkpt lat="46.1379527" lon="13.5594701"><ele>530.0</ele><time>2026-05-02T07:20:19.927Z</time></trkpt><trkpt lat="46.1378756" lon="13.5593183"><ele>524.0</ele><time>2026-05-02T07:20:21.925Z</time></trkpt><trkpt lat="46.1378181" lon="13.5592501"><ele>518.0</ele><time>2026-05-02T07:20:22.934Z</time></trkpt><trkpt lat="46.1377459" lon="13.5591878"><ele>518.0</ele><time>2026-05-02T07:20:23.934Z</time></trkpt><trkpt lat="46.1376733" lon="13.5591291"><ele>518.0</ele><time>2026-05-02T07:20:24.928Z</time></trkpt><trkpt lat="46.1376138" lon="13.5590629"><ele>518.0</ele><time>2026-05-02T07:20:25.924Z</time></trkpt><trkpt lat="46.1375401" lon="13.5590324"><ele>518.0</ele><time>2026-05-02T07:20:26.936Z</time></trkpt><trkpt lat="46.1374635" lon="13.5590237"><ele>518.0</ele><time>2026-05-02T07:20:27.922Z</time></trkpt><trkpt lat="46.1373835" lon="13.5590207"><ele>518.0</ele><time>2026-05-02T07:20:28.926Z</time></trkpt><trkpt lat="46.1373028" lon="13.558997"><ele>525.0</ele><time>2026-05-02T07:20:29.931Z</time></trkpt><trkpt lat="46.1372413" lon="13.5589592"><ele>532.0</ele><time>2026-05-02T07:20:30.93Z</time></trkpt><trkpt lat="46.1371413" lon="13.5588676"><ele>539.0</ele><time>2026-05-02T07:20:32.938Z</time></trkpt><trkpt lat="46.1370909" lon="13.5587329"><ele>546.0</ele><time>2026-05-02T07:20:34.931Z</time></trkpt><trkpt lat="46.1370508" lon="13.5585779"><ele>553.0</ele><time>2026-05-02T07:20:36.941Z</time></trkpt><trkpt lat="46.1370183" lon="13.558285"><ele>553.0</ele><time>2026-05-02T07:20:40.934Z</time></trkpt><trkpt lat="46.1370087" lon="13.5581246"><ele>553.0</ele><time>2026-05-02T07:20:42.927Z</time></trkpt><trkpt lat="46.136971" lon="13.5579703"><ele>553.0</ele><time>2026-05-02T07:20:44.922Z</time></trkpt><trkpt lat="46.136955" lon="13.5578425"><ele>553.0</ele><time>2026-05-02T07:20:46.929Z</time></trkpt><trkpt lat="46.1369623" lon="13.55772"><ele>553.0</ele><time>2026-05-02T07:20:48.936Z</time></trkpt><trkpt lat="46.13698" lon="13.5575989"><ele>552.4</ele><time>2026-05-02T07:20:50.928Z</time></trkpt><trkpt lat="46.1369855" lon="13.557505"><ele>551.8</ele><time>2026-05-02T07:20:56.928Z</time></trkpt><trkpt lat="46.1369907" lon="13.5573265"><ele>551.2</ele><time>2026-05-02T07:20:58.925Z</time></trkpt><trkpt lat="46.136971" lon="13.5571067"><ele>550.6</ele><time>2026-05-02T07:21:00.926Z</time></trkpt><trkpt lat="46.1369684" lon="13.5569819"><ele>550.0</ele><time>2026-05-02T07:21:01.922Z</time></trkpt><trkpt lat="46.1369715" lon="13.5568543"><ele>547.1666666666667</ele><time>2026-05-02T07:21:02.923Z</time></trkpt><trkpt lat="46.1369721" lon="13.5567269"><ele>544.3333333333334</ele><time>2026-05-02T07:21:03.926Z</time></trkpt><trkpt lat="46.136967" lon="13.5565998"><ele>541.5</ele><time>2026-05-02T07:21:04.931Z</time></trkpt><trkpt lat="46.1369732" lon="13.5564616"><ele>538.6666666666666</ele><time>2026-05-02T07:21:05.938Z</time></trkpt><trkpt lat="46.136951" lon="13.5563461"><ele>535.8333333333333</ele><time>2026-05-02T07:21:06.924Z</time></trkpt><trkpt lat="46.1369332" lon="13.556255"><ele>533.0</ele><time>2026-05-02T07:21:07.923Z</time></trkpt><trkpt lat="46.1368663" lon="13.5560991"><ele>531.0</ele><time>2026-05-02T07:21:09.929Z</time></trkpt><trkpt lat="46.136799" lon="13.5560426"><ele>529.0</ele><time>2026-05-02T07:21:10.928Z</time></trkpt><trkpt lat="46.1367391" lon="13.5559997"><ele>527.0</ele><time>2026-05-02T07:21:11.931Z</time></trkpt><trkpt lat="46.1366285" lon="13.5560044"><ele>525.0</ele><time>2026-05-02T07:21:13.934Z</time></trkpt><trkpt lat="46.1365617" lon="13.5560453"><ele>523.0</ele><time>2026-05-02T07:21:14.937Z</time></trkpt><trkpt lat="46.136484" lon="13.5561076"><ele>521.0</ele><time>2026-05-02T07:21:15.927Z</time></trkpt><trkpt lat="46.136413" lon="13.5561896"><ele>524.0</ele><time>2026-05-02T07:21:16.928Z</time></trkpt><trkpt lat="46.1363397" lon="13.5562861"><ele>527.0</ele><time>2026-05-02T07:21:17.922Z</time></trkpt><trkpt lat="46.1362676" lon="13.5563726"><ele>530.0</ele><time>2026-05-02T07:21:18.932Z</time></trkpt><trkpt lat="46.1361995" lon="13.5564304"><ele>533.0</ele><time>2026-05-02T07:21:19.927Z</time></trkpt><trkpt lat="46.1361342" lon="13.5564649"><ele>536.0</ele><time>2026-05-02T07:21:20.927Z</time></trkpt><trkpt lat="46.135959" lon="13.5564943"><ele>536.0</ele><time>2026-05-02T07:21:22.925Z</time></trkpt><trkpt lat="46.1358723" lon="13.5564925"><ele>536.0</ele><time>2026-05-02T07:21:23.933Z</time></trkpt><trkpt lat="46.1357739" lon="13.5564982"><ele>536.0</ele><time>2026-05-02T07:21:24.923Z</time></trkpt><trkpt lat="46.1356754" lon="13.556489"><ele>536.0</ele><time>2026-05-02T07:21:25.924Z</time></trkpt><trkpt lat="46.1355904" lon="13.5564801"><ele>536.0</ele><time>2026-05-02T07:21:26.924Z</time></trkpt><trkpt lat="46.1355146" lon="13.5564598"><ele>536.0</ele><time>2026-05-02T07:21:27.927Z</time></trkpt><trkpt lat="46.1354384" lon="13.5564263"><ele>535.0</ele><time>2026-05-02T07:21:28.927Z</time></trkpt><trkpt lat="46.1353704" lon="13.5563842"><ele>534.0</ele><time>2026-05-02T07:21:29.929Z</time></trkpt><trkpt lat="46.1352917" lon="13.5563409"><ele>533.0</ele><time>2026-05-02T07:21:30.929Z</time></trkpt><trkpt lat="46.1352253" lon="13.5562883"><ele>532.0</ele><time>2026-05-02T07:21:31.923Z</time></trkpt><trkpt lat="46.1351658" lon="13.5562252"><ele>531.0</ele><time>2026-05-02T07:21:32.932Z</time></trkpt><trkpt lat="46.1351063" lon="13.5561461"><ele>530.0</ele><time>2026-05-02T07:21:33.931Z</time></trkpt><trkpt lat="46.1350334" lon="13.5560762"><ele>530.0</ele><time>2026-05-02T07:21:35.929Z</time></trkpt><trkpt lat="46.134979" lon="13.5561673"><ele>530.0</ele><time>2026-05-02T07:21:38.928Z</time></trkpt><trkpt lat="46.1349487" lon="13.5562692"><ele>530.0</ele><time>2026-05-02T07:21:39.928Z</time></trkpt><trkpt lat="46.1349181" lon="13.5563817"><ele>530.0</ele><time>2026-05-02T07:21:40.929Z</time></trkpt><trkpt lat="46.1348929" lon="13.5565007"><ele>530.0</ele><time>2026-05-02T07:21:41.924Z</time></trkpt><trkpt lat="46.1348505" lon="13.5567752"><ele>530.5</ele><time>2026-05-02T07:21:43.932Z</time></trkpt><trkpt lat="46.1348388" lon="13.5569183"><ele>531.0</ele><time>2026-05-02T07:21:44.931Z</time></trkpt><trkpt lat="46.1348449" lon="13.55705"><ele>531.5</ele><time>2026-05-02T07:21:45.924Z</time></trkpt><trkpt lat="46.134863" lon="13.5571723"><ele>532.0</ele><time>2026-05-02T07:21:46.928Z</time></trkpt><trkpt lat="46.134883" lon="13.5572821"><ele>532.5</ele><time>2026-05-02T07:21:47.933Z</time></trkpt><trkpt lat="46.1348998" lon="13.5573938"><ele>533.0</ele><time>2026-05-02T07:21:48.926Z</time></trkpt><trkpt lat="46.1349135" lon="13.5575185"><ele>533.0</ele><time>2026-05-02T07:21:49.925Z</time></trkpt><trkpt lat="46.13492" lon="13.557631"><ele>533.0</ele><time>2026-05-02T07:21:50.938Z</time></trkpt><trkpt lat="46.1349266" lon="13.5577533"><ele>533.0</ele><time>2026-05-02T07:21:51.93Z</time></trkpt><trkpt lat="46.1349278" lon="13.557877"><ele>533.0</ele><time>2026-05-02T07:21:52.932Z</time></trkpt><trkpt lat="46.1349285" lon="13.5579904"><ele>533.0</ele><time>2026-05-02T07:21:53.923Z</time></trkpt><trkpt lat="46.1349239" lon="13.5581053"><ele>533.0</ele><time>2026-05-02T07:21:54.928Z</time></trkpt><trkpt lat="46.1349095" lon="13.5582282"><ele>529.5</ele><time>2026-05-02T07:21:55.935Z</time></trkpt><trkpt lat="46.1348843" lon="13.5583509"><ele>526.0</ele><time>2026-05-02T07:21:56.928Z</time></trkpt><trkpt lat="46.1348629" lon="13.5584695"><ele>522.5</ele><time>2026-05-02T07:21:57.925Z</time></trkpt><trkpt lat="46.1348396" lon="13.558588"><ele>519.0</ele><time>2026-05-02T07:21:58.93Z</time></trkpt><trkpt lat="46.1347991" lon="13.5587006"><ele>515.5</ele><time>2026-05-02T07:21:59.928Z</time></trkpt><trkpt lat="46.1347482" lon="13.558812"><ele>512.0</ele><time>2026-05-02T07:22:00.925Z</time></trkpt><trkpt lat="46.1346907" lon="13.5589254"><ele>512.0</ele><time>2026-05-02T07:22:01.924Z</time></trkpt><trkpt lat="46.1346299" lon="13.5590306"><ele>512.0</ele><time>2026-05-02T07:22:02.941Z</time></trkpt><trkpt lat="46.1345336" lon="13.5592046"><ele>512.0</ele><time>2026-05-02T07:22:04.925Z</time></trkpt><trkpt lat="46.1345059" lon="13.5593916"><ele>512.0</ele><time>2026-05-02T07:22:06.928Z</time></trkpt><trkpt lat="46.134528" lon="13.5595811"><ele>511.49999999999994</ele><time>2026-05-02T07:22:08.935Z</time></trkpt><trkpt lat="46.1345457" lon="13.5596866"><ele>511.0</ele><time>2026-05-02T07:22:09.92Z</time></trkpt><trkpt lat="46.134576" lon="13.559796"><ele>510.5</ele><time>2026-05-02T07:22:10.925Z</time></trkpt><trkpt lat="46.1346344" lon="13.5598898"><ele>510.0</ele><time>2026-05-02T07:22:11.93Z</time></trkpt><trkpt lat="46.1347091" lon="13.5599881"><ele>509.49999999999994</ele><time>2026-05-02T07:22:12.941Z</time></trkpt><trkpt lat="46.1347931" lon="13.5600714"><ele>509.0</ele><time>2026-05-02T07:22:13.924Z</time></trkpt><trkpt lat="46.1348737" lon="13.5601519"><ele>512.1666666666666</ele><time>2026-05-02T07:22:14.931Z</time></trkpt><trkpt lat="46.1349528" lon="13.5602276"><ele>515.3333333333333</ele><time>2026-05-02T07:22:15.924Z</time></trkpt><trkpt lat="46.1350197" lon="13.5602872"><ele>518.5</ele><time>2026-05-02T07:22:16.921Z</time></trkpt><trkpt lat="46.1350787" lon="13.5603379"><ele>521.6666666666666</ele><time>2026-05-02T07:22:17.925Z</time></trkpt><trkpt lat="46.1351516" lon="13.5603762"><ele>524.8333333333334</ele><time>2026-05-02T07:22:18.934Z</time></trkpt><trkpt lat="46.1352397" lon="13.5604317"><ele>528.0</ele><time>2026-05-02T07:22:19.922Z</time></trkpt><trkpt lat="46.135341" lon="13.5605048"><ele>528.0</ele><time>2026-05-02T07:22:20.927Z</time></trkpt><trkpt lat="46.1354369" lon="13.5605775"><ele>528.0</ele><time>2026-05-02T07:22:21.929Z</time></trkpt><trkpt lat="46.1355403" lon="13.56063"><ele>528.0</ele><time>2026-05-02T07:22:22.926Z</time></trkpt><trkpt lat="46.1356338" lon="13.5606967"><ele>528.0</ele><time>2026-05-02T07:22:23.923Z</time></trkpt><trkpt lat="46.13581" lon="13.5607585"><ele>531.8</ele><time>2026-05-02T07:22:25.932Z</time></trkpt><trkpt lat="46.1358983" lon="13.5607832"><ele>535.5999999999999</ele><time>2026-05-02T07:22:26.926Z</time></trkpt><trkpt lat="46.1359991" lon="13.5607949"><ele>539.4000000000001</ele><time>2026-05-02T07:22:27.928Z</time></trkpt><trkpt lat="46.1360985" lon="13.5607934"><ele>543.2</ele><time>2026-05-02T07:22:28.934Z</time></trkpt><trkpt lat="46.1361873" lon="13.5608075"><ele>547.0</ele><time>2026-05-02T07:22:29.926Z</time></trkpt><trkpt lat="46.1362681" lon="13.5608295"><ele>547.0</ele><time>2026-05-02T07:22:30.922Z</time></trkpt><trkpt lat="46.1363406" lon="13.560897"><ele>547.0</ele><time>2026-05-02T07:22:31.927Z</time></trkpt><trkpt lat="46.1364168" lon="13.5609831"><ele>547.0</ele><time>2026-05-02T07:22:32.926Z</time></trkpt><trkpt lat="46.1364926" lon="13.5610876"><ele>547.0</ele><time>2026-05-02T07:22:33.931Z</time></trkpt><trkpt lat="46.1365607" lon="13.5612021"><ele>547.0</ele><time>2026-05-02T07:22:34.927Z</time></trkpt><trkpt lat="46.1366315" lon="13.5613235"><ele>546.5</ele><time>2026-05-02T07:22:35.92Z</time></trkpt><trkpt lat="46.1367164" lon="13.5614436"><ele>546.0</ele><time>2026-05-02T07:22:36.929Z</time></trkpt><trkpt lat="46.1368109" lon="13.5615491"><ele>545.5</ele><time>2026-05-02T07:22:37.926Z</time></trkpt><trkpt lat="46.1368954" lon="13.5616582"><ele>545.0</ele><time>2026-05-02T07:22:38.925Z</time></trkpt><trkpt lat="46.1369678" lon="13.5617656"><ele>545.0</ele><time>2026-05-02T07:22:39.928Z</time></trkpt><trkpt lat="46.1370373" lon="13.5618748"><ele>545.0</ele><time>2026-05-02T07:22:40.924Z</time></trkpt><trkpt lat="46.1371034" lon="13.5619657"><ele>545.0</ele><time>2026-05-02T07:22:41.924Z</time></trkpt><trkpt lat="46.1371655" lon="13.5620759"><ele>545.0</ele><time>2026-05-02T07:22:42.939Z</time></trkpt><trkpt lat="46.1372118" lon="13.5622007"><ele>545.0</ele><time>2026-05-02T07:22:43.925Z</time></trkpt><trkpt lat="46.1372495" lon="13.5623443"><ele>542.4</ele><time>2026-05-02T07:22:44.927Z</time></trkpt><trkpt lat="46.1372798" lon="13.5625924"><ele>539.8</ele><time>2026-05-02T07:22:46.928Z</time></trkpt><trkpt lat="46.1372637" lon="13.562703"><ele>537.2</ele><time>2026-05-02T07:22:47.927Z</time></trkpt><trkpt lat="46.1372375" lon="13.5628156"><ele>534.6</ele><time>2026-05-02T07:22:48.923Z</time></trkpt><trkpt lat="46.1372141" lon="13.5629074"><ele>532.0</ele><time>2026-05-02T07:22:49.935Z</time></trkpt><trkpt lat="46.137204" lon="13.5630019"><ele>531.3333333333334</ele><time>2026-05-02T07:22:50.925Z</time></trkpt><trkpt lat="46.1372027" lon="13.5631004"><ele>530.6666666666667</ele><time>2026-05-02T07:22:51.919Z</time></trkpt><trkpt lat="46.1372309" lon="13.5632039"><ele>530.0</ele><time>2026-05-02T07:22:52.924Z</time></trkpt><trkpt lat="46.1372653" lon="13.5633176"><ele>529.3333333333334</ele><time>2026-05-02T07:22:53.926Z</time></trkpt><trkpt lat="46.1373178" lon="13.5634291"><ele>528.6666666666666</ele><time>2026-05-02T07:22:54.928Z</time></trkpt><trkpt lat="46.1373859" lon="13.5635212"><ele>528.0</ele><time>2026-05-02T07:22:55.931Z</time></trkpt><trkpt lat="46.1374797" lon="13.5636064"><ele>531.0</ele><time>2026-05-02T07:22:56.93Z</time></trkpt><trkpt lat="46.1375769" lon="13.5636875"><ele>534.0</ele><time>2026-05-02T07:22:57.924Z</time></trkpt><trkpt lat="46.1376741" lon="13.5637474"><ele>537.0</ele><time>2026-05-02T07:22:58.932Z</time></trkpt><trkpt lat="46.1377797" lon="13.5638138"><ele>540.0</ele><time>2026-05-02T07:22:59.922Z</time></trkpt><trkpt lat="46.1378829" lon="13.5638839"><ele>543.0</ele><time>2026-05-02T07:23:00.922Z</time></trkpt><trkpt lat="46.137982" lon="13.5639498"><ele>544.4</ele><time>2026-05-02T07:23:01.922Z</time></trkpt><trkpt lat="46.138072" lon="13.5639831"><ele>545.8</ele><time>2026-05-02T07:23:02.926Z</time></trkpt><trkpt lat="46.1381657" lon="13.5639981"><ele>547.2</ele><time>2026-05-02T07:23:03.925Z</time></trkpt><trkpt lat="46.1382486" lon="13.5640136"><ele>548.6</ele><time>2026-05-02T07:23:04.936Z</time></trkpt><trkpt lat="46.1383174" lon="13.564049"><ele>550.0</ele><time>2026-05-02T07:23:05.926Z</time></trkpt><trkpt lat="46.1384851" lon="13.5641743"><ele>550.6666666666667</ele><time>2026-05-02T07:23:08.925Z</time></trkpt><trkpt lat="46.1385577" lon="13.5642294"><ele>551.3333333333334</ele><time>2026-05-02T07:23:09.931Z</time></trkpt><trkpt lat="46.1386413" lon="13.5642812"><ele>552.0</ele><time>2026-05-02T07:23:10.933Z</time></trkpt><trkpt lat="46.1387137" lon="13.5643219"><ele>552.6666666666666</ele><time>2026-05-02T07:23:11.924Z</time></trkpt><trkpt lat="46.1388266" lon="13.5642838"><ele>553.3333333333333</ele><time>2026-05-02T07:23:13.932Z</time></trkpt><trkpt lat="46.138904" lon="13.5642884"><ele>554.0</ele><time>2026-05-02T07:23:15.935Z</time></trkpt><trkpt lat="46.1390305" lon="13.5642779"><ele>550.8</ele><time>2026-05-02T07:23:17.927Z</time></trkpt><trkpt lat="46.1391177" lon="13.5642777"><ele>547.5999999999999</ele><time>2026-05-02T07:23:18.922Z</time></trkpt><trkpt lat="46.1392006" lon="13.5642893"><ele>544.4</ele><time>2026-05-02T07:23:19.925Z</time></trkpt><trkpt lat="46.1392813" lon="13.5642898"><ele>541.1999999999999</ele><time>2026-05-02T07:23:20.923Z</time></trkpt><trkpt lat="46.1393539" lon="13.564281"><ele>538.0</ele><time>2026-05-02T07:23:21.93Z</time></trkpt><trkpt lat="46.1394805" lon="13.5642541"><ele>538.0</ele><time>2026-05-02T07:23:23.923Z</time></trkpt><trkpt lat="46.139543" lon="13.5641814"><ele>538.0</ele><time>2026-05-02T07:23:24.927Z</time></trkpt><trkpt lat="46.1396094" lon="13.5641263"><ele>538.0</ele><time>2026-05-02T07:23:25.924Z</time></trkpt><trkpt lat="46.1396694" lon="13.5640909"><ele>538.0</ele><time>2026-05-02T07:23:26.92Z</time></trkpt><trkpt lat="46.1398578" lon="13.5641432"><ele>538.0</ele><time>2026-05-02T07:23:30.927Z</time></trkpt><trkpt lat="46.1399137" lon="13.564216"><ele>536.8333333333334</ele><time>2026-05-02T07:23:31.927Z</time></trkpt><trkpt lat="46.1399643" lon="13.5642934"><ele>535.6666666666667</ele><time>2026-05-02T07:23:32.926Z</time></trkpt><trkpt lat="46.140019" lon="13.5644151"><ele>534.5</ele><time>2026-05-02T07:23:33.93Z</time></trkpt><trkpt lat="46.1400743" lon="13.5644997"><ele>533.3333333333334</ele><time>2026-05-02T07:23:34.934Z</time></trkpt><trkpt lat="46.1401431" lon="13.5645851"><ele>532.1666666666666</ele><time>2026-05-02T07:23:35.925Z</time></trkpt><trkpt lat="46.1402103" lon="13.5646562"><ele>531.0</ele><time>2026-05-02T07:23:36.928Z</time></trkpt><trkpt lat="46.1402764" lon="13.564724"><ele>536.3333333333334</ele><time>2026-05-02T07:23:37.932Z</time></trkpt><trkpt lat="46.1403575" lon="13.5647868"><ele>541.6666666666666</ele><time>2026-05-02T07:23:38.935Z</time></trkpt><trkpt lat="46.1404279" lon="13.5648742"><ele>547.0</ele><time>2026-05-02T07:23:39.924Z</time></trkpt><trkpt lat="46.140484" lon="13.5649643"><ele>552.3333333333333</ele><time>2026-05-02T07:23:40.94Z</time></trkpt><trkpt lat="46.1405564" lon="13.5650507"><ele>557.6666666666666</ele><time>2026-05-02T07:23:41.925Z</time></trkpt><trkpt lat="46.1406165" lon="13.5651253"><ele>563.0</ele><time>2026-05-02T07:23:42.918Z</time></trkpt><trkpt lat="46.1406688" lon="13.5651864"><ele>560.4</ele><time>2026-05-02T07:23:43.922Z</time></trkpt><trkpt lat="46.1407181" lon="13.5652572"><ele>557.8</ele><time>2026-05-02T07:23:44.932Z</time></trkpt><trkpt lat="46.1407795" lon="13.565351"><ele>555.2</ele><time>2026-05-02T07:23:45.92Z</time></trkpt><trkpt lat="46.140835" lon="13.5654342"><ele>552.6</ele><time>2026-05-02T07:23:46.93Z</time></trkpt><trkpt lat="46.1408934" lon="13.5655187"><ele>550.0</ele><time>2026-05-02T07:23:47.938Z</time></trkpt><trkpt lat="46.1409992" lon="13.5656705"><ele>550.0</ele><time>2026-05-02T07:23:49.926Z</time></trkpt><trkpt lat="46.1410662" lon="13.565726"><ele>550.0</ele><time>2026-05-02T07:23:50.935Z</time></trkpt><trkpt lat="46.1411322" lon="13.5657648"><ele>550.0</ele><time>2026-05-02T07:23:51.931Z</time></trkpt><trkpt lat="46.1411942" lon="13.5658139"><ele>550.0</ele><time>2026-05-02T07:23:52.922Z</time></trkpt><trkpt lat="46.1412442" lon="13.5658723"><ele>550.0</ele><time>2026-05-02T07:23:53.926Z</time></trkpt><trkpt lat="46.1413165" lon="13.5659919"><ele>550.0</ele><time>2026-05-02T07:23:55.926Z</time></trkpt><trkpt lat="46.1413083" lon="13.5661272"><ele>552.3333333333334</ele><time>2026-05-02T07:23:56.924Z</time></trkpt><trkpt lat="46.1412945" lon="13.56626"><ele>554.6666666666667</ele><time>2026-05-02T07:23:57.928Z</time></trkpt><trkpt lat="46.1412793" lon="13.5663707"><ele>557.0</ele><time>2026-05-02T07:23:58.925Z</time></trkpt><trkpt lat="46.1412991" lon="13.5664999"><ele>559.3333333333334</ele><time>2026-05-02T07:23:59.923Z</time></trkpt><trkpt lat="46.1412829" lon="13.5665992"><ele>561.6666666666666</ele><time>2026-05-02T07:24:00.932Z</time></trkpt><trkpt lat="46.1412685" lon="13.566699"><ele>564.0</ele><time>2026-05-02T07:24:01.923Z</time></trkpt><trkpt lat="46.1412492" lon="13.5668046"><ele>564.0</ele><time>2026-05-02T07:24:02.927Z</time></trkpt><trkpt lat="46.1412321" lon="13.5669059"><ele>564.0</ele><time>2026-05-02T07:24:03.921Z</time></trkpt><trkpt lat="46.1412193" lon="13.5670166"><ele>564.0</ele><time>2026-05-02T07:24:04.925Z</time></trkpt><trkpt lat="46.1412156" lon="13.5671261"><ele>564.0</ele><time>2026-05-02T07:24:05.927Z</time></trkpt><trkpt lat="46.1412158" lon="13.567234"><ele>564.0</ele><time>2026-05-02T07:24:06.937Z</time></trkpt><trkpt lat="46.1412185" lon="13.5673467"><ele>564.0</ele><time>2026-05-02T07:24:07.923Z</time></trkpt><trkpt lat="46.1412232" lon="13.5674731"><ele>565.0</ele><time>2026-05-02T07:24:08.931Z</time></trkpt><trkpt lat="46.141252" lon="13.5677351"><ele>566.0</ele><time>2026-05-02T07:24:10.934Z</time></trkpt><trkpt lat="46.1412633" lon="13.5678718"><ele>567.0</ele><time>2026-05-02T07:24:11.92Z</time></trkpt><trkpt lat="46.1412986" lon="13.5680206"><ele>568.0</ele><time>2026-05-02T07:24:12.922Z</time></trkpt><trkpt lat="46.1413027" lon="13.568194"><ele>568.8</ele><time>2026-05-02T07:24:13.931Z</time></trkpt><trkpt lat="46.1412946" lon="13.568348"><ele>569.5999999999999</ele><time>2026-05-02T07:24:14.928Z</time></trkpt><trkpt lat="46.1412851" lon="13.5684888"><ele>570.4000000000001</ele><time>2026-05-02T07:24:15.925Z</time></trkpt><trkpt lat="46.1412837" lon="13.5686311"><ele>571.2</ele><time>2026-05-02T07:24:16.937Z</time></trkpt><trkpt lat="46.14128" lon="13.5687757"><ele>572.0</ele><time>2026-05-02T07:24:17.93Z</time></trkpt><trkpt lat="46.1412948" lon="13.5689269"><ele>572.6</ele><time>2026-05-02T07:24:18.93Z</time></trkpt><trkpt lat="46.1413059" lon="13.5690862"><ele>573.2</ele><time>2026-05-02T07:24:19.926Z</time></trkpt><trkpt lat="46.1413139" lon="13.5692391"><ele>573.8</ele><time>2026-05-02T07:24:20.938Z</time></trkpt><trkpt lat="46.1413192" lon="13.5693866"><ele>574.4</ele><time>2026-05-02T07:24:21.93Z</time></trkpt><trkpt lat="46.1413234" lon="13.5695263"><ele>575.0</ele><time>2026-05-02T07:24:22.927Z</time></trkpt><trkpt lat="46.1413158" lon="13.569653"><ele>575.0</ele><time>2026-05-02T07:24:23.929Z</time></trkpt><trkpt lat="46.1413096" lon="13.5697695"><ele>575.0</ele><time>2026-05-02T07:24:24.93Z</time></trkpt><trkpt lat="46.1413006" lon="13.569872"><ele>575.0</ele><time>2026-05-02T07:24:25.926Z</time></trkpt><trkpt lat="46.1413092" lon="13.5699712"><ele>575.0</ele><time>2026-05-02T07:24:26.932Z</time></trkpt><trkpt lat="46.1413227" lon="13.5700655"><ele>575.0</ele><time>2026-05-02T07:24:27.929Z</time></trkpt><trkpt lat="46.1413256" lon="13.5701584"><ele>575.0</ele><time>2026-05-02T07:24:28.934Z</time></trkpt><trkpt lat="46.1413823" lon="13.5703114"><ele>570.0</ele><time>2026-05-02T07:24:30.925Z</time></trkpt><trkpt lat="46.1415704" lon="13.5704628"><ele>565.0</ele><time>2026-05-02T07:24:34.929Z</time></trkpt><trkpt lat="46.1416904" lon="13.5704714"><ele>560.0</ele><time>2026-05-02T07:24:36.934Z</time></trkpt><trkpt lat="46.1417712" lon="13.5704819"><ele>555.0</ele><time>2026-05-02T07:24:37.929Z</time></trkpt><trkpt lat="46.1418586" lon="13.5705096"><ele>555.0</ele><time>2026-05-02T07:24:38.925Z</time></trkpt><trkpt lat="46.141971" lon="13.5705489"><ele>555.0</ele><time>2026-05-02T07:24:39.93Z</time></trkpt><trkpt lat="46.1420821" lon="13.570555"><ele>555.0</ele><time>2026-05-02T07:24:40.928Z</time></trkpt><trkpt lat="46.1421939" lon="13.570581"><ele>555.0</ele><time>2026-05-02T07:24:41.923Z</time></trkpt><trkpt lat="46.1422845" lon="13.5706119"><ele>555.0</ele><time>2026-05-02T07:24:42.924Z</time></trkpt><trkpt lat="46.1423704" lon="13.5706384"><ele>551.4285714285714</ele><time>2026-05-02T07:24:43.921Z</time></trkpt><trkpt lat="46.1424511" lon="13.5706394"><ele>547.8571428571429</ele><time>2026-05-02T07:24:44.928Z</time></trkpt><trkpt lat="46.1425131" lon="13.5706223"><ele>544.2857142857142</ele><time>2026-05-02T07:24:45.927Z</time></trkpt><trkpt lat="46.142576" lon="13.5706062"><ele>540.7142857142858</ele><time>2026-05-02T07:24:46.934Z</time></trkpt><trkpt lat="46.1426697" lon="13.5705842"><ele>537.1428571428571</ele><time>2026-05-02T07:24:48.925Z</time></trkpt><trkpt lat="46.1427311" lon="13.5706351"><ele>533.5714285714286</ele><time>2026-05-02T07:24:50.932Z</time></trkpt><trkpt lat="46.1427749" lon="13.57072"><ele>530.0</ele><time>2026-05-02T07:24:52.927Z</time></trkpt><trkpt lat="46.1426781" lon="13.5709664"><ele>530.0</ele><time>2026-05-02T07:24:55.928Z</time></trkpt><trkpt lat="46.1425775" lon="13.5711321"><ele>530.0</ele><time>2026-05-02T07:24:57.923Z</time></trkpt><trkpt lat="46.1425352" lon="13.5712127"><ele>530.0</ele><time>2026-05-02T07:24:58.926Z</time></trkpt><trkpt lat="46.1425303" lon="13.5713597"><ele>530.0</ele><time>2026-05-02T07:25:00.929Z</time></trkpt><trkpt lat="46.1425937" lon="13.5714426"><ele>530.0</ele><time>2026-05-02T07:25:02.928Z</time></trkpt><trkpt lat="46.1426597" lon="13.5714814"><ele>531.8333333333333</ele><time>2026-05-02T07:25:04.923Z</time></trkpt><trkpt lat="46.1427345" lon="13.5714814"><ele>533.6666666666666</ele><time>2026-05-02T07:25:06.927Z</time></trkpt><trkpt lat="46.1428181" lon="13.5714448"><ele>535.5</ele><time>2026-05-02T07:25:08.928Z</time></trkpt><trkpt lat="46.1428923" lon="13.5714358"><ele>537.3333333333334</ele><time>2026-05-02T07:25:10.929Z</time></trkpt><trkpt lat="46.1429637" lon="13.5714222"><ele>539.1666666666667</ele><time>2026-05-02T07:25:12.926Z</time></trkpt><trkpt lat="46.1430413" lon="13.5713998"><ele>541.0</ele><time>2026-05-02T07:25:14.924Z</time></trkpt><trkpt lat="46.1431977" lon="13.5714786"><ele>538.6666666666667</ele><time>2026-05-02T07:25:18.923Z</time></trkpt><trkpt lat="46.1432672" lon="13.5715181"><ele>536.3333333333334</ele><time>2026-05-02T07:25:20.925Z</time></trkpt><trkpt lat="46.1433462" lon="13.5715195"><ele>534.0</ele><time>2026-05-02T07:25:22.926Z</time></trkpt><trkpt lat="46.1434367" lon="13.5714811"><ele>531.6666666666666</ele><time>2026-05-02T07:25:24.922Z</time></trkpt><trkpt lat="46.1435281" lon="13.57141"><ele>529.3333333333333</ele><time>2026-05-02T07:25:26.924Z</time></trkpt><trkpt lat="46.1436174" lon="13.5713675"><ele>527.0</ele><time>2026-05-02T07:25:28.923Z</time></trkpt><trkpt lat="46.1437066" lon="13.5713272"><ele>527.0</ele><time>2026-05-02T07:25:30.925Z</time></trkpt><trkpt lat="46.1438066" lon="13.5712997"><ele>527.0</ele><time>2026-05-02T07:25:32.921Z</time></trkpt><trkpt lat="46.1438959" lon="13.5712968"><ele>527.0</ele><time>2026-05-02T07:25:34.93Z</time></trkpt><trkpt lat="46.1439954" lon="13.5712975"><ele>527.0</ele><time>2026-05-02T07:25:36.926Z</time></trkpt><trkpt lat="46.1442063" lon="13.5712921"><ele>527.0000000000001</ele><time>2026-05-02T07:25:39.919Z</time></trkpt><trkpt lat="46.1442726" lon="13.571287"><ele>527.0</ele><time>2026-05-02T07:25:40.926Z</time></trkpt><trkpt lat="46.1443409" lon="13.5712826"><ele>527.0</ele><time>2026-05-02T07:25:41.921Z</time></trkpt><trkpt lat="46.1444061" lon="13.5712637"><ele>527.0</ele><time>2026-05-02T07:25:42.92Z</time></trkpt><trkpt lat="46.1444792" lon="13.5712367"><ele>527.0</ele><time>2026-05-02T07:25:43.926Z</time></trkpt><trkpt lat="46.1445447" lon="13.5712154"><ele>527.0000000000001</ele><time>2026-05-02T07:25:44.921Z</time></trkpt><trkpt lat="46.1446236" lon="13.5712045"><ele>527.0</ele><time>2026-05-02T07:25:45.924Z</time></trkpt><trkpt lat="46.1447168" lon="13.5712041"><ele>527.0</ele><time>2026-05-02T07:25:46.92Z</time></trkpt><trkpt lat="46.14481" lon="13.5711959"><ele>527.0</ele><time>2026-05-02T07:25:47.933Z</time></trkpt><trkpt lat="46.144897" lon="13.5711992"><ele>527.0</ele><time>2026-05-02T07:25:48.929Z</time></trkpt><trkpt lat="46.1449794" lon="13.5712091"><ele>527.0</ele><time>2026-05-02T07:25:49.923Z</time></trkpt><trkpt lat="46.1450564" lon="13.571226"><ele>527.0</ele><time>2026-05-02T07:25:50.926Z</time></trkpt><trkpt lat="46.1451258" lon="13.5712545"><ele>527.0</ele><time>2026-05-02T07:25:51.923Z</time></trkpt><trkpt lat="46.1451881" lon="13.5712971"><ele>523.2</ele><time>2026-05-02T07:25:52.929Z</time></trkpt><trkpt lat="46.1452328" lon="13.571404"><ele>519.4000000000001</ele><time>2026-05-02T07:25:54.916Z</time></trkpt><trkpt lat="46.1451995" lon="13.5715066"><ele>515.5999999999999</ele><time>2026-05-02T07:25:55.93Z</time></trkpt><trkpt lat="46.1451824" lon="13.571628"><ele>511.79999999999995</ele><time>2026-05-02T07:25:56.92Z</time></trkpt><trkpt lat="46.1451718" lon="13.5717897"><ele>508.0</ele><time>2026-05-02T07:25:57.931Z</time></trkpt><trkpt lat="46.1450976" lon="13.5720898"><ele>508.00000000000006</ele><time>2026-05-02T07:26:00.924Z</time></trkpt><trkpt lat="46.1450814" lon="13.572227"><ele>508.0</ele><time>2026-05-02T07:26:02.93Z</time></trkpt><trkpt lat="46.1450262" lon="13.5723757"><ele>508.0</ele><time>2026-05-02T07:26:04.92Z</time></trkpt><trkpt lat="46.1449906" lon="13.572468"><ele>508.0</ele><time>2026-05-02T07:26:05.924Z</time></trkpt><trkpt lat="46.1449522" lon="13.5725637"><ele>508.00000000000006</ele><time>2026-05-02T07:26:06.923Z</time></trkpt><trkpt lat="46.1449045" lon="13.572659"><ele>508.0</ele><time>2026-05-02T07:26:07.932Z</time></trkpt><trkpt lat="46.1448739" lon="13.5727602"><ele>512.6666666666667</ele><time>2026-05-02T07:26:08.918Z</time></trkpt><trkpt lat="46.1448469" lon="13.5728583"><ele>517.3333333333334</ele><time>2026-05-02T07:26:09.925Z</time></trkpt><trkpt lat="46.1448077" lon="13.5730219"><ele>522.0</ele><time>2026-05-02T07:26:11.925Z</time></trkpt><trkpt lat="46.1448054" lon="13.5731188"><ele>526.6666666666666</ele><time>2026-05-02T07:26:12.931Z</time></trkpt><trkpt lat="46.144815" lon="13.5732215"><ele>531.3333333333333</ele><time>2026-05-02T07:26:13.927Z</time></trkpt><trkpt lat="46.1448349" lon="13.5733268"><ele>536.0</ele><time>2026-05-02T07:26:14.924Z</time></trkpt><trkpt lat="46.144864" lon="13.5734313"><ele>527.4</ele><time>2026-05-02T07:26:15.927Z</time></trkpt><trkpt lat="46.144893" lon="13.5735451"><ele>518.8</ele><time>2026-05-02T07:26:16.925Z</time></trkpt><trkpt lat="46.1449348" lon="13.5736538"><ele>510.19999999999993</ele><time>2026-05-02T07:26:17.935Z</time></trkpt><trkpt lat="46.1449756" lon="13.5737623"><ele>501.59999999999997</ele><time>2026-05-02T07:26:18.924Z</time></trkpt><trkpt lat="46.1450242" lon="13.5739756"><ele>493.0</ele><time>2026-05-02T07:26:20.926Z</time></trkpt><trkpt lat="46.1450271" lon="13.5740798"><ele>493.50000000000006</ele><time>2026-05-02T07:26:21.923Z</time></trkpt><trkpt lat="46.1450195" lon="13.5741781"><ele>494.0</ele><time>2026-05-02T07:26:22.929Z</time></trkpt><trkpt lat="46.1449973" lon="13.5742753"><ele>494.5</ele><time>2026-05-02T07:26:23.922Z</time></trkpt><trkpt lat="46.14496" lon="13.5743801"><ele>495.0</ele><time>2026-05-02T07:26:24.929Z</time></trkpt><trkpt lat="46.144911" lon="13.5744784"><ele>495.50000000000006</ele><time>2026-05-02T07:26:25.934Z</time></trkpt><trkpt lat="46.144864" lon="13.574574"><ele>496.0</ele><time>2026-05-02T07:26:26.923Z</time></trkpt><trkpt lat="46.1448179" lon="13.5746525"><ele>496.0</ele><time>2026-05-02T07:26:27.929Z</time></trkpt><trkpt lat="46.1447435" lon="13.5747664"><ele>496.0</ele><time>2026-05-02T07:26:29.923Z</time></trkpt><trkpt lat="46.1446933" lon="13.5748539"><ele>496.0</ele><time>2026-05-02T07:26:31.925Z</time></trkpt><trkpt lat="46.1446732" lon="13.575014"><ele>496.0</ele><time>2026-05-02T07:26:33.92Z</time></trkpt><trkpt lat="46.1446838" lon="13.5751172"><ele>496.0</ele><time>2026-05-02T07:26:34.92Z</time></trkpt><trkpt lat="46.1447049" lon="13.5752269"><ele>496.0</ele><time>2026-05-02T07:26:35.922Z</time></trkpt><trkpt lat="46.1447167" lon="13.5753243"><ele>496.0</ele><time>2026-05-02T07:26:36.927Z</time></trkpt><trkpt lat="46.1447281" lon="13.5754192"><ele>496.0</ele><time>2026-05-02T07:26:37.931Z</time></trkpt><trkpt lat="46.1446741" lon="13.5755736"><ele>496.0</ele><time>2026-05-02T07:26:39.924Z</time></trkpt><trkpt lat="46.1445836" lon="13.5757263"><ele>496.0</ele><time>2026-05-02T07:26:41.921Z</time></trkpt><trkpt lat="46.1445325" lon="13.5757879"><ele>491.50000000000006</ele><time>2026-05-02T07:26:42.924Z</time></trkpt><trkpt lat="46.1444743" lon="13.5758537"><ele>487.0</ele><time>2026-05-02T07:26:43.92Z</time></trkpt><trkpt lat="46.144411" lon="13.5758915"><ele>482.5</ele><time>2026-05-02T07:26:44.92Z</time></trkpt><trkpt lat="46.1443413" lon="13.5759158"><ele>478.0</ele><time>2026-05-02T07:26:45.925Z</time></trkpt><trkpt lat="46.1442661" lon="13.5759374"><ele>473.50000000000006</ele><time>2026-05-02T07:26:46.929Z</time></trkpt><trkpt lat="46.1441793" lon="13.5759658"><ele>469.0</ele><time>2026-05-02T07:26:47.931Z</time></trkpt><trkpt lat="46.1440827" lon="13.5759915"><ele>473.33333333333337</ele><time>2026-05-02T07:26:48.92Z</time></trkpt><trkpt lat="46.1439904" lon="13.5760209"><ele>477.6666666666667</ele><time>2026-05-02T07:26:49.933Z</time></trkpt><trkpt lat="46.1439151" lon="13.5760523"><ele>482.0</ele><time>2026-05-02T07:26:50.921Z</time></trkpt><trkpt lat="46.1438393" lon="13.5760906"><ele>486.33333333333337</ele><time>2026-05-02T07:26:51.924Z</time></trkpt><trkpt lat="46.1437643" lon="13.5761303"><ele>490.6666666666667</ele><time>2026-05-02T07:26:52.92Z</time></trkpt><trkpt lat="46.1436961" lon="13.5761517"><ele>495.0</ele><time>2026-05-02T07:26:53.919Z</time></trkpt><trkpt lat="46.1436084" lon="13.5761958"><ele>495.0</ele><time>2026-05-02T07:26:55.921Z</time></trkpt><trkpt lat="46.1435817" lon="13.5762985"><ele>495.0</ele><time>2026-05-02T07:26:57.925Z</time></trkpt><trkpt lat="46.1436136" lon="13.576408"><ele>495.0</ele><time>2026-05-02T07:27:01.929Z</time></trkpt><trkpt lat="46.1437678" lon="13.5764669"><ele>495.0</ele><time>2026-05-02T07:27:04.926Z</time></trkpt><trkpt lat="46.1438372" lon="13.5764984"><ele>495.0</ele><time>2026-05-02T07:27:05.925Z</time></trkpt><trkpt lat="46.1438899" lon="13.5765587"><ele>495.0</ele><time>2026-05-02T07:27:06.924Z</time></trkpt><trkpt lat="46.143959" lon="13.5766335"><ele>495.0</ele><time>2026-05-02T07:27:07.932Z</time></trkpt><trkpt lat="46.1440296" lon="13.5767247"><ele>495.0</ele><time>2026-05-02T07:27:08.931Z</time></trkpt><trkpt lat="46.144088" lon="13.5768238"><ele>495.0</ele><time>2026-05-02T07:27:09.934Z</time></trkpt><trkpt lat="46.1441441" lon="13.5769263"><ele>495.0</ele><time>2026-05-02T07:27:10.929Z</time></trkpt><trkpt lat="46.1441843" lon="13.5770381"><ele>495.0</ele><time>2026-05-02T07:27:11.925Z</time></trkpt><trkpt lat="46.1442217" lon="13.5771643"><ele>489.0</ele><time>2026-05-02T07:27:12.921Z</time></trkpt><trkpt lat="46.1442558" lon="13.5772859"><ele>483.0</ele><time>2026-05-02T07:27:13.927Z</time></trkpt><trkpt lat="46.1442633" lon="13.5773979"><ele>477.0</ele><time>2026-05-02T07:27:14.926Z</time></trkpt><trkpt lat="46.1442387" lon="13.5775049"><ele>471.0</ele><time>2026-05-02T07:27:15.921Z</time></trkpt><trkpt lat="46.1442206" lon="13.5776368"><ele>465.0</ele><time>2026-05-02T07:27:16.93Z</time></trkpt><trkpt lat="46.144199" lon="13.5777653"><ele>459.0</ele><time>2026-05-02T07:27:17.931Z</time></trkpt><trkpt lat="46.1441797" lon="13.5778827"><ele>458.6666666666667</ele><time>2026-05-02T07:27:18.923Z</time></trkpt><trkpt lat="46.1441534" lon="13.5779922"><ele>458.33333333333337</ele><time>2026-05-02T07:27:19.928Z</time></trkpt><trkpt lat="46.1441246" lon="13.5780956"><ele>458.0</ele><time>2026-05-02T07:27:20.926Z</time></trkpt><trkpt lat="46.1440872" lon="13.5781846"><ele>457.6666666666667</ele><time>2026-05-02T07:27:21.934Z</time></trkpt><trkpt lat="46.1440527" lon="13.5783133"><ele>457.33333333333337</ele><time>2026-05-02T07:27:23.922Z</time></trkpt><trkpt lat="46.1441328" lon="13.5784194"><ele>457.0</ele><time>2026-05-02T07:27:29.923Z</time></trkpt><trkpt lat="46.1441405" lon="13.5785485"><ele>457.0</ele><time>2026-05-02T07:27:31.935Z</time></trkpt><trkpt lat="46.1441779" lon="13.5786343"><ele>457.00000000000006</ele><time>2026-05-02T07:27:33.924Z</time></trkpt><trkpt lat="46.1442893" lon="13.5786301"><ele>457.00000000000006</ele><time>2026-05-02T07:27:35.928Z</time></trkpt><trkpt lat="46.1444208" lon="13.5786077"><ele>457.0</ele><time>2026-05-02T07:27:36.925Z</time></trkpt><trkpt lat="46.1445232" lon="13.5785928"><ele>457.0</ele><time>2026-05-02T07:27:37.924Z</time></trkpt><trkpt lat="46.1446353" lon="13.5785615"><ele>457.00000000000006</ele><time>2026-05-02T07:27:38.926Z</time></trkpt><trkpt lat="46.144719" lon="13.5785165"><ele>457.0</ele><time>2026-05-02T07:27:39.927Z</time></trkpt><trkpt lat="46.1448202" lon="13.578476"><ele>457.0</ele><time>2026-05-02T07:27:40.928Z</time></trkpt><trkpt lat="46.1449076" lon="13.5784552"><ele>457.0</ele><time>2026-05-02T07:27:41.922Z</time></trkpt><trkpt lat="46.1449897" lon="13.578455"><ele>457.00000000000006</ele><time>2026-05-02T07:27:42.928Z</time></trkpt><trkpt lat="46.1450563" lon="13.5784923"><ele>457.0</ele><time>2026-05-02T07:27:43.927Z</time></trkpt><trkpt lat="46.1451571" lon="13.5785567"><ele>455.25</ele><time>2026-05-02T07:27:45.921Z</time></trkpt><trkpt lat="46.145342" lon="13.5786848"><ele>453.5</ele><time>2026-05-02T07:27:49.927Z</time></trkpt><trkpt lat="46.1454168" lon="13.5787665"><ele>451.75</ele><time>2026-05-02T07:27:51.92Z</time></trkpt><trkpt lat="46.1454712" lon="13.5788228"><ele>450.0</ele><time>2026-05-02T07:27:53.926Z</time></trkpt><trkpt lat="46.145503" lon="13.5789436"><ele>450.0</ele><time>2026-05-02T07:27:55.923Z</time></trkpt><trkpt lat="46.1454844" lon="13.5791153"><ele>450.0</ele><time>2026-05-02T07:27:57.931Z</time></trkpt><trkpt lat="46.1454905" lon="13.5792112"><ele>450.0</ele><time>2026-05-02T07:27:58.934Z</time></trkpt><trkpt lat="46.1455143" lon="13.5793818"><ele>450.0</ele><time>2026-05-02T07:28:00.923Z</time></trkpt><trkpt lat="46.1455442" lon="13.5794959"><ele>450.0</ele><time>2026-05-02T07:28:01.926Z</time></trkpt><trkpt lat="46.1455685" lon="13.5795826"><ele>447.0</ele><time>2026-05-02T07:28:02.93Z</time></trkpt><trkpt lat="46.1455978" lon="13.5797411"><ele>444.0</ele><time>2026-05-02T07:28:04.926Z</time></trkpt><trkpt lat="46.1456509" lon="13.5798758"><ele>441.0</ele><time>2026-05-02T07:28:06.927Z</time></trkpt><trkpt lat="46.1457843" lon="13.5798904"><ele>438.0</ele><time>2026-05-02T07:28:11.92Z</time></trkpt><trkpt lat="46.1458302" lon="13.5798214"><ele>435.0</ele><time>2026-05-02T07:28:13.918Z</time></trkpt><trkpt lat="46.1458978" lon="13.5797609"><ele>435.0</ele><time>2026-05-02T07:28:15.923Z</time></trkpt><trkpt lat="46.1459501" lon="13.5796794"><ele>435.0</ele><time>2026-05-02T07:28:17.93Z</time></trkpt><trkpt lat="46.1459966" lon="13.5795728"><ele>435.0</ele><time>2026-05-02T07:28:19.927Z</time></trkpt><trkpt lat="46.146071" lon="13.5794178"><ele>435.0</ele><time>2026-05-02T07:28:21.926Z</time></trkpt><trkpt lat="46.146116" lon="13.5793224"><ele>435.0</ele><time>2026-05-02T07:28:22.923Z</time></trkpt><trkpt lat="46.1461646" lon="13.5792171"><ele>432.0</ele><time>2026-05-02T07:28:23.929Z</time></trkpt><trkpt lat="46.1462122" lon="13.579122"><ele>429.0</ele><time>2026-05-02T07:28:24.93Z</time></trkpt><trkpt lat="46.1462663" lon="13.5790586"><ele>426.0</ele><time>2026-05-02T07:28:25.927Z</time></trkpt><trkpt lat="46.1463182" lon="13.5789834"><ele>423.0</ele><time>2026-05-02T07:28:26.925Z</time></trkpt><trkpt lat="46.1463584" lon="13.5789013"><ele>420.0</ele><time>2026-05-02T07:28:27.922Z</time></trkpt><trkpt lat="46.1464523" lon="13.5787352"><ele>417.0</ele><time>2026-05-02T07:28:29.933Z</time></trkpt><trkpt lat="46.1465028" lon="13.5786462"><ele>414.5</ele><time>2026-05-02T07:28:30.925Z</time></trkpt><trkpt lat="46.1465541" lon="13.5785735"><ele>412.0</ele><time>2026-05-02T07:28:31.924Z</time></trkpt><trkpt lat="46.1466074" lon="13.5785086"><ele>409.5</ele><time>2026-05-02T07:28:32.931Z</time></trkpt><trkpt lat="46.1466647" lon="13.5784415"><ele>407.0</ele><time>2026-05-02T07:28:33.924Z</time></trkpt><trkpt lat="46.1467178" lon="13.5783691"><ele>404.5</ele><time>2026-05-02T07:28:34.932Z</time></trkpt><trkpt lat="46.1467722" lon="13.5783102"><ele>402.0</ele><time>2026-05-02T07:28:35.929Z</time></trkpt><trkpt lat="46.1468718" lon="13.578218"><ele>402.0</ele><time>2026-05-02T07:28:37.925Z</time></trkpt><trkpt lat="46.1469619" lon="13.578129"><ele>402.0</ele><time>2026-05-02T07:28:39.92Z</time></trkpt><trkpt lat="46.1470356" lon="13.5780139"><ele>402.0</ele><time>2026-05-02T07:28:41.931Z</time></trkpt><trkpt lat="46.1471033" lon="13.5779063"><ele>402.0</ele><time>2026-05-02T07:28:43.925Z</time></trkpt><trkpt lat="46.1471487" lon="13.5778381"><ele>402.0</ele><time>2026-05-02T07:28:44.924Z</time></trkpt><trkpt lat="46.1471992" lon="13.5777628"><ele>401.6666666666667</ele><time>2026-05-02T07:28:45.927Z</time></trkpt><trkpt lat="46.1472454" lon="13.5776975"><ele>401.33333333333337</ele><time>2026-05-02T07:28:46.924Z</time></trkpt><trkpt lat="46.1472934" lon="13.5776306"><ele>401.0</ele><time>2026-05-02T07:28:47.926Z</time></trkpt><trkpt lat="46.1473366" lon="13.5775638"><ele>400.6666666666667</ele><time>2026-05-02T07:28:48.922Z</time></trkpt><trkpt lat="46.1474429" lon="13.5774465"><ele>400.33333333333337</ele><time>2026-05-02T07:28:50.936Z</time></trkpt><trkpt lat="46.1475044" lon="13.5773878"><ele>400.0</ele><time>2026-05-02T07:28:51.925Z</time></trkpt><trkpt lat="46.1475658" lon="13.5773373"><ele>400.0</ele><time>2026-05-02T07:28:52.923Z</time></trkpt><trkpt lat="46.1476257" lon="13.5773008"><ele>400.0</ele><time>2026-05-02T07:28:53.921Z</time></trkpt><trkpt lat="46.147748" lon="13.5772745"><ele>400.0</ele><time>2026-05-02T07:28:55.92Z</time></trkpt><trkpt lat="46.1478485" lon="13.57726"><ele>400.0</ele><time>2026-05-02T07:28:57.931Z</time></trkpt><trkpt lat="46.1479415" lon="13.5771904"><ele>400.0</ele><time>2026-05-02T07:28:59.924Z</time></trkpt><trkpt lat="46.1479882" lon="13.577128"><ele>400.00000000000006</ele><time>2026-05-02T07:29:00.92Z</time></trkpt><trkpt lat="46.1480318" lon="13.577043"><ele>400.0</ele><time>2026-05-02T07:29:01.922Z</time></trkpt><trkpt lat="46.1480747" lon="13.5769533"><ele>400.0</ele><time>2026-05-02T07:29:02.93Z</time></trkpt><trkpt lat="46.1481204" lon="13.5768631"><ele>400.0</ele><time>2026-05-02T07:29:03.93Z</time></trkpt><trkpt lat="46.148178" lon="13.5767867"><ele>400.00000000000006</ele><time>2026-05-02T07:29:04.928Z</time></trkpt><trkpt lat="46.1482424" lon="13.5767186"><ele>400.0</ele><time>2026-05-02T07:29:05.916Z</time></trkpt><trkpt lat="46.1483064" lon="13.5766676"><ele>398.2</ele><time>2026-05-02T07:29:06.933Z</time></trkpt><trkpt lat="46.1483655" lon="13.576629"><ele>396.4</ele><time>2026-05-02T07:29:07.922Z</time></trkpt><trkpt lat="46.1484559" lon="13.5766093"><ele>394.6</ele><time>2026-05-02T07:29:08.927Z</time></trkpt><trkpt lat="46.1485393" lon="13.5765885"><ele>392.8</ele><time>2026-05-02T07:29:09.934Z</time></trkpt><trkpt lat="46.1487084" lon="13.5765278"><ele>391.0</ele><time>2026-05-02T07:29:11.924Z</time></trkpt><trkpt lat="46.1487849" lon="13.5764744"><ele>390.99999999999994</ele><time>2026-05-02T07:29:12.93Z</time></trkpt><trkpt lat="46.1488504" lon="13.5764391"><ele>391.0</ele><time>2026-05-02T07:29:13.924Z</time></trkpt><trkpt lat="46.1489221" lon="13.5764065"><ele>391.0</ele><time>2026-05-02T07:29:14.929Z</time></trkpt><trkpt lat="46.1489931" lon="13.5763906"><ele>391.0</ele><time>2026-05-02T07:29:15.926Z</time></trkpt><trkpt lat="46.1490571" lon="13.5763988"><ele>391.0</ele><time>2026-05-02T07:29:16.922Z</time></trkpt><trkpt lat="46.1491175" lon="13.5764412"><ele>390.99999999999994</ele><time>2026-05-02T07:29:17.924Z</time></trkpt><trkpt lat="46.1491895" lon="13.5765031"><ele>391.0</ele><time>2026-05-02T07:29:18.926Z</time></trkpt><trkpt lat="46.1492678" lon="13.5766006"><ele>391.20000000000005</ele><time>2026-05-02T07:29:19.93Z</time></trkpt><trkpt lat="46.1493305" lon="13.5767131"><ele>391.40000000000003</ele><time>2026-05-02T07:29:20.931Z</time></trkpt><trkpt lat="46.1493934" lon="13.5768445"><ele>391.6</ele><time>2026-05-02T07:29:21.919Z</time></trkpt><trkpt lat="46.1494306" lon="13.5769763"><ele>391.8</ele><time>2026-05-02T07:29:22.926Z</time></trkpt><trkpt lat="46.1494562" lon="13.5771205"><ele>392.0</ele><time>2026-05-02T07:29:23.925Z</time></trkpt><trkpt lat="46.149481" lon="13.5772776"><ele>395.8</ele><time>2026-05-02T07:29:24.926Z</time></trkpt><trkpt lat="46.1494834" lon="13.5774241"><ele>399.6</ele><time>2026-05-02T07:29:25.928Z</time></trkpt><trkpt lat="46.1494815" lon="13.5775575"><ele>403.40000000000003</ele><time>2026-05-02T07:29:26.916Z</time></trkpt><trkpt lat="46.1495061" lon="13.5776457"><ele>407.20000000000005</ele><time>2026-05-02T07:29:27.919Z</time></trkpt><trkpt lat="46.1495682" lon="13.5777446"><ele>411.0</ele><time>2026-05-02T07:29:30.925Z</time></trkpt><trkpt lat="46.1497413" lon="13.5777032"><ele>411.0</ele><time>2026-05-02T07:29:34.938Z</time></trkpt><trkpt lat="46.1498039" lon="13.5776653"><ele>411.0</ele><time>2026-05-02T07:29:35.929Z</time></trkpt><trkpt lat="46.1499155" lon="13.5776303"><ele>411.0</ele><time>2026-05-02T07:29:37.937Z</time></trkpt><trkpt lat="46.150008" lon="13.5777014"><ele>411.0</ele><time>2026-05-02T07:29:39.923Z</time></trkpt><trkpt lat="46.1500863" lon="13.5777841"><ele>411.0</ele><time>2026-05-02T07:29:41.926Z</time></trkpt><trkpt lat="46.1501496" lon="13.5778013"><ele>411.0</ele><time>2026-05-02T07:29:43.924Z</time></trkpt><trkpt lat="46.1502406" lon="13.5777558"><ele>413.0</ele><time>2026-05-02T07:29:45.931Z</time></trkpt><trkpt lat="46.1503466" lon="13.5776782"><ele>415.0</ele><time>2026-05-02T07:29:47.924Z</time></trkpt><trkpt lat="46.1504396" lon="13.5776673"><ele>417.0</ele><time>2026-05-02T07:29:49.932Z</time></trkpt><trkpt lat="46.1505232" lon="13.5777282"><ele>419.0</ele><time>2026-05-02T07:29:51.926Z</time></trkpt><trkpt lat="46.1506476" lon="13.5779081"><ele>415.6</ele><time>2026-05-02T07:29:55.933Z</time></trkpt><trkpt lat="46.1507108" lon="13.5779458"><ele>412.2</ele><time>2026-05-02T07:29:57.92Z</time></trkpt><trkpt lat="46.1507931" lon="13.5779291"><ele>408.8</ele><time>2026-05-02T07:29:59.929Z</time></trkpt><trkpt lat="46.1508963" lon="13.5778826"><ele>405.40000000000003</ele><time>2026-05-02T07:30:01.919Z</time></trkpt><trkpt lat="46.1509978" lon="13.5778668"><ele>402.0</ele><time>2026-05-02T07:30:03.918Z</time></trkpt><trkpt lat="46.1511054" lon="13.5779345"><ele>402.0</ele><time>2026-05-02T07:30:05.931Z</time></trkpt><trkpt lat="46.1511869" lon="13.5780638"><ele>402.0</ele><time>2026-05-02T07:30:07.922Z</time></trkpt><trkpt lat="46.151215" lon="13.578219"><ele>402.0</ele><time>2026-05-02T07:30:09.921Z</time></trkpt><trkpt lat="46.1512758" lon="13.5783549"><ele>402.0</ele><time>2026-05-02T07:30:11.926Z</time></trkpt><trkpt lat="46.151357" lon="13.5784228"><ele>402.0</ele><time>2026-05-02T07:30:13.921Z</time></trkpt><trkpt lat="46.151555" lon="13.5784121"><ele>398.5</ele><time>2026-05-02T07:30:16.927Z</time></trkpt><trkpt lat="46.1516284" lon="13.5783995"><ele>395.0</ele><time>2026-05-02T07:30:17.919Z</time></trkpt><trkpt lat="46.1516916" lon="13.5783902"><ele>391.5</ele><time>2026-05-02T07:30:18.927Z</time></trkpt><trkpt lat="46.1517575" lon="13.5783726"><ele>388.0</ele><time>2026-05-02T07:30:19.928Z</time></trkpt><trkpt lat="46.1518452" lon="13.5784033"><ele>384.5</ele><time>2026-05-02T07:30:21.929Z</time></trkpt><trkpt lat="46.1519307" lon="13.5785056"><ele>381.0</ele><time>2026-05-02T07:30:23.917Z</time></trkpt><trkpt lat="46.1519672" lon="13.5786558"><ele>381.75</ele><time>2026-05-02T07:30:25.919Z</time></trkpt><trkpt lat="46.1518935" lon="13.5788655"><ele>382.5</ele><time>2026-05-02T07:30:27.916Z</time></trkpt><trkpt lat="46.1518148" lon="13.5789941"><ele>383.25</ele><time>2026-05-02T07:30:28.922Z</time></trkpt><trkpt lat="46.1517151" lon="13.5791193"><ele>384.0</ele><time>2026-05-02T07:30:29.929Z</time></trkpt><trkpt lat="46.1516468" lon="13.5792294"><ele>384.0</ele><time>2026-05-02T07:30:30.921Z</time></trkpt><trkpt lat="46.1515957" lon="13.5793242"><ele>384.0</ele><time>2026-05-02T07:30:31.923Z</time></trkpt><trkpt lat="46.1515433" lon="13.5794112"><ele>384.0</ele><time>2026-05-02T07:30:32.925Z</time></trkpt><trkpt lat="46.1514967" lon="13.5794811"><ele>384.0</ele><time>2026-05-02T07:30:33.935Z</time></trkpt><trkpt lat="46.15146" lon="13.5795568"><ele>384.0</ele><time>2026-05-02T07:30:34.923Z</time></trkpt><trkpt lat="46.1514245" lon="13.5798242"><ele>385.4</ele><time>2026-05-02T07:30:38.928Z</time></trkpt><trkpt lat="46.1514352" lon="13.5799503"><ele>386.79999999999995</ele><time>2026-05-02T07:30:40.918Z</time></trkpt><trkpt lat="46.1514981" lon="13.580009"><ele>388.20000000000005</ele><time>2026-05-02T07:30:43.93Z</time></trkpt><trkpt lat="46.1515764" lon="13.5800239"><ele>389.6</ele><time>2026-05-02T07:30:45.92Z</time></trkpt><trkpt lat="46.1516741" lon="13.5800356"><ele>391.0</ele><time>2026-05-02T07:30:47.929Z</time></trkpt><trkpt lat="46.1517842" lon="13.5801329"><ele>391.00000000000006</ele><time>2026-05-02T07:30:49.922Z</time></trkpt><trkpt lat="46.1518532" lon="13.5801764"><ele>391.0</ele><time>2026-05-02T07:30:50.922Z</time></trkpt><trkpt lat="46.1519167" lon="13.5802225"><ele>391.0</ele><time>2026-05-02T07:30:51.926Z</time></trkpt><trkpt lat="46.1520162" lon="13.5803238"><ele>391.0</ele><time>2026-05-02T07:30:53.923Z</time></trkpt><trkpt lat="46.1520667" lon="13.5804048"><ele>391.00000000000006</ele><time>2026-05-02T07:30:54.926Z</time></trkpt><trkpt lat="46.1521179" lon="13.5804855"><ele>391.0</ele><time>2026-05-02T07:30:55.929Z</time></trkpt><trkpt lat="46.1523087" lon="13.5807224"><ele>387.33333333333337</ele><time>2026-05-02T07:30:59.924Z</time></trkpt><trkpt lat="46.1523772" lon="13.5807743"><ele>383.6666666666667</ele><time>2026-05-02T07:31:00.927Z</time></trkpt><trkpt lat="46.1524476" lon="13.5807989"><ele>380.0</ele><time>2026-05-02T07:31:01.923Z</time></trkpt><trkpt lat="46.1525495" lon="13.5808615"><ele>376.33333333333337</ele><time>2026-05-02T07:31:03.922Z</time></trkpt><trkpt lat="46.1526066" lon="13.5809581"><ele>372.6666666666667</ele><time>2026-05-02T07:31:05.924Z</time></trkpt><trkpt lat="46.1525867" lon="13.5810996"><ele>369.0</ele><time>2026-05-02T07:31:07.928Z</time></trkpt><trkpt lat="46.1525266" lon="13.5811833"><ele>368.1666666666667</ele><time>2026-05-02T07:31:08.929Z</time></trkpt><trkpt lat="46.1524387" lon="13.5812713"><ele>367.3333333333333</ele><time>2026-05-02T07:31:09.92Z</time></trkpt><trkpt lat="46.1523674" lon="13.5813567"><ele>366.5</ele><time>2026-05-02T07:31:10.938Z</time></trkpt><trkpt lat="46.1523141" lon="13.581462"><ele>365.66666666666663</ele><time>2026-05-02T07:31:11.93Z</time></trkpt><trkpt lat="46.1522616" lon="13.5815549"><ele>364.8333333333333</ele><time>2026-05-02T07:31:12.92Z</time></trkpt><trkpt lat="46.1522195" lon="13.5816439"><ele>364.0</ele><time>2026-05-02T07:31:13.922Z</time></trkpt><trkpt lat="46.1521803" lon="13.5817323"><ele>376.75</ele><time>2026-05-02T07:31:14.924Z</time></trkpt><trkpt lat="46.1521129" lon="13.5818756"><ele>389.5</ele><time>2026-05-02T07:31:16.924Z</time></trkpt><trkpt lat="46.1520334" lon="13.5820919"><ele>402.25</ele><time>2026-05-02T07:31:20.925Z</time></trkpt><trkpt lat="46.1520961" lon="13.5822055"><ele>415.0</ele><time>2026-05-02T07:31:23.925Z</time></trkpt><trkpt lat="46.1521901" lon="13.5822694"><ele>415.4</ele><time>2026-05-02T07:31:25.916Z</time></trkpt><trkpt lat="46.1522685" lon="13.5823573"><ele>415.8</ele><time>2026-05-02T07:31:27.92Z</time></trkpt><trkpt lat="46.1523035" lon="13.5824979"><ele>416.20000000000005</ele><time>2026-05-02T07:31:29.93Z</time></trkpt><trkpt lat="46.1523285" lon="13.5826535"><ele>416.6</ele><time>2026-05-02T07:31:31.925Z</time></trkpt><trkpt lat="46.1523881" lon="13.5827341"><ele>417.0</ele><time>2026-05-02T07:31:33.926Z</time></trkpt><trkpt lat="46.1524579" lon="13.5827947"><ele>411.25</ele><time>2026-05-02T07:31:35.921Z</time></trkpt><trkpt lat="46.1525367" lon="13.5828408"><ele>405.5</ele><time>2026-05-02T07:31:37.92Z</time></trkpt><trkpt lat="46.1527457" lon="13.582968"><ele>399.75</ele><time>2026-05-02T07:31:41.927Z</time></trkpt><trkpt lat="46.1528527" lon="13.5829788"><ele>394.0</ele><time>2026-05-02T07:31:43.92Z</time></trkpt><trkpt lat="46.152953" lon="13.5830132"><ele>394.00000000000006</ele><time>2026-05-02T07:31:45.922Z</time></trkpt><trkpt lat="46.1530514" lon="13.5830682"><ele>394.0</ele><time>2026-05-02T07:31:47.919Z</time></trkpt><trkpt lat="46.1531387" lon="13.5830911"><ele>394.0</ele><time>2026-05-02T07:31:49.921Z</time></trkpt><trkpt lat="46.153224" lon="13.5830855"><ele>394.0</ele><time>2026-05-02T07:31:51.92Z</time></trkpt><trkpt lat="46.1533073" lon="13.5830683"><ele>394.00000000000006</ele><time>2026-05-02T07:31:53.922Z</time></trkpt><trkpt lat="46.1533867" lon="13.5830917"><ele>394.0</ele><time>2026-05-02T07:31:55.924Z</time></trkpt><trkpt lat="46.1534955" lon="13.5831314"><ele>388.0</ele><time>2026-05-02T07:31:57.93Z</time></trkpt><trkpt lat="46.1535714" lon="13.5831762"><ele>382.0</ele><time>2026-05-02T07:31:58.93Z</time></trkpt><trkpt lat="46.1537261" lon="13.5832064"><ele>376.0</ele><time>2026-05-02T07:32:00.929Z</time></trkpt><trkpt lat="46.1537957" lon="13.5832916"><ele>370.0</ele><time>2026-05-02T07:32:01.929Z</time></trkpt><trkpt lat="46.1538568" lon="13.5833421"><ele>364.0</ele><time>2026-05-02T07:32:02.921Z</time></trkpt><trkpt lat="46.153916" lon="13.5833909"><ele>364.0</ele><time>2026-05-02T07:32:03.921Z</time></trkpt><trkpt lat="46.1539725" lon="13.5834512"><ele>364.0</ele><time>2026-05-02T07:32:04.928Z</time></trkpt><trkpt lat="46.1540315" lon="13.583524"><ele>364.0</ele><time>2026-05-02T07:32:05.926Z</time></trkpt><trkpt lat="46.1541017" lon="13.5835886"><ele>364.0</ele><time>2026-05-02T07:32:06.923Z</time></trkpt><trkpt lat="46.1541675" lon="13.5836679"><ele>364.0</ele><time>2026-05-02T07:32:07.932Z</time></trkpt><trkpt lat="46.1542108" lon="13.5837509"><ele>364.0</ele><time>2026-05-02T07:32:08.924Z</time></trkpt><trkpt lat="46.1542802" lon="13.5839155"><ele>364.0</ele><time>2026-05-02T07:32:10.92Z</time></trkpt><trkpt lat="46.1543241" lon="13.5841084"><ele>364.0</ele><time>2026-05-02T07:32:12.932Z</time></trkpt><trkpt lat="46.1543423" lon="13.584297"><ele>364.0</ele><time>2026-05-02T07:32:14.926Z</time></trkpt><trkpt lat="46.1543435" lon="13.5844061"><ele>364.0</ele><time>2026-05-02T07:32:15.924Z</time></trkpt><trkpt lat="46.1543346" lon="13.5845323"><ele>364.0</ele><time>2026-05-02T07:32:16.923Z</time></trkpt><trkpt lat="46.1543331" lon="13.5846539"><ele>363.6</ele><time>2026-05-02T07:32:17.928Z</time></trkpt><trkpt lat="46.1543419" lon="13.5847596"><ele>363.2</ele><time>2026-05-02T07:32:18.921Z</time></trkpt><trkpt lat="46.1543258" lon="13.5848725"><ele>362.8</ele><time>2026-05-02T07:32:19.936Z</time></trkpt><trkpt lat="46.1542676" lon="13.5850959"><ele>362.40000000000003</ele><time>2026-05-02T07:32:21.923Z</time></trkpt><trkpt lat="46.1542158" lon="13.5851979"><ele>362.0</ele><time>2026-05-02T07:32:22.927Z</time></trkpt><trkpt lat="46.1541538" lon="13.585289"><ele>359.20000000000005</ele><time>2026-05-02T07:32:23.919Z</time></trkpt><trkpt lat="46.1540897" lon="13.5853604"><ele>356.4</ele><time>2026-05-02T07:32:24.916Z</time></trkpt><trkpt lat="46.1539947" lon="13.5853792"><ele>353.6</ele><time>2026-05-02T07:32:25.927Z</time></trkpt><trkpt lat="46.1538826" lon="13.5854041"><ele>350.79999999999995</ele><time>2026-05-02T07:32:26.923Z</time></trkpt><trkpt lat="46.1537768" lon="13.5854316"><ele>348.0</ele><time>2026-05-02T07:32:27.929Z</time></trkpt><trkpt lat="46.1537113" lon="13.5854747"><ele>354.8333333333333</ele><time>2026-05-02T07:32:28.916Z</time></trkpt><trkpt lat="46.1536819" lon="13.5855683"><ele>361.66666666666663</ele><time>2026-05-02T07:32:30.922Z</time></trkpt><trkpt lat="46.1536926" lon="13.58569"><ele>368.5</ele><time>2026-05-02T07:32:33.923Z</time></trkpt><trkpt lat="46.1536815" lon="13.5858029"><ele>375.3333333333333</ele><time>2026-05-02T07:32:36.924Z</time></trkpt><trkpt lat="46.1536682" lon="13.5859081"><ele>382.16666666666663</ele><time>2026-05-02T07:32:38.923Z</time></trkpt><trkpt lat="46.1536754" lon="13.5860301"><ele>389.0</ele><time>2026-05-02T07:32:40.922Z</time></trkpt><trkpt lat="46.1535988" lon="13.5862697"><ele>389.16666666666663</ele><time>2026-05-02T07:32:43.921Z</time></trkpt><trkpt lat="46.1535658" lon="13.5863651"><ele>389.3333333333333</ele><time>2026-05-02T07:32:44.923Z</time></trkpt><trkpt lat="46.1535362" lon="13.5864737"><ele>389.5</ele><time>2026-05-02T07:32:45.925Z</time></trkpt><trkpt lat="46.1535026" lon="13.5865828"><ele>389.66666666666663</ele><time>2026-05-02T07:32:46.928Z</time></trkpt><trkpt lat="46.1534801" lon="13.5866987"><ele>389.8333333333333</ele><time>2026-05-02T07:32:47.923Z</time></trkpt><trkpt lat="46.1534528" lon="13.5868089"><ele>390.0</ele><time>2026-05-02T07:32:48.919Z</time></trkpt><trkpt lat="46.1534192" lon="13.5869127"><ele>390.0</ele><time>2026-05-02T07:32:49.915Z</time></trkpt><trkpt lat="46.1533818" lon="13.5870065"><ele>390.0</ele><time>2026-05-02T07:32:50.923Z</time></trkpt><trkpt lat="46.1533292" lon="13.5871748"><ele>390.0</ele><time>2026-05-02T07:32:52.923Z</time></trkpt><trkpt lat="46.1533024" lon="13.5872645"><ele>390.0</ele><time>2026-05-02T07:32:53.924Z</time></trkpt><trkpt lat="46.1532757" lon="13.5873472"><ele>390.0</ele><time>2026-05-02T07:32:54.924Z</time></trkpt><trkpt lat="46.1532555" lon="13.5874342"><ele>390.0</ele><time>2026-05-02T07:32:55.918Z</time></trkpt><trkpt lat="46.1532235" lon="13.5875201"><ele>394.0</ele><time>2026-05-02T07:32:56.917Z</time></trkpt><trkpt lat="46.1531528" lon="13.5876597"><ele>398.0</ele><time>2026-05-02T07:32:58.926Z</time></trkpt><trkpt lat="46.1531137" lon="13.5877416"><ele>402.0</ele><time>2026-05-02T07:32:59.935Z</time></trkpt><trkpt lat="46.1530849" lon="13.5878271"><ele>406.0</ele><time>2026-05-02T07:33:00.918Z</time></trkpt><trkpt lat="46.15305" lon="13.5879314"><ele>410.0</ele><time>2026-05-02T07:33:01.916Z</time></trkpt><trkpt lat="46.1529709" lon="13.5881672"><ele>409.99999999999994</ele><time>2026-05-02T07:33:03.916Z</time></trkpt><trkpt lat="46.1529342" lon="13.5882788"><ele>410.0</ele><time>2026-05-02T07:33:04.926Z</time></trkpt><trkpt lat="46.1528906" lon="13.5883789"><ele>410.0</ele><time>2026-05-02T07:33:05.923Z</time></trkpt><trkpt lat="46.1528321" lon="13.5884651"><ele>410.0</ele><time>2026-05-02T07:33:06.922Z</time></trkpt><trkpt lat="46.1527705" lon="13.5885426"><ele>409.99999999999994</ele><time>2026-05-02T07:33:07.923Z</time></trkpt><trkpt lat="46.1526965" lon="13.5886048"><ele>410.0</ele><time>2026-05-02T07:33:08.924Z</time></trkpt><trkpt lat="46.152611" lon="13.5886545"><ele>405.16666666666663</ele><time>2026-05-02T07:33:09.92Z</time></trkpt><trkpt lat="46.1525355" lon="13.5886895"><ele>400.3333333333333</ele><time>2026-05-02T07:33:10.925Z</time></trkpt><trkpt lat="46.1524686" lon="13.58872"><ele>395.5</ele><time>2026-05-02T07:33:11.922Z</time></trkpt><trkpt lat="46.1524018" lon="13.5887453"><ele>390.66666666666663</ele><time>2026-05-02T07:33:12.926Z</time></trkpt><trkpt lat="46.152304" lon="13.5887743"><ele>385.8333333333333</ele><time>2026-05-02T07:33:14.93Z</time></trkpt><trkpt lat="46.1522284" lon="13.5887589"><ele>381.0</ele><time>2026-05-02T07:33:16.928Z</time></trkpt><trkpt lat="46.1521489" lon="13.5887062"><ele>386.6</ele><time>2026-05-02T07:33:19.923Z</time></trkpt><trkpt lat="46.1520712" lon="13.5886698"><ele>392.20000000000005</ele><time>2026-05-02T07:33:21.925Z</time></trkpt><trkpt lat="46.1519936" lon="13.5885821"><ele>397.79999999999995</ele><time>2026-05-02T07:33:23.92Z</time></trkpt><trkpt lat="46.1518512" lon="13.5884614"><ele>403.4</ele><time>2026-05-02T07:33:27.922Z</time></trkpt><trkpt lat="46.1517842" lon="13.5884226"><ele>409.0</ele><time>2026-05-02T07:33:53.922Z</time></trkpt><trkpt lat="46.1516531" lon="13.5883149"><ele>409.0</ele><time>2026-05-02T07:33:58.929Z</time></trkpt><trkpt lat="46.1515824" lon="13.5882429"><ele>409.0</ele><time>2026-05-02T07:34:00.929Z</time></trkpt><trkpt lat="46.1515041" lon="13.5881676"><ele>409.0</ele><time>2026-05-02T07:34:02.931Z</time></trkpt><trkpt lat="46.151407" lon="13.5880881"><ele>409.0</ele><time>2026-05-02T07:34:04.927Z</time></trkpt><trkpt lat="46.1513029" lon="13.5879908"><ele>409.0</ele><time>2026-05-02T07:34:06.93Z</time></trkpt><trkpt lat="46.1512409" lon="13.5879234"><ele>407.6666666666667</ele><time>2026-05-02T07:34:07.929Z</time></trkpt><trkpt lat="46.1511781" lon="13.5878532"><ele>406.33333333333337</ele><time>2026-05-02T07:34:08.931Z</time></trkpt><trkpt lat="46.1511159" lon="13.5878018"><ele>405.0</ele><time>2026-05-02T07:34:09.928Z</time></trkpt><trkpt lat="46.1510507" lon="13.5877738"><ele>403.66666666666663</ele><time>2026-05-02T07:34:10.918Z</time></trkpt><trkpt lat="46.1509727" lon="13.5877411"><ele>402.3333333333333</ele><time>2026-05-02T07:34:12.936Z</time></trkpt><trkpt lat="46.1509022" lon="13.5877185"><ele>401.0</ele><time>2026-05-02T07:34:14.938Z</time></trkpt><trkpt lat="46.1507822" lon="13.5878674"><ele>405.6</ele><time>2026-05-02T07:34:18.929Z</time></trkpt><trkpt lat="46.1506976" lon="13.5879966"><ele>410.20000000000005</ele><time>2026-05-02T07:34:20.93Z</time></trkpt><trkpt lat="46.1505767" lon="13.5880853"><ele>414.79999999999995</ele><time>2026-05-02T07:34:22.928Z</time></trkpt><trkpt lat="46.1504948" lon="13.5881151"><ele>419.4</ele><time>2026-05-02T07:34:23.927Z</time></trkpt><trkpt lat="46.1504227" lon="13.588142"><ele>424.0</ele><time>2026-05-02T07:34:24.92Z</time></trkpt><trkpt lat="46.1503572" lon="13.5881698"><ele>424.00000000000006</ele><time>2026-05-02T07:34:25.925Z</time></trkpt><trkpt lat="46.1502472" lon="13.5882338"><ele>424.0</ele><time>2026-05-02T07:34:27.92Z</time></trkpt><trkpt lat="46.1501824" lon="13.5882503"><ele>424.0</ele><time>2026-05-02T07:34:28.917Z</time></trkpt><trkpt lat="46.1500611" lon="13.5882663"><ele>424.0</ele><time>2026-05-02T07:34:30.923Z</time></trkpt><trkpt lat="46.1499963" lon="13.5882629"><ele>424.00000000000006</ele><time>2026-05-02T07:34:31.915Z</time></trkpt><trkpt lat="46.1499269" lon="13.588257"><ele>424.0</ele><time>2026-05-02T07:34:32.925Z</time></trkpt><trkpt lat="46.1498169" lon="13.588271"><ele>426.5</ele><time>2026-05-02T07:34:34.918Z</time></trkpt><trkpt lat="46.1497542" lon="13.5883674"><ele>429.0</ele><time>2026-05-02T07:34:36.934Z</time></trkpt><trkpt lat="46.1497695" lon="13.5885795"><ele>431.5</ele><time>2026-05-02T07:34:40.919Z</time></trkpt><trkpt lat="46.1498504" lon="13.5886827"><ele>434.0</ele><time>2026-05-02T07:34:41.922Z</time></trkpt><trkpt lat="46.1499517" lon="13.5887896"><ele>433.99999999999994</ele><time>2026-05-02T07:34:42.918Z</time></trkpt><trkpt lat="46.1500451" lon="13.5888855"><ele>434.0</ele><time>2026-05-02T07:34:43.921Z</time></trkpt><trkpt lat="46.1501018" lon="13.5889789"><ele>434.0</ele><time>2026-05-02T07:34:44.927Z</time></trkpt><trkpt lat="46.1501594" lon="13.5890748"><ele>434.0</ele><time>2026-05-02T07:34:45.924Z</time></trkpt><trkpt lat="46.1502079" lon="13.5891583"><ele>433.99999999999994</ele><time>2026-05-02T07:34:46.919Z</time></trkpt><trkpt lat="46.1502642" lon="13.5892265"><ele>434.0</ele><time>2026-05-02T07:34:47.922Z</time></trkpt><trkpt lat="46.1503217" lon="13.5892932"><ele>434.0</ele><time>2026-05-02T07:34:48.926Z</time></trkpt><trkpt lat="46.1503772" lon="13.5893544"><ele>434.0</ele><time>2026-05-02T07:34:49.918Z</time></trkpt><trkpt lat="46.1504603" lon="13.5894509"><ele>434.0</ele><time>2026-05-02T07:34:51.918Z</time></trkpt><trkpt lat="46.1505423" lon="13.5895469"><ele>434.0</ele><time>2026-05-02T07:34:53.928Z</time></trkpt><trkpt lat="46.1506317" lon="13.5896435"><ele>434.0</ele><time>2026-05-02T07:34:55.918Z</time></trkpt><trkpt lat="46.1507428" lon="13.5897239"><ele>437.75</ele><time>2026-05-02T07:34:57.919Z</time></trkpt><trkpt lat="46.1507771" lon="13.5899472"><ele>441.5</ele><time>2026-05-02T07:35:01.92Z</time></trkpt><trkpt lat="46.1507178" lon="13.5900386"><ele>445.25</ele><time>2026-05-02T07:35:02.929Z</time></trkpt><trkpt lat="46.1506304" lon="13.5901477"><ele>449.0</ele><time>2026-05-02T07:35:03.919Z</time></trkpt><trkpt lat="46.1505369" lon="13.5902643"><ele>449.0</ele><time>2026-05-02T07:35:04.919Z</time></trkpt><trkpt lat="46.1504519" lon="13.5903349"><ele>449.0</ele><time>2026-05-02T07:35:05.926Z</time></trkpt><trkpt lat="46.1503827" lon="13.5904185"><ele>449.0</ele><time>2026-05-02T07:35:06.928Z</time></trkpt><trkpt lat="46.1503118" lon="13.5905156"><ele>449.0</ele><time>2026-05-02T07:35:07.921Z</time></trkpt><trkpt lat="46.1502385" lon="13.5906288"><ele>449.0</ele><time>2026-05-02T07:35:08.926Z</time></trkpt><trkpt lat="46.1501637" lon="13.5907462"><ele>446.49999999999994</ele><time>2026-05-02T07:35:09.927Z</time></trkpt><trkpt lat="46.1500905" lon="13.5908644"><ele>444.0</ele><time>2026-05-02T07:35:10.921Z</time></trkpt><trkpt lat="46.1500421" lon="13.5909811"><ele>441.5</ele><time>2026-05-02T07:35:11.92Z</time></trkpt><trkpt lat="46.15001" lon="13.5910823"><ele>439.0</ele><time>2026-05-02T07:35:12.92Z</time></trkpt><trkpt lat="46.1499747" lon="13.5911686"><ele>436.49999999999994</ele><time>2026-05-02T07:35:13.924Z</time></trkpt><trkpt lat="46.1499324" lon="13.5912421"><ele>434.0</ele><time>2026-05-02T07:35:14.93Z</time></trkpt><trkpt lat="46.1498542" lon="13.5913071"><ele>434.0</ele><time>2026-05-02T07:35:15.919Z</time></trkpt><trkpt lat="46.1497749" lon="13.5913801"><ele>434.0</ele><time>2026-05-02T07:35:16.929Z</time></trkpt><trkpt lat="46.149691" lon="13.5914392"><ele>434.0</ele><time>2026-05-02T07:35:17.923Z</time></trkpt><trkpt lat="46.1496069" lon="13.591485"><ele>434.0</ele><time>2026-05-02T07:35:18.918Z</time></trkpt><trkpt lat="46.1494127" lon="13.5915706"><ele>434.0</ele><time>2026-05-02T07:35:20.931Z</time></trkpt><trkpt lat="46.1493212" lon="13.5916078"><ele>434.0</ele><time>2026-05-02T07:35:21.921Z</time></trkpt><trkpt lat="46.1492384" lon="13.5916358"><ele>434.0</ele><time>2026-05-02T07:35:22.922Z</time></trkpt><trkpt lat="46.1491473" lon="13.5916564"><ele>434.0</ele><time>2026-05-02T07:35:23.917Z</time></trkpt><trkpt lat="46.1490542" lon="13.5916577"><ele>434.0</ele><time>2026-05-02T07:35:24.925Z</time></trkpt><trkpt lat="46.1489565" lon="13.591649"><ele>437.99999999999994</ele><time>2026-05-02T07:35:25.92Z</time></trkpt><trkpt lat="46.1488534" lon="13.5916554"><ele>442.0</ele><time>2026-05-02T07:35:26.921Z</time></trkpt><trkpt lat="46.1487581" lon="13.5916598"><ele>446.0</ele><time>2026-05-02T07:35:27.921Z</time></trkpt><trkpt lat="46.148674" lon="13.5916783"><ele>450.0</ele><time>2026-05-02T07:35:28.927Z</time></trkpt><trkpt lat="46.1485993" lon="13.5916926"><ele>453.99999999999994</ele><time>2026-05-02T07:35:29.919Z</time></trkpt><trkpt lat="46.1485271" lon="13.5916973"><ele>458.0</ele><time>2026-05-02T07:35:30.92Z</time></trkpt><trkpt lat="46.1484076" lon="13.5916994"><ele>458.0</ele><time>2026-05-02T07:35:32.917Z</time></trkpt><trkpt lat="46.1483135" lon="13.591762"><ele>457.99999999999994</ele><time>2026-05-02T07:35:34.919Z</time></trkpt><trkpt lat="46.1482266" lon="13.5918315"><ele>457.99999999999994</ele><time>2026-05-02T07:35:36.923Z</time></trkpt><trkpt lat="46.148152" lon="13.5918669"><ele>458.0</ele><time>2026-05-02T07:35:38.928Z</time></trkpt><trkpt lat="46.1481177" lon="13.5919873"><ele>458.0</ele><time>2026-05-02T07:35:41.924Z</time></trkpt><trkpt lat="46.1482146" lon="13.5922152"><ele>457.79999999999995</ele><time>2026-05-02T07:35:44.92Z</time></trkpt><trkpt lat="46.1482493" lon="13.5923434"><ele>457.59999999999997</ele><time>2026-05-02T07:35:46.928Z</time></trkpt><trkpt lat="46.148258" lon="13.5924514"><ele>457.40000000000003</ele><time>2026-05-02T07:35:48.92Z</time></trkpt><trkpt lat="46.1482734" lon="13.5925595"><ele>457.20000000000005</ele><time>2026-05-02T07:35:51.924Z</time></trkpt><trkpt lat="46.1483463" lon="13.5926125"><ele>457.0</ele><time>2026-05-02T07:36:32.922Z</time></trkpt><trkpt lat="46.1484008" lon="13.5927858"><ele>460.1666666666667</ele><time>2026-05-02T07:36:46.928Z</time></trkpt><trkpt lat="46.1484672" lon="13.5928639"><ele>463.33333333333337</ele><time>2026-05-02T07:36:48.931Z</time></trkpt><trkpt lat="46.1485247" lon="13.592912"><ele>466.5</ele><time>2026-05-02T07:36:49.918Z</time></trkpt><trkpt lat="46.1485837" lon="13.5929527"><ele>469.66666666666663</ele><time>2026-05-02T07:36:50.922Z</time></trkpt><trkpt lat="46.1487137" lon="13.5929426"><ele>472.8333333333333</ele><time>2026-05-02T07:36:52.915Z</time></trkpt><trkpt lat="46.1487995" lon="13.5929535"><ele>476.0</ele><time>2026-05-02T07:36:53.927Z</time></trkpt><trkpt lat="46.148973" lon="13.5929088"><ele>472.6</ele><time>2026-05-02T07:36:55.927Z</time></trkpt><trkpt lat="46.149079" lon="13.5928825"><ele>469.20000000000005</ele><time>2026-05-02T07:36:56.93Z</time></trkpt><trkpt lat="46.1491799" lon="13.5928527"><ele>465.79999999999995</ele><time>2026-05-02T07:36:57.92Z</time></trkpt><trkpt lat="46.1492772" lon="13.5928112"><ele>462.4</ele><time>2026-05-02T07:36:58.922Z</time></trkpt><trkpt lat="46.1493787" lon="13.5927654"><ele>459.0</ele><time>2026-05-02T07:36:59.915Z</time></trkpt><trkpt lat="46.1494554" lon="13.5927382"><ele>452.8333333333333</ele><time>2026-05-02T07:37:00.922Z</time></trkpt><trkpt lat="46.14953" lon="13.592702"><ele>446.66666666666663</ele><time>2026-05-02T07:37:01.917Z</time></trkpt><trkpt lat="46.1496422" lon="13.5926612"><ele>440.5</ele><time>2026-05-02T07:37:03.92Z</time></trkpt><trkpt lat="46.1497079" lon="13.5926379"><ele>434.3333333333333</ele><time>2026-05-02T07:37:04.919Z</time></trkpt><trkpt lat="46.1497816" lon="13.5926115"><ele>428.16666666666663</ele><time>2026-05-02T07:37:05.919Z</time></trkpt><trkpt lat="46.1498611" lon="13.5926042"><ele>422.0</ele><time>2026-05-02T07:37:06.923Z</time></trkpt><trkpt lat="46.1499573" lon="13.5925897"><ele>418.5</ele><time>2026-05-02T07:37:07.921Z</time></trkpt><trkpt lat="46.1500573" lon="13.5925873"><ele>415.0</ele><time>2026-05-02T07:37:08.919Z</time></trkpt><trkpt lat="46.1501937" lon="13.5926411"><ele>411.5</ele><time>2026-05-02T07:37:09.921Z</time></trkpt><trkpt lat="46.1502891" lon="13.5926516"><ele>408.0</ele><time>2026-05-02T07:37:10.923Z</time></trkpt><trkpt lat="46.1504095" lon="13.5926703"><ele>408.0</ele><time>2026-05-02T07:37:11.925Z</time></trkpt><trkpt lat="46.1505255" lon="13.5926587"><ele>408.0</ele><time>2026-05-02T07:37:12.92Z</time></trkpt><trkpt lat="46.150616" lon="13.5926518"><ele>408.0</ele><time>2026-05-02T07:37:13.925Z</time></trkpt><trkpt lat="46.1507163" lon="13.592593"><ele>408.0</ele><time>2026-05-02T07:37:14.928Z</time></trkpt><trkpt lat="46.1508993" lon="13.592635"><ele>407.4</ele><time>2026-05-02T07:37:16.931Z</time></trkpt><trkpt lat="46.1509888" lon="13.5926756"><ele>406.79999999999995</ele><time>2026-05-02T07:37:17.93Z</time></trkpt><trkpt lat="46.1510763" lon="13.5927231"><ele>406.2</ele><time>2026-05-02T07:37:18.929Z</time></trkpt><trkpt lat="46.1511622" lon="13.5927889"><ele>405.6</ele><time>2026-05-02T07:37:19.922Z</time></trkpt><trkpt lat="46.1512467" lon="13.5928554"><ele>405.0</ele><time>2026-05-02T07:37:20.92Z</time></trkpt><trkpt lat="46.1513214" lon="13.5929161"><ele>412.4</ele><time>2026-05-02T07:37:21.923Z</time></trkpt><trkpt lat="46.1513796" lon="13.5929936"><ele>419.8</ele><time>2026-05-02T07:37:22.931Z</time></trkpt><trkpt lat="46.1514245" lon="13.5930903"><ele>427.20000000000005</ele><time>2026-05-02T07:37:23.93Z</time></trkpt><trkpt lat="46.1514579" lon="13.5932074"><ele>434.6</ele><time>2026-05-02T07:37:24.929Z</time></trkpt><trkpt lat="46.1514479" lon="13.5933606"><ele>442.0</ele><time>2026-05-02T07:37:25.919Z</time></trkpt><trkpt lat="46.1513805" lon="13.5935716"><ele>445.0</ele><time>2026-05-02T07:37:26.928Z</time></trkpt><trkpt lat="46.1513343" lon="13.5937668"><ele>448.0</ele><time>2026-05-02T07:37:27.919Z</time></trkpt><trkpt lat="46.1513221" lon="13.5939024"><ele>451.0</ele><time>2026-05-02T07:37:28.927Z</time></trkpt><trkpt lat="46.151297" lon="13.5940745"><ele>454.0</ele><time>2026-05-02T07:37:30.922Z</time></trkpt><trkpt lat="46.151248" lon="13.594207"><ele>454.0</ele><time>2026-05-02T07:37:31.916Z</time></trkpt><trkpt lat="46.1511964" lon="13.5943359"><ele>454.0</ele><time>2026-05-02T07:37:32.935Z</time></trkpt><trkpt lat="46.1511698" lon="13.5944679"><ele>454.0</ele><time>2026-05-02T07:37:33.926Z</time></trkpt><trkpt lat="46.1511535" lon="13.594614"><ele>454.0</ele><time>2026-05-02T07:37:34.924Z</time></trkpt><trkpt lat="46.1511404" lon="13.5947602"><ele>454.0</ele><time>2026-05-02T07:37:35.926Z</time></trkpt><trkpt lat="46.151133" lon="13.5950252"><ele>452.2</ele><time>2026-05-02T07:37:37.919Z</time></trkpt><trkpt lat="46.1511117" lon="13.5951641"><ele>450.4</ele><time>2026-05-02T07:37:38.92Z</time></trkpt><trkpt lat="46.1510946" lon="13.5952884"><ele>448.6</ele><time>2026-05-02T07:37:39.923Z</time></trkpt><trkpt lat="46.1510893" lon="13.5954276"><ele>446.8</ele><time>2026-05-02T07:37:40.927Z</time></trkpt><trkpt lat="46.1510821" lon="13.5955635"><ele>445.0</ele><time>2026-05-02T07:37:41.921Z</time></trkpt><trkpt lat="46.1510801" lon="13.5956844"><ele>441.83333333333337</ele><time>2026-05-02T07:37:42.918Z</time></trkpt><trkpt lat="46.1510717" lon="13.5957869"><ele>438.6666666666667</ele><time>2026-05-02T07:37:43.927Z</time></trkpt><trkpt lat="46.151056" lon="13.5959164"><ele>435.5</ele><time>2026-05-02T07:37:45.918Z</time></trkpt><trkpt lat="46.1509871" lon="13.5959444"><ele>432.33333333333337</ele><time>2026-05-02T07:37:46.921Z</time></trkpt><trkpt lat="46.1508979" lon="13.5959749"><ele>429.1666666666667</ele><time>2026-05-02T07:37:47.918Z</time></trkpt><trkpt lat="46.1508032" lon="13.595993"><ele>426.0</ele><time>2026-05-02T07:37:48.924Z</time></trkpt><trkpt lat="46.1507324" lon="13.596039"><ele>426.5</ele><time>2026-05-02T07:37:49.916Z</time></trkpt><trkpt lat="46.1506838" lon="13.5961279"><ele>427.0</ele><time>2026-05-02T07:37:50.917Z</time></trkpt><trkpt lat="46.1506339" lon="13.5962313"><ele>427.5</ele><time>2026-05-02T07:37:51.92Z</time></trkpt><trkpt lat="46.150597" lon="13.5963388"><ele>428.0</ele><time>2026-05-02T07:37:52.926Z</time></trkpt><trkpt lat="46.1505762" lon="13.5964417"><ele>428.5</ele><time>2026-05-02T07:37:53.924Z</time></trkpt><trkpt lat="46.1505474" lon="13.5965343"><ele>429.0</ele><time>2026-05-02T07:37:54.922Z</time></trkpt><trkpt lat="46.1505201" lon="13.5966365"><ele>429.0</ele><time>2026-05-02T07:37:55.92Z</time></trkpt><trkpt lat="46.1505059" lon="13.596757"><ele>429.0</ele><time>2026-05-02T07:37:56.933Z</time></trkpt><trkpt lat="46.1505062" lon="13.5970029"><ele>429.0</ele><time>2026-05-02T07:37:58.925Z</time></trkpt><trkpt lat="46.150524" lon="13.5971366"><ele>429.0</ele><time>2026-05-02T07:37:59.921Z</time></trkpt><trkpt lat="46.1505486" lon="13.5972651"><ele>429.0</ele><time>2026-05-02T07:38:00.924Z</time></trkpt><trkpt lat="46.150566" lon="13.5973686"><ele>424.8333333333333</ele><time>2026-05-02T07:38:01.925Z</time></trkpt><trkpt lat="46.1504815" lon="13.5974316"><ele>420.66666666666663</ele><time>2026-05-02T07:38:05.929Z</time></trkpt><trkpt lat="46.1504031" lon="13.5974171"><ele>416.5</ele><time>2026-05-02T07:38:06.92Z</time></trkpt><trkpt lat="46.1503242" lon="13.597406"><ele>412.3333333333333</ele><time>2026-05-02T07:38:07.921Z</time></trkpt><trkpt lat="46.1502419" lon="13.5974036"><ele>408.16666666666663</ele><time>2026-05-02T07:38:08.927Z</time></trkpt><trkpt lat="46.1501631" lon="13.5973986"><ele>404.0</ele><time>2026-05-02T07:38:09.918Z</time></trkpt><trkpt lat="46.150079" lon="13.5973906"><ele>404.0</ele><time>2026-05-02T07:38:10.924Z</time></trkpt><trkpt lat="46.14999" lon="13.5973804"><ele>404.0</ele><time>2026-05-02T07:38:11.918Z</time></trkpt><trkpt lat="46.1499174" lon="13.5973843"><ele>404.0</ele><time>2026-05-02T07:38:12.922Z</time></trkpt><trkpt lat="46.1498446" lon="13.5973974"><ele>404.0</ele><time>2026-05-02T07:38:13.914Z</time></trkpt><trkpt lat="46.1497846" lon="13.5974276"><ele>404.0</ele><time>2026-05-02T07:38:14.927Z</time></trkpt><trkpt lat="46.1497331" lon="13.5974846"><ele>404.0</ele><time>2026-05-02T07:38:15.92Z</time></trkpt><trkpt lat="46.149691" lon="13.5975775"><ele>404.0</ele><time>2026-05-02T07:38:16.918Z</time></trkpt><trkpt lat="46.1496335" lon="13.5976625"><ele>409.6</ele><time>2026-05-02T07:38:17.928Z</time></trkpt><trkpt lat="46.1495278" lon="13.5978309"><ele>415.2</ele><time>2026-05-02T07:38:19.919Z</time></trkpt><trkpt lat="46.1494606" lon="13.597909"><ele>420.80000000000007</ele><time>2026-05-02T07:38:20.922Z</time></trkpt><trkpt lat="46.1493989" lon="13.5979714"><ele>426.40000000000003</ele><time>2026-05-02T07:38:21.924Z</time></trkpt><trkpt lat="46.1493607" lon="13.5980497"><ele>432.0</ele><time>2026-05-02T07:38:22.922Z</time></trkpt><trkpt lat="46.149303" lon="13.5981964"><ele>432.0</ele><time>2026-05-02T07:38:24.927Z</time></trkpt><trkpt lat="46.1492873" lon="13.5983444"><ele>432.00000000000006</ele><time>2026-05-02T07:38:26.919Z</time></trkpt><trkpt lat="46.1493628" lon="13.5984281"><ele>432.00000000000006</ele><time>2026-05-02T07:38:28.932Z</time></trkpt><trkpt lat="46.1494662" lon="13.5984527"><ele>432.0</ele><time>2026-05-02T07:38:30.931Z</time></trkpt><trkpt lat="46.1495782" lon="13.5984755"><ele>432.0</ele><time>2026-05-02T07:38:32.935Z</time></trkpt><trkpt lat="46.1496407" lon="13.5985015"><ele>432.0</ele><time>2026-05-02T07:38:33.919Z</time></trkpt><trkpt lat="46.1497079" lon="13.5985442"><ele>432.00000000000006</ele><time>2026-05-02T07:38:34.916Z</time></trkpt><trkpt lat="46.1497984" lon="13.5985983"><ele>432.00000000000006</ele><time>2026-05-02T07:38:35.925Z</time></trkpt><trkpt lat="46.1499036" lon="13.5986305"><ele>432.0</ele><time>2026-05-02T07:38:36.923Z</time></trkpt><trkpt lat="46.1500022" lon="13.5986729"><ele>432.0</ele><time>2026-05-02T07:38:37.919Z</time></trkpt><trkpt lat="46.1500984" lon="13.5987189"><ele>427.20000000000005</ele><time>2026-05-02T07:38:38.915Z</time></trkpt><trkpt lat="46.1502466" lon="13.5988128"><ele>422.40000000000003</ele><time>2026-05-02T07:38:40.919Z</time></trkpt><trkpt lat="46.1503126" lon="13.5988788"><ele>417.6</ele><time>2026-05-02T07:38:41.924Z</time></trkpt><trkpt lat="46.1503623" lon="13.5989607"><ele>412.79999999999995</ele><time>2026-05-02T07:38:42.922Z</time></trkpt><trkpt lat="46.1504083" lon="13.5990508"><ele>408.0</ele><time>2026-05-02T07:38:43.924Z</time></trkpt><trkpt lat="46.1504473" lon="13.599144"><ele>408.0</ele><time>2026-05-02T07:38:44.922Z</time></trkpt><trkpt lat="46.1504732" lon="13.5992319"><ele>408.0</ele><time>2026-05-02T07:38:45.926Z</time></trkpt><trkpt lat="46.1504859" lon="13.5993298"><ele>408.0</ele><time>2026-05-02T07:38:46.925Z</time></trkpt><trkpt lat="46.1504816" lon="13.5994974"><ele>408.0</ele><time>2026-05-02T07:38:48.933Z</time></trkpt><trkpt lat="46.1504283" lon="13.5996549"><ele>408.0</ele><time>2026-05-02T07:38:50.922Z</time></trkpt><trkpt lat="46.1504038" lon="13.5997398"><ele>408.0</ele><time>2026-05-02T07:38:51.92Z</time></trkpt><trkpt lat="46.1503729" lon="13.5998285"><ele>407.3333333333333</ele><time>2026-05-02T07:38:52.92Z</time></trkpt><trkpt lat="46.150326" lon="13.5999085"><ele>406.66666666666663</ele><time>2026-05-02T07:38:53.918Z</time></trkpt><trkpt lat="46.1502733" lon="13.5999888"><ele>406.0</ele><time>2026-05-02T07:38:54.924Z</time></trkpt><trkpt lat="46.1502295" lon="13.6000671"><ele>405.3333333333333</ele><time>2026-05-02T07:38:55.921Z</time></trkpt><trkpt lat="46.1501837" lon="13.6001522"><ele>404.66666666666663</ele><time>2026-05-02T07:38:56.924Z</time></trkpt><trkpt lat="46.1501563" lon="13.6002535"><ele>404.0</ele><time>2026-05-02T07:38:57.918Z</time></trkpt><trkpt lat="46.1501304" lon="13.6003653"><ele>402.6</ele><time>2026-05-02T07:38:58.92Z</time></trkpt><trkpt lat="46.1501001" lon="13.600487"><ele>401.2</ele><time>2026-05-02T07:38:59.928Z</time></trkpt><trkpt lat="46.1500489" lon="13.6007471"><ele>399.8</ele><time>2026-05-02T07:39:01.914Z</time></trkpt><trkpt lat="46.1500146" lon="13.6008609"><ele>398.40000000000003</ele><time>2026-05-02T07:39:02.926Z</time></trkpt><trkpt lat="46.1499948" lon="13.6009515"><ele>397.0</ele><time>2026-05-02T07:39:03.916Z</time></trkpt><trkpt lat="46.1500051" lon="13.6010669"><ele>397.00000000000006</ele><time>2026-05-02T07:39:05.918Z</time></trkpt><trkpt lat="46.1500569" lon="13.6011465"><ele>397.0</ele><time>2026-05-02T07:39:07.922Z</time></trkpt><trkpt lat="46.1501344" lon="13.6012484"><ele>397.0</ele><time>2026-05-02T07:39:09.922Z</time></trkpt><trkpt lat="46.1501332" lon="13.6013668"><ele>397.0</ele><time>2026-05-02T07:39:11.926Z</time></trkpt><trkpt lat="46.1501307" lon="13.6014673"><ele>397.00000000000006</ele><time>2026-05-02T07:39:12.921Z</time></trkpt><trkpt lat="46.1501304" lon="13.6015654"><ele>397.0</ele><time>2026-05-02T07:39:13.92Z</time></trkpt><trkpt lat="46.1501294" lon="13.6016596"><ele>396.40000000000003</ele><time>2026-05-02T07:39:14.93Z</time></trkpt><trkpt lat="46.1501227" lon="13.6017602"><ele>395.8</ele><time>2026-05-02T07:39:15.917Z</time></trkpt><trkpt lat="46.1501005" lon="13.6018511"><ele>395.2</ele><time>2026-05-02T07:39:16.921Z</time></trkpt><trkpt lat="46.1500699" lon="13.6019842"><ele>394.6</ele><time>2026-05-02T07:39:18.927Z</time></trkpt><trkpt lat="46.1500048" lon="13.6019971"><ele>394.0</ele><time>2026-05-02T07:39:20.917Z</time></trkpt><trkpt lat="46.1499277" lon="13.6017812"><ele>394.00000000000006</ele><time>2026-05-02T07:39:23.923Z</time></trkpt><trkpt lat="46.1498841" lon="13.601684"><ele>394.0</ele><time>2026-05-02T07:39:24.92Z</time></trkpt><trkpt lat="46.1498402" lon="13.6015917"><ele>394.0</ele><time>2026-05-02T07:39:25.928Z</time></trkpt><trkpt lat="46.149792" lon="13.6014868"><ele>394.0</ele><time>2026-05-02T07:39:26.92Z</time></trkpt><trkpt lat="46.149754" lon="13.6013956"><ele>394.00000000000006</ele><time>2026-05-02T07:39:27.924Z</time></trkpt><trkpt lat="46.1497001" lon="13.6013217"><ele>394.0</ele><time>2026-05-02T07:39:28.923Z</time></trkpt><trkpt lat="46.1496495" lon="13.60126"><ele>399.79999999999995</ele><time>2026-05-02T07:39:29.918Z</time></trkpt><trkpt lat="46.1495667" lon="13.6011494"><ele>405.59999999999997</ele><time>2026-05-02T07:39:31.918Z</time></trkpt><trkpt lat="46.14948" lon="13.6010651"><ele>411.4</ele><time>2026-05-02T07:39:33.921Z</time></trkpt><trkpt lat="46.1493897" lon="13.600931"><ele>417.2</ele><time>2026-05-02T07:39:35.919Z</time></trkpt><trkpt lat="46.1493204" lon="13.6008625"><ele>423.0</ele><time>2026-05-02T07:39:36.922Z</time></trkpt><trkpt lat="46.1492567" lon="13.6008055"><ele>423.0</ele><time>2026-05-02T07:39:37.941Z</time></trkpt><trkpt lat="46.1491732" lon="13.600684"><ele>423.0</ele><time>2026-05-02T07:39:39.917Z</time></trkpt><trkpt lat="46.1491279" lon="13.6006195"><ele>423.0</ele><time>2026-05-02T07:39:40.919Z</time></trkpt><trkpt lat="46.1490816" lon="13.600554"><ele>423.0</ele><time>2026-05-02T07:39:41.924Z</time></trkpt><trkpt lat="46.148974" lon="13.6004314"><ele>423.0</ele><time>2026-05-02T07:39:43.916Z</time></trkpt><trkpt lat="46.1489081" lon="13.6003789"><ele>428.0</ele><time>2026-05-02T07:39:44.927Z</time></trkpt><trkpt lat="46.1488376" lon="13.6003325"><ele>433.0</ele><time>2026-05-02T07:39:45.919Z</time></trkpt><trkpt lat="46.148754" lon="13.6002879"><ele>438.0</ele><time>2026-05-02T07:39:46.931Z</time></trkpt><trkpt lat="46.1486628" lon="13.6002568"><ele>443.0</ele><time>2026-05-02T07:39:47.919Z</time></trkpt><trkpt lat="46.1485713" lon="13.6002301"><ele>448.0</ele><time>2026-05-02T07:39:48.922Z</time></trkpt><trkpt lat="46.1484925" lon="13.6002041"><ele>453.0</ele><time>2026-05-02T07:39:49.916Z</time></trkpt><trkpt lat="46.1484262" lon="13.6001872"><ele>453.0</ele><time>2026-05-02T07:39:50.933Z</time></trkpt><trkpt lat="46.1484235" lon="13.6003037"><ele>453.0</ele><time>2026-05-02T07:39:55.929Z</time></trkpt><trkpt lat="46.1484625" lon="13.6003979"><ele>453.0</ele><time>2026-05-02T07:39:56.921Z</time></trkpt><trkpt lat="46.1484928" lon="13.6004933"><ele>453.0</ele><time>2026-05-02T07:39:57.928Z</time></trkpt><trkpt lat="46.1485145" lon="13.6006044"><ele>453.0</ele><time>2026-05-02T07:39:58.925Z</time></trkpt><trkpt lat="46.1485624" lon="13.6007077"><ele>453.0</ele><time>2026-05-02T07:39:59.922Z</time></trkpt><trkpt lat="46.1486133" lon="13.6007991"><ele>451.59999999999997</ele><time>2026-05-02T07:40:00.919Z</time></trkpt><trkpt lat="46.1486604" lon="13.6009039"><ele>450.19999999999993</ele><time>2026-05-02T07:40:01.922Z</time></trkpt><trkpt lat="46.1487044" lon="13.6010072"><ele>448.8</ele><time>2026-05-02T07:40:02.921Z</time></trkpt><trkpt lat="46.1487787" lon="13.6012301"><ele>447.4</ele><time>2026-05-02T07:40:04.922Z</time></trkpt><trkpt lat="46.1488128" lon="13.601361"><ele>446.0</ele><time>2026-05-02T07:40:05.92Z</time></trkpt><trkpt lat="46.1488254" lon="13.6014889"><ele>445.16666666666663</ele><time>2026-05-02T07:40:06.92Z</time></trkpt><trkpt lat="46.1488322" lon="13.6016171"><ele>444.3333333333333</ele><time>2026-05-02T07:40:07.92Z</time></trkpt><trkpt lat="46.1488307" lon="13.6017149"><ele>443.5</ele><time>2026-05-02T07:40:08.919Z</time></trkpt><trkpt lat="46.1487914" lon="13.6018338"><ele>442.66666666666663</ele><time>2026-05-02T07:40:10.914Z</time></trkpt><trkpt lat="46.1486728" lon="13.6018702"><ele>441.8333333333333</ele><time>2026-05-02T07:40:12.92Z</time></trkpt><trkpt lat="46.1485973" lon="13.6018707"><ele>441.0</ele><time>2026-05-02T07:40:13.922Z</time></trkpt><trkpt lat="46.1485033" lon="13.6018699"><ele>441.0</ele><time>2026-05-02T07:40:14.924Z</time></trkpt><trkpt lat="46.1484046" lon="13.6018632"><ele>441.0</ele><time>2026-05-02T07:40:15.919Z</time></trkpt><trkpt lat="46.1483207" lon="13.6018587"><ele>441.0</ele><time>2026-05-02T07:40:16.92Z</time></trkpt><trkpt lat="46.1482331" lon="13.6018659"><ele>441.0</ele><time>2026-05-02T07:40:17.917Z</time></trkpt><trkpt lat="46.1481441" lon="13.6018643"><ele>441.0</ele><time>2026-05-02T07:40:18.921Z</time></trkpt><trkpt lat="46.1480559" lon="13.6018645"><ele>441.0</ele><time>2026-05-02T07:40:19.918Z</time></trkpt><trkpt lat="46.1479643" lon="13.6018598"><ele>444.1666666666667</ele><time>2026-05-02T07:40:20.926Z</time></trkpt><trkpt lat="46.1478755" lon="13.6018548"><ele>447.33333333333337</ele><time>2026-05-02T07:40:21.922Z</time></trkpt><trkpt lat="46.1478036" lon="13.601852"><ele>450.5</ele><time>2026-05-02T07:40:22.918Z</time></trkpt><trkpt lat="46.1477378" lon="13.6018467"><ele>453.6666666666667</ele><time>2026-05-02T07:40:23.928Z</time></trkpt><trkpt lat="46.1475977" lon="13.6018391"><ele>456.83333333333337</ele><time>2026-05-02T07:40:25.914Z</time></trkpt><trkpt lat="46.1475299" lon="13.6018154"><ele>460.0</ele><time>2026-05-02T07:40:26.919Z</time></trkpt><trkpt lat="46.1474603" lon="13.6018027"><ele>460.00000000000006</ele><time>2026-05-02T07:40:27.935Z</time></trkpt><trkpt lat="46.1473841" lon="13.601807"><ele>460.0</ele><time>2026-05-02T07:40:28.916Z</time></trkpt><trkpt lat="46.1473175" lon="13.6017981"><ele>460.0</ele><time>2026-05-02T07:40:29.918Z</time></trkpt><trkpt lat="46.1472504" lon="13.6017865"><ele>460.0</ele><time>2026-05-02T07:40:30.917Z</time></trkpt><trkpt lat="46.1471841" lon="13.6017868"><ele>460.00000000000006</ele><time>2026-05-02T07:40:31.92Z</time></trkpt><trkpt lat="46.1471189" lon="13.6017949"><ele>460.0</ele><time>2026-05-02T07:40:32.923Z</time></trkpt><trkpt lat="46.147011" lon="13.6017922"><ele>459.2</ele><time>2026-05-02T07:40:34.923Z</time></trkpt><trkpt lat="46.1468974" lon="13.6017859"><ele>458.4</ele><time>2026-05-02T07:40:36.933Z</time></trkpt><trkpt lat="46.1467821" lon="13.601835"><ele>457.6</ele><time>2026-05-02T07:40:38.922Z</time></trkpt><trkpt lat="46.1467224" lon="13.6018978"><ele>456.8</ele><time>2026-05-02T07:40:39.919Z</time></trkpt><trkpt lat="46.1466629" lon="13.6019748"><ele>456.0</ele><time>2026-05-02T07:40:40.925Z</time></trkpt><trkpt lat="46.1466018" lon="13.602061"><ele>462.4</ele><time>2026-05-02T07:40:41.925Z</time></trkpt><trkpt lat="46.146543" lon="13.6021408"><ele>468.8</ele><time>2026-05-02T07:40:42.932Z</time></trkpt><trkpt lat="46.1464859" lon="13.6022116"><ele>475.19999999999993</ele><time>2026-05-02T07:40:43.914Z</time></trkpt><trkpt lat="46.1464299" lon="13.6022726"><ele>481.59999999999997</ele><time>2026-05-02T07:40:44.921Z</time></trkpt><trkpt lat="46.1462755" lon="13.6023642"><ele>488.0</ele><time>2026-05-02T07:40:47.925Z</time></trkpt><trkpt lat="46.1462094" lon="13.6023585"><ele>488.0</ele><time>2026-05-02T07:40:48.922Z</time></trkpt><trkpt lat="46.1461309" lon="13.6023281"><ele>487.99999999999994</ele><time>2026-05-02T07:40:49.917Z</time></trkpt><trkpt lat="46.1460508" lon="13.6023042"><ele>487.99999999999994</ele><time>2026-05-02T07:40:50.917Z</time></trkpt><trkpt lat="46.145946" lon="13.6022724"><ele>488.0</ele><time>2026-05-02T07:40:52.921Z</time></trkpt><trkpt lat="46.145889" lon="13.6023469"><ele>488.0</ele><time>2026-05-02T07:40:54.932Z</time></trkpt><trkpt lat="46.1459117" lon="13.6025289"><ele>488.0</ele><time>2026-05-02T07:40:56.92Z</time></trkpt><trkpt lat="46.1459364" lon="13.6026316"><ele>487.99999999999994</ele><time>2026-05-02T07:40:57.916Z</time></trkpt><trkpt lat="46.1459684" lon="13.6027458"><ele>487.99999999999994</ele><time>2026-05-02T07:40:58.92Z</time></trkpt><trkpt lat="46.145995" lon="13.6028553"><ele>488.0</ele><time>2026-05-02T07:40:59.922Z</time></trkpt><trkpt lat="46.1460382" lon="13.6030105"><ele>488.0</ele><time>2026-05-02T07:41:01.923Z</time></trkpt><trkpt lat="46.1459962" lon="13.6031772"><ele>486.0</ele><time>2026-05-02T07:41:03.919Z</time></trkpt><trkpt lat="46.1459571" lon="13.6032619"><ele>483.99999999999994</ele><time>2026-05-02T07:41:04.92Z</time></trkpt><trkpt lat="46.1458983" lon="13.6033372"><ele>481.99999999999994</ele><time>2026-05-02T07:41:05.934Z</time></trkpt><trkpt lat="46.1457769" lon="13.6035219"><ele>480.0</ele><time>2026-05-02T07:41:07.915Z</time></trkpt><trkpt lat="46.1457265" lon="13.6035974"><ele>478.0</ele><time>2026-05-02T07:41:08.926Z</time></trkpt><trkpt lat="46.145674" lon="13.6036684"><ele>483.1666666666667</ele><time>2026-05-02T07:41:09.918Z</time></trkpt><trkpt lat="46.1456176" lon="13.603755"><ele>488.33333333333337</ele><time>2026-05-02T07:41:10.92Z</time></trkpt><trkpt lat="46.1455638" lon="13.6038222"><ele>493.5</ele><time>2026-05-02T07:41:11.92Z</time></trkpt><trkpt lat="46.1454896" lon="13.6038753"><ele>498.66666666666663</ele><time>2026-05-02T07:41:13.916Z</time></trkpt><trkpt lat="46.1454695" lon="13.6037771"><ele>503.8333333333333</ele><time>2026-05-02T07:41:18.919Z</time></trkpt><trkpt lat="46.1455228" lon="13.6036258"><ele>509.0</ele><time>2026-05-02T07:41:20.917Z</time></trkpt><trkpt lat="46.1455622" lon="13.6035415"><ele>510.49999999999994</ele><time>2026-05-02T07:41:21.938Z</time></trkpt><trkpt lat="46.1455761" lon="13.60344"><ele>512.0</ele><time>2026-05-02T07:41:22.932Z</time></trkpt><trkpt lat="46.1455914" lon="13.6033143"><ele>513.5</ele><time>2026-05-02T07:41:23.918Z</time></trkpt><trkpt lat="46.1456236" lon="13.6032111"><ele>515.0</ele><time>2026-05-02T07:41:24.929Z</time></trkpt><trkpt lat="46.1456687" lon="13.6030976"><ele>516.5</ele><time>2026-05-02T07:41:25.923Z</time></trkpt><trkpt lat="46.1456777" lon="13.6029897"><ele>518.0</ele><time>2026-05-02T07:41:26.918Z</time></trkpt><trkpt lat="46.1456654" lon="13.6027899"><ele>518.0</ele><time>2026-05-02T07:41:28.923Z</time></trkpt><trkpt lat="46.1456589" lon="13.6026971"><ele>518.0</ele><time>2026-05-02T07:41:29.923Z</time></trkpt><trkpt lat="46.145628" lon="13.6025852"><ele>518.0</ele><time>2026-05-02T07:41:31.926Z</time></trkpt><trkpt lat="46.1455488" lon="13.6026269"><ele>518.0</ele><time>2026-05-02T07:41:34.924Z</time></trkpt><trkpt lat="46.145515" lon="13.6027424"><ele>518.0</ele><time>2026-05-02T07:41:36.921Z</time></trkpt><trkpt lat="46.145472" lon="13.6028723"><ele>518.0</ele><time>2026-05-02T07:41:38.922Z</time></trkpt><trkpt lat="46.1454248" lon="13.6030064"><ele>518.0</ele><time>2026-05-02T07:41:40.918Z</time></trkpt><trkpt lat="46.1453555" lon="13.6031158"><ele>518.0</ele><time>2026-05-02T07:41:42.925Z</time></trkpt><trkpt lat="46.1452952" lon="13.6031582"><ele>518.0</ele><time>2026-05-02T07:41:43.922Z</time></trkpt><trkpt lat="46.145236" lon="13.6032026"><ele>518.0</ele><time>2026-05-02T07:41:44.918Z</time></trkpt><trkpt lat="46.1451727" lon="13.6032462"><ele>518.0</ele><time>2026-05-02T07:41:45.917Z</time></trkpt><trkpt lat="46.1451128" lon="13.603292"><ele>518.0</ele><time>2026-05-02T07:41:46.924Z</time></trkpt><trkpt lat="46.1450537" lon="13.603335"><ele>518.0</ele><time>2026-05-02T07:41:47.92Z</time></trkpt><trkpt lat="46.1449179" lon="13.6034965"><ele>523.8333333333333</ele><time>2026-05-02T07:41:51.923Z</time></trkpt><trkpt lat="46.1448642" lon="13.6035973"><ele>529.6666666666666</ele><time>2026-05-02T07:41:54.918Z</time></trkpt><trkpt lat="46.1448438" lon="13.6037191"><ele>535.5</ele><time>2026-05-02T07:41:56.919Z</time></trkpt><trkpt lat="46.1448296" lon="13.6038534"><ele>541.3333333333334</ele><time>2026-05-02T07:41:58.924Z</time></trkpt><trkpt lat="46.1448089" lon="13.6039575"><ele>547.1666666666667</ele><time>2026-05-02T07:42:00.919Z</time></trkpt><trkpt lat="46.1447579" lon="13.6040482"><ele>553.0</ele><time>2026-05-02T07:42:02.919Z</time></trkpt><trkpt lat="46.1447179" lon="13.6041447"><ele>553.0</ele><time>2026-05-02T07:42:04.924Z</time></trkpt><trkpt lat="46.1447084" lon="13.6042542"><ele>553.0</ele><time>2026-05-02T07:42:06.916Z</time></trkpt><trkpt lat="46.1447069" lon="13.6043814"><ele>553.0</ele><time>2026-05-02T07:42:09.925Z</time></trkpt><trkpt lat="46.1445478" lon="13.6045858"><ele>553.0</ele><time>2026-05-02T07:42:37.923Z</time></trkpt><trkpt lat="46.1444672" lon="13.604569"><ele>553.0</ele><time>2026-05-02T07:42:39.924Z</time></trkpt><trkpt lat="46.1444762" lon="13.6044561"><ele>553.0</ele><time>2026-05-02T07:42:41.916Z</time></trkpt><trkpt lat="46.1445086" lon="13.6042806"><ele>553.0</ele><time>2026-05-02T07:42:43.915Z</time></trkpt><trkpt lat="46.1445082" lon="13.6041888"><ele>553.0</ele><time>2026-05-02T07:42:44.922Z</time></trkpt><trkpt lat="46.1445028" lon="13.6040771"><ele>553.0</ele><time>2026-05-02T07:42:45.916Z</time></trkpt><trkpt lat="46.1445002" lon="13.6039485"><ele>553.0</ele><time>2026-05-02T07:42:46.92Z</time></trkpt><trkpt lat="46.1445063" lon="13.6038014"><ele>555.0</ele><time>2026-05-02T07:42:47.926Z</time></trkpt><trkpt lat="46.1444997" lon="13.6036524"><ele>557.0</ele><time>2026-05-02T07:42:48.926Z</time></trkpt><trkpt lat="46.1444914" lon="13.6035212"><ele>559.0</ele><time>2026-05-02T07:42:49.918Z</time></trkpt><trkpt lat="46.1444816" lon="13.6033711"><ele>561.0</ele><time>2026-05-02T07:42:50.919Z</time></trkpt><trkpt lat="46.1444867" lon="13.6032373"><ele>563.0</ele><time>2026-05-02T07:42:51.916Z</time></trkpt><trkpt lat="46.144484" lon="13.6031143"><ele>563.0</ele><time>2026-05-02T07:42:52.918Z</time></trkpt><trkpt lat="46.1444843" lon="13.6030083"><ele>563.0</ele><time>2026-05-02T07:42:53.916Z</time></trkpt><trkpt lat="46.1445357" lon="13.602878"><ele>563.0</ele><time>2026-05-02T07:42:55.918Z</time></trkpt><trkpt lat="46.1446235" lon="13.602713"><ele>563.0</ele><time>2026-05-02T07:42:57.921Z</time></trkpt><trkpt lat="46.1446763" lon="13.6026111"><ele>563.0</ele><time>2026-05-02T07:42:58.923Z</time></trkpt><trkpt lat="46.1447308" lon="13.6025042"><ele>565.4</ele><time>2026-05-02T07:42:59.916Z</time></trkpt><trkpt lat="46.1447704" lon="13.6024082"><ele>567.8</ele><time>2026-05-02T07:43:00.927Z</time></trkpt><trkpt lat="46.1447706" lon="13.6022403"><ele>570.2</ele><time>2026-05-02T07:43:02.92Z</time></trkpt><trkpt lat="46.1447287" lon="13.6020586"><ele>572.6</ele><time>2026-05-02T07:43:04.918Z</time></trkpt><trkpt lat="46.1447148" lon="13.6019507"><ele>575.0</ele><time>2026-05-02T07:43:05.921Z</time></trkpt><trkpt lat="46.1447263" lon="13.6018433"><ele>578.0</ele><time>2026-05-02T07:43:06.937Z</time></trkpt><trkpt lat="46.1447403" lon="13.6017116"><ele>581.0</ele><time>2026-05-02T07:43:07.919Z</time></trkpt><trkpt lat="46.144763" lon="13.601568"><ele>584.0</ele><time>2026-05-02T07:43:08.913Z</time></trkpt><trkpt lat="46.1447944" lon="13.6014327"><ele>587.0</ele><time>2026-05-02T07:43:09.919Z</time></trkpt><trkpt lat="46.1448147" lon="13.6012892"><ele>590.0</ele><time>2026-05-02T07:43:10.915Z</time></trkpt><trkpt lat="46.1448245" lon="13.6011449"><ele>591.8</ele><time>2026-05-02T07:43:11.919Z</time></trkpt><trkpt lat="46.1448326" lon="13.6010096"><ele>593.6</ele><time>2026-05-02T07:43:12.925Z</time></trkpt><trkpt lat="46.144836" lon="13.6009063"><ele>595.4</ele><time>2026-05-02T07:43:13.922Z</time></trkpt><trkpt lat="46.1448762" lon="13.6007349"><ele>597.2</ele><time>2026-05-02T07:43:15.924Z</time></trkpt><trkpt lat="46.1449716" lon="13.6006395"><ele>599.0</ele><time>2026-05-02T07:43:17.929Z</time></trkpt><trkpt lat="46.1451461" lon="13.60052"><ele>594.4</ele><time>2026-05-02T07:43:20.921Z</time></trkpt><trkpt lat="46.145216" lon="13.6004631"><ele>589.8</ele><time>2026-05-02T07:43:21.918Z</time></trkpt><trkpt lat="46.1452817" lon="13.6003933"><ele>585.2</ele><time>2026-05-02T07:43:22.919Z</time></trkpt><trkpt lat="46.1453442" lon="13.6003109"><ele>580.6</ele><time>2026-05-02T07:43:23.918Z</time></trkpt><trkpt lat="46.1454117" lon="13.6001898"><ele>576.0</ele><time>2026-05-02T07:43:24.917Z</time></trkpt><trkpt lat="46.1454898" lon="13.6000666"><ele>576.0</ele><time>2026-05-02T07:43:25.925Z</time></trkpt><trkpt lat="46.1455736" lon="13.5999533"><ele>576.0</ele><time>2026-05-02T07:43:26.92Z</time></trkpt><trkpt lat="46.1456464" lon="13.5998332"><ele>576.0</ele><time>2026-05-02T07:43:27.917Z</time></trkpt><trkpt lat="46.1456944" lon="13.5997164"><ele>576.0</ele><time>2026-05-02T07:43:28.918Z</time></trkpt><trkpt lat="46.1457239" lon="13.5996094"><ele>576.0</ele><time>2026-05-02T07:43:29.924Z</time></trkpt><trkpt lat="46.1457404" lon="13.5995051"><ele>577.6666666666666</ele><time>2026-05-02T07:43:30.92Z</time></trkpt><trkpt lat="46.1457543" lon="13.5994041"><ele>579.3333333333334</ele><time>2026-05-02T07:43:31.922Z</time></trkpt><trkpt lat="46.1457644" lon="13.5993095"><ele>581.0</ele><time>2026-05-02T07:43:32.929Z</time></trkpt><trkpt lat="46.1457369" lon="13.5992199"><ele>582.6666666666667</ele><time>2026-05-02T07:43:33.921Z</time></trkpt><trkpt lat="46.1456946" lon="13.5991383"><ele>584.3333333333334</ele><time>2026-05-02T07:43:34.915Z</time></trkpt><trkpt lat="46.1456318" lon="13.5990574"><ele>586.0</ele><time>2026-05-02T07:43:35.919Z</time></trkpt><trkpt lat="46.1455506" lon="13.5989766"><ele>586.0</ele><time>2026-05-02T07:43:36.926Z</time></trkpt><trkpt lat="46.1454503" lon="13.5988894"><ele>586.0</ele><time>2026-05-02T07:43:37.915Z</time></trkpt><trkpt lat="46.1453514" lon="13.5988078"><ele>586.0</ele><time>2026-05-02T07:43:38.918Z</time></trkpt><trkpt lat="46.145217" lon="13.598638"><ele>586.0</ele><time>2026-05-02T07:43:40.929Z</time></trkpt><trkpt lat="46.1451788" lon="13.5985398"><ele>585.6</ele><time>2026-05-02T07:43:41.925Z</time></trkpt><trkpt lat="46.1451663" lon="13.5984505"><ele>585.2</ele><time>2026-05-02T07:43:42.924Z</time></trkpt><trkpt lat="46.1452311" lon="13.5983365"><ele>584.8</ele><time>2026-05-02T07:43:44.926Z</time></trkpt><trkpt lat="46.1453363" lon="13.5982875"><ele>584.4</ele><time>2026-05-02T07:43:46.92Z</time></trkpt><trkpt lat="46.1453981" lon="13.5982608"><ele>584.0</ele><time>2026-05-02T07:43:47.923Z</time></trkpt><trkpt lat="46.145492" lon="13.5981646"><ele>584.0</ele><time>2026-05-02T07:43:49.919Z</time></trkpt><trkpt lat="46.1455423" lon="13.598094"><ele>584.0</ele><time>2026-05-02T07:43:50.923Z</time></trkpt><trkpt lat="46.1455896" lon="13.5980202"><ele>584.0</ele><time>2026-05-02T07:43:51.92Z</time></trkpt><trkpt lat="46.1456299" lon="13.5979492"><ele>584.0</ele><time>2026-05-02T07:43:52.918Z</time></trkpt><trkpt lat="46.145698" lon="13.5979312"><ele>584.0</ele><time>2026-05-02T07:43:53.931Z</time></trkpt><trkpt lat="46.1457855" lon="13.5979212"><ele>584.0</ele><time>2026-05-02T07:43:54.935Z</time></trkpt><trkpt lat="46.1458818" lon="13.5979075"><ele>581.4</ele><time>2026-05-02T07:43:55.924Z</time></trkpt><trkpt lat="46.1459762" lon="13.5978928"><ele>578.8</ele><time>2026-05-02T07:43:56.92Z</time></trkpt><trkpt lat="46.1460647" lon="13.5978663"><ele>576.2</ele><time>2026-05-02T07:43:57.917Z</time></trkpt><trkpt lat="46.1461561" lon="13.5978081"><ele>573.6</ele><time>2026-05-02T07:43:58.925Z</time></trkpt><trkpt lat="46.1462517" lon="13.5977289"><ele>571.0</ele><time>2026-05-02T07:43:59.922Z</time></trkpt><trkpt lat="46.1463789" lon="13.597556"><ele>571.0</ele><time>2026-05-02T07:44:01.918Z</time></trkpt><trkpt lat="46.1464013" lon="13.5974515"><ele>571.0</ele><time>2026-05-02T07:44:03.916Z</time></trkpt><trkpt lat="46.1463861" lon="13.5973435"><ele>571.0</ele><time>2026-05-02T07:44:05.913Z</time></trkpt><trkpt lat="46.1463584" lon="13.597206"><ele>571.0</ele><time>2026-05-02T07:44:07.92Z</time></trkpt><trkpt lat="46.1463146" lon="13.5970592"><ele>571.0</ele><time>2026-05-02T07:44:09.914Z</time></trkpt><trkpt lat="46.1463063" lon="13.5969276"><ele>574.0</ele><time>2026-05-02T07:44:11.916Z</time></trkpt><trkpt lat="46.1463971" lon="13.5968256"><ele>577.0</ele><time>2026-05-02T07:44:13.922Z</time></trkpt><trkpt lat="46.1464505" lon="13.596755"><ele>580.0</ele><time>2026-05-02T07:44:14.922Z</time></trkpt><trkpt lat="46.14652" lon="13.5966581"><ele>583.0</ele><time>2026-05-02T07:44:15.911Z</time></trkpt><trkpt lat="46.1465843" lon="13.5965528"><ele>586.0</ele><time>2026-05-02T07:44:16.922Z</time></trkpt><trkpt lat="46.1466448" lon="13.5964482"><ele>585.8</ele><time>2026-05-02T07:44:17.919Z</time></trkpt><trkpt lat="46.1466738" lon="13.5963325"><ele>585.6</ele><time>2026-05-02T07:44:18.935Z</time></trkpt><trkpt lat="46.1466871" lon="13.5962209"><ele>585.4</ele><time>2026-05-02T07:44:19.914Z</time></trkpt><trkpt lat="46.1466915" lon="13.5961189"><ele>585.2</ele><time>2026-05-02T07:44:20.935Z</time></trkpt><trkpt lat="46.1465772" lon="13.5959486"><ele>585.0</ele><time>2026-05-02T07:44:23.926Z</time></trkpt><trkpt lat="46.1464977" lon="13.5958976"><ele>585.0</ele><time>2026-05-02T07:44:24.925Z</time></trkpt><trkpt lat="46.1464056" lon="13.5958544"><ele>585.0</ele><time>2026-05-02T07:44:25.92Z</time></trkpt><trkpt lat="46.1463261" lon="13.5958149"><ele>585.0</ele><time>2026-05-02T07:44:26.924Z</time></trkpt><trkpt lat="46.1462308" lon="13.5957269"><ele>585.0</ele><time>2026-05-02T07:44:28.918Z</time></trkpt><trkpt lat="46.1462166" lon="13.5955924"><ele>585.0</ele><time>2026-05-02T07:44:30.919Z</time></trkpt><trkpt lat="46.1462478" lon="13.5954898"><ele>585.0</ele><time>2026-05-02T07:44:31.922Z</time></trkpt><trkpt lat="46.1462951" lon="13.5953714"><ele>585.0</ele><time>2026-05-02T07:44:32.921Z</time></trkpt><trkpt lat="46.1463478" lon="13.5952391"><ele>585.0</ele><time>2026-05-02T07:44:33.921Z</time></trkpt><trkpt lat="46.1464102" lon="13.5951064"><ele>585.0</ele><time>2026-05-02T07:44:34.916Z</time></trkpt><trkpt lat="46.1464659" lon="13.594968"><ele>585.0</ele><time>2026-05-02T07:44:35.914Z</time></trkpt><trkpt lat="46.1465017" lon="13.5948501"><ele>585.0</ele><time>2026-05-02T07:44:36.93Z</time></trkpt><trkpt lat="46.1465328" lon="13.5947557"><ele>585.0</ele><time>2026-05-02T07:44:37.923Z</time></trkpt><trkpt lat="46.1465042" lon="13.5946694"><ele>585.0</ele><time>2026-05-02T07:44:39.928Z</time></trkpt><trkpt lat="46.1463749" lon="13.5946801"><ele>585.0</ele><time>2026-05-02T07:44:41.918Z</time></trkpt><trkpt lat="46.1461771" lon="13.5947284"><ele>585.0</ele><time>2026-05-02T07:44:43.922Z</time></trkpt><trkpt lat="46.1460823" lon="13.5947445"><ele>585.0</ele><time>2026-05-02T07:44:44.918Z</time></trkpt><trkpt lat="46.1459945" lon="13.5947549"><ele>585.0</ele><time>2026-05-02T07:44:45.922Z</time></trkpt><trkpt lat="46.1459176" lon="13.5947619"><ele>585.0</ele><time>2026-05-02T07:44:46.93Z</time></trkpt><trkpt lat="46.1458529" lon="13.5947586"><ele>585.0</ele><time>2026-05-02T07:44:47.922Z</time></trkpt><trkpt lat="46.1457527" lon="13.5947077"><ele>585.0</ele><time>2026-05-02T07:44:49.919Z</time></trkpt><trkpt lat="46.1456884" lon="13.5946128"><ele>591.0</ele><time>2026-05-02T07:44:51.921Z</time></trkpt><trkpt lat="46.1456381" lon="13.5945575"><ele>597.0</ele><time>2026-05-02T07:44:52.918Z</time></trkpt><trkpt lat="46.1455791" lon="13.5944495"><ele>603.0</ele><time>2026-05-02T07:44:54.92Z</time></trkpt><trkpt lat="46.1455805" lon="13.5942782"><ele>609.0</ele><time>2026-05-02T07:44:56.924Z</time></trkpt><trkpt lat="46.1455913" lon="13.5941435"><ele>615.0</ele><time>2026-05-02T07:44:57.916Z</time></trkpt><trkpt lat="46.1456086" lon="13.5940049"><ele>615.0</ele><time>2026-05-02T07:44:58.92Z</time></trkpt><trkpt lat="46.1456264" lon="13.5938554"><ele>615.0</ele><time>2026-05-02T07:44:59.917Z</time></trkpt><trkpt lat="46.1456289" lon="13.5937279"><ele>615.0</ele><time>2026-05-02T07:45:00.927Z</time></trkpt><trkpt lat="46.145617" lon="13.5936046"><ele>615.0</ele><time>2026-05-02T07:45:01.915Z</time></trkpt><trkpt lat="46.1455847" lon="13.5934604"><ele>615.0</ele><time>2026-05-02T07:45:03.921Z</time></trkpt><trkpt lat="46.1454633" lon="13.5932867"><ele>614.1428571428571</ele><time>2026-05-02T07:45:07.919Z</time></trkpt><trkpt lat="46.1454544" lon="13.5931926"><ele>613.2857142857143</ele><time>2026-05-02T07:45:09.924Z</time></trkpt><trkpt lat="46.1454914" lon="13.5931006"><ele>612.4285714285714</ele><time>2026-05-02T07:45:11.929Z</time></trkpt><trkpt lat="46.1455245" lon="13.5929669"><ele>611.5714285714286</ele><time>2026-05-02T07:45:13.919Z</time></trkpt><trkpt lat="46.1455696" lon="13.5929027"><ele>610.7142857142858</ele><time>2026-05-02T07:45:14.926Z</time></trkpt><trkpt lat="46.1456221" lon="13.5928313"><ele>609.8571428571429</ele><time>2026-05-02T07:45:15.92Z</time></trkpt><trkpt lat="46.145671" lon="13.5927615"><ele>609.0</ele><time>2026-05-02T07:45:16.91Z</time></trkpt><trkpt lat="46.145711" lon="13.5926679"><ele>608.5</ele><time>2026-05-02T07:45:17.917Z</time></trkpt><trkpt lat="46.1457398" lon="13.5925601"><ele>608.0</ele><time>2026-05-02T07:45:18.919Z</time></trkpt><trkpt lat="46.1457488" lon="13.5924395"><ele>607.5</ele><time>2026-05-02T07:45:19.912Z</time></trkpt><trkpt lat="46.1457375" lon="13.5923304"><ele>607.0</ele><time>2026-05-02T07:45:20.919Z</time></trkpt><trkpt lat="46.1457173" lon="13.5922227"><ele>606.5</ele><time>2026-05-02T07:45:21.915Z</time></trkpt><trkpt lat="46.1456993" lon="13.5920943"><ele>606.0</ele><time>2026-05-02T07:45:22.921Z</time></trkpt><trkpt lat="46.1456748" lon="13.5919688"><ele>606.0</ele><time>2026-05-02T07:45:23.919Z</time></trkpt><trkpt lat="46.1456398" lon="13.5918361"><ele>606.0</ele><time>2026-05-02T07:45:24.918Z</time></trkpt><trkpt lat="46.1455655" lon="13.5915492"><ele>606.0</ele><time>2026-05-02T07:45:26.922Z</time></trkpt><trkpt lat="46.1455471" lon="13.5914282"><ele>606.0</ele><time>2026-05-02T07:45:27.923Z</time></trkpt><trkpt lat="46.1455459" lon="13.5913251"><ele>606.0</ele><time>2026-05-02T07:45:28.917Z</time></trkpt><trkpt lat="46.1455509" lon="13.5911998"><ele>606.0</ele><time>2026-05-02T07:45:29.917Z</time></trkpt><trkpt lat="46.1455678" lon="13.5910681"><ele>606.0</ele><time>2026-05-02T07:45:30.921Z</time></trkpt><trkpt lat="46.1455886" lon="13.5909135"><ele>606.0</ele><time>2026-05-02T07:45:31.918Z</time></trkpt><trkpt lat="46.1456077" lon="13.5907615"><ele>606.0</ele><time>2026-05-02T07:45:32.918Z</time></trkpt><trkpt lat="46.1456171" lon="13.5906203"><ele>606.8333333333334</ele><time>2026-05-02T07:45:33.914Z</time></trkpt><trkpt lat="46.1456191" lon="13.5904726"><ele>607.6666666666666</ele><time>2026-05-02T07:45:34.919Z</time></trkpt><trkpt lat="46.1456515" lon="13.5903579"><ele>608.5</ele><time>2026-05-02T07:45:35.92Z</time></trkpt><trkpt lat="46.1456926" lon="13.5902671"><ele>609.3333333333333</ele><time>2026-05-02T07:45:36.918Z</time></trkpt><trkpt lat="46.1457421" lon="13.5901858"><ele>610.1666666666666</ele><time>2026-05-02T07:45:37.919Z</time></trkpt><trkpt lat="46.145788" lon="13.5901147"><ele>611.0</ele><time>2026-05-02T07:45:38.918Z</time></trkpt><trkpt lat="46.1458134" lon="13.5900249"><ele>604.6</ele><time>2026-05-02T07:45:39.918Z</time></trkpt><trkpt lat="46.1458263" lon="13.5899151"><ele>598.2</ele><time>2026-05-02T07:45:40.927Z</time></trkpt><trkpt lat="46.1458272" lon="13.5897838"><ele>591.8</ele><time>2026-05-02T07:45:41.925Z</time></trkpt><trkpt lat="46.1458349" lon="13.5896256"><ele>585.4</ele><time>2026-05-02T07:45:42.924Z</time></trkpt><trkpt lat="46.1458372" lon="13.5894658"><ele>579.0</ele><time>2026-05-02T07:45:43.919Z</time></trkpt><trkpt lat="46.14584" lon="13.5893307"><ele>579.0</ele><time>2026-05-02T07:45:44.923Z</time></trkpt><trkpt lat="46.1458407" lon="13.5892145"><ele>579.0</ele><time>2026-05-02T07:45:45.92Z</time></trkpt><trkpt lat="46.1458458" lon="13.5889977"><ele>579.0</ele><time>2026-05-02T07:45:47.925Z</time></trkpt><trkpt lat="46.1458613" lon="13.5888799"><ele>579.0</ele><time>2026-05-02T07:45:48.921Z</time></trkpt><trkpt lat="46.1458978" lon="13.5887654"><ele>579.0</ele><time>2026-05-02T07:45:49.925Z</time></trkpt><trkpt lat="46.1459504" lon="13.5886782"><ele>583.6</ele><time>2026-05-02T07:45:50.918Z</time></trkpt><trkpt lat="46.1460056" lon="13.5886203"><ele>588.2</ele><time>2026-05-02T07:45:51.915Z</time></trkpt><trkpt lat="46.1460853" lon="13.5885646"><ele>592.8000000000001</ele><time>2026-05-02T07:45:52.918Z</time></trkpt><trkpt lat="46.1461787" lon="13.5885107"><ele>597.4</ele><time>2026-05-02T07:45:53.919Z</time></trkpt><trkpt lat="46.1462727" lon="13.5884533"><ele>602.0</ele><time>2026-05-02T07:45:54.923Z</time></trkpt><trkpt lat="46.1463839" lon="13.5883989"><ele>602.0</ele><time>2026-05-02T07:45:55.926Z</time></trkpt><trkpt lat="46.1464863" lon="13.5883282"><ele>602.0</ele><time>2026-05-02T07:45:56.913Z</time></trkpt><trkpt lat="46.1465917" lon="13.588263"><ele>602.0</ele><time>2026-05-02T07:45:57.924Z</time></trkpt><trkpt lat="46.1466728" lon="13.5882121"><ele>602.0</ele><time>2026-05-02T07:45:58.917Z</time></trkpt><trkpt lat="46.1467254" lon="13.5881613"><ele>602.0</ele><time>2026-05-02T07:45:59.927Z</time></trkpt><trkpt lat="46.1466074" lon="13.5881818"><ele>602.0</ele><time>2026-05-02T07:46:07.924Z</time></trkpt><trkpt lat="46.146428" lon="13.5883153"><ele>602.0</ele><time>2026-05-02T07:46:09.915Z</time></trkpt><trkpt lat="46.146275" lon="13.5884417"><ele>602.0</ele><time>2026-05-02T07:46:10.927Z</time></trkpt><trkpt lat="46.1461208" lon="13.5885504"><ele>602.0</ele><time>2026-05-02T07:46:11.926Z</time></trkpt><trkpt lat="46.1459562" lon="13.588652"><ele>602.0</ele><time>2026-05-02T07:46:12.918Z</time></trkpt><trkpt lat="46.1458937" lon="13.5887121"><ele>602.0</ele><time>2026-05-02T07:46:13.916Z</time></trkpt><trkpt lat="46.145817" lon="13.5888145"><ele>602.0</ele><time>2026-05-02T07:46:15.919Z</time></trkpt><trkpt lat="46.1457412" lon="13.5889513"><ele>604.8333333333333</ele><time>2026-05-02T07:46:17.919Z</time></trkpt><trkpt lat="46.1457074" lon="13.589045"><ele>607.6666666666666</ele><time>2026-05-02T07:46:18.921Z</time></trkpt><trkpt lat="46.1456778" lon="13.5891342"><ele>610.5</ele><time>2026-05-02T07:46:19.92Z</time></trkpt><trkpt lat="46.1456304" lon="13.5892573"><ele>613.3333333333334</ele><time>2026-05-02T07:46:20.913Z</time></trkpt><trkpt lat="46.1456257" lon="13.5893522"><ele>616.1666666666667</ele><time>2026-05-02T07:46:21.924Z</time></trkpt><trkpt lat="46.1456043" lon="13.5894776"><ele>619.0</ele><time>2026-05-02T07:46:22.921Z</time></trkpt><trkpt lat="46.1455515" lon="13.5896129"><ele>619.0</ele><time>2026-05-02T07:46:23.916Z</time></trkpt><trkpt lat="46.1454867" lon="13.5897439"><ele>619.0</ele><time>2026-05-02T07:46:24.935Z</time></trkpt><trkpt lat="46.1454177" lon="13.5899056"><ele>619.0</ele><time>2026-05-02T07:46:25.937Z</time></trkpt><trkpt lat="46.1453538" lon="13.590087"><ele>619.0</ele><time>2026-05-02T07:46:26.913Z</time></trkpt><trkpt lat="46.1453178" lon="13.590258"><ele>617.0</ele><time>2026-05-02T07:46:27.919Z</time></trkpt><trkpt lat="46.1453137" lon="13.5904282"><ele>615.0</ele><time>2026-05-02T07:46:28.913Z</time></trkpt><trkpt lat="46.1453081" lon="13.5907383"><ele>613.0</ele><time>2026-05-02T07:46:30.914Z</time></trkpt><trkpt lat="46.1452809" lon="13.5908616"><ele>611.0</ele><time>2026-05-02T07:46:31.917Z</time></trkpt><trkpt lat="46.1452346" lon="13.5909931"><ele>611.0</ele><time>2026-05-02T07:46:32.921Z</time></trkpt><trkpt lat="46.1451658" lon="13.5911146"><ele>611.0</ele><time>2026-05-02T07:46:33.914Z</time></trkpt><trkpt lat="46.1450965" lon="13.5912281"><ele>611.0</ele><time>2026-05-02T07:46:34.92Z</time></trkpt><trkpt lat="46.1450414" lon="13.5913326"><ele>611.0</ele><time>2026-05-02T07:46:35.914Z</time></trkpt><trkpt lat="46.1450109" lon="13.5914628"><ele>611.0</ele><time>2026-05-02T07:46:36.914Z</time></trkpt><trkpt lat="46.1449929" lon="13.5915851"><ele>610.1666666666666</ele><time>2026-05-02T07:46:37.918Z</time></trkpt><trkpt lat="46.1449771" lon="13.5917066"><ele>609.3333333333333</ele><time>2026-05-02T07:46:38.928Z</time></trkpt><trkpt lat="46.1449939" lon="13.591801"><ele>608.5</ele><time>2026-05-02T07:46:39.917Z</time></trkpt><trkpt lat="46.145011" lon="13.5918919"><ele>607.6666666666666</ele><time>2026-05-02T07:46:40.926Z</time></trkpt><trkpt lat="46.1450209" lon="13.5919923"><ele>606.8333333333334</ele><time>2026-05-02T07:46:41.914Z</time></trkpt><trkpt lat="46.1450013" lon="13.5921001"><ele>606.0</ele><time>2026-05-02T07:46:42.917Z</time></trkpt><trkpt lat="46.1449648" lon="13.5922135"><ele>605.8333333333334</ele><time>2026-05-02T07:46:43.911Z</time></trkpt><trkpt lat="46.1449362" lon="13.5923352"><ele>605.6666666666666</ele><time>2026-05-02T07:46:44.917Z</time></trkpt><trkpt lat="46.144906" lon="13.592457"><ele>605.5</ele><time>2026-05-02T07:46:45.938Z</time></trkpt><trkpt lat="46.1448907" lon="13.5925831"><ele>605.3333333333333</ele><time>2026-05-02T07:46:46.914Z</time></trkpt><trkpt lat="46.1448974" lon="13.5927069"><ele>605.1666666666666</ele><time>2026-05-02T07:46:47.919Z</time></trkpt><trkpt lat="46.1449196" lon="13.5928104"><ele>605.0</ele><time>2026-05-02T07:46:48.917Z</time></trkpt><trkpt lat="46.1449435" lon="13.5929083"><ele>605.8</ele><time>2026-05-02T07:46:49.917Z</time></trkpt><trkpt lat="46.1448584" lon="13.5932106"><ele>606.6</ele><time>2026-05-02T07:46:53.922Z</time></trkpt><trkpt lat="46.1448246" lon="13.5933002"><ele>607.4</ele><time>2026-05-02T07:46:54.917Z</time></trkpt><trkpt lat="46.1448044" lon="13.5933959"><ele>608.2</ele><time>2026-05-02T07:46:55.916Z</time></trkpt><trkpt lat="46.1447309" lon="13.593442"><ele>609.0</ele><time>2026-05-02T07:46:58.923Z</time></trkpt><trkpt lat="46.1446695" lon="13.5933639"><ele>609.0</ele><time>2026-05-02T07:47:03.924Z</time></trkpt><trkpt lat="46.1446237" lon="13.5931745"><ele>609.0</ele><time>2026-05-02T07:48:24.92Z</time></trkpt><trkpt lat="46.1445538" lon="13.5928668"><ele>609.0</ele><time>2026-05-02T07:48:29.91Z</time></trkpt><trkpt lat="46.1445167" lon="13.5927378"><ele>607.6</ele><time>2026-05-02T07:48:30.919Z</time></trkpt><trkpt lat="46.1444867" lon="13.592614"><ele>606.2</ele><time>2026-05-02T07:48:31.919Z</time></trkpt><trkpt lat="46.1444422" lon="13.5924662"><ele>604.8000000000001</ele><time>2026-05-02T07:48:32.919Z</time></trkpt><trkpt lat="46.1443896" lon="13.59234"><ele>603.4</ele><time>2026-05-02T07:48:33.922Z</time></trkpt><trkpt lat="46.1443483" lon="13.5922276"><ele>602.0</ele><time>2026-05-02T07:48:34.924Z</time></trkpt><trkpt lat="46.1443085" lon="13.5921262"><ele>602.0</ele><time>2026-05-02T07:48:35.925Z</time></trkpt><trkpt lat="46.1442763" lon="13.5920303"><ele>602.0</ele><time>2026-05-02T07:48:36.917Z</time></trkpt><trkpt lat="46.1442697" lon="13.5919341"><ele>602.0</ele><time>2026-05-02T07:48:37.922Z</time></trkpt><trkpt lat="46.1442736" lon="13.5918206"><ele>602.0</ele><time>2026-05-02T07:48:38.916Z</time></trkpt><trkpt lat="46.1442791" lon="13.5917166"><ele>602.0</ele><time>2026-05-02T07:48:39.918Z</time></trkpt><trkpt lat="46.1442743" lon="13.5916239"><ele>602.0</ele><time>2026-05-02T07:48:40.919Z</time></trkpt><trkpt lat="46.144189" lon="13.5915573"><ele>603.2</ele><time>2026-05-02T07:48:43.919Z</time></trkpt><trkpt lat="46.1441135" lon="13.5915277"><ele>604.4000000000001</ele><time>2026-05-02T07:48:44.92Z</time></trkpt><trkpt lat="46.1440496" lon="13.591454"><ele>605.5999999999999</ele><time>2026-05-02T07:48:45.923Z</time></trkpt><trkpt lat="46.1438976" lon="13.5912989"><ele>606.8</ele><time>2026-05-02T07:48:47.918Z</time></trkpt><trkpt lat="46.1438146" lon="13.5912277"><ele>608.0</ele><time>2026-05-02T07:48:48.922Z</time></trkpt><trkpt lat="46.1437388" lon="13.5911431"><ele>603.6</ele><time>2026-05-02T07:48:49.919Z</time></trkpt><trkpt lat="46.1436766" lon="13.5910505"><ele>599.1999999999999</ele><time>2026-05-02T07:48:50.916Z</time></trkpt><trkpt lat="46.1436137" lon="13.5909474"><ele>594.8</ele><time>2026-05-02T07:48:51.915Z</time></trkpt><trkpt lat="46.1435473" lon="13.5908358"><ele>590.4</ele><time>2026-05-02T07:48:52.915Z</time></trkpt><trkpt lat="46.1434864" lon="13.5907138"><ele>586.0</ele><time>2026-05-02T07:48:53.921Z</time></trkpt><trkpt lat="46.143433" lon="13.5905953"><ele>586.0</ele><time>2026-05-02T07:48:54.918Z</time></trkpt><trkpt lat="46.1433848" lon="13.590461"><ele>586.0</ele><time>2026-05-02T07:48:55.916Z</time></trkpt><trkpt lat="46.1433372" lon="13.5903127"><ele>586.0</ele><time>2026-05-02T07:48:56.911Z</time></trkpt><trkpt lat="46.1432928" lon="13.5901634"><ele>586.0</ele><time>2026-05-02T07:48:57.912Z</time></trkpt><trkpt lat="46.1432547" lon="13.5900279"><ele>586.0</ele><time>2026-05-02T07:48:58.911Z</time></trkpt><trkpt lat="46.1432299" lon="13.5898828"><ele>576.8</ele><time>2026-05-02T07:48:59.911Z</time></trkpt><trkpt lat="46.1432134" lon="13.5897285"><ele>567.6</ele><time>2026-05-02T07:49:00.921Z</time></trkpt><trkpt lat="46.1432032" lon="13.5895679"><ele>558.4</ele><time>2026-05-02T07:49:01.911Z</time></trkpt><trkpt lat="46.1431899" lon="13.5894128"><ele>549.2</ele><time>2026-05-02T07:49:02.914Z</time></trkpt><trkpt lat="46.1431725" lon="13.589259"><ele>540.0</ele><time>2026-05-02T07:49:03.915Z</time></trkpt><trkpt lat="46.1431538" lon="13.5891024"><ele>539.0</ele><time>2026-05-02T07:49:04.914Z</time></trkpt><trkpt lat="46.1431411" lon="13.5889497"><ele>538.0</ele><time>2026-05-02T07:49:05.915Z</time></trkpt><trkpt lat="46.1431354" lon="13.5887927"><ele>537.0</ele><time>2026-05-02T07:49:06.929Z</time></trkpt><trkpt lat="46.1431564" lon="13.5885368"><ele>536.0</ele><time>2026-05-02T07:49:08.917Z</time></trkpt><trkpt lat="46.143192" lon="13.5884131"><ele>545.4</ele><time>2026-05-02T07:49:09.913Z</time></trkpt><trkpt lat="46.1432361" lon="13.5882962"><ele>554.8</ele><time>2026-05-02T07:49:10.921Z</time></trkpt><trkpt lat="46.1432721" lon="13.5881808"><ele>564.1999999999999</ele><time>2026-05-02T07:49:11.934Z</time></trkpt><trkpt lat="46.1433012" lon="13.5880516"><ele>573.6</ele><time>2026-05-02T07:49:12.919Z</time></trkpt><trkpt lat="46.143316" lon="13.5879244"><ele>583.0</ele><time>2026-05-02T07:49:13.914Z</time></trkpt><trkpt lat="46.1433092" lon="13.5877698"><ele>583.0</ele><time>2026-05-02T07:49:14.912Z</time></trkpt><trkpt lat="46.1432919" lon="13.5876018"><ele>583.0</ele><time>2026-05-02T07:49:15.924Z</time></trkpt><trkpt lat="46.1432754" lon="13.5874342"><ele>583.0</ele><time>2026-05-02T07:49:16.917Z</time></trkpt><trkpt lat="46.1432608" lon="13.5872796"><ele>583.0</ele><time>2026-05-02T07:49:17.916Z</time></trkpt><trkpt lat="46.1432418" lon="13.5871321"><ele>583.0</ele><time>2026-05-02T07:49:18.912Z</time></trkpt><trkpt lat="46.1432415" lon="13.5870002"><ele>583.5</ele><time>2026-05-02T07:49:19.911Z</time></trkpt><trkpt lat="46.1432358" lon="13.5868732"><ele>584.0</ele><time>2026-05-02T07:49:20.918Z</time></trkpt><trkpt lat="46.1432357" lon="13.58674"><ele>584.5</ele><time>2026-05-02T07:49:21.918Z</time></trkpt><trkpt lat="46.1432481" lon="13.5866139"><ele>585.0</ele><time>2026-05-02T07:49:22.927Z</time></trkpt><trkpt lat="46.1432607" lon="13.5864877"><ele>585.5</ele><time>2026-05-02T07:49:23.917Z</time></trkpt><trkpt lat="46.1432665" lon="13.5863656"><ele>586.0</ele><time>2026-05-02T07:49:24.926Z</time></trkpt><trkpt lat="46.1432605" lon="13.5862493"><ele>585.8</ele><time>2026-05-02T07:49:25.913Z</time></trkpt><trkpt lat="46.143248" lon="13.5861311"><ele>585.6</ele><time>2026-05-02T07:49:26.919Z</time></trkpt><trkpt lat="46.1432387" lon="13.5860086"><ele>585.4</ele><time>2026-05-02T07:49:27.913Z</time></trkpt><trkpt lat="46.1432192" lon="13.5857648"><ele>585.2</ele><time>2026-05-02T07:49:29.922Z</time></trkpt><trkpt lat="46.1432197" lon="13.5856406"><ele>585.0</ele><time>2026-05-02T07:49:30.915Z</time></trkpt><trkpt lat="46.1432" lon="13.5855102"><ele>578.6666666666666</ele><time>2026-05-02T07:49:31.915Z</time></trkpt><trkpt lat="46.1431965" lon="13.5854037"><ele>572.3333333333334</ele><time>2026-05-02T07:49:32.92Z</time></trkpt><trkpt lat="46.1431921" lon="13.585302"><ele>566.0</ele><time>2026-05-02T07:49:33.922Z</time></trkpt><trkpt lat="46.1431656" lon="13.5851993"><ele>559.6666666666667</ele><time>2026-05-02T07:49:34.919Z</time></trkpt><trkpt lat="46.1431193" lon="13.585078"><ele>553.3333333333334</ele><time>2026-05-02T07:49:35.921Z</time></trkpt><trkpt lat="46.1430714" lon="13.5849492"><ele>547.0</ele><time>2026-05-02T07:49:36.928Z</time></trkpt><trkpt lat="46.1430099" lon="13.5848291"><ele>547.0</ele><time>2026-05-02T07:49:37.918Z</time></trkpt><trkpt lat="46.142948" lon="13.5847195"><ele>547.0</ele><time>2026-05-02T07:49:38.918Z</time></trkpt><trkpt lat="46.1428939" lon="13.5846192"><ele>547.0</ele><time>2026-05-02T07:49:39.915Z</time></trkpt><trkpt lat="46.1428416" lon="13.5845033"><ele>547.0</ele><time>2026-05-02T07:49:40.917Z</time></trkpt><trkpt lat="46.1427941" lon="13.5843765"><ele>547.0</ele><time>2026-05-02T07:49:41.919Z</time></trkpt><trkpt lat="46.1427561" lon="13.5842652"><ele>546.5</ele><time>2026-05-02T07:49:42.914Z</time></trkpt><trkpt lat="46.1427363" lon="13.5841635"><ele>546.0</ele><time>2026-05-02T07:49:43.924Z</time></trkpt><trkpt lat="46.1427034" lon="13.5840702"><ele>545.5</ele><time>2026-05-02T07:49:44.915Z</time></trkpt><trkpt lat="46.1426137" lon="13.5839428"><ele>545.0</ele><time>2026-05-02T07:49:46.914Z</time></trkpt><trkpt lat="46.142548" lon="13.5839171"><ele>544.5</ele><time>2026-05-02T07:49:47.919Z</time></trkpt><trkpt lat="46.1424757" lon="13.5839058"><ele>544.0</ele><time>2026-05-02T07:49:48.916Z</time></trkpt><trkpt lat="46.1422494" lon="13.583935"><ele>544.0</ele><time>2026-05-02T07:49:50.914Z</time></trkpt><trkpt lat="46.1421376" lon="13.5839648"><ele>544.0</ele><time>2026-05-02T07:49:51.919Z</time></trkpt><trkpt lat="46.1420317" lon="13.5839982"><ele>544.0</ele><time>2026-05-02T07:49:52.916Z</time></trkpt><trkpt lat="46.1419511" lon="13.5840377"><ele>544.0</ele><time>2026-05-02T07:49:53.928Z</time></trkpt><trkpt lat="46.1418755" lon="13.584065"><ele>544.0</ele><time>2026-05-02T07:49:54.916Z</time></trkpt><trkpt lat="46.1418091" lon="13.5840979"><ele>544.0</ele><time>2026-05-02T07:49:55.928Z</time></trkpt><trkpt lat="46.1417237" lon="13.5841039"><ele>544.0</ele><time>2026-05-02T07:49:57.918Z</time></trkpt><trkpt lat="46.1416811" lon="13.584013"><ele>544.0</ele><time>2026-05-02T07:50:00.916Z</time></trkpt><trkpt lat="46.1416897" lon="13.5838347"><ele>544.0</ele><time>2026-05-02T07:50:02.924Z</time></trkpt><trkpt lat="46.1416798" lon="13.5837447"><ele>544.0</ele><time>2026-05-02T07:50:03.912Z</time></trkpt><trkpt lat="46.1416594" lon="13.583655"><ele>544.0</ele><time>2026-05-02T07:50:04.919Z</time></trkpt><trkpt lat="46.1416294" lon="13.5835615"><ele>546.4</ele><time>2026-05-02T07:50:05.919Z</time></trkpt><trkpt lat="46.1415967" lon="13.5834604"><ele>548.8</ele><time>2026-05-02T07:50:06.921Z</time></trkpt><trkpt lat="46.141544" lon="13.5833655"><ele>551.2</ele><time>2026-05-02T07:50:07.918Z</time></trkpt><trkpt lat="46.1414847" lon="13.5832747"><ele>553.6</ele><time>2026-05-02T07:50:08.915Z</time></trkpt><trkpt lat="46.1414288" lon="13.5831802"><ele>556.0</ele><time>2026-05-02T07:50:09.917Z</time></trkpt><trkpt lat="46.1413609" lon="13.582972"><ele>550.8333333333334</ele><time>2026-05-02T07:50:11.919Z</time></trkpt><trkpt lat="46.1413147" lon="13.5828729"><ele>545.6666666666667</ele><time>2026-05-02T07:50:12.912Z</time></trkpt><trkpt lat="46.1412596" lon="13.5827784"><ele>540.5</ele><time>2026-05-02T07:50:13.922Z</time></trkpt><trkpt lat="46.1412016" lon="13.5827016"><ele>535.3333333333334</ele><time>2026-05-02T07:50:14.919Z</time></trkpt><trkpt lat="46.1411444" lon="13.5826299"><ele>530.1666666666666</ele><time>2026-05-02T07:50:15.928Z</time></trkpt><trkpt lat="46.1410947" lon="13.5825535"><ele>525.0</ele><time>2026-05-02T07:50:16.919Z</time></trkpt><trkpt lat="46.1410224" lon="13.5824092"><ele>525.0</ele><time>2026-05-02T07:50:18.918Z</time></trkpt><trkpt lat="46.1409941" lon="13.5823243"><ele>525.0</ele><time>2026-05-02T07:50:19.927Z</time></trkpt><trkpt lat="46.1409647" lon="13.5822378"><ele>525.0</ele><time>2026-05-02T07:50:20.913Z</time></trkpt><trkpt lat="46.1409356" lon="13.5821493"><ele>525.0</ele><time>2026-05-02T07:50:21.919Z</time></trkpt><trkpt lat="46.1409092" lon="13.5820398"><ele>525.0</ele><time>2026-05-02T07:50:22.932Z</time></trkpt><trkpt lat="46.14088" lon="13.5819219"><ele>525.0</ele><time>2026-05-02T07:50:23.917Z</time></trkpt><trkpt lat="46.1408474" lon="13.5817986"><ele>527.0</ele><time>2026-05-02T07:50:24.915Z</time></trkpt><trkpt lat="46.1408109" lon="13.5816783"><ele>529.0</ele><time>2026-05-02T07:50:25.913Z</time></trkpt><trkpt lat="46.1407614" lon="13.5815685"><ele>531.0</ele><time>2026-05-02T07:50:26.918Z</time></trkpt><trkpt lat="46.1407182" lon="13.5814612"><ele>533.0</ele><time>2026-05-02T07:50:27.915Z</time></trkpt><trkpt lat="46.1406663" lon="13.5813538"><ele>535.0</ele><time>2026-05-02T07:50:28.923Z</time></trkpt><trkpt lat="46.1405948" lon="13.5812605"><ele>528.0</ele><time>2026-05-02T07:50:29.923Z</time></trkpt><trkpt lat="46.1405186" lon="13.5811653"><ele>521.0</ele><time>2026-05-02T07:50:30.914Z</time></trkpt><trkpt lat="46.1403634" lon="13.5809718"><ele>514.0</ele><time>2026-05-02T07:50:32.923Z</time></trkpt><trkpt lat="46.1402966" lon="13.5808729"><ele>507.0</ele><time>2026-05-02T07:50:33.916Z</time></trkpt><trkpt lat="46.1402438" lon="13.5807672"><ele>507.0</ele><time>2026-05-02T07:50:34.916Z</time></trkpt><trkpt lat="46.1401968" lon="13.5806582"><ele>507.0</ele><time>2026-05-02T07:50:35.929Z</time></trkpt><trkpt lat="46.1401652" lon="13.580551"><ele>507.0</ele><time>2026-05-02T07:50:36.916Z</time></trkpt><trkpt lat="46.1401487" lon="13.580431"><ele>507.0</ele><time>2026-05-02T07:50:37.914Z</time></trkpt><trkpt lat="46.1401382" lon="13.580325"><ele>507.0</ele><time>2026-05-02T07:50:38.914Z</time></trkpt><trkpt lat="46.1401193" lon="13.5802125"><ele>507.0</ele><time>2026-05-02T07:50:39.921Z</time></trkpt><trkpt lat="46.1400975" lon="13.5800948"><ele>507.1666666666667</ele><time>2026-05-02T07:50:40.918Z</time></trkpt><trkpt lat="46.1400898" lon="13.5799883"><ele>507.33333333333337</ele><time>2026-05-02T07:50:41.918Z</time></trkpt><trkpt lat="46.1401117" lon="13.5798171"><ele>507.5</ele><time>2026-05-02T07:50:43.917Z</time></trkpt><trkpt lat="46.1401413" lon="13.5797281"><ele>507.6666666666667</ele><time>2026-05-02T07:50:44.922Z</time></trkpt><trkpt lat="46.140163" lon="13.5796314"><ele>507.83333333333337</ele><time>2026-05-02T07:50:45.918Z</time></trkpt><trkpt lat="46.1401774" lon="13.5795414"><ele>508.0</ele><time>2026-05-02T07:50:46.916Z</time></trkpt><trkpt lat="46.1401712" lon="13.5794365"><ele>508.00000000000006</ele><time>2026-05-02T07:50:47.92Z</time></trkpt><trkpt lat="46.14016" lon="13.5793334"><ele>508.0</ele><time>2026-05-02T07:50:48.917Z</time></trkpt><trkpt lat="46.1401618" lon="13.5792406"><ele>508.0</ele><time>2026-05-02T07:50:49.927Z</time></trkpt><trkpt lat="46.1401785" lon="13.5791439"><ele>508.0</ele><time>2026-05-02T07:50:50.915Z</time></trkpt><trkpt lat="46.1402006" lon="13.5790409"><ele>508.00000000000006</ele><time>2026-05-02T07:50:51.92Z</time></trkpt><trkpt lat="46.1402209" lon="13.5789342"><ele>508.0</ele><time>2026-05-02T07:50:52.915Z</time></trkpt><trkpt lat="46.1402743" lon="13.578685"><ele>506.33333333333337</ele><time>2026-05-02T07:50:54.918Z</time></trkpt><trkpt lat="46.1402803" lon="13.5785711"><ele>504.6666666666667</ele><time>2026-05-02T07:50:55.913Z</time></trkpt><trkpt lat="46.140282" lon="13.5784262"><ele>503.0</ele><time>2026-05-02T07:50:57.917Z</time></trkpt><trkpt lat="46.1402813" lon="13.5783212"><ele>501.33333333333337</ele><time>2026-05-02T07:50:59.919Z</time></trkpt><trkpt lat="46.1402851" lon="13.5781831"><ele>499.6666666666667</ele><time>2026-05-02T07:51:02.923Z</time></trkpt><trkpt lat="46.1402832" lon="13.5780616"><ele>498.0</ele><time>2026-05-02T07:51:04.918Z</time></trkpt><trkpt lat="46.1402885" lon="13.5778722"><ele>498.8333333333333</ele><time>2026-05-02T07:51:06.923Z</time></trkpt><trkpt lat="46.1402866" lon="13.5777552"><ele>499.66666666666663</ele><time>2026-05-02T07:51:07.912Z</time></trkpt><trkpt lat="46.1402853" lon="13.5776431"><ele>500.5</ele><time>2026-05-02T07:51:08.922Z</time></trkpt><trkpt lat="46.1402785" lon="13.5775349"><ele>501.3333333333333</ele><time>2026-05-02T07:51:09.915Z</time></trkpt><trkpt lat="46.1402681" lon="13.5774261"><ele>502.16666666666663</ele><time>2026-05-02T07:51:10.918Z</time></trkpt><trkpt lat="46.1402434" lon="13.5773152"><ele>503.0</ele><time>2026-05-02T07:51:11.915Z</time></trkpt><trkpt lat="46.1401986" lon="13.5772081"><ele>503.0</ele><time>2026-05-02T07:51:12.922Z</time></trkpt><trkpt lat="46.1401379" lon="13.5770988"><ele>503.0</ele><time>2026-05-02T07:51:13.923Z</time></trkpt><trkpt lat="46.1399649" lon="13.5769403"><ele>503.0</ele><time>2026-05-02T07:51:15.916Z</time></trkpt><trkpt lat="46.1398605" lon="13.5768918"><ele>503.0</ele><time>2026-05-02T07:51:16.914Z</time></trkpt><trkpt lat="46.1397444" lon="13.5768553"><ele>503.0</ele><time>2026-05-02T07:51:17.915Z</time></trkpt><trkpt lat="46.1396233" lon="13.5768351"><ele>503.0</ele><time>2026-05-02T07:51:18.927Z</time></trkpt><trkpt lat="46.1395075" lon="13.5768182"><ele>503.0</ele><time>2026-05-02T07:51:19.914Z</time></trkpt><trkpt lat="46.1393907" lon="13.5767992"><ele>503.0</ele><time>2026-05-02T07:51:20.918Z</time></trkpt><trkpt lat="46.1392785" lon="13.5767479"><ele>503.0</ele><time>2026-05-02T07:51:21.919Z</time></trkpt><trkpt lat="46.1391734" lon="13.5766549"><ele>503.0</ele><time>2026-05-02T07:51:22.914Z</time></trkpt><trkpt lat="46.1390647" lon="13.5765807"><ele>503.0</ele><time>2026-05-02T07:51:23.915Z</time></trkpt><trkpt lat="46.1389608" lon="13.5765219"><ele>503.0</ele><time>2026-05-02T07:51:24.923Z</time></trkpt><trkpt lat="46.1388539" lon="13.5764821"><ele>499.25</ele><time>2026-05-02T07:51:25.921Z</time></trkpt><trkpt lat="46.138729" lon="13.5764655"><ele>495.5</ele><time>2026-05-02T07:51:26.913Z</time></trkpt><trkpt lat="46.1385922" lon="13.5764569"><ele>491.75</ele><time>2026-05-02T07:51:27.92Z</time></trkpt><trkpt lat="46.1384536" lon="13.5764696"><ele>488.0</ele><time>2026-05-02T07:51:28.916Z</time></trkpt><trkpt lat="46.1383144" lon="13.5764992"><ele>484.5</ele><time>2026-05-02T07:51:29.922Z</time></trkpt><trkpt lat="46.1381666" lon="13.5765407"><ele>481.0</ele><time>2026-05-02T07:51:30.925Z</time></trkpt><trkpt lat="46.138023" lon="13.5765863"><ele>477.5</ele><time>2026-05-02T07:51:31.92Z</time></trkpt><trkpt lat="46.1378927" lon="13.5766474"><ele>474.0</ele><time>2026-05-02T07:51:32.918Z</time></trkpt><trkpt lat="46.1377624" lon="13.5767222"><ele>474.0</ele><time>2026-05-02T07:51:33.917Z</time></trkpt><trkpt lat="46.1376286" lon="13.5768064"><ele>474.0</ele><time>2026-05-02T07:51:34.924Z</time></trkpt><trkpt lat="46.1373721" lon="13.5769799"><ele>474.0</ele><time>2026-05-02T07:51:36.916Z</time></trkpt><trkpt lat="46.1372399" lon="13.5770566"><ele>472.0</ele><time>2026-05-02T07:51:37.915Z</time></trkpt><trkpt lat="46.1371197" lon="13.5771172"><ele>470.0</ele><time>2026-05-02T07:51:38.924Z</time></trkpt><trkpt lat="46.1370192" lon="13.5771809"><ele>468.0</ele><time>2026-05-02T07:51:39.919Z</time></trkpt><trkpt lat="46.136944" lon="13.5772256"><ele>466.0</ele><time>2026-05-02T07:51:40.919Z</time></trkpt><trkpt lat="46.1368727" lon="13.5772906"><ele>464.0</ele><time>2026-05-02T07:51:42.919Z</time></trkpt><trkpt lat="46.1368361" lon="13.5772046"><ele>464.0</ele><time>2026-05-02T07:51:44.915Z</time></trkpt><trkpt lat="46.1369123" lon="13.577068"><ele>464.0</ele><time>2026-05-02T07:51:46.914Z</time></trkpt><trkpt lat="46.1369957" lon="13.5769779"><ele>464.0</ele><time>2026-05-02T07:51:47.914Z</time></trkpt><trkpt lat="46.1370924" lon="13.5768773"><ele>464.0</ele><time>2026-05-02T07:51:48.914Z</time></trkpt><trkpt lat="46.137201" lon="13.5767832"><ele>461.5</ele><time>2026-05-02T07:51:49.92Z</time></trkpt><trkpt lat="46.137316" lon="13.5767008"><ele>459.0</ele><time>2026-05-02T07:51:50.923Z</time></trkpt><trkpt lat="46.1374274" lon="13.576632"><ele>456.5</ele><time>2026-05-02T07:51:51.927Z</time></trkpt><trkpt lat="46.1375394" lon="13.5765437"><ele>454.0</ele><time>2026-05-02T07:51:52.911Z</time></trkpt><trkpt lat="46.1376324" lon="13.5764655"><ele>455.25</ele><time>2026-05-02T07:51:53.92Z</time></trkpt><trkpt lat="46.1377134" lon="13.5763992"><ele>456.5</ele><time>2026-05-02T07:51:54.931Z</time></trkpt><trkpt lat="46.1379329" lon="13.5761814"><ele>457.75</ele><time>2026-05-02T07:51:58.916Z</time></trkpt><trkpt lat="46.1380002" lon="13.5760969"><ele>459.0</ele><time>2026-05-02T07:52:00.914Z</time></trkpt><trkpt lat="46.1378982" lon="13.576178"><ele>461.5</ele><time>2026-05-02T07:52:11.917Z</time></trkpt><trkpt lat="46.1378309" lon="13.5762474"><ele>464.0</ele><time>2026-05-02T07:52:12.916Z</time></trkpt><trkpt lat="46.1377643" lon="13.5763171"><ele>466.5</ele><time>2026-05-02T07:52:13.919Z</time></trkpt><trkpt lat="46.1377089" lon="13.5763667"><ele>469.0</ele><time>2026-05-02T07:52:14.927Z</time></trkpt><trkpt lat="46.137638" lon="13.5764373"><ele>471.5</ele><time>2026-05-02T07:52:15.917Z</time></trkpt><trkpt lat="46.1375691" lon="13.5765117"><ele>474.0</ele><time>2026-05-02T07:52:16.927Z</time></trkpt><trkpt lat="46.1374345" lon="13.5766186"><ele>469.0</ele><time>2026-05-02T07:52:18.917Z</time></trkpt><trkpt lat="46.1373423" lon="13.5766857"><ele>464.0</ele><time>2026-05-02T07:52:19.924Z</time></trkpt><trkpt lat="46.1372236" lon="13.576768"><ele>459.0</ele><time>2026-05-02T07:52:20.915Z</time></trkpt><trkpt lat="46.1370986" lon="13.5768635"><ele>454.0</ele><time>2026-05-02T07:52:21.927Z</time></trkpt><trkpt lat="46.1369739" lon="13.5769593"><ele>456.0</ele><time>2026-05-02T07:52:22.914Z</time></trkpt><trkpt lat="46.1368685" lon="13.5770635"><ele>458.0</ele><time>2026-05-02T07:52:23.914Z</time></trkpt><trkpt lat="46.1367894" lon="13.5771673"><ele>460.0</ele><time>2026-05-02T07:52:24.916Z</time></trkpt><trkpt lat="46.1367371" lon="13.5772655"><ele>462.0</ele><time>2026-05-02T07:52:25.917Z</time></trkpt><trkpt lat="46.1366824" lon="13.5773861"><ele>464.0</ele><time>2026-05-02T07:52:27.917Z</time></trkpt><trkpt lat="46.1366228" lon="13.5774186"><ele>459.79999999999995</ele><time>2026-05-02T07:52:29.92Z</time></trkpt><trkpt lat="46.1365248" lon="13.5774435"><ele>455.59999999999997</ele><time>2026-05-02T07:52:31.916Z</time></trkpt><trkpt lat="46.1364155" lon="13.5773881"><ele>451.4</ele><time>2026-05-02T07:52:33.914Z</time></trkpt><trkpt lat="46.1364049" lon="13.5772665"><ele>447.2</ele><time>2026-05-02T07:52:34.918Z</time></trkpt><trkpt lat="46.1364533" lon="13.5771595"><ele>443.0</ele><time>2026-05-02T07:52:35.924Z</time></trkpt><trkpt lat="46.1365343" lon="13.5770512"><ele>445.75</ele><time>2026-05-02T07:52:36.917Z</time></trkpt><trkpt lat="46.1366119" lon="13.5769626"><ele>448.5</ele><time>2026-05-02T07:52:37.931Z</time></trkpt><trkpt lat="46.1367494" lon="13.5767937"><ele>451.25</ele><time>2026-05-02T07:52:39.914Z</time></trkpt><trkpt lat="46.1368274" lon="13.5767164"><ele>454.0</ele><time>2026-05-02T07:52:40.926Z</time></trkpt><trkpt lat="46.1369136" lon="13.5766409"><ele>454.0</ele><time>2026-05-02T07:52:41.914Z</time></trkpt><trkpt lat="46.1370037" lon="13.576557"><ele>454.0</ele><time>2026-05-02T07:52:42.923Z</time></trkpt><trkpt lat="46.1371034" lon="13.5764646"><ele>454.0</ele><time>2026-05-02T07:52:43.915Z</time></trkpt><trkpt lat="46.1372009" lon="13.5763679"><ele>454.0</ele><time>2026-05-02T07:52:44.92Z</time></trkpt><trkpt lat="46.1373029" lon="13.5762702"><ele>455.0</ele><time>2026-05-02T07:52:45.917Z</time></trkpt><trkpt lat="46.1373972" lon="13.5761697"><ele>456.0</ele><time>2026-05-02T07:52:46.913Z</time></trkpt><trkpt lat="46.137482" lon="13.5760557"><ele>457.0</ele><time>2026-05-02T07:52:47.92Z</time></trkpt><trkpt lat="46.1375669" lon="13.5759529"><ele>458.0</ele><time>2026-05-02T07:52:48.915Z</time></trkpt><trkpt lat="46.1376433" lon="13.5758634"><ele>459.0</ele><time>2026-05-02T07:52:49.915Z</time></trkpt><trkpt lat="46.1377067" lon="13.5757818"><ele>459.0</ele><time>2026-05-02T07:52:50.915Z</time></trkpt><trkpt lat="46.1377502" lon="13.575686"><ele>459.0</ele><time>2026-05-02T07:52:51.916Z</time></trkpt><trkpt lat="46.1377381" lon="13.5755912"><ele>459.0</ele><time>2026-05-02T07:52:52.919Z</time></trkpt><trkpt lat="46.1377091" lon="13.575487"><ele>459.0</ele><time>2026-05-02T07:52:53.917Z</time></trkpt><trkpt lat="46.1376428" lon="13.5754017"><ele>459.0</ele><time>2026-05-02T07:52:54.918Z</time></trkpt><trkpt lat="46.1375665" lon="13.5753086"><ele>459.0</ele><time>2026-05-02T07:52:55.922Z</time></trkpt><trkpt lat="46.1374796" lon="13.5752138"><ele>442.0</ele><time>2026-05-02T07:52:56.916Z</time></trkpt><trkpt lat="46.1373828" lon="13.5751108"><ele>425.0</ele><time>2026-05-02T07:52:57.918Z</time></trkpt><trkpt lat="46.1372866" lon="13.575004"><ele>408.0</ele><time>2026-05-02T07:52:58.924Z</time></trkpt><trkpt lat="46.1371248" lon="13.5747507"><ele>408.0</ele><time>2026-05-02T07:53:00.913Z</time></trkpt><trkpt lat="46.1370547" lon="13.574609"><ele>408.0</ele><time>2026-05-02T07:53:01.916Z</time></trkpt><trkpt lat="46.1369798" lon="13.5744582"><ele>408.0</ele><time>2026-05-02T07:53:02.928Z</time></trkpt><trkpt lat="46.1369085" lon="13.5742915"><ele>408.0</ele><time>2026-05-02T07:53:03.924Z</time></trkpt><trkpt lat="46.1368407" lon="13.5741166"><ele>410.25</ele><time>2026-05-02T07:53:04.93Z</time></trkpt><trkpt lat="46.1367524" lon="13.5739539"><ele>412.5</ele><time>2026-05-02T07:53:05.92Z</time></trkpt><trkpt lat="46.1366667" lon="13.5737936"><ele>414.75</ele><time>2026-05-02T07:53:06.919Z</time></trkpt><trkpt lat="46.1366006" lon="13.5736358"><ele>417.0</ele><time>2026-05-02T07:53:07.915Z</time></trkpt><trkpt lat="46.1365442" lon="13.5734716"><ele>410.0</ele><time>2026-05-02T07:53:08.914Z</time></trkpt><trkpt lat="46.1365075" lon="13.5732791"><ele>403.0</ele><time>2026-05-02T07:53:09.912Z</time></trkpt><trkpt lat="46.1364883" lon="13.5730716"><ele>396.0</ele><time>2026-05-02T07:53:10.92Z</time></trkpt><trkpt lat="46.1364967" lon="13.5728666"><ele>389.0</ele><time>2026-05-02T07:53:11.914Z</time></trkpt><trkpt lat="46.1365314" lon="13.5726504"><ele>395.25</ele><time>2026-05-02T07:53:12.917Z</time></trkpt><trkpt lat="46.1365728" lon="13.5724396"><ele>401.5</ele><time>2026-05-02T07:53:13.915Z</time></trkpt><trkpt lat="46.1366274" lon="13.5722489"><ele>407.75</ele><time>2026-05-02T07:53:14.916Z</time></trkpt><trkpt lat="46.1366842" lon="13.5720923"><ele>414.0</ele><time>2026-05-02T07:53:15.918Z</time></trkpt><trkpt lat="46.1367099" lon="13.5719577"><ele>415.4</ele><time>2026-05-02T07:53:16.918Z</time></trkpt><trkpt lat="46.1367391" lon="13.5718125"><ele>416.79999999999995</ele><time>2026-05-02T07:53:17.914Z</time></trkpt><trkpt lat="46.1367395" lon="13.5716955"><ele>418.20000000000005</ele><time>2026-05-02T07:53:18.915Z</time></trkpt><trkpt lat="46.136712" lon="13.5715978"><ele>419.6</ele><time>2026-05-02T07:53:19.915Z</time></trkpt><trkpt lat="46.1366162" lon="13.5714445"><ele>421.0</ele><time>2026-05-02T07:53:21.915Z</time></trkpt><trkpt lat="46.1364939" lon="13.5715108"><ele>421.0</ele><time>2026-05-02T07:53:22.915Z</time></trkpt><trkpt lat="46.136346" lon="13.5716029"><ele>421.0</ele><time>2026-05-02T07:53:23.912Z</time></trkpt><trkpt lat="46.1361924" lon="13.5716824"><ele>421.0</ele><time>2026-05-02T07:53:24.914Z</time></trkpt><trkpt lat="46.1360383" lon="13.5717552"><ele>421.0</ele><time>2026-05-02T07:53:25.917Z</time></trkpt><trkpt lat="46.1358899" lon="13.5718158"><ele>421.0</ele><time>2026-05-02T07:53:26.92Z</time></trkpt><trkpt lat="46.1357493" lon="13.5718366"><ele>421.0</ele><time>2026-05-02T07:53:27.924Z</time></trkpt><trkpt lat="46.1356093" lon="13.5718522"><ele>421.0</ele><time>2026-05-02T07:53:28.912Z</time></trkpt><trkpt lat="46.1354727" lon="13.5718766"><ele>422.25</ele><time>2026-05-02T07:53:29.914Z</time></trkpt><trkpt lat="46.1353527" lon="13.5719317"><ele>423.5</ele><time>2026-05-02T07:53:30.916Z</time></trkpt><trkpt lat="46.1352322" lon="13.571997"><ele>424.75</ele><time>2026-05-02T07:53:31.923Z</time></trkpt><trkpt lat="46.1351056" lon="13.5720719"><ele>426.0</ele><time>2026-05-02T07:53:32.92Z</time></trkpt><trkpt lat="46.1349911" lon="13.5721601"><ele>420.0</ele><time>2026-05-02T07:53:33.922Z</time></trkpt><trkpt lat="46.1348791" lon="13.5722476"><ele>414.0</ele><time>2026-05-02T07:53:34.922Z</time></trkpt><trkpt lat="46.1347597" lon="13.5723259"><ele>408.0</ele><time>2026-05-02T07:53:35.915Z</time></trkpt><trkpt lat="46.1346398" lon="13.5724001"><ele>402.0</ele><time>2026-05-02T07:53:36.916Z</time></trkpt><trkpt lat="46.1345194" lon="13.5724771"><ele>402.0</ele><time>2026-05-02T07:53:37.929Z</time></trkpt><trkpt lat="46.1343919" lon="13.572551"><ele>402.0</ele><time>2026-05-02T07:53:38.916Z</time></trkpt><trkpt lat="46.1342633" lon="13.5726179"><ele>402.0</ele><time>2026-05-02T07:53:39.921Z</time></trkpt><trkpt lat="46.1341392" lon="13.5726713"><ele>402.0</ele><time>2026-05-02T07:53:40.914Z</time></trkpt><trkpt lat="46.1338927" lon="13.5727602"><ele>398.25</ele><time>2026-05-02T07:53:42.912Z</time></trkpt><trkpt lat="46.1337691" lon="13.5727923"><ele>394.5</ele><time>2026-05-02T07:53:43.93Z</time></trkpt><trkpt lat="46.1336447" lon="13.5728348"><ele>390.75</ele><time>2026-05-02T07:53:44.917Z</time></trkpt><trkpt lat="46.1335225" lon="13.5728932"><ele>387.0</ele><time>2026-05-02T07:53:45.914Z</time></trkpt><trkpt lat="46.1334134" lon="13.5729654"><ele>384.6</ele><time>2026-05-02T07:53:46.912Z</time></trkpt><trkpt lat="46.1333083" lon="13.5730288"><ele>382.20000000000005</ele><time>2026-05-02T07:53:47.914Z</time></trkpt><trkpt lat="46.1332033" lon="13.5730767"><ele>379.8</ele><time>2026-05-02T07:53:48.912Z</time></trkpt><trkpt lat="46.133096" lon="13.5731095"><ele>377.4</ele><time>2026-05-02T07:53:49.92Z</time></trkpt><trkpt lat="46.1329959" lon="13.573095"><ele>375.0</ele><time>2026-05-02T07:53:50.914Z</time></trkpt><trkpt lat="46.1329433" lon="13.5729509"><ele>379.0</ele><time>2026-05-02T07:53:51.923Z</time></trkpt><trkpt lat="46.1330037" lon="13.5727315"><ele>383.0</ele><time>2026-05-02T07:53:52.918Z</time></trkpt><trkpt lat="46.1331138" lon="13.5725386"><ele>387.0</ele><time>2026-05-02T07:53:53.916Z</time></trkpt><trkpt lat="46.1332291" lon="13.5723692"><ele>387.0</ele><time>2026-05-02T07:53:54.914Z</time></trkpt><trkpt lat="46.1333368" lon="13.5721967"><ele>387.0</ele><time>2026-05-02T07:53:55.915Z</time></trkpt><trkpt lat="46.1334074" lon="13.5720544"><ele>387.0</ele><time>2026-05-02T07:53:56.921Z</time></trkpt><trkpt lat="46.1334643" lon="13.5719236"><ele>387.0</ele><time>2026-05-02T07:53:57.911Z</time></trkpt><trkpt lat="46.1335104" lon="13.5717944"><ele>384.0</ele><time>2026-05-02T07:53:58.918Z</time></trkpt><trkpt lat="46.1335617" lon="13.5716576"><ele>381.0</ele><time>2026-05-02T07:53:59.914Z</time></trkpt><trkpt lat="46.1336104" lon="13.5715253"><ele>378.0</ele><time>2026-05-02T07:54:00.915Z</time></trkpt><trkpt lat="46.13366" lon="13.5713982"><ele>375.0</ele><time>2026-05-02T07:54:01.921Z</time></trkpt><trkpt lat="46.1337525" lon="13.5711411"><ele>378.2</ele><time>2026-05-02T07:54:03.919Z</time></trkpt><trkpt lat="46.1338131" lon="13.571022"><ele>381.4</ele><time>2026-05-02T07:54:04.926Z</time></trkpt><trkpt lat="46.1338851" lon="13.5708986"><ele>384.6</ele><time>2026-05-02T07:54:05.913Z</time></trkpt><trkpt lat="46.1339587" lon="13.5707822"><ele>387.8</ele><time>2026-05-02T07:54:06.917Z</time></trkpt><trkpt lat="46.1340369" lon="13.5706641"><ele>391.0</ele><time>2026-05-02T07:54:07.914Z</time></trkpt><trkpt lat="46.1341112" lon="13.5705305"><ele>391.0</ele><time>2026-05-02T07:54:08.925Z</time></trkpt><trkpt lat="46.1341793" lon="13.5703972"><ele>391.0</ele><time>2026-05-02T07:54:09.912Z</time></trkpt><trkpt lat="46.1342414" lon="13.5702647"><ele>391.0</ele><time>2026-05-02T07:54:10.919Z</time></trkpt><trkpt lat="46.1342801" lon="13.5701366"><ele>391.0</ele><time>2026-05-02T07:54:11.911Z</time></trkpt><trkpt lat="46.1342839" lon="13.5700241"><ele>391.0</ele><time>2026-05-02T07:54:12.925Z</time></trkpt><trkpt lat="46.134191" lon="13.5698972"><ele>388.4</ele><time>2026-05-02T07:54:14.92Z</time></trkpt><trkpt lat="46.1341082" lon="13.5698577"><ele>385.8</ele><time>2026-05-02T07:54:15.924Z</time></trkpt><trkpt lat="46.1340271" lon="13.569807"><ele>383.2</ele><time>2026-05-02T07:54:16.916Z</time></trkpt><trkpt lat="46.1339356" lon="13.5697538"><ele>380.59999999999997</ele><time>2026-05-02T07:54:17.916Z</time></trkpt><trkpt lat="46.1338185" lon="13.5697014"><ele>378.0</ele><time>2026-05-02T07:54:18.916Z</time></trkpt><trkpt lat="46.1336905" lon="13.569647"><ele>373.0</ele><time>2026-05-02T07:54:19.928Z</time></trkpt><trkpt lat="46.1335539" lon="13.5696082"><ele>368.0</ele><time>2026-05-02T07:54:20.91Z</time></trkpt><trkpt lat="46.1334259" lon="13.5695731"><ele>363.0</ele><time>2026-05-02T07:54:21.917Z</time></trkpt><trkpt lat="46.1332836" lon="13.5695302"><ele>358.0</ele><time>2026-05-02T07:54:22.914Z</time></trkpt><trkpt lat="46.1330155" lon="13.5694552"><ele>358.0</ele><time>2026-05-02T07:54:24.919Z</time></trkpt><trkpt lat="46.13289" lon="13.569409"><ele>358.0</ele><time>2026-05-02T07:54:25.915Z</time></trkpt><trkpt lat="46.1327609" lon="13.569364"><ele>358.0</ele><time>2026-05-02T07:54:26.911Z</time></trkpt><trkpt lat="46.1326512" lon="13.5693033"><ele>358.0</ele><time>2026-05-02T07:54:27.915Z</time></trkpt><trkpt lat="46.1325402" lon="13.5692164"><ele>358.0</ele><time>2026-05-02T07:54:28.917Z</time></trkpt><trkpt lat="46.1324397" lon="13.5691273"><ele>358.0</ele><time>2026-05-02T07:54:29.914Z</time></trkpt><trkpt lat="46.1323443" lon="13.5690454"><ele>358.0</ele><time>2026-05-02T07:54:30.922Z</time></trkpt><trkpt lat="46.1322566" lon="13.5689852"><ele>358.0</ele><time>2026-05-02T07:54:31.912Z</time></trkpt><trkpt lat="46.1321786" lon="13.5689289"><ele>358.0</ele><time>2026-05-02T07:54:32.92Z</time></trkpt><trkpt lat="46.1321269" lon="13.5688681"><ele>355.59999999999997</ele><time>2026-05-02T07:54:33.913Z</time></trkpt><trkpt lat="46.1320653" lon="13.5687574"><ele>353.2</ele><time>2026-05-02T07:54:35.916Z</time></trkpt><trkpt lat="46.132084" lon="13.5686322"><ele>350.8</ele><time>2026-05-02T07:54:37.927Z</time></trkpt><trkpt lat="46.1321687" lon="13.5685182"><ele>348.4</ele><time>2026-05-02T07:54:39.91Z</time></trkpt><trkpt lat="46.1322604" lon="13.5684042"><ele>346.0</ele><time>2026-05-02T07:54:41.927Z</time></trkpt><trkpt lat="46.1322964" lon="13.5683291"><ele>346.0</ele><time>2026-05-02T07:54:42.925Z</time></trkpt><trkpt lat="46.1323454" lon="13.5681924"><ele>346.0</ele><time>2026-05-02T07:54:44.914Z</time></trkpt><trkpt lat="46.1322639" lon="13.5680005"><ele>346.0</ele><time>2026-05-02T07:54:47.928Z</time></trkpt><trkpt lat="46.1321935" lon="13.5678796"><ele>346.0</ele><time>2026-05-02T07:54:49.915Z</time></trkpt><trkpt lat="46.1321386" lon="13.56776"><ele>345.0</ele><time>2026-05-02T07:54:51.93Z</time></trkpt><trkpt lat="46.1320761" lon="13.567731"><ele>344.0</ele><time>2026-05-02T07:54:52.914Z</time></trkpt><trkpt lat="46.131951" lon="13.5676675"><ele>343.0</ele><time>2026-05-02T07:54:54.927Z</time></trkpt><trkpt lat="46.1318744" lon="13.5676555"><ele>342.0</ele><time>2026-05-02T07:54:55.919Z</time></trkpt><trkpt lat="46.1317862" lon="13.5676515"><ele>341.0</ele><time>2026-05-02T07:54:56.926Z</time></trkpt><trkpt lat="46.1316858" lon="13.5676425"><ele>341.0</ele><time>2026-05-02T07:54:57.917Z</time></trkpt><trkpt lat="46.1315886" lon="13.5676224"><ele>341.0</ele><time>2026-05-02T07:54:58.911Z</time></trkpt><trkpt lat="46.1314921" lon="13.5675979"><ele>341.0</ele><time>2026-05-02T07:54:59.911Z</time></trkpt><trkpt lat="46.1313908" lon="13.5675689"><ele>341.0</ele><time>2026-05-02T07:55:00.909Z</time></trkpt><trkpt lat="46.1312993" lon="13.5675145"><ele>341.0</ele><time>2026-05-02T07:55:01.911Z</time></trkpt><trkpt lat="46.1312326" lon="13.567413"><ele>337.75</ele><time>2026-05-02T07:55:02.92Z</time></trkpt><trkpt lat="46.1312172" lon="13.5672768"><ele>334.5</ele><time>2026-05-02T07:55:03.911Z</time></trkpt><trkpt lat="46.1312306" lon="13.5671154"><ele>331.25</ele><time>2026-05-02T07:55:04.91Z</time></trkpt><trkpt lat="46.1312529" lon="13.5669577"><ele>328.0</ele><time>2026-05-02T07:55:05.912Z</time></trkpt><trkpt lat="46.1312974" lon="13.5666663"><ele>326.0</ele><time>2026-05-02T07:55:07.915Z</time></trkpt><trkpt lat="46.1313211" lon="13.5665153"><ele>324.0</ele><time>2026-05-02T07:55:08.915Z</time></trkpt><trkpt lat="46.1313498" lon="13.5663671"><ele>322.0</ele><time>2026-05-02T07:55:09.911Z</time></trkpt><trkpt lat="46.1313868" lon="13.5662248"><ele>320.0</ele><time>2026-05-02T07:55:10.915Z</time></trkpt><trkpt lat="46.1314576" lon="13.5661293"><ele>318.0</ele><time>2026-05-02T07:55:11.911Z</time></trkpt><trkpt lat="46.1315536" lon="13.5660711"><ele>319.6</ele><time>2026-05-02T07:55:12.923Z</time></trkpt><trkpt lat="46.1316483" lon="13.5660057"><ele>321.20000000000005</ele><time>2026-05-02T07:55:13.909Z</time></trkpt><trkpt lat="46.131751" lon="13.5659389"><ele>322.8</ele><time>2026-05-02T07:55:14.917Z</time></trkpt><trkpt lat="46.1318557" lon="13.5658704"><ele>324.40000000000003</ele><time>2026-05-02T07:55:15.921Z</time></trkpt><trkpt lat="46.1319469" lon="13.5658059"><ele>326.0</ele><time>2026-05-02T07:55:16.916Z</time></trkpt><trkpt lat="46.1320291" lon="13.565744"><ele>326.0</ele><time>2026-05-02T07:55:17.923Z</time></trkpt><trkpt lat="46.132099" lon="13.5656759"><ele>326.0</ele><time>2026-05-02T07:55:18.919Z</time></trkpt><trkpt lat="46.1321178" lon="13.5655856"><ele>326.0</ele><time>2026-05-02T07:55:19.91Z</time></trkpt><trkpt lat="46.1320958" lon="13.5654918"><ele>326.0</ele><time>2026-05-02T07:55:20.916Z</time></trkpt><trkpt lat="46.1320408" lon="13.5654234"><ele>326.0</ele><time>2026-05-02T07:55:21.919Z</time></trkpt><trkpt lat="46.1319664" lon="13.5653702"><ele>326.0</ele><time>2026-05-02T07:55:22.919Z</time></trkpt><trkpt lat="46.1318657" lon="13.5653351"><ele>328.75</ele><time>2026-05-02T07:55:23.915Z</time></trkpt><trkpt lat="46.1317573" lon="13.5652878"><ele>331.5</ele><time>2026-05-02T07:55:24.915Z</time></trkpt><trkpt lat="46.1316313" lon="13.5652574"><ele>334.25</ele><time>2026-05-02T07:55:25.912Z</time></trkpt><trkpt lat="46.1315038" lon="13.56523"><ele>337.0</ele><time>2026-05-02T07:55:26.915Z</time></trkpt><trkpt lat="46.1312135" lon="13.5652081"><ele>331.0</ele><time>2026-05-02T07:55:28.913Z</time></trkpt><trkpt lat="46.1310864" lon="13.5651738"><ele>325.0</ele><time>2026-05-02T07:55:29.919Z</time></trkpt><trkpt lat="46.1309602" lon="13.5651334"><ele>319.0</ele><time>2026-05-02T07:55:30.914Z</time></trkpt><trkpt lat="46.1308312" lon="13.5650865"><ele>313.0</ele><time>2026-05-02T07:55:31.912Z</time></trkpt><trkpt lat="46.1307087" lon="13.5650282"><ele>309.0</ele><time>2026-05-02T07:55:32.915Z</time></trkpt><trkpt lat="46.1305746" lon="13.5649803"><ele>305.0</ele><time>2026-05-02T07:55:33.924Z</time></trkpt><trkpt lat="46.1304342" lon="13.5649418"><ele>301.0</ele><time>2026-05-02T07:55:34.917Z</time></trkpt><trkpt lat="46.1302846" lon="13.5649257"><ele>297.0</ele><time>2026-05-02T07:55:35.915Z</time></trkpt><trkpt lat="46.1301371" lon="13.5649158"><ele>297.0</ele><time>2026-05-02T07:55:36.924Z</time></trkpt><trkpt lat="46.129989" lon="13.5649101"><ele>297.0</ele><time>2026-05-02T07:55:37.914Z</time></trkpt><trkpt lat="46.129819" lon="13.5649296"><ele>297.0</ele><time>2026-05-02T07:55:38.916Z</time></trkpt><trkpt lat="46.1296457" lon="13.5649341"><ele>291.75</ele><time>2026-05-02T07:55:39.914Z</time></trkpt><trkpt lat="46.1295037" lon="13.5649105"><ele>286.5</ele><time>2026-05-02T07:55:40.914Z</time></trkpt><trkpt lat="46.1293706" lon="13.5648499"><ele>281.25</ele><time>2026-05-02T07:55:41.924Z</time></trkpt><trkpt lat="46.1292407" lon="13.564754"><ele>276.0</ele><time>2026-05-02T07:55:42.917Z</time></trkpt><trkpt lat="46.129145" lon="13.5646636"><ele>272.25</ele><time>2026-05-02T07:55:43.918Z</time></trkpt><trkpt lat="46.129019" lon="13.5646312"><ele>268.5</ele><time>2026-05-02T07:55:44.919Z</time></trkpt><trkpt lat="46.128891" lon="13.564671"><ele>264.75</ele><time>2026-05-02T07:55:45.916Z</time></trkpt><trkpt lat="46.1287658" lon="13.5646875"><ele>261.0</ele><time>2026-05-02T07:55:46.927Z</time></trkpt><trkpt lat="46.1286548" lon="13.5646738"><ele>263.6666666666667</ele><time>2026-05-02T07:55:47.921Z</time></trkpt><trkpt lat="46.1285365" lon="13.5644147"><ele>266.33333333333337</ele><time>2026-05-02T07:55:49.913Z</time></trkpt><trkpt lat="46.1284775" lon="13.5642427"><ele>269.0</ele><time>2026-05-02T07:55:50.923Z</time></trkpt><trkpt lat="46.1284276" lon="13.564071"><ele>269.0</ele><time>2026-05-02T07:55:51.916Z</time></trkpt><trkpt lat="46.128356" lon="13.5639225"><ele>269.0</ele><time>2026-05-02T07:55:52.913Z</time></trkpt><trkpt lat="46.1282918" lon="13.5637627"><ele>269.0</ele><time>2026-05-02T07:55:53.915Z</time></trkpt><trkpt lat="46.1282591" lon="13.5636215"><ele>269.0</ele><time>2026-05-02T07:55:54.917Z</time></trkpt><trkpt lat="46.1282489" lon="13.5635191"><ele>269.0</ele><time>2026-05-02T07:55:55.915Z</time></trkpt><trkpt lat="46.1282106" lon="13.563415"><ele>265.8</ele><time>2026-05-02T07:55:57.916Z</time></trkpt><trkpt lat="46.1281749" lon="13.563501"><ele>262.59999999999997</ele><time>2026-05-02T07:55:59.92Z</time></trkpt><trkpt lat="46.1281764" lon="13.5636203"><ele>259.4</ele><time>2026-05-02T07:56:00.915Z</time></trkpt><trkpt lat="46.1281773" lon="13.5637879"><ele>256.2</ele><time>2026-05-02T07:56:01.916Z</time></trkpt><trkpt lat="46.1281839" lon="13.5639704"><ele>253.0</ele><time>2026-05-02T07:56:02.913Z</time></trkpt><trkpt lat="46.1281955" lon="13.564154"><ele>249.75</ele><time>2026-05-02T07:56:03.913Z</time></trkpt><trkpt lat="46.1281973" lon="13.564331"><ele>246.5</ele><time>2026-05-02T07:56:04.924Z</time></trkpt><trkpt lat="46.1281966" lon="13.5645015"><ele>243.25</ele><time>2026-05-02T07:56:05.918Z</time></trkpt><trkpt lat="46.1281624" lon="13.5646559"><ele>240.0</ele><time>2026-05-02T07:56:06.923Z</time></trkpt><trkpt lat="46.1280927" lon="13.5648043"><ele>239.25</ele><time>2026-05-02T07:56:07.918Z</time></trkpt><trkpt lat="46.1280329" lon="13.5649405"><ele>238.5</ele><time>2026-05-02T07:56:08.914Z</time></trkpt><trkpt lat="46.1279524" lon="13.5651768"><ele>237.75</ele><time>2026-05-02T07:56:10.913Z</time></trkpt><trkpt lat="46.1278721" lon="13.56528"><ele>237.0</ele><time>2026-05-02T07:56:12.914Z</time></trkpt><trkpt lat="46.1278028" lon="13.5651333"><ele>237.0</ele><time>2026-05-02T07:56:14.924Z</time></trkpt><trkpt lat="46.1278119" lon="13.5649723"><ele>237.0</ele><time>2026-05-02T07:56:15.916Z</time></trkpt><trkpt lat="46.1278147" lon="13.564778"><ele>237.0</ele><time>2026-05-02T07:56:16.913Z</time></trkpt><trkpt lat="46.12784" lon="13.56457"><ele>237.0</ele><time>2026-05-02T07:56:17.913Z</time></trkpt><trkpt lat="46.1278213" lon="13.5643846"><ele>237.6</ele><time>2026-05-02T07:56:18.932Z</time></trkpt><trkpt lat="46.1277646" lon="13.5642404"><ele>238.2</ele><time>2026-05-02T07:56:19.914Z</time></trkpt><trkpt lat="46.127696" lon="13.5641285"><ele>238.8</ele><time>2026-05-02T07:56:20.922Z</time></trkpt><trkpt lat="46.1276287" lon="13.5640412"><ele>239.4</ele><time>2026-05-02T07:56:21.915Z</time></trkpt><trkpt lat="46.1275602" lon="13.5639465"><ele>240.0</ele><time>2026-05-02T07:56:22.916Z</time></trkpt><trkpt lat="46.127504" lon="13.5638494"><ele>240.0</ele><time>2026-05-02T07:56:23.925Z</time></trkpt><trkpt lat="46.1275015" lon="13.5637226"><ele>240.0</ele><time>2026-05-02T07:56:24.918Z</time></trkpt><trkpt lat="46.1274802" lon="13.5636226"><ele>240.0</ele><time>2026-05-02T07:56:25.92Z</time></trkpt><trkpt lat="46.1273776" lon="13.5635972"><ele>240.0</ele><time>2026-05-02T07:56:27.913Z</time></trkpt><trkpt lat="46.1273552" lon="13.5637203"><ele>240.0</ele><time>2026-05-02T07:56:28.916Z</time></trkpt><trkpt lat="46.1273528" lon="13.5638764"><ele>239.25</ele><time>2026-05-02T07:56:29.918Z</time></trkpt><trkpt lat="46.1273425" lon="13.5642012"><ele>238.5</ele><time>2026-05-02T07:56:31.92Z</time></trkpt><trkpt lat="46.1273743" lon="13.5643399"><ele>237.75</ele><time>2026-05-02T07:56:32.911Z</time></trkpt><trkpt lat="46.1273929" lon="13.5644633"><ele>237.0</ele><time>2026-05-02T07:56:33.915Z</time></trkpt><trkpt lat="46.1274001" lon="13.5645961"><ele>233.0</ele><time>2026-05-02T07:56:34.917Z</time></trkpt><trkpt lat="46.1273794" lon="13.5647183"><ele>229.0</ele><time>2026-05-02T07:56:35.913Z</time></trkpt><trkpt lat="46.1273443" lon="13.5648404"><ele>225.0</ele><time>2026-05-02T07:56:36.924Z</time></trkpt><trkpt lat="46.1273081" lon="13.5649687"><ele>221.0</ele><time>2026-05-02T07:56:37.916Z</time></trkpt><trkpt lat="46.1272794" lon="13.565105"><ele>217.0</ele><time>2026-05-02T07:56:38.911Z</time></trkpt><trkpt lat="46.1272675" lon="13.5652521"><ele>218.83333333333331</ele><time>2026-05-02T07:56:39.911Z</time></trkpt><trkpt lat="46.1272785" lon="13.5653946"><ele>220.66666666666666</ele><time>2026-05-02T07:56:40.919Z</time></trkpt><trkpt lat="46.1272992" lon="13.5655162"><ele>222.5</ele><time>2026-05-02T07:56:41.917Z</time></trkpt><trkpt lat="46.1273252" lon="13.5656156"><ele>224.33333333333331</ele><time>2026-05-02T07:56:42.916Z</time></trkpt><trkpt lat="46.1273636" lon="13.5657388"><ele>226.16666666666666</ele><time>2026-05-02T07:56:44.915Z</time></trkpt><trkpt lat="46.1273844" lon="13.5658287"><ele>228.0</ele><time>2026-05-02T07:56:47.913Z</time></trkpt><trkpt lat="46.1274254" lon="13.5659273"><ele>229.0</ele><time>2026-05-02T07:56:49.912Z</time></trkpt><trkpt lat="46.1275244" lon="13.5660084"><ele>230.0</ele><time>2026-05-02T07:56:51.914Z</time></trkpt><trkpt lat="46.1277083" lon="13.5661154"><ele>231.0</ele><time>2026-05-02T07:56:54.917Z</time></trkpt><trkpt lat="46.1277735" lon="13.5662003"><ele>232.0</ele><time>2026-05-02T07:56:55.921Z</time></trkpt><trkpt lat="46.1278441" lon="13.5662917"><ele>230.2</ele><time>2026-05-02T07:56:56.916Z</time></trkpt><trkpt lat="46.1279264" lon="13.5663834"><ele>228.39999999999998</ele><time>2026-05-02T07:56:57.912Z</time></trkpt><trkpt lat="46.1279979" lon="13.566473"><ele>226.60000000000002</ele><time>2026-05-02T07:56:58.919Z</time></trkpt><trkpt lat="46.1280656" lon="13.5665905"><ele>224.8</ele><time>2026-05-02T07:56:59.921Z</time></trkpt><trkpt lat="46.1280921" lon="13.566707"><ele>223.0</ele><time>2026-05-02T07:57:00.913Z</time></trkpt><trkpt lat="46.1281118" lon="13.5668376"><ele>223.0</ele><time>2026-05-02T07:57:01.919Z</time></trkpt><trkpt lat="46.1281422" lon="13.5669879"><ele>223.0</ele><time>2026-05-02T07:57:02.915Z</time></trkpt><trkpt lat="46.128192" lon="13.5671362"><ele>223.0</ele><time>2026-05-02T07:57:03.917Z</time></trkpt><trkpt lat="46.1282443" lon="13.5672885"><ele>223.0</ele><time>2026-05-02T07:57:04.909Z</time></trkpt><trkpt lat="46.1282954" lon="13.5674532"><ele>227.25</ele><time>2026-05-02T07:57:05.916Z</time></trkpt><trkpt lat="46.1283399" lon="13.567622"><ele>231.5</ele><time>2026-05-02T07:57:06.916Z</time></trkpt><trkpt lat="46.1283753" lon="13.5677953"><ele>235.75</ele><time>2026-05-02T07:57:07.919Z</time></trkpt><trkpt lat="46.1284052" lon="13.5679835"><ele>240.0</ele><time>2026-05-02T07:57:08.928Z</time></trkpt><trkpt lat="46.1284219" lon="13.5681706"><ele>240.0</ele><time>2026-05-02T07:57:09.914Z</time></trkpt><trkpt lat="46.1284342" lon="13.5683594"><ele>240.0</ele><time>2026-05-02T07:57:10.909Z</time></trkpt><trkpt lat="46.1284434" lon="13.5685556"><ele>240.0</ele><time>2026-05-02T07:57:11.912Z</time></trkpt><trkpt lat="46.1284466" lon="13.5687472"><ele>240.0</ele><time>2026-05-02T07:57:12.915Z</time></trkpt><trkpt lat="46.128435" lon="13.5691438"><ele>240.25</ele><time>2026-05-02T07:57:14.915Z</time></trkpt><trkpt lat="46.1284187" lon="13.5693371"><ele>240.5</ele><time>2026-05-02T07:57:15.914Z</time></trkpt><trkpt lat="46.128412" lon="13.5695191"><ele>240.75</ele><time>2026-05-02T07:57:16.917Z</time></trkpt><trkpt lat="46.1284067" lon="13.5696832"><ele>241.0</ele><time>2026-05-02T07:57:17.912Z</time></trkpt><trkpt lat="46.1284284" lon="13.5698346"><ele>244.33333333333331</ele><time>2026-05-02T07:57:18.923Z</time></trkpt><trkpt lat="46.1284831" lon="13.5699877"><ele>247.66666666666669</ele><time>2026-05-02T07:57:19.916Z</time></trkpt><trkpt lat="46.1285915" lon="13.5701446"><ele>251.0</ele><time>2026-05-02T07:57:20.914Z</time></trkpt><trkpt lat="46.1287425" lon="13.5703371"><ele>249.33333333333334</ele><time>2026-05-02T07:57:21.911Z</time></trkpt><trkpt lat="46.1289056" lon="13.5704944"><ele>247.66666666666669</ele><time>2026-05-02T07:57:22.916Z</time></trkpt><trkpt lat="46.1290568" lon="13.5706844"><ele>246.0</ele><time>2026-05-02T07:57:23.914Z</time></trkpt><trkpt lat="46.1291732" lon="13.5708914"><ele>246.0</ele><time>2026-05-02T07:57:24.913Z</time></trkpt><trkpt lat="46.1293002" lon="13.5711112"><ele>246.0</ele><time>2026-05-02T07:57:25.914Z</time></trkpt><trkpt lat="46.129431" lon="13.5713002"><ele>246.0</ele><time>2026-05-02T07:57:26.925Z</time></trkpt><trkpt lat="46.1295444" lon="13.5714902"><ele>251.66666666666669</ele><time>2026-05-02T07:57:27.912Z</time></trkpt><trkpt lat="46.1296521" lon="13.5716657"><ele>257.33333333333337</ele><time>2026-05-02T07:57:28.925Z</time></trkpt><trkpt lat="46.1297597" lon="13.5718346"><ele>263.0</ele><time>2026-05-02T07:57:29.919Z</time></trkpt><trkpt lat="46.1298536" lon="13.5720005"><ele>262.0</ele><time>2026-05-02T07:57:30.918Z</time></trkpt><trkpt lat="46.1299529" lon="13.5721899"><ele>261.0</ele><time>2026-05-02T07:57:31.918Z</time></trkpt><trkpt lat="46.1300266" lon="13.5723932"><ele>260.0</ele><time>2026-05-02T07:57:32.915Z</time></trkpt><trkpt lat="46.1300574" lon="13.5726509"><ele>264.5</ele><time>2026-05-02T07:57:33.919Z</time></trkpt><trkpt lat="46.130152" lon="13.5731589"><ele>269.0</ele><time>2026-05-02T07:57:35.914Z</time></trkpt><trkpt lat="46.1302533" lon="13.5734175"><ele>269.0</ele><time>2026-05-02T07:57:36.916Z</time></trkpt><trkpt lat="46.1303428" lon="13.5736545"><ele>269.0</ele><time>2026-05-02T07:57:37.915Z</time></trkpt><trkpt lat="46.1304292" lon="13.5738734"><ele>269.0</ele><time>2026-05-02T07:57:38.917Z</time></trkpt><trkpt lat="46.1305088" lon="13.5740639"><ele>271.25</ele><time>2026-05-02T07:57:39.915Z</time></trkpt><trkpt lat="46.1305743" lon="13.574246"><ele>273.5</ele><time>2026-05-02T07:57:40.919Z</time></trkpt><trkpt lat="46.1306127" lon="13.5744315"><ele>275.75</ele><time>2026-05-02T07:57:41.914Z</time></trkpt><trkpt lat="46.1306154" lon="13.5746261"><ele>278.0</ele><time>2026-05-02T07:57:42.917Z</time></trkpt><trkpt lat="46.1305922" lon="13.5748299"><ele>280.75</ele><time>2026-05-02T07:57:43.918Z</time></trkpt><trkpt lat="46.1305849" lon="13.5750438"><ele>283.5</ele><time>2026-05-02T07:57:44.915Z</time></trkpt><trkpt lat="46.1306108" lon="13.5752365"><ele>286.25</ele><time>2026-05-02T07:57:45.922Z</time></trkpt><trkpt lat="46.1306505" lon="13.5753959"><ele>289.0</ele><time>2026-05-02T07:57:46.922Z</time></trkpt><trkpt lat="46.1306658" lon="13.5755615"><ele>287.4</ele><time>2026-05-02T07:57:47.917Z</time></trkpt><trkpt lat="46.1306885" lon="13.5756949"><ele>285.79999999999995</ele><time>2026-05-02T07:57:48.91Z</time></trkpt><trkpt lat="46.1306855" lon="13.5758267"><ele>284.20000000000005</ele><time>2026-05-02T07:57:49.922Z</time></trkpt><trkpt lat="46.1307137" lon="13.5759619"><ele>282.6</ele><time>2026-05-02T07:57:50.914Z</time></trkpt><trkpt lat="46.1307777" lon="13.576077"><ele>281.0</ele><time>2026-05-02T07:57:51.913Z</time></trkpt><trkpt lat="46.1308519" lon="13.5761997"><ele>281.0</ele><time>2026-05-02T07:57:52.919Z</time></trkpt><trkpt lat="46.1309249" lon="13.5763177"><ele>281.0</ele><time>2026-05-02T07:57:53.91Z</time></trkpt><trkpt lat="46.1310106" lon="13.5764443"><ele>281.0</ele><time>2026-05-02T07:57:54.915Z</time></trkpt><trkpt lat="46.1311959" lon="13.5767234"><ele>281.0</ele><time>2026-05-02T07:57:56.91Z</time></trkpt><trkpt lat="46.1312861" lon="13.5768587"><ele>281.0</ele><time>2026-05-02T07:57:57.913Z</time></trkpt><trkpt lat="46.1313668" lon="13.5769947"><ele>281.0</ele><time>2026-05-02T07:57:58.918Z</time></trkpt><trkpt lat="46.1314344" lon="13.5771489"><ele>281.0</ele><time>2026-05-02T07:57:59.918Z</time></trkpt><trkpt lat="46.1314744" lon="13.5773133"><ele>283.2</ele><time>2026-05-02T07:58:00.916Z</time></trkpt><trkpt lat="46.13151" lon="13.5774751"><ele>285.40000000000003</ele><time>2026-05-02T07:58:01.912Z</time></trkpt><trkpt lat="46.1315482" lon="13.5776253"><ele>287.6</ele><time>2026-05-02T07:58:02.918Z</time></trkpt><trkpt lat="46.1315868" lon="13.5777541"><ele>289.8</ele><time>2026-05-02T07:58:03.911Z</time></trkpt><trkpt lat="46.1316193" lon="13.5778728"><ele>292.0</ele><time>2026-05-02T07:58:04.909Z</time></trkpt><trkpt lat="46.1316332" lon="13.5779693"><ele>292.0</ele><time>2026-05-02T07:58:05.92Z</time></trkpt><trkpt lat="46.1315497" lon="13.5778971"><ele>292.0</ele><time>2026-05-02T07:58:09.918Z</time></trkpt><trkpt lat="46.1315003" lon="13.5777633"><ele>292.0</ele><time>2026-05-02T07:58:10.914Z</time></trkpt><trkpt lat="46.1314251" lon="13.5776196"><ele>292.0</ele><time>2026-05-02T07:58:11.911Z</time></trkpt><trkpt lat="46.131308" lon="13.5774416"><ele>292.0</ele><time>2026-05-02T07:58:12.927Z</time></trkpt><trkpt lat="46.1311801" lon="13.5772736"><ele>292.0</ele><time>2026-05-02T07:58:13.913Z</time></trkpt><trkpt lat="46.131063" lon="13.5771029"><ele>292.0</ele><time>2026-05-02T07:58:14.932Z</time></trkpt><trkpt lat="46.1309557" lon="13.5769342"><ele>286.5</ele><time>2026-05-02T07:58:15.912Z</time></trkpt><trkpt lat="46.1307266" lon="13.5765928"><ele>281.0</ele><time>2026-05-02T07:58:17.911Z</time></trkpt><trkpt lat="46.130564" lon="13.5763871"><ele>290.0</ele><time>2026-05-02T07:58:18.92Z</time></trkpt><trkpt lat="46.1304123" lon="13.5761845"><ele>299.0</ele><time>2026-05-02T07:58:19.911Z</time></trkpt><trkpt lat="46.1302787" lon="13.5760042"><ele>308.0</ele><time>2026-05-02T07:58:20.918Z</time></trkpt><trkpt lat="46.1301792" lon="13.575844"><ele>308.0</ele><time>2026-05-02T07:58:21.915Z</time></trkpt><trkpt lat="46.1300903" lon="13.5756751"><ele>308.0</ele><time>2026-05-02T07:58:22.92Z</time></trkpt><trkpt lat="46.1300062" lon="13.5754696"><ele>308.0</ele><time>2026-05-02T07:58:23.921Z</time></trkpt><trkpt lat="46.1299431" lon="13.5752312"><ele>324.0</ele><time>2026-05-02T07:58:24.917Z</time></trkpt><trkpt lat="46.1298783" lon="13.5749747"><ele>340.0</ele><time>2026-05-02T07:58:25.912Z</time></trkpt><trkpt lat="46.1297982" lon="13.5747468"><ele>356.0</ele><time>2026-05-02T07:58:26.913Z</time></trkpt><trkpt lat="46.1297127" lon="13.5745252"><ele>351.6666666666667</ele><time>2026-05-02T07:58:27.914Z</time></trkpt><trkpt lat="46.1296439" lon="13.5743008"><ele>347.3333333333333</ele><time>2026-05-02T07:58:28.916Z</time></trkpt><trkpt lat="46.1296299" lon="13.574074"><ele>343.0</ele><time>2026-05-02T07:58:29.926Z</time></trkpt><trkpt lat="46.1296451" lon="13.573844"><ele>338.5</ele><time>2026-05-02T07:58:30.918Z</time></trkpt><trkpt lat="46.1296253" lon="13.573652"><ele>334.0</ele><time>2026-05-02T07:58:31.915Z</time></trkpt><trkpt lat="46.1295667" lon="13.5734713"><ele>329.5</ele><time>2026-05-02T07:58:32.924Z</time></trkpt><trkpt lat="46.1294808" lon="13.5732914"><ele>325.0</ele><time>2026-05-02T07:58:33.921Z</time></trkpt><trkpt lat="46.1293657" lon="13.5730974"><ele>325.0</ele><time>2026-05-02T07:58:34.914Z</time></trkpt><trkpt lat="46.129269" lon="13.5729232"><ele>325.0</ele><time>2026-05-02T07:58:35.911Z</time></trkpt><trkpt lat="46.1291785" lon="13.5727815"><ele>325.0</ele><time>2026-05-02T07:58:36.923Z</time></trkpt><trkpt lat="46.1289866" lon="13.5726331"><ele>328.5</ele><time>2026-05-02T07:58:38.916Z</time></trkpt><trkpt lat="46.1288741" lon="13.5726003"><ele>332.0</ele><time>2026-05-02T07:58:39.911Z</time></trkpt><trkpt lat="46.1287535" lon="13.5725201"><ele>335.5</ele><time>2026-05-02T07:58:40.918Z</time></trkpt><trkpt lat="46.128645" lon="13.5724355"><ele>339.0</ele><time>2026-05-02T07:58:41.916Z</time></trkpt><trkpt lat="46.12853" lon="13.5723112"><ele>339.0</ele><time>2026-05-02T07:58:42.913Z</time></trkpt><trkpt lat="46.128412" lon="13.5722197"><ele>339.0</ele><time>2026-05-02T07:58:43.911Z</time></trkpt><trkpt lat="46.1283204" lon="13.5721115"><ele>339.0</ele><time>2026-05-02T07:58:44.918Z</time></trkpt><trkpt lat="46.1282587" lon="13.571979"><ele>339.0</ele><time>2026-05-02T07:58:45.917Z</time></trkpt><trkpt lat="46.1282152" lon="13.5718453"><ele>339.0</ele><time>2026-05-02T07:58:46.914Z</time></trkpt><trkpt lat="46.1281581" lon="13.5717143"><ele>339.0</ele><time>2026-05-02T07:58:47.914Z</time></trkpt><trkpt lat="46.1280631" lon="13.5715839"><ele>339.0</ele><time>2026-05-02T07:58:48.928Z</time></trkpt><trkpt lat="46.1279608" lon="13.5714437"><ele>339.0</ele><time>2026-05-02T07:58:49.912Z</time></trkpt><trkpt lat="46.1278592" lon="13.5712999"><ele>333.5</ele><time>2026-05-02T07:58:50.915Z</time></trkpt><trkpt lat="46.1277636" lon="13.5711634"><ele>328.0</ele><time>2026-05-02T07:58:51.916Z</time></trkpt><trkpt lat="46.1276527" lon="13.5710902"><ele>322.5</ele><time>2026-05-02T07:58:52.913Z</time></trkpt><trkpt lat="46.1275269" lon="13.5710618"><ele>317.0</ele><time>2026-05-02T07:58:53.913Z</time></trkpt><trkpt lat="46.1274087" lon="13.5710247"><ele>317.75</ele><time>2026-05-02T07:58:54.92Z</time></trkpt><trkpt lat="46.1273134" lon="13.5709571"><ele>318.5</ele><time>2026-05-02T07:58:55.915Z</time></trkpt><trkpt lat="46.1272366" lon="13.5708551"><ele>319.25</ele><time>2026-05-02T07:58:56.918Z</time></trkpt><trkpt lat="46.1271773" lon="13.5706947"><ele>320.0</ele><time>2026-05-02T07:58:57.915Z</time></trkpt><trkpt lat="46.1271167" lon="13.5704107"><ele>320.0</ele><time>2026-05-02T07:58:59.919Z</time></trkpt><trkpt lat="46.1270827" lon="13.5702859"><ele>320.0</ele><time>2026-05-02T07:59:00.924Z</time></trkpt><trkpt lat="46.1270086" lon="13.5702386"><ele>320.0</ele><time>2026-05-02T07:59:01.914Z</time></trkpt><trkpt lat="46.1269203" lon="13.5702545"><ele>320.0</ele><time>2026-05-02T07:59:02.909Z</time></trkpt><trkpt lat="46.1268175" lon="13.5703241"><ele>320.0</ele><time>2026-05-02T07:59:03.915Z</time></trkpt><trkpt lat="46.1267213" lon="13.5704089"><ele>320.0</ele><time>2026-05-02T07:59:04.913Z</time></trkpt><trkpt lat="46.1266318" lon="13.5704928"><ele>320.0</ele><time>2026-05-02T07:59:05.917Z</time></trkpt><trkpt lat="46.1265612" lon="13.5705825"><ele>320.0</ele><time>2026-05-02T07:59:06.918Z</time></trkpt><trkpt lat="46.126535" lon="13.5706755"><ele>320.0</ele><time>2026-05-02T07:59:07.917Z</time></trkpt><trkpt lat="46.1265587" lon="13.570778"><ele>320.0</ele><time>2026-05-02T07:59:08.919Z</time></trkpt><trkpt lat="46.1266073" lon="13.5708408"><ele>320.0</ele><time>2026-05-02T07:59:09.913Z</time></trkpt><trkpt lat="46.1267546" lon="13.5707834"><ele>320.0</ele><time>2026-05-02T07:59:11.913Z</time></trkpt><trkpt lat="46.1268501" lon="13.5707305"><ele>320.0</ele><time>2026-05-02T07:59:12.925Z</time></trkpt><trkpt lat="46.1269418" lon="13.5706914"><ele>320.0</ele><time>2026-05-02T07:59:13.911Z</time></trkpt><trkpt lat="46.1270249" lon="13.5706992"><ele>320.0</ele><time>2026-05-02T07:59:14.913Z</time></trkpt><trkpt lat="46.1270875" lon="13.5707856"><ele>320.0</ele><time>2026-05-02T07:59:15.914Z</time></trkpt><trkpt lat="46.1270809" lon="13.5708837"><ele>320.0</ele><time>2026-05-02T07:59:16.914Z</time></trkpt><trkpt lat="46.1270247" lon="13.5709568"><ele>320.0</ele><time>2026-05-02T07:59:17.92Z</time></trkpt><trkpt lat="46.1269278" lon="13.5710095"><ele>320.0</ele><time>2026-05-02T07:59:18.917Z</time></trkpt><trkpt lat="46.1267036" lon="13.5712265"><ele>320.0</ele><time>2026-05-02T07:59:20.917Z</time></trkpt><trkpt lat="46.1265847" lon="13.571404"><ele>317.0</ele><time>2026-05-02T07:59:21.917Z</time></trkpt><trkpt lat="46.1264679" lon="13.5715601"><ele>314.0</ele><time>2026-05-02T07:59:22.919Z</time></trkpt><trkpt lat="46.1263559" lon="13.5717056"><ele>311.0</ele><time>2026-05-02T07:59:23.921Z</time></trkpt><trkpt lat="46.1262599" lon="13.5718062"><ele>308.0</ele><time>2026-05-02T07:59:24.911Z</time></trkpt><trkpt lat="46.1262237" lon="13.5719184"><ele>308.0</ele><time>2026-05-02T07:59:25.918Z</time></trkpt><trkpt lat="46.1262612" lon="13.5720078"><ele>308.0</ele><time>2026-05-02T07:59:26.918Z</time></trkpt><trkpt lat="46.1263441" lon="13.5720162"><ele>308.0</ele><time>2026-05-02T07:59:27.914Z</time></trkpt><trkpt lat="46.1264342" lon="13.5719679"><ele>308.0</ele><time>2026-05-02T07:59:28.919Z</time></trkpt><trkpt lat="46.1265203" lon="13.5718523"><ele>308.0</ele><time>2026-05-02T07:59:29.92Z</time></trkpt><trkpt lat="46.1266256" lon="13.5717251"><ele>314.5</ele><time>2026-05-02T07:59:30.918Z</time></trkpt><trkpt lat="46.12674" lon="13.5715873"><ele>321.0</ele><time>2026-05-02T07:59:31.911Z</time></trkpt><trkpt lat="46.1268441" lon="13.5714674"><ele>327.5</ele><time>2026-05-02T07:59:32.923Z</time></trkpt><trkpt lat="46.1269437" lon="13.5713843"><ele>334.0</ele><time>2026-05-02T07:59:33.915Z</time></trkpt><trkpt lat="46.1270287" lon="13.571362"><ele>334.0</ele><time>2026-05-02T07:59:34.915Z</time></trkpt><trkpt lat="46.1271182" lon="13.5713981"><ele>334.0</ele><time>2026-05-02T07:59:35.911Z</time></trkpt><trkpt lat="46.1272092" lon="13.5714965"><ele>334.0</ele><time>2026-05-02T07:59:36.912Z</time></trkpt><trkpt lat="46.1273029" lon="13.5716447"><ele>334.0</ele><time>2026-05-02T07:59:37.912Z</time></trkpt><trkpt lat="46.1274068" lon="13.5718138"><ele>336.5</ele><time>2026-05-02T07:59:38.921Z</time></trkpt><trkpt lat="46.1275308" lon="13.5719982"><ele>339.0</ele><time>2026-05-02T07:59:39.926Z</time></trkpt><trkpt lat="46.1277565" lon="13.5723602"><ele>344.3333333333333</ele><time>2026-05-02T07:59:41.914Z</time></trkpt><trkpt lat="46.1278349" lon="13.5725839"><ele>349.66666666666663</ele><time>2026-05-02T07:59:42.909Z</time></trkpt><trkpt lat="46.1278917" lon="13.5728153"><ele>355.0</ele><time>2026-05-02T07:59:43.907Z</time></trkpt><trkpt lat="46.1279495" lon="13.5730425"><ele>358.75</ele><time>2026-05-02T07:59:44.914Z</time></trkpt><trkpt lat="46.1280228" lon="13.5732457"><ele>362.5</ele><time>2026-05-02T07:59:45.915Z</time></trkpt><trkpt lat="46.1281079" lon="13.5733991"><ele>366.25</ele><time>2026-05-02T07:59:46.91Z</time></trkpt><trkpt lat="46.1281785" lon="13.5735094"><ele>370.0</ele><time>2026-05-02T07:59:47.919Z</time></trkpt><trkpt lat="46.1282193" lon="13.5735895"><ele>370.0</ele><time>2026-05-02T07:59:48.922Z</time></trkpt><trkpt lat="46.1281244" lon="13.5736436"><ele>370.0</ele><time>2026-05-02T07:59:50.92Z</time></trkpt><trkpt lat="46.1280565" lon="13.5735708"><ele>370.0</ele><time>2026-05-02T07:59:51.907Z</time></trkpt><trkpt lat="46.1279769" lon="13.5734508"><ele>370.0</ele><time>2026-05-02T07:59:52.917Z</time></trkpt><trkpt lat="46.1278905" lon="13.5733148"><ele>370.0</ele><time>2026-05-02T07:59:53.921Z</time></trkpt><trkpt lat="46.1277795" lon="13.5731882"><ele>370.0</ele><time>2026-05-02T07:59:54.912Z</time></trkpt><trkpt lat="46.127646" lon="13.5730631"><ele>370.0</ele><time>2026-05-02T07:59:55.915Z</time></trkpt><trkpt lat="46.1275249" lon="13.572973"><ele>370.0</ele><time>2026-05-02T07:59:56.915Z</time></trkpt><trkpt lat="46.1273988" lon="13.572908"><ele>370.0</ele><time>2026-05-02T07:59:57.918Z</time></trkpt><trkpt lat="46.1272742" lon="13.5728865"><ele>363.3333333333333</ele><time>2026-05-02T07:59:58.916Z</time></trkpt><trkpt lat="46.1271533" lon="13.5729305"><ele>356.6666666666667</ele><time>2026-05-02T07:59:59.923Z</time></trkpt><trkpt lat="46.1270489" lon="13.5730318"><ele>350.0</ele><time>2026-05-02T08:00:00.925Z</time></trkpt><trkpt lat="46.1269399" lon="13.5733601"><ele>350.0</ele><time>2026-05-02T08:00:02.912Z</time></trkpt><trkpt lat="46.1269691" lon="13.5735387"><ele>350.0</ele><time>2026-05-02T08:00:03.914Z</time></trkpt><trkpt lat="46.127014" lon="13.5737269"><ele>350.0</ele><time>2026-05-02T08:00:04.92Z</time></trkpt><trkpt lat="46.1270613" lon="13.5739349"><ele>350.0</ele><time>2026-05-02T08:00:05.921Z</time></trkpt><trkpt lat="46.127115" lon="13.5741627"><ele>351.6666666666667</ele><time>2026-05-02T08:00:06.916Z</time></trkpt><trkpt lat="46.1271771" lon="13.5744134"><ele>353.3333333333333</ele><time>2026-05-02T08:00:07.921Z</time></trkpt><trkpt lat="46.127252" lon="13.574651"><ele>355.0</ele><time>2026-05-02T08:00:08.911Z</time></trkpt><trkpt lat="46.127292" lon="13.5748741"><ele>357.3333333333333</ele><time>2026-05-02T08:00:09.915Z</time></trkpt><trkpt lat="46.1273051" lon="13.5751169"><ele>359.6666666666667</ele><time>2026-05-02T08:00:10.917Z</time></trkpt><trkpt lat="46.1272731" lon="13.5753381"><ele>362.0</ele><time>2026-05-02T08:00:11.914Z</time></trkpt><trkpt lat="46.1272346" lon="13.5755277"><ele>364.8</ele><time>2026-05-02T08:00:12.924Z</time></trkpt><trkpt lat="46.1272137" lon="13.5756678"><ele>367.6</ele><time>2026-05-02T08:00:13.919Z</time></trkpt><trkpt lat="46.1272122" lon="13.5757926"><ele>370.40000000000003</ele><time>2026-05-02T08:00:14.917Z</time></trkpt><trkpt lat="46.1272196" lon="13.5759098"><ele>373.20000000000005</ele><time>2026-05-02T08:00:15.922Z</time></trkpt><trkpt lat="46.1272347" lon="13.5760596"><ele>376.0</ele><time>2026-05-02T08:00:16.911Z</time></trkpt><trkpt lat="46.1272404" lon="13.5762155"><ele>378.8</ele><time>2026-05-02T08:00:17.915Z</time></trkpt><trkpt lat="46.1272339" lon="13.5763711"><ele>381.6</ele><time>2026-05-02T08:00:18.922Z</time></trkpt><trkpt lat="46.127214" lon="13.5765251"><ele>384.4</ele><time>2026-05-02T08:00:19.909Z</time></trkpt><trkpt lat="46.1271778" lon="13.5766674"><ele>387.2</ele><time>2026-05-02T08:00:20.918Z</time></trkpt><trkpt lat="46.1271304" lon="13.5768036"><ele>390.0</ele><time>2026-05-02T08:00:21.913Z</time></trkpt><trkpt lat="46.1270499" lon="13.577111"><ele>391.25</ele><time>2026-05-02T08:00:23.913Z</time></trkpt><trkpt lat="46.1270074" lon="13.5772719"><ele>392.5</ele><time>2026-05-02T08:00:24.918Z</time></trkpt><trkpt lat="46.1269681" lon="13.577434"><ele>393.75</ele><time>2026-05-02T08:00:25.923Z</time></trkpt><trkpt lat="46.1269305" lon="13.5776002"><ele>395.0</ele><time>2026-05-02T08:00:26.914Z</time></trkpt><trkpt lat="46.1268939" lon="13.5777763"><ele>397.0</ele><time>2026-05-02T08:00:27.92Z</time></trkpt><trkpt lat="46.1268525" lon="13.5779542"><ele>399.0</ele><time>2026-05-02T08:00:28.915Z</time></trkpt><trkpt lat="46.1268159" lon="13.578139"><ele>401.0</ele><time>2026-05-02T08:00:29.912Z</time></trkpt><trkpt lat="46.1267745" lon="13.5783133"><ele>403.0</ele><time>2026-05-02T08:00:30.92Z</time></trkpt><trkpt lat="46.12672" lon="13.5784885"><ele>403.0</ele><time>2026-05-02T08:00:31.916Z</time></trkpt><trkpt lat="46.1266598" lon="13.5786637"><ele>403.0</ele><time>2026-05-02T08:00:32.911Z</time></trkpt><trkpt lat="46.1265956" lon="13.5788415"><ele>403.0</ele><time>2026-05-02T08:00:33.922Z</time></trkpt><trkpt lat="46.1265347" lon="13.5790466"><ele>403.0</ele><time>2026-05-02T08:00:34.918Z</time></trkpt><trkpt lat="46.126486" lon="13.5792559"><ele>401.75</ele><time>2026-05-02T08:00:35.912Z</time></trkpt><trkpt lat="46.1264405" lon="13.5794604"><ele>400.5</ele><time>2026-05-02T08:00:36.915Z</time></trkpt><trkpt lat="46.1264023" lon="13.5796631"><ele>399.25</ele><time>2026-05-02T08:00:37.914Z</time></trkpt><trkpt lat="46.1263719" lon="13.5798444"><ele>398.0</ele><time>2026-05-02T08:00:38.908Z</time></trkpt><trkpt lat="46.1263392" lon="13.5800132"><ele>401.25</ele><time>2026-05-02T08:00:39.919Z</time></trkpt><trkpt lat="46.1263064" lon="13.5801789"><ele>404.5</ele><time>2026-05-02T08:00:40.917Z</time></trkpt><trkpt lat="46.126269" lon="13.5803348"><ele>407.75</ele><time>2026-05-02T08:00:41.917Z</time></trkpt><trkpt lat="46.1262356" lon="13.5805076"><ele>411.0</ele><time>2026-05-02T08:00:42.92Z</time></trkpt><trkpt lat="46.1261713" lon="13.5808833"><ele>412.75</ele><time>2026-05-02T08:00:44.919Z</time></trkpt><trkpt lat="46.1261469" lon="13.5810797"><ele>414.5</ele><time>2026-05-02T08:00:45.908Z</time></trkpt><trkpt lat="46.1261343" lon="13.581278"><ele>416.25</ele><time>2026-05-02T08:00:46.911Z</time></trkpt><trkpt lat="46.1261227" lon="13.5814637"><ele>418.0</ele><time>2026-05-02T08:00:47.911Z</time></trkpt><trkpt lat="46.126108" lon="13.5816553"><ele>419.5</ele><time>2026-05-02T08:00:48.911Z</time></trkpt><trkpt lat="46.1260881" lon="13.581841"><ele>421.0</ele><time>2026-05-02T08:00:49.913Z</time></trkpt><trkpt lat="46.126075" lon="13.5820495"><ele>422.5</ele><time>2026-05-02T08:00:50.925Z</time></trkpt><trkpt lat="46.1260552" lon="13.5822572"><ele>424.0</ele><time>2026-05-02T08:00:51.921Z</time></trkpt><trkpt lat="46.1260197" lon="13.5824634"><ele>425.25</ele><time>2026-05-02T08:00:52.913Z</time></trkpt><trkpt lat="46.1260119" lon="13.5826745"><ele>426.5</ele><time>2026-05-02T08:00:53.919Z</time></trkpt><trkpt lat="46.12604" lon="13.5828659"><ele>427.75</ele><time>2026-05-02T08:00:54.915Z</time></trkpt><trkpt lat="46.12608" lon="13.5830467"><ele>429.0</ele><time>2026-05-02T08:00:55.914Z</time></trkpt><trkpt lat="46.1261155" lon="13.5832178"><ele>430.0</ele><time>2026-05-02T08:00:56.91Z</time></trkpt><trkpt lat="46.1261676" lon="13.5833943"><ele>431.0</ele><time>2026-05-02T08:00:57.916Z</time></trkpt><trkpt lat="46.1262186" lon="13.5835843"><ele>432.0</ele><time>2026-05-02T08:00:58.914Z</time></trkpt><trkpt lat="46.1262642" lon="13.5837624"><ele>433.0</ele><time>2026-05-02T08:00:59.913Z</time></trkpt><trkpt lat="46.1262907" lon="13.5839399"><ele>433.75</ele><time>2026-05-02T08:01:00.914Z</time></trkpt><trkpt lat="46.1262934" lon="13.5841265"><ele>434.5</ele><time>2026-05-02T08:01:01.914Z</time></trkpt><trkpt lat="46.1262827" lon="13.5843347"><ele>435.25</ele><time>2026-05-02T08:01:02.912Z</time></trkpt><trkpt lat="46.1262877" lon="13.5845273"><ele>436.0</ele><time>2026-05-02T08:01:03.919Z</time></trkpt><trkpt lat="46.1262455" lon="13.5848683"><ele>437.25</ele><time>2026-05-02T08:01:05.908Z</time></trkpt><trkpt lat="46.1262174" lon="13.5850502"><ele>438.5</ele><time>2026-05-02T08:01:06.914Z</time></trkpt><trkpt lat="46.1261924" lon="13.585244"><ele>439.75</ele><time>2026-05-02T08:01:07.926Z</time></trkpt><trkpt lat="46.1261726" lon="13.585442"><ele>441.0</ele><time>2026-05-02T08:01:08.91Z</time></trkpt><trkpt lat="46.1261488" lon="13.5856342"><ele>442.25</ele><time>2026-05-02T08:01:09.914Z</time></trkpt><trkpt lat="46.1261278" lon="13.5858322"><ele>443.5</ele><time>2026-05-02T08:01:10.918Z</time></trkpt><trkpt lat="46.126123" lon="13.586002"><ele>444.75</ele><time>2026-05-02T08:01:11.907Z</time></trkpt><trkpt lat="46.1261146" lon="13.5861634"><ele>446.0</ele><time>2026-05-02T08:01:12.914Z</time></trkpt><trkpt lat="46.1260957" lon="13.5863083"><ele>446.49999999999994</ele><time>2026-05-02T08:01:13.915Z</time></trkpt><trkpt lat="46.126082" lon="13.586442"><ele>447.0</ele><time>2026-05-02T08:01:14.913Z</time></trkpt><trkpt lat="46.1260743" lon="13.5865622"><ele>447.5</ele><time>2026-05-02T08:01:15.909Z</time></trkpt><trkpt lat="46.1260681" lon="13.5866758"><ele>448.0</ele><time>2026-05-02T08:01:16.917Z</time></trkpt><trkpt lat="46.1260585" lon="13.586771"><ele>448.49999999999994</ele><time>2026-05-02T08:01:17.916Z</time></trkpt><trkpt lat="46.1260447" lon="13.5869491"><ele>449.0</ele><time>2026-05-02T08:01:19.919Z</time></trkpt><trkpt lat="46.1260339" lon="13.5870633"><ele>449.79999999999995</ele><time>2026-05-02T08:01:20.918Z</time></trkpt><trkpt lat="46.1260003" lon="13.5871931"><ele>450.59999999999997</ele><time>2026-05-02T08:01:21.911Z</time></trkpt><trkpt lat="46.1259537" lon="13.5873254"><ele>451.4</ele><time>2026-05-02T08:01:22.923Z</time></trkpt><trkpt lat="46.1259047" lon="13.5874785"><ele>452.2</ele><time>2026-05-02T08:01:23.924Z</time></trkpt><trkpt lat="46.1258625" lon="13.5876503"><ele>453.0</ele><time>2026-05-02T08:01:24.915Z</time></trkpt><trkpt lat="46.1257614" lon="13.5879813"><ele>458.0</ele><time>2026-05-02T08:01:26.921Z</time></trkpt><trkpt lat="46.1257063" lon="13.5881499"><ele>463.0</ele><time>2026-05-02T08:01:27.907Z</time></trkpt><trkpt lat="46.1256666" lon="13.588317"><ele>468.0</ele><time>2026-05-02T08:01:28.913Z</time></trkpt><trkpt lat="46.1256349" lon="13.5884814"><ele>473.0</ele><time>2026-05-02T08:01:29.92Z</time></trkpt><trkpt lat="46.1256009" lon="13.5886312"><ele>473.79999999999995</ele><time>2026-05-02T08:01:30.911Z</time></trkpt><trkpt lat="46.1255705" lon="13.5887862"><ele>474.59999999999997</ele><time>2026-05-02T08:01:31.905Z</time></trkpt><trkpt lat="46.1255408" lon="13.5889425"><ele>475.40000000000003</ele><time>2026-05-02T08:01:32.91Z</time></trkpt><trkpt lat="46.1255112" lon="13.5891047"><ele>476.20000000000005</ele><time>2026-05-02T08:01:33.92Z</time></trkpt><trkpt lat="46.125473" lon="13.5892411"><ele>477.0</ele><time>2026-05-02T08:01:34.919Z</time></trkpt><trkpt lat="46.1254253" lon="13.5893355"><ele>477.0</ele><time>2026-05-02T08:01:35.915Z</time></trkpt><trkpt lat="46.1253676" lon="13.5893865"><ele>477.00000000000006</ele><time>2026-05-02T08:01:36.914Z</time></trkpt><trkpt lat="46.125305" lon="13.5893536"><ele>477.00000000000006</ele><time>2026-05-02T08:01:37.914Z</time></trkpt><trkpt lat="46.1252551" lon="13.5892381"><ele>477.0</ele><time>2026-05-02T08:01:38.917Z</time></trkpt><trkpt lat="46.1252162" lon="13.5890829"><ele>477.0</ele><time>2026-05-02T08:01:39.913Z</time></trkpt><trkpt lat="46.1251777" lon="13.5888802"><ele>476.0</ele><time>2026-05-02T08:01:40.92Z</time></trkpt><trkpt lat="46.125126" lon="13.5886648"><ele>475.0</ele><time>2026-05-02T08:01:41.918Z</time></trkpt><trkpt lat="46.1250631" lon="13.5884605"><ele>474.0</ele><time>2026-05-02T08:01:42.927Z</time></trkpt><trkpt lat="46.1249954" lon="13.5882908"><ele>473.0</ele><time>2026-05-02T08:01:43.911Z</time></trkpt><trkpt lat="46.1249372" lon="13.5881521"><ele>485.3333333333333</ele><time>2026-05-02T08:01:44.912Z</time></trkpt><trkpt lat="46.1248872" lon="13.5880291"><ele>497.66666666666663</ele><time>2026-05-02T08:01:45.914Z</time></trkpt><trkpt lat="46.1246792" lon="13.5878955"><ele>510.0</ele><time>2026-05-02T08:01:47.913Z</time></trkpt><trkpt lat="46.124523" lon="13.587852"><ele>510.0</ele><time>2026-05-02T08:01:48.916Z</time></trkpt><trkpt lat="46.1243709" lon="13.587779"><ele>510.0</ele><time>2026-05-02T08:01:49.916Z</time></trkpt><trkpt lat="46.124221" lon="13.5877297"><ele>510.0</ele><time>2026-05-02T08:01:50.914Z</time></trkpt><trkpt lat="46.1240868" lon="13.5877105"><ele>510.0</ele><time>2026-05-02T08:01:51.918Z</time></trkpt><trkpt lat="46.1239567" lon="13.5877134"><ele>510.0</ele><time>2026-05-02T08:01:52.917Z</time></trkpt><trkpt lat="46.1238795" lon="13.5877071"><ele>510.0</ele><time>2026-05-02T08:01:53.92Z</time></trkpt><trkpt lat="46.1238138" lon="13.5876796"><ele>510.0</ele><time>2026-05-02T08:01:54.911Z</time></trkpt><trkpt lat="46.1237639" lon="13.5876242"><ele>510.0</ele><time>2026-05-02T08:01:55.92Z</time></trkpt><trkpt lat="46.1238174" lon="13.5874478"><ele>510.0</ele><time>2026-05-02T08:01:57.918Z</time></trkpt><trkpt lat="46.1239" lon="13.5873256"><ele>510.0</ele><time>2026-05-02T08:01:58.917Z</time></trkpt><trkpt lat="46.1239782" lon="13.5872339"><ele>510.0</ele><time>2026-05-02T08:01:59.922Z</time></trkpt><trkpt lat="46.1240799" lon="13.5871459"><ele>510.0</ele><time>2026-05-02T08:02:00.928Z</time></trkpt><trkpt lat="46.1241958" lon="13.5870576"><ele>510.0</ele><time>2026-05-02T08:02:01.911Z</time></trkpt><trkpt lat="46.1243214" lon="13.5869614"><ele>507.5</ele><time>2026-05-02T08:02:02.91Z</time></trkpt><trkpt lat="46.1244436" lon="13.586857"><ele>505.0</ele><time>2026-05-02T08:02:03.921Z</time></trkpt><trkpt lat="46.1245389" lon="13.5867376"><ele>502.5</ele><time>2026-05-02T08:02:04.914Z</time></trkpt><trkpt lat="46.1246228" lon="13.5866333"><ele>500.0</ele><time>2026-05-02T08:02:05.911Z</time></trkpt><trkpt lat="46.1246953" lon="13.5865245"><ele>500.0</ele><time>2026-05-02T08:02:06.918Z</time></trkpt><trkpt lat="46.1247729" lon="13.5862545"><ele>500.0</ele><time>2026-05-02T08:02:08.927Z</time></trkpt><trkpt lat="46.1247576" lon="13.5860848"><ele>500.0</ele><time>2026-05-02T08:02:09.919Z</time></trkpt><trkpt lat="46.124714" lon="13.5859077"><ele>501.3333333333333</ele><time>2026-05-02T08:02:10.914Z</time></trkpt><trkpt lat="46.1246488" lon="13.5857083"><ele>502.66666666666663</ele><time>2026-05-02T08:02:11.911Z</time></trkpt><trkpt lat="46.1245522" lon="13.5854834"><ele>504.0</ele><time>2026-05-02T08:02:12.916Z</time></trkpt><trkpt lat="46.1244308" lon="13.5852578"><ele>504.0</ele><time>2026-05-02T08:02:13.92Z</time></trkpt><trkpt lat="46.1243037" lon="13.585047"><ele>504.0</ele><time>2026-05-02T08:02:14.916Z</time></trkpt><trkpt lat="46.1242111" lon="13.5848731"><ele>504.0</ele><time>2026-05-02T08:02:15.917Z</time></trkpt><trkpt lat="46.1241429" lon="13.5847154"><ele>504.0</ele><time>2026-05-02T08:02:16.913Z</time></trkpt><trkpt lat="46.1241024" lon="13.5845942"><ele>504.0</ele><time>2026-05-02T08:02:17.911Z</time></trkpt><trkpt lat="46.1240354" lon="13.5845041"><ele>504.0</ele><time>2026-05-02T08:02:18.919Z</time></trkpt><trkpt lat="46.123981" lon="13.5844211"><ele>504.0</ele><time>2026-05-02T08:02:19.919Z</time></trkpt><trkpt lat="46.1238834" lon="13.5843757"><ele>504.0</ele><time>2026-05-02T08:02:20.916Z</time></trkpt><trkpt lat="46.1237702" lon="13.5842921"><ele>507.2</ele><time>2026-05-02T08:02:21.914Z</time></trkpt><trkpt lat="46.1236883" lon="13.5841708"><ele>510.4</ele><time>2026-05-02T08:02:22.919Z</time></trkpt><trkpt lat="46.1236292" lon="13.5840356"><ele>513.6</ele><time>2026-05-02T08:02:23.919Z</time></trkpt><trkpt lat="46.1235727" lon="13.5839173"><ele>516.8</ele><time>2026-05-02T08:02:24.918Z</time></trkpt><trkpt lat="46.1235212" lon="13.5838096"><ele>520.0</ele><time>2026-05-02T08:02:25.919Z</time></trkpt><trkpt lat="46.1234743" lon="13.5837448"><ele>520.0</ele><time>2026-05-02T08:02:26.914Z</time></trkpt><trkpt lat="46.1234145" lon="13.583837"><ele>520.0</ele><time>2026-05-02T08:02:28.918Z</time></trkpt><trkpt lat="46.123501" lon="13.5840744"><ele>520.0</ele><time>2026-05-02T08:02:30.919Z</time></trkpt><trkpt lat="46.1235801" lon="13.5842202"><ele>520.0</ele><time>2026-05-02T08:02:31.91Z</time></trkpt><trkpt lat="46.1236635" lon="13.5843788"><ele>522.75</ele><time>2026-05-02T08:02:32.91Z</time></trkpt><trkpt lat="46.1237424" lon="13.5845439"><ele>525.5</ele><time>2026-05-02T08:02:33.915Z</time></trkpt><trkpt lat="46.1238177" lon="13.5847123"><ele>528.25</ele><time>2026-05-02T08:02:34.915Z</time></trkpt><trkpt lat="46.1238745" lon="13.5848909"><ele>531.0</ele><time>2026-05-02T08:02:35.928Z</time></trkpt><trkpt lat="46.1239111" lon="13.5850846"><ele>531.0</ele><time>2026-05-02T08:02:36.913Z</time></trkpt><trkpt lat="46.1239222" lon="13.5852649"><ele>531.0</ele><time>2026-05-02T08:02:37.908Z</time></trkpt><trkpt lat="46.1239304" lon="13.5854276"><ele>531.0</ele><time>2026-05-02T08:02:38.915Z</time></trkpt><trkpt lat="46.1239386" lon="13.5855718"><ele>531.0</ele><time>2026-05-02T08:02:39.924Z</time></trkpt><trkpt lat="46.1239533" lon="13.5856885"><ele>531.0</ele><time>2026-05-02T08:02:40.919Z</time></trkpt><trkpt lat="46.1239587" lon="13.5857895"><ele>531.1666666666666</ele><time>2026-05-02T08:02:41.917Z</time></trkpt><trkpt lat="46.1239313" lon="13.5858818"><ele>531.3333333333334</ele><time>2026-05-02T08:02:42.915Z</time></trkpt><trkpt lat="46.1238698" lon="13.5859305"><ele>531.5</ele><time>2026-05-02T08:02:43.915Z</time></trkpt><trkpt lat="46.1237994" lon="13.585906"><ele>531.6666666666667</ele><time>2026-05-02T08:02:44.916Z</time></trkpt><trkpt lat="46.1237465" lon="13.5858043"><ele>531.8333333333334</ele><time>2026-05-02T08:02:45.911Z</time></trkpt><trkpt lat="46.1237075" lon="13.5856652"><ele>532.0</ele><time>2026-05-02T08:02:46.914Z</time></trkpt><trkpt lat="46.1236525" lon="13.5855184"><ele>532.0</ele><time>2026-05-02T08:02:47.918Z</time></trkpt><trkpt lat="46.123572" lon="13.5853615"><ele>532.0</ele><time>2026-05-02T08:02:48.927Z</time></trkpt><trkpt lat="46.1234741" lon="13.5851885"><ele>532.0</ele><time>2026-05-02T08:02:49.91Z</time></trkpt><trkpt lat="46.123224" lon="13.5848891"><ele>536.6666666666667</ele><time>2026-05-02T08:02:51.911Z</time></trkpt><trkpt lat="46.1230743" lon="13.5848091"><ele>541.3333333333334</ele><time>2026-05-02T08:02:52.909Z</time></trkpt><trkpt lat="46.122951" lon="13.584706"><ele>546.0</ele><time>2026-05-02T08:02:53.91Z</time></trkpt><trkpt lat="46.1227983" lon="13.5845834"><ele>544.5</ele><time>2026-05-02T08:02:54.915Z</time></trkpt><trkpt lat="46.1226637" lon="13.5844693"><ele>543.0</ele><time>2026-05-02T08:02:55.912Z</time></trkpt><trkpt lat="46.1225197" lon="13.5843682"><ele>541.5</ele><time>2026-05-02T08:02:56.914Z</time></trkpt><trkpt lat="46.1223923" lon="13.5843271"><ele>540.0</ele><time>2026-05-02T08:02:57.909Z</time></trkpt><trkpt lat="46.1222596" lon="13.5843242"><ele>544.25</ele><time>2026-05-02T08:02:58.915Z</time></trkpt><trkpt lat="46.1221306" lon="13.5843258"><ele>548.5</ele><time>2026-05-02T08:02:59.923Z</time></trkpt><trkpt lat="46.1220059" lon="13.5843225"><ele>552.75</ele><time>2026-05-02T08:03:00.925Z</time></trkpt><trkpt lat="46.1218962" lon="13.5842929"><ele>557.0</ele><time>2026-05-02T08:03:01.91Z</time></trkpt><trkpt lat="46.1218191" lon="13.5842161"><ele>557.0</ele><time>2026-05-02T08:03:02.915Z</time></trkpt><trkpt lat="46.1217476" lon="13.5841145"><ele>557.0</ele><time>2026-05-02T08:03:03.91Z</time></trkpt><trkpt lat="46.1216836" lon="13.5839896"><ele>557.0</ele><time>2026-05-02T08:03:04.912Z</time></trkpt><trkpt lat="46.1216299" lon="13.5838336"><ele>557.0</ele><time>2026-05-02T08:03:05.912Z</time></trkpt><trkpt lat="46.1215841" lon="13.5836594"><ele>561.0</ele><time>2026-05-02T08:03:06.908Z</time></trkpt><trkpt lat="46.121539" lon="13.5834686"><ele>565.0</ele><time>2026-05-02T08:03:07.918Z</time></trkpt><trkpt lat="46.1214922" lon="13.5832633"><ele>569.0</ele><time>2026-05-02T08:03:08.921Z</time></trkpt><trkpt lat="46.1214587" lon="13.5830496"><ele>573.0</ele><time>2026-05-02T08:03:09.915Z</time></trkpt><trkpt lat="46.1214484" lon="13.582823"><ele>573.0</ele><time>2026-05-02T08:03:10.915Z</time></trkpt><trkpt lat="46.1213592" lon="13.5823734"><ele>573.0</ele><time>2026-05-02T08:03:12.921Z</time></trkpt><trkpt lat="46.1212997" lon="13.5821913"><ele>573.0</ele><time>2026-05-02T08:03:13.914Z</time></trkpt><trkpt lat="46.1212457" lon="13.5820657"><ele>573.0</ele><time>2026-05-02T08:03:14.911Z</time></trkpt><trkpt lat="46.1211917" lon="13.5819947"><ele>573.0</ele><time>2026-05-02T08:03:15.914Z</time></trkpt><trkpt lat="46.1211264" lon="13.5819906"><ele>573.0</ele><time>2026-05-02T08:03:16.921Z</time></trkpt><trkpt lat="46.1210463" lon="13.582057"><ele>573.0</ele><time>2026-05-02T08:03:17.917Z</time></trkpt><trkpt lat="46.1210057" lon="13.5821418"><ele>573.0</ele><time>2026-05-02T08:03:18.912Z</time></trkpt><trkpt lat="46.120966" lon="13.5822432"><ele>573.0</ele><time>2026-05-02T08:03:19.913Z</time></trkpt><trkpt lat="46.1209254" lon="13.5823743"><ele>573.0</ele><time>2026-05-02T08:03:20.915Z</time></trkpt><trkpt lat="46.1208923" lon="13.5825193"><ele>573.0</ele><time>2026-05-02T08:03:21.911Z</time></trkpt><trkpt lat="46.1208819" lon="13.5826766"><ele>573.0</ele><time>2026-05-02T08:03:22.912Z</time></trkpt><trkpt lat="46.1208717" lon="13.5828409"><ele>573.0</ele><time>2026-05-02T08:03:23.908Z</time></trkpt><trkpt lat="46.1208636" lon="13.5830037"><ele>574.6</ele><time>2026-05-02T08:03:24.923Z</time></trkpt><trkpt lat="46.1208537" lon="13.5831608"><ele>576.1999999999999</ele><time>2026-05-02T08:03:25.913Z</time></trkpt><trkpt lat="46.1208441" lon="13.5833125"><ele>577.8</ele><time>2026-05-02T08:03:26.917Z</time></trkpt><trkpt lat="46.1208373" lon="13.5834463"><ele>579.4</ele><time>2026-05-02T08:03:27.919Z</time></trkpt><trkpt lat="46.1208145" lon="13.5835677"><ele>581.0</ele><time>2026-05-02T08:03:28.918Z</time></trkpt><trkpt lat="46.1207868" lon="13.5836852"><ele>581.0</ele><time>2026-05-02T08:03:29.917Z</time></trkpt><trkpt lat="46.1207547" lon="13.5838001"><ele>581.0</ele><time>2026-05-02T08:03:30.923Z</time></trkpt><trkpt lat="46.1207097" lon="13.5838841"><ele>581.0</ele><time>2026-05-02T08:03:31.912Z</time></trkpt><trkpt lat="46.1205445" lon="13.5839466"><ele>581.0</ele><time>2026-05-02T08:03:33.921Z</time></trkpt><trkpt lat="46.1204563" lon="13.5839835"><ele>581.0</ele><time>2026-05-02T08:03:34.92Z</time></trkpt><trkpt lat="46.1203821" lon="13.5840154"><ele>583.1666666666666</ele><time>2026-05-02T08:03:35.912Z</time></trkpt><trkpt lat="46.1203151" lon="13.5840498"><ele>585.3333333333333</ele><time>2026-05-02T08:03:36.913Z</time></trkpt><trkpt lat="46.1202455" lon="13.5840822"><ele>587.5</ele><time>2026-05-02T08:03:37.921Z</time></trkpt><trkpt lat="46.1201802" lon="13.5841253"><ele>589.6666666666666</ele><time>2026-05-02T08:03:38.915Z</time></trkpt><trkpt lat="46.1201644" lon="13.5843035"><ele>591.8333333333334</ele><time>2026-05-02T08:03:40.914Z</time></trkpt><trkpt lat="46.1201803" lon="13.5844188"><ele>594.0</ele><time>2026-05-02T08:03:41.91Z</time></trkpt><trkpt lat="46.1201832" lon="13.5845419"><ele>595.0</ele><time>2026-05-02T08:03:42.918Z</time></trkpt><trkpt lat="46.1201717" lon="13.5846718"><ele>596.0</ele><time>2026-05-02T08:03:43.912Z</time></trkpt><trkpt lat="46.1201593" lon="13.5848009"><ele>597.0</ele><time>2026-05-02T08:03:44.923Z</time></trkpt><trkpt lat="46.1201371" lon="13.5849058"><ele>598.0</ele><time>2026-05-02T08:03:45.91Z</time></trkpt><trkpt lat="46.1201015" lon="13.5849901"><ele>599.0</ele><time>2026-05-02T08:03:46.911Z</time></trkpt><trkpt lat="46.1200037" lon="13.5850155"><ele>600.0</ele><time>2026-05-02T08:03:48.914Z</time></trkpt><trkpt lat="46.1199266" lon="13.5848422"><ele>604.5</ele><time>2026-05-02T08:03:50.916Z</time></trkpt><trkpt lat="46.1198832" lon="13.5847279"><ele>609.0</ele><time>2026-05-02T08:03:51.912Z</time></trkpt><trkpt lat="46.119839" lon="13.5846375"><ele>613.5</ele><time>2026-05-02T08:03:52.924Z</time></trkpt><trkpt lat="46.1196208" lon="13.5845863"><ele>618.0</ele><time>2026-05-02T08:03:55.908Z</time></trkpt><trkpt lat="46.1195063" lon="13.5846257"><ele>618.0</ele><time>2026-05-02T08:03:56.917Z</time></trkpt><trkpt lat="46.1193782" lon="13.5846727"><ele>618.0</ele><time>2026-05-02T08:03:57.908Z</time></trkpt><trkpt lat="46.1192519" lon="13.5847228"><ele>618.0</ele><time>2026-05-02T08:03:58.915Z</time></trkpt><trkpt lat="46.1191361" lon="13.5847634"><ele>618.0</ele><time>2026-05-02T08:03:59.912Z</time></trkpt><trkpt lat="46.1190161" lon="13.5847752"><ele>618.0</ele><time>2026-05-02T08:04:00.91Z</time></trkpt><trkpt lat="46.1188956" lon="13.5847421"><ele>618.0</ele><time>2026-05-02T08:04:01.911Z</time></trkpt><trkpt lat="46.1187839" lon="13.584672"><ele>618.0</ele><time>2026-05-02T08:04:02.914Z</time></trkpt><trkpt lat="46.1186844" lon="13.5845975"><ele>618.0</ele><time>2026-05-02T08:04:03.915Z</time></trkpt><trkpt lat="46.1185925" lon="13.5845447"><ele>618.0</ele><time>2026-05-02T08:04:04.918Z</time></trkpt><trkpt lat="46.1184936" lon="13.5845712"><ele>618.0</ele><time>2026-05-02T08:04:05.917Z</time></trkpt><trkpt lat="46.1183888" lon="13.5846349"><ele>618.0</ele><time>2026-05-02T08:04:06.917Z</time></trkpt><trkpt lat="46.1183033" lon="13.5847324"><ele>618.0</ele><time>2026-05-02T08:04:07.929Z</time></trkpt><trkpt lat="46.1182292" lon="13.5848831"><ele>618.25</ele><time>2026-05-02T08:04:08.914Z</time></trkpt><trkpt lat="46.118173" lon="13.5850583"><ele>618.5</ele><time>2026-05-02T08:04:09.913Z</time></trkpt><trkpt lat="46.1181151" lon="13.5852253"><ele>618.75</ele><time>2026-05-02T08:04:10.925Z</time></trkpt><trkpt lat="46.1180247" lon="13.5853763"><ele>619.0</ele><time>2026-05-02T08:04:11.91Z</time></trkpt><trkpt lat="46.1179154" lon="13.585491"><ele>619.0</ele><time>2026-05-02T08:04:12.909Z</time></trkpt><trkpt lat="46.1177914" lon="13.585598"><ele>619.0</ele><time>2026-05-02T08:04:13.91Z</time></trkpt><trkpt lat="46.1175616" lon="13.5858662"><ele>619.0</ele><time>2026-05-02T08:04:15.917Z</time></trkpt><trkpt lat="46.1174927" lon="13.5860321"><ele>621.3333333333334</ele><time>2026-05-02T08:04:16.918Z</time></trkpt><trkpt lat="46.1174181" lon="13.5862259"><ele>623.6666666666666</ele><time>2026-05-02T08:04:17.91Z</time></trkpt><trkpt lat="46.1173435" lon="13.5864369"><ele>626.0</ele><time>2026-05-02T08:04:18.911Z</time></trkpt><trkpt lat="46.1172347" lon="13.5865854"><ele>626.0</ele><time>2026-05-02T08:04:19.914Z</time></trkpt><trkpt lat="46.1171056" lon="13.5867227"><ele>626.0</ele><time>2026-05-02T08:04:20.928Z</time></trkpt><trkpt lat="46.1169525" lon="13.5868236"><ele>626.0</ele><time>2026-05-02T08:04:21.909Z</time></trkpt><trkpt lat="46.1167967" lon="13.586928"><ele>629.75</ele><time>2026-05-02T08:04:22.919Z</time></trkpt><trkpt lat="46.1166423" lon="13.5870297"><ele>633.5</ele><time>2026-05-02T08:04:23.914Z</time></trkpt><trkpt lat="46.1165021" lon="13.5871124"><ele>637.25</ele><time>2026-05-02T08:04:24.917Z</time></trkpt><trkpt lat="46.1163771" lon="13.587132"><ele>641.0</ele><time>2026-05-02T08:04:25.916Z</time></trkpt><trkpt lat="46.1162432" lon="13.5870692"><ele>641.25</ele><time>2026-05-02T08:04:26.908Z</time></trkpt><trkpt lat="46.1161322" lon="13.5869823"><ele>641.5</ele><time>2026-05-02T08:04:27.916Z</time></trkpt><trkpt lat="46.1159904" lon="13.5869083"><ele>641.75</ele><time>2026-05-02T08:04:28.919Z</time></trkpt><trkpt lat="46.1158394" lon="13.5868367"><ele>642.0</ele><time>2026-05-02T08:04:29.912Z</time></trkpt><trkpt lat="46.1156587" lon="13.5867827"><ele>642.0</ele><time>2026-05-02T08:04:30.918Z</time></trkpt><trkpt lat="46.1154735" lon="13.5867663"><ele>642.0</ele><time>2026-05-02T08:04:31.919Z</time></trkpt><trkpt lat="46.1153017" lon="13.5867486"><ele>642.0</ele><time>2026-05-02T08:04:32.91Z</time></trkpt><trkpt lat="46.1151646" lon="13.5867173"><ele>642.0</ele><time>2026-05-02T08:04:33.925Z</time></trkpt><trkpt lat="46.1150537" lon="13.5866871"><ele>642.0</ele><time>2026-05-02T08:04:34.919Z</time></trkpt><trkpt lat="46.1148108" lon="13.5866401"><ele>642.0</ele><time>2026-05-02T08:04:36.922Z</time></trkpt><trkpt lat="46.1147187" lon="13.5867126"><ele>643.6</ele><time>2026-05-02T08:04:37.914Z</time></trkpt><trkpt lat="46.114642" lon="13.5867954"><ele>645.2</ele><time>2026-05-02T08:04:38.917Z</time></trkpt><trkpt lat="46.1145511" lon="13.5868574"><ele>646.8</ele><time>2026-05-02T08:04:39.916Z</time></trkpt><trkpt lat="46.1144668" lon="13.5867341"><ele>648.4</ele><time>2026-05-02T08:04:41.912Z</time></trkpt><trkpt lat="46.114458" lon="13.5866368"><ele>650.0</ele><time>2026-05-02T08:04:42.913Z</time></trkpt><trkpt lat="46.1144586" lon="13.5865312"><ele>650.0</ele><time>2026-05-02T08:04:43.91Z</time></trkpt><trkpt lat="46.1144707" lon="13.5863896"><ele>650.0</ele><time>2026-05-02T08:04:44.919Z</time></trkpt><trkpt lat="46.1144742" lon="13.5862346"><ele>650.0</ele><time>2026-05-02T08:04:45.92Z</time></trkpt><trkpt lat="46.1144334" lon="13.5860902"><ele>650.0</ele><time>2026-05-02T08:04:46.912Z</time></trkpt><trkpt lat="46.114379" lon="13.5859597"><ele>650.0</ele><time>2026-05-02T08:04:47.913Z</time></trkpt><trkpt lat="46.1143145" lon="13.5858876"><ele>647.5</ele><time>2026-05-02T08:04:48.924Z</time></trkpt><trkpt lat="46.1142276" lon="13.5858619"><ele>645.0</ele><time>2026-05-02T08:04:49.912Z</time></trkpt><trkpt lat="46.1141084" lon="13.5858694"><ele>642.5</ele><time>2026-05-02T08:04:50.919Z</time></trkpt><trkpt lat="46.1139646" lon="13.5858842"><ele>640.0</ele><time>2026-05-02T08:04:51.92Z</time></trkpt><trkpt lat="46.1138022" lon="13.5858999"><ele>640.0</ele><time>2026-05-02T08:04:52.931Z</time></trkpt><trkpt lat="46.1136338" lon="13.5858967"><ele>640.0</ele><time>2026-05-02T08:04:53.915Z</time></trkpt><trkpt lat="46.1134675" lon="13.5859206"><ele>640.0</ele><time>2026-05-02T08:04:54.912Z</time></trkpt><trkpt lat="46.1133298" lon="13.5860092"><ele>644.6666666666667</ele><time>2026-05-02T08:04:55.916Z</time></trkpt><trkpt lat="46.1130664" lon="13.5862462"><ele>649.3333333333334</ele><time>2026-05-02T08:04:57.913Z</time></trkpt><trkpt lat="46.1129724" lon="13.5863372"><ele>654.0</ele><time>2026-05-02T08:04:58.915Z</time></trkpt><trkpt lat="46.1128904" lon="13.5864465"><ele>654.0</ele><time>2026-05-02T08:04:59.913Z</time></trkpt><trkpt lat="46.1128051" lon="13.5865465"><ele>654.0</ele><time>2026-05-02T08:05:00.915Z</time></trkpt><trkpt lat="46.1127159" lon="13.5866345"><ele>654.0</ele><time>2026-05-02T08:05:01.914Z</time></trkpt><trkpt lat="46.1126048" lon="13.5866691"><ele>654.0</ele><time>2026-05-02T08:05:02.922Z</time></trkpt><trkpt lat="46.1124848" lon="13.5866712"><ele>656.3333333333334</ele><time>2026-05-02T08:05:03.91Z</time></trkpt><trkpt lat="46.1123384" lon="13.5866608"><ele>658.6666666666667</ele><time>2026-05-02T08:05:04.93Z</time></trkpt><trkpt lat="46.1121735" lon="13.5866438"><ele>661.0</ele><time>2026-05-02T08:05:05.914Z</time></trkpt><trkpt lat="46.1120079" lon="13.5865864"><ele>661.0</ele><time>2026-05-02T08:05:06.913Z</time></trkpt><trkpt lat="46.1118572" lon="13.5864638"><ele>661.0</ele><time>2026-05-02T08:05:07.911Z</time></trkpt><trkpt lat="46.1117352" lon="13.5863203"><ele>661.0</ele><time>2026-05-02T08:05:08.923Z</time></trkpt><trkpt lat="46.1116223" lon="13.5861865"><ele>659.3333333333334</ele><time>2026-05-02T08:05:09.91Z</time></trkpt><trkpt lat="46.1115223" lon="13.5860335"><ele>657.6666666666666</ele><time>2026-05-02T08:05:10.915Z</time></trkpt><trkpt lat="46.1114025" lon="13.5859008"><ele>656.0</ele><time>2026-05-02T08:05:11.915Z</time></trkpt><trkpt lat="46.1112711" lon="13.5857882"><ele>656.0</ele><time>2026-05-02T08:05:12.914Z</time></trkpt><trkpt lat="46.1111406" lon="13.58567"><ele>656.0</ele><time>2026-05-02T08:05:13.91Z</time></trkpt><trkpt lat="46.1110346" lon="13.585534"><ele>656.0</ele><time>2026-05-02T08:05:14.911Z</time></trkpt><trkpt lat="46.1109553" lon="13.5853525"><ele>656.0</ele><time>2026-05-02T08:05:15.925Z</time></trkpt><trkpt lat="46.1108823" lon="13.5851732"><ele>654.0</ele><time>2026-05-02T08:05:16.922Z</time></trkpt><trkpt lat="46.1107574" lon="13.584786"><ele>652.0</ele><time>2026-05-02T08:05:18.914Z</time></trkpt><trkpt lat="46.1106928" lon="13.584572"><ele>653.0</ele><time>2026-05-02T08:05:19.914Z</time></trkpt><trkpt lat="46.1106737" lon="13.5843594"><ele>654.0</ele><time>2026-05-02T08:05:20.914Z</time></trkpt><trkpt lat="46.1106927" lon="13.5841392"><ele>655.0</ele><time>2026-05-02T08:05:21.909Z</time></trkpt><trkpt lat="46.1107497" lon="13.5839267"><ele>655.0</ele><time>2026-05-02T08:05:22.906Z</time></trkpt><trkpt lat="46.1108242" lon="13.5837457"><ele>655.0</ele><time>2026-05-02T08:05:23.907Z</time></trkpt><trkpt lat="46.1109146" lon="13.5835635"><ele>655.0</ele><time>2026-05-02T08:05:24.909Z</time></trkpt><trkpt lat="46.1109607" lon="13.5834129"><ele>655.0</ele><time>2026-05-02T08:05:25.919Z</time></trkpt><trkpt lat="46.1109597" lon="13.5832784"><ele>655.8</ele><time>2026-05-02T08:05:26.914Z</time></trkpt><trkpt lat="46.1109192" lon="13.5831362"><ele>656.6</ele><time>2026-05-02T08:05:27.914Z</time></trkpt><trkpt lat="46.1108568" lon="13.5830152"><ele>657.4000000000001</ele><time>2026-05-02T08:05:28.91Z</time></trkpt><trkpt lat="46.1107773" lon="13.5829364"><ele>658.2</ele><time>2026-05-02T08:05:29.909Z</time></trkpt><trkpt lat="46.1106664" lon="13.582895"><ele>659.0</ele><time>2026-05-02T08:05:30.909Z</time></trkpt><trkpt lat="46.1105421" lon="13.5828794"><ele>655.75</ele><time>2026-05-02T08:05:31.908Z</time></trkpt><trkpt lat="46.1104173" lon="13.5828611"><ele>652.5</ele><time>2026-05-02T08:05:32.908Z</time></trkpt><trkpt lat="46.1102964" lon="13.5828263"><ele>649.25</ele><time>2026-05-02T08:05:33.909Z</time></trkpt><trkpt lat="46.1101871" lon="13.5827873"><ele>646.0</ele><time>2026-05-02T08:05:34.906Z</time></trkpt><trkpt lat="46.1100866" lon="13.58272"><ele>646.0</ele><time>2026-05-02T08:05:35.92Z</time></trkpt><trkpt lat="46.1099969" lon="13.5826579"><ele>646.0</ele><time>2026-05-02T08:05:36.911Z</time></trkpt><trkpt lat="46.1099386" lon="13.5826096"><ele>646.0</ele><time>2026-05-02T08:05:37.907Z</time></trkpt><trkpt lat="46.1098379" lon="13.5826814"><ele>646.0</ele><time>2026-05-02T08:05:42.924Z</time></trkpt><trkpt lat="46.1098539" lon="13.5827869"><ele>646.0</ele><time>2026-05-02T08:05:44.916Z</time></trkpt><trkpt lat="46.10989" lon="13.5829431"><ele>645.6666666666667</ele><time>2026-05-02T08:05:46.914Z</time></trkpt><trkpt lat="46.1099058" lon="13.583048"><ele>645.3333333333334</ele><time>2026-05-02T08:05:47.916Z</time></trkpt><trkpt lat="46.1099078" lon="13.583164"><ele>645.0</ele><time>2026-05-02T08:05:48.924Z</time></trkpt><trkpt lat="46.1099107" lon="13.5832821"><ele>644.6666666666666</ele><time>2026-05-02T08:05:49.914Z</time></trkpt><trkpt lat="46.109917" lon="13.5834032"><ele>644.3333333333333</ele><time>2026-05-02T08:05:50.914Z</time></trkpt><trkpt lat="46.1099288" lon="13.5835276"><ele>644.0</ele><time>2026-05-02T08:05:51.915Z</time></trkpt><trkpt lat="46.109946" lon="13.5836378"><ele>642.6</ele><time>2026-05-02T08:05:52.91Z</time></trkpt><trkpt lat="46.1099745" lon="13.5837572"><ele>641.2</ele><time>2026-05-02T08:05:53.914Z</time></trkpt><trkpt lat="46.1099965" lon="13.5838748"><ele>639.8000000000001</ele><time>2026-05-02T08:05:54.927Z</time></trkpt><trkpt lat="46.1100253" lon="13.5840032"><ele>638.4000000000001</ele><time>2026-05-02T08:05:55.911Z</time></trkpt><trkpt lat="46.1100571" lon="13.5841328"><ele>637.0</ele><time>2026-05-02T08:05:56.91Z</time></trkpt><trkpt lat="46.1100823" lon="13.584263"><ele>637.0</ele><time>2026-05-02T08:05:57.918Z</time></trkpt><trkpt lat="46.1101047" lon="13.58439"><ele>637.0</ele><time>2026-05-02T08:05:58.917Z</time></trkpt><trkpt lat="46.1101234" lon="13.5846431"><ele>637.0</ele><time>2026-05-02T08:06:00.924Z</time></trkpt><trkpt lat="46.1101017" lon="13.5847557"><ele>637.0</ele><time>2026-05-02T08:06:01.907Z</time></trkpt><trkpt lat="46.1100902" lon="13.5848713"><ele>637.0</ele><time>2026-05-02T08:06:02.921Z</time></trkpt><trkpt lat="46.1100888" lon="13.5849963"><ele>635.8333333333334</ele><time>2026-05-02T08:06:03.91Z</time></trkpt><trkpt lat="46.1100802" lon="13.5851221"><ele>634.6666666666667</ele><time>2026-05-02T08:06:04.91Z</time></trkpt><trkpt lat="46.1100609" lon="13.5852286"><ele>633.5</ele><time>2026-05-02T08:06:05.904Z</time></trkpt><trkpt lat="46.1100491" lon="13.585339"><ele>632.3333333333334</ele><time>2026-05-02T08:06:06.91Z</time></trkpt><trkpt lat="46.110036" lon="13.5854593"><ele>631.1666666666666</ele><time>2026-05-02T08:06:07.911Z</time></trkpt><trkpt lat="46.1100236" lon="13.5855647"><ele>630.0</ele><time>2026-05-02T08:06:08.91Z</time></trkpt><trkpt lat="46.1099987" lon="13.5856641"><ele>629.6666666666666</ele><time>2026-05-02T08:06:09.91Z</time></trkpt><trkpt lat="46.1099564" lon="13.5857514"><ele>629.3333333333334</ele><time>2026-05-02T08:06:10.912Z</time></trkpt><trkpt lat="46.1099163" lon="13.5858442"><ele>629.0</ele><time>2026-05-02T08:06:11.909Z</time></trkpt><trkpt lat="46.1098769" lon="13.5859443"><ele>628.6666666666667</ele><time>2026-05-02T08:06:12.91Z</time></trkpt><trkpt lat="46.1098504" lon="13.5860647"><ele>628.3333333333334</ele><time>2026-05-02T08:06:13.922Z</time></trkpt><trkpt lat="46.1098162" lon="13.5861887"><ele>628.0</ele><time>2026-05-02T08:06:14.917Z</time></trkpt><trkpt lat="46.1097849" lon="13.5863128"><ele>621.1999999999999</ele><time>2026-05-02T08:06:15.915Z</time></trkpt><trkpt lat="46.1097528" lon="13.586445"><ele>614.4</ele><time>2026-05-02T08:06:16.908Z</time></trkpt><trkpt lat="46.1097257" lon="13.5865881"><ele>607.5999999999999</ele><time>2026-05-02T08:06:17.923Z</time></trkpt><trkpt lat="46.1096943" lon="13.586726"><ele>600.8</ele><time>2026-05-02T08:06:18.915Z</time></trkpt><trkpt lat="46.1096686" lon="13.5868681"><ele>594.0</ele><time>2026-05-02T08:06:19.905Z</time></trkpt><trkpt lat="46.1096159" lon="13.5871352"><ele>594.0</ele><time>2026-05-02T08:06:21.907Z</time></trkpt><trkpt lat="46.1095886" lon="13.5872684"><ele>594.0</ele><time>2026-05-02T08:06:22.909Z</time></trkpt><trkpt lat="46.1095665" lon="13.5873939"><ele>594.0</ele><time>2026-05-02T08:06:23.91Z</time></trkpt><trkpt lat="46.1095485" lon="13.5875254"><ele>594.0</ele><time>2026-05-02T08:06:24.91Z</time></trkpt><trkpt lat="46.1095354" lon="13.5876598"><ele>594.0</ele><time>2026-05-02T08:06:25.913Z</time></trkpt><trkpt lat="46.1095336" lon="13.5877891"><ele>594.0</ele><time>2026-05-02T08:06:26.913Z</time></trkpt><trkpt lat="46.1095426" lon="13.5879209"><ele>594.0</ele><time>2026-05-02T08:06:27.915Z</time></trkpt><trkpt lat="46.1095652" lon="13.5880329"><ele>594.0</ele><time>2026-05-02T08:06:28.906Z</time></trkpt><trkpt lat="46.1096018" lon="13.5881227"><ele>594.0</ele><time>2026-05-02T08:06:29.904Z</time></trkpt><trkpt lat="46.1096525" lon="13.5881802"><ele>594.0</ele><time>2026-05-02T08:06:30.919Z</time></trkpt><trkpt lat="46.1097027" lon="13.5882674"><ele>594.0</ele><time>2026-05-02T08:06:32.913Z</time></trkpt><trkpt lat="46.109613" lon="13.5883196"><ele>594.0</ele><time>2026-05-02T08:06:35.906Z</time></trkpt><trkpt lat="46.1095142" lon="13.5882342"><ele>594.0</ele><time>2026-05-02T08:06:37.908Z</time></trkpt><trkpt lat="46.1094662" lon="13.5881649"><ele>594.0</ele><time>2026-05-02T08:06:38.916Z</time></trkpt><trkpt lat="46.1094188" lon="13.5880872"><ele>594.0</ele><time>2026-05-02T08:06:39.912Z</time></trkpt><trkpt lat="46.1093752" lon="13.587998"><ele>594.0</ele><time>2026-05-02T08:06:40.92Z</time></trkpt><trkpt lat="46.1093021" lon="13.5877183"><ele>594.0</ele><time>2026-05-02T08:06:42.907Z</time></trkpt><trkpt lat="46.1092841" lon="13.5875487"><ele>594.0</ele><time>2026-05-02T08:06:43.903Z</time></trkpt><trkpt lat="46.1092782" lon="13.5873765"><ele>594.0</ele><time>2026-05-02T08:06:44.908Z</time></trkpt><trkpt lat="46.1092732" lon="13.5872046"><ele>594.0</ele><time>2026-05-02T08:06:45.907Z</time></trkpt><trkpt lat="46.109257" lon="13.587024"><ele>593.2</ele><time>2026-05-02T08:06:46.912Z</time></trkpt><trkpt lat="46.1092393" lon="13.5868535"><ele>592.4</ele><time>2026-05-02T08:06:47.914Z</time></trkpt><trkpt lat="46.1092235" lon="13.5866873"><ele>591.6</ele><time>2026-05-02T08:06:48.912Z</time></trkpt><trkpt lat="46.1092347" lon="13.5865514"><ele>590.8</ele><time>2026-05-02T08:06:49.915Z</time></trkpt><trkpt lat="46.1092346" lon="13.5864308"><ele>590.0</ele><time>2026-05-02T08:06:50.919Z</time></trkpt><trkpt lat="46.1092284" lon="13.5862924"><ele>589.2</ele><time>2026-05-02T08:06:51.918Z</time></trkpt><trkpt lat="46.1092293" lon="13.5861465"><ele>588.4</ele><time>2026-05-02T08:06:52.914Z</time></trkpt><trkpt lat="46.109239" lon="13.5859926"><ele>587.6</ele><time>2026-05-02T08:06:53.909Z</time></trkpt><trkpt lat="46.1092456" lon="13.58584"><ele>586.8</ele><time>2026-05-02T08:06:54.915Z</time></trkpt><trkpt lat="46.1092517" lon="13.5856954"><ele>586.0</ele><time>2026-05-02T08:06:55.918Z</time></trkpt><trkpt lat="46.1092621" lon="13.5855676"><ele>586.0</ele><time>2026-05-02T08:06:56.917Z</time></trkpt><trkpt lat="46.1092657" lon="13.5854485"><ele>586.0</ele><time>2026-05-02T08:06:57.912Z</time></trkpt><trkpt lat="46.109256" lon="13.5853409"><ele>586.0</ele><time>2026-05-02T08:06:58.916Z</time></trkpt><trkpt lat="46.1092329" lon="13.5852329"><ele>586.0</ele><time>2026-05-02T08:06:59.916Z</time></trkpt><trkpt lat="46.1092017" lon="13.5851055"><ele>586.0</ele><time>2026-05-02T08:07:00.91Z</time></trkpt><trkpt lat="46.1091623" lon="13.584978"><ele>586.0</ele><time>2026-05-02T08:07:01.916Z</time></trkpt><trkpt lat="46.1090951" lon="13.5846969"><ele>579.8</ele><time>2026-05-02T08:07:03.922Z</time></trkpt><trkpt lat="46.1090435" lon="13.5845575"><ele>573.6</ele><time>2026-05-02T08:07:04.92Z</time></trkpt><trkpt lat="46.1089899" lon="13.5844242"><ele>567.4</ele><time>2026-05-02T08:07:05.91Z</time></trkpt><trkpt lat="46.1089402" lon="13.5843068"><ele>561.2</ele><time>2026-05-02T08:07:06.924Z</time></trkpt><trkpt lat="46.1088828" lon="13.584195"><ele>555.0</ele><time>2026-05-02T08:07:07.91Z</time></trkpt><trkpt lat="46.1088331" lon="13.5840659"><ele>555.0</ele><time>2026-05-02T08:07:08.907Z</time></trkpt><trkpt lat="46.1087733" lon="13.583943"><ele>555.0</ele><time>2026-05-02T08:07:09.91Z</time></trkpt><trkpt lat="46.1087138" lon="13.5838229"><ele>555.0</ele><time>2026-05-02T08:07:10.918Z</time></trkpt><trkpt lat="46.1086441" lon="13.5837013"><ele>555.0</ele><time>2026-05-02T08:07:11.916Z</time></trkpt><trkpt lat="46.1085776" lon="13.5836019"><ele>555.0</ele><time>2026-05-02T08:07:12.915Z</time></trkpt><trkpt lat="46.1085223" lon="13.583535"><ele>553.4</ele><time>2026-05-02T08:07:13.91Z</time></trkpt><trkpt lat="46.1084693" lon="13.5834769"><ele>551.8</ele><time>2026-05-02T08:07:14.919Z</time></trkpt><trkpt lat="46.1083758" lon="13.5834292"><ele>550.2</ele><time>2026-05-02T08:07:16.913Z</time></trkpt><trkpt lat="46.1082866" lon="13.5834371"><ele>548.6</ele><time>2026-05-02T08:07:18.922Z</time></trkpt><trkpt lat="46.1081645" lon="13.5834937"><ele>547.0</ele><time>2026-05-02T08:07:20.911Z</time></trkpt><trkpt lat="46.1080896" lon="13.5835288"><ele>547.0</ele><time>2026-05-02T08:07:21.908Z</time></trkpt><trkpt lat="46.1080167" lon="13.5835559"><ele>547.0</ele><time>2026-05-02T08:07:22.905Z</time></trkpt><trkpt lat="46.1078462" lon="13.5835718"><ele>547.0</ele><time>2026-05-02T08:07:24.928Z</time></trkpt><trkpt lat="46.1077475" lon="13.5835358"><ele>547.0</ele><time>2026-05-02T08:07:25.909Z</time></trkpt><trkpt lat="46.1076492" lon="13.5834846"><ele>547.0</ele><time>2026-05-02T08:07:26.911Z</time></trkpt><trkpt lat="46.1075627" lon="13.5834249"><ele>547.0</ele><time>2026-05-02T08:07:27.909Z</time></trkpt><trkpt lat="46.1074815" lon="13.5833523"><ele>547.0</ele><time>2026-05-02T08:07:28.921Z</time></trkpt><trkpt lat="46.1074139" lon="13.5832712"><ele>547.0</ele><time>2026-05-02T08:07:29.91Z</time></trkpt><trkpt lat="46.107335" lon="13.5831754"><ele>547.0</ele><time>2026-05-02T08:07:31.91Z</time></trkpt><trkpt lat="46.1073285" lon="13.583273"><ele>547.0</ele><time>2026-05-02T08:07:34.907Z</time></trkpt><trkpt lat="46.1073969" lon="13.5834008"><ele>547.0</ele><time>2026-05-02T08:07:36.925Z</time></trkpt><trkpt lat="46.1074484" lon="13.5834697"><ele>547.0</ele><time>2026-05-02T08:07:37.917Z</time></trkpt><trkpt lat="46.107497" lon="13.5835552"><ele>547.0</ele><time>2026-05-02T08:07:38.927Z</time></trkpt><trkpt lat="46.1075528" lon="13.5836427"><ele>547.0</ele><time>2026-05-02T08:07:39.916Z</time></trkpt><trkpt lat="46.1076069" lon="13.5837389"><ele>547.0</ele><time>2026-05-02T08:07:40.921Z</time></trkpt><trkpt lat="46.1076699" lon="13.5838409"><ele>545.6</ele><time>2026-05-02T08:07:41.91Z</time></trkpt><trkpt lat="46.1077403" lon="13.5839471"><ele>544.2</ele><time>2026-05-02T08:07:42.91Z</time></trkpt><trkpt lat="46.107797" lon="13.5840403"><ele>542.8</ele><time>2026-05-02T08:07:43.907Z</time></trkpt><trkpt lat="46.1079152" lon="13.5841782"><ele>541.4</ele><time>2026-05-02T08:07:45.908Z</time></trkpt><trkpt lat="46.1080179" lon="13.5842225"><ele>540.0</ele><time>2026-05-02T08:07:47.911Z</time></trkpt><trkpt lat="46.1081301" lon="13.5842004"><ele>540.0</ele><time>2026-05-02T08:07:49.909Z</time></trkpt><trkpt lat="46.108211" lon="13.5841904"><ele>540.0</ele><time>2026-05-02T08:07:51.912Z</time></trkpt><trkpt lat="46.1082491" lon="13.5842731"><ele>540.0</ele><time>2026-05-02T08:07:53.904Z</time></trkpt><trkpt lat="46.1082297" lon="13.5844673"><ele>540.0</ele><time>2026-05-02T08:07:55.912Z</time></trkpt><trkpt lat="46.108227" lon="13.5846117"><ele>540.0</ele><time>2026-05-02T08:07:56.909Z</time></trkpt><trkpt lat="46.1082256" lon="13.5847595"><ele>540.8333333333334</ele><time>2026-05-02T08:07:57.917Z</time></trkpt><trkpt lat="46.1082359" lon="13.5848955"><ele>541.6666666666666</ele><time>2026-05-02T08:07:58.91Z</time></trkpt><trkpt lat="46.1082415" lon="13.5850292"><ele>542.5</ele><time>2026-05-02T08:07:59.907Z</time></trkpt><trkpt lat="46.1082383" lon="13.585149"><ele>543.3333333333333</ele><time>2026-05-02T08:08:00.919Z</time></trkpt><trkpt lat="46.1082424" lon="13.5852566"><ele>544.1666666666666</ele><time>2026-05-02T08:08:01.907Z</time></trkpt><trkpt lat="46.1082482" lon="13.5853576"><ele>545.0</ele><time>2026-05-02T08:08:02.92Z</time></trkpt><trkpt lat="46.1082444" lon="13.5854657"><ele>535.8</ele><time>2026-05-02T08:08:03.91Z</time></trkpt><trkpt lat="46.1082402" lon="13.5855689"><ele>526.6</ele><time>2026-05-02T08:08:04.913Z</time></trkpt><trkpt lat="46.1081842" lon="13.5857657"><ele>517.4</ele><time>2026-05-02T08:08:06.91Z</time></trkpt><trkpt lat="46.1081404" lon="13.5858551"><ele>508.2</ele><time>2026-05-02T08:08:07.911Z</time></trkpt><trkpt lat="46.1080784" lon="13.5859338"><ele>499.0</ele><time>2026-05-02T08:08:08.913Z</time></trkpt><trkpt lat="46.1080154" lon="13.5860158"><ele>499.00000000000006</ele><time>2026-05-02T08:08:09.911Z</time></trkpt><trkpt lat="46.1079668" lon="13.5861032"><ele>499.0</ele><time>2026-05-02T08:08:10.908Z</time></trkpt><trkpt lat="46.1079228" lon="13.5862008"><ele>499.0</ele><time>2026-05-02T08:08:11.915Z</time></trkpt><trkpt lat="46.1078988" lon="13.5863027"><ele>499.0</ele><time>2026-05-02T08:08:12.919Z</time></trkpt><trkpt lat="46.1078741" lon="13.5864118"><ele>499.00000000000006</ele><time>2026-05-02T08:08:13.911Z</time></trkpt><trkpt lat="46.1078303" lon="13.5865085"><ele>499.0</ele><time>2026-05-02T08:08:14.913Z</time></trkpt><trkpt lat="46.1077886" lon="13.5866179"><ele>498.6666666666667</ele><time>2026-05-02T08:08:15.905Z</time></trkpt><trkpt lat="46.1077397" lon="13.5867356"><ele>498.33333333333337</ele><time>2026-05-02T08:08:16.913Z</time></trkpt><trkpt lat="46.1076881" lon="13.5868461"><ele>498.0</ele><time>2026-05-02T08:08:17.924Z</time></trkpt><trkpt lat="46.1076518" lon="13.5869614"><ele>497.66666666666663</ele><time>2026-05-02T08:08:18.919Z</time></trkpt><trkpt lat="46.1076192" lon="13.5870786"><ele>497.3333333333333</ele><time>2026-05-02T08:08:19.909Z</time></trkpt><trkpt lat="46.1075867" lon="13.5871907"><ele>497.0</ele><time>2026-05-02T08:08:20.919Z</time></trkpt><trkpt lat="46.1075629" lon="13.5872887"><ele>498.20000000000005</ele><time>2026-05-02T08:08:21.904Z</time></trkpt><trkpt lat="46.1075146" lon="13.5874346"><ele>499.40000000000003</ele><time>2026-05-02T08:08:23.915Z</time></trkpt><trkpt lat="46.1074728" lon="13.5875114"><ele>500.59999999999997</ele><time>2026-05-02T08:08:24.918Z</time></trkpt><trkpt lat="46.1073919" lon="13.5876501"><ele>501.79999999999995</ele><time>2026-05-02T08:08:26.903Z</time></trkpt><trkpt lat="46.107336" lon="13.5878371"><ele>503.0</ele><time>2026-05-02T08:08:28.913Z</time></trkpt><trkpt lat="46.107306" lon="13.5879542"><ele>492.99999999999994</ele><time>2026-05-02T08:08:29.911Z</time></trkpt><trkpt lat="46.1072877" lon="13.58807"><ele>483.0</ele><time>2026-05-02T08:08:30.922Z</time></trkpt><trkpt lat="46.1072724" lon="13.5881912"><ele>473.0</ele><time>2026-05-02T08:08:31.914Z</time></trkpt><trkpt lat="46.1072601" lon="13.5883272"><ele>463.0</ele><time>2026-05-02T08:08:32.917Z</time></trkpt><trkpt lat="46.1072649" lon="13.5884541"><ele>452.99999999999994</ele><time>2026-05-02T08:08:33.919Z</time></trkpt><trkpt lat="46.10727" lon="13.5885587"><ele>443.0</ele><time>2026-05-02T08:08:34.922Z</time></trkpt><trkpt lat="46.107311" lon="13.5887215"><ele>442.99999999999994</ele><time>2026-05-02T08:08:36.914Z</time></trkpt><trkpt lat="46.107349" lon="13.5888107"><ele>443.0</ele><time>2026-05-02T08:08:37.904Z</time></trkpt><trkpt lat="46.1074003" lon="13.5888996"><ele>443.0</ele><time>2026-05-02T08:08:38.915Z</time></trkpt><trkpt lat="46.107459" lon="13.5889856"><ele>443.0</ele><time>2026-05-02T08:08:39.908Z</time></trkpt><trkpt lat="46.1075203" lon="13.5890676"><ele>442.99999999999994</ele><time>2026-05-02T08:08:40.915Z</time></trkpt><trkpt lat="46.1075889" lon="13.589147"><ele>443.0</ele><time>2026-05-02T08:08:41.912Z</time></trkpt><trkpt lat="46.1076567" lon="13.5892219"><ele>442.25</ele><time>2026-05-02T08:08:42.909Z</time></trkpt><trkpt lat="46.1077513" lon="13.5893"><ele>441.5</ele><time>2026-05-02T08:08:43.924Z</time></trkpt><trkpt lat="46.1078626" lon="13.5893778"><ele>440.75</ele><time>2026-05-02T08:08:44.916Z</time></trkpt><trkpt lat="46.1079783" lon="13.5894506"><ele>440.0</ele><time>2026-05-02T08:08:45.911Z</time></trkpt><trkpt lat="46.1080899" lon="13.5895163"><ele>440.0</ele><time>2026-05-02T08:08:46.92Z</time></trkpt><trkpt lat="46.1081969" lon="13.5895827"><ele>440.0</ele><time>2026-05-02T08:08:47.913Z</time></trkpt><trkpt lat="46.1083779" lon="13.5897332"><ele>440.0</ele><time>2026-05-02T08:08:49.909Z</time></trkpt><trkpt lat="46.1084594" lon="13.5898014"><ele>440.0</ele><time>2026-05-02T08:08:50.907Z</time></trkpt><trkpt lat="46.10854" lon="13.5898633"><ele>440.0</ele><time>2026-05-02T08:08:51.912Z</time></trkpt><trkpt lat="46.1086241" lon="13.5899066"><ele>440.0</ele><time>2026-05-02T08:08:52.915Z</time></trkpt><trkpt lat="46.1087049" lon="13.589936"><ele>440.0</ele><time>2026-05-02T08:08:53.915Z</time></trkpt><trkpt lat="46.1087936" lon="13.5899659"><ele>440.0</ele><time>2026-05-02T08:08:54.91Z</time></trkpt><trkpt lat="46.1088921" lon="13.5899962"><ele>440.0</ele><time>2026-05-02T08:08:55.916Z</time></trkpt><trkpt lat="46.1089937" lon="13.5900328"><ele>440.0</ele><time>2026-05-02T08:08:56.92Z</time></trkpt><trkpt lat="46.1090984" lon="13.5900616"><ele>440.0</ele><time>2026-05-02T08:08:57.922Z</time></trkpt><trkpt lat="46.1092077" lon="13.590093"><ele>440.0</ele><time>2026-05-02T08:08:58.913Z</time></trkpt><trkpt lat="46.1093094" lon="13.5901049"><ele>440.0</ele><time>2026-05-02T08:08:59.909Z</time></trkpt><trkpt lat="46.1094097" lon="13.5901227"><ele>440.0</ele><time>2026-05-02T08:09:00.92Z</time></trkpt><trkpt lat="46.1095137" lon="13.5901323"><ele>440.0</ele><time>2026-05-02T08:09:01.912Z</time></trkpt><trkpt lat="46.1096138" lon="13.5901351"><ele>440.0</ele><time>2026-05-02T08:09:02.904Z</time></trkpt><trkpt lat="46.1097099" lon="13.5901517"><ele>440.0</ele><time>2026-05-02T08:09:03.909Z</time></trkpt><trkpt lat="46.1098008" lon="13.5901755"><ele>440.0</ele><time>2026-05-02T08:09:04.908Z</time></trkpt><trkpt lat="46.1098787" lon="13.5902085"><ele>440.0</ele><time>2026-05-02T08:09:05.914Z</time></trkpt><trkpt lat="46.1099545" lon="13.5902549"><ele>440.0</ele><time>2026-05-02T08:09:06.909Z</time></trkpt><trkpt lat="46.1100111" lon="13.5902973"><ele>440.0</ele><time>2026-05-02T08:09:07.909Z</time></trkpt><trkpt lat="46.1101" lon="13.5903869"><ele>440.0</ele><time>2026-05-02T08:09:09.912Z</time></trkpt><trkpt lat="46.1100242" lon="13.5905872"><ele>440.0</ele><time>2026-05-02T08:09:11.907Z</time></trkpt><trkpt lat="46.1100039" lon="13.5907209"><ele>440.0</ele><time>2026-05-02T08:09:12.921Z</time></trkpt><trkpt lat="46.1100011" lon="13.5908907"><ele>440.0</ele><time>2026-05-02T08:09:13.912Z</time></trkpt><trkpt lat="46.1099885" lon="13.5910819"><ele>440.0</ele><time>2026-05-02T08:09:14.909Z</time></trkpt><trkpt lat="46.109972" lon="13.5912628"><ele>440.0</ele><time>2026-05-02T08:09:15.911Z</time></trkpt><trkpt lat="46.1099622" lon="13.5914053"><ele>440.0</ele><time>2026-05-02T08:09:16.911Z</time></trkpt><trkpt lat="46.1099603" lon="13.5915361"><ele>440.49999999999994</ele><time>2026-05-02T08:09:17.92Z</time></trkpt><trkpt lat="46.1099616" lon="13.5916642"><ele>441.0</ele><time>2026-05-02T08:09:18.919Z</time></trkpt><trkpt lat="46.109966" lon="13.5917877"><ele>441.5</ele><time>2026-05-02T08:09:19.91Z</time></trkpt><trkpt lat="46.109981" lon="13.5919108"><ele>442.0</ele><time>2026-05-02T08:09:20.916Z</time></trkpt><trkpt lat="46.1099966" lon="13.592024"><ele>442.49999999999994</ele><time>2026-05-02T08:09:21.91Z</time></trkpt><trkpt lat="46.1100108" lon="13.5921125"><ele>443.0</ele><time>2026-05-02T08:09:22.916Z</time></trkpt><trkpt lat="46.1100773" lon="13.5922207"><ele>442.99999999999994</ele><time>2026-05-02T08:09:24.909Z</time></trkpt><trkpt lat="46.1101436" lon="13.5922366"><ele>443.0</ele><time>2026-05-02T08:09:25.918Z</time></trkpt><trkpt lat="46.1102336" lon="13.5922248"><ele>443.0</ele><time>2026-05-02T08:09:26.915Z</time></trkpt><trkpt lat="46.1103241" lon="13.5922268"><ele>443.0</ele><time>2026-05-02T08:09:27.911Z</time></trkpt><trkpt lat="46.1104046" lon="13.5922601"><ele>442.99999999999994</ele><time>2026-05-02T08:09:28.913Z</time></trkpt><trkpt lat="46.1104847" lon="13.5923081"><ele>443.0</ele><time>2026-05-02T08:09:29.91Z</time></trkpt><trkpt lat="46.1105597" lon="13.5923753"><ele>443.0</ele><time>2026-05-02T08:09:30.916Z</time></trkpt><trkpt lat="46.1106603" lon="13.5925491"><ele>442.99999999999994</ele><time>2026-05-02T08:09:32.916Z</time></trkpt><trkpt lat="46.1107032" lon="13.5926234"><ele>442.99999999999994</ele><time>2026-05-02T08:09:33.913Z</time></trkpt><trkpt lat="46.1107395" lon="13.592702"><ele>443.0</ele><time>2026-05-02T08:09:34.921Z</time></trkpt><trkpt lat="46.1107824" lon="13.5927725"><ele>443.0</ele><time>2026-05-02T08:09:35.909Z</time></trkpt><trkpt lat="46.1108309" lon="13.5929512"><ele>444.4</ele><time>2026-05-02T08:09:37.909Z</time></trkpt><trkpt lat="46.110849" lon="13.5930635"><ele>445.79999999999995</ele><time>2026-05-02T08:09:38.909Z</time></trkpt><trkpt lat="46.1108128" lon="13.593215"><ele>447.2</ele><time>2026-05-02T08:09:39.914Z</time></trkpt><trkpt lat="46.110773" lon="13.5933602"><ele>448.6</ele><time>2026-05-02T08:09:40.911Z</time></trkpt><trkpt lat="46.1107392" lon="13.5934618"><ele>450.0</ele><time>2026-05-02T08:09:41.911Z</time></trkpt><trkpt lat="46.1107504" lon="13.5935747"><ele>450.0</ele><time>2026-05-02T08:09:43.907Z</time></trkpt><trkpt lat="46.1107806" lon="13.5936705"><ele>450.0</ele><time>2026-05-02T08:09:45.916Z</time></trkpt><trkpt lat="46.1107168" lon="13.593639"><ele>450.0</ele><time>2026-05-02T08:11:10.905Z</time></trkpt><trkpt lat="46.1107169" lon="13.5933499"><ele>450.0</ele><time>2026-05-02T08:11:15.91Z</time></trkpt><trkpt lat="46.1107223" lon="13.5932317"><ele>450.0</ele><time>2026-05-02T08:11:16.92Z</time></trkpt><trkpt lat="46.1107126" lon="13.5931295"><ele>448.6</ele><time>2026-05-02T08:11:17.912Z</time></trkpt><trkpt lat="46.1106424" lon="13.5929948"><ele>447.2</ele><time>2026-05-02T08:11:19.911Z</time></trkpt><trkpt lat="46.110551" lon="13.59289"><ele>445.79999999999995</ele><time>2026-05-02T08:11:21.907Z</time></trkpt><trkpt lat="46.1104895" lon="13.5928326"><ele>444.4</ele><time>2026-05-02T08:11:22.909Z</time></trkpt><trkpt lat="46.1104259" lon="13.5927644"><ele>443.0</ele><time>2026-05-02T08:11:23.909Z</time></trkpt><trkpt lat="46.1103626" lon="13.592714"><ele>443.0</ele><time>2026-05-02T08:11:24.923Z</time></trkpt><trkpt lat="46.1103034" lon="13.5926718"><ele>443.0</ele><time>2026-05-02T08:11:25.912Z</time></trkpt><trkpt lat="46.1102317" lon="13.5926347"><ele>443.0</ele><time>2026-05-02T08:11:26.915Z</time></trkpt><trkpt lat="46.1101618" lon="13.5926111"><ele>443.0</ele><time>2026-05-02T08:11:27.908Z</time></trkpt><trkpt lat="46.1100961" lon="13.5926018"><ele>443.0</ele><time>2026-05-02T08:11:28.916Z</time></trkpt><trkpt lat="46.1100262" lon="13.5925957"><ele>443.0</ele><time>2026-05-02T08:11:29.917Z</time></trkpt><trkpt lat="46.1099524" lon="13.5925954"><ele>443.0</ele><time>2026-05-02T08:11:30.917Z</time></trkpt><trkpt lat="46.1098608" lon="13.5926211"><ele>436.5</ele><time>2026-05-02T08:11:31.908Z</time></trkpt><trkpt lat="46.1096824" lon="13.5926077"><ele>430.0</ele><time>2026-05-02T08:11:33.905Z</time></trkpt><trkpt lat="46.1095795" lon="13.5926331"><ele>423.5</ele><time>2026-05-02T08:11:34.916Z</time></trkpt><trkpt lat="46.1094829" lon="13.5926619"><ele>417.0</ele><time>2026-05-02T08:11:35.919Z</time></trkpt><trkpt lat="46.1093994" lon="13.5927057"><ele>417.0</ele><time>2026-05-02T08:11:36.906Z</time></trkpt><trkpt lat="46.109312" lon="13.5927521"><ele>417.0</ele><time>2026-05-02T08:11:37.915Z</time></trkpt><trkpt lat="46.1092405" lon="13.5927679"><ele>417.0</ele><time>2026-05-02T08:11:38.911Z</time></trkpt><trkpt lat="46.1091363" lon="13.5927243"><ele>417.0</ele><time>2026-05-02T08:11:40.912Z</time></trkpt><trkpt lat="46.1090746" lon="13.5926284"><ele>417.0</ele><time>2026-05-02T08:11:42.917Z</time></trkpt><trkpt lat="46.1090683" lon="13.592473"><ele>417.0</ele><time>2026-05-02T08:11:44.911Z</time></trkpt><trkpt lat="46.1090977" lon="13.5923609"><ele>417.0</ele><time>2026-05-02T08:11:45.912Z</time></trkpt><trkpt lat="46.1091314" lon="13.5922409"><ele>417.0</ele><time>2026-05-02T08:11:46.914Z</time></trkpt><trkpt lat="46.1091587" lon="13.5921134"><ele>417.0</ele><time>2026-05-02T08:11:47.905Z</time></trkpt><trkpt lat="46.1091727" lon="13.5919789"><ele>417.0</ele><time>2026-05-02T08:11:48.91Z</time></trkpt><trkpt lat="46.1091663" lon="13.5918421"><ele>417.0</ele><time>2026-05-02T08:11:49.914Z</time></trkpt><trkpt lat="46.109158" lon="13.5917056"><ele>417.0</ele><time>2026-05-02T08:11:50.907Z</time></trkpt><trkpt lat="46.109129" lon="13.591577"><ele>417.0</ele><time>2026-05-02T08:11:51.916Z</time></trkpt><trkpt lat="46.1090959" lon="13.5914451"><ele>417.0</ele><time>2026-05-02T08:11:52.915Z</time></trkpt><trkpt lat="46.1090282" lon="13.5912523"><ele>417.0</ele><time>2026-05-02T08:11:54.918Z</time></trkpt><trkpt lat="46.1089638" lon="13.5911618"><ele>416.20000000000005</ele><time>2026-05-02T08:11:56.907Z</time></trkpt><trkpt lat="46.1088772" lon="13.5910856"><ele>415.4</ele><time>2026-05-02T08:11:58.907Z</time></trkpt><trkpt lat="46.108784" lon="13.5911398"><ele>414.6</ele><time>2026-05-02T08:11:59.914Z</time></trkpt><trkpt lat="46.1086767" lon="13.591168"><ele>413.79999999999995</ele><time>2026-05-02T08:12:00.906Z</time></trkpt><trkpt lat="46.1085584" lon="13.5912328"><ele>413.0</ele><time>2026-05-02T08:12:01.908Z</time></trkpt><trkpt lat="46.1084387" lon="13.5913109"><ele>408.75</ele><time>2026-05-02T08:12:02.909Z</time></trkpt><trkpt lat="46.1083218" lon="13.5913961"><ele>404.5</ele><time>2026-05-02T08:12:03.918Z</time></trkpt><trkpt lat="46.1082068" lon="13.5914599"><ele>400.25</ele><time>2026-05-02T08:12:04.91Z</time></trkpt><trkpt lat="46.1080978" lon="13.5915235"><ele>396.0</ele><time>2026-05-02T08:12:05.906Z</time></trkpt><trkpt lat="46.1080166" lon="13.5915089"><ele>392.6</ele><time>2026-05-02T08:12:06.911Z</time></trkpt><trkpt lat="46.1079316" lon="13.5914992"><ele>389.20000000000005</ele><time>2026-05-02T08:12:07.914Z</time></trkpt><trkpt lat="46.1078442" lon="13.591487"><ele>385.79999999999995</ele><time>2026-05-02T08:12:08.915Z</time></trkpt><trkpt lat="46.1077562" lon="13.5914694"><ele>382.4</ele><time>2026-05-02T08:12:09.909Z</time></trkpt><trkpt lat="46.1076575" lon="13.5914565"><ele>379.0</ele><time>2026-05-02T08:12:10.904Z</time></trkpt><trkpt lat="46.1075459" lon="13.5914431"><ele>379.0</ele><time>2026-05-02T08:12:11.912Z</time></trkpt><trkpt lat="46.1074438" lon="13.591421"><ele>379.0</ele><time>2026-05-02T08:12:12.912Z</time></trkpt><trkpt lat="46.1073435" lon="13.5914181"><ele>379.0</ele><time>2026-05-02T08:12:13.909Z</time></trkpt><trkpt lat="46.1071335" lon="13.5913726"><ele>379.0</ele><time>2026-05-02T08:12:15.914Z</time></trkpt><trkpt lat="46.1070308" lon="13.591353"><ele>377.79999999999995</ele><time>2026-05-02T08:12:16.907Z</time></trkpt><trkpt lat="46.106922" lon="13.5913469"><ele>376.59999999999997</ele><time>2026-05-02T08:12:17.908Z</time></trkpt><trkpt lat="46.1068192" lon="13.5913627"><ele>375.4</ele><time>2026-05-02T08:12:18.908Z</time></trkpt><trkpt lat="46.1067247" lon="13.5914011"><ele>374.2</ele><time>2026-05-02T08:12:19.91Z</time></trkpt><trkpt lat="46.1066324" lon="13.5914476"><ele>373.0</ele><time>2026-05-02T08:12:20.916Z</time></trkpt><trkpt lat="46.1065407" lon="13.5914972"><ele>373.0</ele><time>2026-05-02T08:12:21.91Z</time></trkpt><trkpt lat="46.1064518" lon="13.5915559"><ele>373.0</ele><time>2026-05-02T08:12:22.912Z</time></trkpt><trkpt lat="46.1063803" lon="13.5915882"><ele>373.0</ele><time>2026-05-02T08:12:23.909Z</time></trkpt><trkpt lat="46.106296" lon="13.5915918"><ele>373.0</ele><time>2026-05-02T08:12:25.909Z</time></trkpt><trkpt lat="46.1063849" lon="13.5916298"><ele>373.0</ele><time>2026-05-02T08:12:31.919Z</time></trkpt><trkpt lat="46.1064792" lon="13.5916359"><ele>373.0</ele><time>2026-05-02T08:12:32.915Z</time></trkpt><trkpt lat="46.1065844" lon="13.5916359"><ele>373.0</ele><time>2026-05-02T08:12:33.91Z</time></trkpt><trkpt lat="46.1066883" lon="13.591623"><ele>373.0</ele><time>2026-05-02T08:12:34.914Z</time></trkpt><trkpt lat="46.1068927" lon="13.5916233"><ele>373.0</ele><time>2026-05-02T08:12:36.914Z</time></trkpt><trkpt lat="46.1069842" lon="13.5916499"><ele>373.0</ele><time>2026-05-02T08:12:37.912Z</time></trkpt><trkpt lat="46.107068" lon="13.5916896"><ele>373.0</ele><time>2026-05-02T08:12:38.908Z</time></trkpt><trkpt lat="46.1071523" lon="13.5917311"><ele>373.0</ele><time>2026-05-02T08:12:39.911Z</time></trkpt><trkpt lat="46.1072313" lon="13.591764"><ele>373.0</ele><time>2026-05-02T08:12:40.91Z</time></trkpt><trkpt lat="46.107315" lon="13.5918059"><ele>373.0</ele><time>2026-05-02T08:12:41.911Z</time></trkpt><trkpt lat="46.1073995" lon="13.5918622"><ele>373.0</ele><time>2026-05-02T08:12:42.912Z</time></trkpt><trkpt lat="46.1074883" lon="13.5919147"><ele>373.0</ele><time>2026-05-02T08:12:43.912Z</time></trkpt><trkpt lat="46.107568" lon="13.5919749"><ele>369.16666666666663</ele><time>2026-05-02T08:12:44.907Z</time></trkpt><trkpt lat="46.1076402" lon="13.5920462"><ele>365.3333333333333</ele><time>2026-05-02T08:12:45.909Z</time></trkpt><trkpt lat="46.1077154" lon="13.5921191"><ele>361.5</ele><time>2026-05-02T08:12:46.906Z</time></trkpt><trkpt lat="46.1077761" lon="13.5922092"><ele>357.6666666666667</ele><time>2026-05-02T08:12:47.905Z</time></trkpt><trkpt lat="46.1078211" lon="13.5922867"><ele>353.83333333333337</ele><time>2026-05-02T08:12:48.929Z</time></trkpt><trkpt lat="46.1078627" lon="13.5923687"><ele>350.0</ele><time>2026-05-02T08:12:49.915Z</time></trkpt><trkpt lat="46.1079458" lon="13.5924629"><ele>350.0</ele><time>2026-05-02T08:12:51.907Z</time></trkpt><trkpt lat="46.1080321" lon="13.5924741"><ele>350.0</ele><time>2026-05-02T08:12:53.903Z</time></trkpt><trkpt lat="46.1079967" lon="13.5925882"><ele>350.0</ele><time>2026-05-02T08:13:01.908Z</time></trkpt><trkpt lat="46.1077791" lon="13.5927465"><ele>350.0</ele><time>2026-05-02T08:13:05.908Z</time></trkpt><trkpt lat="46.1076493" lon="13.592682"><ele>350.0</ele><time>2026-05-02T08:13:07.915Z</time></trkpt><trkpt lat="46.1075742" lon="13.5926436"><ele>350.0</ele><time>2026-05-02T08:13:08.918Z</time></trkpt><trkpt lat="46.1074975" lon="13.5925956"><ele>350.0</ele><time>2026-05-02T08:13:09.903Z</time></trkpt><trkpt lat="46.1074274" lon="13.5925494"><ele>350.0</ele><time>2026-05-02T08:13:10.914Z</time></trkpt><trkpt lat="46.1073611" lon="13.5925349"><ele>350.0</ele><time>2026-05-02T08:13:11.912Z</time></trkpt><trkpt lat="46.1072937" lon="13.5925244"><ele>350.0</ele><time>2026-05-02T08:13:12.911Z</time></trkpt><trkpt lat="46.1072116" lon="13.5925119"><ele>348.33333333333337</ele><time>2026-05-02T08:13:13.907Z</time></trkpt><trkpt lat="46.1071285" lon="13.5924864"><ele>346.6666666666667</ele><time>2026-05-02T08:13:14.906Z</time></trkpt><trkpt lat="46.107058" lon="13.5924411"><ele>345.0</ele><time>2026-05-02T08:13:15.904Z</time></trkpt><trkpt lat="46.1069819" lon="13.592423"><ele>343.3333333333333</ele><time>2026-05-02T08:13:16.915Z</time></trkpt><trkpt lat="46.1069014" lon="13.5924247"><ele>341.66666666666663</ele><time>2026-05-02T08:13:17.911Z</time></trkpt><trkpt lat="46.1068201" lon="13.592447"><ele>340.0</ele><time>2026-05-02T08:13:18.913Z</time></trkpt><trkpt lat="46.1067426" lon="13.5924736"><ele>340.0</ele><time>2026-05-02T08:13:19.91Z</time></trkpt><trkpt lat="46.1066713" lon="13.5925024"><ele>340.0</ele><time>2026-05-02T08:13:20.92Z</time></trkpt><trkpt lat="46.1065896" lon="13.5925348"><ele>340.0</ele><time>2026-05-02T08:13:21.908Z</time></trkpt><trkpt lat="46.1065056" lon="13.5925624"><ele>340.0</ele><time>2026-05-02T08:13:22.905Z</time></trkpt><trkpt lat="46.1063443" lon="13.5925933"><ele>340.0</ele><time>2026-05-02T08:13:24.915Z</time></trkpt><trkpt lat="46.1062686" lon="13.5925919"><ele>340.0</ele><time>2026-05-02T08:13:25.904Z</time></trkpt><trkpt lat="46.1061892" lon="13.5926471"><ele>340.0</ele><time>2026-05-02T08:13:27.901Z</time></trkpt><trkpt lat="46.1062578" lon="13.5927063"><ele>340.0</ele><time>2026-05-02T08:13:30.904Z</time></trkpt><trkpt lat="46.1063572" lon="13.5926866"><ele>340.0</ele><time>2026-05-02T08:13:32.91Z</time></trkpt><trkpt lat="46.1064347" lon="13.5927094"><ele>340.0</ele><time>2026-05-02T08:13:33.92Z</time></trkpt><trkpt lat="46.1065098" lon="13.5927388"><ele>340.0</ele><time>2026-05-02T08:13:34.904Z</time></trkpt><trkpt lat="46.1065979" lon="13.5927762"><ele>340.0</ele><time>2026-05-02T08:13:35.911Z</time></trkpt><trkpt lat="46.1066904" lon="13.5928223"><ele>340.0</ele><time>2026-05-02T08:13:36.91Z</time></trkpt><trkpt lat="46.1067738" lon="13.59289"><ele>340.0</ele><time>2026-05-02T08:13:37.915Z</time></trkpt><trkpt lat="46.1068366" lon="13.5929713"><ele>340.0</ele><time>2026-05-02T08:13:38.903Z</time></trkpt><trkpt lat="46.1068917" lon="13.5930873"><ele>340.0</ele><time>2026-05-02T08:13:39.908Z</time></trkpt><trkpt lat="46.1069505" lon="13.5931981"><ele>334.6</ele><time>2026-05-02T08:13:40.906Z</time></trkpt><trkpt lat="46.1070042" lon="13.5933039"><ele>329.2</ele><time>2026-05-02T08:13:41.904Z</time></trkpt><trkpt lat="46.1070672" lon="13.5933896"><ele>323.8</ele><time>2026-05-02T08:13:42.911Z</time></trkpt><trkpt lat="46.1071282" lon="13.5934704"><ele>318.4</ele><time>2026-05-02T08:13:43.908Z</time></trkpt><trkpt lat="46.1072434" lon="13.5935825"><ele>313.0</ele><time>2026-05-02T08:13:45.906Z</time></trkpt><trkpt lat="46.1073022" lon="13.5936399"><ele>309.66666666666663</ele><time>2026-05-02T08:13:46.916Z</time></trkpt><trkpt lat="46.1073711" lon="13.5937247"><ele>306.3333333333333</ele><time>2026-05-02T08:13:48.906Z</time></trkpt><trkpt lat="46.1073694" lon="13.5938541"><ele>303.0</ele><time>2026-05-02T08:13:50.91Z</time></trkpt><trkpt lat="46.1073458" lon="13.5939619"><ele>299.6666666666667</ele><time>2026-05-02T08:13:51.904Z</time></trkpt><trkpt lat="46.1073225" lon="13.5940763"><ele>296.33333333333337</ele><time>2026-05-02T08:13:52.911Z</time></trkpt><trkpt lat="46.1073045" lon="13.5941908"><ele>293.0</ele><time>2026-05-02T08:13:53.909Z</time></trkpt><trkpt lat="46.1072895" lon="13.5943056"><ele>293.0</ele><time>2026-05-02T08:13:54.91Z</time></trkpt><trkpt lat="46.1072784" lon="13.5944156"><ele>293.0</ele><time>2026-05-02T08:13:55.906Z</time></trkpt><trkpt lat="46.1072423" lon="13.594519"><ele>293.0</ele><time>2026-05-02T08:13:59.915Z</time></trkpt><trkpt lat="46.1072265" lon="13.5946373"><ele>293.0</ele><time>2026-05-02T08:15:16.91Z</time></trkpt><trkpt lat="46.1073098" lon="13.5948858"><ele>293.0</ele><time>2026-05-02T08:15:21.906Z</time></trkpt><trkpt lat="46.1073785" lon="13.5949524"><ele>294.6666666666667</ele><time>2026-05-02T08:15:22.906Z</time></trkpt><trkpt lat="46.1074569" lon="13.5950366"><ele>296.33333333333337</ele><time>2026-05-02T08:15:23.903Z</time></trkpt><trkpt lat="46.1075175" lon="13.5951304"><ele>298.0</ele><time>2026-05-02T08:15:24.908Z</time></trkpt><trkpt lat="46.1075642" lon="13.5952336"><ele>299.6666666666667</ele><time>2026-05-02T08:15:25.911Z</time></trkpt><trkpt lat="46.1076052" lon="13.5953324"><ele>301.3333333333333</ele><time>2026-05-02T08:15:26.907Z</time></trkpt><trkpt lat="46.1076562" lon="13.5954219"><ele>303.0</ele><time>2026-05-02T08:15:27.906Z</time></trkpt><trkpt lat="46.1076966" lon="13.5955232"><ele>299.42857142857144</ele><time>2026-05-02T08:15:28.915Z</time></trkpt><trkpt lat="46.1077298" lon="13.5956116"><ele>295.85714285714283</ele><time>2026-05-02T08:15:29.912Z</time></trkpt><trkpt lat="46.1077625" lon="13.5956906"><ele>292.2857142857143</ele><time>2026-05-02T08:15:30.908Z</time></trkpt><trkpt lat="46.1078004" lon="13.5957708"><ele>288.7142857142857</ele><time>2026-05-02T08:15:31.917Z</time></trkpt><trkpt lat="46.1078797" lon="13.5958809"><ele>285.14285714285717</ele><time>2026-05-02T08:15:33.905Z</time></trkpt><trkpt lat="46.1079438" lon="13.5959048"><ele>281.57142857142856</ele><time>2026-05-02T08:15:34.909Z</time></trkpt><trkpt lat="46.1080145" lon="13.5959168"><ele>278.0</ele><time>2026-05-02T08:15:35.908Z</time></trkpt><trkpt lat="46.1080814" lon="13.5959327"><ele>278.0</ele><time>2026-05-02T08:15:36.903Z</time></trkpt><trkpt lat="46.1081809" lon="13.5959888"><ele>278.0</ele><time>2026-05-02T08:15:38.919Z</time></trkpt><trkpt lat="46.1081453" lon="13.5961203"><ele>278.0</ele><time>2026-05-02T08:15:56.914Z</time></trkpt><trkpt lat="46.1080757" lon="13.5960725"><ele>278.0</ele><time>2026-05-02T08:15:58.92Z</time></trkpt><trkpt lat="46.1080062" lon="13.5960616"><ele>278.0</ele><time>2026-05-02T08:16:00.906Z</time></trkpt><trkpt lat="46.1078216" lon="13.5961291"><ele>278.0</ele><time>2026-05-02T08:16:04.913Z</time></trkpt><trkpt lat="46.1077479" lon="13.5961248"><ele>278.0</ele><time>2026-05-02T08:16:05.905Z</time></trkpt><trkpt lat="46.1076828" lon="13.5960983"><ele>278.0</ele><time>2026-05-02T08:16:06.911Z</time></trkpt><trkpt lat="46.1076186" lon="13.5960389"><ele>278.0</ele><time>2026-05-02T08:16:07.909Z</time></trkpt><trkpt lat="46.1075581" lon="13.5959573"><ele>278.0</ele><time>2026-05-02T08:16:08.903Z</time></trkpt><trkpt lat="46.1075071" lon="13.5958604"><ele>278.0</ele><time>2026-05-02T08:16:09.916Z</time></trkpt><trkpt lat="46.1074475" lon="13.5957556"><ele>278.4</ele><time>2026-05-02T08:16:10.905Z</time></trkpt><trkpt lat="46.1073936" lon="13.5956554"><ele>278.8</ele><time>2026-05-02T08:16:11.904Z</time></trkpt><trkpt lat="46.1073407" lon="13.5955452"><ele>279.2</ele><time>2026-05-02T08:16:12.906Z</time></trkpt><trkpt lat="46.1072691" lon="13.5954325"><ele>279.6</ele><time>2026-05-02T08:16:13.911Z</time></trkpt><trkpt lat="46.1071968" lon="13.5953176"><ele>280.0</ele><time>2026-05-02T08:16:14.906Z</time></trkpt><trkpt lat="46.1071173" lon="13.5952203"><ele>280.0</ele><time>2026-05-02T08:16:15.915Z</time></trkpt><trkpt lat="46.1070448" lon="13.595127"><ele>280.0</ele><time>2026-05-02T08:16:16.91Z</time></trkpt><trkpt lat="46.1069785" lon="13.595062"><ele>280.0</ele><time>2026-05-02T08:16:17.906Z</time></trkpt><trkpt lat="46.1069184" lon="13.595009"><ele>280.0</ele><time>2026-05-02T08:16:18.911Z</time></trkpt><trkpt lat="46.1068251" lon="13.5949281"><ele>280.0</ele><time>2026-05-02T08:16:20.908Z</time></trkpt></trkseg><trkseg><trkpt lat="46.1067647" lon="13.5950446"><ele>280.0</ele><time>2026-05-02T08:46:38.9Z</time></trkpt><trkpt lat="46.1067631" lon="13.5949416"><ele>280.0</ele><time>2026-05-02T08:46:46.898Z</time></trkpt><trkpt lat="46.1066773" lon="13.5947573"><ele>280.0</ele><time>2026-05-02T08:46:52.903Z</time></trkpt><trkpt lat="46.106635" lon="13.5946485"><ele>280.0</ele><time>2026-05-02T08:46:55.9Z</time></trkpt><trkpt lat="46.1065958" lon="13.5945246"><ele>280.0</ele><time>2026-05-02T08:46:58.902Z</time></trkpt><trkpt lat="46.1065621" lon="13.5944228"><ele>278.4</ele><time>2026-05-02T08:47:00.898Z</time></trkpt><trkpt lat="46.1065266" lon="13.5943286"><ele>276.8</ele><time>2026-05-02T08:47:02.899Z</time></trkpt><trkpt lat="46.1064863" lon="13.5942588"><ele>275.2</ele><time>2026-05-02T08:47:04.9Z</time></trkpt><trkpt lat="46.1064279" lon="13.5941924"><ele>273.6</ele><time>2026-05-02T08:47:06.896Z</time></trkpt><trkpt lat="46.1063657" lon="13.5941061"><ele>272.0</ele><time>2026-05-02T08:47:08.898Z</time></trkpt><trkpt lat="46.1061988" lon="13.5939074"><ele>272.0</ele><time>2026-05-02T08:47:12.897Z</time></trkpt><trkpt lat="46.1061243" lon="13.593867"><ele>272.0</ele><time>2026-05-02T08:47:13.892Z</time></trkpt><trkpt lat="46.1060549" lon="13.593834"><ele>272.0</ele><time>2026-05-02T08:47:14.901Z</time></trkpt><trkpt lat="46.1059824" lon="13.5938021"><ele>272.0</ele><time>2026-05-02T08:47:15.909Z</time></trkpt><trkpt lat="46.1059011" lon="13.5937645"><ele>272.0</ele><time>2026-05-02T08:47:16.897Z</time></trkpt><trkpt lat="46.1058119" lon="13.5937145"><ele>272.0</ele><time>2026-05-02T08:47:17.898Z</time></trkpt><trkpt lat="46.1057194" lon="13.5936537"><ele>271.6</ele><time>2026-05-02T08:47:18.904Z</time></trkpt><trkpt lat="46.1056241" lon="13.5935877"><ele>271.2</ele><time>2026-05-02T08:47:19.901Z</time></trkpt><trkpt lat="46.1055266" lon="13.5935171"><ele>270.8</ele><time>2026-05-02T08:47:20.896Z</time></trkpt><trkpt lat="46.1054306" lon="13.5934421"><ele>270.4</ele><time>2026-05-02T08:47:21.899Z</time></trkpt><trkpt lat="46.1053475" lon="13.5933808"><ele>270.0</ele><time>2026-05-02T08:47:22.892Z</time></trkpt><trkpt lat="46.1052814" lon="13.5933314"><ele>270.0</ele><time>2026-05-02T08:47:23.896Z</time></trkpt><trkpt lat="46.1051871" lon="13.5932665"><ele>270.0</ele><time>2026-05-02T08:47:25.901Z</time></trkpt><trkpt lat="46.1051185" lon="13.5932215"><ele>270.0</ele><time>2026-05-02T08:47:36.903Z</time></trkpt><trkpt lat="46.1049471" lon="13.5931085"><ele>270.0</ele><time>2026-05-02T08:47:40.892Z</time></trkpt><trkpt lat="46.1048658" lon="13.593011"><ele>267.5</ele><time>2026-05-02T08:47:41.894Z</time></trkpt><trkpt lat="46.1047835" lon="13.5928716"><ele>265.0</ele><time>2026-05-02T08:47:42.895Z</time></trkpt><trkpt lat="46.1047149" lon="13.5927357"><ele>262.5</ele><time>2026-05-02T08:47:43.903Z</time></trkpt><trkpt lat="46.1046569" lon="13.5926064"><ele>260.0</ele><time>2026-05-02T08:47:44.9Z</time></trkpt><trkpt lat="46.1045908" lon="13.5924677"><ele>260.0</ele><time>2026-05-02T08:47:45.9Z</time></trkpt><trkpt lat="46.1045271" lon="13.5923334"><ele>260.0</ele><time>2026-05-02T08:47:46.897Z</time></trkpt><trkpt lat="46.104458" lon="13.5922009"><ele>260.0</ele><time>2026-05-02T08:47:47.904Z</time></trkpt><trkpt lat="46.1043915" lon="13.5920733"><ele>260.0</ele><time>2026-05-02T08:47:48.892Z</time></trkpt><trkpt lat="46.1043259" lon="13.5919427"><ele>255.75</ele><time>2026-05-02T08:47:49.9Z</time></trkpt><trkpt lat="46.1042624" lon="13.5917891"><ele>251.5</ele><time>2026-05-02T08:47:50.896Z</time></trkpt><trkpt lat="46.1041992" lon="13.5916396"><ele>247.25</ele><time>2026-05-02T08:47:51.896Z</time></trkpt><trkpt lat="46.1041338" lon="13.5915072"><ele>243.0</ele><time>2026-05-02T08:47:52.898Z</time></trkpt><trkpt lat="46.104072" lon="13.5913717"><ele>243.0</ele><time>2026-05-02T08:47:53.895Z</time></trkpt><trkpt lat="46.1040127" lon="13.5912395"><ele>243.0</ele><time>2026-05-02T08:47:54.901Z</time></trkpt><trkpt lat="46.103966" lon="13.591099"><ele>243.0</ele><time>2026-05-02T08:47:55.901Z</time></trkpt><trkpt lat="46.1039223" lon="13.5909596"><ele>243.0</ele><time>2026-05-02T08:47:56.894Z</time></trkpt><trkpt lat="46.1038873" lon="13.5908187"><ele>243.0</ele><time>2026-05-02T08:47:57.897Z</time></trkpt><trkpt lat="46.1038156" lon="13.5905373"><ele>244.60000000000002</ele><time>2026-05-02T08:47:59.898Z</time></trkpt><trkpt lat="46.1037772" lon="13.5903972"><ele>246.20000000000002</ele><time>2026-05-02T08:48:00.898Z</time></trkpt><trkpt lat="46.1037332" lon="13.5902603"><ele>247.8</ele><time>2026-05-02T08:48:01.906Z</time></trkpt><trkpt lat="46.1036837" lon="13.5901375"><ele>249.4</ele><time>2026-05-02T08:48:02.904Z</time></trkpt><trkpt lat="46.1036342" lon="13.5900239"><ele>251.0</ele><time>2026-05-02T08:48:03.899Z</time></trkpt><trkpt lat="46.1035761" lon="13.5899306"><ele>248.60000000000002</ele><time>2026-05-02T08:48:04.898Z</time></trkpt><trkpt lat="46.1035042" lon="13.5898519"><ele>246.20000000000002</ele><time>2026-05-02T08:48:05.903Z</time></trkpt><trkpt lat="46.1034222" lon="13.5897825"><ele>243.79999999999998</ele><time>2026-05-02T08:48:06.895Z</time></trkpt><trkpt lat="46.1033485" lon="13.5896865"><ele>241.39999999999998</ele><time>2026-05-02T08:48:07.899Z</time></trkpt><trkpt lat="46.1032696" lon="13.589595"><ele>239.0</ele><time>2026-05-02T08:48:08.896Z</time></trkpt><trkpt lat="46.1031857" lon="13.5895115"><ele>242.79999999999998</ele><time>2026-05-02T08:48:09.899Z</time></trkpt><trkpt lat="46.1030991" lon="13.5894281"><ele>246.59999999999997</ele><time>2026-05-02T08:48:10.9Z</time></trkpt><trkpt lat="46.1030148" lon="13.5893388"><ele>250.4</ele><time>2026-05-02T08:48:11.902Z</time></trkpt><trkpt lat="46.10292" lon="13.5892498"><ele>254.2</ele><time>2026-05-02T08:48:12.897Z</time></trkpt><trkpt lat="46.1028175" lon="13.5891666"><ele>258.0</ele><time>2026-05-02T08:48:13.889Z</time></trkpt><trkpt lat="46.1026992" lon="13.5891033"><ele>258.0</ele><time>2026-05-02T08:48:14.906Z</time></trkpt><trkpt lat="46.1025969" lon="13.5890414"><ele>258.0</ele><time>2026-05-02T08:48:15.9Z</time></trkpt><trkpt lat="46.1024939" lon="13.5889563"><ele>258.0</ele><time>2026-05-02T08:48:16.896Z</time></trkpt><trkpt lat="46.1023865" lon="13.5888662"><ele>258.0</ele><time>2026-05-02T08:48:17.901Z</time></trkpt><trkpt lat="46.1022868" lon="13.5887591"><ele>253.0</ele><time>2026-05-02T08:48:18.895Z</time></trkpt><trkpt lat="46.1021026" lon="13.5885301"><ele>248.0</ele><time>2026-05-02T08:48:20.898Z</time></trkpt><trkpt lat="46.1020247" lon="13.5884152"><ele>243.0</ele><time>2026-05-02T08:48:21.895Z</time></trkpt><trkpt lat="46.1019674" lon="13.5883098"><ele>238.0</ele><time>2026-05-02T08:48:22.894Z</time></trkpt><trkpt lat="46.1019333" lon="13.5882175"><ele>238.0</ele><time>2026-05-02T08:48:23.899Z</time></trkpt><trkpt lat="46.101957" lon="13.5881102"><ele>238.0</ele><time>2026-05-02T08:48:24.893Z</time></trkpt><trkpt lat="46.1020263" lon="13.5879944"><ele>238.0</ele><time>2026-05-02T08:48:25.894Z</time></trkpt><trkpt lat="46.1021159" lon="13.5878754"><ele>238.0</ele><time>2026-05-02T08:48:26.897Z</time></trkpt><trkpt lat="46.1022042" lon="13.5877619"><ele>238.0</ele><time>2026-05-02T08:48:27.894Z</time></trkpt><trkpt lat="46.1023085" lon="13.5876337"><ele>238.4</ele><time>2026-05-02T08:48:28.891Z</time></trkpt><trkpt lat="46.1023929" lon="13.587491"><ele>238.8</ele><time>2026-05-02T08:48:29.905Z</time></trkpt><trkpt lat="46.1024457" lon="13.5873441"><ele>239.2</ele><time>2026-05-02T08:48:30.899Z</time></trkpt><trkpt lat="46.1024449" lon="13.5872058"><ele>239.6</ele><time>2026-05-02T08:48:31.901Z</time></trkpt><trkpt lat="46.1023999" lon="13.5871042"><ele>240.0</ele><time>2026-05-02T08:48:32.894Z</time></trkpt><trkpt lat="46.1023217" lon="13.5870461"><ele>240.0</ele><time>2026-05-02T08:48:33.904Z</time></trkpt><trkpt lat="46.1022312" lon="13.5870338"><ele>240.0</ele><time>2026-05-02T08:48:34.891Z</time></trkpt><trkpt lat="46.102157" lon="13.5870844"><ele>240.0</ele><time>2026-05-02T08:48:35.897Z</time></trkpt><trkpt lat="46.1020981" lon="13.5871902"><ele>240.0</ele><time>2026-05-02T08:48:36.893Z</time></trkpt><trkpt lat="46.1020408" lon="13.5873238"><ele>240.0</ele><time>2026-05-02T08:48:37.899Z</time></trkpt><trkpt lat="46.1019766" lon="13.5874694"><ele>240.0</ele><time>2026-05-02T08:48:38.896Z</time></trkpt><trkpt lat="46.1019136" lon="13.5876072"><ele>240.0</ele><time>2026-05-02T08:48:39.9Z</time></trkpt><trkpt lat="46.1017876" lon="13.587898"><ele>240.0</ele><time>2026-05-02T08:48:41.898Z</time></trkpt><trkpt lat="46.1017362" lon="13.5880457"><ele>239.6</ele><time>2026-05-02T08:48:42.907Z</time></trkpt><trkpt lat="46.1017046" lon="13.5882062"><ele>239.2</ele><time>2026-05-02T08:48:43.892Z</time></trkpt><trkpt lat="46.1016823" lon="13.5883517"><ele>238.8</ele><time>2026-05-02T08:48:44.891Z</time></trkpt><trkpt lat="46.101672" lon="13.5884717"><ele>238.4</ele><time>2026-05-02T08:48:45.898Z</time></trkpt><trkpt lat="46.101679" lon="13.5885729"><ele>238.0</ele><time>2026-05-02T08:48:47.897Z</time></trkpt><trkpt lat="46.1017138" lon="13.5887118"><ele>237.2</ele><time>2026-05-02T08:48:50.906Z</time></trkpt><trkpt lat="46.1017884" lon="13.5888706"><ele>236.4</ele><time>2026-05-02T08:48:52.905Z</time></trkpt><trkpt lat="46.1018541" lon="13.5889429"><ele>235.59999999999997</ele><time>2026-05-02T08:48:53.896Z</time></trkpt><trkpt lat="46.1019249" lon="13.5889993"><ele>234.79999999999998</ele><time>2026-05-02T08:48:54.897Z</time></trkpt><trkpt lat="46.1020025" lon="13.5890533"><ele>234.0</ele><time>2026-05-02T08:48:55.897Z</time></trkpt><trkpt lat="46.1020795" lon="13.5891163"><ele>234.0</ele><time>2026-05-02T08:48:56.897Z</time></trkpt><trkpt lat="46.102156" lon="13.589185"><ele>233.99999999999997</ele><time>2026-05-02T08:48:57.9Z</time></trkpt><trkpt lat="46.1022377" lon="13.5892525"><ele>233.99999999999997</ele><time>2026-05-02T08:48:58.894Z</time></trkpt><trkpt lat="46.1023205" lon="13.5893183"><ele>234.0</ele><time>2026-05-02T08:48:59.894Z</time></trkpt><trkpt lat="46.1024054" lon="13.5893884"><ele>234.0</ele><time>2026-05-02T08:49:00.894Z</time></trkpt><trkpt lat="46.1025779" lon="13.5895515"><ele>235.0</ele><time>2026-05-02T08:49:02.898Z</time></trkpt><trkpt lat="46.1026747" lon="13.5896319"><ele>235.99999999999997</ele><time>2026-05-02T08:49:03.893Z</time></trkpt><trkpt lat="46.1027654" lon="13.589718"><ele>236.99999999999997</ele><time>2026-05-02T08:49:04.894Z</time></trkpt><trkpt lat="46.1028546" lon="13.5898098"><ele>238.0</ele><time>2026-05-02T08:49:05.893Z</time></trkpt><trkpt lat="46.1029381" lon="13.5899092"><ele>239.0</ele><time>2026-05-02T08:49:06.899Z</time></trkpt><trkpt lat="46.1030123" lon="13.5900033"><ele>239.0</ele><time>2026-05-02T08:49:07.894Z</time></trkpt><trkpt lat="46.103089" lon="13.5901125"><ele>238.99999999999997</ele><time>2026-05-02T08:49:08.91Z</time></trkpt><trkpt lat="46.1031678" lon="13.5902152"><ele>238.99999999999997</ele><time>2026-05-02T08:49:09.9Z</time></trkpt><trkpt lat="46.1032411" lon="13.5903193"><ele>239.0</ele><time>2026-05-02T08:49:10.903Z</time></trkpt><trkpt lat="46.1033087" lon="13.5904265"><ele>239.0</ele><time>2026-05-02T08:49:11.894Z</time></trkpt><trkpt lat="46.1033749" lon="13.5905452"><ele>239.79999999999998</ele><time>2026-05-02T08:49:12.901Z</time></trkpt><trkpt lat="46.1034377" lon="13.590678"><ele>240.59999999999997</ele><time>2026-05-02T08:49:13.894Z</time></trkpt><trkpt lat="46.1034898" lon="13.590818"><ele>241.4</ele><time>2026-05-02T08:49:14.898Z</time></trkpt><trkpt lat="46.1035466" lon="13.5909516"><ele>242.2</ele><time>2026-05-02T08:49:15.899Z</time></trkpt><trkpt lat="46.1036024" lon="13.5910932"><ele>243.0</ele><time>2026-05-02T08:49:16.901Z</time></trkpt><trkpt lat="46.1036457" lon="13.5912497"><ele>243.0</ele><time>2026-05-02T08:49:17.896Z</time></trkpt><trkpt lat="46.1037033" lon="13.5913966"><ele>243.0</ele><time>2026-05-02T08:49:18.899Z</time></trkpt><trkpt lat="46.1037423" lon="13.5915556"><ele>243.0</ele><time>2026-05-02T08:49:19.891Z</time></trkpt><trkpt lat="46.1037801" lon="13.5917066"><ele>243.0</ele><time>2026-05-02T08:49:20.896Z</time></trkpt><trkpt lat="46.1038236" lon="13.5918449"><ele>242.66666666666669</ele><time>2026-05-02T08:49:21.895Z</time></trkpt><trkpt lat="46.1039221" lon="13.5921511"><ele>242.33333333333334</ele><time>2026-05-02T08:49:23.895Z</time></trkpt><trkpt lat="46.1039891" lon="13.5922894"><ele>242.0</ele><time>2026-05-02T08:49:24.908Z</time></trkpt><trkpt lat="46.1040639" lon="13.5924378"><ele>242.0</ele><time>2026-05-02T08:49:25.892Z</time></trkpt><trkpt lat="46.1041547" lon="13.5925947"><ele>242.0</ele><time>2026-05-02T08:49:26.891Z</time></trkpt><trkpt lat="46.104257" lon="13.5927433"><ele>242.0</ele><time>2026-05-02T08:49:27.899Z</time></trkpt><trkpt lat="46.1043649" lon="13.5928972"><ele>242.0</ele><time>2026-05-02T08:49:28.896Z</time></trkpt><trkpt lat="46.1044825" lon="13.5930753"><ele>242.0</ele><time>2026-05-02T08:49:29.894Z</time></trkpt><trkpt lat="46.1045883" lon="13.5932835"><ele>242.0</ele><time>2026-05-02T08:49:30.903Z</time></trkpt><trkpt lat="46.1046876" lon="13.5934889"><ele>242.0</ele><time>2026-05-02T08:49:31.903Z</time></trkpt><trkpt lat="46.1047859" lon="13.5936721"><ele>243.5</ele><time>2026-05-02T08:49:32.897Z</time></trkpt><trkpt lat="46.1048774" lon="13.5938308"><ele>245.0</ele><time>2026-05-02T08:49:33.897Z</time></trkpt><trkpt lat="46.1049798" lon="13.5939726"><ele>246.5</ele><time>2026-05-02T08:49:34.898Z</time></trkpt><trkpt lat="46.1050962" lon="13.5941061"><ele>248.0</ele><time>2026-05-02T08:49:35.896Z</time></trkpt><trkpt lat="46.1052037" lon="13.5942464"><ele>248.0</ele><time>2026-05-02T08:49:36.895Z</time></trkpt><trkpt lat="46.1053141" lon="13.5943927"><ele>248.0</ele><time>2026-05-02T08:49:37.893Z</time></trkpt><trkpt lat="46.1054086" lon="13.5945986"><ele>248.0</ele><time>2026-05-02T08:49:38.903Z</time></trkpt><trkpt lat="46.1054871" lon="13.5948256"><ele>248.25</ele><time>2026-05-02T08:49:39.895Z</time></trkpt><trkpt lat="46.1055575" lon="13.5950517"><ele>248.5</ele><time>2026-05-02T08:49:40.892Z</time></trkpt><trkpt lat="46.1056151" lon="13.5952565"><ele>248.75</ele><time>2026-05-02T08:49:41.897Z</time></trkpt><trkpt lat="46.1056521" lon="13.5954238"><ele>249.0</ele><time>2026-05-02T08:49:42.91Z</time></trkpt><trkpt lat="46.105747" lon="13.5957614"><ele>249.0</ele><time>2026-05-02T08:49:44.896Z</time></trkpt><trkpt lat="46.1058299" lon="13.5958753"><ele>249.0</ele><time>2026-05-02T08:49:45.898Z</time></trkpt><trkpt lat="46.1059199" lon="13.5959784"><ele>249.0</ele><time>2026-05-02T08:49:46.904Z</time></trkpt><trkpt lat="46.1060093" lon="13.5960686"><ele>249.0</ele><time>2026-05-02T08:49:47.895Z</time></trkpt><trkpt lat="46.1061222" lon="13.5960943"><ele>249.0</ele><time>2026-05-02T08:49:48.892Z</time></trkpt><trkpt lat="46.1062478" lon="13.5960683"><ele>248.99999999999997</ele><time>2026-05-02T08:49:49.9Z</time></trkpt><trkpt lat="46.1063555" lon="13.5960568"><ele>248.99999999999997</ele><time>2026-05-02T08:49:50.895Z</time></trkpt><trkpt lat="46.1064509" lon="13.5960745"><ele>249.0</ele><time>2026-05-02T08:49:51.895Z</time></trkpt><trkpt lat="46.1065386" lon="13.5961338"><ele>249.0</ele><time>2026-05-02T08:49:52.904Z</time></trkpt><trkpt lat="46.1066265" lon="13.5961719"><ele>248.0</ele><time>2026-05-02T08:49:53.898Z</time></trkpt><trkpt lat="46.1067131" lon="13.5961906"><ele>246.99999999999997</ele><time>2026-05-02T08:49:54.892Z</time></trkpt><trkpt lat="46.1068035" lon="13.5961866"><ele>245.99999999999997</ele><time>2026-05-02T08:49:55.895Z</time></trkpt><trkpt lat="46.1068967" lon="13.5961683"><ele>245.0</ele><time>2026-05-02T08:49:56.896Z</time></trkpt><trkpt lat="46.1069885" lon="13.5961771"><ele>244.0</ele><time>2026-05-02T08:49:57.901Z</time></trkpt><trkpt lat="46.1070881" lon="13.5961868"><ele>244.0</ele><time>2026-05-02T08:49:58.894Z</time></trkpt><trkpt lat="46.1072086" lon="13.5962326"><ele>244.0</ele><time>2026-05-02T08:49:59.899Z</time></trkpt><trkpt lat="46.1073237" lon="13.5963111"><ele>244.0</ele><time>2026-05-02T08:50:00.905Z</time></trkpt><trkpt lat="46.1074382" lon="13.5963897"><ele>244.0</ele><time>2026-05-02T08:50:01.898Z</time></trkpt><trkpt lat="46.1075459" lon="13.5964676"><ele>248.33333333333331</ele><time>2026-05-02T08:50:02.895Z</time></trkpt><trkpt lat="46.1076521" lon="13.5965491"><ele>252.66666666666669</ele><time>2026-05-02T08:50:03.898Z</time></trkpt><trkpt lat="46.1078577" lon="13.5967504"><ele>257.0</ele><time>2026-05-02T08:50:05.892Z</time></trkpt><trkpt lat="46.1079431" lon="13.5968746"><ele>257.0</ele><time>2026-05-02T08:50:06.903Z</time></trkpt><trkpt lat="46.1080211" lon="13.5969901"><ele>257.0</ele><time>2026-05-02T08:50:07.901Z</time></trkpt><trkpt lat="46.1081064" lon="13.5971019"><ele>257.0</ele><time>2026-05-02T08:50:08.896Z</time></trkpt><trkpt lat="46.1082025" lon="13.5971988"><ele>257.0</ele><time>2026-05-02T08:50:09.902Z</time></trkpt><trkpt lat="46.1083026" lon="13.5972842"><ele>258.6</ele><time>2026-05-02T08:50:10.894Z</time></trkpt><trkpt lat="46.108404" lon="13.5973679"><ele>260.2</ele><time>2026-05-02T08:50:11.891Z</time></trkpt><trkpt lat="46.1085018" lon="13.5974472"><ele>261.8</ele><time>2026-05-02T08:50:12.895Z</time></trkpt><trkpt lat="46.1085916" lon="13.5975403"><ele>263.4</ele><time>2026-05-02T08:50:13.894Z</time></trkpt><trkpt lat="46.1086751" lon="13.5976388"><ele>265.0</ele><time>2026-05-02T08:50:14.899Z</time></trkpt><trkpt lat="46.1087425" lon="13.5977524"><ele>261.4</ele><time>2026-05-02T08:50:15.897Z</time></trkpt><trkpt lat="46.1087779" lon="13.5978702"><ele>257.8</ele><time>2026-05-02T08:50:16.897Z</time></trkpt><trkpt lat="46.1088018" lon="13.5980072"><ele>254.2</ele><time>2026-05-02T08:50:17.893Z</time></trkpt><trkpt lat="46.1088248" lon="13.5981412"><ele>250.6</ele><time>2026-05-02T08:50:18.898Z</time></trkpt><trkpt lat="46.1088509" lon="13.5982764"><ele>247.0</ele><time>2026-05-02T08:50:19.89Z</time></trkpt><trkpt lat="46.1088801" lon="13.5984204"><ele>247.0</ele><time>2026-05-02T08:50:20.893Z</time></trkpt><trkpt lat="46.1089209" lon="13.5985615"><ele>247.0</ele><time>2026-05-02T08:50:21.892Z</time></trkpt><trkpt lat="46.1089752" lon="13.598704"><ele>247.0</ele><time>2026-05-02T08:50:22.893Z</time></trkpt><trkpt lat="46.1090363" lon="13.5988555"><ele>247.0</ele><time>2026-05-02T08:50:23.892Z</time></trkpt><trkpt lat="46.1091018" lon="13.5990048"><ele>250.66666666666666</ele><time>2026-05-02T08:50:24.895Z</time></trkpt><trkpt lat="46.1092448" lon="13.5992873"><ele>254.33333333333331</ele><time>2026-05-02T08:50:26.898Z</time></trkpt><trkpt lat="46.1093159" lon="13.5994027"><ele>258.0</ele><time>2026-05-02T08:50:27.893Z</time></trkpt><trkpt lat="46.1094017" lon="13.5994869"><ele>255.25</ele><time>2026-05-02T08:50:28.901Z</time></trkpt><trkpt lat="46.1094952" lon="13.5995322"><ele>252.5</ele><time>2026-05-02T08:50:29.897Z</time></trkpt><trkpt lat="46.1096057" lon="13.5995508"><ele>249.75</ele><time>2026-05-02T08:50:30.898Z</time></trkpt><trkpt lat="46.1097268" lon="13.5995314"><ele>247.0</ele><time>2026-05-02T08:50:31.893Z</time></trkpt><trkpt lat="46.1098496" lon="13.5995049"><ele>251.0</ele><time>2026-05-02T08:50:32.894Z</time></trkpt><trkpt lat="46.1099529" lon="13.5994798"><ele>255.0</ele><time>2026-05-02T08:50:33.899Z</time></trkpt><trkpt lat="46.1100566" lon="13.5994587"><ele>259.0</ele><time>2026-05-02T08:50:34.895Z</time></trkpt><trkpt lat="46.1101535" lon="13.5994131"><ele>263.0</ele><time>2026-05-02T08:50:35.895Z</time></trkpt><trkpt lat="46.1102544" lon="13.5993428"><ele>267.0</ele><time>2026-05-02T08:50:36.895Z</time></trkpt><trkpt lat="46.110349" lon="13.5993144"><ele>267.0</ele><time>2026-05-02T08:50:37.905Z</time></trkpt><trkpt lat="46.1104532" lon="13.5993057"><ele>267.0</ele><time>2026-05-02T08:50:38.892Z</time></trkpt><trkpt lat="46.1105606" lon="13.5993158"><ele>267.0</ele><time>2026-05-02T08:50:39.895Z</time></trkpt><trkpt lat="46.1106667" lon="13.5993267"><ele>267.0</ele><time>2026-05-02T08:50:40.894Z</time></trkpt><trkpt lat="46.1107753" lon="13.599327"><ele>267.0</ele><time>2026-05-02T08:50:41.905Z</time></trkpt><trkpt lat="46.1108917" lon="13.5993225"><ele>270.75</ele><time>2026-05-02T08:50:42.893Z</time></trkpt><trkpt lat="46.1110136" lon="13.5993218"><ele>274.5</ele><time>2026-05-02T08:50:43.901Z</time></trkpt><trkpt lat="46.1111357" lon="13.599331"><ele>278.25</ele><time>2026-05-02T08:50:44.894Z</time></trkpt><trkpt lat="46.1112506" lon="13.5993589"><ele>282.0</ele><time>2026-05-02T08:50:45.896Z</time></trkpt><trkpt lat="46.1114423" lon="13.5994567"><ele>282.0</ele><time>2026-05-02T08:50:47.893Z</time></trkpt><trkpt lat="46.1115174" lon="13.5994928"><ele>282.0</ele><time>2026-05-02T08:50:48.889Z</time></trkpt><trkpt lat="46.1115853" lon="13.5995396"><ele>282.0</ele><time>2026-05-02T08:50:49.895Z</time></trkpt><trkpt lat="46.1116459" lon="13.599588"><ele>282.0</ele><time>2026-05-02T08:50:50.897Z</time></trkpt><trkpt lat="46.1117407" lon="13.5997027"><ele>282.0</ele><time>2026-05-02T08:50:52.896Z</time></trkpt><trkpt lat="46.1117916" lon="13.5997643"><ele>282.0</ele><time>2026-05-02T08:50:53.903Z</time></trkpt><trkpt lat="46.1118448" lon="13.5998191"><ele>280.57142857142856</ele><time>2026-05-02T08:50:54.893Z</time></trkpt><trkpt lat="46.1118961" lon="13.5998733"><ele>279.1428571428571</ele><time>2026-05-02T08:50:55.888Z</time></trkpt><trkpt lat="46.1119561" lon="13.5999391"><ele>277.71428571428567</ele><time>2026-05-02T08:50:56.901Z</time></trkpt><trkpt lat="46.1120132" lon="13.6000058"><ele>276.2857142857143</ele><time>2026-05-02T08:50:57.891Z</time></trkpt><trkpt lat="46.1120708" lon="13.6000651"><ele>274.85714285714283</ele><time>2026-05-02T08:50:58.898Z</time></trkpt><trkpt lat="46.1121299" lon="13.60012"><ele>273.4285714285714</ele><time>2026-05-02T08:50:59.891Z</time></trkpt><trkpt lat="46.1121915" lon="13.60017"><ele>272.0</ele><time>2026-05-02T08:51:00.893Z</time></trkpt><trkpt lat="46.1122622" lon="13.6002174"><ele>272.0</ele><time>2026-05-02T08:51:01.896Z</time></trkpt><trkpt lat="46.1123473" lon="13.6002596"><ele>272.0</ele><time>2026-05-02T08:51:02.905Z</time></trkpt><trkpt lat="46.1124406" lon="13.6002905"><ele>272.0</ele><time>2026-05-02T08:51:03.899Z</time></trkpt><trkpt lat="46.1125351" lon="13.600321"><ele>272.0</ele><time>2026-05-02T08:51:04.892Z</time></trkpt><trkpt lat="46.1126197" lon="13.6003463"><ele>272.0</ele><time>2026-05-02T08:51:05.894Z</time></trkpt><trkpt lat="46.1126808" lon="13.6003997"><ele>272.0</ele><time>2026-05-02T08:51:06.893Z</time></trkpt><trkpt lat="46.1127389" lon="13.600598"><ele>271.0</ele><time>2026-05-02T08:51:08.893Z</time></trkpt><trkpt lat="46.1127623" lon="13.6007181"><ele>270.0</ele><time>2026-05-02T08:51:09.893Z</time></trkpt><trkpt lat="46.112798" lon="13.6008355"><ele>269.0</ele><time>2026-05-02T08:51:10.89Z</time></trkpt><trkpt lat="46.1128559" lon="13.6009458"><ele>268.0</ele><time>2026-05-02T08:51:11.895Z</time></trkpt><trkpt lat="46.1129309" lon="13.6010459"><ele>267.0</ele><time>2026-05-02T08:51:12.892Z</time></trkpt><trkpt lat="46.113009" lon="13.6011341"><ele>267.6</ele><time>2026-05-02T08:51:13.902Z</time></trkpt><trkpt lat="46.1130928" lon="13.601212"><ele>268.2</ele><time>2026-05-02T08:51:14.889Z</time></trkpt><trkpt lat="46.1131677" lon="13.6012874"><ele>268.8</ele><time>2026-05-02T08:51:15.904Z</time></trkpt><trkpt lat="46.1132316" lon="13.6013879"><ele>269.4</ele><time>2026-05-02T08:51:16.899Z</time></trkpt><trkpt lat="46.1132938" lon="13.6014915"><ele>270.0</ele><time>2026-05-02T08:51:17.9Z</time></trkpt><trkpt lat="46.1133571" lon="13.6015848"><ele>270.0</ele><time>2026-05-02T08:51:18.913Z</time></trkpt><trkpt lat="46.1134393" lon="13.6016508"><ele>270.0</ele><time>2026-05-02T08:51:19.892Z</time></trkpt><trkpt lat="46.1135287" lon="13.6017241"><ele>270.0</ele><time>2026-05-02T08:51:20.896Z</time></trkpt><trkpt lat="46.1136145" lon="13.6018152"><ele>270.0</ele><time>2026-05-02T08:51:21.894Z</time></trkpt><trkpt lat="46.1136913" lon="13.6019043"><ele>270.0</ele><time>2026-05-02T08:51:22.896Z</time></trkpt><trkpt lat="46.1137535" lon="13.6020163"><ele>268.5</ele><time>2026-05-02T08:51:23.902Z</time></trkpt><trkpt lat="46.1138107" lon="13.6021451"><ele>267.0</ele><time>2026-05-02T08:51:24.896Z</time></trkpt><trkpt lat="46.1138783" lon="13.602291"><ele>265.5</ele><time>2026-05-02T08:51:25.893Z</time></trkpt><trkpt lat="46.1139545" lon="13.6024477"><ele>264.0</ele><time>2026-05-02T08:51:26.89Z</time></trkpt><trkpt lat="46.1140358" lon="13.6026146"><ele>267.6666666666667</ele><time>2026-05-02T08:51:27.897Z</time></trkpt><trkpt lat="46.1141514" lon="13.6029612"><ele>271.33333333333337</ele><time>2026-05-02T08:51:29.892Z</time></trkpt><trkpt lat="46.1141794" lon="13.6031489"><ele>275.0</ele><time>2026-05-02T08:51:30.89Z</time></trkpt><trkpt lat="46.1142063" lon="13.6033237"><ele>275.0</ele><time>2026-05-02T08:51:31.898Z</time></trkpt><trkpt lat="46.1142288" lon="13.6034855"><ele>275.0</ele><time>2026-05-02T08:51:32.889Z</time></trkpt><trkpt lat="46.1142481" lon="13.6036427"><ele>275.0</ele><time>2026-05-02T08:51:33.892Z</time></trkpt><trkpt lat="46.11427" lon="13.6037957"><ele>275.0</ele><time>2026-05-02T08:51:34.904Z</time></trkpt><trkpt lat="46.1142927" lon="13.6039336"><ele>275.0</ele><time>2026-05-02T08:51:35.898Z</time></trkpt><trkpt lat="46.1143197" lon="13.6040623"><ele>274.0</ele><time>2026-05-02T08:51:36.888Z</time></trkpt><trkpt lat="46.1143493" lon="13.6041875"><ele>273.0</ele><time>2026-05-02T08:51:37.889Z</time></trkpt><trkpt lat="46.1143835" lon="13.6042999"><ele>272.0</ele><time>2026-05-02T08:51:38.891Z</time></trkpt><trkpt lat="46.1144269" lon="13.6043936"><ele>271.0</ele><time>2026-05-02T08:51:39.896Z</time></trkpt><trkpt lat="46.1144642" lon="13.6044785"><ele>270.0</ele><time>2026-05-02T08:51:40.892Z</time></trkpt><trkpt lat="46.1145121" lon="13.6045541"><ele>269.0</ele><time>2026-05-02T08:51:41.892Z</time></trkpt><trkpt lat="46.1145599" lon="13.604617"><ele>269.0</ele><time>2026-05-02T08:51:42.906Z</time></trkpt><trkpt lat="46.1146348" lon="13.6047282"><ele>269.0</ele><time>2026-05-02T08:51:44.89Z</time></trkpt><trkpt lat="46.1147008" lon="13.6048627"><ele>269.0</ele><time>2026-05-02T08:51:46.892Z</time></trkpt><trkpt lat="46.1147689" lon="13.6049947"><ele>269.0</ele><time>2026-05-02T08:51:48.893Z</time></trkpt><trkpt lat="46.1148392" lon="13.6052026"><ele>269.0</ele><time>2026-05-02T08:51:52.896Z</time></trkpt><trkpt lat="46.1148063" lon="13.6050974"><ele>269.0</ele><time>2026-05-02T08:51:58.903Z</time></trkpt><trkpt lat="46.1147479" lon="13.604963"><ele>269.0</ele><time>2026-05-02T08:52:00.894Z</time></trkpt><trkpt lat="46.1147001" lon="13.6048114"><ele>269.0</ele><time>2026-05-02T08:52:02.889Z</time></trkpt><trkpt lat="46.1146307" lon="13.6046857"><ele>269.0</ele><time>2026-05-02T08:52:04.89Z</time></trkpt><trkpt lat="46.1145419" lon="13.6045396"><ele>268.75</ele><time>2026-05-02T08:52:06.895Z</time></trkpt><trkpt lat="46.1144894" lon="13.6044705"><ele>268.5</ele><time>2026-05-02T08:52:07.896Z</time></trkpt><trkpt lat="46.1144386" lon="13.604402"><ele>268.25</ele><time>2026-05-02T08:52:08.893Z</time></trkpt><trkpt lat="46.1143685" lon="13.6042634"><ele>268.0</ele><time>2026-05-02T08:52:10.894Z</time></trkpt><trkpt lat="46.1142353" lon="13.6039794"><ele>268.0</ele><time>2026-05-02T08:52:14.899Z</time></trkpt><trkpt lat="46.1141896" lon="13.6038744"><ele>268.0</ele><time>2026-05-02T08:52:16.897Z</time></trkpt><trkpt lat="46.114241" lon="13.6038119"><ele>268.0</ele><time>2026-05-02T08:52:22.892Z</time></trkpt><trkpt lat="46.1143009" lon="13.6039077"><ele>268.0</ele><time>2026-05-02T08:52:24.892Z</time></trkpt><trkpt lat="46.1143734" lon="13.6040441"><ele>268.0</ele><time>2026-05-02T08:52:26.895Z</time></trkpt><trkpt lat="46.1144186" lon="13.6041129"><ele>268.0</ele><time>2026-05-02T08:52:27.893Z</time></trkpt><trkpt lat="46.1144711" lon="13.6041941"><ele>268.0</ele><time>2026-05-02T08:52:28.902Z</time></trkpt><trkpt lat="46.1145302" lon="13.6042741"><ele>268.0</ele><time>2026-05-02T08:52:29.892Z</time></trkpt><trkpt lat="46.1145879" lon="13.6043321"><ele>268.0</ele><time>2026-05-02T08:52:30.897Z</time></trkpt><trkpt lat="46.1147017" lon="13.6043961"><ele>268.0</ele><time>2026-05-02T08:52:32.895Z</time></trkpt><trkpt lat="46.1149292" lon="13.604434"><ele>271.6</ele><time>2026-05-02T08:52:36.891Z</time></trkpt><trkpt lat="46.1149681" lon="13.6043251"><ele>275.20000000000005</ele><time>2026-05-02T08:52:39.896Z</time></trkpt><trkpt lat="46.1149376" lon="13.6041864"><ele>278.8</ele><time>2026-05-02T08:52:41.888Z</time></trkpt><trkpt lat="46.1149364" lon="13.6040029"><ele>282.40000000000003</ele><time>2026-05-02T08:52:43.897Z</time></trkpt><trkpt lat="46.1149462" lon="13.603892"><ele>286.0</ele><time>2026-05-02T08:52:44.889Z</time></trkpt><trkpt lat="46.1149477" lon="13.603786"><ele>286.0</ele><time>2026-05-02T08:52:45.9Z</time></trkpt><trkpt lat="46.1149391" lon="13.6036785"><ele>286.0</ele><time>2026-05-02T08:52:46.892Z</time></trkpt><trkpt lat="46.1149178" lon="13.6035801"><ele>286.0</ele><time>2026-05-02T08:52:47.892Z</time></trkpt><trkpt lat="46.1148985" lon="13.6034789"><ele>286.0</ele><time>2026-05-02T08:52:48.891Z</time></trkpt><trkpt lat="46.114895" lon="13.6033862"><ele>286.0</ele><time>2026-05-02T08:52:49.907Z</time></trkpt><trkpt lat="46.1149349" lon="13.6032898"><ele>286.0</ele><time>2026-05-02T08:52:51.894Z</time></trkpt><trkpt lat="46.1149828" lon="13.6034264"><ele>286.0</ele><time>2026-05-02T08:52:54.891Z</time></trkpt><trkpt lat="46.1150645" lon="13.6036962"><ele>286.0</ele><time>2026-05-02T08:52:57.9Z</time></trkpt><trkpt lat="46.1151027" lon="13.6038144"><ele>286.0</ele><time>2026-05-02T08:52:58.893Z</time></trkpt><trkpt lat="46.1151401" lon="13.6039388"><ele>286.0</ele><time>2026-05-02T08:52:59.9Z</time></trkpt><trkpt lat="46.1151923" lon="13.6040456"><ele>286.0</ele><time>2026-05-02T08:53:00.89Z</time></trkpt><trkpt lat="46.11527" lon="13.6041693"><ele>286.0</ele><time>2026-05-02T08:53:01.896Z</time></trkpt><trkpt lat="46.1153493" lon="13.6042916"><ele>286.0</ele><time>2026-05-02T08:53:02.893Z</time></trkpt><trkpt lat="46.1154299" lon="13.6044062"><ele>286.0</ele><time>2026-05-02T08:53:03.895Z</time></trkpt><trkpt lat="46.1154907" lon="13.6045097"><ele>286.0</ele><time>2026-05-02T08:53:04.889Z</time></trkpt><trkpt lat="46.1155401" lon="13.6045924"><ele>284.40000000000003</ele><time>2026-05-02T08:53:05.893Z</time></trkpt><trkpt lat="46.1155943" lon="13.6046844"><ele>282.8</ele><time>2026-05-02T08:53:06.89Z</time></trkpt><trkpt lat="46.1156466" lon="13.6047726"><ele>281.20000000000005</ele><time>2026-05-02T08:53:07.892Z</time></trkpt><trkpt lat="46.1156855" lon="13.6048506"><ele>279.6</ele><time>2026-05-02T08:53:08.893Z</time></trkpt><trkpt lat="46.1157654" lon="13.6049737"><ele>278.0</ele><time>2026-05-02T08:53:10.893Z</time></trkpt><trkpt lat="46.1158499" lon="13.6050671"><ele>284.8</ele><time>2026-05-02T08:53:12.897Z</time></trkpt><trkpt lat="46.1159478" lon="13.6050136"><ele>291.6</ele><time>2026-05-02T08:53:14.902Z</time></trkpt><trkpt lat="46.1160156" lon="13.6049594"><ele>298.4</ele><time>2026-05-02T08:53:15.89Z</time></trkpt><trkpt lat="46.116172" lon="13.6048658"><ele>305.2</ele><time>2026-05-02T08:53:17.895Z</time></trkpt><trkpt lat="46.1162489" lon="13.6048258"><ele>312.0</ele><time>2026-05-02T08:53:18.903Z</time></trkpt><trkpt lat="46.1163347" lon="13.604801"><ele>312.0</ele><time>2026-05-02T08:53:19.888Z</time></trkpt><trkpt lat="46.1164207" lon="13.6047757"><ele>312.0</ele><time>2026-05-02T08:53:20.889Z</time></trkpt><trkpt lat="46.1165071" lon="13.6047544"><ele>312.0</ele><time>2026-05-02T08:53:21.896Z</time></trkpt><trkpt lat="46.1165918" lon="13.6047343"><ele>312.0</ele><time>2026-05-02T08:53:22.896Z</time></trkpt><trkpt lat="46.1166703" lon="13.6047152"><ele>312.0</ele><time>2026-05-02T08:53:23.896Z</time></trkpt><trkpt lat="46.1167419" lon="13.6047022"><ele>312.0</ele><time>2026-05-02T08:53:24.907Z</time></trkpt><trkpt lat="46.116805" lon="13.6046943"><ele>314.8333333333333</ele><time>2026-05-02T08:53:25.891Z</time></trkpt><trkpt lat="46.1169002" lon="13.6047018"><ele>317.6666666666667</ele><time>2026-05-02T08:53:27.892Z</time></trkpt><trkpt lat="46.116905" lon="13.6048269"><ele>320.5</ele><time>2026-05-02T08:53:29.897Z</time></trkpt><trkpt lat="46.1168618" lon="13.6049244"><ele>323.33333333333337</ele><time>2026-05-02T08:53:30.903Z</time></trkpt><trkpt lat="46.1168181" lon="13.6050284"><ele>326.1666666666667</ele><time>2026-05-02T08:53:31.898Z</time></trkpt><trkpt lat="46.1167809" lon="13.605114"><ele>329.0</ele><time>2026-05-02T08:53:32.901Z</time></trkpt><trkpt lat="46.1167457" lon="13.6052084"><ele>329.0</ele><time>2026-05-02T08:53:33.888Z</time></trkpt><trkpt lat="46.116726" lon="13.605314"><ele>329.0</ele><time>2026-05-02T08:53:34.895Z</time></trkpt><trkpt lat="46.1167164" lon="13.6054332"><ele>329.0</ele><time>2026-05-02T08:53:35.892Z</time></trkpt><trkpt lat="46.1167172" lon="13.6055536"><ele>329.0</ele><time>2026-05-02T08:53:36.891Z</time></trkpt><trkpt lat="46.1167343" lon="13.6057794"><ele>329.0</ele><time>2026-05-02T08:53:38.894Z</time></trkpt><trkpt lat="46.1167638" lon="13.6058797"><ele>328.6666666666667</ele><time>2026-05-02T08:53:39.897Z</time></trkpt><trkpt lat="46.116802" lon="13.6059747"><ele>328.33333333333337</ele><time>2026-05-02T08:53:40.897Z</time></trkpt><trkpt lat="46.1168443" lon="13.6060632"><ele>328.0</ele><time>2026-05-02T08:53:41.888Z</time></trkpt><trkpt lat="46.1168894" lon="13.60617"><ele>327.6666666666667</ele><time>2026-05-02T08:53:42.893Z</time></trkpt><trkpt lat="46.116929" lon="13.6062878"><ele>327.3333333333333</ele><time>2026-05-02T08:53:43.894Z</time></trkpt><trkpt lat="46.1169768" lon="13.6064078"><ele>327.0</ele><time>2026-05-02T08:53:44.899Z</time></trkpt><trkpt lat="46.117001" lon="13.6065487"><ele>324.6666666666667</ele><time>2026-05-02T08:53:45.897Z</time></trkpt><trkpt lat="46.1170042" lon="13.6066806"><ele>322.3333333333333</ele><time>2026-05-02T08:53:46.889Z</time></trkpt><trkpt lat="46.1170094" lon="13.6067889"><ele>320.0</ele><time>2026-05-02T08:53:47.894Z</time></trkpt><trkpt lat="46.1170293" lon="13.6068801"><ele>317.66666666666663</ele><time>2026-05-02T08:53:48.895Z</time></trkpt><trkpt lat="46.117045" lon="13.6069742"><ele>315.3333333333333</ele><time>2026-05-02T08:53:49.887Z</time></trkpt><trkpt lat="46.1170767" lon="13.6070664"><ele>313.0</ele><time>2026-05-02T08:53:50.892Z</time></trkpt><trkpt lat="46.1171307" lon="13.6071665"><ele>310.5</ele><time>2026-05-02T08:53:51.895Z</time></trkpt><trkpt lat="46.1171929" lon="13.6072652"><ele>308.0</ele><time>2026-05-02T08:53:52.903Z</time></trkpt><trkpt lat="46.1172532" lon="13.6073565"><ele>305.5</ele><time>2026-05-02T08:53:53.891Z</time></trkpt><trkpt lat="46.117303" lon="13.60744"><ele>303.0</ele><time>2026-05-02T08:53:54.901Z</time></trkpt><trkpt lat="46.1173527" lon="13.6075208"><ele>300.5</ele><time>2026-05-02T08:53:55.888Z</time></trkpt><trkpt lat="46.1173953" lon="13.6076018"><ele>298.0</ele><time>2026-05-02T08:53:56.907Z</time></trkpt><trkpt lat="46.1174371" lon="13.6076834"><ele>305.8</ele><time>2026-05-02T08:53:57.896Z</time></trkpt><trkpt lat="46.117529" lon="13.6078354"><ele>313.6</ele><time>2026-05-02T08:53:59.891Z</time></trkpt><trkpt lat="46.117582" lon="13.6079161"><ele>321.40000000000003</ele><time>2026-05-02T08:54:00.893Z</time></trkpt><trkpt lat="46.1176419" lon="13.6080051"><ele>329.20000000000005</ele><time>2026-05-02T08:54:01.891Z</time></trkpt><trkpt lat="46.1177017" lon="13.6080972"><ele>337.0</ele><time>2026-05-02T08:54:02.889Z</time></trkpt><trkpt lat="46.1177491" lon="13.6081954"><ele>337.0</ele><time>2026-05-02T08:54:03.887Z</time></trkpt><trkpt lat="46.1177875" lon="13.6082846"><ele>337.0</ele><time>2026-05-02T08:54:04.892Z</time></trkpt><trkpt lat="46.1178153" lon="13.6083705"><ele>337.0</ele><time>2026-05-02T08:54:05.89Z</time></trkpt><trkpt lat="46.1178451" lon="13.608469"><ele>337.0</ele><time>2026-05-02T08:54:06.893Z</time></trkpt><trkpt lat="46.1178814" lon="13.6085908"><ele>337.0</ele><time>2026-05-02T08:54:07.891Z</time></trkpt><trkpt lat="46.1179304" lon="13.6087315"><ele>337.0</ele><time>2026-05-02T08:54:08.892Z</time></trkpt><trkpt lat="46.1179857" lon="13.6088865"><ele>336.8</ele><time>2026-05-02T08:54:09.892Z</time></trkpt><trkpt lat="46.1180327" lon="13.6090367"><ele>336.6</ele><time>2026-05-02T08:54:10.885Z</time></trkpt><trkpt lat="46.1180739" lon="13.6091821"><ele>336.40000000000003</ele><time>2026-05-02T08:54:11.888Z</time></trkpt><trkpt lat="46.1181146" lon="13.6093083"><ele>336.20000000000005</ele><time>2026-05-02T08:54:12.892Z</time></trkpt><trkpt lat="46.118141" lon="13.609429"><ele>336.0</ele><time>2026-05-02T08:54:13.89Z</time></trkpt><trkpt lat="46.1181575" lon="13.6095405"><ele>333.5</ele><time>2026-05-02T08:54:14.901Z</time></trkpt><trkpt lat="46.1181796" lon="13.6096511"><ele>331.0</ele><time>2026-05-02T08:54:15.9Z</time></trkpt><trkpt lat="46.1182016" lon="13.6097454"><ele>328.5</ele><time>2026-05-02T08:54:16.89Z</time></trkpt><trkpt lat="46.1182784" lon="13.6098703"><ele>326.0</ele><time>2026-05-02T08:54:18.892Z</time></trkpt><trkpt lat="46.1184823" lon="13.6098968"><ele>330.8</ele><time>2026-05-02T08:54:22.891Z</time></trkpt><trkpt lat="46.1186102" lon="13.6098746"><ele>335.6</ele><time>2026-05-02T08:54:24.9Z</time></trkpt><trkpt lat="46.1186875" lon="13.6098395"><ele>340.4</ele><time>2026-05-02T08:54:25.89Z</time></trkpt><trkpt lat="46.1187609" lon="13.6097803"><ele>345.2</ele><time>2026-05-02T08:54:26.891Z</time></trkpt><trkpt lat="46.1188368" lon="13.6097094"><ele>350.0</ele><time>2026-05-02T08:54:27.9Z</time></trkpt><trkpt lat="46.1189087" lon="13.6096276"><ele>350.0</ele><time>2026-05-02T08:54:28.895Z</time></trkpt><trkpt lat="46.118985" lon="13.6095578"><ele>350.0</ele><time>2026-05-02T08:54:29.892Z</time></trkpt><trkpt lat="46.1190596" lon="13.6094856"><ele>350.0</ele><time>2026-05-02T08:54:30.906Z</time></trkpt><trkpt lat="46.1191404" lon="13.6094343"><ele>350.0</ele><time>2026-05-02T08:54:31.894Z</time></trkpt><trkpt lat="46.1192099" lon="13.6093862"><ele>350.0</ele><time>2026-05-02T08:54:32.892Z</time></trkpt><trkpt lat="46.1193253" lon="13.6092992"><ele>351.0</ele><time>2026-05-02T08:54:34.899Z</time></trkpt><trkpt lat="46.1194094" lon="13.6093419"><ele>352.0</ele><time>2026-05-02T08:54:36.896Z</time></trkpt><trkpt lat="46.1194449" lon="13.6094487"><ele>353.0</ele><time>2026-05-02T08:54:38.891Z</time></trkpt><trkpt lat="46.1194384" lon="13.6096127"><ele>354.0</ele><time>2026-05-02T08:54:40.896Z</time></trkpt><trkpt lat="46.1194556" lon="13.6098246"><ele>355.0</ele><time>2026-05-02T08:54:42.894Z</time></trkpt><trkpt lat="46.1194793" lon="13.6099532"><ele>355.0</ele><time>2026-05-02T08:54:43.889Z</time></trkpt><trkpt lat="46.1195002" lon="13.6100881"><ele>355.0</ele><time>2026-05-02T08:54:44.89Z</time></trkpt><trkpt lat="46.1195188" lon="13.610242"><ele>355.0</ele><time>2026-05-02T08:54:45.889Z</time></trkpt><trkpt lat="46.1195498" lon="13.6103935"><ele>355.0</ele><time>2026-05-02T08:54:46.898Z</time></trkpt><trkpt lat="46.1195787" lon="13.6105422"><ele>355.0</ele><time>2026-05-02T08:54:47.892Z</time></trkpt><trkpt lat="46.1196057" lon="13.6106912"><ele>352.66666666666663</ele><time>2026-05-02T08:54:48.89Z</time></trkpt><trkpt lat="46.1196288" lon="13.610832"><ele>350.3333333333333</ele><time>2026-05-02T08:54:49.89Z</time></trkpt><trkpt lat="46.1196559" lon="13.6109369"><ele>348.0</ele><time>2026-05-02T08:54:50.888Z</time></trkpt><trkpt lat="46.1196903" lon="13.6110195"><ele>345.6666666666667</ele><time>2026-05-02T08:54:51.886Z</time></trkpt><trkpt lat="46.1197264" lon="13.6111034"><ele>343.33333333333337</ele><time>2026-05-02T08:54:52.891Z</time></trkpt><trkpt lat="46.1197792" lon="13.6111936"><ele>341.0</ele><time>2026-05-02T08:54:53.892Z</time></trkpt><trkpt lat="46.1198514" lon="13.6111992"><ele>346.0</ele><time>2026-05-02T08:54:54.895Z</time></trkpt><trkpt lat="46.1199445" lon="13.6112656"><ele>351.0</ele><time>2026-05-02T08:54:55.887Z</time></trkpt><trkpt lat="46.1200031" lon="13.6113429"><ele>356.0</ele><time>2026-05-02T08:54:56.893Z</time></trkpt><trkpt lat="46.1200509" lon="13.6114431"><ele>361.0</ele><time>2026-05-02T08:54:57.893Z</time></trkpt><trkpt lat="46.1200884" lon="13.611565"><ele>366.0</ele><time>2026-05-02T08:54:58.896Z</time></trkpt><trkpt lat="46.120133" lon="13.6116838"><ele>366.0</ele><time>2026-05-02T08:54:59.889Z</time></trkpt><trkpt lat="46.1201744" lon="13.6118041"><ele>366.0</ele><time>2026-05-02T08:55:00.893Z</time></trkpt><trkpt lat="46.1202184" lon="13.6119138"><ele>366.0</ele><time>2026-05-02T08:55:01.891Z</time></trkpt><trkpt lat="46.1203198" lon="13.6120669"><ele>366.0</ele><time>2026-05-02T08:55:03.889Z</time></trkpt><trkpt lat="46.1203651" lon="13.6121318"><ele>366.0</ele><time>2026-05-02T08:55:04.903Z</time></trkpt><trkpt lat="46.1204738" lon="13.6122099"><ele>366.6</ele><time>2026-05-02T08:55:06.896Z</time></trkpt><trkpt lat="46.1205751" lon="13.6121329"><ele>367.20000000000005</ele><time>2026-05-02T08:55:07.89Z</time></trkpt><trkpt lat="46.1206947" lon="13.6120944"><ele>367.79999999999995</ele><time>2026-05-02T08:55:08.892Z</time></trkpt><trkpt lat="46.12079" lon="13.6120467"><ele>368.4</ele><time>2026-05-02T08:55:09.897Z</time></trkpt><trkpt lat="46.1208914" lon="13.6119799"><ele>369.0</ele><time>2026-05-02T08:55:10.902Z</time></trkpt><trkpt lat="46.1209625" lon="13.6119568"><ele>373.6666666666667</ele><time>2026-05-02T08:55:11.894Z</time></trkpt><trkpt lat="46.121032" lon="13.6119091"><ele>378.33333333333337</ele><time>2026-05-02T08:55:12.898Z</time></trkpt><trkpt lat="46.1211096" lon="13.6118531"><ele>383.0</ele><time>2026-05-02T08:55:13.895Z</time></trkpt><trkpt lat="46.1211818" lon="13.6118054"><ele>387.6666666666667</ele><time>2026-05-02T08:55:14.887Z</time></trkpt><trkpt lat="46.1212453" lon="13.6117454"><ele>392.33333333333337</ele><time>2026-05-02T08:55:15.899Z</time></trkpt><trkpt lat="46.1213121" lon="13.6116727"><ele>397.0</ele><time>2026-05-02T08:55:16.887Z</time></trkpt><trkpt lat="46.121379" lon="13.6116068"><ele>397.0</ele><time>2026-05-02T08:55:17.9Z</time></trkpt><trkpt lat="46.1214497" lon="13.6115669"><ele>397.0</ele><time>2026-05-02T08:55:19.89Z</time></trkpt><trkpt lat="46.121498" lon="13.6116326"><ele>397.0</ele><time>2026-05-02T08:55:21.887Z</time></trkpt><trkpt lat="46.1215276" lon="13.6117713"><ele>397.0</ele><time>2026-05-02T08:55:23.888Z</time></trkpt><trkpt lat="46.1215846" lon="13.6119517"><ele>397.0</ele><time>2026-05-02T08:55:25.891Z</time></trkpt><trkpt lat="46.1215966" lon="13.6120664"><ele>396.6666666666667</ele><time>2026-05-02T08:55:26.891Z</time></trkpt><trkpt lat="46.1216109" lon="13.6121891"><ele>396.33333333333337</ele><time>2026-05-02T08:55:27.891Z</time></trkpt><trkpt lat="46.1216243" lon="13.6123038"><ele>396.0</ele><time>2026-05-02T08:55:28.906Z</time></trkpt><trkpt lat="46.1216364" lon="13.612407"><ele>395.66666666666663</ele><time>2026-05-02T08:55:29.889Z</time></trkpt><trkpt lat="46.1216475" lon="13.6125191"><ele>395.3333333333333</ele><time>2026-05-02T08:55:30.9Z</time></trkpt><trkpt lat="46.1216629" lon="13.6126406"><ele>395.0</ele><time>2026-05-02T08:55:31.897Z</time></trkpt><trkpt lat="46.1216788" lon="13.6127623"><ele>394.99999999999994</ele><time>2026-05-02T08:55:32.901Z</time></trkpt><trkpt lat="46.1217071" lon="13.6128676"><ele>395.0</ele><time>2026-05-02T08:55:33.89Z</time></trkpt><trkpt lat="46.1217347" lon="13.6129644"><ele>395.0</ele><time>2026-05-02T08:55:34.895Z</time></trkpt><trkpt lat="46.1217781" lon="13.6130646"><ele>395.0</ele><time>2026-05-02T08:55:36.89Z</time></trkpt><trkpt lat="46.1217456" lon="13.6129299"><ele>394.99999999999994</ele><time>2026-05-02T08:55:40.892Z</time></trkpt><trkpt lat="46.1217377" lon="13.6127763"><ele>395.0</ele><time>2026-05-02T08:55:42.903Z</time></trkpt><trkpt lat="46.1217425" lon="13.6126816"><ele>395.0</ele><time>2026-05-02T08:55:43.887Z</time></trkpt><trkpt lat="46.1217572" lon="13.6125635"><ele>395.0</ele><time>2026-05-02T08:55:44.899Z</time></trkpt><trkpt lat="46.1217634" lon="13.6123519"><ele>395.0</ele><time>2026-05-02T08:55:46.896Z</time></trkpt><trkpt lat="46.1217462" lon="13.6122466"><ele>395.0</ele><time>2026-05-02T08:55:47.892Z</time></trkpt><trkpt lat="46.1217501" lon="13.6121385"><ele>395.0</ele><time>2026-05-02T08:55:48.898Z</time></trkpt><trkpt lat="46.1217475" lon="13.6120369"><ele>397.2</ele><time>2026-05-02T08:55:49.901Z</time></trkpt><trkpt lat="46.1217523" lon="13.6118578"><ele>399.4</ele><time>2026-05-02T08:55:51.892Z</time></trkpt><trkpt lat="46.1217387" lon="13.6116693"><ele>401.6</ele><time>2026-05-02T08:55:53.894Z</time></trkpt><trkpt lat="46.1217304" lon="13.6115777"><ele>403.8</ele><time>2026-05-02T08:55:54.888Z</time></trkpt><trkpt lat="46.1217227" lon="13.6114742"><ele>406.0</ele><time>2026-05-02T08:55:55.897Z</time></trkpt><trkpt lat="46.1217156" lon="13.6113606"><ele>406.00000000000006</ele><time>2026-05-02T08:55:56.894Z</time></trkpt><trkpt lat="46.121708" lon="13.6112491"><ele>406.0</ele><time>2026-05-02T08:55:57.888Z</time></trkpt><trkpt lat="46.1217025" lon="13.6111301"><ele>406.0</ele><time>2026-05-02T08:55:58.893Z</time></trkpt><trkpt lat="46.1216914" lon="13.6110054"><ele>406.0</ele><time>2026-05-02T08:55:59.886Z</time></trkpt><trkpt lat="46.1216904" lon="13.6109042"><ele>406.00000000000006</ele><time>2026-05-02T08:56:00.889Z</time></trkpt><trkpt lat="46.1216548" lon="13.6107722"><ele>406.0</ele><time>2026-05-02T08:56:02.892Z</time></trkpt><trkpt lat="46.1215918" lon="13.6106936"><ele>411.0</ele><time>2026-05-02T08:56:04.901Z</time></trkpt><trkpt lat="46.1214799" lon="13.6107507"><ele>416.0</ele><time>2026-05-02T08:56:06.904Z</time></trkpt><trkpt lat="46.1213274" lon="13.6108379"><ele>421.0</ele><time>2026-05-02T08:56:08.894Z</time></trkpt><trkpt lat="46.1212435" lon="13.6108728"><ele>426.0</ele><time>2026-05-02T08:56:09.893Z</time></trkpt><trkpt lat="46.1211614" lon="13.6109191"><ele>426.0</ele><time>2026-05-02T08:56:10.892Z</time></trkpt><trkpt lat="46.1210768" lon="13.6109628"><ele>426.0</ele><time>2026-05-02T08:56:11.888Z</time></trkpt><trkpt lat="46.1209966" lon="13.6110082"><ele>426.0</ele><time>2026-05-02T08:56:12.891Z</time></trkpt><trkpt lat="46.120926" lon="13.6110406"><ele>426.0</ele><time>2026-05-02T08:56:13.889Z</time></trkpt><trkpt lat="46.1208592" lon="13.6110759"><ele>426.0</ele><time>2026-05-02T08:56:14.888Z</time></trkpt><trkpt lat="46.1207464" lon="13.6110402"><ele>426.0</ele><time>2026-05-02T08:56:16.889Z</time></trkpt><trkpt lat="46.1206823" lon="13.610997"><ele>419.8333333333333</ele><time>2026-05-02T08:56:17.889Z</time></trkpt><trkpt lat="46.1206138" lon="13.6109529"><ele>413.66666666666663</ele><time>2026-05-02T08:56:18.902Z</time></trkpt><trkpt lat="46.1205533" lon="13.6108999"><ele>407.5</ele><time>2026-05-02T08:56:19.899Z</time></trkpt><trkpt lat="46.1204922" lon="13.610826"><ele>401.3333333333333</ele><time>2026-05-02T08:56:20.892Z</time></trkpt><trkpt lat="46.1204462" lon="13.6107338"><ele>395.16666666666663</ele><time>2026-05-02T08:56:21.89Z</time></trkpt><trkpt lat="46.12041" lon="13.6106354"><ele>389.0</ele><time>2026-05-02T08:56:22.9Z</time></trkpt><trkpt lat="46.1203831" lon="13.6105339"><ele>389.0</ele><time>2026-05-02T08:56:23.89Z</time></trkpt><trkpt lat="46.1203582" lon="13.6104372"><ele>389.0</ele><time>2026-05-02T08:56:24.892Z</time></trkpt><trkpt lat="46.1203448" lon="13.6103382"><ele>389.0</ele><time>2026-05-02T08:56:25.887Z</time></trkpt><trkpt lat="46.1203481" lon="13.6102387"><ele>389.0</ele><time>2026-05-02T08:56:26.899Z</time></trkpt><trkpt lat="46.120365" lon="13.6101376"><ele>389.0</ele><time>2026-05-02T08:56:27.891Z</time></trkpt><trkpt lat="46.1204082" lon="13.6098984"><ele>389.8333333333333</ele><time>2026-05-02T08:56:29.89Z</time></trkpt><trkpt lat="46.1204322" lon="13.6097691"><ele>390.66666666666663</ele><time>2026-05-02T08:56:30.904Z</time></trkpt><trkpt lat="46.1204493" lon="13.6096359"><ele>391.5</ele><time>2026-05-02T08:56:31.89Z</time></trkpt><trkpt lat="46.1204595" lon="13.6095155"><ele>392.33333333333337</ele><time>2026-05-02T08:56:32.891Z</time></trkpt><trkpt lat="46.1204858" lon="13.6094126"><ele>393.1666666666667</ele><time>2026-05-02T08:56:33.893Z</time></trkpt><trkpt lat="46.1205302" lon="13.6093102"><ele>394.0</ele><time>2026-05-02T08:56:34.897Z</time></trkpt><trkpt lat="46.1205856" lon="13.609197"><ele>395.6666666666667</ele><time>2026-05-02T08:56:35.886Z</time></trkpt><trkpt lat="46.1206327" lon="13.6090773"><ele>397.33333333333337</ele><time>2026-05-02T08:56:36.888Z</time></trkpt><trkpt lat="46.1206573" lon="13.6089537"><ele>399.0</ele><time>2026-05-02T08:56:37.895Z</time></trkpt><trkpt lat="46.1206629" lon="13.6088289"><ele>400.66666666666663</ele><time>2026-05-02T08:56:38.887Z</time></trkpt><trkpt lat="46.1206679" lon="13.6087137"><ele>402.3333333333333</ele><time>2026-05-02T08:56:39.889Z</time></trkpt><trkpt lat="46.1206648" lon="13.6085846"><ele>404.0</ele><time>2026-05-02T08:56:40.893Z</time></trkpt><trkpt lat="46.1206858" lon="13.6084574"><ele>405.66666666666663</ele><time>2026-05-02T08:56:41.898Z</time></trkpt><trkpt lat="46.1207124" lon="13.6083537"><ele>407.3333333333333</ele><time>2026-05-02T08:56:42.889Z</time></trkpt><trkpt lat="46.1207449" lon="13.6082516"><ele>409.0</ele><time>2026-05-02T08:56:43.896Z</time></trkpt><trkpt lat="46.1207787" lon="13.6081337"><ele>410.66666666666663</ele><time>2026-05-02T08:56:44.889Z</time></trkpt><trkpt lat="46.1208264" lon="13.6080198"><ele>412.3333333333333</ele><time>2026-05-02T08:56:45.889Z</time></trkpt><trkpt lat="46.1208614" lon="13.607902"><ele>414.0</ele><time>2026-05-02T08:56:46.895Z</time></trkpt><trkpt lat="46.1208895" lon="13.6077871"><ele>421.0</ele><time>2026-05-02T08:56:47.887Z</time></trkpt><trkpt lat="46.1209189" lon="13.6076716"><ele>428.0</ele><time>2026-05-02T08:56:48.897Z</time></trkpt><trkpt lat="46.1210225" lon="13.6074783"><ele>435.0</ele><time>2026-05-02T08:56:50.891Z</time></trkpt><trkpt lat="46.1210807" lon="13.6073904"><ele>442.0</ele><time>2026-05-02T08:56:51.884Z</time></trkpt><trkpt lat="46.1211452" lon="13.6073178"><ele>449.0</ele><time>2026-05-02T08:56:52.888Z</time></trkpt><trkpt lat="46.1211964" lon="13.6072317"><ele>448.99999999999994</ele><time>2026-05-02T08:56:53.892Z</time></trkpt><trkpt lat="46.1212483" lon="13.6071393"><ele>449.0</ele><time>2026-05-02T08:56:54.893Z</time></trkpt><trkpt lat="46.1213004" lon="13.6070736"><ele>449.0</ele><time>2026-05-02T08:56:55.893Z</time></trkpt><trkpt lat="46.1213736" lon="13.6069738"><ele>449.0</ele><time>2026-05-02T08:56:57.9Z</time></trkpt><trkpt lat="46.1213951" lon="13.6068863"><ele>448.99999999999994</ele><time>2026-05-02T08:56:59.895Z</time></trkpt><trkpt lat="46.1213297" lon="13.6068507"><ele>449.0</ele><time>2026-05-02T08:57:01.89Z</time></trkpt><trkpt lat="46.1212221" lon="13.6068418"><ele>452.8333333333333</ele><time>2026-05-02T08:57:03.886Z</time></trkpt><trkpt lat="46.1210948" lon="13.6067913"><ele>456.66666666666663</ele><time>2026-05-02T08:57:05.892Z</time></trkpt><trkpt lat="46.12102" lon="13.6067672"><ele>460.5</ele><time>2026-05-02T08:57:06.892Z</time></trkpt><trkpt lat="46.1209403" lon="13.6067458"><ele>464.33333333333337</ele><time>2026-05-02T08:57:07.885Z</time></trkpt><trkpt lat="46.1208573" lon="13.6067144"><ele>468.1666666666667</ele><time>2026-05-02T08:57:08.894Z</time></trkpt><trkpt lat="46.1207885" lon="13.6066999"><ele>472.0</ele><time>2026-05-02T08:57:09.889Z</time></trkpt><trkpt lat="46.1205918" lon="13.6065793"><ele>473.40000000000003</ele><time>2026-05-02T08:57:12.893Z</time></trkpt><trkpt lat="46.1205432" lon="13.6065138"><ele>474.80000000000007</ele><time>2026-05-02T08:57:13.887Z</time></trkpt><trkpt lat="46.1204901" lon="13.606348"><ele>476.2</ele><time>2026-05-02T08:57:15.897Z</time></trkpt><trkpt lat="46.1204263" lon="13.6062458"><ele>477.6</ele><time>2026-05-02T08:57:17.894Z</time></trkpt><trkpt lat="46.1203651" lon="13.6062214"><ele>479.0</ele><time>2026-05-02T08:57:18.889Z</time></trkpt><trkpt lat="46.1202364" lon="13.6061868"><ele>479.0</ele><time>2026-05-02T08:57:20.899Z</time></trkpt><trkpt lat="46.1201587" lon="13.6062024"><ele>479.0</ele><time>2026-05-02T08:57:21.89Z</time></trkpt><trkpt lat="46.1200661" lon="13.6062392"><ele>479.0</ele><time>2026-05-02T08:57:22.893Z</time></trkpt><trkpt lat="46.1199741" lon="13.6062789"><ele>479.0</ele><time>2026-05-02T08:57:23.892Z</time></trkpt><trkpt lat="46.1198837" lon="13.6062926"><ele>479.0</ele><time>2026-05-02T08:57:24.895Z</time></trkpt><trkpt lat="46.1197968" lon="13.606324"><ele>477.16666666666663</ele><time>2026-05-02T08:57:25.887Z</time></trkpt><trkpt lat="46.1197172" lon="13.6063628"><ele>475.3333333333333</ele><time>2026-05-02T08:57:26.904Z</time></trkpt><trkpt lat="46.1196487" lon="13.6064161"><ele>473.5</ele><time>2026-05-02T08:57:27.891Z</time></trkpt><trkpt lat="46.1195816" lon="13.6064331"><ele>471.66666666666663</ele><time>2026-05-02T08:57:28.889Z</time></trkpt><trkpt lat="46.1195176" lon="13.6064363"><ele>469.8333333333333</ele><time>2026-05-02T08:57:29.894Z</time></trkpt><trkpt lat="46.1194281" lon="13.6064201"><ele>468.0</ele><time>2026-05-02T08:57:31.89Z</time></trkpt><trkpt lat="46.1194505" lon="13.6061694"><ele>468.59999999999997</ele><time>2026-05-02T08:57:35.895Z</time></trkpt><trkpt lat="46.119508" lon="13.6060173"><ele>469.19999999999993</ele><time>2026-05-02T08:57:37.889Z</time></trkpt><trkpt lat="46.1195416" lon="13.6058373"><ele>469.8</ele><time>2026-05-02T08:57:39.897Z</time></trkpt><trkpt lat="46.1195619" lon="13.605739"><ele>470.4</ele><time>2026-05-02T08:57:40.895Z</time></trkpt><trkpt lat="46.1195876" lon="13.6056354"><ele>471.0</ele><time>2026-05-02T08:57:41.887Z</time></trkpt><trkpt lat="46.1196231" lon="13.6055406"><ele>471.0</ele><time>2026-05-02T08:57:42.892Z</time></trkpt><trkpt lat="46.1196658" lon="13.605442"><ele>471.0</ele><time>2026-05-02T08:57:43.886Z</time></trkpt><trkpt lat="46.1197144" lon="13.6053463"><ele>471.0</ele><time>2026-05-02T08:57:44.906Z</time></trkpt><trkpt lat="46.119793" lon="13.6052191"><ele>471.0</ele><time>2026-05-02T08:57:46.888Z</time></trkpt><trkpt lat="46.1199111" lon="13.6051394"><ele>471.0</ele><time>2026-05-02T08:57:48.892Z</time></trkpt><trkpt lat="46.1199894" lon="13.6050833"><ele>478.0</ele><time>2026-05-02T08:57:49.901Z</time></trkpt><trkpt lat="46.1200659" lon="13.6050232"><ele>485.0</ele><time>2026-05-02T08:57:50.885Z</time></trkpt><trkpt lat="46.1201474" lon="13.6049632"><ele>492.0</ele><time>2026-05-02T08:57:51.89Z</time></trkpt><trkpt lat="46.1202052" lon="13.6049067"><ele>499.0</ele><time>2026-05-02T08:57:52.896Z</time></trkpt><trkpt lat="46.1203993" lon="13.6048236"><ele>499.00000000000006</ele><time>2026-05-02T08:57:55.886Z</time></trkpt><trkpt lat="46.1204735" lon="13.6048221"><ele>499.0</ele><time>2026-05-02T08:57:56.891Z</time></trkpt><trkpt lat="46.1205541" lon="13.6048252"><ele>499.0</ele><time>2026-05-02T08:57:57.891Z</time></trkpt><trkpt lat="46.1206248" lon="13.6048151"><ele>499.0</ele><time>2026-05-02T08:57:58.896Z</time></trkpt><trkpt lat="46.1206931" lon="13.6047947"><ele>499.00000000000006</ele><time>2026-05-02T08:57:59.891Z</time></trkpt><trkpt lat="46.1207563" lon="13.6047693"><ele>499.0</ele><time>2026-05-02T08:58:00.89Z</time></trkpt><trkpt lat="46.1208516" lon="13.6047006"><ele>498.79999999999995</ele><time>2026-05-02T08:58:02.895Z</time></trkpt><trkpt lat="46.1209313" lon="13.6046676"><ele>498.59999999999997</ele><time>2026-05-02T08:58:04.89Z</time></trkpt><trkpt lat="46.1210152" lon="13.6046633"><ele>498.4</ele><time>2026-05-02T08:58:06.899Z</time></trkpt><trkpt lat="46.1209759" lon="13.6045456"><ele>498.2</ele><time>2026-05-02T08:59:04.903Z</time></trkpt><trkpt lat="46.1208011" lon="13.6045053"><ele>498.0</ele><time>2026-05-02T08:59:09.886Z</time></trkpt><trkpt lat="46.1207004" lon="13.6044019"><ele>498.0</ele><time>2026-05-02T08:59:11.892Z</time></trkpt><trkpt lat="46.1206586" lon="13.6043207"><ele>498.0</ele><time>2026-05-02T08:59:12.883Z</time></trkpt><trkpt lat="46.1206499" lon="13.6042203"><ele>498.0</ele><time>2026-05-02T08:59:13.891Z</time></trkpt><trkpt lat="46.1206452" lon="13.6041174"><ele>498.0</ele><time>2026-05-02T08:59:14.894Z</time></trkpt><trkpt lat="46.1206432" lon="13.6040214"><ele>498.0</ele><time>2026-05-02T08:59:15.885Z</time></trkpt><trkpt lat="46.1206161" lon="13.6038694"><ele>498.0</ele><time>2026-05-02T08:59:17.89Z</time></trkpt><trkpt lat="46.1205799" lon="13.6037261"><ele>500.5</ele><time>2026-05-02T08:59:19.894Z</time></trkpt><trkpt lat="46.1205511" lon="13.6035877"><ele>503.0</ele><time>2026-05-02T08:59:21.902Z</time></trkpt><trkpt lat="46.1205415" lon="13.6034551"><ele>505.5</ele><time>2026-05-02T08:59:23.893Z</time></trkpt><trkpt lat="46.1205469" lon="13.603277"><ele>508.0</ele><time>2026-05-02T08:59:25.893Z</time></trkpt><trkpt lat="46.1205568" lon="13.6030631"><ele>508.00000000000006</ele><time>2026-05-02T08:59:27.888Z</time></trkpt><trkpt lat="46.1205646" lon="13.6029434"><ele>508.0</ele><time>2026-05-02T08:59:28.888Z</time></trkpt><trkpt lat="46.1205972" lon="13.6028305"><ele>508.0</ele><time>2026-05-02T08:59:29.892Z</time></trkpt><trkpt lat="46.1206242" lon="13.6027197"><ele>508.0</ele><time>2026-05-02T08:59:30.889Z</time></trkpt><trkpt lat="46.1206664" lon="13.6026151"><ele>508.00000000000006</ele><time>2026-05-02T08:59:31.883Z</time></trkpt><trkpt lat="46.1207153" lon="13.6025225"><ele>508.0</ele><time>2026-05-02T08:59:32.887Z</time></trkpt><trkpt lat="46.1207584" lon="13.6024378"><ele>517.3333333333334</ele><time>2026-05-02T08:59:33.885Z</time></trkpt><trkpt lat="46.1207755" lon="13.6023299"><ele>526.6666666666667</ele><time>2026-05-02T08:59:34.882Z</time></trkpt><trkpt lat="46.1207771" lon="13.6022033"><ele>536.0</ele><time>2026-05-02T08:59:35.896Z</time></trkpt><trkpt lat="46.120777" lon="13.6020893"><ele>545.3333333333334</ele><time>2026-05-02T08:59:36.888Z</time></trkpt><trkpt lat="46.1207792" lon="13.6019674"><ele>554.6666666666666</ele><time>2026-05-02T08:59:37.886Z</time></trkpt><trkpt lat="46.1207639" lon="13.6018456"><ele>564.0</ele><time>2026-05-02T08:59:38.891Z</time></trkpt><trkpt lat="46.1207833" lon="13.6017253"><ele>564.3333333333334</ele><time>2026-05-02T08:59:39.891Z</time></trkpt><trkpt lat="46.1208073" lon="13.6016044"><ele>564.6666666666666</ele><time>2026-05-02T08:59:40.901Z</time></trkpt><trkpt lat="46.1208425" lon="13.6014804"><ele>565.0</ele><time>2026-05-02T08:59:41.887Z</time></trkpt><trkpt lat="46.1208673" lon="13.6013641"><ele>565.3333333333333</ele><time>2026-05-02T08:59:42.891Z</time></trkpt><trkpt lat="46.1208859" lon="13.6012329"><ele>565.6666666666666</ele><time>2026-05-02T08:59:43.892Z</time></trkpt><trkpt lat="46.1208905" lon="13.6010999"><ele>566.0</ele><time>2026-05-02T08:59:44.886Z</time></trkpt><trkpt lat="46.1208842" lon="13.6009616"><ele>566.0</ele><time>2026-05-02T08:59:45.894Z</time></trkpt><trkpt lat="46.1208856" lon="13.6008392"><ele>566.0</ele><time>2026-05-02T08:59:46.891Z</time></trkpt><trkpt lat="46.1209315" lon="13.6005501"><ele>566.0</ele><time>2026-05-02T08:59:48.897Z</time></trkpt><trkpt lat="46.1209521" lon="13.6003829"><ele>566.0</ele><time>2026-05-02T08:59:49.885Z</time></trkpt><trkpt lat="46.120963" lon="13.6002252"><ele>566.0</ele><time>2026-05-02T08:59:50.896Z</time></trkpt><trkpt lat="46.1209644" lon="13.6000915"><ele>566.0</ele><time>2026-05-02T08:59:51.888Z</time></trkpt><trkpt lat="46.1209592" lon="13.5999545"><ele>566.0</ele><time>2026-05-02T08:59:52.899Z</time></trkpt><trkpt lat="46.1209496" lon="13.5998483"><ele>566.0</ele><time>2026-05-02T08:59:53.891Z</time></trkpt><trkpt lat="46.1209674" lon="13.5997557"><ele>566.0</ele><time>2026-05-02T08:59:54.899Z</time></trkpt><trkpt lat="46.1210555" lon="13.5996621"><ele>566.0</ele><time>2026-05-02T08:59:56.89Z</time></trkpt><trkpt lat="46.1211726" lon="13.5996627"><ele>566.0</ele><time>2026-05-02T08:59:58.89Z</time></trkpt><trkpt lat="46.1212817" lon="13.5996933"><ele>566.0</ele><time>2026-05-02T09:00:00.893Z</time></trkpt><trkpt lat="46.1213519" lon="13.599754"><ele>566.0</ele><time>2026-05-02T09:00:02.885Z</time></trkpt><trkpt lat="46.1214249" lon="13.5998307"><ele>566.0</ele><time>2026-05-02T09:00:04.896Z</time></trkpt><trkpt lat="46.1215197" lon="13.5998883"><ele>566.0</ele><time>2026-05-02T09:00:07.894Z</time></trkpt><trkpt lat="46.1216998" lon="13.6000458"><ele>568.8333333333333</ele><time>2026-05-02T09:00:11.888Z</time></trkpt><trkpt lat="46.1217356" lon="13.6001313"><ele>571.6666666666666</ele><time>2026-05-02T09:00:12.892Z</time></trkpt><trkpt lat="46.1217516" lon="13.6002277"><ele>574.5</ele><time>2026-05-02T09:00:13.889Z</time></trkpt><trkpt lat="46.1217535" lon="13.6003225"><ele>577.3333333333334</ele><time>2026-05-02T09:00:14.895Z</time></trkpt><trkpt lat="46.1217538" lon="13.6004168"><ele>580.1666666666667</ele><time>2026-05-02T09:00:15.898Z</time></trkpt><trkpt lat="46.1217249" lon="13.600595"><ele>583.0</ele><time>2026-05-02T09:00:17.888Z</time></trkpt><trkpt lat="46.1217017" lon="13.6006824"><ele>583.5714285714287</ele><time>2026-05-02T09:00:18.887Z</time></trkpt><trkpt lat="46.1216766" lon="13.6007781"><ele>584.1428571428571</ele><time>2026-05-02T09:00:19.89Z</time></trkpt><trkpt lat="46.1216591" lon="13.6008826"><ele>584.7142857142858</ele><time>2026-05-02T09:00:20.892Z</time></trkpt><trkpt lat="46.1216436" lon="13.6009909"><ele>585.2857142857143</ele><time>2026-05-02T09:00:21.89Z</time></trkpt><trkpt lat="46.121634" lon="13.6010998"><ele>585.8571428571429</ele><time>2026-05-02T09:00:22.897Z</time></trkpt><trkpt lat="46.1216308" lon="13.6011985"><ele>586.4285714285714</ele><time>2026-05-02T09:00:23.895Z</time></trkpt><trkpt lat="46.1216338" lon="13.6013071"><ele>587.0</ele><time>2026-05-02T09:00:24.893Z</time></trkpt><trkpt lat="46.1216507" lon="13.6014038"><ele>587.0</ele><time>2026-05-02T09:00:25.893Z</time></trkpt><trkpt lat="46.121677" lon="13.6015065"><ele>587.0</ele><time>2026-05-02T09:00:26.892Z</time></trkpt><trkpt lat="46.1217209" lon="13.6016174"><ele>587.0</ele><time>2026-05-02T09:00:27.891Z</time></trkpt><trkpt lat="46.1217811" lon="13.6017442"><ele>587.0</ele><time>2026-05-02T09:00:28.898Z</time></trkpt><trkpt lat="46.1219352" lon="13.6019994"><ele>588.2</ele><time>2026-05-02T09:00:30.9Z</time></trkpt><trkpt lat="46.1220101" lon="13.6021207"><ele>589.4000000000001</ele><time>2026-05-02T09:00:31.888Z</time></trkpt><trkpt lat="46.1221018" lon="13.6022086"><ele>590.5999999999999</ele><time>2026-05-02T09:00:32.894Z</time></trkpt><trkpt lat="46.1222138" lon="13.6022295"><ele>591.8</ele><time>2026-05-02T09:00:33.885Z</time></trkpt><trkpt lat="46.1223239" lon="13.6022066"><ele>593.0</ele><time>2026-05-02T09:00:34.9Z</time></trkpt><trkpt lat="46.1224325" lon="13.6021564"><ele>594.0</ele><time>2026-05-02T09:00:35.894Z</time></trkpt><trkpt lat="46.1225358" lon="13.6021342"><ele>595.0</ele><time>2026-05-02T09:00:36.883Z</time></trkpt><trkpt lat="46.1226498" lon="13.6021686"><ele>596.0</ele><time>2026-05-02T09:00:37.891Z</time></trkpt><trkpt lat="46.122774" lon="13.6022566"><ele>597.0</ele><time>2026-05-02T09:00:38.889Z</time></trkpt><trkpt lat="46.1228895" lon="13.6023523"><ele>597.0</ele><time>2026-05-02T09:00:39.887Z</time></trkpt><trkpt lat="46.1229877" lon="13.6024546"><ele>597.0</ele><time>2026-05-02T09:00:40.89Z</time></trkpt><trkpt lat="46.1230749" lon="13.6025585"><ele>597.0</ele><time>2026-05-02T09:00:41.903Z</time></trkpt><trkpt lat="46.1231497" lon="13.6026542"><ele>597.0</ele><time>2026-05-02T09:00:42.89Z</time></trkpt><trkpt lat="46.1232196" lon="13.6027429"><ele>597.0</ele><time>2026-05-02T09:00:43.885Z</time></trkpt><trkpt lat="46.123289" lon="13.6028107"><ele>598.4</ele><time>2026-05-02T09:00:44.889Z</time></trkpt><trkpt lat="46.123374" lon="13.6028342"><ele>599.8000000000001</ele><time>2026-05-02T09:00:45.889Z</time></trkpt><trkpt lat="46.1234655" lon="13.6028385"><ele>601.2</ele><time>2026-05-02T09:00:46.894Z</time></trkpt><trkpt lat="46.1235805" lon="13.6028069"><ele>602.6</ele><time>2026-05-02T09:00:47.887Z</time></trkpt><trkpt lat="46.1236984" lon="13.602753"><ele>604.0</ele><time>2026-05-02T09:00:48.901Z</time></trkpt><trkpt lat="46.1238133" lon="13.6027017"><ele>600.75</ele><time>2026-05-02T09:00:49.889Z</time></trkpt><trkpt lat="46.1240365" lon="13.6026702"><ele>597.5</ele><time>2026-05-02T09:00:51.897Z</time></trkpt><trkpt lat="46.1241373" lon="13.6026759"><ele>594.25</ele><time>2026-05-02T09:00:52.893Z</time></trkpt><trkpt lat="46.1242344" lon="13.602654"><ele>591.0</ele><time>2026-05-02T09:00:53.892Z</time></trkpt><trkpt lat="46.124323" lon="13.6025886"><ele>591.0</ele><time>2026-05-02T09:00:54.883Z</time></trkpt><trkpt lat="46.1244057" lon="13.6024634"><ele>591.0</ele><time>2026-05-02T09:00:55.884Z</time></trkpt><trkpt lat="46.12447" lon="13.6023015"><ele>591.0</ele><time>2026-05-02T09:00:56.89Z</time></trkpt><trkpt lat="46.12453" lon="13.6021301"><ele>591.0</ele><time>2026-05-02T09:00:57.886Z</time></trkpt><trkpt lat="46.124592" lon="13.6019702"><ele>588.8</ele><time>2026-05-02T09:00:58.893Z</time></trkpt><trkpt lat="46.1246477" lon="13.6018321"><ele>586.6</ele><time>2026-05-02T09:00:59.892Z</time></trkpt><trkpt lat="46.1247052" lon="13.6017333"><ele>584.4</ele><time>2026-05-02T09:01:00.894Z</time></trkpt><trkpt lat="46.124787" lon="13.601725"><ele>582.2</ele><time>2026-05-02T09:01:01.902Z</time></trkpt><trkpt lat="46.1248734" lon="13.601796"><ele>580.0</ele><time>2026-05-02T09:01:02.885Z</time></trkpt><trkpt lat="46.12496" lon="13.6019215"><ele>581.75</ele><time>2026-05-02T09:01:03.893Z</time></trkpt><trkpt lat="46.1250494" lon="13.6020719"><ele>583.5</ele><time>2026-05-02T09:01:04.895Z</time></trkpt><trkpt lat="46.1251438" lon="13.6022183"><ele>585.25</ele><time>2026-05-02T09:01:05.886Z</time></trkpt><trkpt lat="46.125227" lon="13.6023578"><ele>587.0</ele><time>2026-05-02T09:01:06.895Z</time></trkpt><trkpt lat="46.1252797" lon="13.6025096"><ele>587.0</ele><time>2026-05-02T09:01:07.887Z</time></trkpt><trkpt lat="46.1252805" lon="13.6026536"><ele>587.0</ele><time>2026-05-02T09:01:08.892Z</time></trkpt><trkpt lat="46.1252363" lon="13.6028039"><ele>587.0</ele><time>2026-05-02T09:01:09.9Z</time></trkpt><trkpt lat="46.1251713" lon="13.6029833"><ele>587.0</ele><time>2026-05-02T09:01:10.887Z</time></trkpt><trkpt lat="46.125095" lon="13.603409"><ele>586.75</ele><time>2026-05-02T09:01:12.887Z</time></trkpt><trkpt lat="46.1250701" lon="13.6036303"><ele>586.5</ele><time>2026-05-02T09:01:13.899Z</time></trkpt><trkpt lat="46.1250594" lon="13.603845"><ele>586.25</ele><time>2026-05-02T09:01:14.887Z</time></trkpt><trkpt lat="46.1251002" lon="13.6040083"><ele>586.0</ele><time>2026-05-02T09:01:15.892Z</time></trkpt><trkpt lat="46.125159" lon="13.6041526"><ele>587.6</ele><time>2026-05-02T09:01:16.89Z</time></trkpt><trkpt lat="46.1252314" lon="13.6042614"><ele>589.2</ele><time>2026-05-02T09:01:17.89Z</time></trkpt><trkpt lat="46.1253066" lon="13.6043592"><ele>590.8</ele><time>2026-05-02T09:01:18.904Z</time></trkpt><trkpt lat="46.1253793" lon="13.6044637"><ele>592.4</ele><time>2026-05-02T09:01:19.886Z</time></trkpt><trkpt lat="46.1254429" lon="13.6045559"><ele>594.0</ele><time>2026-05-02T09:01:20.892Z</time></trkpt><trkpt lat="46.1255244" lon="13.6046254"><ele>594.0</ele><time>2026-05-02T09:01:21.891Z</time></trkpt><trkpt lat="46.1256168" lon="13.6046491"><ele>594.0</ele><time>2026-05-02T09:01:22.89Z</time></trkpt><trkpt lat="46.1257003" lon="13.6046424"><ele>594.0</ele><time>2026-05-02T09:01:23.885Z</time></trkpt><trkpt lat="46.1257704" lon="13.6045992"><ele>594.0</ele><time>2026-05-02T09:01:24.883Z</time></trkpt><trkpt lat="46.1257257" lon="13.6044616"><ele>594.0</ele><time>2026-05-02T09:01:27.889Z</time></trkpt><trkpt lat="46.1256564" lon="13.6044045"><ele>594.0</ele><time>2026-05-02T09:01:28.89Z</time></trkpt><trkpt lat="46.1255836" lon="13.604334"><ele>594.0</ele><time>2026-05-02T09:01:29.886Z</time></trkpt><trkpt lat="46.1255073" lon="13.6042552"><ele>594.0</ele><time>2026-05-02T09:01:30.886Z</time></trkpt><trkpt lat="46.1254266" lon="13.6041695"><ele>594.0</ele><time>2026-05-02T09:01:31.899Z</time></trkpt><trkpt lat="46.125269" lon="13.6039449"><ele>594.0</ele><time>2026-05-02T09:01:33.894Z</time></trkpt><trkpt lat="46.1252" lon="13.6038074"><ele>592.4</ele><time>2026-05-02T09:01:34.885Z</time></trkpt><trkpt lat="46.125158" lon="13.6036574"><ele>590.8</ele><time>2026-05-02T09:01:35.911Z</time></trkpt><trkpt lat="46.1251381" lon="13.6035007"><ele>589.2</ele><time>2026-05-02T09:01:36.891Z</time></trkpt><trkpt lat="46.12517" lon="13.6033469"><ele>587.6</ele><time>2026-05-02T09:01:37.889Z</time></trkpt><trkpt lat="46.1252379" lon="13.6032186"><ele>586.0</ele><time>2026-05-02T09:01:38.886Z</time></trkpt><trkpt lat="46.1253283" lon="13.6030982"><ele>586.0</ele><time>2026-05-02T09:01:39.89Z</time></trkpt><trkpt lat="46.125415" lon="13.6029848"><ele>586.0</ele><time>2026-05-02T09:01:40.892Z</time></trkpt><trkpt lat="46.1254831" lon="13.6028476"><ele>586.0</ele><time>2026-05-02T09:01:41.885Z</time></trkpt><trkpt lat="46.1255301" lon="13.6026716"><ele>586.0</ele><time>2026-05-02T09:01:42.898Z</time></trkpt><trkpt lat="46.1255766" lon="13.60248"><ele>586.25</ele><time>2026-05-02T09:01:43.89Z</time></trkpt><trkpt lat="46.1256404" lon="13.6022895"><ele>586.5</ele><time>2026-05-02T09:01:44.896Z</time></trkpt><trkpt lat="46.1257132" lon="13.6021171"><ele>586.75</ele><time>2026-05-02T09:01:45.893Z</time></trkpt><trkpt lat="46.1257629" lon="13.6019409"><ele>587.0</ele><time>2026-05-02T09:01:46.89Z</time></trkpt><trkpt lat="46.1257682" lon="13.601778"><ele>585.25</ele><time>2026-05-02T09:01:47.889Z</time></trkpt><trkpt lat="46.1257277" lon="13.6016242"><ele>583.5</ele><time>2026-05-02T09:01:48.889Z</time></trkpt><trkpt lat="46.1256556" lon="13.6014919"><ele>581.75</ele><time>2026-05-02T09:01:49.888Z</time></trkpt><trkpt lat="46.1255624" lon="13.601368"><ele>580.0</ele><time>2026-05-02T09:01:50.891Z</time></trkpt><trkpt lat="46.1254776" lon="13.6012345"><ele>575.5</ele><time>2026-05-02T09:01:51.886Z</time></trkpt><trkpt lat="46.1254204" lon="13.6011006"><ele>571.0</ele><time>2026-05-02T09:01:52.89Z</time></trkpt><trkpt lat="46.1254209" lon="13.6008461"><ele>566.5</ele><time>2026-05-02T09:01:54.904Z</time></trkpt><trkpt lat="46.125488" lon="13.6006985"><ele>562.0</ele><time>2026-05-02T09:01:55.887Z</time></trkpt><trkpt lat="46.1255791" lon="13.60054"><ele>562.0</ele><time>2026-05-02T09:01:56.89Z</time></trkpt><trkpt lat="46.1256719" lon="13.6003783"><ele>562.0</ele><time>2026-05-02T09:01:57.889Z</time></trkpt><trkpt lat="46.1257572" lon="13.6002025"><ele>562.0</ele><time>2026-05-02T09:01:58.894Z</time></trkpt><trkpt lat="46.1258277" lon="13.6000185"><ele>562.0</ele><time>2026-05-02T09:01:59.893Z</time></trkpt><trkpt lat="46.1258528" lon="13.5998443"><ele>557.75</ele><time>2026-05-02T09:02:00.887Z</time></trkpt><trkpt lat="46.1258342" lon="13.5996866"><ele>553.5</ele><time>2026-05-02T09:02:01.891Z</time></trkpt><trkpt lat="46.1257695" lon="13.5995449"><ele>549.25</ele><time>2026-05-02T09:02:02.897Z</time></trkpt><trkpt lat="46.1256674" lon="13.5994476"><ele>545.0</ele><time>2026-05-02T09:02:03.889Z</time></trkpt><trkpt lat="46.1256042" lon="13.5993358"><ele>543.25</ele><time>2026-05-02T09:02:04.89Z</time></trkpt><trkpt lat="46.1255714" lon="13.5992019"><ele>541.5</ele><time>2026-05-02T09:02:05.886Z</time></trkpt><trkpt lat="46.1255674" lon="13.5990463"><ele>539.75</ele><time>2026-05-02T09:02:06.897Z</time></trkpt><trkpt lat="46.1255896" lon="13.598845"><ele>538.0</ele><time>2026-05-02T09:02:07.889Z</time></trkpt><trkpt lat="46.1256015" lon="13.5986206"><ele>535.3333333333334</ele><time>2026-05-02T09:02:08.885Z</time></trkpt><trkpt lat="46.1256438" lon="13.5983289"><ele>532.6666666666666</ele><time>2026-05-02T09:02:09.888Z</time></trkpt><trkpt lat="46.1256647" lon="13.5980558"><ele>530.0</ele><time>2026-05-02T09:02:10.886Z</time></trkpt><trkpt lat="46.1256803" lon="13.5977962"><ele>527.0</ele><time>2026-05-02T09:02:11.885Z</time></trkpt><trkpt lat="46.1257177" lon="13.5975545"><ele>524.0</ele><time>2026-05-02T09:02:12.889Z</time></trkpt><trkpt lat="46.1257435" lon="13.5973169"><ele>521.0</ele><time>2026-05-02T09:02:13.89Z</time></trkpt><trkpt lat="46.1257981" lon="13.5968635"><ele>521.0</ele><time>2026-05-02T09:02:15.887Z</time></trkpt><trkpt lat="46.1258394" lon="13.5966314"><ele>521.0</ele><time>2026-05-02T09:02:16.893Z</time></trkpt><trkpt lat="46.1258769" lon="13.5964108"><ele>521.0</ele><time>2026-05-02T09:02:17.889Z</time></trkpt><trkpt lat="46.1259236" lon="13.5961953"><ele>521.25</ele><time>2026-05-02T09:02:18.886Z</time></trkpt><trkpt lat="46.1259847" lon="13.5959985"><ele>521.5</ele><time>2026-05-02T09:02:19.897Z</time></trkpt><trkpt lat="46.126052" lon="13.5958291"><ele>521.75</ele><time>2026-05-02T09:02:20.888Z</time></trkpt><trkpt lat="46.1261056" lon="13.5956682"><ele>522.0</ele><time>2026-05-02T09:02:21.897Z</time></trkpt><trkpt lat="46.1261514" lon="13.5955254"><ele>522.0</ele><time>2026-05-02T09:02:22.885Z</time></trkpt><trkpt lat="46.1261894" lon="13.5954001"><ele>522.0</ele><time>2026-05-02T09:02:23.894Z</time></trkpt><trkpt lat="46.1262096" lon="13.5953077"><ele>522.0</ele><time>2026-05-02T09:02:24.893Z</time></trkpt><trkpt lat="46.1262413" lon="13.5951798"><ele>522.0</ele><time>2026-05-02T09:02:26.898Z</time></trkpt><trkpt lat="46.1263068" lon="13.5952409"><ele>522.0</ele><time>2026-05-02T09:02:29.893Z</time></trkpt><trkpt lat="46.1262895" lon="13.5953321"><ele>522.0</ele><time>2026-05-02T09:02:31.887Z</time></trkpt><trkpt lat="46.126264" lon="13.5954388"><ele>522.0</ele><time>2026-05-02T09:02:33.899Z</time></trkpt><trkpt lat="46.1262288" lon="13.5955693"><ele>522.0</ele><time>2026-05-02T09:02:35.897Z</time></trkpt><trkpt lat="46.1262436" lon="13.5958692"><ele>522.0</ele><time>2026-05-02T09:02:38.886Z</time></trkpt><trkpt lat="46.1262537" lon="13.595989"><ele>522.0</ele><time>2026-05-02T09:02:39.885Z</time></trkpt><trkpt lat="46.126264" lon="13.5961052"><ele>521.8333333333334</ele><time>2026-05-02T09:02:40.896Z</time></trkpt><trkpt lat="46.1262801" lon="13.5962218"><ele>521.6666666666666</ele><time>2026-05-02T09:02:41.9Z</time></trkpt><trkpt lat="46.1262986" lon="13.5963316"><ele>521.5</ele><time>2026-05-02T09:02:42.903Z</time></trkpt><trkpt lat="46.126313" lon="13.5964588"><ele>521.3333333333333</ele><time>2026-05-02T09:02:43.891Z</time></trkpt><trkpt lat="46.1263345" lon="13.5965896"><ele>521.1666666666666</ele><time>2026-05-02T09:02:44.885Z</time></trkpt><trkpt lat="46.1263563" lon="13.5967231"><ele>521.0</ele><time>2026-05-02T09:02:45.889Z</time></trkpt><trkpt lat="46.1263622" lon="13.596861"><ele>521.0</ele><time>2026-05-02T09:02:46.89Z</time></trkpt><trkpt lat="46.1263661" lon="13.5970024"><ele>521.0</ele><time>2026-05-02T09:02:47.887Z</time></trkpt><trkpt lat="46.1263591" lon="13.5971482"><ele>521.0</ele><time>2026-05-02T09:02:48.896Z</time></trkpt><trkpt lat="46.1263424" lon="13.5972902"><ele>521.0</ele><time>2026-05-02T09:02:49.899Z</time></trkpt><trkpt lat="46.1263217" lon="13.5974321"><ele>521.0</ele><time>2026-05-02T09:02:50.891Z</time></trkpt><trkpt lat="46.1263009" lon="13.597579"><ele>521.0</ele><time>2026-05-02T09:02:51.896Z</time></trkpt><trkpt lat="46.1262814" lon="13.5977245"><ele>521.0</ele><time>2026-05-02T09:02:52.884Z</time></trkpt><trkpt lat="46.1262647" lon="13.5978527"><ele>521.0</ele><time>2026-05-02T09:02:53.885Z</time></trkpt><trkpt lat="46.1262621" lon="13.597967"><ele>521.0</ele><time>2026-05-02T09:02:54.895Z</time></trkpt><trkpt lat="46.1262656" lon="13.5980822"><ele>521.0</ele><time>2026-05-02T09:02:55.888Z</time></trkpt><trkpt lat="46.1262712" lon="13.5982073"><ele>521.0</ele><time>2026-05-02T09:02:56.887Z</time></trkpt><trkpt lat="46.1263135" lon="13.5984526"><ele>521.8333333333333</ele><time>2026-05-02T09:02:58.896Z</time></trkpt><trkpt lat="46.1263283" lon="13.5985709"><ele>522.6666666666666</ele><time>2026-05-02T09:02:59.886Z</time></trkpt><trkpt lat="46.1263429" lon="13.5986758"><ele>523.5</ele><time>2026-05-02T09:03:00.884Z</time></trkpt><trkpt lat="46.126404" lon="13.5988245"><ele>524.3333333333334</ele><time>2026-05-02T09:03:02.894Z</time></trkpt><trkpt lat="46.1264556" lon="13.5988874"><ele>525.1666666666667</ele><time>2026-05-02T09:03:03.898Z</time></trkpt><trkpt lat="46.1265254" lon="13.5989473"><ele>526.0</ele><time>2026-05-02T09:03:04.894Z</time></trkpt><trkpt lat="46.1266175" lon="13.5989986"><ele>523.6666666666667</ele><time>2026-05-02T09:03:05.9Z</time></trkpt><trkpt lat="46.1267152" lon="13.5990225"><ele>521.3333333333334</ele><time>2026-05-02T09:03:06.892Z</time></trkpt><trkpt lat="46.1268038" lon="13.599016"><ele>519.0</ele><time>2026-05-02T09:03:07.884Z</time></trkpt><trkpt lat="46.1268969" lon="13.5990015"><ele>516.6666666666666</ele><time>2026-05-02T09:03:08.891Z</time></trkpt><trkpt lat="46.1269774" lon="13.5989943"><ele>514.3333333333333</ele><time>2026-05-02T09:03:09.888Z</time></trkpt><trkpt lat="46.1270598" lon="13.5989938"><ele>512.0</ele><time>2026-05-02T09:03:10.887Z</time></trkpt><trkpt lat="46.1271392" lon="13.5990247"><ele>511.99999999999994</ele><time>2026-05-02T09:03:11.891Z</time></trkpt><trkpt lat="46.127199" lon="13.5991024"><ele>512.0</ele><time>2026-05-02T09:03:12.9Z</time></trkpt><trkpt lat="46.12724" lon="13.5991868"><ele>512.0</ele><time>2026-05-02T09:03:13.888Z</time></trkpt><trkpt lat="46.1272617" lon="13.5992797"><ele>512.0</ele><time>2026-05-02T09:03:14.906Z</time></trkpt><trkpt lat="46.1272709" lon="13.5993917"><ele>511.99999999999994</ele><time>2026-05-02T09:03:15.892Z</time></trkpt><trkpt lat="46.1272542" lon="13.5995295"><ele>512.0</ele><time>2026-05-02T09:03:16.898Z</time></trkpt><trkpt lat="46.1272145" lon="13.5996827"><ele>513.5</ele><time>2026-05-02T09:03:17.887Z</time></trkpt><trkpt lat="46.1270937" lon="13.5999922"><ele>515.0</ele><time>2026-05-02T09:03:19.886Z</time></trkpt><trkpt lat="46.1270347" lon="13.6001268"><ele>516.5</ele><time>2026-05-02T09:03:20.898Z</time></trkpt><trkpt lat="46.1270084" lon="13.6002255"><ele>518.0</ele><time>2026-05-02T09:03:21.888Z</time></trkpt><trkpt lat="46.1270206" lon="13.6003262"><ele>518.0</ele><time>2026-05-02T09:03:23.891Z</time></trkpt><trkpt lat="46.1271213" lon="13.6003047"><ele>518.0</ele><time>2026-05-02T09:03:26.902Z</time></trkpt><trkpt lat="46.1271888" lon="13.6002421"><ele>518.0</ele><time>2026-05-02T09:03:27.892Z</time></trkpt><trkpt lat="46.1272705" lon="13.6001696"><ele>518.0</ele><time>2026-05-02T09:03:28.887Z</time></trkpt><trkpt lat="46.1273767" lon="13.6001005"><ele>518.0</ele><time>2026-05-02T09:03:29.896Z</time></trkpt><trkpt lat="46.1274863" lon="13.6000397"><ele>513.0</ele><time>2026-05-02T09:03:30.893Z</time></trkpt><trkpt lat="46.1275995" lon="13.599997"><ele>507.99999999999994</ele><time>2026-05-02T09:03:31.885Z</time></trkpt><trkpt lat="46.1277107" lon="13.5999515"><ele>502.99999999999994</ele><time>2026-05-02T09:03:32.897Z</time></trkpt><trkpt lat="46.1278095" lon="13.5999255"><ele>498.0</ele><time>2026-05-02T09:03:33.891Z</time></trkpt><trkpt lat="46.1278918" lon="13.5998979"><ele>493.0</ele><time>2026-05-02T09:03:34.898Z</time></trkpt><trkpt lat="46.1279563" lon="13.5998796"><ele>493.0</ele><time>2026-05-02T09:03:35.886Z</time></trkpt><trkpt lat="46.1280252" lon="13.5998936"><ele>493.0</ele><time>2026-05-02T09:03:36.89Z</time></trkpt><trkpt lat="46.1281214" lon="13.5999907"><ele>493.0</ele><time>2026-05-02T09:03:38.898Z</time></trkpt><trkpt lat="46.1281339" lon="13.6003084"><ele>493.0</ele><time>2026-05-02T09:03:41.887Z</time></trkpt><trkpt lat="46.128092" lon="13.6004426"><ele>496.0</ele><time>2026-05-02T09:03:42.898Z</time></trkpt><trkpt lat="46.1280461" lon="13.6005795"><ele>499.0</ele><time>2026-05-02T09:03:43.886Z</time></trkpt><trkpt lat="46.1279911" lon="13.6007288"><ele>502.0</ele><time>2026-05-02T09:03:44.9Z</time></trkpt><trkpt lat="46.1279403" lon="13.6008839"><ele>505.0</ele><time>2026-05-02T09:03:45.893Z</time></trkpt><trkpt lat="46.1278911" lon="13.6010319"><ele>504.4</ele><time>2026-05-02T09:03:46.899Z</time></trkpt><trkpt lat="46.127843" lon="13.6011684"><ele>503.8</ele><time>2026-05-02T09:03:47.885Z</time></trkpt><trkpt lat="46.1277888" lon="13.6012948"><ele>503.20000000000005</ele><time>2026-05-02T09:03:48.888Z</time></trkpt><trkpt lat="46.1277517" lon="13.6014151"><ele>502.6</ele><time>2026-05-02T09:03:49.892Z</time></trkpt><trkpt lat="46.1277278" lon="13.6015449"><ele>502.0</ele><time>2026-05-02T09:03:50.891Z</time></trkpt><trkpt lat="46.1277103" lon="13.601684"><ele>502.00000000000006</ele><time>2026-05-02T09:03:51.895Z</time></trkpt><trkpt lat="46.1277014" lon="13.6018154"><ele>502.0</ele><time>2026-05-02T09:03:52.897Z</time></trkpt><trkpt lat="46.1276965" lon="13.6019154"><ele>502.0</ele><time>2026-05-02T09:03:53.894Z</time></trkpt><trkpt lat="46.1276821" lon="13.6020776"><ele>502.0</ele><time>2026-05-02T09:03:55.885Z</time></trkpt><trkpt lat="46.127635" lon="13.6021685"><ele>502.00000000000006</ele><time>2026-05-02T09:03:56.892Z</time></trkpt><trkpt lat="46.1275956" lon="13.602249"><ele>502.0</ele><time>2026-05-02T09:03:57.887Z</time></trkpt><trkpt lat="46.1275718" lon="13.6023461"><ele>502.40000000000003</ele><time>2026-05-02T09:03:59.889Z</time></trkpt><trkpt lat="46.1277504" lon="13.6023169"><ele>502.80000000000007</ele><time>2026-05-02T09:04:03.886Z</time></trkpt><trkpt lat="46.1278333" lon="13.6022839"><ele>503.2</ele><time>2026-05-02T09:04:05.885Z</time></trkpt><trkpt lat="46.1279062" lon="13.6022732"><ele>503.6</ele><time>2026-05-02T09:04:11.888Z</time></trkpt><trkpt lat="46.1279985" lon="13.6023144"><ele>504.0</ele><time>2026-05-02T09:07:45.887Z</time></trkpt><trkpt lat="46.1281465" lon="13.6023968"><ele>500.8333333333333</ele><time>2026-05-02T09:07:52.884Z</time></trkpt><trkpt lat="46.1282521" lon="13.6024478"><ele>497.66666666666663</ele><time>2026-05-02T09:07:54.883Z</time></trkpt><trkpt lat="46.128314" lon="13.6024854"><ele>494.5</ele><time>2026-05-02T09:07:55.887Z</time></trkpt><trkpt lat="46.1284364" lon="13.6025488"><ele>491.3333333333333</ele><time>2026-05-02T09:07:57.893Z</time></trkpt><trkpt lat="46.1284985" lon="13.6025841"><ele>488.16666666666663</ele><time>2026-05-02T09:07:58.896Z</time></trkpt><trkpt lat="46.1285626" lon="13.602601"><ele>485.0</ele><time>2026-05-02T09:07:59.891Z</time></trkpt><trkpt lat="46.1286856" lon="13.6026112"><ele>485.00000000000006</ele><time>2026-05-02T09:08:01.892Z</time></trkpt><trkpt lat="46.1287504" lon="13.6026171"><ele>485.0</ele><time>2026-05-02T09:08:02.885Z</time></trkpt><trkpt lat="46.1288237" lon="13.602609"><ele>485.00000000000006</ele><time>2026-05-02T09:08:03.887Z</time></trkpt><trkpt lat="46.1288889" lon="13.6025946"><ele>485.00000000000006</ele><time>2026-05-02T09:08:04.892Z</time></trkpt><trkpt lat="46.1289584" lon="13.6025796"><ele>485.0</ele><time>2026-05-02T09:08:05.894Z</time></trkpt><trkpt lat="46.1290369" lon="13.6025738"><ele>485.00000000000006</ele><time>2026-05-02T09:08:06.887Z</time></trkpt><trkpt lat="46.1291194" lon="13.6025606"><ele>485.00000000000006</ele><time>2026-05-02T09:08:07.888Z</time></trkpt><trkpt lat="46.1293067" lon="13.6026182"><ele>483.66666666666663</ele><time>2026-05-02T09:08:10.892Z</time></trkpt><trkpt lat="46.129374" lon="13.6026553"><ele>482.3333333333333</ele><time>2026-05-02T09:08:11.892Z</time></trkpt><trkpt lat="46.1294746" lon="13.6027547"><ele>481.0</ele><time>2026-05-02T09:08:13.882Z</time></trkpt><trkpt lat="46.1295403" lon="13.6027954"><ele>479.66666666666663</ele><time>2026-05-02T09:08:14.888Z</time></trkpt><trkpt lat="46.129613" lon="13.6028382"><ele>478.3333333333333</ele><time>2026-05-02T09:08:15.89Z</time></trkpt><trkpt lat="46.1296882" lon="13.6028922"><ele>477.0</ele><time>2026-05-02T09:08:16.885Z</time></trkpt><trkpt lat="46.1297703" lon="13.6029528"><ele>478.1666666666667</ele><time>2026-05-02T09:08:17.888Z</time></trkpt><trkpt lat="46.1298573" lon="13.6030046"><ele>479.33333333333337</ele><time>2026-05-02T09:08:18.885Z</time></trkpt><trkpt lat="46.1299401" lon="13.60304"><ele>480.5</ele><time>2026-05-02T09:08:19.892Z</time></trkpt><trkpt lat="46.1300211" lon="13.6030784"><ele>481.6666666666667</ele><time>2026-05-02T09:08:20.903Z</time></trkpt><trkpt lat="46.1300942" lon="13.6031233"><ele>482.83333333333337</ele><time>2026-05-02T09:08:21.884Z</time></trkpt><trkpt lat="46.1301619" lon="13.6031831"><ele>484.0</ele><time>2026-05-02T09:08:22.885Z</time></trkpt><trkpt lat="46.1302194" lon="13.6032413"><ele>484.0</ele><time>2026-05-02T09:08:23.882Z</time></trkpt><trkpt lat="46.1302681" lon="13.6033081"><ele>484.0</ele><time>2026-05-02T09:08:24.897Z</time></trkpt><trkpt lat="46.1303073" lon="13.6034701"><ele>484.0</ele><time>2026-05-02T09:08:26.893Z</time></trkpt><trkpt lat="46.1302917" lon="13.6035831"><ele>484.0</ele><time>2026-05-02T09:08:27.882Z</time></trkpt><trkpt lat="46.1302489" lon="13.6037256"><ele>484.0</ele><time>2026-05-02T09:08:28.89Z</time></trkpt><trkpt lat="46.1301254" lon="13.6040454"><ele>484.0</ele><time>2026-05-02T09:08:30.884Z</time></trkpt><trkpt lat="46.1300617" lon="13.6042071"><ele>484.0</ele><time>2026-05-02T09:08:31.889Z</time></trkpt><trkpt lat="46.1299975" lon="13.6043716"><ele>484.0</ele><time>2026-05-02T09:08:32.893Z</time></trkpt><trkpt lat="46.1299421" lon="13.6045339"><ele>484.0</ele><time>2026-05-02T09:08:33.885Z</time></trkpt><trkpt lat="46.1298976" lon="13.6047013"><ele>488.4</ele><time>2026-05-02T09:08:34.887Z</time></trkpt><trkpt lat="46.1298492" lon="13.6048635"><ele>492.79999999999995</ele><time>2026-05-02T09:08:35.883Z</time></trkpt><trkpt lat="46.1298148" lon="13.6050143"><ele>497.20000000000005</ele><time>2026-05-02T09:08:36.885Z</time></trkpt><trkpt lat="46.1297695" lon="13.605141"><ele>501.6</ele><time>2026-05-02T09:08:37.883Z</time></trkpt><trkpt lat="46.129743" lon="13.6052417"><ele>506.0</ele><time>2026-05-02T09:08:38.892Z</time></trkpt><trkpt lat="46.1297136" lon="13.6053364"><ele>506.0</ele><time>2026-05-02T09:08:39.888Z</time></trkpt><trkpt lat="46.1296763" lon="13.6054416"><ele>506.0</ele><time>2026-05-02T09:08:40.885Z</time></trkpt><trkpt lat="46.129627" lon="13.6055394"><ele>506.0</ele><time>2026-05-02T09:08:41.885Z</time></trkpt><trkpt lat="46.129568" lon="13.6056498"><ele>506.0</ele><time>2026-05-02T09:08:42.888Z</time></trkpt><trkpt lat="46.1295124" lon="13.6057671"><ele>506.0</ele><time>2026-05-02T09:08:43.885Z</time></trkpt><trkpt lat="46.1294518" lon="13.6058898"><ele>506.0</ele><time>2026-05-02T09:08:44.885Z</time></trkpt><trkpt lat="46.1293981" lon="13.6060034"><ele>506.0</ele><time>2026-05-02T09:08:45.885Z</time></trkpt><trkpt lat="46.1293501" lon="13.6061042"><ele>506.0</ele><time>2026-05-02T09:08:46.888Z</time></trkpt><trkpt lat="46.1293077" lon="13.6062151"><ele>506.0</ele><time>2026-05-02T09:08:47.89Z</time></trkpt><trkpt lat="46.1292781" lon="13.6063407"><ele>506.0</ele><time>2026-05-02T09:08:48.891Z</time></trkpt><trkpt lat="46.1292551" lon="13.6064772"><ele>503.3333333333333</ele><time>2026-05-02T09:08:49.885Z</time></trkpt><trkpt lat="46.1292442" lon="13.6067213"><ele>500.66666666666663</ele><time>2026-05-02T09:08:51.887Z</time></trkpt><trkpt lat="46.1292512" lon="13.6068261"><ele>498.0</ele><time>2026-05-02T09:08:52.884Z</time></trkpt><trkpt lat="46.1292672" lon="13.6069205"><ele>495.33333333333337</ele><time>2026-05-02T09:08:53.879Z</time></trkpt><trkpt lat="46.1292725" lon="13.6070168"><ele>492.6666666666667</ele><time>2026-05-02T09:08:54.885Z</time></trkpt><trkpt lat="46.1292584" lon="13.607118"><ele>490.0</ele><time>2026-05-02T09:08:55.901Z</time></trkpt><trkpt lat="46.1292373" lon="13.6072298"><ele>490.0</ele><time>2026-05-02T09:08:56.88Z</time></trkpt><trkpt lat="46.1292107" lon="13.6073405"><ele>490.0</ele><time>2026-05-02T09:08:57.881Z</time></trkpt><trkpt lat="46.1291948" lon="13.6074321"><ele>490.0</ele><time>2026-05-02T09:08:58.885Z</time></trkpt><trkpt lat="46.1291908" lon="13.6075322"><ele>490.0</ele><time>2026-05-02T09:08:59.884Z</time></trkpt><trkpt lat="46.1291825" lon="13.6076392"><ele>490.0</ele><time>2026-05-02T09:09:00.892Z</time></trkpt><trkpt lat="46.1291753" lon="13.6077488"><ele>490.0</ele><time>2026-05-02T09:09:01.883Z</time></trkpt><trkpt lat="46.1291853" lon="13.6078388"><ele>490.0</ele><time>2026-05-02T09:09:03.883Z</time></trkpt><trkpt lat="46.1292604" lon="13.6078229"><ele>490.0</ele><time>2026-05-02T09:09:05.889Z</time></trkpt><trkpt lat="46.129371" lon="13.6077545"><ele>490.0</ele><time>2026-05-02T09:09:07.881Z</time></trkpt><trkpt lat="46.1294517" lon="13.6077061"><ele>490.0</ele><time>2026-05-02T09:09:08.882Z</time></trkpt><trkpt lat="46.1295485" lon="13.6076565"><ele>490.0</ele><time>2026-05-02T09:09:09.889Z</time></trkpt><trkpt lat="46.129658" lon="13.6076209"><ele>490.0</ele><time>2026-05-02T09:09:10.889Z</time></trkpt><trkpt lat="46.1298418" lon="13.6075575"><ele>485.4</ele><time>2026-05-02T09:09:12.885Z</time></trkpt><trkpt lat="46.1299288" lon="13.6075673"><ele>480.8</ele><time>2026-05-02T09:09:13.882Z</time></trkpt><trkpt lat="46.1300342" lon="13.6075766"><ele>476.20000000000005</ele><time>2026-05-02T09:09:14.889Z</time></trkpt><trkpt lat="46.1301442" lon="13.6075856"><ele>471.6</ele><time>2026-05-02T09:09:15.886Z</time></trkpt><trkpt lat="46.1302513" lon="13.6076061"><ele>467.0</ele><time>2026-05-02T09:09:16.89Z</time></trkpt><trkpt lat="46.1303313" lon="13.6076471"><ele>467.0</ele><time>2026-05-02T09:09:17.885Z</time></trkpt><trkpt lat="46.1303852" lon="13.6077026"><ele>467.00000000000006</ele><time>2026-05-02T09:09:18.881Z</time></trkpt><trkpt lat="46.130438" lon="13.6078573"><ele>467.00000000000006</ele><time>2026-05-02T09:09:20.889Z</time></trkpt><trkpt lat="46.1304468" lon="13.6079943"><ele>467.0</ele><time>2026-05-02T09:09:21.89Z</time></trkpt><trkpt lat="46.130449" lon="13.6081424"><ele>467.0</ele><time>2026-05-02T09:09:22.886Z</time></trkpt><trkpt lat="46.130434" lon="13.6082908"><ele>473.0</ele><time>2026-05-02T09:09:23.887Z</time></trkpt><trkpt lat="46.1304002" lon="13.6084369"><ele>479.00000000000006</ele><time>2026-05-02T09:09:24.887Z</time></trkpt><trkpt lat="46.1303574" lon="13.6085882"><ele>485.00000000000006</ele><time>2026-05-02T09:09:25.894Z</time></trkpt><trkpt lat="46.1303114" lon="13.6087412"><ele>491.0</ele><time>2026-05-02T09:09:26.889Z</time></trkpt><trkpt lat="46.1302702" lon="13.6088918"><ele>497.0</ele><time>2026-05-02T09:09:27.883Z</time></trkpt><trkpt lat="46.1302406" lon="13.6090093"><ele>498.6</ele><time>2026-05-02T09:09:28.893Z</time></trkpt><trkpt lat="46.1302057" lon="13.6091152"><ele>500.20000000000005</ele><time>2026-05-02T09:09:29.886Z</time></trkpt><trkpt lat="46.1301699" lon="13.609219"><ele>501.8</ele><time>2026-05-02T09:09:30.881Z</time></trkpt><trkpt lat="46.1301352" lon="13.6093175"><ele>503.4</ele><time>2026-05-02T09:09:31.884Z</time></trkpt><trkpt lat="46.1302288" lon="13.6095247"><ele>505.0</ele><time>2026-05-02T09:09:35.887Z</time></trkpt><trkpt lat="46.130323" lon="13.6095006"><ele>505.00000000000006</ele><time>2026-05-02T09:09:37.883Z</time></trkpt><trkpt lat="46.1303938" lon="13.6094736"><ele>505.0</ele><time>2026-05-02T09:09:38.882Z</time></trkpt><trkpt lat="46.1304791" lon="13.609444"><ele>505.0</ele><time>2026-05-02T09:09:39.882Z</time></trkpt><trkpt lat="46.1305533" lon="13.6094262"><ele>505.0</ele><time>2026-05-02T09:09:40.893Z</time></trkpt><trkpt lat="46.130645" lon="13.6093935"><ele>505.00000000000006</ele><time>2026-05-02T09:09:41.89Z</time></trkpt><trkpt lat="46.1307413" lon="13.6093704"><ele>505.0</ele><time>2026-05-02T09:09:42.897Z</time></trkpt><trkpt lat="46.1308259" lon="13.609352"><ele>506.85714285714283</ele><time>2026-05-02T09:09:43.889Z</time></trkpt><trkpt lat="46.1309026" lon="13.6093546"><ele>508.71428571428567</ele><time>2026-05-02T09:09:44.886Z</time></trkpt><trkpt lat="46.1309797" lon="13.6093737"><ele>510.57142857142856</ele><time>2026-05-02T09:09:45.89Z</time></trkpt><trkpt lat="46.1310436" lon="13.6094347"><ele>512.4285714285714</ele><time>2026-05-02T09:09:46.885Z</time></trkpt><trkpt lat="46.1311017" lon="13.6094839"><ele>514.2857142857142</ele><time>2026-05-02T09:09:47.893Z</time></trkpt><trkpt lat="46.1311695" lon="13.6095199"><ele>516.1428571428571</ele><time>2026-05-02T09:09:48.892Z</time></trkpt><trkpt lat="46.1312427" lon="13.6095424"><ele>518.0</ele><time>2026-05-02T09:09:49.893Z</time></trkpt><trkpt lat="46.1313072" lon="13.6095403"><ele>509.25</ele><time>2026-05-02T09:09:50.893Z</time></trkpt><trkpt lat="46.1313977" lon="13.609475"><ele>500.5</ele><time>2026-05-02T09:09:52.881Z</time></trkpt><trkpt lat="46.1314301" lon="13.6092289"><ele>491.75</ele><time>2026-05-02T09:09:54.886Z</time></trkpt><trkpt lat="46.1314371" lon="13.6090857"><ele>483.0</ele><time>2026-05-02T09:09:55.89Z</time></trkpt><trkpt lat="46.1314565" lon="13.6089412"><ele>483.0</ele><time>2026-05-02T09:09:56.886Z</time></trkpt><trkpt lat="46.1314879" lon="13.6087966"><ele>483.0</ele><time>2026-05-02T09:09:57.884Z</time></trkpt><trkpt lat="46.1315342" lon="13.6086498"><ele>483.0</ele><time>2026-05-02T09:09:58.891Z</time></trkpt><trkpt lat="46.131596" lon="13.608491"><ele>483.0</ele><time>2026-05-02T09:09:59.885Z</time></trkpt><trkpt lat="46.1316504" lon="13.608338"><ele>483.4</ele><time>2026-05-02T09:10:00.894Z</time></trkpt><trkpt lat="46.1316979" lon="13.6082325"><ele>483.79999999999995</ele><time>2026-05-02T09:10:01.887Z</time></trkpt><trkpt lat="46.1317416" lon="13.6081203"><ele>484.2</ele><time>2026-05-02T09:10:02.883Z</time></trkpt><trkpt lat="46.1317921" lon="13.607995"><ele>484.6</ele><time>2026-05-02T09:10:03.892Z</time></trkpt><trkpt lat="46.1318334" lon="13.6078768"><ele>485.0</ele><time>2026-05-02T09:10:04.891Z</time></trkpt><trkpt lat="46.1318694" lon="13.6077678"><ele>481.4285714285715</ele><time>2026-05-02T09:10:05.891Z</time></trkpt><trkpt lat="46.1319077" lon="13.6076694"><ele>477.8571428571429</ele><time>2026-05-02T09:10:06.895Z</time></trkpt><trkpt lat="46.1319443" lon="13.6075746"><ele>474.2857142857143</ele><time>2026-05-02T09:10:07.884Z</time></trkpt><trkpt lat="46.1319783" lon="13.6074851"><ele>470.7142857142857</ele><time>2026-05-02T09:10:08.887Z</time></trkpt><trkpt lat="46.1320224" lon="13.6073952"><ele>467.1428571428571</ele><time>2026-05-02T09:10:09.896Z</time></trkpt><trkpt lat="46.1320597" lon="13.6073143"><ele>463.5714285714285</ele><time>2026-05-02T09:10:10.889Z</time></trkpt><trkpt lat="46.1321023" lon="13.6072453"><ele>459.99999999999994</ele><time>2026-05-02T09:10:11.884Z</time></trkpt><trkpt lat="46.1321912" lon="13.6072125"><ele>469.25</ele><time>2026-05-02T09:10:13.879Z</time></trkpt><trkpt lat="46.1323928" lon="13.6073151"><ele>478.5</ele><time>2026-05-02T09:10:16.885Z</time></trkpt><trkpt lat="46.1324634" lon="13.6073697"><ele>487.75</ele><time>2026-05-02T09:10:17.889Z</time></trkpt><trkpt lat="46.1325247" lon="13.6073996"><ele>497.0</ele><time>2026-05-02T09:10:18.896Z</time></trkpt><trkpt lat="46.1326232" lon="13.6073633"><ele>496.99999999999994</ele><time>2026-05-02T09:10:20.884Z</time></trkpt><trkpt lat="46.1326636" lon="13.607289"><ele>497.0</ele><time>2026-05-02T09:10:21.882Z</time></trkpt><trkpt lat="46.1327004" lon="13.6072061"><ele>497.0</ele><time>2026-05-02T09:10:22.901Z</time></trkpt><trkpt lat="46.1327511" lon="13.6071231"><ele>497.0</ele><time>2026-05-02T09:10:23.881Z</time></trkpt><trkpt lat="46.1328008" lon="13.6070259"><ele>496.99999999999994</ele><time>2026-05-02T09:10:24.88Z</time></trkpt><trkpt lat="46.1328516" lon="13.6069241"><ele>497.0</ele><time>2026-05-02T09:10:25.882Z</time></trkpt><trkpt lat="46.132899" lon="13.6068324"><ele>494.8333333333333</ele><time>2026-05-02T09:10:26.887Z</time></trkpt><trkpt lat="46.1329404" lon="13.6067604"><ele>492.66666666666663</ele><time>2026-05-02T09:10:27.889Z</time></trkpt><trkpt lat="46.1330126" lon="13.6066308"><ele>490.5</ele><time>2026-05-02T09:10:29.881Z</time></trkpt><trkpt lat="46.1331136" lon="13.6066064"><ele>488.33333333333337</ele><time>2026-05-02T09:10:31.889Z</time></trkpt><trkpt lat="46.1331823" lon="13.6066344"><ele>486.1666666666667</ele><time>2026-05-02T09:10:32.888Z</time></trkpt><trkpt lat="46.1332579" lon="13.6066711"><ele>484.0</ele><time>2026-05-02T09:10:33.887Z</time></trkpt><trkpt lat="46.1333454" lon="13.6067062"><ele>484.0</ele><time>2026-05-02T09:10:34.887Z</time></trkpt><trkpt lat="46.133532" lon="13.606776"><ele>484.0</ele><time>2026-05-02T09:10:36.887Z</time></trkpt><trkpt lat="46.133622" lon="13.6067979"><ele>484.0</ele><time>2026-05-02T09:10:37.894Z</time></trkpt><trkpt lat="46.133704" lon="13.6068264"><ele>484.0</ele><time>2026-05-02T09:10:38.897Z</time></trkpt><trkpt lat="46.1337825" lon="13.6068585"><ele>484.00000000000006</ele><time>2026-05-02T09:10:39.879Z</time></trkpt><trkpt lat="46.1338624" lon="13.6068914"><ele>484.0</ele><time>2026-05-02T09:10:40.894Z</time></trkpt><trkpt lat="46.1339488" lon="13.6069163"><ele>484.0</ele><time>2026-05-02T09:10:41.89Z</time></trkpt><trkpt lat="46.1340403" lon="13.6069412"><ele>484.0</ele><time>2026-05-02T09:10:42.882Z</time></trkpt><trkpt lat="46.1341275" lon="13.6069686"><ele>484.00000000000006</ele><time>2026-05-02T09:10:43.886Z</time></trkpt><trkpt lat="46.1342107" lon="13.6069902"><ele>484.0</ele><time>2026-05-02T09:10:44.884Z</time></trkpt><trkpt lat="46.1342911" lon="13.6069969"><ele>489.50000000000006</ele><time>2026-05-02T09:10:45.884Z</time></trkpt><trkpt lat="46.1343726" lon="13.6070045"><ele>495.0</ele><time>2026-05-02T09:10:46.892Z</time></trkpt><trkpt lat="46.134449" lon="13.607016"><ele>500.5</ele><time>2026-05-02T09:10:47.894Z</time></trkpt><trkpt lat="46.1345321" lon="13.6070345"><ele>506.0</ele><time>2026-05-02T09:10:48.885Z</time></trkpt><trkpt lat="46.1346213" lon="13.6070604"><ele>511.50000000000006</ele><time>2026-05-02T09:10:49.885Z</time></trkpt><trkpt lat="46.1346981" lon="13.6071098"><ele>517.0</ele><time>2026-05-02T09:10:50.899Z</time></trkpt><trkpt lat="46.1347617" lon="13.6071615"><ele>517.0</ele><time>2026-05-02T09:10:51.884Z</time></trkpt><trkpt lat="46.1348129" lon="13.607225"><ele>517.0</ele><time>2026-05-02T09:10:52.883Z</time></trkpt><trkpt lat="46.1348868" lon="13.6073616"><ele>517.0</ele><time>2026-05-02T09:10:54.891Z</time></trkpt><trkpt lat="46.1350078" lon="13.6074603"><ele>517.0</ele><time>2026-05-02T09:10:56.897Z</time></trkpt><trkpt lat="46.1351582" lon="13.6075553"><ele>519.0</ele><time>2026-05-02T09:10:58.885Z</time></trkpt><trkpt lat="46.1352138" lon="13.6076364"><ele>521.0</ele><time>2026-05-02T09:10:59.889Z</time></trkpt><trkpt lat="46.1352667" lon="13.6077334"><ele>523.0</ele><time>2026-05-02T09:11:00.885Z</time></trkpt><trkpt lat="46.1353184" lon="13.6078279"><ele>525.0</ele><time>2026-05-02T09:11:01.885Z</time></trkpt><trkpt lat="46.1353581" lon="13.607916"><ele>527.0</ele><time>2026-05-02T09:11:02.884Z</time></trkpt><trkpt lat="46.1353983" lon="13.6080037"><ele>529.0</ele><time>2026-05-02T09:11:03.882Z</time></trkpt><trkpt lat="46.1354525" lon="13.6080801"><ele>529.0</ele><time>2026-05-02T09:11:04.881Z</time></trkpt><trkpt lat="46.135527" lon="13.6081535"><ele>529.0</ele><time>2026-05-02T09:11:05.892Z</time></trkpt><trkpt lat="46.1355928" lon="13.6082203"><ele>529.0</ele><time>2026-05-02T09:11:06.89Z</time></trkpt><trkpt lat="46.1356556" lon="13.6082672"><ele>529.0</ele><time>2026-05-02T09:11:07.884Z</time></trkpt><trkpt lat="46.1357197" lon="13.6082942"><ele>529.0</ele><time>2026-05-02T09:11:08.889Z</time></trkpt><trkpt lat="46.1358276" lon="13.6083055"><ele>529.0</ele><time>2026-05-02T09:11:10.891Z</time></trkpt><trkpt lat="46.1358931" lon="13.6084048"><ele>521.4</ele><time>2026-05-02T09:11:12.887Z</time></trkpt><trkpt lat="46.1359222" lon="13.6085609"><ele>513.8</ele><time>2026-05-02T09:11:14.897Z</time></trkpt><trkpt lat="46.1359213" lon="13.60867"><ele>506.20000000000005</ele><time>2026-05-02T09:11:15.884Z</time></trkpt><trkpt lat="46.1359015" lon="13.6088041"><ele>498.6</ele><time>2026-05-02T09:11:16.88Z</time></trkpt><trkpt lat="46.1358669" lon="13.6089292"><ele>491.0</ele><time>2026-05-02T09:11:17.884Z</time></trkpt><trkpt lat="46.1357536" lon="13.6091736"><ele>499.0</ele><time>2026-05-02T09:11:19.883Z</time></trkpt><trkpt lat="46.1356924" lon="13.6093183"><ele>507.0</ele><time>2026-05-02T09:11:20.9Z</time></trkpt><trkpt lat="46.1356423" lon="13.6094622"><ele>515.0</ele><time>2026-05-02T09:11:21.883Z</time></trkpt><trkpt lat="46.1356021" lon="13.6096023"><ele>523.0</ele><time>2026-05-02T09:11:22.884Z</time></trkpt><trkpt lat="46.1355648" lon="13.6097347"><ele>531.0</ele><time>2026-05-02T09:11:23.883Z</time></trkpt><trkpt lat="46.1355332" lon="13.6098694"><ele>531.0</ele><time>2026-05-02T09:11:24.894Z</time></trkpt><trkpt lat="46.1355094" lon="13.6100004"><ele>531.0</ele><time>2026-05-02T09:11:25.884Z</time></trkpt><trkpt lat="46.135482" lon="13.6101026"><ele>531.0</ele><time>2026-05-02T09:11:26.891Z</time></trkpt><trkpt lat="46.1354592" lon="13.6101952"><ele>531.0</ele><time>2026-05-02T09:11:27.887Z</time></trkpt><trkpt lat="46.1354591" lon="13.6103481"><ele>531.0</ele><time>2026-05-02T09:11:29.886Z</time></trkpt><trkpt lat="46.135517" lon="13.6104057"><ele>531.0</ele><time>2026-05-02T09:11:31.88Z</time></trkpt><trkpt lat="46.1356348" lon="13.610418"><ele>532.0</ele><time>2026-05-02T09:11:33.887Z</time></trkpt><trkpt lat="46.135716" lon="13.6104353"><ele>533.0</ele><time>2026-05-02T09:11:34.883Z</time></trkpt><trkpt lat="46.1357938" lon="13.6104482"><ele>534.0</ele><time>2026-05-02T09:11:35.881Z</time></trkpt><trkpt lat="46.1358578" lon="13.6104948"><ele>535.0</ele><time>2026-05-02T09:11:36.884Z</time></trkpt><trkpt lat="46.1359595" lon="13.6105937"><ele>536.0</ele><time>2026-05-02T09:11:38.88Z</time></trkpt><trkpt lat="46.1360453" lon="13.6107412"><ele>532.6666666666666</ele><time>2026-05-02T09:11:40.879Z</time></trkpt><trkpt lat="46.1360636" lon="13.6108383"><ele>529.3333333333333</ele><time>2026-05-02T09:11:41.886Z</time></trkpt><trkpt lat="46.1360632" lon="13.6109522"><ele>526.0</ele><time>2026-05-02T09:11:42.897Z</time></trkpt><trkpt lat="46.1360485" lon="13.611075"><ele>522.6666666666666</ele><time>2026-05-02T09:11:43.889Z</time></trkpt><trkpt lat="46.1360308" lon="13.611181"><ele>519.3333333333334</ele><time>2026-05-02T09:11:44.882Z</time></trkpt><trkpt lat="46.1360261" lon="13.6112789"><ele>516.0</ele><time>2026-05-02T09:11:45.881Z</time></trkpt><trkpt lat="46.1360801" lon="13.6114405"><ele>516.0</ele><time>2026-05-02T09:11:47.896Z</time></trkpt><trkpt lat="46.1361449" lon="13.6115077"><ele>516.0</ele><time>2026-05-02T09:11:48.878Z</time></trkpt><trkpt lat="46.1361865" lon="13.6115844"><ele>516.0</ele><time>2026-05-02T09:11:49.881Z</time></trkpt><trkpt lat="46.1362063" lon="13.6116745"><ele>516.0</ele><time>2026-05-02T09:11:50.882Z</time></trkpt><trkpt lat="46.1361467" lon="13.611837"><ele>516.0</ele><time>2026-05-02T09:11:52.886Z</time></trkpt><trkpt lat="46.1360859" lon="13.6119117"><ele>516.0</ele><time>2026-05-02T09:11:53.884Z</time></trkpt><trkpt lat="46.1360048" lon="13.6119979"><ele>516.8333333333334</ele><time>2026-05-02T09:11:54.884Z</time></trkpt><trkpt lat="46.1359182" lon="13.6120849"><ele>517.6666666666666</ele><time>2026-05-02T09:11:55.888Z</time></trkpt><trkpt lat="46.1358379" lon="13.6121713"><ele>518.5</ele><time>2026-05-02T09:11:56.884Z</time></trkpt><trkpt lat="46.1357807" lon="13.6122721"><ele>519.3333333333333</ele><time>2026-05-02T09:11:57.884Z</time></trkpt><trkpt lat="46.1357367" lon="13.6123714"><ele>520.1666666666666</ele><time>2026-05-02T09:11:58.89Z</time></trkpt><trkpt lat="46.1357206" lon="13.6124685"><ele>521.0</ele><time>2026-05-02T09:12:00.88Z</time></trkpt><trkpt lat="46.1358644" lon="13.6124542"><ele>521.0</ele><time>2026-05-02T09:12:03.882Z</time></trkpt><trkpt lat="46.135943" lon="13.612463"><ele>521.0</ele><time>2026-05-02T09:12:04.894Z</time></trkpt><trkpt lat="46.1360365" lon="13.612472"><ele>521.0</ele><time>2026-05-02T09:12:05.884Z</time></trkpt><trkpt lat="46.1361332" lon="13.6124873"><ele>521.0</ele><time>2026-05-02T09:12:06.882Z</time></trkpt><trkpt lat="46.13622" lon="13.6125257"><ele>521.0</ele><time>2026-05-02T09:12:07.884Z</time></trkpt><trkpt lat="46.1362956" lon="13.6125754"><ele>521.0</ele><time>2026-05-02T09:12:08.88Z</time></trkpt><trkpt lat="46.1363526" lon="13.6126311"><ele>521.0</ele><time>2026-05-02T09:12:09.887Z</time></trkpt><trkpt lat="46.1364029" lon="13.6126987"><ele>521.0</ele><time>2026-05-02T09:12:10.885Z</time></trkpt><trkpt lat="46.1364312" lon="13.6127934"><ele>521.0</ele><time>2026-05-02T09:12:11.885Z</time></trkpt><trkpt lat="46.136453" lon="13.6129145"><ele>521.0</ele><time>2026-05-02T09:12:12.884Z</time></trkpt><trkpt lat="46.13647" lon="13.613042"><ele>521.0</ele><time>2026-05-02T09:12:13.883Z</time></trkpt><trkpt lat="46.1364811" lon="13.6131737"><ele>521.0</ele><time>2026-05-02T09:12:14.887Z</time></trkpt><trkpt lat="46.1364901" lon="13.613306"><ele>520.25</ele><time>2026-05-02T09:12:15.89Z</time></trkpt><trkpt lat="46.1365023" lon="13.6134197"><ele>519.5</ele><time>2026-05-02T09:12:16.886Z</time></trkpt><trkpt lat="46.1365312" lon="13.6135424"><ele>518.75</ele><time>2026-05-02T09:12:18.879Z</time></trkpt><trkpt lat="46.1366239" lon="13.6135074"><ele>518.0</ele><time>2026-05-02T09:12:21.884Z</time></trkpt><trkpt lat="46.1367502" lon="13.6132426"><ele>518.0</ele><time>2026-05-02T09:12:25.892Z</time></trkpt><trkpt lat="46.1368043" lon="13.6130884"><ele>518.0</ele><time>2026-05-02T09:12:27.884Z</time></trkpt><trkpt lat="46.1368406" lon="13.6129327"><ele>518.0</ele><time>2026-05-02T09:12:29.879Z</time></trkpt><trkpt lat="46.1368755" lon="13.6127771"><ele>518.0</ele><time>2026-05-02T09:12:31.885Z</time></trkpt><trkpt lat="46.1368868" lon="13.6126697"><ele>518.0</ele><time>2026-05-02T09:12:33.882Z</time></trkpt><trkpt lat="46.1368847" lon="13.612564"><ele>515.0</ele><time>2026-05-02T09:12:50.889Z</time></trkpt><trkpt lat="46.1369635" lon="13.6123343"><ele>511.99999999999994</ele><time>2026-05-02T09:12:53.881Z</time></trkpt><trkpt lat="46.1370231" lon="13.6122344"><ele>508.99999999999994</ele><time>2026-05-02T09:12:54.883Z</time></trkpt><trkpt lat="46.1370823" lon="13.6121493"><ele>506.0</ele><time>2026-05-02T09:12:55.887Z</time></trkpt><trkpt lat="46.1371543" lon="13.6120869"><ele>503.0</ele><time>2026-05-02T09:12:56.88Z</time></trkpt><trkpt lat="46.1372298" lon="13.6120439"><ele>502.99999999999994</ele><time>2026-05-02T09:12:57.887Z</time></trkpt><trkpt lat="46.1372984" lon="13.6120355"><ele>503.0</ele><time>2026-05-02T09:12:58.881Z</time></trkpt><trkpt lat="46.1373817" lon="13.6120019"><ele>503.0</ele><time>2026-05-02T09:13:00.882Z</time></trkpt><trkpt lat="46.1374205" lon="13.6119286"><ele>503.0</ele><time>2026-05-02T09:13:02.906Z</time></trkpt><trkpt lat="46.1374172" lon="13.6117687"><ele>502.99999999999994</ele><time>2026-05-02T09:13:04.882Z</time></trkpt><trkpt lat="46.1374003" lon="13.6116619"><ele>503.0</ele><time>2026-05-02T09:13:05.882Z</time></trkpt><trkpt lat="46.1373683" lon="13.6115459"><ele>500.8333333333333</ele><time>2026-05-02T09:13:06.886Z</time></trkpt><trkpt lat="46.1373344" lon="13.6114227"><ele>498.66666666666663</ele><time>2026-05-02T09:13:07.881Z</time></trkpt><trkpt lat="46.1373151" lon="13.6113209"><ele>496.5</ele><time>2026-05-02T09:13:08.883Z</time></trkpt><trkpt lat="46.1372913" lon="13.6112056"><ele>494.33333333333337</ele><time>2026-05-02T09:13:09.888Z</time></trkpt><trkpt lat="46.1372695" lon="13.6110796"><ele>492.1666666666667</ele><time>2026-05-02T09:13:10.889Z</time></trkpt><trkpt lat="46.1372567" lon="13.6109395"><ele>490.0</ele><time>2026-05-02T09:13:11.888Z</time></trkpt><trkpt lat="46.1372486" lon="13.6106273"><ele>487.33333333333337</ele><time>2026-05-02T09:13:13.883Z</time></trkpt><trkpt lat="46.1372511" lon="13.6104887"><ele>484.6666666666667</ele><time>2026-05-02T09:13:14.883Z</time></trkpt><trkpt lat="46.1372648" lon="13.6103835"><ele>482.0</ele><time>2026-05-02T09:13:15.882Z</time></trkpt><trkpt lat="46.1372661" lon="13.6102652"><ele>479.33333333333337</ele><time>2026-05-02T09:13:16.883Z</time></trkpt><trkpt lat="46.1372802" lon="13.6101601"><ele>476.6666666666667</ele><time>2026-05-02T09:13:17.887Z</time></trkpt><trkpt lat="46.1372858" lon="13.6100453"><ele>474.0</ele><time>2026-05-02T09:13:18.883Z</time></trkpt><trkpt lat="46.1373142" lon="13.6099333"><ele>476.0</ele><time>2026-05-02T09:13:19.883Z</time></trkpt><trkpt lat="46.1373611" lon="13.6098258"><ele>478.0</ele><time>2026-05-02T09:13:20.881Z</time></trkpt><trkpt lat="46.1374166" lon="13.60971"><ele>480.0</ele><time>2026-05-02T09:13:21.879Z</time></trkpt><trkpt lat="46.1374739" lon="13.6096013"><ele>482.0</ele><time>2026-05-02T09:13:22.886Z</time></trkpt><trkpt lat="46.1375395" lon="13.6095057"><ele>484.0</ele><time>2026-05-02T09:13:23.887Z</time></trkpt><trkpt lat="46.1376059" lon="13.6094194"><ele>480.0</ele><time>2026-05-02T09:13:24.879Z</time></trkpt><trkpt lat="46.1376676" lon="13.6093243"><ele>476.0</ele><time>2026-05-02T09:13:25.885Z</time></trkpt><trkpt lat="46.1377313" lon="13.6092335"><ele>472.0</ele><time>2026-05-02T09:13:26.882Z</time></trkpt><trkpt lat="46.1377919" lon="13.6091436"><ele>468.0</ele><time>2026-05-02T09:13:27.881Z</time></trkpt><trkpt lat="46.1378542" lon="13.6090366"><ele>464.0</ele><time>2026-05-02T09:13:28.885Z</time></trkpt><trkpt lat="46.1379179" lon="13.6089193"><ele>464.0</ele><time>2026-05-02T09:13:29.883Z</time></trkpt><trkpt lat="46.1379744" lon="13.6088222"><ele>464.0</ele><time>2026-05-02T09:13:30.885Z</time></trkpt><trkpt lat="46.1380248" lon="13.6087556"><ele>464.0</ele><time>2026-05-02T09:13:31.889Z</time></trkpt><trkpt lat="46.1381284" lon="13.608706"><ele>464.0</ele><time>2026-05-02T09:13:33.887Z</time></trkpt><trkpt lat="46.1382921" lon="13.6088275"><ele>464.0</ele><time>2026-05-02T09:13:36.893Z</time></trkpt><trkpt lat="46.1383546" lon="13.6088985"><ele>470.4</ele><time>2026-05-02T09:13:37.883Z</time></trkpt><trkpt lat="46.138422" lon="13.6089746"><ele>476.79999999999995</ele><time>2026-05-02T09:13:38.879Z</time></trkpt><trkpt lat="46.1384923" lon="13.6090576"><ele>483.20000000000005</ele><time>2026-05-02T09:13:39.889Z</time></trkpt><trkpt lat="46.1385731" lon="13.6091511"><ele>489.6</ele><time>2026-05-02T09:13:40.881Z</time></trkpt><trkpt lat="46.1386666" lon="13.609247"><ele>496.0</ele><time>2026-05-02T09:13:41.88Z</time></trkpt><trkpt lat="46.138767" lon="13.6093447"><ele>496.0</ele><time>2026-05-02T09:13:42.892Z</time></trkpt><trkpt lat="46.1388591" lon="13.6094487"><ele>496.0</ele><time>2026-05-02T09:13:43.882Z</time></trkpt><trkpt lat="46.1389455" lon="13.6095298"><ele>496.0</ele><time>2026-05-02T09:13:44.883Z</time></trkpt><trkpt lat="46.1390241" lon="13.6096212"><ele>496.0</ele><time>2026-05-02T09:13:45.882Z</time></trkpt><trkpt lat="46.1390979" lon="13.6097075"><ele>496.0</ele><time>2026-05-02T09:13:46.891Z</time></trkpt><trkpt lat="46.1391629" lon="13.6097803"><ele>496.83333333333337</ele><time>2026-05-02T09:13:47.891Z</time></trkpt><trkpt lat="46.1392133" lon="13.6098618"><ele>497.6666666666667</ele><time>2026-05-02T09:13:48.888Z</time></trkpt><trkpt lat="46.1392427" lon="13.6099516"><ele>498.5</ele><time>2026-05-02T09:13:49.881Z</time></trkpt><trkpt lat="46.1392397" lon="13.6101281"><ele>499.33333333333337</ele><time>2026-05-02T09:13:51.877Z</time></trkpt><trkpt lat="46.1392133" lon="13.6102212"><ele>500.1666666666667</ele><time>2026-05-02T09:13:52.883Z</time></trkpt><trkpt lat="46.1391837" lon="13.6103427"><ele>501.0</ele><time>2026-05-02T09:13:53.884Z</time></trkpt><trkpt lat="46.1391667" lon="13.6104649"><ele>502.75</ele><time>2026-05-02T09:13:54.876Z</time></trkpt><trkpt lat="46.1391539" lon="13.6107439"><ele>504.5</ele><time>2026-05-02T09:13:56.886Z</time></trkpt><trkpt lat="46.1391348" lon="13.6108929"><ele>506.25</ele><time>2026-05-02T09:13:57.882Z</time></trkpt><trkpt lat="46.1391028" lon="13.6110251"><ele>508.0</ele><time>2026-05-02T09:13:58.883Z</time></trkpt><trkpt lat="46.139073" lon="13.6111489"><ele>512.0</ele><time>2026-05-02T09:13:59.881Z</time></trkpt><trkpt lat="46.139057" lon="13.6112571"><ele>516.0</ele><time>2026-05-02T09:14:00.891Z</time></trkpt><trkpt lat="46.1390966" lon="13.6114033"><ele>520.0</ele><time>2026-05-02T09:14:02.884Z</time></trkpt><trkpt lat="46.1392202" lon="13.6114656"><ele>524.0</ele><time>2026-05-02T09:14:04.879Z</time></trkpt><trkpt lat="46.1392978" lon="13.6114818"><ele>528.0</ele><time>2026-05-02T09:14:05.89Z</time></trkpt><trkpt lat="46.1393853" lon="13.6115059"><ele>528.0</ele><time>2026-05-02T09:14:06.9Z</time></trkpt><trkpt lat="46.139469" lon="13.6115275"><ele>528.0</ele><time>2026-05-02T09:14:07.885Z</time></trkpt><trkpt lat="46.1395469" lon="13.6115429"><ele>528.0</ele><time>2026-05-02T09:14:08.891Z</time></trkpt><trkpt lat="46.1396193" lon="13.6115469"><ele>528.0</ele><time>2026-05-02T09:14:09.881Z</time></trkpt><trkpt lat="46.139693" lon="13.6115389"><ele>528.0</ele><time>2026-05-02T09:14:10.882Z</time></trkpt><trkpt lat="46.1397713" lon="13.6115301"><ele>528.0</ele><time>2026-05-02T09:14:11.892Z</time></trkpt><trkpt lat="46.1398495" lon="13.6115197"><ele>529.25</ele><time>2026-05-02T09:14:12.895Z</time></trkpt><trkpt lat="46.1399171" lon="13.6115248"><ele>530.5</ele><time>2026-05-02T09:14:13.885Z</time></trkpt><trkpt lat="46.1400192" lon="13.6116452"><ele>531.75</ele><time>2026-05-02T09:14:15.883Z</time></trkpt><trkpt lat="46.140018" lon="13.6119115"><ele>533.0</ele><time>2026-05-02T09:14:17.882Z</time></trkpt><trkpt lat="46.1400184" lon="13.612043"><ele>533.0</ele><time>2026-05-02T09:14:18.883Z</time></trkpt><trkpt lat="46.1400638" lon="13.6121314"><ele>533.0</ele><time>2026-05-02T09:14:19.881Z</time></trkpt><trkpt lat="46.1401211" lon="13.6121927"><ele>533.0</ele><time>2026-05-02T09:14:20.882Z</time></trkpt><trkpt lat="46.1401702" lon="13.6122844"><ele>533.0</ele><time>2026-05-02T09:14:21.882Z</time></trkpt><trkpt lat="46.1402129" lon="13.6123924"><ele>533.0</ele><time>2026-05-02T09:14:22.891Z</time></trkpt><trkpt lat="46.1402592" lon="13.6125147"><ele>533.0</ele><time>2026-05-02T09:14:23.875Z</time></trkpt><trkpt lat="46.1402955" lon="13.6126361"><ele>533.0</ele><time>2026-05-02T09:14:24.887Z</time></trkpt><trkpt lat="46.140296" lon="13.6127553"><ele>533.0</ele><time>2026-05-02T09:14:25.891Z</time></trkpt><trkpt lat="46.1403191" lon="13.6129142"><ele>533.0</ele><time>2026-05-02T09:14:27.884Z</time></trkpt><trkpt lat="46.1403984" lon="13.6130334"><ele>533.0</ele><time>2026-05-02T09:14:29.881Z</time></trkpt><trkpt lat="46.1404444" lon="13.6131064"><ele>533.0</ele><time>2026-05-02T09:14:30.889Z</time></trkpt><trkpt lat="46.1404898" lon="13.6131902"><ele>535.5</ele><time>2026-05-02T09:14:31.881Z</time></trkpt><trkpt lat="46.1405313" lon="13.613292"><ele>538.0</ele><time>2026-05-02T09:14:32.888Z</time></trkpt><trkpt lat="46.1405655" lon="13.6133907"><ele>540.5</ele><time>2026-05-02T09:14:33.893Z</time></trkpt><trkpt lat="46.1405927" lon="13.6134934"><ele>543.0</ele><time>2026-05-02T09:14:34.886Z</time></trkpt><trkpt lat="46.1406156" lon="13.613612"><ele>545.5</ele><time>2026-05-02T09:14:35.883Z</time></trkpt><trkpt lat="46.1406366" lon="13.6137335"><ele>548.0</ele><time>2026-05-02T09:14:36.884Z</time></trkpt><trkpt lat="46.1406425" lon="13.6139523"><ele>550.1666666666666</ele><time>2026-05-02T09:14:39.887Z</time></trkpt><trkpt lat="46.1405764" lon="13.613945"><ele>552.3333333333333</ele><time>2026-05-02T09:14:41.885Z</time></trkpt><trkpt lat="46.1404918" lon="13.6138016"><ele>554.5</ele><time>2026-05-02T09:14:43.883Z</time></trkpt><trkpt lat="46.1404444" lon="13.6137231"><ele>556.6666666666666</ele><time>2026-05-02T09:14:44.884Z</time></trkpt><trkpt lat="46.1403846" lon="13.6136887"><ele>558.8333333333334</ele><time>2026-05-02T09:14:45.881Z</time></trkpt><trkpt lat="46.1402938" lon="13.6137635"><ele>561.0</ele><time>2026-05-02T09:14:47.89Z</time></trkpt><trkpt lat="46.1403001" lon="13.6138958"><ele>561.0</ele><time>2026-05-02T09:14:49.882Z</time></trkpt><trkpt lat="46.1403505" lon="13.6140024"><ele>561.0</ele><time>2026-05-02T09:14:50.88Z</time></trkpt><trkpt lat="46.1404102" lon="13.6141275"><ele>561.0</ele><time>2026-05-02T09:14:51.882Z</time></trkpt><trkpt lat="46.1404546" lon="13.6142482"><ele>561.0</ele><time>2026-05-02T09:14:52.891Z</time></trkpt><trkpt lat="46.1404865" lon="13.6143532"><ele>561.0</ele><time>2026-05-02T09:14:53.887Z</time></trkpt><trkpt lat="46.1405136" lon="13.6144971"><ele>563.6</ele><time>2026-05-02T09:14:54.883Z</time></trkpt><trkpt lat="46.1405296" lon="13.6146219"><ele>566.2</ele><time>2026-05-02T09:14:55.884Z</time></trkpt><trkpt lat="46.1405304" lon="13.6147283"><ele>568.8</ele><time>2026-05-02T09:14:56.884Z</time></trkpt><trkpt lat="46.1404899" lon="13.6148672"><ele>571.4</ele><time>2026-05-02T09:14:58.884Z</time></trkpt><trkpt lat="46.1403395" lon="13.614786"><ele>574.0</ele><time>2026-05-02T09:15:01.894Z</time></trkpt><trkpt lat="46.1402702" lon="13.614708"><ele>574.0</ele><time>2026-05-02T09:15:02.883Z</time></trkpt><trkpt lat="46.140202" lon="13.6146204"><ele>574.0</ele><time>2026-05-02T09:15:03.884Z</time></trkpt><trkpt lat="46.1401372" lon="13.614522"><ele>574.0</ele><time>2026-05-02T09:15:04.886Z</time></trkpt><trkpt lat="46.140069" lon="13.6144073"><ele>574.0</ele><time>2026-05-02T09:15:05.885Z</time></trkpt><trkpt lat="46.1399863" lon="13.6142989"><ele>574.0</ele><time>2026-05-02T09:15:06.88Z</time></trkpt><trkpt lat="46.1398991" lon="13.6141953"><ele>575.6666666666667</ele><time>2026-05-02T09:15:07.879Z</time></trkpt><trkpt lat="46.1398195" lon="13.6140942"><ele>577.3333333333334</ele><time>2026-05-02T09:15:08.88Z</time></trkpt><trkpt lat="46.1397498" lon="13.6139931"><ele>579.0</ele><time>2026-05-02T09:15:09.888Z</time></trkpt><trkpt lat="46.1396862" lon="13.6139066"><ele>580.6666666666666</ele><time>2026-05-02T09:15:10.888Z</time></trkpt><trkpt lat="46.1396255" lon="13.6138251"><ele>582.3333333333333</ele><time>2026-05-02T09:15:11.891Z</time></trkpt><trkpt lat="46.1395661" lon="13.6137676"><ele>584.0</ele><time>2026-05-02T09:15:12.886Z</time></trkpt><trkpt lat="46.1395057" lon="13.6137348"><ele>584.0</ele><time>2026-05-02T09:15:13.884Z</time></trkpt><trkpt lat="46.1394431" lon="13.6137058"><ele>584.0</ele><time>2026-05-02T09:15:14.886Z</time></trkpt><trkpt lat="46.1393748" lon="13.6136646"><ele>584.0</ele><time>2026-05-02T09:15:15.887Z</time></trkpt><trkpt lat="46.1393139" lon="13.6136023"><ele>584.0</ele><time>2026-05-02T09:15:16.885Z</time></trkpt><trkpt lat="46.1392252" lon="13.6134851"><ele>584.0</ele><time>2026-05-02T09:15:18.892Z</time></trkpt><trkpt lat="46.1391566" lon="13.6134045"><ele>584.0</ele><time>2026-05-02T09:15:20.882Z</time></trkpt><trkpt lat="46.1389855" lon="13.6135206"><ele>581.6</ele><time>2026-05-02T09:15:24.881Z</time></trkpt><trkpt lat="46.1389225" lon="13.6135938"><ele>579.2</ele><time>2026-05-02T09:15:26.887Z</time></trkpt><trkpt lat="46.1388827" lon="13.6136847"><ele>576.8000000000001</ele><time>2026-05-02T09:17:23.889Z</time></trkpt><trkpt lat="46.1387801" lon="13.6138778"><ele>574.4</ele><time>2026-05-02T09:17:27.889Z</time></trkpt><trkpt lat="46.1387463" lon="13.6139641"><ele>572.0</ele><time>2026-05-02T09:17:28.889Z</time></trkpt><trkpt lat="46.1387008" lon="13.6140789"><ele>572.0</ele><time>2026-05-02T09:17:29.88Z</time></trkpt><trkpt lat="46.1386401" lon="13.6141777"><ele>572.0</ele><time>2026-05-02T09:17:30.887Z</time></trkpt><trkpt lat="46.1385622" lon="13.6142616"><ele>572.0</ele><time>2026-05-02T09:17:31.892Z</time></trkpt><trkpt lat="46.1384805" lon="13.6143339"><ele>572.0</ele><time>2026-05-02T09:17:32.884Z</time></trkpt><trkpt lat="46.1384104" lon="13.6143944"><ele>572.0</ele><time>2026-05-02T09:17:33.874Z</time></trkpt><trkpt lat="46.1383376" lon="13.6144494"><ele>572.0</ele><time>2026-05-02T09:17:34.88Z</time></trkpt><trkpt lat="46.1382625" lon="13.6144834"><ele>571.8333333333333</ele><time>2026-05-02T09:17:35.877Z</time></trkpt><trkpt lat="46.1381732" lon="13.6145008"><ele>571.6666666666666</ele><time>2026-05-02T09:17:36.884Z</time></trkpt><trkpt lat="46.1380894" lon="13.61452"><ele>571.5</ele><time>2026-05-02T09:17:37.879Z</time></trkpt><trkpt lat="46.1380087" lon="13.6145258"><ele>571.3333333333334</ele><time>2026-05-02T09:17:38.876Z</time></trkpt><trkpt lat="46.1379264" lon="13.614536"><ele>571.1666666666667</ele><time>2026-05-02T09:17:39.883Z</time></trkpt><trkpt lat="46.1378479" lon="13.6145493"><ele>571.0</ele><time>2026-05-02T09:17:40.904Z</time></trkpt><trkpt lat="46.1377733" lon="13.6145807"><ele>571.0</ele><time>2026-05-02T09:17:41.879Z</time></trkpt><trkpt lat="46.1377067" lon="13.61462"><ele>571.0</ele><time>2026-05-02T09:17:42.886Z</time></trkpt><trkpt lat="46.1376505" lon="13.6147047"><ele>571.0</ele><time>2026-05-02T09:17:43.887Z</time></trkpt><trkpt lat="46.1376039" lon="13.6148184"><ele>571.0</ele><time>2026-05-02T09:17:44.887Z</time></trkpt><trkpt lat="46.1375319" lon="13.6151163"><ele>571.0</ele><time>2026-05-02T09:17:46.877Z</time></trkpt><trkpt lat="46.1375071" lon="13.6152809"><ele>571.0</ele><time>2026-05-02T09:17:47.876Z</time></trkpt><trkpt lat="46.1374893" lon="13.6154387"><ele>571.0</ele><time>2026-05-02T09:17:48.881Z</time></trkpt><trkpt lat="46.1374754" lon="13.6155906"><ele>571.0</ele><time>2026-05-02T09:17:49.883Z</time></trkpt><trkpt lat="46.1374627" lon="13.6157318"><ele>571.0</ele><time>2026-05-02T09:17:50.88Z</time></trkpt><trkpt lat="46.1374318" lon="13.6158672"><ele>574.8</ele><time>2026-05-02T09:17:51.885Z</time></trkpt><trkpt lat="46.1373874" lon="13.6159741"><ele>578.6</ele><time>2026-05-02T09:17:52.874Z</time></trkpt><trkpt lat="46.1373239" lon="13.6160648"><ele>582.4</ele><time>2026-05-02T09:17:53.879Z</time></trkpt><trkpt lat="46.1372367" lon="13.6161323"><ele>586.2</ele><time>2026-05-02T09:17:54.881Z</time></trkpt><trkpt lat="46.1371177" lon="13.6161811"><ele>590.0</ele><time>2026-05-02T09:17:55.879Z</time></trkpt><trkpt lat="46.1370058" lon="13.6162319"><ele>598.0</ele><time>2026-05-02T09:17:56.892Z</time></trkpt><trkpt lat="46.1368875" lon="13.6162702"><ele>606.0</ele><time>2026-05-02T09:17:57.886Z</time></trkpt><trkpt lat="46.1367603" lon="13.6162974"><ele>614.0</ele><time>2026-05-02T09:17:58.885Z</time></trkpt><trkpt lat="46.1366264" lon="13.6162916"><ele>622.0</ele><time>2026-05-02T09:17:59.88Z</time></trkpt><trkpt lat="46.1364888" lon="13.616263"><ele>623.0</ele><time>2026-05-02T09:18:00.887Z</time></trkpt><trkpt lat="46.1363663" lon="13.616223"><ele>624.0</ele><time>2026-05-02T09:18:01.879Z</time></trkpt><trkpt lat="46.1362621" lon="13.6161687"><ele>625.0</ele><time>2026-05-02T09:18:02.885Z</time></trkpt><trkpt lat="46.1361674" lon="13.6161207"><ele>626.0</ele><time>2026-05-02T09:18:03.878Z</time></trkpt><trkpt lat="46.136081" lon="13.6160652"><ele>627.0</ele><time>2026-05-02T09:18:04.889Z</time></trkpt><trkpt lat="46.1360097" lon="13.6160227"><ele>627.0</ele><time>2026-05-02T09:18:05.88Z</time></trkpt><trkpt lat="46.1359473" lon="13.6159947"><ele>627.0</ele><time>2026-05-02T09:18:06.881Z</time></trkpt><trkpt lat="46.1359377" lon="13.6160443"><ele>627.0</ele><time>2026-05-02T09:18:11.889Z</time></trkpt><trkpt lat="46.1360181" lon="13.6160751"><ele>627.0</ele><time>2026-05-02T09:18:12.888Z</time></trkpt><trkpt lat="46.1361177" lon="13.6160968"><ele>627.0</ele><time>2026-05-02T09:18:13.889Z</time></trkpt><trkpt lat="46.136227" lon="13.6161337"><ele>627.0</ele><time>2026-05-02T09:18:14.892Z</time></trkpt><trkpt lat="46.1363386" lon="13.6161819"><ele>627.0</ele><time>2026-05-02T09:18:15.883Z</time></trkpt><trkpt lat="46.1364649" lon="13.6162246"><ele>627.0</ele><time>2026-05-02T09:18:16.885Z</time></trkpt><trkpt lat="46.1366006" lon="13.616271"><ele>627.0</ele><time>2026-05-02T09:18:17.885Z</time></trkpt><trkpt lat="46.1367423" lon="13.6162946"><ele>627.0</ele><time>2026-05-02T09:18:18.881Z</time></trkpt><trkpt lat="46.1368897" lon="13.6163176"><ele>627.25</ele><time>2026-05-02T09:18:19.877Z</time></trkpt><trkpt lat="46.137037" lon="13.6163312"><ele>627.5</ele><time>2026-05-02T09:18:20.894Z</time></trkpt><trkpt lat="46.13718" lon="13.6163142"><ele>627.75</ele><time>2026-05-02T09:18:21.885Z</time></trkpt><trkpt lat="46.1373117" lon="13.6162944"><ele>628.0</ele><time>2026-05-02T09:18:22.894Z</time></trkpt><trkpt lat="46.1374248" lon="13.6162516"><ele>628.0</ele><time>2026-05-02T09:18:23.883Z</time></trkpt><trkpt lat="46.1375305" lon="13.6162046"><ele>628.0</ele><time>2026-05-02T09:18:24.885Z</time></trkpt><trkpt lat="46.1376321" lon="13.6161373"><ele>628.0</ele><time>2026-05-02T09:18:25.885Z</time></trkpt><trkpt lat="46.1377329" lon="13.6160331"><ele>628.0</ele><time>2026-05-02T09:18:26.877Z</time></trkpt><trkpt lat="46.1378233" lon="13.6158979"><ele>617.0</ele><time>2026-05-02T09:18:27.881Z</time></trkpt><trkpt lat="46.1379557" lon="13.6155912"><ele>606.0</ele><time>2026-05-02T09:18:29.891Z</time></trkpt><trkpt lat="46.1380136" lon="13.6154511"><ele>595.0</ele><time>2026-05-02T09:18:30.882Z</time></trkpt><trkpt lat="46.1380525" lon="13.6153048"><ele>596.2</ele><time>2026-05-02T09:18:31.881Z</time></trkpt><trkpt lat="46.138091" lon="13.6151611"><ele>597.4</ele><time>2026-05-02T09:18:32.879Z</time></trkpt><trkpt lat="46.1381585" lon="13.6150479"><ele>598.6</ele><time>2026-05-02T09:18:33.887Z</time></trkpt><trkpt lat="46.1382499" lon="13.6149835"><ele>599.8</ele><time>2026-05-02T09:18:34.883Z</time></trkpt><trkpt lat="46.1383499" lon="13.6149552"><ele>601.0</ele><time>2026-05-02T09:18:35.886Z</time></trkpt><trkpt lat="46.1384547" lon="13.6149507"><ele>601.0</ele><time>2026-05-02T09:18:36.88Z</time></trkpt><trkpt lat="46.1385605" lon="13.6149646"><ele>601.0</ele><time>2026-05-02T09:18:37.876Z</time></trkpt><trkpt lat="46.1386661" lon="13.6149829"><ele>601.0</ele><time>2026-05-02T09:18:38.89Z</time></trkpt><trkpt lat="46.138769" lon="13.6149985"><ele>601.0</ele><time>2026-05-02T09:18:39.882Z</time></trkpt><trkpt lat="46.1388569" lon="13.615011"><ele>601.0</ele><time>2026-05-02T09:18:40.891Z</time></trkpt><trkpt lat="46.1389432" lon="13.6150119"><ele>601.0</ele><time>2026-05-02T09:18:41.88Z</time></trkpt><trkpt lat="46.1390254" lon="13.6150016"><ele>601.0</ele><time>2026-05-02T09:18:42.882Z</time></trkpt><trkpt lat="46.1391098" lon="13.6149793"><ele>601.0</ele><time>2026-05-02T09:18:43.879Z</time></trkpt><trkpt lat="46.1391877" lon="13.6149646"><ele>601.0</ele><time>2026-05-02T09:18:44.883Z</time></trkpt><trkpt lat="46.1392637" lon="13.6149768"><ele>601.0</ele><time>2026-05-02T09:18:45.884Z</time></trkpt><trkpt lat="46.1393272" lon="13.6150118"><ele>601.0</ele><time>2026-05-02T09:18:46.883Z</time></trkpt><trkpt lat="46.1393713" lon="13.6150809"><ele>601.0</ele><time>2026-05-02T09:18:47.891Z</time></trkpt><trkpt lat="46.1393918" lon="13.6151902"><ele>601.0</ele><time>2026-05-02T09:18:48.879Z</time></trkpt><trkpt lat="46.1393992" lon="13.6154556"><ele>601.0</ele><time>2026-05-02T09:18:50.879Z</time></trkpt><trkpt lat="46.1393944" lon="13.6156131"><ele>601.0</ele><time>2026-05-02T09:18:51.888Z</time></trkpt><trkpt lat="46.139377" lon="13.6157997"><ele>603.0</ele><time>2026-05-02T09:18:52.875Z</time></trkpt><trkpt lat="46.1393648" lon="13.6159929"><ele>605.0</ele><time>2026-05-02T09:18:53.883Z</time></trkpt><trkpt lat="46.139363" lon="13.6162035"><ele>607.0</ele><time>2026-05-02T09:18:54.881Z</time></trkpt><trkpt lat="46.1393778" lon="13.6163962"><ele>609.0</ele><time>2026-05-02T09:18:55.883Z</time></trkpt><trkpt lat="46.1394136" lon="13.6165625"><ele>610.8</ele><time>2026-05-02T09:18:56.884Z</time></trkpt><trkpt lat="46.1394607" lon="13.6166927"><ele>612.5999999999999</ele><time>2026-05-02T09:18:57.88Z</time></trkpt><trkpt lat="46.1395195" lon="13.6167865"><ele>614.4</ele><time>2026-05-02T09:18:58.882Z</time></trkpt><trkpt lat="46.1396018" lon="13.6168182"><ele>616.1999999999999</ele><time>2026-05-02T09:18:59.887Z</time></trkpt><trkpt lat="46.1397163" lon="13.6168073"><ele>618.0</ele><time>2026-05-02T09:19:00.889Z</time></trkpt><trkpt lat="46.1398486" lon="13.6167833"><ele>615.0</ele><time>2026-05-02T09:19:01.883Z</time></trkpt><trkpt lat="46.139992" lon="13.6167555"><ele>612.0</ele><time>2026-05-02T09:19:02.874Z</time></trkpt><trkpt lat="46.1401285" lon="13.616731"><ele>609.0</ele><time>2026-05-02T09:19:03.88Z</time></trkpt><trkpt lat="46.1402566" lon="13.6167235"><ele>606.0</ele><time>2026-05-02T09:19:04.88Z</time></trkpt><trkpt lat="46.1403569" lon="13.616758"><ele>606.0</ele><time>2026-05-02T09:19:05.883Z</time></trkpt><trkpt lat="46.1404472" lon="13.6168361"><ele>606.0</ele><time>2026-05-02T09:19:06.878Z</time></trkpt><trkpt lat="46.1405281" lon="13.6169845"><ele>606.0</ele><time>2026-05-02T09:19:07.893Z</time></trkpt><trkpt lat="46.1405996" lon="13.6171481"><ele>606.0</ele><time>2026-05-02T09:19:08.879Z</time></trkpt><trkpt lat="46.140659" lon="13.6172896"><ele>608.25</ele><time>2026-05-02T09:19:09.888Z</time></trkpt><trkpt lat="46.1407551" lon="13.6175338"><ele>610.5</ele><time>2026-05-02T09:19:11.885Z</time></trkpt><trkpt lat="46.1408094" lon="13.6175974"><ele>612.75</ele><time>2026-05-02T09:19:12.883Z</time></trkpt><trkpt lat="46.1409213" lon="13.6175078"><ele>615.0</ele><time>2026-05-02T09:19:14.891Z</time></trkpt><trkpt lat="46.1409656" lon="13.6173752"><ele>615.0</ele><time>2026-05-02T09:19:15.879Z</time></trkpt><trkpt lat="46.1410369" lon="13.6172423"><ele>615.0</ele><time>2026-05-02T09:19:16.877Z</time></trkpt><trkpt lat="46.1411334" lon="13.6171224"><ele>615.0</ele><time>2026-05-02T09:19:17.883Z</time></trkpt><trkpt lat="46.1412492" lon="13.617047"><ele>615.0</ele><time>2026-05-02T09:19:18.885Z</time></trkpt><trkpt lat="46.1413677" lon="13.6170449"><ele>615.0</ele><time>2026-05-02T09:19:19.886Z</time></trkpt><trkpt lat="46.1414845" lon="13.6170531"><ele>615.0</ele><time>2026-05-02T09:19:20.88Z</time></trkpt><trkpt lat="46.1415959" lon="13.617058"><ele>615.0</ele><time>2026-05-02T09:19:21.889Z</time></trkpt><trkpt lat="46.1416924" lon="13.6170064"><ele>615.0</ele><time>2026-05-02T09:19:22.887Z</time></trkpt><trkpt lat="46.1417683" lon="13.6169019"><ele>615.0</ele><time>2026-05-02T09:19:23.881Z</time></trkpt><trkpt lat="46.1418175" lon="13.6167439"><ele>612.5</ele><time>2026-05-02T09:19:24.879Z</time></trkpt><trkpt lat="46.1418637" lon="13.6165602"><ele>610.0</ele><time>2026-05-02T09:19:25.882Z</time></trkpt><trkpt lat="46.1419111" lon="13.6163729"><ele>607.5</ele><time>2026-05-02T09:19:26.88Z</time></trkpt><trkpt lat="46.1419602" lon="13.6161935"><ele>605.0</ele><time>2026-05-02T09:19:27.891Z</time></trkpt><trkpt lat="46.1420163" lon="13.6160252"><ele>606.0</ele><time>2026-05-02T09:19:28.891Z</time></trkpt><trkpt lat="46.1420847" lon="13.6158688"><ele>607.0</ele><time>2026-05-02T09:19:29.878Z</time></trkpt><trkpt lat="46.14218" lon="13.6157583"><ele>608.0</ele><time>2026-05-02T09:19:30.879Z</time></trkpt><trkpt lat="46.1424411" lon="13.6155737"><ele>608.0</ele><time>2026-05-02T09:19:32.882Z</time></trkpt><trkpt lat="46.14259" lon="13.6154789"><ele>608.0</ele><time>2026-05-02T09:19:33.88Z</time></trkpt><trkpt lat="46.1427344" lon="13.6153722"><ele>608.0</ele><time>2026-05-02T09:19:34.883Z</time></trkpt><trkpt lat="46.1428437" lon="13.6152825"><ele>608.0</ele><time>2026-05-02T09:19:35.884Z</time></trkpt><trkpt lat="46.1429443" lon="13.6152276"><ele>608.0</ele><time>2026-05-02T09:19:36.886Z</time></trkpt><trkpt lat="46.1430321" lon="13.6152295"><ele>608.0</ele><time>2026-05-02T09:19:37.88Z</time></trkpt><trkpt lat="46.1431022" lon="13.6152787"><ele>608.0</ele><time>2026-05-02T09:19:38.887Z</time></trkpt><trkpt lat="46.1431557" lon="13.6153586"><ele>608.0</ele><time>2026-05-02T09:19:39.88Z</time></trkpt><trkpt lat="46.1432136" lon="13.6154369"><ele>608.0</ele><time>2026-05-02T09:19:40.885Z</time></trkpt><trkpt lat="46.1432628" lon="13.6155352"><ele>608.4</ele><time>2026-05-02T09:19:41.881Z</time></trkpt><trkpt lat="46.143274" lon="13.6156694"><ele>608.8</ele><time>2026-05-02T09:19:42.879Z</time></trkpt><trkpt lat="46.1432576" lon="13.6158228"><ele>609.2</ele><time>2026-05-02T09:19:43.882Z</time></trkpt><trkpt lat="46.1432349" lon="13.6159974"><ele>609.6</ele><time>2026-05-02T09:19:44.891Z</time></trkpt><trkpt lat="46.1432218" lon="13.6161739"><ele>610.0</ele><time>2026-05-02T09:19:45.881Z</time></trkpt><trkpt lat="46.1432329" lon="13.6163468"><ele>610.25</ele><time>2026-05-02T09:19:46.881Z</time></trkpt><trkpt lat="46.1432878" lon="13.6165157"><ele>610.5</ele><time>2026-05-02T09:19:47.884Z</time></trkpt><trkpt lat="46.1433512" lon="13.6166702"><ele>610.75</ele><time>2026-05-02T09:19:48.895Z</time></trkpt><trkpt lat="46.1434089" lon="13.6168289"><ele>611.0</ele><time>2026-05-02T09:19:49.885Z</time></trkpt><trkpt lat="46.1434428" lon="13.6169887"><ele>612.0</ele><time>2026-05-02T09:19:50.886Z</time></trkpt><trkpt lat="46.1434218" lon="13.6171703"><ele>613.0</ele><time>2026-05-02T09:19:51.882Z</time></trkpt><trkpt lat="46.143254" lon="13.6176226"><ele>620.6666666666667</ele><time>2026-05-02T09:19:53.881Z</time></trkpt><trkpt lat="46.1431698" lon="13.6178416"><ele>628.3333333333334</ele><time>2026-05-02T09:19:54.874Z</time></trkpt><trkpt lat="46.1430772" lon="13.6180296"><ele>636.0</ele><time>2026-05-02T09:19:55.88Z</time></trkpt><trkpt lat="46.1429994" lon="13.6182051"><ele>636.0</ele><time>2026-05-02T09:19:56.881Z</time></trkpt><trkpt lat="46.142959" lon="13.6183707"><ele>636.0</ele><time>2026-05-02T09:19:57.88Z</time></trkpt><trkpt lat="46.1429556" lon="13.6185347"><ele>636.0</ele><time>2026-05-02T09:19:58.888Z</time></trkpt><trkpt lat="46.1430057" lon="13.6187036"><ele>636.0</ele><time>2026-05-02T09:19:59.877Z</time></trkpt><trkpt lat="46.1430849" lon="13.6188432"><ele>635.5</ele><time>2026-05-02T09:20:00.881Z</time></trkpt><trkpt lat="46.1431299" lon="13.6190294"><ele>635.0</ele><time>2026-05-02T09:20:01.877Z</time></trkpt><trkpt lat="46.1431262" lon="13.619257"><ele>634.5</ele><time>2026-05-02T09:20:02.888Z</time></trkpt><trkpt lat="46.14311" lon="13.6194744"><ele>634.0</ele><time>2026-05-02T09:20:03.878Z</time></trkpt><trkpt lat="46.1431077" lon="13.6196971"><ele>634.0</ele><time>2026-05-02T09:20:04.884Z</time></trkpt><trkpt lat="46.1430781" lon="13.6199116"><ele>634.0</ele><time>2026-05-02T09:20:05.878Z</time></trkpt><trkpt lat="46.1430395" lon="13.6201252"><ele>634.0</ele><time>2026-05-02T09:20:06.88Z</time></trkpt><trkpt lat="46.1429878" lon="13.6203517"><ele>630.6666666666667</ele><time>2026-05-02T09:20:07.88Z</time></trkpt><trkpt lat="46.1429347" lon="13.6205684"><ele>627.3333333333334</ele><time>2026-05-02T09:20:08.882Z</time></trkpt><trkpt lat="46.1428836" lon="13.6207906"><ele>624.0</ele><time>2026-05-02T09:20:09.885Z</time></trkpt><trkpt lat="46.1428469" lon="13.6210063"><ele>618.6666666666666</ele><time>2026-05-02T09:20:10.88Z</time></trkpt><trkpt lat="46.1428314" lon="13.6212178"><ele>613.3333333333333</ele><time>2026-05-02T09:20:11.883Z</time></trkpt><trkpt lat="46.1428428" lon="13.6213848"><ele>608.0</ele><time>2026-05-02T09:20:12.889Z</time></trkpt><trkpt lat="46.1429981" lon="13.6217069"><ele>608.0</ele><time>2026-05-02T09:20:14.881Z</time></trkpt><trkpt lat="46.1431056" lon="13.6218549"><ele>608.0</ele><time>2026-05-02T09:20:15.895Z</time></trkpt><trkpt lat="46.1432216" lon="13.6219714"><ele>608.0</ele><time>2026-05-02T09:20:16.881Z</time></trkpt><trkpt lat="46.1433091" lon="13.6220801"><ele>608.0</ele><time>2026-05-02T09:20:17.882Z</time></trkpt><trkpt lat="46.143339" lon="13.6221981"><ele>605.75</ele><time>2026-05-02T09:20:18.883Z</time></trkpt><trkpt lat="46.1433268" lon="13.6223845"><ele>603.5</ele><time>2026-05-02T09:20:19.882Z</time></trkpt><trkpt lat="46.1432787" lon="13.6225447"><ele>601.25</ele><time>2026-05-02T09:20:20.887Z</time></trkpt><trkpt lat="46.1432418" lon="13.6227145"><ele>599.0</ele><time>2026-05-02T09:20:21.881Z</time></trkpt><trkpt lat="46.1432193" lon="13.6228969"><ele>598.0</ele><time>2026-05-02T09:20:22.892Z</time></trkpt><trkpt lat="46.1432211" lon="13.623071"><ele>597.0</ele><time>2026-05-02T09:20:23.889Z</time></trkpt><trkpt lat="46.1432514" lon="13.623254"><ele>596.0</ele><time>2026-05-02T09:20:24.882Z</time></trkpt><trkpt lat="46.1433049" lon="13.6234084"><ele>595.0</ele><time>2026-05-02T09:20:25.88Z</time></trkpt><trkpt lat="46.1433833" lon="13.6235284"><ele>595.0</ele><time>2026-05-02T09:20:26.878Z</time></trkpt><trkpt lat="46.1434747" lon="13.6236131"><ele>595.0</ele><time>2026-05-02T09:20:27.877Z</time></trkpt><trkpt lat="46.1435798" lon="13.6236816"><ele>595.0</ele><time>2026-05-02T09:20:28.873Z</time></trkpt><trkpt lat="46.1436695" lon="13.6237533"><ele>595.0</ele><time>2026-05-02T09:20:29.884Z</time></trkpt><trkpt lat="46.1437421" lon="13.6238451"><ele>595.0</ele><time>2026-05-02T09:20:30.877Z</time></trkpt><trkpt lat="46.1438045" lon="13.6239426"><ele>593.75</ele><time>2026-05-02T09:20:31.876Z</time></trkpt><trkpt lat="46.1438699" lon="13.6240609"><ele>592.5</ele><time>2026-05-02T09:20:32.877Z</time></trkpt><trkpt lat="46.1439274" lon="13.6241645"><ele>591.25</ele><time>2026-05-02T09:20:33.884Z</time></trkpt><trkpt lat="46.1440073" lon="13.6244489"><ele>590.0</ele><time>2026-05-02T09:20:35.89Z</time></trkpt><trkpt lat="46.1440367" lon="13.6245885"><ele>588.1666666666666</ele><time>2026-05-02T09:20:36.872Z</time></trkpt><trkpt lat="46.1440653" lon="13.6247081"><ele>586.3333333333333</ele><time>2026-05-02T09:20:37.873Z</time></trkpt><trkpt lat="46.1440731" lon="13.6248269"><ele>584.5</ele><time>2026-05-02T09:20:43.875Z</time></trkpt><trkpt lat="46.1440472" lon="13.6247416"><ele>582.6666666666666</ele><time>2026-05-02T09:20:48.883Z</time></trkpt><trkpt lat="46.1439955" lon="13.6246874"><ele>580.8333333333334</ele><time>2026-05-02T09:20:49.875Z</time></trkpt><trkpt lat="46.1438985" lon="13.6245816"><ele>579.0</ele><time>2026-05-02T09:20:51.885Z</time></trkpt><trkpt lat="46.1438034" lon="13.6245543"><ele>579.0</ele><time>2026-05-02T09:20:53.888Z</time></trkpt><trkpt lat="46.1438304" lon="13.6246708"><ele>579.0</ele><time>2026-05-02T09:20:57.886Z</time></trkpt><trkpt lat="46.1439778" lon="13.6248796"><ele>579.0</ele><time>2026-05-02T09:21:00.881Z</time></trkpt><trkpt lat="46.1440353" lon="13.6249832"><ele>579.0</ele><time>2026-05-02T09:21:01.888Z</time></trkpt><trkpt lat="46.1440973" lon="13.6250941"><ele>583.0</ele><time>2026-05-02T09:21:02.884Z</time></trkpt><trkpt lat="46.1441327" lon="13.6251984"><ele>587.0</ele><time>2026-05-02T09:21:03.88Z</time></trkpt><trkpt lat="46.1441444" lon="13.6252929"><ele>591.0</ele><time>2026-05-02T09:21:04.875Z</time></trkpt><trkpt lat="46.1441751" lon="13.6253809"><ele>595.0</ele><time>2026-05-02T09:21:05.879Z</time></trkpt><trkpt lat="46.1442008" lon="13.6254831"><ele>599.0</ele><time>2026-05-02T09:21:06.882Z</time></trkpt><trkpt lat="46.1442296" lon="13.6256017"><ele>603.0</ele><time>2026-05-02T09:21:07.886Z</time></trkpt><trkpt lat="46.1442576" lon="13.6257418"><ele>603.5</ele><time>2026-05-02T09:21:08.882Z</time></trkpt><trkpt lat="46.1442831" lon="13.6258953"><ele>604.0</ele><time>2026-05-02T09:21:09.892Z</time></trkpt><trkpt lat="46.1443057" lon="13.6260618"><ele>604.5</ele><time>2026-05-02T09:21:10.881Z</time></trkpt><trkpt lat="46.1443185" lon="13.6262368"><ele>605.0</ele><time>2026-05-02T09:21:11.878Z</time></trkpt><trkpt lat="46.1443285" lon="13.6264089"><ele>605.0</ele><time>2026-05-02T09:21:12.877Z</time></trkpt><trkpt lat="46.1443367" lon="13.6265661"><ele>605.0</ele><time>2026-05-02T09:21:13.889Z</time></trkpt><trkpt lat="46.1443509" lon="13.6267197"><ele>605.0</ele><time>2026-05-02T09:21:14.876Z</time></trkpt><trkpt lat="46.1443556" lon="13.6268632"><ele>605.0</ele><time>2026-05-02T09:21:15.884Z</time></trkpt><trkpt lat="46.144363" lon="13.6270004"><ele>605.0</ele><time>2026-05-02T09:21:16.882Z</time></trkpt><trkpt lat="46.1443758" lon="13.6271338"><ele>604.2</ele><time>2026-05-02T09:21:17.888Z</time></trkpt><trkpt lat="46.1443967" lon="13.6272511"><ele>603.4</ele><time>2026-05-02T09:21:18.882Z</time></trkpt><trkpt lat="46.1444827" lon="13.6274524"><ele>602.6</ele><time>2026-05-02T09:21:20.881Z</time></trkpt><trkpt lat="46.1445445" lon="13.6275503"><ele>601.8</ele><time>2026-05-02T09:21:21.881Z</time></trkpt><trkpt lat="46.1446191" lon="13.6276558"><ele>601.0</ele><time>2026-05-02T09:21:22.885Z</time></trkpt><trkpt lat="46.1446807" lon="13.627755"><ele>601.8</ele><time>2026-05-02T09:21:23.877Z</time></trkpt><trkpt lat="46.1447556" lon="13.6278404"><ele>602.6</ele><time>2026-05-02T09:21:24.879Z</time></trkpt><trkpt lat="46.1448391" lon="13.6279114"><ele>603.4</ele><time>2026-05-02T09:21:25.881Z</time></trkpt><trkpt lat="46.1449388" lon="13.6279661"><ele>604.2</ele><time>2026-05-02T09:21:26.878Z</time></trkpt><trkpt lat="46.1450408" lon="13.6280163"><ele>605.0</ele><time>2026-05-02T09:21:27.884Z</time></trkpt><trkpt lat="46.145131" lon="13.6280474"><ele>605.0</ele><time>2026-05-02T09:21:28.884Z</time></trkpt><trkpt lat="46.1451925" lon="13.6281117"><ele>605.0</ele><time>2026-05-02T09:21:29.88Z</time></trkpt><trkpt lat="46.1452558" lon="13.6281831"><ele>605.0</ele><time>2026-05-02T09:21:30.893Z</time></trkpt><trkpt lat="46.1453027" lon="13.6282865"><ele>605.0</ele><time>2026-05-02T09:21:31.881Z</time></trkpt><trkpt lat="46.1453379" lon="13.6283923"><ele>605.0</ele><time>2026-05-02T09:21:32.879Z</time></trkpt><trkpt lat="46.1453868" lon="13.6284926"><ele>605.0</ele><time>2026-05-02T09:21:33.875Z</time></trkpt><trkpt lat="46.1454519" lon="13.6285954"><ele>602.0</ele><time>2026-05-02T09:21:34.887Z</time></trkpt><trkpt lat="46.1455205" lon="13.6286957"><ele>599.0</ele><time>2026-05-02T09:21:35.881Z</time></trkpt><trkpt lat="46.1456025" lon="13.6287787"><ele>596.0</ele><time>2026-05-02T09:21:36.882Z</time></trkpt><trkpt lat="46.145686" lon="13.6288533"><ele>593.0</ele><time>2026-05-02T09:21:37.882Z</time></trkpt><trkpt lat="46.1457435" lon="13.6289246"><ele>590.0</ele><time>2026-05-02T09:21:38.891Z</time></trkpt><trkpt lat="46.145817" lon="13.6290519"><ele>604.6666666666666</ele><time>2026-05-02T09:21:40.886Z</time></trkpt><trkpt lat="46.1458216" lon="13.6293639"><ele>619.3333333333334</ele><time>2026-05-02T09:21:43.884Z</time></trkpt><trkpt lat="46.145781" lon="13.629527"><ele>634.0</ele><time>2026-05-02T09:21:44.888Z</time></trkpt><trkpt lat="46.1457173" lon="13.6296926"><ele>626.25</ele><time>2026-05-02T09:21:45.874Z</time></trkpt><trkpt lat="46.1456733" lon="13.6298754"><ele>618.5</ele><time>2026-05-02T09:21:46.882Z</time></trkpt><trkpt lat="46.1456196" lon="13.6300469"><ele>610.75</ele><time>2026-05-02T09:21:47.881Z</time></trkpt><trkpt lat="46.1455681" lon="13.6302105"><ele>603.0</ele><time>2026-05-02T09:21:48.889Z</time></trkpt><trkpt lat="46.1455116" lon="13.6303574"><ele>603.0</ele><time>2026-05-02T09:21:49.889Z</time></trkpt><trkpt lat="46.1454342" lon="13.6304793"><ele>603.0</ele><time>2026-05-02T09:21:50.879Z</time></trkpt><trkpt lat="46.1453532" lon="13.6305825"><ele>603.0</ele><time>2026-05-02T09:21:51.877Z</time></trkpt><trkpt lat="46.1452791" lon="13.6306787"><ele>603.0</ele><time>2026-05-02T09:21:52.88Z</time></trkpt><trkpt lat="46.145233" lon="13.6307906"><ele>603.0</ele><time>2026-05-02T09:21:53.881Z</time></trkpt><trkpt lat="46.145208" lon="13.6309241"><ele>603.0</ele><time>2026-05-02T09:21:55.885Z</time></trkpt><trkpt lat="46.1452823" lon="13.6310685"><ele>603.0</ele><time>2026-05-02T09:21:57.888Z</time></trkpt><trkpt lat="46.1453304" lon="13.6311533"><ele>603.0</ele><time>2026-05-02T09:21:58.886Z</time></trkpt><trkpt lat="46.1453812" lon="13.6312283"><ele>603.0</ele><time>2026-05-02T09:21:59.89Z</time></trkpt><trkpt lat="46.1454371" lon="13.6313022"><ele>603.0</ele><time>2026-05-02T09:22:00.885Z</time></trkpt><trkpt lat="46.1455111" lon="13.6313859"><ele>603.0</ele><time>2026-05-02T09:22:01.883Z</time></trkpt><trkpt lat="46.1456428" lon="13.6315401"><ele>606.8</ele><time>2026-05-02T09:22:03.878Z</time></trkpt><trkpt lat="46.1457194" lon="13.6315988"><ele>610.5999999999999</ele><time>2026-05-02T09:22:04.884Z</time></trkpt><trkpt lat="46.1458039" lon="13.631647"><ele>614.4000000000001</ele><time>2026-05-02T09:22:05.881Z</time></trkpt><trkpt lat="46.1458955" lon="13.6316967"><ele>618.2</ele><time>2026-05-02T09:22:06.89Z</time></trkpt><trkpt lat="46.1459941" lon="13.6317475"><ele>622.0</ele><time>2026-05-02T09:22:07.881Z</time></trkpt><trkpt lat="46.1460917" lon="13.6317968"><ele>622.0</ele><time>2026-05-02T09:22:08.891Z</time></trkpt><trkpt lat="46.1461699" lon="13.631836"><ele>622.0</ele><time>2026-05-02T09:22:09.883Z</time></trkpt><trkpt lat="46.1462695" lon="13.6318873"><ele>622.0</ele><time>2026-05-02T09:22:11.874Z</time></trkpt><trkpt lat="46.1462464" lon="13.6320041"><ele>622.0</ele><time>2026-05-02T09:22:15.882Z</time></trkpt><trkpt lat="46.1461622" lon="13.6321464"><ele>622.0</ele><time>2026-05-02T09:22:17.879Z</time></trkpt><trkpt lat="46.1460973" lon="13.632252"><ele>624.0</ele><time>2026-05-02T09:22:18.885Z</time></trkpt><trkpt lat="46.1460337" lon="13.6323738"><ele>626.0</ele><time>2026-05-02T09:22:19.878Z</time></trkpt><trkpt lat="46.1459771" lon="13.6325224"><ele>628.0</ele><time>2026-05-02T09:22:20.877Z</time></trkpt><trkpt lat="46.1459211" lon="13.6326705"><ele>630.0</ele><time>2026-05-02T09:22:21.879Z</time></trkpt><trkpt lat="46.1458647" lon="13.6328274"><ele>630.0</ele><time>2026-05-02T09:22:22.891Z</time></trkpt><trkpt lat="46.1458188" lon="13.6329795"><ele>630.0</ele><time>2026-05-02T09:22:23.885Z</time></trkpt><trkpt lat="46.1457059" lon="13.6332563"><ele>630.0</ele><time>2026-05-02T09:22:25.879Z</time></trkpt><trkpt lat="46.1456438" lon="13.6333927"><ele>623.2</ele><time>2026-05-02T09:22:26.886Z</time></trkpt><trkpt lat="46.145574" lon="13.6335203"><ele>616.4</ele><time>2026-05-02T09:22:27.88Z</time></trkpt><trkpt lat="46.1455124" lon="13.6336535"><ele>609.6</ele><time>2026-05-02T09:22:28.882Z</time></trkpt><trkpt lat="46.1454573" lon="13.6337848"><ele>602.8</ele><time>2026-05-02T09:22:29.881Z</time></trkpt><trkpt lat="46.1454191" lon="13.6338961"><ele>596.0</ele><time>2026-05-02T09:22:30.875Z</time></trkpt><trkpt lat="46.1453777" lon="13.6339956"><ele>596.0</ele><time>2026-05-02T09:22:31.884Z</time></trkpt><trkpt lat="46.1453228" lon="13.634081"><ele>596.0</ele><time>2026-05-02T09:22:32.891Z</time></trkpt><trkpt lat="46.145253" lon="13.6341718"><ele>596.0</ele><time>2026-05-02T09:22:33.883Z</time></trkpt><trkpt lat="46.1451857" lon="13.6342625"><ele>596.0</ele><time>2026-05-02T09:22:34.872Z</time></trkpt><trkpt lat="46.1451229" lon="13.6343566"><ele>596.0</ele><time>2026-05-02T09:22:35.876Z</time></trkpt><trkpt lat="46.145069" lon="13.6344451"><ele>596.0</ele><time>2026-05-02T09:22:36.883Z</time></trkpt><trkpt lat="46.1450305" lon="13.6345334"><ele>595.0</ele><time>2026-05-02T09:22:37.884Z</time></trkpt><trkpt lat="46.1450379" lon="13.6346913"><ele>594.0</ele><time>2026-05-02T09:22:39.887Z</time></trkpt><trkpt lat="46.1450722" lon="13.634787"><ele>593.0</ele><time>2026-05-02T09:22:40.888Z</time></trkpt><trkpt lat="46.1451193" lon="13.6348847"><ele>592.0</ele><time>2026-05-02T09:22:41.88Z</time></trkpt><trkpt lat="46.1451829" lon="13.634979"><ele>591.0</ele><time>2026-05-02T09:22:42.886Z</time></trkpt><trkpt lat="46.1452659" lon="13.6350594"><ele>591.0</ele><time>2026-05-02T09:22:43.881Z</time></trkpt><trkpt lat="46.1453591" lon="13.6351142"><ele>591.0</ele><time>2026-05-02T09:22:44.891Z</time></trkpt><trkpt lat="46.1455987" lon="13.6352082"><ele>591.0</ele><time>2026-05-02T09:22:46.888Z</time></trkpt><trkpt lat="46.1457073" lon="13.6352633"><ele>593.5</ele><time>2026-05-02T09:22:47.881Z</time></trkpt><trkpt lat="46.1457922" lon="13.6353021"><ele>596.0</ele><time>2026-05-02T09:22:48.878Z</time></trkpt><trkpt lat="46.1458583" lon="13.635323"><ele>598.5</ele><time>2026-05-02T09:22:49.881Z</time></trkpt><trkpt lat="46.1459716" lon="13.6353836"><ele>601.0</ele><time>2026-05-02T09:22:51.884Z</time></trkpt><trkpt lat="46.1460253" lon="13.6354531"><ele>603.5</ele><time>2026-05-02T09:22:52.879Z</time></trkpt><trkpt lat="46.1460656" lon="13.6355251"><ele>606.0</ele><time>2026-05-02T09:22:53.889Z</time></trkpt><trkpt lat="46.1461285" lon="13.6356701"><ele>606.0</ele><time>2026-05-02T09:22:55.884Z</time></trkpt><trkpt lat="46.1461546" lon="13.6358209"><ele>606.0</ele><time>2026-05-02T09:22:57.879Z</time></trkpt><trkpt lat="46.1461359" lon="13.6360029"><ele>606.0</ele><time>2026-05-02T09:22:59.88Z</time></trkpt><trkpt lat="46.1461139" lon="13.6360919"><ele>606.0</ele><time>2026-05-02T09:23:00.877Z</time></trkpt><trkpt lat="46.1460727" lon="13.6361686"><ele>606.0</ele><time>2026-05-02T09:23:01.88Z</time></trkpt><trkpt lat="46.146023" lon="13.6362315"><ele>606.0</ele><time>2026-05-02T09:23:02.884Z</time></trkpt><trkpt lat="46.1459609" lon="13.6362993"><ele>608.25</ele><time>2026-05-02T09:23:03.882Z</time></trkpt><trkpt lat="46.1458964" lon="13.6363832"><ele>610.5</ele><time>2026-05-02T09:23:04.879Z</time></trkpt><trkpt lat="46.1458421" lon="13.636506"><ele>612.75</ele><time>2026-05-02T09:23:05.876Z</time></trkpt><trkpt lat="46.1457481" lon="13.6367902"><ele>615.0</ele><time>2026-05-02T09:23:07.884Z</time></trkpt><trkpt lat="46.1456984" lon="13.6369355"><ele>609.2</ele><time>2026-05-02T09:23:08.877Z</time></trkpt><trkpt lat="46.1456337" lon="13.6370859"><ele>603.4</ele><time>2026-05-02T09:23:09.876Z</time></trkpt><trkpt lat="46.1455571" lon="13.6372057"><ele>597.6</ele><time>2026-05-02T09:23:10.879Z</time></trkpt><trkpt lat="46.145486" lon="13.6373224"><ele>591.8</ele><time>2026-05-02T09:23:11.886Z</time></trkpt><trkpt lat="46.1454386" lon="13.6374388"><ele>586.0</ele><time>2026-05-02T09:23:12.888Z</time></trkpt><trkpt lat="46.145384" lon="13.637574"><ele>586.0</ele><time>2026-05-02T09:23:13.875Z</time></trkpt><trkpt lat="46.1453447" lon="13.6377205"><ele>586.0</ele><time>2026-05-02T09:23:14.884Z</time></trkpt><trkpt lat="46.1453092" lon="13.637863"><ele>586.0</ele><time>2026-05-02T09:23:15.876Z</time></trkpt><trkpt lat="46.1452828" lon="13.6380037"><ele>586.0</ele><time>2026-05-02T09:23:16.877Z</time></trkpt><trkpt lat="46.1452576" lon="13.6381182"><ele>586.0</ele><time>2026-05-02T09:23:17.878Z</time></trkpt><trkpt lat="46.1452338" lon="13.638225"><ele>587.5</ele><time>2026-05-02T09:23:18.887Z</time></trkpt><trkpt lat="46.145202" lon="13.6383197"><ele>589.0</ele><time>2026-05-02T09:23:19.879Z</time></trkpt><trkpt lat="46.1451542" lon="13.638389"><ele>590.5</ele><time>2026-05-02T09:23:20.882Z</time></trkpt><trkpt lat="46.1450397" lon="13.6383881"><ele>592.0</ele><time>2026-05-02T09:23:22.875Z</time></trkpt><trkpt lat="46.1449793" lon="13.6383494"><ele>593.5</ele><time>2026-05-02T09:23:23.877Z</time></trkpt><trkpt lat="46.1449186" lon="13.6382891"><ele>595.0</ele><time>2026-05-02T09:23:24.884Z</time></trkpt><trkpt lat="46.14481" lon="13.6382775"><ele>595.0</ele><time>2026-05-02T09:23:26.875Z</time></trkpt><trkpt lat="46.1446189" lon="13.6382521"><ele>595.0</ele><time>2026-05-02T09:23:28.878Z</time></trkpt><trkpt lat="46.1445244" lon="13.6382209"><ele>595.0</ele><time>2026-05-02T09:23:29.882Z</time></trkpt><trkpt lat="46.144419" lon="13.6381845"><ele>595.0</ele><time>2026-05-02T09:23:30.887Z</time></trkpt><trkpt lat="46.1443143" lon="13.6381448"><ele>595.0</ele><time>2026-05-02T09:23:31.874Z</time></trkpt><trkpt lat="46.1442216" lon="13.6381293"><ele>595.0</ele><time>2026-05-02T09:23:32.88Z</time></trkpt><trkpt lat="46.1441438" lon="13.6381387"><ele>595.0</ele><time>2026-05-02T09:23:33.888Z</time></trkpt><trkpt lat="46.144063" lon="13.6381711"><ele>595.0</ele><time>2026-05-02T09:23:34.879Z</time></trkpt><trkpt lat="46.1439684" lon="13.6382309"><ele>595.0</ele><time>2026-05-02T09:23:35.882Z</time></trkpt><trkpt lat="46.1438586" lon="13.6383014"><ele>593.6</ele><time>2026-05-02T09:23:36.889Z</time></trkpt><trkpt lat="46.1437426" lon="13.6383835"><ele>592.2</ele><time>2026-05-02T09:23:37.89Z</time></trkpt><trkpt lat="46.1436422" lon="13.6384502"><ele>590.8</ele><time>2026-05-02T09:23:38.876Z</time></trkpt><trkpt lat="46.1435571" lon="13.6385088"><ele>589.4</ele><time>2026-05-02T09:23:39.882Z</time></trkpt><trkpt lat="46.143478" lon="13.6385411"><ele>588.0</ele><time>2026-05-02T09:23:40.88Z</time></trkpt><trkpt lat="46.1433995" lon="13.6385476"><ele>588.0</ele><time>2026-05-02T09:23:41.879Z</time></trkpt><trkpt lat="46.1433251" lon="13.6385604"><ele>588.0</ele><time>2026-05-02T09:23:42.873Z</time></trkpt><trkpt lat="46.14325" lon="13.6385661"><ele>588.0</ele><time>2026-05-02T09:23:43.878Z</time></trkpt><trkpt lat="46.1431724" lon="13.6385608"><ele>588.0</ele><time>2026-05-02T09:23:44.887Z</time></trkpt><trkpt lat="46.1430847" lon="13.6385469"><ele>588.0</ele><time>2026-05-02T09:23:45.875Z</time></trkpt><trkpt lat="46.142993" lon="13.6385412"><ele>588.0</ele><time>2026-05-02T09:23:46.887Z</time></trkpt><trkpt lat="46.1428912" lon="13.6385305"><ele>588.0</ele><time>2026-05-02T09:23:47.876Z</time></trkpt><trkpt lat="46.1427114" lon="13.6384862"><ele>588.0</ele><time>2026-05-02T09:23:49.88Z</time></trkpt><trkpt lat="46.1426214" lon="13.6384802"><ele>588.0</ele><time>2026-05-02T09:23:50.893Z</time></trkpt><trkpt lat="46.1425444" lon="13.6384926"><ele>588.0</ele><time>2026-05-02T09:23:51.876Z</time></trkpt><trkpt lat="46.1424781" lon="13.6385153"><ele>588.0</ele><time>2026-05-02T09:23:52.878Z</time></trkpt><trkpt lat="46.1424208" lon="13.63856"><ele>586.8333333333334</ele><time>2026-05-02T09:23:53.879Z</time></trkpt><trkpt lat="46.1423705" lon="13.6386154"><ele>585.6666666666666</ele><time>2026-05-02T09:23:54.888Z</time></trkpt><trkpt lat="46.1422758" lon="13.6387062"><ele>584.5</ele><time>2026-05-02T09:23:56.888Z</time></trkpt><trkpt lat="46.1421514" lon="13.6387375"><ele>583.3333333333333</ele><time>2026-05-02T09:23:58.878Z</time></trkpt><trkpt lat="46.1420875" lon="13.6387582"><ele>582.1666666666666</ele><time>2026-05-02T09:23:59.873Z</time></trkpt><trkpt lat="46.1420201" lon="13.6387764"><ele>581.0</ele><time>2026-05-02T09:24:00.873Z</time></trkpt><trkpt lat="46.1419436" lon="13.6387943"><ele>581.0</ele><time>2026-05-02T09:24:01.884Z</time></trkpt><trkpt lat="46.1418617" lon="13.6388177"><ele>581.0</ele><time>2026-05-02T09:24:02.882Z</time></trkpt><trkpt lat="46.1417901" lon="13.6388308"><ele>581.0</ele><time>2026-05-02T09:24:03.881Z</time></trkpt><trkpt lat="46.1417188" lon="13.6388441"><ele>581.0</ele><time>2026-05-02T09:24:04.892Z</time></trkpt><trkpt lat="46.1415975" lon="13.6388919"><ele>581.0</ele><time>2026-05-02T09:24:06.89Z</time></trkpt><trkpt lat="46.1414923" lon="13.6389421"><ele>577.75</ele><time>2026-05-02T09:24:08.884Z</time></trkpt><trkpt lat="46.1414011" lon="13.6390616"><ele>574.5</ele><time>2026-05-02T09:24:30.883Z</time></trkpt><trkpt lat="46.141464" lon="13.6392626"><ele>571.25</ele><time>2026-05-02T09:24:34.888Z</time></trkpt><trkpt lat="46.1415087" lon="13.6394025"><ele>568.0</ele><time>2026-05-02T09:24:36.876Z</time></trkpt><trkpt lat="46.1415496" lon="13.6394851"><ele>568.0</ele><time>2026-05-02T09:24:37.872Z</time></trkpt><trkpt lat="46.1415706" lon="13.6396045"><ele>568.0</ele><time>2026-05-02T09:24:38.883Z</time></trkpt><trkpt lat="46.1415921" lon="13.6397149"><ele>568.0</ele><time>2026-05-02T09:24:39.878Z</time></trkpt><trkpt lat="46.1416169" lon="13.63983"><ele>568.0</ele><time>2026-05-02T09:24:40.88Z</time></trkpt><trkpt lat="46.1416485" lon="13.6399402"><ele>568.0</ele><time>2026-05-02T09:24:41.88Z</time></trkpt><trkpt lat="46.1416927" lon="13.6400404"><ele>568.0</ele><time>2026-05-02T09:24:42.876Z</time></trkpt><trkpt lat="46.1417391" lon="13.640124"><ele>568.0</ele><time>2026-05-02T09:24:43.882Z</time></trkpt><trkpt lat="46.141784" lon="13.640207"><ele>568.0</ele><time>2026-05-02T09:24:44.875Z</time></trkpt><trkpt lat="46.1418228" lon="13.6402894"><ele>568.0</ele><time>2026-05-02T09:24:45.878Z</time></trkpt><trkpt lat="46.1418633" lon="13.6403706"><ele>568.0</ele><time>2026-05-02T09:24:46.883Z</time></trkpt><trkpt lat="46.1419302" lon="13.6404964"><ele>568.0</ele><time>2026-05-02T09:24:48.881Z</time></trkpt><trkpt lat="46.1418515" lon="13.6404752"><ele>568.0</ele><time>2026-05-02T09:24:53.874Z</time></trkpt><trkpt lat="46.1417511" lon="13.6403342"><ele>568.0</ele><time>2026-05-02T09:24:55.88Z</time></trkpt><trkpt lat="46.1417021" lon="13.6402564"><ele>568.0</ele><time>2026-05-02T09:24:56.887Z</time></trkpt><trkpt lat="46.1416387" lon="13.6402044"><ele>568.0</ele><time>2026-05-02T09:24:57.883Z</time></trkpt><trkpt lat="46.1415787" lon="13.6401652"><ele>568.0</ele><time>2026-05-02T09:24:58.878Z</time></trkpt><trkpt lat="46.141511" lon="13.6401235"><ele>568.0</ele><time>2026-05-02T09:24:59.882Z</time></trkpt><trkpt lat="46.1414526" lon="13.6400726"><ele>568.0</ele><time>2026-05-02T09:25:00.891Z</time></trkpt><trkpt lat="46.1413983" lon="13.6400034"><ele>568.0</ele><time>2026-05-02T09:25:01.878Z</time></trkpt><trkpt lat="46.1413542" lon="13.6399171"><ele>561.6666666666667</ele><time>2026-05-02T09:25:02.877Z</time></trkpt><trkpt lat="46.1413018" lon="13.6398326"><ele>555.3333333333334</ele><time>2026-05-02T09:25:03.883Z</time></trkpt><trkpt lat="46.1412522" lon="13.6397491"><ele>549.0</ele><time>2026-05-02T09:25:04.881Z</time></trkpt><trkpt lat="46.1411977" lon="13.6396742"><ele>542.6666666666666</ele><time>2026-05-02T09:25:05.88Z</time></trkpt><trkpt lat="46.1411239" lon="13.6396093"><ele>536.3333333333333</ele><time>2026-05-02T09:25:06.877Z</time></trkpt><trkpt lat="46.1410403" lon="13.6395407"><ele>530.0</ele><time>2026-05-02T09:25:07.879Z</time></trkpt><trkpt lat="46.1409466" lon="13.6394887"><ele>531.6</ele><time>2026-05-02T09:25:08.881Z</time></trkpt><trkpt lat="46.140843" lon="13.6394432"><ele>533.2</ele><time>2026-05-02T09:25:09.878Z</time></trkpt><trkpt lat="46.1407336" lon="13.639397"><ele>534.8</ele><time>2026-05-02T09:25:10.886Z</time></trkpt><trkpt lat="46.1406393" lon="13.6393433"><ele>536.4</ele><time>2026-05-02T09:25:11.875Z</time></trkpt><trkpt lat="46.1405483" lon="13.6393046"><ele>538.0</ele><time>2026-05-02T09:25:12.878Z</time></trkpt><trkpt lat="46.1404549" lon="13.6392795"><ele>538.0</ele><time>2026-05-02T09:25:13.884Z</time></trkpt><trkpt lat="46.140373" lon="13.6392606"><ele>538.0</ele><time>2026-05-02T09:25:14.884Z</time></trkpt><trkpt lat="46.1402082" lon="13.6392357"><ele>538.0</ele><time>2026-05-02T09:25:16.878Z</time></trkpt><trkpt lat="46.1401184" lon="13.6392658"><ele>538.0</ele><time>2026-05-02T09:25:18.889Z</time></trkpt><trkpt lat="46.1401878" lon="13.6393427"><ele>538.0</ele><time>2026-05-02T09:25:22.877Z</time></trkpt><trkpt lat="46.1403191" lon="13.6394067"><ele>538.0</ele><time>2026-05-02T09:25:24.886Z</time></trkpt><trkpt lat="46.1404118" lon="13.6394533"><ele>538.0</ele><time>2026-05-02T09:25:25.881Z</time></trkpt><trkpt lat="46.1405027" lon="13.6395115"><ele>538.0</ele><time>2026-05-02T09:25:26.878Z</time></trkpt><trkpt lat="46.1405829" lon="13.6395753"><ele>538.0</ele><time>2026-05-02T09:25:27.883Z</time></trkpt><trkpt lat="46.1406678" lon="13.6396362"><ele>538.0</ele><time>2026-05-02T09:25:28.88Z</time></trkpt><trkpt lat="46.1407466" lon="13.6397041"><ele>536.6666666666667</ele><time>2026-05-02T09:25:29.887Z</time></trkpt><trkpt lat="46.1408232" lon="13.6397827"><ele>535.3333333333334</ele><time>2026-05-02T09:25:30.888Z</time></trkpt><trkpt lat="46.1408876" lon="13.6398684"><ele>534.0</ele><time>2026-05-02T09:25:31.878Z</time></trkpt><trkpt lat="46.1409408" lon="13.6399444"><ele>532.6666666666666</ele><time>2026-05-02T09:25:32.879Z</time></trkpt><trkpt lat="46.1409851" lon="13.640014"><ele>531.3333333333333</ele><time>2026-05-02T09:25:33.878Z</time></trkpt><trkpt lat="46.1409963" lon="13.6401645"><ele>530.0</ele><time>2026-05-02T09:25:35.886Z</time></trkpt><trkpt lat="46.1408998" lon="13.6404009"><ele>525.6</ele><time>2026-05-02T09:25:38.882Z</time></trkpt><trkpt lat="46.1408845" lon="13.6404934"><ele>521.2</ele><time>2026-05-02T09:25:39.882Z</time></trkpt><trkpt lat="46.140913" lon="13.6406599"><ele>516.8</ele><time>2026-05-02T09:25:41.877Z</time></trkpt><trkpt lat="46.1410066" lon="13.6407594"><ele>512.4</ele><time>2026-05-02T09:25:43.886Z</time></trkpt><trkpt lat="46.1410814" lon="13.6408063"><ele>508.0</ele><time>2026-05-02T09:25:44.879Z</time></trkpt><trkpt lat="46.1411471" lon="13.6408479"><ele>508.0</ele><time>2026-05-02T09:25:45.885Z</time></trkpt><trkpt lat="46.1412045" lon="13.640896"><ele>507.99999999999994</ele><time>2026-05-02T09:25:46.885Z</time></trkpt><trkpt lat="46.1412797" lon="13.6409935"><ele>507.99999999999994</ele><time>2026-05-02T09:25:48.876Z</time></trkpt><trkpt lat="46.1412419" lon="13.6411595"><ele>508.0</ele><time>2026-05-02T09:25:50.876Z</time></trkpt><trkpt lat="46.1411951" lon="13.6412695"><ele>508.0</ele><time>2026-05-02T09:25:51.876Z</time></trkpt><trkpt lat="46.1411492" lon="13.6414005"><ele>504.25</ele><time>2026-05-02T09:25:52.883Z</time></trkpt><trkpt lat="46.1411164" lon="13.6415527"><ele>500.5</ele><time>2026-05-02T09:25:53.877Z</time></trkpt><trkpt lat="46.1410971" lon="13.6417232"><ele>496.75</ele><time>2026-05-02T09:25:54.887Z</time></trkpt><trkpt lat="46.1410755" lon="13.6419031"><ele>493.0</ele><time>2026-05-02T09:25:55.879Z</time></trkpt><trkpt lat="46.1410613" lon="13.6420753"><ele>493.0</ele><time>2026-05-02T09:25:56.882Z</time></trkpt><trkpt lat="46.1410271" lon="13.642415"><ele>493.0</ele><time>2026-05-02T09:25:58.878Z</time></trkpt><trkpt lat="46.141" lon="13.64256"><ele>493.0</ele><time>2026-05-02T09:25:59.881Z</time></trkpt><trkpt lat="46.140973" lon="13.6427001"><ele>493.0</ele><time>2026-05-02T09:26:00.877Z</time></trkpt><trkpt lat="46.1409387" lon="13.6428102"><ele>489.4</ele><time>2026-05-02T09:26:01.876Z</time></trkpt><trkpt lat="46.1409217" lon="13.6429182"><ele>485.79999999999995</ele><time>2026-05-02T09:26:02.884Z</time></trkpt><trkpt lat="46.1409216" lon="13.6430134"><ele>482.2</ele><time>2026-05-02T09:26:03.879Z</time></trkpt><trkpt lat="46.1409306" lon="13.6431095"><ele>478.6</ele><time>2026-05-02T09:26:04.877Z</time></trkpt><trkpt lat="46.1409672" lon="13.6432635"><ele>475.0</ele><time>2026-05-02T09:26:06.876Z</time></trkpt><trkpt lat="46.1410808" lon="13.6433546"><ele>475.0</ele><time>2026-05-02T09:26:08.883Z</time></trkpt><trkpt lat="46.1411802" lon="13.6433349"><ele>475.0</ele><time>2026-05-02T09:26:09.877Z</time></trkpt><trkpt lat="46.1412842" lon="13.6433054"><ele>475.0</ele><time>2026-05-02T09:26:10.879Z</time></trkpt><trkpt lat="46.1413873" lon="13.643277"><ele>475.0</ele><time>2026-05-02T09:26:11.876Z</time></trkpt><trkpt lat="46.141501" lon="13.6432563"><ele>475.0</ele><time>2026-05-02T09:26:12.897Z</time></trkpt><trkpt lat="46.1416112" lon="13.6432558"><ele>478.4</ele><time>2026-05-02T09:26:13.882Z</time></trkpt><trkpt lat="46.1417202" lon="13.6432412"><ele>481.8</ele><time>2026-05-02T09:26:14.887Z</time></trkpt><trkpt lat="46.141824" lon="13.6432282"><ele>485.20000000000005</ele><time>2026-05-02T09:26:15.879Z</time></trkpt><trkpt lat="46.1419294" lon="13.6432036"><ele>488.6</ele><time>2026-05-02T09:26:16.876Z</time></trkpt><trkpt lat="46.142022" lon="13.6431794"><ele>492.0</ele><time>2026-05-02T09:26:17.877Z</time></trkpt><trkpt lat="46.1421852" lon="13.6432583"><ele>492.0</ele><time>2026-05-02T09:26:20.884Z</time></trkpt><trkpt lat="46.1422546" lon="13.6432771"><ele>492.0</ele><time>2026-05-02T09:26:21.88Z</time></trkpt><trkpt lat="46.1423551" lon="13.6433327"><ele>492.0</ele><time>2026-05-02T09:26:23.882Z</time></trkpt><trkpt lat="46.1423416" lon="13.6434883"><ele>492.0</ele><time>2026-05-02T09:26:25.887Z</time></trkpt><trkpt lat="46.1423099" lon="13.6435835"><ele>492.0</ele><time>2026-05-02T09:26:26.881Z</time></trkpt><trkpt lat="46.1422992" lon="13.6436982"><ele>492.0</ele><time>2026-05-02T09:26:27.881Z</time></trkpt><trkpt lat="46.1423015" lon="13.6438402"><ele>485.8</ele><time>2026-05-02T09:26:28.873Z</time></trkpt><trkpt lat="46.1423035" lon="13.6440045"><ele>479.6</ele><time>2026-05-02T09:26:29.881Z</time></trkpt><trkpt lat="46.1423169" lon="13.6441607"><ele>473.40000000000003</ele><time>2026-05-02T09:26:30.883Z</time></trkpt><trkpt lat="46.1423164" lon="13.6443241"><ele>467.20000000000005</ele><time>2026-05-02T09:26:31.877Z</time></trkpt><trkpt lat="46.1423092" lon="13.6444863"><ele>461.0</ele><time>2026-05-02T09:26:32.881Z</time></trkpt><trkpt lat="46.1422893" lon="13.6446385"><ele>457.20000000000005</ele><time>2026-05-02T09:26:33.875Z</time></trkpt><trkpt lat="46.1422614" lon="13.6447948"><ele>453.40000000000003</ele><time>2026-05-02T09:26:34.88Z</time></trkpt><trkpt lat="46.1422323" lon="13.6449214"><ele>449.6</ele><time>2026-05-02T09:26:35.876Z</time></trkpt><trkpt lat="46.1422011" lon="13.6450085"><ele>445.8</ele><time>2026-05-02T09:26:36.883Z</time></trkpt><trkpt lat="46.142159" lon="13.6451513"><ele>442.0</ele><time>2026-05-02T09:26:38.876Z</time></trkpt><trkpt lat="46.1422563" lon="13.6454048"><ele>443.28571428571433</ele><time>2026-05-02T09:26:41.877Z</time></trkpt><trkpt lat="46.1423081" lon="13.6454816"><ele>444.57142857142856</ele><time>2026-05-02T09:26:42.881Z</time></trkpt><trkpt lat="46.1423596" lon="13.6455509"><ele>445.8571428571429</ele><time>2026-05-02T09:26:43.876Z</time></trkpt><trkpt lat="46.1424255" lon="13.6456006"><ele>447.14285714285717</ele><time>2026-05-02T09:26:44.885Z</time></trkpt><trkpt lat="46.1424931" lon="13.6456622"><ele>448.42857142857144</ele><time>2026-05-02T09:26:45.878Z</time></trkpt><trkpt lat="46.1425573" lon="13.6457165"><ele>449.7142857142857</ele><time>2026-05-02T09:26:46.889Z</time></trkpt><trkpt lat="46.1426199" lon="13.6457524"><ele>451.0</ele><time>2026-05-02T09:26:47.88Z</time></trkpt><trkpt lat="46.14268" lon="13.6457867"><ele>451.00000000000006</ele><time>2026-05-02T09:26:48.879Z</time></trkpt><trkpt lat="46.1427653" lon="13.6458951"><ele>451.0</ele><time>2026-05-02T09:26:50.88Z</time></trkpt><trkpt lat="46.1428009" lon="13.6459793"><ele>451.0</ele><time>2026-05-02T09:26:51.877Z</time></trkpt><trkpt lat="46.1428322" lon="13.6460791"><ele>451.0</ele><time>2026-05-02T09:26:52.882Z</time></trkpt><trkpt lat="46.1428721" lon="13.6461757"><ele>451.00000000000006</ele><time>2026-05-02T09:26:53.886Z</time></trkpt><trkpt lat="46.1429106" lon="13.6462689"><ele>451.0</ele><time>2026-05-02T09:26:54.883Z</time></trkpt><trkpt lat="46.1429557" lon="13.6463343"><ele>444.5</ele><time>2026-05-02T09:26:55.878Z</time></trkpt><trkpt lat="46.1430021" lon="13.646405"><ele>438.0</ele><time>2026-05-02T09:26:56.877Z</time></trkpt><trkpt lat="46.1431155" lon="13.6464427"><ele>431.5</ele><time>2026-05-02T09:26:58.874Z</time></trkpt><trkpt lat="46.1430092" lon="13.6464195"><ele>425.0</ele><time>2026-05-02T09:27:05.882Z</time></trkpt><trkpt lat="46.1427961" lon="13.6462965"><ele>424.99999999999994</ele><time>2026-05-02T09:27:09.876Z</time></trkpt><trkpt lat="46.1427421" lon="13.6462279"><ele>425.0</ele><time>2026-05-02T09:27:10.876Z</time></trkpt><trkpt lat="46.1426929" lon="13.6461491"><ele>425.0</ele><time>2026-05-02T09:27:11.879Z</time></trkpt><trkpt lat="46.1426454" lon="13.6460756"><ele>425.0</ele><time>2026-05-02T09:27:12.876Z</time></trkpt><trkpt lat="46.1425511" lon="13.6459637"><ele>424.99999999999994</ele><time>2026-05-02T09:27:14.878Z</time></trkpt><trkpt lat="46.1424657" lon="13.6459084"><ele>425.0</ele><time>2026-05-02T09:27:16.882Z</time></trkpt><trkpt lat="46.1423466" lon="13.6458729"><ele>425.6</ele><time>2026-05-02T09:27:18.878Z</time></trkpt><trkpt lat="46.1422143" lon="13.645908"><ele>426.2</ele><time>2026-05-02T09:27:20.874Z</time></trkpt><trkpt lat="46.1421267" lon="13.6459508"><ele>426.79999999999995</ele><time>2026-05-02T09:27:21.879Z</time></trkpt><trkpt lat="46.1420509" lon="13.6459582"><ele>427.4</ele><time>2026-05-02T09:27:22.889Z</time></trkpt><trkpt lat="46.1419747" lon="13.645951"><ele>428.0</ele><time>2026-05-02T09:27:23.884Z</time></trkpt><trkpt lat="46.141905" lon="13.6459117"><ele>428.0</ele><time>2026-05-02T09:27:24.89Z</time></trkpt><trkpt lat="46.14183" lon="13.6458497"><ele>428.0</ele><time>2026-05-02T09:27:25.889Z</time></trkpt><trkpt lat="46.1417389" lon="13.6457865"><ele>428.0</ele><time>2026-05-02T09:27:26.876Z</time></trkpt><trkpt lat="46.1415887" lon="13.6456519"><ele>428.0</ele><time>2026-05-02T09:27:29.875Z</time></trkpt><trkpt lat="46.1416443" lon="13.6457857"><ele>427.99999999999994</ele><time>2026-05-02T09:27:35.882Z</time></trkpt><trkpt lat="46.1417026" lon="13.6458437"><ele>428.0</ele><time>2026-05-02T09:27:36.886Z</time></trkpt><trkpt lat="46.1417581" lon="13.6459125"><ele>428.0</ele><time>2026-05-02T09:27:37.875Z</time></trkpt><trkpt lat="46.1418043" lon="13.6459965"><ele>428.0</ele><time>2026-05-02T09:27:38.87Z</time></trkpt><trkpt lat="46.1418565" lon="13.6460799"><ele>427.99999999999994</ele><time>2026-05-02T09:27:39.879Z</time></trkpt><trkpt lat="46.1419093" lon="13.6461743"><ele>428.0</ele><time>2026-05-02T09:27:40.88Z</time></trkpt><trkpt lat="46.1419516" lon="13.646274"><ele>423.49999999999994</ele><time>2026-05-02T09:27:41.873Z</time></trkpt><trkpt lat="46.1419965" lon="13.646375"><ele>419.0</ele><time>2026-05-02T09:27:42.879Z</time></trkpt><trkpt lat="46.1420373" lon="13.6464565"><ele>414.5</ele><time>2026-05-02T09:27:43.881Z</time></trkpt><trkpt lat="46.1421376" lon="13.6465424"><ele>410.0</ele><time>2026-05-02T09:27:45.883Z</time></trkpt><trkpt lat="46.1421999" lon="13.6465588"><ele>405.49999999999994</ele><time>2026-05-02T09:27:46.88Z</time></trkpt><trkpt lat="46.1422907" lon="13.6466548"><ele>401.0</ele><time>2026-05-02T09:27:48.888Z</time></trkpt><trkpt lat="46.1423582" lon="13.6468355"><ele>400.99999999999994</ele><time>2026-05-02T09:27:50.878Z</time></trkpt><trkpt lat="46.1423641" lon="13.6469381"><ele>401.0</ele><time>2026-05-02T09:27:51.874Z</time></trkpt><trkpt lat="46.1424045" lon="13.6470653"><ele>401.0</ele><time>2026-05-02T09:27:53.884Z</time></trkpt><trkpt lat="46.1424961" lon="13.6471908"><ele>401.0</ele><time>2026-05-02T09:27:55.879Z</time></trkpt><trkpt lat="46.14255" lon="13.647242"><ele>400.99999999999994</ele><time>2026-05-02T09:27:56.877Z</time></trkpt><trkpt lat="46.1426263" lon="13.6472851"><ele>401.0</ele><time>2026-05-02T09:27:57.871Z</time></trkpt><trkpt lat="46.1427126" lon="13.6473237"><ele>400.8</ele><time>2026-05-02T09:27:58.886Z</time></trkpt><trkpt lat="46.1427954" lon="13.6473517"><ele>400.6</ele><time>2026-05-02T09:27:59.874Z</time></trkpt><trkpt lat="46.1428615" lon="13.6473744"><ele>400.4</ele><time>2026-05-02T09:28:00.886Z</time></trkpt><trkpt lat="46.1429771" lon="13.647435"><ele>400.2</ele><time>2026-05-02T09:28:02.876Z</time></trkpt><trkpt lat="46.1430391" lon="13.6475661"><ele>400.0</ele><time>2026-05-02T09:28:04.883Z</time></trkpt><trkpt lat="46.1430776" lon="13.6476574"><ele>400.0</ele><time>2026-05-02T09:28:05.885Z</time></trkpt><trkpt lat="46.143115" lon="13.6477533"><ele>400.0</ele><time>2026-05-02T09:28:06.888Z</time></trkpt><trkpt lat="46.1431387" lon="13.6478578"><ele>400.0</ele><time>2026-05-02T09:28:07.875Z</time></trkpt><trkpt lat="46.1431995" lon="13.6480194"><ele>400.0</ele><time>2026-05-02T09:28:09.877Z</time></trkpt><trkpt lat="46.1432843" lon="13.6481999"><ele>400.0</ele><time>2026-05-02T09:28:11.872Z</time></trkpt><trkpt lat="46.1433243" lon="13.6482773"><ele>399.33333333333337</ele><time>2026-05-02T09:28:12.877Z</time></trkpt><trkpt lat="46.1433693" lon="13.6483431"><ele>398.6666666666667</ele><time>2026-05-02T09:28:13.874Z</time></trkpt><trkpt lat="46.1434483" lon="13.6484304"><ele>398.0</ele><time>2026-05-02T09:28:15.88Z</time></trkpt><trkpt lat="46.143483" lon="13.6485302"><ele>397.33333333333337</ele><time>2026-05-02T09:28:17.876Z</time></trkpt><trkpt lat="46.143481" lon="13.6486541"><ele>396.6666666666667</ele><time>2026-05-02T09:28:19.879Z</time></trkpt><trkpt lat="46.1434597" lon="13.6487492"><ele>396.0</ele><time>2026-05-02T09:28:21.879Z</time></trkpt><trkpt lat="46.1435209" lon="13.6487825"><ele>394.6</ele><time>2026-05-02T09:29:36.884Z</time></trkpt><trkpt lat="46.1436616" lon="13.6488954"><ele>393.20000000000005</ele><time>2026-05-02T09:29:39.875Z</time></trkpt><trkpt lat="46.1437368" lon="13.6489434"><ele>391.79999999999995</ele><time>2026-05-02T09:29:40.875Z</time></trkpt><trkpt lat="46.1438161" lon="13.6489995"><ele>390.4</ele><time>2026-05-02T09:29:41.875Z</time></trkpt><trkpt lat="46.1439018" lon="13.6490489"><ele>389.0</ele><time>2026-05-02T09:29:42.882Z</time></trkpt><trkpt lat="46.143998" lon="13.6490707"><ele>390.2</ele><time>2026-05-02T09:29:43.881Z</time></trkpt><trkpt lat="46.1440996" lon="13.6490745"><ele>391.4</ele><time>2026-05-02T09:29:44.893Z</time></trkpt><trkpt lat="46.1441995" lon="13.649064"><ele>392.6</ele><time>2026-05-02T09:29:45.878Z</time></trkpt><trkpt lat="46.1443089" lon="13.6490686"><ele>393.8</ele><time>2026-05-02T09:29:46.875Z</time></trkpt><trkpt lat="46.1444023" lon="13.6490914"><ele>395.0</ele><time>2026-05-02T09:29:47.88Z</time></trkpt><trkpt lat="46.1444937" lon="13.6491128"><ele>394.99999999999994</ele><time>2026-05-02T09:29:48.879Z</time></trkpt><trkpt lat="46.1445844" lon="13.6491414"><ele>395.0</ele><time>2026-05-02T09:29:49.876Z</time></trkpt><trkpt lat="46.1446661" lon="13.6491601"><ele>395.0</ele><time>2026-05-02T09:29:50.885Z</time></trkpt><trkpt lat="46.1447462" lon="13.6491656"><ele>395.0</ele><time>2026-05-02T09:29:51.882Z</time></trkpt><trkpt lat="46.1448319" lon="13.6491711"><ele>394.99999999999994</ele><time>2026-05-02T09:29:52.876Z</time></trkpt><trkpt lat="46.1448993" lon="13.6491888"><ele>395.0</ele><time>2026-05-02T09:29:53.883Z</time></trkpt><trkpt lat="46.1450036" lon="13.6492281"><ele>395.25</ele><time>2026-05-02T09:29:55.876Z</time></trkpt><trkpt lat="46.1450968" lon="13.6493352"><ele>395.5</ele><time>2026-05-02T09:29:57.878Z</time></trkpt><trkpt lat="46.145266" lon="13.6494719"><ele>395.75</ele><time>2026-05-02T09:30:00.885Z</time></trkpt><trkpt lat="46.1453329" lon="13.6495168"><ele>396.0</ele><time>2026-05-02T09:30:01.875Z</time></trkpt><trkpt lat="46.1454015" lon="13.6495584"><ele>396.0</ele><time>2026-05-02T09:30:02.881Z</time></trkpt><trkpt lat="46.1454718" lon="13.6496041"><ele>396.0</ele><time>2026-05-02T09:30:03.877Z</time></trkpt><trkpt lat="46.1455493" lon="13.6496437"><ele>396.0</ele><time>2026-05-02T09:30:04.881Z</time></trkpt><trkpt lat="46.145613" lon="13.6496828"><ele>396.0</ele><time>2026-05-02T09:30:05.877Z</time></trkpt><trkpt lat="46.1456602" lon="13.6497692"><ele>396.0</ele><time>2026-05-02T09:30:06.884Z</time></trkpt><trkpt lat="46.145703" lon="13.6498605"><ele>396.0</ele><time>2026-05-02T09:30:07.876Z</time></trkpt><trkpt lat="46.145753" lon="13.6499332"><ele>396.8571428571429</ele><time>2026-05-02T09:30:08.882Z</time></trkpt><trkpt lat="46.1458018" lon="13.6500042"><ele>397.71428571428567</ele><time>2026-05-02T09:30:09.883Z</time></trkpt><trkpt lat="46.1458597" lon="13.6500577"><ele>398.57142857142856</ele><time>2026-05-02T09:30:10.877Z</time></trkpt><trkpt lat="46.145907" lon="13.6501417"><ele>399.42857142857144</ele><time>2026-05-02T09:30:11.875Z</time></trkpt><trkpt lat="46.1459576" lon="13.6502286"><ele>400.28571428571433</ele><time>2026-05-02T09:30:12.884Z</time></trkpt><trkpt lat="46.1460001" lon="13.6503201"><ele>401.1428571428571</ele><time>2026-05-02T09:30:13.873Z</time></trkpt><trkpt lat="46.1460496" lon="13.6504049"><ele>402.0</ele><time>2026-05-02T09:30:14.88Z</time></trkpt><trkpt lat="46.1461087" lon="13.6505014"><ele>402.0</ele><time>2026-05-02T09:30:15.874Z</time></trkpt><trkpt lat="46.1461869" lon="13.650586"><ele>402.0</ele><time>2026-05-02T09:30:16.877Z</time></trkpt><trkpt lat="46.1462685" lon="13.6506628"><ele>402.0</ele><time>2026-05-02T09:30:17.877Z</time></trkpt><trkpt lat="46.1463438" lon="13.650711"><ele>402.0</ele><time>2026-05-02T09:30:18.876Z</time></trkpt><trkpt lat="46.1464718" lon="13.6508775"><ele>402.0</ele><time>2026-05-02T09:30:21.875Z</time></trkpt><trkpt lat="46.1465311" lon="13.6510201"><ele>402.0</ele><time>2026-05-02T09:30:23.879Z</time></trkpt><trkpt lat="46.1465835" lon="13.6510749"><ele>402.0</ele><time>2026-05-02T09:30:24.875Z</time></trkpt><trkpt lat="46.1466411" lon="13.6511404"><ele>402.0</ele><time>2026-05-02T09:30:25.884Z</time></trkpt><trkpt lat="46.1467153" lon="13.6512128"><ele>402.0</ele><time>2026-05-02T09:30:26.875Z</time></trkpt><trkpt lat="46.1468015" lon="13.6512657"><ele>402.0</ele><time>2026-05-02T09:30:27.886Z</time></trkpt><trkpt lat="46.1468933" lon="13.6513109"><ele>404.40000000000003</ele><time>2026-05-02T09:30:28.875Z</time></trkpt><trkpt lat="46.1469784" lon="13.6513587"><ele>406.8</ele><time>2026-05-02T09:30:29.874Z</time></trkpt><trkpt lat="46.1470667" lon="13.6514164"><ele>409.2</ele><time>2026-05-02T09:30:30.878Z</time></trkpt><trkpt lat="46.1471524" lon="13.6514784"><ele>411.6</ele><time>2026-05-02T09:30:31.873Z</time></trkpt><trkpt lat="46.1472412" lon="13.6515508"><ele>414.0</ele><time>2026-05-02T09:30:32.877Z</time></trkpt><trkpt lat="46.1473166" lon="13.651641"><ele>413.8333333333333</ele><time>2026-05-02T09:30:33.872Z</time></trkpt><trkpt lat="46.1473843" lon="13.6517306"><ele>413.66666666666663</ele><time>2026-05-02T09:30:34.882Z</time></trkpt><trkpt lat="46.1474497" lon="13.6518106"><ele>413.5</ele><time>2026-05-02T09:30:35.871Z</time></trkpt><trkpt lat="46.1475144" lon="13.6518825"><ele>413.3333333333333</ele><time>2026-05-02T09:30:36.883Z</time></trkpt><trkpt lat="46.1475782" lon="13.651954"><ele>413.16666666666663</ele><time>2026-05-02T09:30:37.872Z</time></trkpt><trkpt lat="46.1476396" lon="13.6520327"><ele>413.0</ele><time>2026-05-02T09:30:38.887Z</time></trkpt><trkpt lat="46.1477105" lon="13.6520867"><ele>413.0</ele><time>2026-05-02T09:30:39.878Z</time></trkpt><trkpt lat="46.147846" lon="13.6521901"><ele>413.0</ele><time>2026-05-02T09:30:41.881Z</time></trkpt><trkpt lat="46.1478984" lon="13.6522447"><ele>413.0</ele><time>2026-05-02T09:30:42.884Z</time></trkpt><trkpt lat="46.1479733" lon="13.6523085"><ele>413.0</ele><time>2026-05-02T09:30:43.881Z</time></trkpt><trkpt lat="46.1480575" lon="13.652353"><ele>413.0</ele><time>2026-05-02T09:30:44.873Z</time></trkpt><trkpt lat="46.1481349" lon="13.6524086"><ele>412.8333333333333</ele><time>2026-05-02T09:30:45.875Z</time></trkpt><trkpt lat="46.1482186" lon="13.6524409"><ele>412.66666666666663</ele><time>2026-05-02T09:30:46.877Z</time></trkpt><trkpt lat="46.1482959" lon="13.6524864"><ele>412.5</ele><time>2026-05-02T09:30:47.875Z</time></trkpt><trkpt lat="46.1483747" lon="13.6525005"><ele>412.33333333333337</ele><time>2026-05-02T09:30:48.874Z</time></trkpt><trkpt lat="46.1484457" lon="13.6524951"><ele>412.1666666666667</ele><time>2026-05-02T09:30:49.876Z</time></trkpt><trkpt lat="46.1485214" lon="13.6524703"><ele>412.0</ele><time>2026-05-02T09:30:50.87Z</time></trkpt><trkpt lat="46.1485997" lon="13.6524508"><ele>412.00000000000006</ele><time>2026-05-02T09:30:51.881Z</time></trkpt><trkpt lat="46.1486814" lon="13.6524018"><ele>412.0</ele><time>2026-05-02T09:30:52.873Z</time></trkpt><trkpt lat="46.1487551" lon="13.6523494"><ele>412.0</ele><time>2026-05-02T09:30:53.876Z</time></trkpt><trkpt lat="46.1488191" lon="13.652284"><ele>412.0</ele><time>2026-05-02T09:30:54.876Z</time></trkpt><trkpt lat="46.1488723" lon="13.6521878"><ele>412.00000000000006</ele><time>2026-05-02T09:30:55.881Z</time></trkpt><trkpt lat="46.1489191" lon="13.652042"><ele>412.0</ele><time>2026-05-02T09:30:56.869Z</time></trkpt><trkpt lat="46.1489653" lon="13.651888"><ele>415.0</ele><time>2026-05-02T09:30:57.88Z</time></trkpt><trkpt lat="46.149031" lon="13.651751"><ele>418.0</ele><time>2026-05-02T09:30:58.875Z</time></trkpt><trkpt lat="46.149104" lon="13.6516201"><ele>421.0</ele><time>2026-05-02T09:30:59.881Z</time></trkpt><trkpt lat="46.1491821" lon="13.6515101"><ele>424.0</ele><time>2026-05-02T09:31:00.882Z</time></trkpt><trkpt lat="46.1493444" lon="13.6513083"><ele>424.00000000000006</ele><time>2026-05-02T09:31:02.882Z</time></trkpt><trkpt lat="46.1493981" lon="13.6512483"><ele>424.0</ele><time>2026-05-02T09:31:03.886Z</time></trkpt><trkpt lat="46.1494549" lon="13.651192"><ele>424.0</ele><time>2026-05-02T09:31:04.883Z</time></trkpt><trkpt lat="46.1495554" lon="13.6511547"><ele>424.0</ele><time>2026-05-02T09:31:06.877Z</time></trkpt><trkpt lat="46.1495264" lon="13.6513085"><ele>424.00000000000006</ele><time>2026-05-02T09:31:10.878Z</time></trkpt><trkpt lat="46.1494932" lon="13.6514174"><ele>424.0</ele><time>2026-05-02T09:31:11.884Z</time></trkpt><trkpt lat="46.1494619" lon="13.6515347"><ele>424.0</ele><time>2026-05-02T09:31:12.88Z</time></trkpt><trkpt lat="46.149432" lon="13.6516787"><ele>424.0</ele><time>2026-05-02T09:31:13.876Z</time></trkpt><trkpt lat="46.1494036" lon="13.6518341"><ele>424.0</ele><time>2026-05-02T09:31:14.876Z</time></trkpt><trkpt lat="46.1493778" lon="13.6519774"><ele>424.0</ele><time>2026-05-02T09:31:15.876Z</time></trkpt><trkpt lat="46.1493527" lon="13.6521264"><ele>424.0</ele><time>2026-05-02T09:31:16.875Z</time></trkpt><trkpt lat="46.1493485" lon="13.652255"><ele>422.6</ele><time>2026-05-02T09:31:17.871Z</time></trkpt><trkpt lat="46.1493625" lon="13.6523622"><ele>421.2</ele><time>2026-05-02T09:31:18.879Z</time></trkpt><trkpt lat="46.1493804" lon="13.6524715"><ele>419.8</ele><time>2026-05-02T09:31:19.876Z</time></trkpt><trkpt lat="46.1494094" lon="13.6525888"><ele>418.40000000000003</ele><time>2026-05-02T09:31:20.875Z</time></trkpt><trkpt lat="46.1494745" lon="13.652648"><ele>417.0</ele><time>2026-05-02T09:31:21.875Z</time></trkpt><trkpt lat="46.1497637" lon="13.6528081"><ele>419.75</ele><time>2026-05-02T09:31:23.874Z</time></trkpt><trkpt lat="46.1498983" lon="13.6529045"><ele>422.5</ele><time>2026-05-02T09:31:24.891Z</time></trkpt><trkpt lat="46.1499839" lon="13.6529882"><ele>425.25</ele><time>2026-05-02T09:31:25.873Z</time></trkpt><trkpt lat="46.1500849" lon="13.653066"><ele>428.0</ele><time>2026-05-02T09:31:26.878Z</time></trkpt><trkpt lat="46.1501849" lon="13.6531394"><ele>428.0</ele><time>2026-05-02T09:31:27.877Z</time></trkpt><trkpt lat="46.1502844" lon="13.653207"><ele>427.99999999999994</ele><time>2026-05-02T09:31:28.878Z</time></trkpt><trkpt lat="46.1503838" lon="13.6532714"><ele>427.99999999999994</ele><time>2026-05-02T09:31:29.875Z</time></trkpt><trkpt lat="46.1504837" lon="13.6533298"><ele>428.0</ele><time>2026-05-02T09:31:30.868Z</time></trkpt><trkpt lat="46.1505725" lon="13.6533962"><ele>428.0</ele><time>2026-05-02T09:31:31.87Z</time></trkpt><trkpt lat="46.1506613" lon="13.6534418"><ele>427.16666666666663</ele><time>2026-05-02T09:31:32.881Z</time></trkpt><trkpt lat="46.1507383" lon="13.6534792"><ele>426.3333333333333</ele><time>2026-05-02T09:31:33.88Z</time></trkpt><trkpt lat="46.1508081" lon="13.65351"><ele>425.5</ele><time>2026-05-02T09:31:34.878Z</time></trkpt><trkpt lat="46.1508805" lon="13.6535605"><ele>424.66666666666663</ele><time>2026-05-02T09:31:35.883Z</time></trkpt><trkpt lat="46.1509585" lon="13.6536217"><ele>423.8333333333333</ele><time>2026-05-02T09:31:36.883Z</time></trkpt><trkpt lat="46.1510492" lon="13.6536768"><ele>423.0</ele><time>2026-05-02T09:31:37.871Z</time></trkpt><trkpt lat="46.1511372" lon="13.6537204"><ele>423.0</ele><time>2026-05-02T09:31:38.876Z</time></trkpt><trkpt lat="46.1512013" lon="13.6537851"><ele>423.0</ele><time>2026-05-02T09:31:39.874Z</time></trkpt><trkpt lat="46.1512494" lon="13.6538487"><ele>423.0</ele><time>2026-05-02T09:31:40.872Z</time></trkpt><trkpt lat="46.1513557" lon="13.6538883"><ele>423.0</ele><time>2026-05-02T09:31:42.875Z</time></trkpt><trkpt lat="46.1515571" lon="13.6538432"><ele>424.0</ele><time>2026-05-02T09:31:45.88Z</time></trkpt><trkpt lat="46.1516209" lon="13.6538511"><ele>425.0</ele><time>2026-05-02T09:31:46.877Z</time></trkpt><trkpt lat="46.1516943" lon="13.6538876"><ele>425.99999999999994</ele><time>2026-05-02T09:31:48.878Z</time></trkpt><trkpt lat="46.1517722" lon="13.6539595"><ele>427.0</ele><time>2026-05-02T09:31:50.875Z</time></trkpt><trkpt lat="46.1518908" lon="13.6540259"><ele>428.0</ele><time>2026-05-02T09:31:52.877Z</time></trkpt><trkpt lat="46.1520062" lon="13.6540955"><ele>428.0</ele><time>2026-05-02T09:31:54.879Z</time></trkpt><trkpt lat="46.1521091" lon="13.6540787"><ele>427.99999999999994</ele><time>2026-05-02T09:31:56.879Z</time></trkpt><trkpt lat="46.1522353" lon="13.6540778"><ele>427.99999999999994</ele><time>2026-05-02T09:31:58.877Z</time></trkpt><trkpt lat="46.1523074" lon="13.6540987"><ele>428.0</ele><time>2026-05-02T09:31:59.877Z</time></trkpt><trkpt lat="46.1523932" lon="13.6541034"><ele>428.0</ele><time>2026-05-02T09:32:00.882Z</time></trkpt><trkpt lat="46.1524831" lon="13.654102"><ele>429.79999999999995</ele><time>2026-05-02T09:32:01.87Z</time></trkpt><trkpt lat="46.1525679" lon="13.6540889"><ele>431.59999999999997</ele><time>2026-05-02T09:32:02.885Z</time></trkpt><trkpt lat="46.1526555" lon="13.6540706"><ele>433.40000000000003</ele><time>2026-05-02T09:32:03.87Z</time></trkpt><trkpt lat="46.1528122" lon="13.6540413"><ele>435.20000000000005</ele><time>2026-05-02T09:32:05.884Z</time></trkpt><trkpt lat="46.1528941" lon="13.6540421"><ele>437.0</ele><time>2026-05-02T09:32:06.885Z</time></trkpt><trkpt lat="46.1529658" lon="13.654049"><ele>436.99999999999994</ele><time>2026-05-02T09:32:07.883Z</time></trkpt><trkpt lat="46.1530784" lon="13.6540503"><ele>437.0</ele><time>2026-05-02T09:32:09.875Z</time></trkpt><trkpt lat="46.1531376" lon="13.6540083"><ele>437.0</ele><time>2026-05-02T09:32:10.875Z</time></trkpt><trkpt lat="46.1532115" lon="13.6539503"><ele>437.0</ele><time>2026-05-02T09:32:11.875Z</time></trkpt><trkpt lat="46.1532918" lon="13.6538805"><ele>436.99999999999994</ele><time>2026-05-02T09:32:12.881Z</time></trkpt><trkpt lat="46.1533646" lon="13.6538092"><ele>437.0</ele><time>2026-05-02T09:32:13.88Z</time></trkpt><trkpt lat="46.1534359" lon="13.6537343"><ele>437.57142857142856</ele><time>2026-05-02T09:32:14.873Z</time></trkpt><trkpt lat="46.1534963" lon="13.6536734"><ele>438.14285714285717</ele><time>2026-05-02T09:32:15.882Z</time></trkpt><trkpt lat="46.153564" lon="13.653644"><ele>438.7142857142857</ele><time>2026-05-02T09:32:16.873Z</time></trkpt><trkpt lat="46.1536296" lon="13.6536297"><ele>439.2857142857143</ele><time>2026-05-02T09:32:17.877Z</time></trkpt><trkpt lat="46.1537094" lon="13.6536969"><ele>439.8571428571429</ele><time>2026-05-02T09:32:19.877Z</time></trkpt><trkpt lat="46.1537349" lon="13.6537836"><ele>440.42857142857144</ele><time>2026-05-02T09:32:20.875Z</time></trkpt><trkpt lat="46.1537669" lon="13.6538911"><ele>441.0</ele><time>2026-05-02T09:32:21.873Z</time></trkpt><trkpt lat="46.1537898" lon="13.6539796"><ele>441.0</ele><time>2026-05-02T09:32:22.89Z</time></trkpt><trkpt lat="46.1538895" lon="13.6541025"><ele>441.0</ele><time>2026-05-02T09:32:24.873Z</time></trkpt><trkpt lat="46.1540979" lon="13.6541448"><ele>441.0</ele><time>2026-05-02T09:32:26.889Z</time></trkpt><trkpt lat="46.1542" lon="13.6541606"><ele>441.0</ele><time>2026-05-02T09:32:27.874Z</time></trkpt><trkpt lat="46.1542953" lon="13.6541858"><ele>442.3333333333333</ele><time>2026-05-02T09:32:28.882Z</time></trkpt><trkpt lat="46.1543828" lon="13.6542069"><ele>443.66666666666663</ele><time>2026-05-02T09:32:29.874Z</time></trkpt><trkpt lat="46.1544634" lon="13.6542346"><ele>445.0</ele><time>2026-05-02T09:32:30.879Z</time></trkpt><trkpt lat="46.1545313" lon="13.6542556"><ele>446.3333333333333</ele><time>2026-05-02T09:32:31.871Z</time></trkpt><trkpt lat="46.1545959" lon="13.6542999"><ele>447.66666666666663</ele><time>2026-05-02T09:32:32.869Z</time></trkpt><trkpt lat="46.1546779" lon="13.6543505"><ele>449.0</ele><time>2026-05-02T09:32:33.874Z</time></trkpt><trkpt lat="46.1547695" lon="13.6543995"><ele>446.0</ele><time>2026-05-02T09:32:34.875Z</time></trkpt><trkpt lat="46.1548573" lon="13.6544601"><ele>443.0</ele><time>2026-05-02T09:32:35.869Z</time></trkpt><trkpt lat="46.1549535" lon="13.654541"><ele>440.0</ele><time>2026-05-02T09:32:36.888Z</time></trkpt><trkpt lat="46.1550386" lon="13.6546286"><ele>437.0</ele><time>2026-05-02T09:32:37.882Z</time></trkpt><trkpt lat="46.1551144" lon="13.6546931"><ele>434.0</ele><time>2026-05-02T09:32:38.876Z</time></trkpt><trkpt lat="46.1551739" lon="13.6547607"><ele>433.99999999999994</ele><time>2026-05-02T09:32:39.868Z</time></trkpt><trkpt lat="46.1552404" lon="13.6548238"><ele>434.0</ele><time>2026-05-02T09:32:40.885Z</time></trkpt><trkpt lat="46.1553137" lon="13.6548705"><ele>434.0</ele><time>2026-05-02T09:32:41.874Z</time></trkpt><trkpt lat="46.1553857" lon="13.6549015"><ele>434.0</ele><time>2026-05-02T09:32:42.869Z</time></trkpt><trkpt lat="46.1555022" lon="13.6548718"><ele>433.99999999999994</ele><time>2026-05-02T09:32:44.869Z</time></trkpt><trkpt lat="46.1555435" lon="13.6547866"><ele>434.0</ele><time>2026-05-02T09:32:45.873Z</time></trkpt><trkpt lat="46.1555904" lon="13.6545807"><ele>434.0</ele><time>2026-05-02T09:32:48.881Z</time></trkpt><trkpt lat="46.1556616" lon="13.6546579"><ele>434.0</ele><time>2026-05-02T09:32:50.869Z</time></trkpt><trkpt lat="46.1557458" lon="13.6547922"><ele>434.0</ele><time>2026-05-02T09:32:52.87Z</time></trkpt><trkpt lat="46.1557949" lon="13.6548635"><ele>434.0</ele><time>2026-05-02T09:32:53.874Z</time></trkpt><trkpt lat="46.155871" lon="13.6549303"><ele>434.0</ele><time>2026-05-02T09:32:55.871Z</time></trkpt><trkpt lat="46.1559584" lon="13.6549211"><ele>435.0</ele><time>2026-05-02T09:32:57.872Z</time></trkpt><trkpt lat="46.1560782" lon="13.6548535"><ele>436.0</ele><time>2026-05-02T09:32:59.88Z</time></trkpt><trkpt lat="46.1561458" lon="13.654784"><ele>437.0</ele><time>2026-05-02T09:33:00.869Z</time></trkpt><trkpt lat="46.1562219" lon="13.6546969"><ele>438.0</ele><time>2026-05-02T09:33:01.872Z</time></trkpt><trkpt lat="46.1563128" lon="13.6545993"><ele>439.0</ele><time>2026-05-02T09:33:02.873Z</time></trkpt><trkpt lat="46.1564012" lon="13.6545112"><ele>445.0</ele><time>2026-05-02T09:33:03.872Z</time></trkpt><trkpt lat="46.1564812" lon="13.6544121"><ele>451.0</ele><time>2026-05-02T09:33:04.884Z</time></trkpt><trkpt lat="46.1565548" lon="13.6543304"><ele>457.0</ele><time>2026-05-02T09:33:05.873Z</time></trkpt><trkpt lat="46.1566329" lon="13.6542602"><ele>463.0</ele><time>2026-05-02T09:33:06.881Z</time></trkpt><trkpt lat="46.1567878" lon="13.6541455"><ele>463.0</ele><time>2026-05-02T09:33:08.88Z</time></trkpt><trkpt lat="46.1568705" lon="13.6541117"><ele>462.99999999999994</ele><time>2026-05-02T09:33:09.875Z</time></trkpt><trkpt lat="46.1569633" lon="13.654087"><ele>462.99999999999994</ele><time>2026-05-02T09:33:10.887Z</time></trkpt><trkpt lat="46.1570621" lon="13.6540848"><ele>463.0</ele><time>2026-05-02T09:33:11.88Z</time></trkpt><trkpt lat="46.1571598" lon="13.6540548"><ele>463.0</ele><time>2026-05-02T09:33:12.867Z</time></trkpt><trkpt lat="46.1572666" lon="13.6540047"><ele>463.0</ele><time>2026-05-02T09:33:13.885Z</time></trkpt><trkpt lat="46.157365" lon="13.6539516"><ele>462.99999999999994</ele><time>2026-05-02T09:33:14.884Z</time></trkpt><trkpt lat="46.1574563" lon="13.653894"><ele>462.99999999999994</ele><time>2026-05-02T09:33:15.88Z</time></trkpt><trkpt lat="46.1575484" lon="13.6538336"><ele>463.0</ele><time>2026-05-02T09:33:16.873Z</time></trkpt><trkpt lat="46.1576425" lon="13.6537736"><ele>463.0</ele><time>2026-05-02T09:33:17.87Z</time></trkpt><trkpt lat="46.1577306" lon="13.653708"><ele>460.83333333333337</ele><time>2026-05-02T09:33:18.873Z</time></trkpt><trkpt lat="46.1577977" lon="13.6536398"><ele>458.6666666666667</ele><time>2026-05-02T09:33:19.882Z</time></trkpt><trkpt lat="46.1578752" lon="13.6535761"><ele>456.5</ele><time>2026-05-02T09:33:20.885Z</time></trkpt><trkpt lat="46.1579534" lon="13.6535178"><ele>454.33333333333337</ele><time>2026-05-02T09:33:21.879Z</time></trkpt><trkpt lat="46.1580247" lon="13.6534506"><ele>452.1666666666667</ele><time>2026-05-02T09:33:22.876Z</time></trkpt><trkpt lat="46.1580954" lon="13.653387"><ele>450.0</ele><time>2026-05-02T09:33:23.869Z</time></trkpt><trkpt lat="46.1581594" lon="13.6533142"><ele>451.4</ele><time>2026-05-02T09:33:24.886Z</time></trkpt><trkpt lat="46.1582264" lon="13.6532613"><ele>452.8</ele><time>2026-05-02T09:33:25.876Z</time></trkpt><trkpt lat="46.1582966" lon="13.6532247"><ele>454.20000000000005</ele><time>2026-05-02T09:33:26.893Z</time></trkpt><trkpt lat="46.1583557" lon="13.6531807"><ele>455.6</ele><time>2026-05-02T09:33:27.88Z</time></trkpt><trkpt lat="46.1584905" lon="13.6529991"><ele>457.0</ele><time>2026-05-02T09:33:30.878Z</time></trkpt><trkpt lat="46.1584713" lon="13.6528866"><ele>457.00000000000006</ele><time>2026-05-02T09:33:31.874Z</time></trkpt><trkpt lat="46.1584413" lon="13.6527972"><ele>457.0</ele><time>2026-05-02T09:33:32.877Z</time></trkpt><trkpt lat="46.1584326" lon="13.6526685"><ele>457.0</ele><time>2026-05-02T09:33:34.873Z</time></trkpt><trkpt lat="46.1585005" lon="13.6526359"><ele>457.0</ele><time>2026-05-02T09:33:36.873Z</time></trkpt><trkpt lat="46.1585789" lon="13.6526711"><ele>457.00000000000006</ele><time>2026-05-02T09:33:38.878Z</time></trkpt><trkpt lat="46.1586701" lon="13.6528"><ele>457.0</ele><time>2026-05-02T09:33:40.876Z</time></trkpt><trkpt lat="46.1587461" lon="13.6529285"><ele>457.00000000000006</ele><time>2026-05-02T09:33:42.872Z</time></trkpt><trkpt lat="46.1588259" lon="13.6530539"><ele>457.0</ele><time>2026-05-02T09:33:44.877Z</time></trkpt><trkpt lat="46.158883" lon="13.6531187"><ele>457.0</ele><time>2026-05-02T09:33:45.884Z</time></trkpt><trkpt lat="46.1589489" lon="13.6531616"><ele>457.0</ele><time>2026-05-02T09:33:46.881Z</time></trkpt><trkpt lat="46.1590349" lon="13.6532015"><ele>457.00000000000006</ele><time>2026-05-02T09:33:47.873Z</time></trkpt><trkpt lat="46.1591046" lon="13.6532688"><ele>457.0</ele><time>2026-05-02T09:33:48.872Z</time></trkpt><trkpt lat="46.1592698" lon="13.6533974"><ele>456.33333333333337</ele><time>2026-05-02T09:33:50.874Z</time></trkpt><trkpt lat="46.159344" lon="13.6534691"><ele>455.6666666666667</ele><time>2026-05-02T09:33:51.869Z</time></trkpt><trkpt lat="46.159413" lon="13.653541"><ele>455.0</ele><time>2026-05-02T09:33:52.888Z</time></trkpt><trkpt lat="46.1594815" lon="13.6536015"><ele>454.33333333333337</ele><time>2026-05-02T09:33:53.868Z</time></trkpt><trkpt lat="46.1595641" lon="13.6536365"><ele>453.6666666666667</ele><time>2026-05-02T09:33:54.873Z</time></trkpt><trkpt lat="46.1596522" lon="13.6536679"><ele>453.0</ele><time>2026-05-02T09:33:55.875Z</time></trkpt><trkpt lat="46.1597309" lon="13.6536767"><ele>453.75</ele><time>2026-05-02T09:33:56.876Z</time></trkpt><trkpt lat="46.1598256" lon="13.6536762"><ele>454.5</ele><time>2026-05-02T09:33:57.873Z</time></trkpt><trkpt lat="46.1599375" lon="13.6536571"><ele>455.25</ele><time>2026-05-02T09:33:58.883Z</time></trkpt><trkpt lat="46.1600588" lon="13.6536362"><ele>456.0</ele><time>2026-05-02T09:33:59.874Z</time></trkpt><trkpt lat="46.1601877" lon="13.6536137"><ele>456.0</ele><time>2026-05-02T09:34:00.874Z</time></trkpt><trkpt lat="46.1603226" lon="13.6535859"><ele>456.0</ele><time>2026-05-02T09:34:01.876Z</time></trkpt><trkpt lat="46.1604505" lon="13.6535643"><ele>456.0</ele><time>2026-05-02T09:34:02.885Z</time></trkpt><trkpt lat="46.1605682" lon="13.6535395"><ele>456.0</ele><time>2026-05-02T09:34:03.884Z</time></trkpt><trkpt lat="46.1606793" lon="13.653497"><ele>457.6</ele><time>2026-05-02T09:34:04.876Z</time></trkpt><trkpt lat="46.1607724" lon="13.6534651"><ele>459.20000000000005</ele><time>2026-05-02T09:34:05.872Z</time></trkpt><trkpt lat="46.1608511" lon="13.6534323"><ele>460.79999999999995</ele><time>2026-05-02T09:34:06.871Z</time></trkpt><trkpt lat="46.160947" lon="13.6533961"><ele>462.4</ele><time>2026-05-02T09:34:07.871Z</time></trkpt><trkpt lat="46.1610521" lon="13.6534089"><ele>464.0</ele><time>2026-05-02T09:34:08.878Z</time></trkpt><trkpt lat="46.1611314" lon="13.6534392"><ele>464.0</ele><time>2026-05-02T09:34:09.878Z</time></trkpt><trkpt lat="46.1612992" lon="13.6534953"><ele>464.0</ele><time>2026-05-02T09:34:12.872Z</time></trkpt><trkpt lat="46.1613855" lon="13.6534697"><ele>464.0</ele><time>2026-05-02T09:34:14.871Z</time></trkpt><trkpt lat="46.1614836" lon="13.6533962"><ele>464.0</ele><time>2026-05-02T09:34:16.875Z</time></trkpt><trkpt lat="46.1615917" lon="13.653358"><ele>464.0</ele><time>2026-05-02T09:34:18.879Z</time></trkpt><trkpt lat="46.1616735" lon="13.6534134"><ele>464.0</ele><time>2026-05-02T09:34:20.877Z</time></trkpt><trkpt lat="46.1617426" lon="13.6535525"><ele>464.0</ele><time>2026-05-02T09:34:22.876Z</time></trkpt><trkpt lat="46.1618112" lon="13.6536725"><ele>464.0</ele><time>2026-05-02T09:34:24.878Z</time></trkpt><trkpt lat="46.1618867" lon="13.6537949"><ele>464.0</ele><time>2026-05-02T09:34:26.877Z</time></trkpt><trkpt lat="46.1619801" lon="13.6539325"><ele>466.25</ele><time>2026-05-02T09:34:28.879Z</time></trkpt><trkpt lat="46.1620394" lon="13.6540046"><ele>468.5</ele><time>2026-05-02T09:34:29.869Z</time></trkpt><trkpt lat="46.1620947" lon="13.6540723"><ele>470.75</ele><time>2026-05-02T09:34:30.88Z</time></trkpt><trkpt lat="46.1622693" lon="13.6542106"><ele>473.0</ele><time>2026-05-02T09:34:34.876Z</time></trkpt><trkpt lat="46.1621801" lon="13.6541255"><ele>473.0</ele><time>2026-05-02T09:34:48.884Z</time></trkpt><trkpt lat="46.1621134" lon="13.6540725"><ele>473.0</ele><time>2026-05-02T09:34:50.874Z</time></trkpt><trkpt lat="46.1620401" lon="13.6540471"><ele>473.0</ele><time>2026-05-02T09:34:52.873Z</time></trkpt><trkpt lat="46.1618415" lon="13.6538693"><ele>473.0</ele><time>2026-05-02T09:34:56.88Z</time></trkpt><trkpt lat="46.1617979" lon="13.6537953"><ele>472.99999999999994</ele><time>2026-05-02T09:34:57.879Z</time></trkpt><trkpt lat="46.1617341" lon="13.6536617"><ele>473.0</ele><time>2026-05-02T09:34:59.874Z</time></trkpt><trkpt lat="46.1616954" lon="13.6535792"><ele>473.0</ele><time>2026-05-02T09:35:01.877Z</time></trkpt><trkpt lat="46.1616482" lon="13.6534843"><ele>473.0</ele><time>2026-05-02T09:35:05.883Z</time></trkpt><trkpt lat="46.1617101" lon="13.6533811"><ele>472.99999999999994</ele><time>2026-05-02T09:35:08.881Z</time></trkpt><trkpt lat="46.1617733" lon="13.6532898"><ele>473.0</ele><time>2026-05-02T09:35:10.879Z</time></trkpt><trkpt lat="46.1618331" lon="13.6532377"><ele>471.2</ele><time>2026-05-02T09:35:12.872Z</time></trkpt><trkpt lat="46.1619108" lon="13.6532013"><ele>469.4</ele><time>2026-05-02T09:35:14.875Z</time></trkpt><trkpt lat="46.1620648" lon="13.6531174"><ele>467.59999999999997</ele><time>2026-05-02T09:35:18.88Z</time></trkpt><trkpt lat="46.1621357" lon="13.6530422"><ele>465.79999999999995</ele><time>2026-05-02T09:35:20.879Z</time></trkpt><trkpt lat="46.1622185" lon="13.6529562"><ele>464.0</ele><time>2026-05-02T09:35:22.876Z</time></trkpt><trkpt lat="46.1622755" lon="13.652891"><ele>463.99999999999994</ele><time>2026-05-02T09:35:23.879Z</time></trkpt><trkpt lat="46.1623281" lon="13.6528172"><ele>464.0</ele><time>2026-05-02T09:35:24.874Z</time></trkpt><trkpt lat="46.1623781" lon="13.6527371"><ele>464.0</ele><time>2026-05-02T09:35:25.875Z</time></trkpt><trkpt lat="46.1624215" lon="13.6526518"><ele>464.0</ele><time>2026-05-02T09:35:26.878Z</time></trkpt><trkpt lat="46.1624589" lon="13.6525678"><ele>463.99999999999994</ele><time>2026-05-02T09:35:27.872Z</time></trkpt><trkpt lat="46.1624943" lon="13.652409"><ele>464.0</ele><time>2026-05-02T09:35:29.873Z</time></trkpt><trkpt lat="46.1625194" lon="13.6522903"><ele>465.2</ele><time>2026-05-02T09:35:31.879Z</time></trkpt><trkpt lat="46.1625472" lon="13.6521791"><ele>466.4</ele><time>2026-05-02T09:35:33.875Z</time></trkpt><trkpt lat="46.1626038" lon="13.6520757"><ele>467.6</ele><time>2026-05-02T09:35:35.873Z</time></trkpt><trkpt lat="46.1627369" lon="13.6519221"><ele>468.8</ele><time>2026-05-02T09:35:38.872Z</time></trkpt><trkpt lat="46.1628085" lon="13.6518644"><ele>470.0</ele><time>2026-05-02T09:35:39.872Z</time></trkpt><trkpt lat="46.1628649" lon="13.6518025"><ele>473.99999999999994</ele><time>2026-05-02T09:35:40.877Z</time></trkpt><trkpt lat="46.1629117" lon="13.6517165"><ele>478.0</ele><time>2026-05-02T09:35:41.871Z</time></trkpt><trkpt lat="46.1629551" lon="13.651623"><ele>482.0</ele><time>2026-05-02T09:35:42.884Z</time></trkpt><trkpt lat="46.1630024" lon="13.6515163"><ele>486.0</ele><time>2026-05-02T09:35:43.884Z</time></trkpt><trkpt lat="46.1630425" lon="13.6514139"><ele>489.99999999999994</ele><time>2026-05-02T09:35:44.872Z</time></trkpt><trkpt lat="46.1630819" lon="13.6513154"><ele>494.0</ele><time>2026-05-02T09:35:45.872Z</time></trkpt><trkpt lat="46.163114" lon="13.6512165"><ele>493.99999999999994</ele><time>2026-05-02T09:35:46.871Z</time></trkpt><trkpt lat="46.1631448" lon="13.6511282"><ele>494.0</ele><time>2026-05-02T09:35:47.881Z</time></trkpt><trkpt lat="46.1631757" lon="13.651046"><ele>494.0</ele><time>2026-05-02T09:35:48.888Z</time></trkpt><trkpt lat="46.1632141" lon="13.6509702"><ele>494.0</ele><time>2026-05-02T09:35:49.876Z</time></trkpt><trkpt lat="46.16326" lon="13.6509005"><ele>493.99999999999994</ele><time>2026-05-02T09:35:50.88Z</time></trkpt><trkpt lat="46.1633688" lon="13.6508276"><ele>494.0</ele><time>2026-05-02T09:35:52.877Z</time></trkpt><trkpt lat="46.1634946" lon="13.6507612"><ele>493.2</ele><time>2026-05-02T09:35:54.867Z</time></trkpt><trkpt lat="46.1635668" lon="13.6507138"><ele>492.4</ele><time>2026-05-02T09:35:55.869Z</time></trkpt><trkpt lat="46.1636484" lon="13.6506677"><ele>491.6</ele><time>2026-05-02T09:35:56.875Z</time></trkpt><trkpt lat="46.1638231" lon="13.6505754"><ele>490.8</ele><time>2026-05-02T09:35:58.882Z</time></trkpt><trkpt lat="46.1638963" lon="13.6505176"><ele>490.0</ele><time>2026-05-02T09:35:59.87Z</time></trkpt><trkpt lat="46.1639538" lon="13.6504659"><ele>490.0</ele><time>2026-05-02T09:36:00.877Z</time></trkpt><trkpt lat="46.1639727" lon="13.6503737"><ele>490.0</ele><time>2026-05-02T09:36:02.875Z</time></trkpt><trkpt lat="46.1638797" lon="13.6503706"><ele>490.0</ele><time>2026-05-02T09:36:06.874Z</time></trkpt><trkpt lat="46.1637469" lon="13.6503731"><ele>490.0</ele><time>2026-05-02T09:36:08.877Z</time></trkpt><trkpt lat="46.1636569" lon="13.6503764"><ele>490.0</ele><time>2026-05-02T09:36:09.87Z</time></trkpt><trkpt lat="46.1635483" lon="13.6503894"><ele>490.0</ele><time>2026-05-02T09:36:10.871Z</time></trkpt><trkpt lat="46.1634307" lon="13.650406"><ele>490.0</ele><time>2026-05-02T09:36:11.884Z</time></trkpt><trkpt lat="46.1633054" lon="13.6504341"><ele>490.0</ele><time>2026-05-02T09:36:12.875Z</time></trkpt><trkpt lat="46.163217" lon="13.6504645"><ele>490.0</ele><time>2026-05-02T09:36:13.868Z</time></trkpt><trkpt lat="46.1631225" lon="13.6504956"><ele>490.0</ele><time>2026-05-02T09:36:14.882Z</time></trkpt><trkpt lat="46.1630405" lon="13.6505096"><ele>496.8</ele><time>2026-05-02T09:36:15.873Z</time></trkpt><trkpt lat="46.162968" lon="13.6505508"><ele>503.6</ele><time>2026-05-02T09:36:16.875Z</time></trkpt><trkpt lat="46.1628976" lon="13.6506063"><ele>510.4</ele><time>2026-05-02T09:36:17.873Z</time></trkpt><trkpt lat="46.1628169" lon="13.650658"><ele>517.2</ele><time>2026-05-02T09:36:18.881Z</time></trkpt><trkpt lat="46.1626666" lon="13.6507563"><ele>524.0</ele><time>2026-05-02T09:36:20.878Z</time></trkpt><trkpt lat="46.1626039" lon="13.6507856"><ele>524.0</ele><time>2026-05-02T09:36:21.872Z</time></trkpt><trkpt lat="46.1625359" lon="13.650804"><ele>524.0</ele><time>2026-05-02T09:36:22.881Z</time></trkpt><trkpt lat="46.1624694" lon="13.6508098"><ele>524.0</ele><time>2026-05-02T09:36:23.886Z</time></trkpt><trkpt lat="46.1623439" lon="13.6507929"><ele>524.0</ele><time>2026-05-02T09:36:25.873Z</time></trkpt><trkpt lat="46.1622799" lon="13.6507932"><ele>524.0</ele><time>2026-05-02T09:36:26.879Z</time></trkpt><trkpt lat="46.1622157" lon="13.6508109"><ele>524.0</ele><time>2026-05-02T09:36:27.875Z</time></trkpt><trkpt lat="46.1621557" lon="13.6508501"><ele>525.4</ele><time>2026-05-02T09:36:28.878Z</time></trkpt><trkpt lat="46.162096" lon="13.6509595"><ele>526.8</ele><time>2026-05-02T09:36:30.869Z</time></trkpt><trkpt lat="46.1620767" lon="13.6510735"><ele>528.2</ele><time>2026-05-02T09:36:32.873Z</time></trkpt><trkpt lat="46.162031" lon="13.6511895"><ele>529.6</ele><time>2026-05-02T09:36:34.884Z</time></trkpt><trkpt lat="46.1619424" lon="13.6512832"><ele>531.0</ele><time>2026-05-02T09:36:36.873Z</time></trkpt><trkpt lat="46.1618383" lon="13.6513589"><ele>531.0</ele><time>2026-05-02T09:36:38.867Z</time></trkpt><trkpt lat="46.1617718" lon="13.6513831"><ele>531.0</ele><time>2026-05-02T09:36:39.873Z</time></trkpt><trkpt lat="46.1616234" lon="13.6514418"><ele>531.0</ele><time>2026-05-02T09:36:41.872Z</time></trkpt><trkpt lat="46.1615527" lon="13.6514839"><ele>531.0</ele><time>2026-05-02T09:36:42.88Z</time></trkpt><trkpt lat="46.1614859" lon="13.6515284"><ele>531.0</ele><time>2026-05-02T09:36:43.873Z</time></trkpt><trkpt lat="46.1614087" lon="13.6515714"><ele>531.5714285714286</ele><time>2026-05-02T09:36:44.874Z</time></trkpt><trkpt lat="46.1613369" lon="13.6515964"><ele>532.1428571428572</ele><time>2026-05-02T09:36:45.874Z</time></trkpt><trkpt lat="46.1612675" lon="13.6515963"><ele>532.7142857142858</ele><time>2026-05-02T09:36:46.878Z</time></trkpt><trkpt lat="46.1612002" lon="13.6515842"><ele>533.2857142857143</ele><time>2026-05-02T09:36:47.871Z</time></trkpt><trkpt lat="46.1611276" lon="13.651537"><ele>533.8571428571429</ele><time>2026-05-02T09:36:48.872Z</time></trkpt><trkpt lat="46.1610601" lon="13.6514737"><ele>534.4285714285714</ele><time>2026-05-02T09:36:49.879Z</time></trkpt><trkpt lat="46.1609996" lon="13.6514048"><ele>535.0</ele><time>2026-05-02T09:36:50.876Z</time></trkpt><trkpt lat="46.1609401" lon="13.6513497"><ele>535.0</ele><time>2026-05-02T09:36:51.873Z</time></trkpt><trkpt lat="46.1608957" lon="13.6512852"><ele>535.0</ele><time>2026-05-02T09:36:52.871Z</time></trkpt><trkpt lat="46.160828" lon="13.6511384"><ele>535.0</ele><time>2026-05-02T09:36:54.872Z</time></trkpt><trkpt lat="46.1607636" lon="13.6509946"><ele>535.0</ele><time>2026-05-02T09:36:56.877Z</time></trkpt><trkpt lat="46.1606875" lon="13.6508769"><ele>535.0</ele><time>2026-05-02T09:36:58.884Z</time></trkpt><trkpt lat="46.1605883" lon="13.6508199"><ele>541.5</ele><time>2026-05-02T09:37:00.87Z</time></trkpt><trkpt lat="46.1603934" lon="13.6507019"><ele>548.0</ele><time>2026-05-02T09:37:03.881Z</time></trkpt><trkpt lat="46.1603358" lon="13.6506563"><ele>554.5</ele><time>2026-05-02T09:37:04.878Z</time></trkpt><trkpt lat="46.160262" lon="13.6505234"><ele>561.0</ele><time>2026-05-02T09:37:06.875Z</time></trkpt><trkpt lat="46.1601988" lon="13.6503865"><ele>561.0</ele><time>2026-05-02T09:37:08.88Z</time></trkpt><trkpt lat="46.1601339" lon="13.6502966"><ele>561.0</ele><time>2026-05-02T09:37:10.874Z</time></trkpt><trkpt lat="46.1600639" lon="13.6502644"><ele>561.0</ele><time>2026-05-02T09:37:12.873Z</time></trkpt><trkpt lat="46.1599724" lon="13.650297"><ele>561.0</ele><time>2026-05-02T09:37:15.871Z</time></trkpt><trkpt lat="46.1598577" lon="13.6503824"><ele>561.0</ele><time>2026-05-02T09:37:17.872Z</time></trkpt><trkpt lat="46.1597823" lon="13.6504274"><ele>558.4</ele><time>2026-05-02T09:37:18.871Z</time></trkpt><trkpt lat="46.1597043" lon="13.6504582"><ele>555.8</ele><time>2026-05-02T09:37:19.873Z</time></trkpt><trkpt lat="46.1596184" lon="13.6505068"><ele>553.1999999999999</ele><time>2026-05-02T09:37:20.867Z</time></trkpt><trkpt lat="46.159549" lon="13.6505526"><ele>550.6</ele><time>2026-05-02T09:37:21.871Z</time></trkpt><trkpt lat="46.1594243" lon="13.6506764"><ele>548.0</ele><time>2026-05-02T09:37:23.869Z</time></trkpt><trkpt lat="46.1593707" lon="13.6507243"><ele>548.0</ele><time>2026-05-02T09:37:24.878Z</time></trkpt><trkpt lat="46.1592608" lon="13.6507524"><ele>548.0</ele><time>2026-05-02T09:37:26.871Z</time></trkpt><trkpt lat="46.1591574" lon="13.6506967"><ele>548.0</ele><time>2026-05-02T09:37:28.872Z</time></trkpt><trkpt lat="46.1591069" lon="13.650572"><ele>548.0</ele><time>2026-05-02T09:37:30.88Z</time></trkpt><trkpt lat="46.1590959" lon="13.6504104"><ele>548.0</ele><time>2026-05-02T09:37:32.876Z</time></trkpt><trkpt lat="46.1590735" lon="13.6502627"><ele>547.1999999999999</ele><time>2026-05-02T09:37:34.873Z</time></trkpt><trkpt lat="46.159017" lon="13.6502031"><ele>546.4</ele><time>2026-05-02T09:37:36.882Z</time></trkpt><trkpt lat="46.1589705" lon="13.650139"><ele>545.5999999999999</ele><time>2026-05-02T09:37:38.875Z</time></trkpt><trkpt lat="46.1589267" lon="13.650046"><ele>544.8</ele><time>2026-05-02T09:38:15.875Z</time></trkpt><trkpt lat="46.1588061" lon="13.6497612"><ele>544.0</ele><time>2026-05-02T09:38:19.873Z</time></trkpt><trkpt lat="46.1587676" lon="13.6496599"><ele>544.0</ele><time>2026-05-02T09:38:20.873Z</time></trkpt><trkpt lat="46.1587445" lon="13.6495331"><ele>544.0</ele><time>2026-05-02T09:38:21.871Z</time></trkpt><trkpt lat="46.1587151" lon="13.6494233"><ele>544.0</ele><time>2026-05-02T09:38:22.883Z</time></trkpt><trkpt lat="46.1586947" lon="13.6492568"><ele>544.0</ele><time>2026-05-02T09:38:24.867Z</time></trkpt><trkpt lat="46.1586996" lon="13.6490781"><ele>544.0</ele><time>2026-05-02T09:38:26.873Z</time></trkpt><trkpt lat="46.1587361" lon="13.6489293"><ele>548.0</ele><time>2026-05-02T09:38:28.877Z</time></trkpt><trkpt lat="46.1587501" lon="13.6487938"><ele>552.0</ele><time>2026-05-02T09:38:30.874Z</time></trkpt><trkpt lat="46.1586851" lon="13.6486743"><ele>556.0</ele><time>2026-05-02T09:38:32.881Z</time></trkpt><trkpt lat="46.1586309" lon="13.6486204"><ele>560.0</ele><time>2026-05-02T09:38:33.874Z</time></trkpt><trkpt lat="46.1585649" lon="13.6485674"><ele>564.0</ele><time>2026-05-02T09:38:34.877Z</time></trkpt><trkpt lat="46.1584873" lon="13.648516"><ele>568.0</ele><time>2026-05-02T09:38:35.88Z</time></trkpt><trkpt lat="46.1584117" lon="13.648474"><ele>573.25</ele><time>2026-05-02T09:38:36.877Z</time></trkpt><trkpt lat="46.1582339" lon="13.6483731"><ele>578.5</ele><time>2026-05-02T09:38:39.88Z</time></trkpt><trkpt lat="46.1581733" lon="13.6483265"><ele>583.75</ele><time>2026-05-02T09:38:40.872Z</time></trkpt><trkpt lat="46.1580927" lon="13.648183"><ele>589.0</ele><time>2026-05-02T09:38:42.885Z</time></trkpt><trkpt lat="46.158068" lon="13.6480104"><ele>589.0</ele><time>2026-05-02T09:38:44.874Z</time></trkpt><trkpt lat="46.1580818" lon="13.6479045"><ele>589.0</ele><time>2026-05-02T09:38:45.87Z</time></trkpt><trkpt lat="46.1581017" lon="13.6477945"><ele>589.0</ele><time>2026-05-02T09:38:46.869Z</time></trkpt><trkpt lat="46.1581251" lon="13.6476926"><ele>589.0</ele><time>2026-05-02T09:38:47.881Z</time></trkpt><trkpt lat="46.1581616" lon="13.6476176"><ele>589.0</ele><time>2026-05-02T09:38:48.875Z</time></trkpt><trkpt lat="46.1582075" lon="13.647543"><ele>589.0</ele><time>2026-05-02T09:38:49.869Z</time></trkpt><trkpt lat="46.1582615" lon="13.6474719"><ele>589.0</ele><time>2026-05-02T09:38:50.869Z</time></trkpt><trkpt lat="46.1583149" lon="13.6473416"><ele>593.25</ele><time>2026-05-02T09:38:52.87Z</time></trkpt><trkpt lat="46.1582525" lon="13.6472912"><ele>597.5</ele><time>2026-05-02T09:38:54.872Z</time></trkpt><trkpt lat="46.1581388" lon="13.6472145"><ele>601.75</ele><time>2026-05-02T09:38:56.874Z</time></trkpt><trkpt lat="46.1580508" lon="13.6471125"><ele>606.0</ele><time>2026-05-02T09:38:58.879Z</time></trkpt><trkpt lat="46.1578957" lon="13.6470539"><ele>606.0</ele><time>2026-05-02T09:39:02.875Z</time></trkpt><trkpt lat="46.1578329" lon="13.6471935"><ele>606.0</ele><time>2026-05-02T09:39:04.876Z</time></trkpt><trkpt lat="46.157765" lon="13.6473263"><ele>606.0</ele><time>2026-05-02T09:39:06.879Z</time></trkpt><trkpt lat="46.1576553" lon="13.6474044"><ele>606.0</ele><time>2026-05-02T09:39:08.874Z</time></trkpt><trkpt lat="46.1575862" lon="13.6473989"><ele>606.0</ele><time>2026-05-02T09:39:09.879Z</time></trkpt><trkpt lat="46.1574803" lon="13.6473251"><ele>606.0</ele><time>2026-05-02T09:39:11.872Z</time></trkpt><trkpt lat="46.1573995" lon="13.6471792"><ele>606.0</ele><time>2026-05-02T09:39:13.874Z</time></trkpt><trkpt lat="46.1573618" lon="13.6470898"><ele>606.0</ele><time>2026-05-02T09:39:14.88Z</time></trkpt><trkpt lat="46.1573229" lon="13.6469909"><ele>606.0</ele><time>2026-05-02T09:39:15.883Z</time></trkpt><trkpt lat="46.1572813" lon="13.6468827"><ele>606.0</ele><time>2026-05-02T09:39:16.876Z</time></trkpt><trkpt lat="46.1572412" lon="13.646782"><ele>606.0</ele><time>2026-05-02T09:39:17.876Z</time></trkpt><trkpt lat="46.1571556" lon="13.6466837"><ele>611.5</ele><time>2026-05-02T09:39:19.886Z</time></trkpt><trkpt lat="46.1570595" lon="13.6468129"><ele>617.0</ele><time>2026-05-02T09:39:53.871Z</time></trkpt><trkpt lat="46.1569975" lon="13.6470153"><ele>622.5</ele><time>2026-05-02T09:40:02.87Z</time></trkpt><trkpt lat="46.1569538" lon="13.6470905"><ele>628.0</ele><time>2026-05-02T09:40:17.872Z</time></trkpt><trkpt lat="46.1568642" lon="13.6472611"><ele>628.0</ele><time>2026-05-02T09:40:23.873Z</time></trkpt><trkpt lat="46.1567677" lon="13.6473371"><ele>628.0</ele><time>2026-05-02T09:40:25.869Z</time></trkpt><trkpt lat="46.1566992" lon="13.6473826"><ele>628.0</ele><time>2026-05-02T09:40:26.868Z</time></trkpt><trkpt lat="46.1566009" lon="13.6475073"><ele>628.0</ele><time>2026-05-02T09:40:28.876Z</time></trkpt><trkpt lat="46.1565588" lon="13.6476309"><ele>628.0</ele><time>2026-05-02T09:40:30.872Z</time></trkpt><trkpt lat="46.1565211" lon="13.6477553"><ele>626.4</ele><time>2026-05-02T09:40:32.867Z</time></trkpt><trkpt lat="46.1564331" lon="13.6477315"><ele>624.8</ele><time>2026-05-02T09:40:35.876Z</time></trkpt><trkpt lat="46.1564156" lon="13.6476294"><ele>623.2</ele><time>2026-05-02T09:40:37.87Z</time></trkpt><trkpt lat="46.1564153" lon="13.6475116"><ele>621.6</ele><time>2026-05-02T09:40:39.871Z</time></trkpt><trkpt lat="46.1564663" lon="13.6472452"><ele>620.0</ele><time>2026-05-02T09:40:43.871Z</time></trkpt><trkpt lat="46.1565108" lon="13.6470938"><ele>622.3333333333333</ele><time>2026-05-02T09:40:45.873Z</time></trkpt><trkpt lat="46.1565592" lon="13.6469556"><ele>624.6666666666666</ele><time>2026-05-02T09:40:47.868Z</time></trkpt><trkpt lat="46.1565913" lon="13.6468597"><ele>627.0</ele><time>2026-05-02T09:40:50.871Z</time></trkpt><trkpt lat="46.1566325" lon="13.6467818"><ele>629.3333333333334</ele><time>2026-05-02T09:40:52.88Z</time></trkpt><trkpt lat="46.1567092" lon="13.646669"><ele>631.6666666666667</ele><time>2026-05-02T09:40:54.871Z</time></trkpt><trkpt lat="46.1567565" lon="13.6465732"><ele>634.0</ele><time>2026-05-02T09:40:55.875Z</time></trkpt><trkpt lat="46.1567929" lon="13.6464826"><ele>634.0</ele><time>2026-05-02T09:40:56.881Z</time></trkpt><trkpt lat="46.1568273" lon="13.6463852"><ele>634.0</ele><time>2026-05-02T09:40:57.868Z</time></trkpt><trkpt lat="46.1568589" lon="13.646278"><ele>634.0</ele><time>2026-05-02T09:40:58.875Z</time></trkpt><trkpt lat="46.1568939" lon="13.6461679"><ele>634.0</ele><time>2026-05-02T09:40:59.867Z</time></trkpt><trkpt lat="46.1569365" lon="13.6460581"><ele>634.0</ele><time>2026-05-02T09:41:00.877Z</time></trkpt><trkpt lat="46.1570356" lon="13.6458611"><ele>635.5</ele><time>2026-05-02T09:41:02.871Z</time></trkpt><trkpt lat="46.1570829" lon="13.6457738"><ele>637.0</ele><time>2026-05-02T09:41:03.87Z</time></trkpt><trkpt lat="46.1571372" lon="13.6457026"><ele>638.5</ele><time>2026-05-02T09:41:04.873Z</time></trkpt><trkpt lat="46.1572187" lon="13.6456244"><ele>640.0</ele><time>2026-05-02T09:41:06.865Z</time></trkpt><trkpt lat="46.1573191" lon="13.6456393"><ele>641.5</ele><time>2026-05-02T09:41:08.871Z</time></trkpt><trkpt lat="46.1573844" lon="13.6456775"><ele>643.0</ele><time>2026-05-02T09:41:09.876Z</time></trkpt><trkpt lat="46.1574507" lon="13.6457279"><ele>644.1666666666667</ele><time>2026-05-02T09:41:10.873Z</time></trkpt><trkpt lat="46.1575145" lon="13.6457711"><ele>645.3333333333334</ele><time>2026-05-02T09:41:11.873Z</time></trkpt><trkpt lat="46.1575855" lon="13.6457984"><ele>646.5</ele><time>2026-05-02T09:41:12.867Z</time></trkpt><trkpt lat="46.1576544" lon="13.645818"><ele>647.6666666666666</ele><time>2026-05-02T09:41:13.869Z</time></trkpt><trkpt lat="46.157774" lon="13.6457829"><ele>648.8333333333333</ele><time>2026-05-02T09:41:15.874Z</time></trkpt><trkpt lat="46.1578447" lon="13.6457187"><ele>650.0</ele><time>2026-05-02T09:41:16.874Z</time></trkpt><trkpt lat="46.1579329" lon="13.6456403"><ele>650.0</ele><time>2026-05-02T09:41:17.874Z</time></trkpt><trkpt lat="46.158015" lon="13.6455987"><ele>650.0</ele><time>2026-05-02T09:41:18.875Z</time></trkpt><trkpt lat="46.1580878" lon="13.6455928"><ele>650.0</ele><time>2026-05-02T09:41:19.87Z</time></trkpt><trkpt lat="46.15816" lon="13.6456042"><ele>650.0</ele><time>2026-05-02T09:41:20.869Z</time></trkpt><trkpt lat="46.1582741" lon="13.6456489"><ele>650.0</ele><time>2026-05-02T09:41:22.876Z</time></trkpt><trkpt lat="46.1583042" lon="13.6455534"><ele>650.0</ele><time>2026-05-02T09:41:28.876Z</time></trkpt><trkpt lat="46.1583692" lon="13.6454791"><ele>650.0</ele><time>2026-05-02T09:41:33.868Z</time></trkpt><trkpt lat="46.1584347" lon="13.6454775"><ele>650.0</ele><time>2026-05-02T09:41:35.88Z</time></trkpt><trkpt lat="46.1585379" lon="13.645472"><ele>650.0</ele><time>2026-05-02T09:41:37.868Z</time></trkpt><trkpt lat="46.1586051" lon="13.6454536"><ele>650.0</ele><time>2026-05-02T09:41:38.875Z</time></trkpt><trkpt lat="46.1587124" lon="13.6454077"><ele>650.0</ele><time>2026-05-02T09:41:40.879Z</time></trkpt><trkpt lat="46.1588207" lon="13.6453271"><ele>650.2</ele><time>2026-05-02T09:41:42.872Z</time></trkpt><trkpt lat="46.1589175" lon="13.6451991"><ele>650.4</ele><time>2026-05-02T09:41:44.872Z</time></trkpt><trkpt lat="46.1590088" lon="13.6450141"><ele>650.5999999999999</ele><time>2026-05-02T09:41:46.871Z</time></trkpt><trkpt lat="46.1590512" lon="13.6449413"><ele>650.8</ele><time>2026-05-02T09:41:47.883Z</time></trkpt><trkpt lat="46.1591044" lon="13.6448901"><ele>651.0</ele><time>2026-05-02T09:41:48.873Z</time></trkpt><trkpt lat="46.1592023" lon="13.6448227"><ele>653.8</ele><time>2026-05-02T09:41:50.872Z</time></trkpt><trkpt lat="46.1592659" lon="13.6448339"><ele>656.5999999999999</ele><time>2026-05-02T09:41:51.876Z</time></trkpt><trkpt lat="46.1593466" lon="13.6448572"><ele>659.4</ele><time>2026-05-02T09:41:52.87Z</time></trkpt><trkpt lat="46.1594439" lon="13.6448978"><ele>662.2</ele><time>2026-05-02T09:41:53.874Z</time></trkpt><trkpt lat="46.1595557" lon="13.6449546"><ele>665.0</ele><time>2026-05-02T09:41:54.874Z</time></trkpt><trkpt lat="46.1596738" lon="13.6450045"><ele>665.0</ele><time>2026-05-02T09:41:55.874Z</time></trkpt><trkpt lat="46.1597903" lon="13.6450579"><ele>665.0</ele><time>2026-05-02T09:41:56.872Z</time></trkpt><trkpt lat="46.1599007" lon="13.645116"><ele>665.0</ele><time>2026-05-02T09:41:57.869Z</time></trkpt><trkpt lat="46.1600164" lon="13.6451682"><ele>665.0</ele><time>2026-05-02T09:41:58.88Z</time></trkpt><trkpt lat="46.1601286" lon="13.6452232"><ele>666.4</ele><time>2026-05-02T09:41:59.89Z</time></trkpt><trkpt lat="46.1602343" lon="13.645268"><ele>667.8</ele><time>2026-05-02T09:42:00.87Z</time></trkpt><trkpt lat="46.1603411" lon="13.6453057"><ele>669.2</ele><time>2026-05-02T09:42:01.875Z</time></trkpt><trkpt lat="46.1604499" lon="13.6453099"><ele>670.6</ele><time>2026-05-02T09:42:02.888Z</time></trkpt><trkpt lat="46.160555" lon="13.6453074"><ele>672.0</ele><time>2026-05-02T09:42:03.87Z</time></trkpt><trkpt lat="46.1606645" lon="13.6452984"><ele>676.5</ele><time>2026-05-02T09:42:04.872Z</time></trkpt><trkpt lat="46.1607804" lon="13.6452696"><ele>681.0</ele><time>2026-05-02T09:42:05.867Z</time></trkpt><trkpt lat="46.1609503" lon="13.645183"><ele>685.5</ele><time>2026-05-02T09:42:07.871Z</time></trkpt><trkpt lat="46.1610376" lon="13.6451194"><ele>690.0</ele><time>2026-05-02T09:42:08.868Z</time></trkpt><trkpt lat="46.1611353" lon="13.6450561"><ele>690.0</ele><time>2026-05-02T09:42:09.863Z</time></trkpt><trkpt lat="46.1612376" lon="13.6449949"><ele>690.0</ele><time>2026-05-02T09:42:10.865Z</time></trkpt><trkpt lat="46.1613393" lon="13.6449178"><ele>690.0</ele><time>2026-05-02T09:42:11.865Z</time></trkpt><trkpt lat="46.1614458" lon="13.6448354"><ele>690.0</ele><time>2026-05-02T09:42:12.867Z</time></trkpt><trkpt lat="46.161557" lon="13.6447494"><ele>689.75</ele><time>2026-05-02T09:42:13.876Z</time></trkpt><trkpt lat="46.1616498" lon="13.644643"><ele>689.5</ele><time>2026-05-02T09:42:14.87Z</time></trkpt><trkpt lat="46.1617392" lon="13.6445369"><ele>689.25</ele><time>2026-05-02T09:42:15.872Z</time></trkpt><trkpt lat="46.1618311" lon="13.6444375"><ele>689.0</ele><time>2026-05-02T09:42:16.884Z</time></trkpt><trkpt lat="46.1619296" lon="13.6443456"><ele>689.0</ele><time>2026-05-02T09:42:17.869Z</time></trkpt><trkpt lat="46.1620259" lon="13.6442482"><ele>689.0</ele><time>2026-05-02T09:42:18.867Z</time></trkpt><trkpt lat="46.1621217" lon="13.6441391"><ele>689.0</ele><time>2026-05-02T09:42:19.866Z</time></trkpt><trkpt lat="46.1622117" lon="13.6440184"><ele>689.0</ele><time>2026-05-02T09:42:20.876Z</time></trkpt><trkpt lat="46.1622857" lon="13.643913"><ele>689.0</ele><time>2026-05-02T09:42:21.871Z</time></trkpt><trkpt lat="46.1623333" lon="13.6437908"><ele>689.0</ele><time>2026-05-02T09:42:22.864Z</time></trkpt><trkpt lat="46.1623675" lon="13.6436576"><ele>689.0</ele><time>2026-05-02T09:42:23.871Z</time></trkpt><trkpt lat="46.1624147" lon="13.6434964"><ele>689.0</ele><time>2026-05-02T09:42:24.872Z</time></trkpt><trkpt lat="46.1624788" lon="13.6433376"><ele>689.0</ele><time>2026-05-02T09:42:25.868Z</time></trkpt><trkpt lat="46.1625625" lon="13.6431677"><ele>691.5</ele><time>2026-05-02T09:42:26.866Z</time></trkpt><trkpt lat="46.1627726" lon="13.6428225"><ele>694.0</ele><time>2026-05-02T09:42:28.872Z</time></trkpt><trkpt lat="46.1628854" lon="13.6426411"><ele>694.0</ele><time>2026-05-02T09:42:29.871Z</time></trkpt><trkpt lat="46.1630252" lon="13.6422946"><ele>694.0</ele><time>2026-05-02T09:42:31.87Z</time></trkpt><trkpt lat="46.1631015" lon="13.6421439"><ele>694.0</ele><time>2026-05-02T09:42:32.866Z</time></trkpt><trkpt lat="46.1631715" lon="13.6420463"><ele>700.0</ele><time>2026-05-02T09:42:33.869Z</time></trkpt><trkpt lat="46.1632407" lon="13.6420336"><ele>706.0</ele><time>2026-05-02T09:42:34.88Z</time></trkpt><trkpt lat="46.1633119" lon="13.6420838"><ele>712.0</ele><time>2026-05-02T09:42:35.867Z</time></trkpt><trkpt lat="46.1634088" lon="13.6421594"><ele>718.0</ele><time>2026-05-02T09:42:36.869Z</time></trkpt><trkpt lat="46.1635067" lon="13.6422647"><ele>724.0</ele><time>2026-05-02T09:42:37.873Z</time></trkpt><trkpt lat="46.1635895" lon="13.6423737"><ele>724.0</ele><time>2026-05-02T09:42:38.875Z</time></trkpt><trkpt lat="46.1636505" lon="13.6425115"><ele>724.0</ele><time>2026-05-02T09:42:39.87Z</time></trkpt><trkpt lat="46.1637141" lon="13.6426647"><ele>724.0</ele><time>2026-05-02T09:42:40.87Z</time></trkpt><trkpt lat="46.1637881" lon="13.6428117"><ele>724.0</ele><time>2026-05-02T09:42:41.874Z</time></trkpt><trkpt lat="46.1638998" lon="13.6429238"><ele>725.0</ele><time>2026-05-02T09:42:42.866Z</time></trkpt><trkpt lat="46.1640297" lon="13.6429899"><ele>726.0</ele><time>2026-05-02T09:42:43.871Z</time></trkpt><trkpt lat="46.1641811" lon="13.6429863"><ele>727.0</ele><time>2026-05-02T09:42:44.872Z</time></trkpt><trkpt lat="46.1643309" lon="13.6429671"><ele>728.0</ele><time>2026-05-02T09:42:45.877Z</time></trkpt><trkpt lat="46.1644775" lon="13.6429138"><ele>728.0</ele><time>2026-05-02T09:42:46.869Z</time></trkpt><trkpt lat="46.1646189" lon="13.6428301"><ele>728.0</ele><time>2026-05-02T09:42:47.868Z</time></trkpt><trkpt lat="46.1649035" lon="13.6426043"><ele>727.75</ele><time>2026-05-02T09:42:49.868Z</time></trkpt><trkpt lat="46.1650335" lon="13.6424873"><ele>727.5</ele><time>2026-05-02T09:42:50.885Z</time></trkpt><trkpt lat="46.1651419" lon="13.6423631"><ele>727.25</ele><time>2026-05-02T09:42:51.878Z</time></trkpt><trkpt lat="46.165229" lon="13.6422287"><ele>727.0</ele><time>2026-05-02T09:42:52.869Z</time></trkpt><trkpt lat="46.165301" lon="13.6420983"><ele>727.0</ele><time>2026-05-02T09:42:53.869Z</time></trkpt><trkpt lat="46.1653783" lon="13.641994"><ele>727.0</ele><time>2026-05-02T09:42:54.874Z</time></trkpt><trkpt lat="46.1654713" lon="13.6419241"><ele>727.0</ele><time>2026-05-02T09:42:55.867Z</time></trkpt><trkpt lat="46.1655632" lon="13.6419171"><ele>727.0</ele><time>2026-05-02T09:42:56.885Z</time></trkpt><trkpt lat="46.1656637" lon="13.6419421"><ele>727.0</ele><time>2026-05-02T09:42:57.864Z</time></trkpt><trkpt lat="46.1657866" lon="13.6419796"><ele>726.75</ele><time>2026-05-02T09:42:58.87Z</time></trkpt><trkpt lat="46.1659267" lon="13.642006"><ele>726.5</ele><time>2026-05-02T09:42:59.869Z</time></trkpt><trkpt lat="46.1660704" lon="13.6419834"><ele>726.25</ele><time>2026-05-02T09:43:00.869Z</time></trkpt><trkpt lat="46.1662185" lon="13.6419021"><ele>726.0</ele><time>2026-05-02T09:43:01.872Z</time></trkpt><trkpt lat="46.1663465" lon="13.6418309"><ele>726.75</ele><time>2026-05-02T09:43:02.872Z</time></trkpt><trkpt lat="46.1664647" lon="13.6417669"><ele>727.5</ele><time>2026-05-02T09:43:03.879Z</time></trkpt><trkpt lat="46.1665699" lon="13.6416885"><ele>728.25</ele><time>2026-05-02T09:43:04.872Z</time></trkpt><trkpt lat="46.1666412" lon="13.6415914"><ele>729.0</ele><time>2026-05-02T09:43:05.871Z</time></trkpt><trkpt lat="46.1667201" lon="13.6414847"><ele>729.0</ele><time>2026-05-02T09:43:06.874Z</time></trkpt><trkpt lat="46.1667873" lon="13.6413561"><ele>729.0</ele><time>2026-05-02T09:43:07.883Z</time></trkpt><trkpt lat="46.1668328" lon="13.6412022"><ele>729.0</ele><time>2026-05-02T09:43:08.878Z</time></trkpt><trkpt lat="46.1668985" lon="13.640853"><ele>729.0</ele><time>2026-05-02T09:43:10.876Z</time></trkpt><trkpt lat="46.1669036" lon="13.6406519"><ele>729.0</ele><time>2026-05-02T09:43:11.872Z</time></trkpt><trkpt lat="46.1669154" lon="13.6404286"><ele>729.0</ele><time>2026-05-02T09:43:12.877Z</time></trkpt><trkpt lat="46.1669374" lon="13.6401994"><ele>727.2</ele><time>2026-05-02T09:43:13.87Z</time></trkpt><trkpt lat="46.1669745" lon="13.6400174"><ele>725.4000000000001</ele><time>2026-05-02T09:43:14.866Z</time></trkpt><trkpt lat="46.1670296" lon="13.6398796"><ele>723.6</ele><time>2026-05-02T09:43:15.873Z</time></trkpt><trkpt lat="46.1671066" lon="13.6398543"><ele>721.8</ele><time>2026-05-02T09:43:16.867Z</time></trkpt><trkpt lat="46.1671866" lon="13.6398767"><ele>720.0</ele><time>2026-05-02T09:43:17.885Z</time></trkpt><trkpt lat="46.1672866" lon="13.6399548"><ele>723.3333333333334</ele><time>2026-05-02T09:43:18.875Z</time></trkpt><trkpt lat="46.1674175" lon="13.6400716"><ele>726.6666666666667</ele><time>2026-05-02T09:43:19.879Z</time></trkpt><trkpt lat="46.1675634" lon="13.6401558"><ele>730.0</ele><time>2026-05-02T09:43:20.871Z</time></trkpt><trkpt lat="46.1677051" lon="13.6402368"><ele>736.0</ele><time>2026-05-02T09:43:21.878Z</time></trkpt><trkpt lat="46.1678344" lon="13.6403324"><ele>742.0</ele><time>2026-05-02T09:43:22.878Z</time></trkpt><trkpt lat="46.1679649" lon="13.6404798"><ele>748.0</ele><time>2026-05-02T09:43:23.865Z</time></trkpt><trkpt lat="46.1680947" lon="13.6406274"><ele>738.0</ele><time>2026-05-02T09:43:24.865Z</time></trkpt><trkpt lat="46.168237" lon="13.6407761"><ele>728.0</ele><time>2026-05-02T09:43:25.871Z</time></trkpt><trkpt lat="46.1683833" lon="13.640909"><ele>718.0</ele><time>2026-05-02T09:43:26.875Z</time></trkpt><trkpt lat="46.1685188" lon="13.6410293"><ele>719.6666666666667</ele><time>2026-05-02T09:43:27.875Z</time></trkpt><trkpt lat="46.1686385" lon="13.6411463"><ele>721.3333333333334</ele><time>2026-05-02T09:43:28.865Z</time></trkpt><trkpt lat="46.1687603" lon="13.6413009"><ele>723.0</ele><time>2026-05-02T09:43:29.875Z</time></trkpt><trkpt lat="46.1689363" lon="13.6416522"><ele>723.0</ele><time>2026-05-02T09:43:31.878Z</time></trkpt><trkpt lat="46.1689868" lon="13.6418117"><ele>723.0</ele><time>2026-05-02T09:43:32.879Z</time></trkpt><trkpt lat="46.1690451" lon="13.6419665"><ele>723.0</ele><time>2026-05-02T09:43:33.872Z</time></trkpt><trkpt lat="46.1691067" lon="13.642104"><ele>723.0</ele><time>2026-05-02T09:43:34.883Z</time></trkpt><trkpt lat="46.169213" lon="13.6422029"><ele>715.3333333333334</ele><time>2026-05-02T09:43:35.873Z</time></trkpt><trkpt lat="46.1693567" lon="13.6422508"><ele>707.6666666666667</ele><time>2026-05-02T09:43:36.869Z</time></trkpt><trkpt lat="46.169516" lon="13.6422866"><ele>700.0</ele><time>2026-05-02T09:43:37.873Z</time></trkpt><trkpt lat="46.1696763" lon="13.6422873"><ele>700.0</ele><time>2026-05-02T09:43:38.88Z</time></trkpt><trkpt lat="46.1698134" lon="13.6422629"><ele>700.0</ele><time>2026-05-02T09:43:39.874Z</time></trkpt><trkpt lat="46.1699407" lon="13.6422151"><ele>700.0</ele><time>2026-05-02T09:43:40.875Z</time></trkpt><trkpt lat="46.1700755" lon="13.642193"><ele>700.0</ele><time>2026-05-02T09:43:41.877Z</time></trkpt><trkpt lat="46.1702072" lon="13.6421408"><ele>701.0</ele><time>2026-05-02T09:43:42.87Z</time></trkpt><trkpt lat="46.1703337" lon="13.6420506"><ele>702.0</ele><time>2026-05-02T09:43:43.873Z</time></trkpt><trkpt lat="46.170443" lon="13.6419682"><ele>703.0</ele><time>2026-05-02T09:43:44.869Z</time></trkpt><trkpt lat="46.1705476" lon="13.6419109"><ele>704.0</ele><time>2026-05-02T09:43:45.87Z</time></trkpt><trkpt lat="46.1706558" lon="13.6418995"><ele>708.0</ele><time>2026-05-02T09:43:46.869Z</time></trkpt><trkpt lat="46.1707875" lon="13.641896"><ele>712.0</ele><time>2026-05-02T09:43:47.869Z</time></trkpt><trkpt lat="46.1709183" lon="13.6418995"><ele>716.0</ele><time>2026-05-02T09:43:48.874Z</time></trkpt><trkpt lat="46.1710564" lon="13.641909"><ele>720.0</ele><time>2026-05-02T09:43:49.883Z</time></trkpt><trkpt lat="46.1712156" lon="13.6419155"><ele>720.0</ele><time>2026-05-02T09:43:50.88Z</time></trkpt><trkpt lat="46.1715036" lon="13.6418243"><ele>720.0</ele><time>2026-05-02T09:43:52.871Z</time></trkpt><trkpt lat="46.17161" lon="13.6417468"><ele>720.0</ele><time>2026-05-02T09:43:53.867Z</time></trkpt><trkpt lat="46.1717187" lon="13.6416766"><ele>723.0</ele><time>2026-05-02T09:43:54.873Z</time></trkpt><trkpt lat="46.1718374" lon="13.6416238"><ele>726.0</ele><time>2026-05-02T09:43:55.869Z</time></trkpt><trkpt lat="46.1719495" lon="13.6416067"><ele>729.0</ele><time>2026-05-02T09:43:56.869Z</time></trkpt><trkpt lat="46.1720522" lon="13.6416224"><ele>732.0</ele><time>2026-05-02T09:43:57.882Z</time></trkpt><trkpt lat="46.1721495" lon="13.6416759"><ele>735.0</ele><time>2026-05-02T09:43:58.871Z</time></trkpt><trkpt lat="46.1722505" lon="13.6417359"><ele>737.75</ele><time>2026-05-02T09:43:59.865Z</time></trkpt><trkpt lat="46.1723584" lon="13.6417546"><ele>740.5</ele><time>2026-05-02T09:44:00.873Z</time></trkpt><trkpt lat="46.1724746" lon="13.6417554"><ele>743.25</ele><time>2026-05-02T09:44:01.876Z</time></trkpt><trkpt lat="46.1726252" lon="13.641724"><ele>746.0</ele><time>2026-05-02T09:44:02.876Z</time></trkpt><trkpt lat="46.1727869" lon="13.6416808"><ele>746.0</ele><time>2026-05-02T09:44:03.865Z</time></trkpt><trkpt lat="46.172914" lon="13.6416568"><ele>746.0</ele><time>2026-05-02T09:44:04.88Z</time></trkpt><trkpt lat="46.1730732" lon="13.6416273"><ele>746.0</ele><time>2026-05-02T09:44:05.875Z</time></trkpt><trkpt lat="46.1732334" lon="13.6416398"><ele>746.0</ele><time>2026-05-02T09:44:06.869Z</time></trkpt><trkpt lat="46.1733935" lon="13.6416635"><ele>748.5</ele><time>2026-05-02T09:44:07.876Z</time></trkpt><trkpt lat="46.1735491" lon="13.64165"><ele>751.0</ele><time>2026-05-02T09:44:08.883Z</time></trkpt><trkpt lat="46.1736849" lon="13.6416146"><ele>753.5</ele><time>2026-05-02T09:44:09.87Z</time></trkpt><trkpt lat="46.1738023" lon="13.6415614"><ele>756.0</ele><time>2026-05-02T09:44:10.878Z</time></trkpt><trkpt lat="46.1739189" lon="13.641517"><ele>757.5</ele><time>2026-05-02T09:44:11.869Z</time></trkpt><trkpt lat="46.1741423" lon="13.641436"><ele>759.0</ele><time>2026-05-02T09:44:13.874Z</time></trkpt><trkpt lat="46.1742567" lon="13.6414004"><ele>760.5</ele><time>2026-05-02T09:44:14.881Z</time></trkpt><trkpt lat="46.1743532" lon="13.6414074"><ele>762.0</ele><time>2026-05-02T09:44:15.884Z</time></trkpt><trkpt lat="46.1744373" lon="13.6414292"><ele>762.0</ele><time>2026-05-02T09:44:16.875Z</time></trkpt><trkpt lat="46.1745073" lon="13.6414712"><ele>762.0</ele><time>2026-05-02T09:44:17.885Z</time></trkpt><trkpt lat="46.1745538" lon="13.6415582"><ele>762.0</ele><time>2026-05-02T09:44:18.872Z</time></trkpt><trkpt lat="46.1745076" lon="13.6417359"><ele>762.0</ele><time>2026-05-02T09:44:19.871Z</time></trkpt><trkpt lat="46.1744286" lon="13.6419375"><ele>762.0</ele><time>2026-05-02T09:44:20.871Z</time></trkpt><trkpt lat="46.1743432" lon="13.6421327"><ele>764.75</ele><time>2026-05-02T09:44:21.876Z</time></trkpt><trkpt lat="46.174278" lon="13.6423238"><ele>767.5</ele><time>2026-05-02T09:44:22.871Z</time></trkpt><trkpt lat="46.1742176" lon="13.642505"><ele>770.25</ele><time>2026-05-02T09:44:23.868Z</time></trkpt><trkpt lat="46.1741647" lon="13.6426806"><ele>773.0</ele><time>2026-05-02T09:44:24.879Z</time></trkpt><trkpt lat="46.1741066" lon="13.6428621"><ele>773.0</ele><time>2026-05-02T09:44:25.865Z</time></trkpt><trkpt lat="46.17406" lon="13.6430467"><ele>773.0</ele><time>2026-05-02T09:44:26.871Z</time></trkpt><trkpt lat="46.1740198" lon="13.6432348"><ele>773.0</ele><time>2026-05-02T09:44:27.87Z</time></trkpt><trkpt lat="46.1739827" lon="13.6434431"><ele>773.0</ele><time>2026-05-02T09:44:28.865Z</time></trkpt><trkpt lat="46.1739625" lon="13.6436431"><ele>773.25</ele><time>2026-05-02T09:44:29.872Z</time></trkpt><trkpt lat="46.173935" lon="13.6438471"><ele>773.5</ele><time>2026-05-02T09:44:30.873Z</time></trkpt><trkpt lat="46.17391" lon="13.6440387"><ele>773.75</ele><time>2026-05-02T09:44:31.881Z</time></trkpt><trkpt lat="46.1738821" lon="13.6442489"><ele>774.0</ele><time>2026-05-02T09:44:32.871Z</time></trkpt><trkpt lat="46.1738466" lon="13.6447018"><ele>774.0</ele><time>2026-05-02T09:44:34.872Z</time></trkpt><trkpt lat="46.1738496" lon="13.6449354"><ele>774.0</ele><time>2026-05-02T09:44:35.874Z</time></trkpt><trkpt lat="46.1738551" lon="13.6451703"><ele>774.0</ele><time>2026-05-02T09:44:36.865Z</time></trkpt><trkpt lat="46.1738557" lon="13.6454003"><ele>769.25</ele><time>2026-05-02T09:44:37.878Z</time></trkpt><trkpt lat="46.1738262" lon="13.645597"><ele>764.5</ele><time>2026-05-02T09:44:38.879Z</time></trkpt><trkpt lat="46.1738371" lon="13.6457951"><ele>759.75</ele><time>2026-05-02T09:44:39.873Z</time></trkpt><trkpt lat="46.1738574" lon="13.64598"><ele>755.0</ele><time>2026-05-02T09:44:40.869Z</time></trkpt><trkpt lat="46.1738857" lon="13.6461784"><ele>755.5</ele><time>2026-05-02T09:44:41.87Z</time></trkpt><trkpt lat="46.1739615" lon="13.6463579"><ele>756.0</ele><time>2026-05-02T09:44:42.867Z</time></trkpt><trkpt lat="46.1740561" lon="13.6465255"><ele>756.5</ele><time>2026-05-02T09:44:43.865Z</time></trkpt><trkpt lat="46.1741478" lon="13.6466901"><ele>757.0</ele><time>2026-05-02T09:44:44.879Z</time></trkpt><trkpt lat="46.1742382" lon="13.6468513"><ele>755.0</ele><time>2026-05-02T09:44:45.869Z</time></trkpt><trkpt lat="46.1743253" lon="13.6470054"><ele>753.0</ele><time>2026-05-02T09:44:46.874Z</time></trkpt><trkpt lat="46.1744043" lon="13.6471147"><ele>751.0</ele><time>2026-05-02T09:44:47.879Z</time></trkpt><trkpt lat="46.174459" lon="13.6472566"><ele>749.0</ele><time>2026-05-02T09:44:48.871Z</time></trkpt><trkpt lat="46.1745202" lon="13.647407"><ele>749.0</ele><time>2026-05-02T09:44:49.882Z</time></trkpt><trkpt lat="46.1746012" lon="13.647563"><ele>749.0</ele><time>2026-05-02T09:44:50.868Z</time></trkpt><trkpt lat="46.1747062" lon="13.6476894"><ele>749.0</ele><time>2026-05-02T09:44:51.875Z</time></trkpt><trkpt lat="46.1748197" lon="13.6477945"><ele>749.0</ele><time>2026-05-02T09:44:52.873Z</time></trkpt><trkpt lat="46.1749498" lon="13.6478662"><ele>751.0</ele><time>2026-05-02T09:44:53.873Z</time></trkpt><trkpt lat="46.175249" lon="13.6478456"><ele>753.0</ele><time>2026-05-02T09:44:55.869Z</time></trkpt><trkpt lat="46.175433" lon="13.6477838"><ele>753.0</ele><time>2026-05-02T09:44:56.872Z</time></trkpt><trkpt lat="46.1756119" lon="13.647737"><ele>753.0</ele><time>2026-05-02T09:44:57.869Z</time></trkpt><trkpt lat="46.175762" lon="13.6476741"><ele>753.0</ele><time>2026-05-02T09:44:58.868Z</time></trkpt><trkpt lat="46.17591" lon="13.6476029"><ele>755.3333333333334</ele><time>2026-05-02T09:44:59.873Z</time></trkpt><trkpt lat="46.1760728" lon="13.6475038"><ele>757.6666666666667</ele><time>2026-05-02T09:45:00.868Z</time></trkpt><trkpt lat="46.1762296" lon="13.6474136"><ele>760.0</ele><time>2026-05-02T09:45:01.885Z</time></trkpt><trkpt lat="46.1763881" lon="13.6473483"><ele>763.25</ele><time>2026-05-02T09:45:02.876Z</time></trkpt><trkpt lat="46.1765254" lon="13.6473063"><ele>766.5</ele><time>2026-05-02T09:45:03.872Z</time></trkpt><trkpt lat="46.1766788" lon="13.6472667"><ele>769.75</ele><time>2026-05-02T09:45:04.871Z</time></trkpt><trkpt lat="46.1767973" lon="13.6473058"><ele>773.0</ele><time>2026-05-02T09:45:05.867Z</time></trkpt><trkpt lat="46.1769051" lon="13.6473585"><ele>773.0</ele><time>2026-05-02T09:45:06.87Z</time></trkpt><trkpt lat="46.1770224" lon="13.6474186"><ele>773.0</ele><time>2026-05-02T09:45:07.869Z</time></trkpt><trkpt lat="46.1771433" lon="13.6474961"><ele>773.0</ele><time>2026-05-02T09:45:08.873Z</time></trkpt><trkpt lat="46.1772609" lon="13.6475451"><ele>773.0</ele><time>2026-05-02T09:45:09.869Z</time></trkpt><trkpt lat="46.1773933" lon="13.6475774"><ele>774.5</ele><time>2026-05-02T09:45:10.88Z</time></trkpt><trkpt lat="46.1775153" lon="13.6475939"><ele>776.0</ele><time>2026-05-02T09:45:11.868Z</time></trkpt><trkpt lat="46.1776332" lon="13.6475822"><ele>777.5</ele><time>2026-05-02T09:45:12.868Z</time></trkpt><trkpt lat="46.1777528" lon="13.647583"><ele>779.0</ele><time>2026-05-02T09:45:13.871Z</time></trkpt><trkpt lat="46.1778665" lon="13.6475401"><ele>779.0</ele><time>2026-05-02T09:45:14.878Z</time></trkpt><trkpt lat="46.1780759" lon="13.6474241"><ele>779.0</ele><time>2026-05-02T09:45:16.88Z</time></trkpt><trkpt lat="46.1781719" lon="13.6473545"><ele>779.0</ele><time>2026-05-02T09:45:17.866Z</time></trkpt><trkpt lat="46.1782633" lon="13.6473109"><ele>779.0</ele><time>2026-05-02T09:45:18.87Z</time></trkpt><trkpt lat="46.1783532" lon="13.6472997"><ele>781.4000000000001</ele><time>2026-05-02T09:45:19.869Z</time></trkpt><trkpt lat="46.1784563" lon="13.6473163"><ele>783.8</ele><time>2026-05-02T09:45:20.874Z</time></trkpt><trkpt lat="46.1785686" lon="13.647313"><ele>786.2</ele><time>2026-05-02T09:45:21.874Z</time></trkpt><trkpt lat="46.1786886" lon="13.6473349"><ele>788.5999999999999</ele><time>2026-05-02T09:45:22.871Z</time></trkpt><trkpt lat="46.1787967" lon="13.6473767"><ele>791.0</ele><time>2026-05-02T09:45:23.869Z</time></trkpt><trkpt lat="46.1788884" lon="13.6474182"><ele>791.0</ele><time>2026-05-02T09:45:24.876Z</time></trkpt><trkpt lat="46.1789632" lon="13.6474825"><ele>791.0</ele><time>2026-05-02T09:45:25.869Z</time></trkpt><trkpt lat="46.1790396" lon="13.6475473"><ele>791.0</ele><time>2026-05-02T09:45:26.87Z</time></trkpt><trkpt lat="46.1791103" lon="13.6476373"><ele>791.0</ele><time>2026-05-02T09:45:27.875Z</time></trkpt><trkpt lat="46.1791724" lon="13.6477596"><ele>791.0</ele><time>2026-05-02T09:45:28.878Z</time></trkpt><trkpt lat="46.1792277" lon="13.6479383"><ele>790.6666666666667</ele><time>2026-05-02T09:45:29.875Z</time></trkpt><trkpt lat="46.1792634" lon="13.6481419"><ele>790.3333333333333</ele><time>2026-05-02T09:45:30.87Z</time></trkpt><trkpt lat="46.1793157" lon="13.6483619"><ele>790.0</ele><time>2026-05-02T09:45:31.874Z</time></trkpt><trkpt lat="46.1793767" lon="13.6486083"><ele>797.0</ele><time>2026-05-02T09:45:32.873Z</time></trkpt><trkpt lat="46.1794329" lon="13.6489219"><ele>804.0</ele><time>2026-05-02T09:45:33.875Z</time></trkpt><trkpt lat="46.1794328" lon="13.6492521"><ele>809.0</ele><time>2026-05-02T09:45:34.871Z</time></trkpt><trkpt lat="46.1794587" lon="13.6495219"><ele>814.0</ele><time>2026-05-02T09:45:35.872Z</time></trkpt><trkpt lat="46.1794549" lon="13.6498395"><ele>819.0</ele><time>2026-05-02T09:45:36.875Z</time></trkpt><trkpt lat="46.1794072" lon="13.6503833"><ele>820.5</ele><time>2026-05-02T09:45:38.87Z</time></trkpt><trkpt lat="46.1793728" lon="13.6506008"><ele>822.0</ele><time>2026-05-02T09:45:39.865Z</time></trkpt><trkpt lat="46.179344" lon="13.6507695"><ele>823.5</ele><time>2026-05-02T09:45:40.87Z</time></trkpt><trkpt lat="46.1793187" lon="13.6509402"><ele>825.0</ele><time>2026-05-02T09:45:41.866Z</time></trkpt><trkpt lat="46.1793251" lon="13.651082"><ele>825.6</ele><time>2026-05-02T09:45:42.871Z</time></trkpt><trkpt lat="46.1793204" lon="13.6512424"><ele>826.2</ele><time>2026-05-02T09:45:43.874Z</time></trkpt><trkpt lat="46.1793029" lon="13.6513853"><ele>826.8</ele><time>2026-05-02T09:45:44.867Z</time></trkpt><trkpt lat="46.1792716" lon="13.6515371"><ele>827.4</ele><time>2026-05-02T09:45:45.87Z</time></trkpt><trkpt lat="46.1792319" lon="13.6516731"><ele>828.0</ele><time>2026-05-02T09:45:46.868Z</time></trkpt><trkpt lat="46.1791946" lon="13.6517952"><ele>828.0</ele><time>2026-05-02T09:45:47.873Z</time></trkpt><trkpt lat="46.1791702" lon="13.6519344"><ele>828.0</ele><time>2026-05-02T09:45:48.881Z</time></trkpt><trkpt lat="46.1791659" lon="13.652085"><ele>828.0</ele><time>2026-05-02T09:45:49.873Z</time></trkpt><trkpt lat="46.1791709" lon="13.6522406"><ele>828.0</ele><time>2026-05-02T09:45:50.877Z</time></trkpt><trkpt lat="46.1792036" lon="13.6523806"><ele>828.0</ele><time>2026-05-02T09:45:51.868Z</time></trkpt><trkpt lat="46.1792487" lon="13.65252"><ele>830.0</ele><time>2026-05-02T09:45:52.869Z</time></trkpt><trkpt lat="46.1792768" lon="13.65266"><ele>832.0</ele><time>2026-05-02T09:45:53.873Z</time></trkpt><trkpt lat="46.1793418" lon="13.6527911"><ele>834.0</ele><time>2026-05-02T09:45:54.88Z</time></trkpt><trkpt lat="46.1794239" lon="13.6528899"><ele>836.0</ele><time>2026-05-02T09:45:55.868Z</time></trkpt><trkpt lat="46.1794999" lon="13.6530049"><ele>838.0</ele><time>2026-05-02T09:45:56.867Z</time></trkpt><trkpt lat="46.1795587" lon="13.6531211"><ele>841.5</ele><time>2026-05-02T09:45:57.872Z</time></trkpt><trkpt lat="46.1796597" lon="13.6533677"><ele>845.0</ele><time>2026-05-02T09:45:59.868Z</time></trkpt><trkpt lat="46.1797081" lon="13.6534766"><ele>848.5</ele><time>2026-05-02T09:46:00.87Z</time></trkpt><trkpt lat="46.1797716" lon="13.6535642"><ele>852.0</ele><time>2026-05-02T09:46:01.876Z</time></trkpt><trkpt lat="46.1798876" lon="13.6535174"><ele>843.5</ele><time>2026-05-02T09:46:02.879Z</time></trkpt><trkpt lat="46.1799985" lon="13.6534268"><ele>835.0</ele><time>2026-05-02T09:46:03.87Z</time></trkpt><trkpt lat="46.1801173" lon="13.6533352"><ele>826.5</ele><time>2026-05-02T09:46:04.868Z</time></trkpt><trkpt lat="46.180232" lon="13.6533062"><ele>818.0</ele><time>2026-05-02T09:46:05.875Z</time></trkpt><trkpt lat="46.1803474" lon="13.6533405"><ele>818.0</ele><time>2026-05-02T09:46:06.872Z</time></trkpt><trkpt lat="46.1804544" lon="13.6533618"><ele>818.0</ele><time>2026-05-02T09:46:07.868Z</time></trkpt><trkpt lat="46.1805552" lon="13.6533578"><ele>818.0</ele><time>2026-05-02T09:46:08.879Z</time></trkpt><trkpt lat="46.1806429" lon="13.6533346"><ele>818.0</ele><time>2026-05-02T09:46:09.871Z</time></trkpt><trkpt lat="46.1807138" lon="13.6532707"><ele>818.0</ele><time>2026-05-02T09:46:10.868Z</time></trkpt><trkpt lat="46.1807708" lon="13.6531641"><ele>817.6666666666667</ele><time>2026-05-02T09:46:11.877Z</time></trkpt><trkpt lat="46.1808313" lon="13.6530631"><ele>817.3333333333333</ele><time>2026-05-02T09:46:12.868Z</time></trkpt><trkpt lat="46.1808323" lon="13.6527436"><ele>817.0</ele><time>2026-05-02T09:46:13.87Z</time></trkpt><trkpt lat="46.1808452" lon="13.6524251"><ele>817.0</ele><time>2026-05-02T09:46:14.878Z</time></trkpt><trkpt lat="46.180869" lon="13.6521532"><ele>817.0</ele><time>2026-05-02T09:46:15.868Z</time></trkpt><trkpt lat="46.1808836" lon="13.6519015"><ele>817.0</ele><time>2026-05-02T09:46:16.867Z</time></trkpt><trkpt lat="46.1809112" lon="13.6516741"><ele>809.0</ele><time>2026-05-02T09:46:17.864Z</time></trkpt><trkpt lat="46.1809633" lon="13.6514593"><ele>801.0</ele><time>2026-05-02T09:46:18.881Z</time></trkpt><trkpt lat="46.1810976" lon="13.6510185"><ele>794.3333333333333</ele><time>2026-05-02T09:46:20.875Z</time></trkpt><trkpt lat="46.1811645" lon="13.6507878"><ele>787.6666666666666</ele><time>2026-05-02T09:46:21.87Z</time></trkpt><trkpt lat="46.181221" lon="13.6505595"><ele>781.0</ele><time>2026-05-02T09:46:22.876Z</time></trkpt><trkpt lat="46.1812788" lon="13.6503264"><ele>776.6666666666666</ele><time>2026-05-02T09:46:23.872Z</time></trkpt><trkpt lat="46.1813427" lon="13.6500814"><ele>772.3333333333333</ele><time>2026-05-02T09:46:24.868Z</time></trkpt><trkpt lat="46.1813905" lon="13.6498125"><ele>768.0</ele><time>2026-05-02T09:46:25.873Z</time></trkpt><trkpt lat="46.1814272" lon="13.6495402"><ele>763.3333333333334</ele><time>2026-05-02T09:46:26.877Z</time></trkpt><trkpt lat="46.1814751" lon="13.6492747"><ele>758.6666666666667</ele><time>2026-05-02T09:46:27.861Z</time></trkpt><trkpt lat="46.1815252" lon="13.6490334"><ele>754.0</ele><time>2026-05-02T09:46:28.868Z</time></trkpt><trkpt lat="46.1815842" lon="13.6488056"><ele>765.0</ele><time>2026-05-02T09:46:29.87Z</time></trkpt><trkpt lat="46.1816236" lon="13.6485632"><ele>776.0</ele><time>2026-05-02T09:46:30.872Z</time></trkpt><trkpt lat="46.1816584" lon="13.6483307"><ele>787.0</ele><time>2026-05-02T09:46:31.875Z</time></trkpt><trkpt lat="46.1816886" lon="13.6481132"><ele>787.0</ele><time>2026-05-02T09:46:32.867Z</time></trkpt><trkpt lat="46.1817066" lon="13.6479006"><ele>787.0</ele><time>2026-05-02T09:46:33.874Z</time></trkpt><trkpt lat="46.1817245" lon="13.6476804"><ele>787.0</ele><time>2026-05-02T09:46:34.878Z</time></trkpt><trkpt lat="46.1817533" lon="13.6474618"><ele>783.25</ele><time>2026-05-02T09:46:35.873Z</time></trkpt><trkpt lat="46.1818043" lon="13.6472552"><ele>779.5</ele><time>2026-05-02T09:46:36.874Z</time></trkpt><trkpt lat="46.1818417" lon="13.6470511"><ele>775.75</ele><time>2026-05-02T09:46:37.869Z</time></trkpt><trkpt lat="46.1818638" lon="13.6468505"><ele>772.0</ele><time>2026-05-02T09:46:38.89Z</time></trkpt><trkpt lat="46.1818645" lon="13.6466312"><ele>767.6666666666666</ele><time>2026-05-02T09:46:39.872Z</time></trkpt><trkpt lat="46.1819585" lon="13.6462386"><ele>763.3333333333333</ele><time>2026-05-02T09:46:41.863Z</time></trkpt><trkpt lat="46.1820279" lon="13.6460431"><ele>759.0</ele><time>2026-05-02T09:46:42.868Z</time></trkpt><trkpt lat="46.182124" lon="13.6458857"><ele>760.25</ele><time>2026-05-02T09:46:43.866Z</time></trkpt><trkpt lat="46.1822068" lon="13.6457327"><ele>761.5</ele><time>2026-05-02T09:46:44.873Z</time></trkpt><trkpt lat="46.1822731" lon="13.645563"><ele>762.75</ele><time>2026-05-02T09:46:45.87Z</time></trkpt><trkpt lat="46.1823334" lon="13.6453816"><ele>764.0</ele><time>2026-05-02T09:46:46.868Z</time></trkpt><trkpt lat="46.1823963" lon="13.6451968"><ele>764.0</ele><time>2026-05-02T09:46:47.875Z</time></trkpt><trkpt lat="46.1824671" lon="13.645021"><ele>764.0</ele><time>2026-05-02T09:46:48.87Z</time></trkpt><trkpt lat="46.1825577" lon="13.6448581"><ele>764.0</ele><time>2026-05-02T09:46:49.874Z</time></trkpt><trkpt lat="46.1826438" lon="13.6446662"><ele>764.0</ele><time>2026-05-02T09:46:50.874Z</time></trkpt><trkpt lat="46.1827312" lon="13.6445131"><ele>759.4000000000001</ele><time>2026-05-02T09:46:51.87Z</time></trkpt><trkpt lat="46.1827955" lon="13.6443853"><ele>754.8</ele><time>2026-05-02T09:46:52.865Z</time></trkpt><trkpt lat="46.1828304" lon="13.6442497"><ele>750.2</ele><time>2026-05-02T09:46:53.871Z</time></trkpt><trkpt lat="46.1828287" lon="13.6441109"><ele>745.5999999999999</ele><time>2026-05-02T09:46:54.87Z</time></trkpt><trkpt lat="46.1827896" lon="13.6439464"><ele>741.0</ele><time>2026-05-02T09:46:55.871Z</time></trkpt><trkpt lat="46.1827352" lon="13.6437811"><ele>741.0</ele><time>2026-05-02T09:46:56.873Z</time></trkpt><trkpt lat="46.1826984" lon="13.6436321"><ele>741.0</ele><time>2026-05-02T09:46:57.872Z</time></trkpt><trkpt lat="46.182674" lon="13.6434909"><ele>741.0</ele><time>2026-05-02T09:46:58.877Z</time></trkpt><trkpt lat="46.1826566" lon="13.6433261"><ele>741.0</ele><time>2026-05-02T09:46:59.87Z</time></trkpt><trkpt lat="46.1826482" lon="13.6431683"><ele>741.0</ele><time>2026-05-02T09:47:00.887Z</time></trkpt><trkpt lat="46.1826619" lon="13.6428472"><ele>739.75</ele><time>2026-05-02T09:47:02.868Z</time></trkpt><trkpt lat="46.1826776" lon="13.6426716"><ele>738.5</ele><time>2026-05-02T09:47:03.868Z</time></trkpt><trkpt lat="46.1827061" lon="13.642505"><ele>737.25</ele><time>2026-05-02T09:47:04.877Z</time></trkpt><trkpt lat="46.1827541" lon="13.6423492"><ele>736.0</ele><time>2026-05-02T09:47:05.866Z</time></trkpt><trkpt lat="46.1828073" lon="13.6422117"><ele>736.0</ele><time>2026-05-02T09:47:06.867Z</time></trkpt><trkpt lat="46.1828786" lon="13.6421044"><ele>736.0</ele><time>2026-05-02T09:47:07.871Z</time></trkpt><trkpt lat="46.1830285" lon="13.6420414"><ele>736.0</ele><time>2026-05-02T09:47:08.874Z</time></trkpt><trkpt lat="46.1831669" lon="13.6419877"><ele>736.0</ele><time>2026-05-02T09:47:09.867Z</time></trkpt><trkpt lat="46.183297" lon="13.6419662"><ele>738.5</ele><time>2026-05-02T09:47:10.877Z</time></trkpt><trkpt lat="46.1834327" lon="13.6419288"><ele>741.0</ele><time>2026-05-02T09:47:11.875Z</time></trkpt><trkpt lat="46.1835506" lon="13.6418745"><ele>743.5</ele><time>2026-05-02T09:47:12.871Z</time></trkpt><trkpt lat="46.1836339" lon="13.6417895"><ele>746.0</ele><time>2026-05-02T09:47:13.863Z</time></trkpt><trkpt lat="46.1836973" lon="13.6416986"><ele>746.0</ele><time>2026-05-02T09:47:14.867Z</time></trkpt><trkpt lat="46.1837203" lon="13.6415691"><ele>746.0</ele><time>2026-05-02T09:47:15.868Z</time></trkpt><trkpt lat="46.1837335" lon="13.6414307"><ele>746.0</ele><time>2026-05-02T09:47:16.884Z</time></trkpt><trkpt lat="46.1837243" lon="13.6412665"><ele>746.0</ele><time>2026-05-02T09:47:17.87Z</time></trkpt><trkpt lat="46.1837305" lon="13.6410949"><ele>746.0</ele><time>2026-05-02T09:47:18.871Z</time></trkpt><trkpt lat="46.1837355" lon="13.6409287"><ele>740.6666666666666</ele><time>2026-05-02T09:47:19.874Z</time></trkpt><trkpt lat="46.1837623" lon="13.6407266"><ele>735.3333333333334</ele><time>2026-05-02T09:47:20.867Z</time></trkpt><trkpt lat="46.1837727" lon="13.6405281"><ele>730.0</ele><time>2026-05-02T09:47:21.869Z</time></trkpt><trkpt lat="46.1836952" lon="13.6401074"><ele>728.3333333333334</ele><time>2026-05-02T09:47:23.876Z</time></trkpt><trkpt lat="46.1836195" lon="13.6398599"><ele>726.6666666666666</ele><time>2026-05-02T09:47:24.868Z</time></trkpt><trkpt lat="46.1835418" lon="13.6396136"><ele>725.0</ele><time>2026-05-02T09:47:25.877Z</time></trkpt><trkpt lat="46.1834702" lon="13.6393866"><ele>724.0</ele><time>2026-05-02T09:47:26.87Z</time></trkpt><trkpt lat="46.1834168" lon="13.639195"><ele>723.0</ele><time>2026-05-02T09:47:27.873Z</time></trkpt><trkpt lat="46.1834054" lon="13.6389942"><ele>722.0</ele><time>2026-05-02T09:47:28.877Z</time></trkpt><trkpt lat="46.1834387" lon="13.6388232"><ele>721.0</ele><time>2026-05-02T09:47:29.863Z</time></trkpt><trkpt lat="46.1834962" lon="13.6387318"><ele>721.0</ele><time>2026-05-02T09:47:30.869Z</time></trkpt><trkpt lat="46.1835816" lon="13.63868"><ele>721.0</ele><time>2026-05-02T09:47:31.867Z</time></trkpt><trkpt lat="46.1836602" lon="13.6386541"><ele>721.0</ele><time>2026-05-02T09:47:32.88Z</time></trkpt><trkpt lat="46.1837374" lon="13.6386138"><ele>721.0</ele><time>2026-05-02T09:47:33.878Z</time></trkpt><trkpt lat="46.1837933" lon="13.6385527"><ele>721.0</ele><time>2026-05-02T09:47:34.864Z</time></trkpt><trkpt lat="46.1838387" lon="13.638464"><ele>721.0</ele><time>2026-05-02T09:47:35.875Z</time></trkpt><trkpt lat="46.1838651" lon="13.6383437"><ele>719.0</ele><time>2026-05-02T09:47:36.864Z</time></trkpt><trkpt lat="46.1838936" lon="13.6381985"><ele>717.0</ele><time>2026-05-02T09:47:37.878Z</time></trkpt><trkpt lat="46.1839155" lon="13.6380344"><ele>715.0</ele><time>2026-05-02T09:47:38.867Z</time></trkpt><trkpt lat="46.1839155" lon="13.637859"><ele>713.0</ele><time>2026-05-02T09:47:39.865Z</time></trkpt><trkpt lat="46.1838884" lon="13.6376622"><ele>712.6666666666666</ele><time>2026-05-02T09:47:40.87Z</time></trkpt><trkpt lat="46.1838382" lon="13.6374663"><ele>712.3333333333334</ele><time>2026-05-02T09:47:41.867Z</time></trkpt><trkpt lat="46.1837715" lon="13.6372714"><ele>712.0</ele><time>2026-05-02T09:47:42.867Z</time></trkpt><trkpt lat="46.1837348" lon="13.6369003"><ele>712.0</ele><time>2026-05-02T09:47:44.873Z</time></trkpt><trkpt lat="46.1837166" lon="13.6366893"><ele>712.0</ele><time>2026-05-02T09:47:45.867Z</time></trkpt><trkpt lat="46.1836809" lon="13.6364877"><ele>712.0</ele><time>2026-05-02T09:47:46.876Z</time></trkpt><trkpt lat="46.1836161" lon="13.6363077"><ele>712.0</ele><time>2026-05-02T09:47:47.87Z</time></trkpt><trkpt lat="46.1835609" lon="13.6361511"><ele>713.6</ele><time>2026-05-02T09:47:48.871Z</time></trkpt><trkpt lat="46.1835275" lon="13.6360104"><ele>715.2</ele><time>2026-05-02T09:47:49.872Z</time></trkpt><trkpt lat="46.1835566" lon="13.6358673"><ele>716.8</ele><time>2026-05-02T09:47:50.865Z</time></trkpt><trkpt lat="46.1836231" lon="13.635766"><ele>718.4</ele><time>2026-05-02T09:47:51.87Z</time></trkpt><trkpt lat="46.1837073" lon="13.6357004"><ele>720.0</ele><time>2026-05-02T09:47:52.871Z</time></trkpt><trkpt lat="46.1837861" lon="13.6356265"><ele>720.0</ele><time>2026-05-02T09:47:53.87Z</time></trkpt><trkpt lat="46.1839007" lon="13.635561"><ele>720.0</ele><time>2026-05-02T09:47:54.868Z</time></trkpt><trkpt lat="46.1840135" lon="13.6354948"><ele>720.0</ele><time>2026-05-02T09:47:55.869Z</time></trkpt><trkpt lat="46.1841188" lon="13.6354313"><ele>720.0</ele><time>2026-05-02T09:47:56.871Z</time></trkpt><trkpt lat="46.1842206" lon="13.6353597"><ele>722.2</ele><time>2026-05-02T09:47:57.868Z</time></trkpt><trkpt lat="46.1843142" lon="13.6352753"><ele>724.4</ele><time>2026-05-02T09:47:58.87Z</time></trkpt><trkpt lat="46.1844007" lon="13.6351832"><ele>726.5999999999999</ele><time>2026-05-02T09:47:59.866Z</time></trkpt><trkpt lat="46.1844767" lon="13.6350916"><ele>728.8</ele><time>2026-05-02T09:48:00.876Z</time></trkpt><trkpt lat="46.1845384" lon="13.6349931"><ele>731.0</ele><time>2026-05-02T09:48:01.87Z</time></trkpt><trkpt lat="46.1845884" lon="13.6348608"><ele>731.0</ele><time>2026-05-02T09:48:02.865Z</time></trkpt><trkpt lat="46.1846017" lon="13.6347128"><ele>731.0</ele><time>2026-05-02T09:48:03.875Z</time></trkpt><trkpt lat="46.1845208" lon="13.6344054"><ele>731.0</ele><time>2026-05-02T09:48:05.867Z</time></trkpt><trkpt lat="46.1844519" lon="13.6342428"><ele>729.25</ele><time>2026-05-02T09:48:06.869Z</time></trkpt><trkpt lat="46.1843728" lon="13.6340803"><ele>727.5</ele><time>2026-05-02T09:48:07.867Z</time></trkpt><trkpt lat="46.1842957" lon="13.6339243"><ele>725.75</ele><time>2026-05-02T09:48:08.872Z</time></trkpt><trkpt lat="46.1842315" lon="13.6337738"><ele>724.0</ele><time>2026-05-02T09:48:09.868Z</time></trkpt><trkpt lat="46.1841867" lon="13.6336192"><ele>724.0</ele><time>2026-05-02T09:48:10.868Z</time></trkpt><trkpt lat="46.1841855" lon="13.6334362"><ele>724.0</ele><time>2026-05-02T09:48:11.879Z</time></trkpt><trkpt lat="46.1841606" lon="13.6332563"><ele>724.0</ele><time>2026-05-02T09:48:12.864Z</time></trkpt><trkpt lat="46.184133" lon="13.6330975"><ele>724.0</ele><time>2026-05-02T09:48:13.863Z</time></trkpt><trkpt lat="46.1841148" lon="13.6329514"><ele>722.6</ele><time>2026-05-02T09:48:14.88Z</time></trkpt><trkpt lat="46.1841118" lon="13.632799"><ele>721.2</ele><time>2026-05-02T09:48:15.877Z</time></trkpt><trkpt lat="46.184133" lon="13.6326574"><ele>719.8000000000001</ele><time>2026-05-02T09:48:16.874Z</time></trkpt><trkpt lat="46.1841702" lon="13.6325192"><ele>718.4000000000001</ele><time>2026-05-02T09:48:17.872Z</time></trkpt><trkpt lat="46.1842194" lon="13.6323841"><ele>717.0</ele><time>2026-05-02T09:48:18.871Z</time></trkpt><trkpt lat="46.1842648" lon="13.6322299"><ele>717.0</ele><time>2026-05-02T09:48:19.882Z</time></trkpt><trkpt lat="46.1843075" lon="13.6320806"><ele>717.0</ele><time>2026-05-02T09:48:20.863Z</time></trkpt><trkpt lat="46.1843157" lon="13.6319461"><ele>717.0</ele><time>2026-05-02T09:48:21.874Z</time></trkpt><trkpt lat="46.1843006" lon="13.6318278"><ele>717.0</ele><time>2026-05-02T09:48:22.881Z</time></trkpt><trkpt lat="46.1842653" lon="13.6317265"><ele>717.0</ele><time>2026-05-02T09:48:23.867Z</time></trkpt><trkpt lat="46.1842156" lon="13.6316281"><ele>720.3333333333334</ele><time>2026-05-02T09:48:24.873Z</time></trkpt><trkpt lat="46.1840481" lon="13.6314498"><ele>723.6666666666667</ele><time>2026-05-02T09:48:26.869Z</time></trkpt><trkpt lat="46.1839396" lon="13.6313625"><ele>727.0</ele><time>2026-05-02T09:48:27.871Z</time></trkpt><trkpt lat="46.1838241" lon="13.6312816"><ele>725.4000000000001</ele><time>2026-05-02T09:48:28.867Z</time></trkpt><trkpt lat="46.1837" lon="13.6312292"><ele>723.8000000000001</ele><time>2026-05-02T09:48:29.87Z</time></trkpt><trkpt lat="46.1835913" lon="13.6311876"><ele>722.2</ele><time>2026-05-02T09:48:30.873Z</time></trkpt><trkpt lat="46.1834948" lon="13.6311487"><ele>720.6</ele><time>2026-05-02T09:48:31.881Z</time></trkpt><trkpt lat="46.1834115" lon="13.6310822"><ele>719.0</ele><time>2026-05-02T09:48:32.863Z</time></trkpt><trkpt lat="46.1833412" lon="13.6309971"><ele>719.0</ele><time>2026-05-02T09:48:33.869Z</time></trkpt><trkpt lat="46.1832802" lon="13.6308885"><ele>719.0</ele><time>2026-05-02T09:48:34.875Z</time></trkpt><trkpt lat="46.1832224" lon="13.6307539"><ele>719.0</ele><time>2026-05-02T09:48:35.869Z</time></trkpt><trkpt lat="46.1831655" lon="13.630605"><ele>719.0</ele><time>2026-05-02T09:48:36.879Z</time></trkpt><trkpt lat="46.1831288" lon="13.6304446"><ele>719.0</ele><time>2026-05-02T09:48:37.865Z</time></trkpt><trkpt lat="46.1831032" lon="13.6302852"><ele>724.0</ele><time>2026-05-02T09:48:38.877Z</time></trkpt><trkpt lat="46.1831047" lon="13.6301065"><ele>729.0</ele><time>2026-05-02T09:48:39.869Z</time></trkpt><trkpt lat="46.1831348" lon="13.629914"><ele>734.0</ele><time>2026-05-02T09:48:40.874Z</time></trkpt><trkpt lat="46.1831854" lon="13.6297222"><ele>739.0</ele><time>2026-05-02T09:48:41.869Z</time></trkpt><trkpt lat="46.1832433" lon="13.6295343"><ele>739.25</ele><time>2026-05-02T09:48:42.872Z</time></trkpt><trkpt lat="46.1832944" lon="13.6293435"><ele>739.5</ele><time>2026-05-02T09:48:43.865Z</time></trkpt><trkpt lat="46.1833098" lon="13.62915"><ele>739.75</ele><time>2026-05-02T09:48:44.866Z</time></trkpt><trkpt lat="46.1832986" lon="13.6289182"><ele>740.0</ele><time>2026-05-02T09:48:45.869Z</time></trkpt><trkpt lat="46.1831843" lon="13.6284686"><ele>741.0</ele><time>2026-05-02T09:48:47.879Z</time></trkpt><trkpt lat="46.183123" lon="13.6282786"><ele>742.0</ele><time>2026-05-02T09:48:48.869Z</time></trkpt><trkpt lat="46.183062" lon="13.6280713"><ele>743.0</ele><time>2026-05-02T09:48:49.865Z</time></trkpt><trkpt lat="46.1829917" lon="13.6279005"><ele>744.0</ele><time>2026-05-02T09:48:50.876Z</time></trkpt><trkpt lat="46.1829168" lon="13.6277515"><ele>744.0</ele><time>2026-05-02T09:48:51.887Z</time></trkpt><trkpt lat="46.182846" lon="13.627619"><ele>744.0</ele><time>2026-05-02T09:48:52.877Z</time></trkpt><trkpt lat="46.1827817" lon="13.6274768"><ele>744.0</ele><time>2026-05-02T09:48:53.868Z</time></trkpt><trkpt lat="46.1827159" lon="13.6274101"><ele>744.0</ele><time>2026-05-02T09:48:54.872Z</time></trkpt><trkpt lat="46.1826374" lon="13.6273878"><ele>744.0</ele><time>2026-05-02T09:48:55.873Z</time></trkpt><trkpt lat="46.1825556" lon="13.6274004"><ele>744.0</ele><time>2026-05-02T09:48:56.869Z</time></trkpt><trkpt lat="46.182474" lon="13.6274371"><ele>744.0</ele><time>2026-05-02T09:48:57.87Z</time></trkpt><trkpt lat="46.1823866" lon="13.627503"><ele>744.0</ele><time>2026-05-02T09:48:58.872Z</time></trkpt><trkpt lat="46.1822936" lon="13.627587"><ele>744.0</ele><time>2026-05-02T09:48:59.87Z</time></trkpt><trkpt lat="46.1821993" lon="13.6276876"><ele>744.0</ele><time>2026-05-02T09:49:00.87Z</time></trkpt><trkpt lat="46.1821014" lon="13.6277838"><ele>741.5</ele><time>2026-05-02T09:49:01.872Z</time></trkpt><trkpt lat="46.1819974" lon="13.6278892"><ele>739.0</ele><time>2026-05-02T09:49:02.868Z</time></trkpt><trkpt lat="46.1818998" lon="13.6279903"><ele>736.5</ele><time>2026-05-02T09:49:03.866Z</time></trkpt><trkpt lat="46.1818097" lon="13.6280958"><ele>734.0</ele><time>2026-05-02T09:49:04.88Z</time></trkpt><trkpt lat="46.1817165" lon="13.6282044"><ele>734.0</ele><time>2026-05-02T09:49:05.874Z</time></trkpt><trkpt lat="46.1816248" lon="13.6283142"><ele>734.0</ele><time>2026-05-02T09:49:06.883Z</time></trkpt><trkpt lat="46.1814491" lon="13.6285476"><ele>734.0</ele><time>2026-05-02T09:49:08.876Z</time></trkpt><trkpt lat="46.1813631" lon="13.628679"><ele>727.8000000000001</ele><time>2026-05-02T09:49:09.866Z</time></trkpt><trkpt lat="46.1812782" lon="13.6287863"><ele>721.6</ele><time>2026-05-02T09:49:10.868Z</time></trkpt><trkpt lat="46.1811901" lon="13.6288682"><ele>715.4</ele><time>2026-05-02T09:49:11.877Z</time></trkpt><trkpt lat="46.1811101" lon="13.6289367"><ele>709.2</ele><time>2026-05-02T09:49:12.867Z</time></trkpt><trkpt lat="46.1810353" lon="13.6289739"><ele>703.0</ele><time>2026-05-02T09:49:13.867Z</time></trkpt><trkpt lat="46.1809875" lon="13.6288794"><ele>703.0</ele><time>2026-05-02T09:49:14.876Z</time></trkpt><trkpt lat="46.1809675" lon="13.6287195"><ele>703.0</ele><time>2026-05-02T09:49:15.873Z</time></trkpt><trkpt lat="46.1809399" lon="13.6285577"><ele>703.0</ele><time>2026-05-02T09:49:16.868Z</time></trkpt><trkpt lat="46.1808837" lon="13.6284342"><ele>703.0</ele><time>2026-05-02T09:49:17.867Z</time></trkpt><trkpt lat="46.1807992" lon="13.6283591"><ele>703.0</ele><time>2026-05-02T09:49:18.869Z</time></trkpt><trkpt lat="46.1807134" lon="13.6283205"><ele>703.0</ele><time>2026-05-02T09:49:19.87Z</time></trkpt><trkpt lat="46.1806179" lon="13.6282873"><ele>703.0</ele><time>2026-05-02T09:49:20.88Z</time></trkpt><trkpt lat="46.1805199" lon="13.6282557"><ele>703.0</ele><time>2026-05-02T09:49:21.867Z</time></trkpt><trkpt lat="46.180425" lon="13.6282237"><ele>703.0</ele><time>2026-05-02T09:49:22.865Z</time></trkpt><trkpt lat="46.1803482" lon="13.6281654"><ele>703.0</ele><time>2026-05-02T09:49:23.865Z</time></trkpt><trkpt lat="46.1802607" lon="13.6281193"><ele>703.0</ele><time>2026-05-02T09:49:24.868Z</time></trkpt><trkpt lat="46.1801695" lon="13.6280923"><ele>703.0</ele><time>2026-05-02T09:49:25.868Z</time></trkpt><trkpt lat="46.1800776" lon="13.6280658"><ele>703.0</ele><time>2026-05-02T09:49:26.869Z</time></trkpt><trkpt lat="46.1799874" lon="13.6280154"><ele>703.0</ele><time>2026-05-02T09:49:27.865Z</time></trkpt><trkpt lat="46.1798169" lon="13.6278221"><ele>704.75</ele><time>2026-05-02T09:49:29.872Z</time></trkpt><trkpt lat="46.1797526" lon="13.6276799"><ele>706.5</ele><time>2026-05-02T09:49:30.877Z</time></trkpt><trkpt lat="46.1796988" lon="13.6275052"><ele>708.25</ele><time>2026-05-02T09:49:31.871Z</time></trkpt><trkpt lat="46.1796503" lon="13.6273314"><ele>710.0</ele><time>2026-05-02T09:49:32.875Z</time></trkpt><trkpt lat="46.1795921" lon="13.6271845"><ele>710.0</ele><time>2026-05-02T09:49:33.868Z</time></trkpt><trkpt lat="46.179524" lon="13.6270616"><ele>710.0</ele><time>2026-05-02T09:49:34.881Z</time></trkpt><trkpt lat="46.1794405" lon="13.6269553"><ele>710.0</ele><time>2026-05-02T09:49:35.874Z</time></trkpt><trkpt lat="46.1793451" lon="13.6268949"><ele>710.0</ele><time>2026-05-02T09:49:36.867Z</time></trkpt><trkpt lat="46.1792514" lon="13.626861"><ele>710.0</ele><time>2026-05-02T09:49:37.863Z</time></trkpt><trkpt lat="46.1791475" lon="13.626872"><ele>712.5</ele><time>2026-05-02T09:49:38.875Z</time></trkpt><trkpt lat="46.1790487" lon="13.6269186"><ele>715.0</ele><time>2026-05-02T09:49:39.873Z</time></trkpt><trkpt lat="46.1789639" lon="13.6269317"><ele>717.5</ele><time>2026-05-02T09:49:40.867Z</time></trkpt><trkpt lat="46.1788917" lon="13.6269325"><ele>720.0</ele><time>2026-05-02T09:49:41.871Z</time></trkpt><trkpt lat="46.1788147" lon="13.6268486"><ele>722.5</ele><time>2026-05-02T09:49:43.869Z</time></trkpt><trkpt lat="46.1788311" lon="13.6267327"><ele>725.0</ele><time>2026-05-02T09:49:44.868Z</time></trkpt><trkpt lat="46.1788683" lon="13.6265623"><ele>715.0</ele><time>2026-05-02T09:49:45.873Z</time></trkpt><trkpt lat="46.1788897" lon="13.6264106"><ele>705.0</ele><time>2026-05-02T09:49:46.874Z</time></trkpt><trkpt lat="46.1788822" lon="13.626238"><ele>695.0</ele><time>2026-05-02T09:49:47.869Z</time></trkpt><trkpt lat="46.1788767" lon="13.6260563"><ele>685.0</ele><time>2026-05-02T09:49:48.868Z</time></trkpt><trkpt lat="46.1788945" lon="13.6257223"><ele>685.0</ele><time>2026-05-02T09:49:50.868Z</time></trkpt><trkpt lat="46.1789047" lon="13.6255722"><ele>685.0</ele><time>2026-05-02T09:49:51.869Z</time></trkpt><trkpt lat="46.1788982" lon="13.6254209"><ele>685.0</ele><time>2026-05-02T09:49:52.869Z</time></trkpt><trkpt lat="46.1788675" lon="13.625291"><ele>685.0</ele><time>2026-05-02T09:49:53.869Z</time></trkpt><trkpt lat="46.1788146" lon="13.6251682"><ele>685.0</ele><time>2026-05-02T09:49:54.867Z</time></trkpt><trkpt lat="46.1787464" lon="13.6250586"><ele>690.0</ele><time>2026-05-02T09:49:55.869Z</time></trkpt><trkpt lat="46.1786727" lon="13.6249797"><ele>695.0</ele><time>2026-05-02T09:49:56.864Z</time></trkpt><trkpt lat="46.1785967" lon="13.6249305"><ele>700.0</ele><time>2026-05-02T09:49:57.864Z</time></trkpt><trkpt lat="46.1785269" lon="13.6249173"><ele>705.0</ele><time>2026-05-02T09:49:58.876Z</time></trkpt><trkpt lat="46.1784347" lon="13.624913"><ele>710.0</ele><time>2026-05-02T09:49:59.87Z</time></trkpt><trkpt lat="46.1783215" lon="13.6248867"><ele>710.0</ele><time>2026-05-02T09:50:00.872Z</time></trkpt><trkpt lat="46.1782103" lon="13.6248608"><ele>710.0</ele><time>2026-05-02T09:50:01.879Z</time></trkpt><trkpt lat="46.1781276" lon="13.6248056"><ele>710.0</ele><time>2026-05-02T09:50:02.877Z</time></trkpt><trkpt lat="46.178074" lon="13.6247281"><ele>710.0</ele><time>2026-05-02T09:50:03.866Z</time></trkpt><trkpt lat="46.1780469" lon="13.6246163"><ele>710.0</ele><time>2026-05-02T09:50:04.872Z</time></trkpt><trkpt lat="46.1780033" lon="13.6244751"><ele>709.0</ele><time>2026-05-02T09:50:05.868Z</time></trkpt><trkpt lat="46.1779371" lon="13.6243382"><ele>708.0</ele><time>2026-05-02T09:50:06.872Z</time></trkpt><trkpt lat="46.1778857" lon="13.6242182"><ele>707.0</ele><time>2026-05-02T09:50:07.867Z</time></trkpt><trkpt lat="46.1778161" lon="13.624139"><ele>706.0</ele><time>2026-05-02T09:50:08.872Z</time></trkpt><trkpt lat="46.1777386" lon="13.6240978"><ele>705.0</ele><time>2026-05-02T09:50:09.865Z</time></trkpt><trkpt lat="46.1775481" lon="13.6240884"><ele>705.0</ele><time>2026-05-02T09:50:11.865Z</time></trkpt><trkpt lat="46.1774305" lon="13.6240486"><ele>705.0</ele><time>2026-05-02T09:50:12.868Z</time></trkpt><trkpt lat="46.1773074" lon="13.6239802"><ele>705.0</ele><time>2026-05-02T09:50:13.875Z</time></trkpt><trkpt lat="46.1771956" lon="13.6238846"><ele>705.0</ele><time>2026-05-02T09:50:14.873Z</time></trkpt><trkpt lat="46.1770974" lon="13.623786"><ele>704.6666666666666</ele><time>2026-05-02T09:50:15.864Z</time></trkpt><trkpt lat="46.1770206" lon="13.6236767"><ele>704.3333333333334</ele><time>2026-05-02T09:50:16.872Z</time></trkpt><trkpt lat="46.1769485" lon="13.6235866"><ele>704.0</ele><time>2026-05-02T09:50:17.871Z</time></trkpt><trkpt lat="46.1768831" lon="13.62354"><ele>703.6666666666667</ele><time>2026-05-02T09:50:18.868Z</time></trkpt><trkpt lat="46.1767997" lon="13.6235756"><ele>703.3333333333334</ele><time>2026-05-02T09:50:20.867Z</time></trkpt><trkpt lat="46.176725" lon="13.6236146"><ele>703.0</ele><time>2026-05-02T09:50:22.877Z</time></trkpt><trkpt lat="46.1766129" lon="13.6236247"><ele>697.5999999999999</ele><time>2026-05-02T09:50:24.873Z</time></trkpt><trkpt lat="46.1764908" lon="13.623577"><ele>692.1999999999999</ele><time>2026-05-02T09:50:26.87Z</time></trkpt><trkpt lat="46.1764244" lon="13.6234925"><ele>686.8</ele><time>2026-05-02T09:50:27.871Z</time></trkpt><trkpt lat="46.1763505" lon="13.6233882"><ele>681.4</ele><time>2026-05-02T09:50:28.867Z</time></trkpt><trkpt lat="46.176274" lon="13.6232655"><ele>676.0</ele><time>2026-05-02T09:50:29.867Z</time></trkpt><trkpt lat="46.1761951" lon="13.6231656"><ele>676.0</ele><time>2026-05-02T09:50:30.881Z</time></trkpt><trkpt lat="46.1760737" lon="13.622952"><ele>676.0</ele><time>2026-05-02T09:50:32.89Z</time></trkpt><trkpt lat="46.1760243" lon="13.6228631"><ele>676.0</ele><time>2026-05-02T09:50:33.867Z</time></trkpt><trkpt lat="46.1759519" lon="13.622794"><ele>676.0</ele><time>2026-05-02T09:50:34.874Z</time></trkpt><trkpt lat="46.1758637" lon="13.6227326"><ele>677.5999999999999</ele><time>2026-05-02T09:50:35.868Z</time></trkpt><trkpt lat="46.1757702" lon="13.6226703"><ele>679.2</ele><time>2026-05-02T09:50:36.868Z</time></trkpt><trkpt lat="46.175669" lon="13.6226302"><ele>680.8</ele><time>2026-05-02T09:50:37.862Z</time></trkpt><trkpt lat="46.1755569" lon="13.6226236"><ele>682.4000000000001</ele><time>2026-05-02T09:50:38.886Z</time></trkpt><trkpt lat="46.1754374" lon="13.6226039"><ele>684.0</ele><time>2026-05-02T09:50:39.866Z</time></trkpt><trkpt lat="46.1753145" lon="13.6225902"><ele>684.0</ele><time>2026-05-02T09:50:40.867Z</time></trkpt><trkpt lat="46.1751908" lon="13.6226061"><ele>684.0</ele><time>2026-05-02T09:50:41.867Z</time></trkpt><trkpt lat="46.1750801" lon="13.6226225"><ele>684.0</ele><time>2026-05-02T09:50:42.874Z</time></trkpt><trkpt lat="46.1749835" lon="13.6226328"><ele>684.0</ele><time>2026-05-02T09:50:43.864Z</time></trkpt><trkpt lat="46.1749157" lon="13.622596"><ele>684.0</ele><time>2026-05-02T09:50:44.866Z</time></trkpt><trkpt lat="46.174883" lon="13.6224449"><ele>684.0</ele><time>2026-05-02T09:50:46.866Z</time></trkpt><trkpt lat="46.174956" lon="13.6222891"><ele>684.0</ele><time>2026-05-02T09:50:48.867Z</time></trkpt><trkpt lat="46.175017" lon="13.62219"><ele>684.0</ele><time>2026-05-02T09:50:49.871Z</time></trkpt><trkpt lat="46.1750679" lon="13.6220658"><ele>684.0</ele><time>2026-05-02T09:50:50.872Z</time></trkpt><trkpt lat="46.1751049" lon="13.6219261"><ele>684.0</ele><time>2026-05-02T09:50:51.869Z</time></trkpt><trkpt lat="46.1752086" lon="13.6216604"><ele>682.0</ele><time>2026-05-02T09:50:53.864Z</time></trkpt><trkpt lat="46.1752818" lon="13.6215559"><ele>680.0</ele><time>2026-05-02T09:50:54.867Z</time></trkpt><trkpt lat="46.1753569" lon="13.6214532"><ele>678.0</ele><time>2026-05-02T09:50:55.875Z</time></trkpt><trkpt lat="46.175411" lon="13.6213393"><ele>676.0</ele><time>2026-05-02T09:50:56.867Z</time></trkpt><trkpt lat="46.1754098" lon="13.6212095"><ele>674.0</ele><time>2026-05-02T09:50:57.866Z</time></trkpt><trkpt lat="46.1753776" lon="13.6210648"><ele>673.75</ele><time>2026-05-02T09:50:58.872Z</time></trkpt><trkpt lat="46.1753064" lon="13.6209372"><ele>673.5</ele><time>2026-05-02T09:50:59.869Z</time></trkpt><trkpt lat="46.1752069" lon="13.620794"><ele>673.25</ele><time>2026-05-02T09:51:00.866Z</time></trkpt><trkpt lat="46.1751075" lon="13.6206702"><ele>673.0</ele><time>2026-05-02T09:51:01.872Z</time></trkpt><trkpt lat="46.1749995" lon="13.6205574"><ele>673.0</ele><time>2026-05-02T09:51:02.866Z</time></trkpt><trkpt lat="46.1749062" lon="13.6204509"><ele>673.0</ele><time>2026-05-02T09:51:03.873Z</time></trkpt><trkpt lat="46.1748315" lon="13.6203579"><ele>673.0</ele><time>2026-05-02T09:51:04.868Z</time></trkpt><trkpt lat="46.1747778" lon="13.6202387"><ele>673.0</ele><time>2026-05-02T09:51:05.87Z</time></trkpt><trkpt lat="46.1747431" lon="13.6201058"><ele>673.0</ele><time>2026-05-02T09:51:06.874Z</time></trkpt><trkpt lat="46.174718" lon="13.619954"><ele>660.75</ele><time>2026-05-02T09:51:07.87Z</time></trkpt><trkpt lat="46.1747128" lon="13.6197905"><ele>648.5</ele><time>2026-05-02T09:51:08.872Z</time></trkpt><trkpt lat="46.1747202" lon="13.6196197"><ele>636.25</ele><time>2026-05-02T09:51:09.861Z</time></trkpt><trkpt lat="46.1747283" lon="13.6194432"><ele>624.0</ele><time>2026-05-02T09:51:10.876Z</time></trkpt><trkpt lat="46.1747368" lon="13.6192542"><ele>623.6666666666666</ele><time>2026-05-02T09:51:11.867Z</time></trkpt><trkpt lat="46.174751" lon="13.6190604"><ele>623.3333333333333</ele><time>2026-05-02T09:51:12.864Z</time></trkpt><trkpt lat="46.1748367" lon="13.6186743"><ele>623.0</ele><time>2026-05-02T09:51:14.881Z</time></trkpt><trkpt lat="46.1748718" lon="13.6184858"><ele>621.5</ele><time>2026-05-02T09:51:15.866Z</time></trkpt><trkpt lat="46.1748905" lon="13.6183202"><ele>620.0</ele><time>2026-05-02T09:51:16.862Z</time></trkpt><trkpt lat="46.1748749" lon="13.6181388"><ele>618.5</ele><time>2026-05-02T09:51:17.865Z</time></trkpt><trkpt lat="46.1748061" lon="13.6179973"><ele>617.0</ele><time>2026-05-02T09:51:18.871Z</time></trkpt><trkpt lat="46.1747301" lon="13.6178458"><ele>618.5</ele><time>2026-05-02T09:51:19.866Z</time></trkpt><trkpt lat="46.1746646" lon="13.6176822"><ele>620.0</ele><time>2026-05-02T09:51:20.876Z</time></trkpt><trkpt lat="46.1746358" lon="13.6175003"><ele>621.5</ele><time>2026-05-02T09:51:21.875Z</time></trkpt><trkpt lat="46.1746105" lon="13.6173104"><ele>623.0</ele><time>2026-05-02T09:51:22.88Z</time></trkpt><trkpt lat="46.1745853" lon="13.6171369"><ele>627.5</ele><time>2026-05-02T09:51:23.865Z</time></trkpt><trkpt lat="46.174551" lon="13.6169718"><ele>632.0</ele><time>2026-05-02T09:51:24.871Z</time></trkpt><trkpt lat="46.1745135" lon="13.6168017"><ele>636.5</ele><time>2026-05-02T09:51:25.868Z</time></trkpt><trkpt lat="46.174449" lon="13.6166565"><ele>641.0</ele><time>2026-05-02T09:51:26.875Z</time></trkpt><trkpt lat="46.1743518" lon="13.6165255"><ele>641.0</ele><time>2026-05-02T09:51:27.879Z</time></trkpt><trkpt lat="46.174243" lon="13.6164069"><ele>641.0</ele><time>2026-05-02T09:51:28.871Z</time></trkpt><trkpt lat="46.1741347" lon="13.6162911"><ele>641.0</ele><time>2026-05-02T09:51:29.866Z</time></trkpt><trkpt lat="46.174042" lon="13.6161602"><ele>641.0</ele><time>2026-05-02T09:51:30.879Z</time></trkpt><trkpt lat="46.1739515" lon="13.6160293"><ele>640.0</ele><time>2026-05-02T09:51:31.871Z</time></trkpt><trkpt lat="46.17387" lon="13.6158916"><ele>639.0</ele><time>2026-05-02T09:51:32.864Z</time></trkpt><trkpt lat="46.1737821" lon="13.6157721"><ele>638.0</ele><time>2026-05-02T09:51:33.868Z</time></trkpt><trkpt lat="46.1735497" lon="13.6155526"><ele>638.0</ele><time>2026-05-02T09:51:35.87Z</time></trkpt><trkpt lat="46.1734343" lon="13.6154479"><ele>638.0</ele><time>2026-05-02T09:51:36.871Z</time></trkpt><trkpt lat="46.1733467" lon="13.6153287"><ele>638.0</ele><time>2026-05-02T09:51:37.864Z</time></trkpt><trkpt lat="46.1732764" lon="13.6151748"><ele>638.0</ele><time>2026-05-02T09:51:38.87Z</time></trkpt><trkpt lat="46.1732168" lon="13.6150109"><ele>625.3333333333333</ele><time>2026-05-02T09:51:39.871Z</time></trkpt><trkpt lat="46.1731545" lon="13.6148382"><ele>612.6666666666666</ele><time>2026-05-02T09:51:40.871Z</time></trkpt><trkpt lat="46.1730924" lon="13.6146394"><ele>600.0</ele><time>2026-05-02T09:51:41.871Z</time></trkpt><trkpt lat="46.1730463" lon="13.6143921"><ele>600.0</ele><time>2026-05-02T09:51:42.86Z</time></trkpt><trkpt lat="46.1730048" lon="13.6141382"><ele>600.0</ele><time>2026-05-02T09:51:43.864Z</time></trkpt><trkpt lat="46.1729685" lon="13.6138743"><ele>600.0</ele><time>2026-05-02T09:51:44.876Z</time></trkpt><trkpt lat="46.1729139" lon="13.6136366"><ele>600.0</ele><time>2026-05-02T09:51:45.872Z</time></trkpt><trkpt lat="46.1728336" lon="13.613434"><ele>600.0</ele><time>2026-05-02T09:51:46.863Z</time></trkpt><trkpt lat="46.1727469" lon="13.6132244"><ele>600.0</ele><time>2026-05-02T09:51:47.865Z</time></trkpt><trkpt lat="46.1726763" lon="13.6130298"><ele>600.0</ele><time>2026-05-02T09:51:48.878Z</time></trkpt><trkpt lat="46.1726069" lon="13.6128604"><ele>600.0</ele><time>2026-05-02T09:51:49.863Z</time></trkpt><trkpt lat="46.1725496" lon="13.6127208"><ele>600.0</ele><time>2026-05-02T09:51:50.862Z</time></trkpt><trkpt lat="46.1724903" lon="13.6126161"><ele>600.0</ele><time>2026-05-02T09:51:51.864Z</time></trkpt><trkpt lat="46.1724307" lon="13.6125513"><ele>600.0</ele><time>2026-05-02T09:51:52.882Z</time></trkpt><trkpt lat="46.17235" lon="13.612584"><ele>602.5</ele><time>2026-05-02T09:51:55.865Z</time></trkpt><trkpt lat="46.1721525" lon="13.61251"><ele>605.0</ele><time>2026-05-02T09:52:12.881Z</time></trkpt><trkpt lat="46.1720879" lon="13.6124783"><ele>607.5</ele><time>2026-05-02T09:52:13.867Z</time></trkpt><trkpt lat="46.1719674" lon="13.6124439"><ele>610.0</ele><time>2026-05-02T09:52:15.865Z</time></trkpt><trkpt lat="46.1718984" lon="13.6124108"><ele>610.0</ele><time>2026-05-02T09:52:16.871Z</time></trkpt><trkpt lat="46.1716761" lon="13.6124956"><ele>610.0</ele><time>2026-05-02T09:52:20.873Z</time></trkpt><trkpt lat="46.1715706" lon="13.612569"><ele>610.0</ele><time>2026-05-02T09:52:22.875Z</time></trkpt><trkpt lat="46.1715091" lon="13.6126101"><ele>610.0</ele><time>2026-05-02T09:52:23.865Z</time></trkpt><trkpt lat="46.1714515" lon="13.6126545"><ele>610.3333333333334</ele><time>2026-05-02T09:52:24.873Z</time></trkpt><trkpt lat="46.1713311" lon="13.6127074"><ele>610.6666666666667</ele><time>2026-05-02T09:52:26.868Z</time></trkpt><trkpt lat="46.1712708" lon="13.6127458"><ele>611.0</ele><time>2026-05-02T09:52:27.864Z</time></trkpt><trkpt lat="46.1712064" lon="13.612783"><ele>611.3333333333334</ele><time>2026-05-02T09:52:28.87Z</time></trkpt><trkpt lat="46.1711402" lon="13.612811"><ele>611.6666666666666</ele><time>2026-05-02T09:52:29.872Z</time></trkpt><trkpt lat="46.1710669" lon="13.6128313"><ele>612.0</ele><time>2026-05-02T09:52:30.876Z</time></trkpt><trkpt lat="46.1709913" lon="13.6128523"><ele>607.8571428571429</ele><time>2026-05-02T09:52:31.868Z</time></trkpt><trkpt lat="46.1709255" lon="13.6128906"><ele>603.7142857142858</ele><time>2026-05-02T09:52:32.874Z</time></trkpt><trkpt lat="46.1708624" lon="13.6128961"><ele>599.5714285714287</ele><time>2026-05-02T09:52:33.865Z</time></trkpt><trkpt lat="46.1707963" lon="13.6128906"><ele>595.4285714285714</ele><time>2026-05-02T09:52:34.867Z</time></trkpt><trkpt lat="46.1707325" lon="13.6128801"><ele>591.2857142857143</ele><time>2026-05-02T09:52:35.868Z</time></trkpt><trkpt lat="46.1706586" lon="13.6128756"><ele>587.1428571428572</ele><time>2026-05-02T09:52:36.87Z</time></trkpt><trkpt lat="46.1705871" lon="13.6128918"><ele>583.0</ele><time>2026-05-02T09:52:37.866Z</time></trkpt><trkpt lat="46.1704462" lon="13.6129088"><ele>581.0</ele><time>2026-05-02T09:52:39.874Z</time></trkpt><trkpt lat="46.1703736" lon="13.6129217"><ele>579.0</ele><time>2026-05-02T09:52:40.871Z</time></trkpt><trkpt lat="46.170305" lon="13.6129374"><ele>577.0</ele><time>2026-05-02T09:52:41.871Z</time></trkpt><trkpt lat="46.1702383" lon="13.6129319"><ele>575.0</ele><time>2026-05-02T09:52:42.875Z</time></trkpt><trkpt lat="46.1701671" lon="13.6129068"><ele>573.0</ele><time>2026-05-02T09:52:43.867Z</time></trkpt><trkpt lat="46.1700896" lon="13.6128688"><ele>571.0</ele><time>2026-05-02T09:52:44.865Z</time></trkpt><trkpt lat="46.1700049" lon="13.6128464"><ele>571.0</ele><time>2026-05-02T09:52:45.869Z</time></trkpt><trkpt lat="46.169923" lon="13.6128426"><ele>571.0</ele><time>2026-05-02T09:52:46.869Z</time></trkpt><trkpt lat="46.1698095" lon="13.6128005"><ele>571.0</ele><time>2026-05-02T09:52:48.863Z</time></trkpt><trkpt lat="46.1696723" lon="13.6127828"><ele>571.0</ele><time>2026-05-02T09:52:50.869Z</time></trkpt><trkpt lat="46.1696008" lon="13.6127768"><ele>571.0</ele><time>2026-05-02T09:52:51.863Z</time></trkpt><trkpt lat="46.1695346" lon="13.6127769"><ele>574.0</ele><time>2026-05-02T09:52:52.872Z</time></trkpt><trkpt lat="46.1694718" lon="13.612789"><ele>577.0</ele><time>2026-05-02T09:52:53.873Z</time></trkpt><trkpt lat="46.1694059" lon="13.6128068"><ele>580.0</ele><time>2026-05-02T09:52:54.864Z</time></trkpt><trkpt lat="46.1692787" lon="13.6127812"><ele>583.0</ele><time>2026-05-02T09:52:56.865Z</time></trkpt><trkpt lat="46.1692117" lon="13.6127539"><ele>586.0</ele><time>2026-05-02T09:52:57.863Z</time></trkpt><trkpt lat="46.1691428" lon="13.6127114"><ele>589.0</ele><time>2026-05-02T09:52:58.867Z</time></trkpt><trkpt lat="46.1689891" lon="13.6126119"><ele>589.8</ele><time>2026-05-02T09:53:00.867Z</time></trkpt><trkpt lat="46.1689145" lon="13.6125633"><ele>590.5999999999999</ele><time>2026-05-02T09:53:01.867Z</time></trkpt><trkpt lat="46.168846" lon="13.6125388"><ele>591.4</ele><time>2026-05-02T09:53:02.869Z</time></trkpt><trkpt lat="46.1687359" lon="13.6124953"><ele>592.1999999999999</ele><time>2026-05-02T09:53:04.873Z</time></trkpt><trkpt lat="46.1686306" lon="13.6125194"><ele>593.0</ele><time>2026-05-02T09:53:06.869Z</time></trkpt><trkpt lat="46.168542" lon="13.6125733"><ele>593.0</ele><time>2026-05-02T09:53:08.868Z</time></trkpt><trkpt lat="46.1684451" lon="13.6126777"><ele>593.0</ele><time>2026-05-02T09:53:10.864Z</time></trkpt><trkpt lat="46.1683943" lon="13.6127491"><ele>593.0</ele><time>2026-05-02T09:53:11.871Z</time></trkpt><trkpt lat="46.1683504" lon="13.6128255"><ele>593.0</ele><time>2026-05-02T09:53:12.871Z</time></trkpt><trkpt lat="46.1683053" lon="13.6129098"><ele>593.0</ele><time>2026-05-02T09:53:13.865Z</time></trkpt><trkpt lat="46.1682609" lon="13.6129926"><ele>593.0</ele><time>2026-05-02T09:53:14.87Z</time></trkpt><trkpt lat="46.1682033" lon="13.6130721"><ele>587.5</ele><time>2026-05-02T09:53:15.867Z</time></trkpt><trkpt lat="46.1681531" lon="13.6131535"><ele>582.0</ele><time>2026-05-02T09:53:16.866Z</time></trkpt><trkpt lat="46.1680574" lon="13.6132964"><ele>576.5</ele><time>2026-05-02T09:53:18.864Z</time></trkpt><trkpt lat="46.1679966" lon="13.6133405"><ele>571.0</ele><time>2026-05-02T09:53:19.878Z</time></trkpt><trkpt lat="46.1678539" lon="13.6134856"><ele>571.0</ele><time>2026-05-02T09:53:22.873Z</time></trkpt><trkpt lat="46.1678022" lon="13.6136193"><ele>571.0</ele><time>2026-05-02T09:53:24.882Z</time></trkpt><trkpt lat="46.1677114" lon="13.6136673"><ele>571.0</ele><time>2026-05-02T09:53:26.863Z</time></trkpt><trkpt lat="46.1676132" lon="13.6136726"><ele>571.0</ele><time>2026-05-02T09:53:28.876Z</time></trkpt><trkpt lat="46.1674998" lon="13.6136461"><ele>571.0</ele><time>2026-05-02T09:53:30.867Z</time></trkpt><trkpt lat="46.1673816" lon="13.6136409"><ele>573.2</ele><time>2026-05-02T09:53:32.869Z</time></trkpt><trkpt lat="46.1672838" lon="13.6136904"><ele>575.4000000000001</ele><time>2026-05-02T09:53:34.867Z</time></trkpt><trkpt lat="46.1672163" lon="13.6137989"><ele>577.6</ele><time>2026-05-02T09:53:36.862Z</time></trkpt><trkpt lat="46.1671774" lon="13.6139322"><ele>579.8000000000001</ele><time>2026-05-02T09:53:38.866Z</time></trkpt><trkpt lat="46.1671668" lon="13.6140866"><ele>582.0</ele><time>2026-05-02T09:53:40.87Z</time></trkpt><trkpt lat="46.1671573" lon="13.6143779"><ele>577.8333333333334</ele><time>2026-05-02T09:53:43.86Z</time></trkpt><trkpt lat="46.1671475" lon="13.6144938"><ele>573.6666666666666</ele><time>2026-05-02T09:53:44.865Z</time></trkpt><trkpt lat="46.1671414" lon="13.614616"><ele>569.5</ele><time>2026-05-02T09:53:45.871Z</time></trkpt><trkpt lat="46.1671501" lon="13.6147106"><ele>565.3333333333333</ele><time>2026-05-02T09:53:46.872Z</time></trkpt><trkpt lat="46.1671358" lon="13.6148866"><ele>561.1666666666666</ele><time>2026-05-02T09:53:48.878Z</time></trkpt><trkpt lat="46.1671044" lon="13.6149831"><ele>557.0</ele><time>2026-05-02T09:53:49.873Z</time></trkpt><trkpt lat="46.1670636" lon="13.6150824"><ele>557.0</ele><time>2026-05-02T09:53:50.877Z</time></trkpt><trkpt lat="46.1670271" lon="13.6151816"><ele>557.0</ele><time>2026-05-02T09:53:51.861Z</time></trkpt><trkpt lat="46.1669833" lon="13.6152724"><ele>557.0</ele><time>2026-05-02T09:53:52.869Z</time></trkpt><trkpt lat="46.166932" lon="13.6153461"><ele>557.0</ele><time>2026-05-02T09:53:53.868Z</time></trkpt><trkpt lat="46.1668742" lon="13.6154003"><ele>557.0</ele><time>2026-05-02T09:53:54.864Z</time></trkpt><trkpt lat="46.1668107" lon="13.6154327"><ele>557.0</ele><time>2026-05-02T09:53:55.875Z</time></trkpt><trkpt lat="46.1667489" lon="13.615469"><ele>557.0</ele><time>2026-05-02T09:53:56.87Z</time></trkpt><trkpt lat="46.1666321" lon="13.6155053"><ele>556.5</ele><time>2026-05-02T09:53:58.869Z</time></trkpt><trkpt lat="46.1665648" lon="13.6155174"><ele>556.0</ele><time>2026-05-02T09:53:59.871Z</time></trkpt><trkpt lat="46.1665036" lon="13.6155421"><ele>555.5</ele><time>2026-05-02T09:54:00.866Z</time></trkpt><trkpt lat="46.1664452" lon="13.6155895"><ele>555.0</ele><time>2026-05-02T09:54:01.866Z</time></trkpt><trkpt lat="46.1663139" lon="13.6157635"><ele>554.5</ele><time>2026-05-02T09:54:04.879Z</time></trkpt><trkpt lat="46.1662649" lon="13.6158334"><ele>554.0</ele><time>2026-05-02T09:54:05.873Z</time></trkpt><trkpt lat="46.1662141" lon="13.615898"><ele>554.0</ele><time>2026-05-02T09:54:06.873Z</time></trkpt><trkpt lat="46.1661694" lon="13.6159752"><ele>554.0</ele><time>2026-05-02T09:54:07.866Z</time></trkpt><trkpt lat="46.1661264" lon="13.6160586"><ele>554.0</ele><time>2026-05-02T09:54:08.865Z</time></trkpt><trkpt lat="46.1660847" lon="13.6161442"><ele>554.0</ele><time>2026-05-02T09:54:09.868Z</time></trkpt><trkpt lat="46.1660343" lon="13.616225"><ele>554.0</ele><time>2026-05-02T09:54:10.868Z</time></trkpt><trkpt lat="46.165982" lon="13.6163107"><ele>554.0</ele><time>2026-05-02T09:54:11.877Z</time></trkpt><trkpt lat="46.1659325" lon="13.6163833"><ele>554.0</ele><time>2026-05-02T09:54:12.874Z</time></trkpt><trkpt lat="46.1658841" lon="13.6164614"><ele>551.5</ele><time>2026-05-02T09:54:13.868Z</time></trkpt><trkpt lat="46.1658391" lon="13.616546"><ele>549.0</ele><time>2026-05-02T09:54:14.866Z</time></trkpt><trkpt lat="46.1657908" lon="13.6166406"><ele>546.5</ele><time>2026-05-02T09:54:15.867Z</time></trkpt><trkpt lat="46.1657463" lon="13.6167362"><ele>544.0</ele><time>2026-05-02T09:54:16.869Z</time></trkpt><trkpt lat="46.1656972" lon="13.6168301"><ele>541.5</ele><time>2026-05-02T09:54:17.874Z</time></trkpt><trkpt lat="46.1656567" lon="13.6169245"><ele>539.0</ele><time>2026-05-02T09:54:18.871Z</time></trkpt><trkpt lat="46.1656201" lon="13.6170163"><ele>533.6666666666666</ele><time>2026-05-02T09:54:19.866Z</time></trkpt><trkpt lat="46.1655832" lon="13.6171043"><ele>528.3333333333333</ele><time>2026-05-02T09:54:20.865Z</time></trkpt><trkpt lat="46.1655489" lon="13.617194"><ele>523.0</ele><time>2026-05-02T09:54:21.867Z</time></trkpt><trkpt lat="46.1655119" lon="13.6172829"><ele>517.6666666666666</ele><time>2026-05-02T09:54:22.874Z</time></trkpt><trkpt lat="46.1654705" lon="13.61736"><ele>512.3333333333334</ele><time>2026-05-02T09:54:23.865Z</time></trkpt><trkpt lat="46.1653713" lon="13.6175228"><ele>507.0</ele><time>2026-05-02T09:54:25.864Z</time></trkpt><trkpt lat="46.165324" lon="13.6175971"><ele>507.0</ele><time>2026-05-02T09:54:26.865Z</time></trkpt><trkpt lat="46.1652807" lon="13.6176768"><ele>507.0</ele><time>2026-05-02T09:54:27.871Z</time></trkpt><trkpt lat="46.1652274" lon="13.6177616"><ele>507.0</ele><time>2026-05-02T09:54:28.873Z</time></trkpt><trkpt lat="46.16517" lon="13.6178428"><ele>507.0</ele><time>2026-05-02T09:54:29.865Z</time></trkpt><trkpt lat="46.1651093" lon="13.6179194"><ele>507.0</ele><time>2026-05-02T09:54:30.865Z</time></trkpt><trkpt lat="46.1650517" lon="13.6179924"><ele>507.0</ele><time>2026-05-02T09:54:31.862Z</time></trkpt><trkpt lat="46.1649947" lon="13.6180347"><ele>502.0</ele><time>2026-05-02T09:54:32.869Z</time></trkpt><trkpt lat="46.1649388" lon="13.6180778"><ele>497.00000000000006</ele><time>2026-05-02T09:54:33.868Z</time></trkpt><trkpt lat="46.1648309" lon="13.6181304"><ele>492.00000000000006</ele><time>2026-05-02T09:54:35.876Z</time></trkpt><trkpt lat="46.1647112" lon="13.6181085"><ele>487.0</ele><time>2026-05-02T09:54:37.864Z</time></trkpt><trkpt lat="46.1645918" lon="13.6180509"><ele>482.0</ele><time>2026-05-02T09:54:39.867Z</time></trkpt><trkpt lat="46.1645269" lon="13.6180072"><ele>479.25</ele><time>2026-05-02T09:54:40.867Z</time></trkpt><trkpt lat="46.1644653" lon="13.6179601"><ele>476.5</ele><time>2026-05-02T09:54:41.864Z</time></trkpt><trkpt lat="46.1643569" lon="13.6178769"><ele>473.75</ele><time>2026-05-02T09:54:43.874Z</time></trkpt><trkpt lat="46.1642916" lon="13.6177881"><ele>471.0</ele><time>2026-05-02T09:54:45.867Z</time></trkpt><trkpt lat="46.164222" lon="13.6175381"><ele>471.0</ele><time>2026-05-02T09:54:50.862Z</time></trkpt><trkpt lat="46.1641684" lon="13.6174102"><ele>471.0</ele><time>2026-05-02T09:54:52.868Z</time></trkpt><trkpt lat="46.1640903" lon="13.6173245"><ele>471.0</ele><time>2026-05-02T09:54:54.866Z</time></trkpt><trkpt lat="46.164012" lon="13.6172652"><ele>471.0</ele><time>2026-05-02T09:54:56.866Z</time></trkpt><trkpt lat="46.163935" lon="13.6171425"><ele>471.0</ele><time>2026-05-02T09:54:58.868Z</time></trkpt><trkpt lat="46.1638557" lon="13.617018"><ele>469.0</ele><time>2026-05-02T09:55:00.868Z</time></trkpt><trkpt lat="46.1637865" lon="13.616912"><ele>467.0</ele><time>2026-05-02T09:55:02.867Z</time></trkpt><trkpt lat="46.163691" lon="13.6167833"><ele>465.0</ele><time>2026-05-02T09:55:04.866Z</time></trkpt><trkpt lat="46.1636364" lon="13.6167306"><ele>463.0</ele><time>2026-05-02T09:55:05.867Z</time></trkpt><trkpt lat="46.1635805" lon="13.6166749"><ele>461.0</ele><time>2026-05-02T09:55:06.865Z</time></trkpt><trkpt lat="46.1633984" lon="13.6166088"><ele>461.0</ele><time>2026-05-02T09:55:09.865Z</time></trkpt><trkpt lat="46.1632772" lon="13.6166044"><ele>461.0</ele><time>2026-05-02T09:55:11.862Z</time></trkpt><trkpt lat="46.1631492" lon="13.6165908"><ele>461.0</ele><time>2026-05-02T09:55:13.867Z</time></trkpt><trkpt lat="46.1630817" lon="13.6165592"><ele>461.0</ele><time>2026-05-02T09:55:14.867Z</time></trkpt><trkpt lat="46.1630158" lon="13.6165268"><ele>461.0</ele><time>2026-05-02T09:55:15.868Z</time></trkpt><trkpt lat="46.1629479" lon="13.6165034"><ele>455.8333333333333</ele><time>2026-05-02T09:55:16.882Z</time></trkpt><trkpt lat="46.1628768" lon="13.6164893"><ele>450.66666666666663</ele><time>2026-05-02T09:55:17.864Z</time></trkpt><trkpt lat="46.1628072" lon="13.6164826"><ele>445.5</ele><time>2026-05-02T09:55:18.864Z</time></trkpt><trkpt lat="46.1627416" lon="13.6164698"><ele>440.33333333333337</ele><time>2026-05-02T09:55:19.869Z</time></trkpt><trkpt lat="46.162674" lon="13.6164503"><ele>435.1666666666667</ele><time>2026-05-02T09:55:20.862Z</time></trkpt><trkpt lat="46.1625558" lon="13.6164148"><ele>430.0</ele><time>2026-05-02T09:55:22.863Z</time></trkpt><trkpt lat="46.1624913" lon="13.6163869"><ele>430.0</ele><time>2026-05-02T09:55:23.859Z</time></trkpt><trkpt lat="46.1623756" lon="13.6163356"><ele>430.0</ele><time>2026-05-02T09:55:25.867Z</time></trkpt><trkpt lat="46.1622716" lon="13.6162629"><ele>430.0</ele><time>2026-05-02T09:55:27.864Z</time></trkpt><trkpt lat="46.1621243" lon="13.616228"><ele>430.0</ele><time>2026-05-02T09:55:31.864Z</time></trkpt><trkpt lat="46.1620301" lon="13.6161758"><ele>429.83333333333337</ele><time>2026-05-02T09:55:33.867Z</time></trkpt><trkpt lat="46.1619327" lon="13.6160987"><ele>429.6666666666667</ele><time>2026-05-02T09:55:35.87Z</time></trkpt><trkpt lat="46.1618338" lon="13.6159817"><ele>429.5</ele><time>2026-05-02T09:55:37.869Z</time></trkpt><trkpt lat="46.1617815" lon="13.615921"><ele>429.33333333333337</ele><time>2026-05-02T09:55:38.871Z</time></trkpt><trkpt lat="46.1617353" lon="13.6158589"><ele>429.1666666666667</ele><time>2026-05-02T09:55:39.869Z</time></trkpt><trkpt lat="46.1616836" lon="13.6157944"><ele>429.0</ele><time>2026-05-02T09:55:40.867Z</time></trkpt><trkpt lat="46.1616287" lon="13.6157323"><ele>429.0</ele><time>2026-05-02T09:55:41.863Z</time></trkpt><trkpt lat="46.1615816" lon="13.6156678"><ele>429.0</ele><time>2026-05-02T09:55:42.875Z</time></trkpt><trkpt lat="46.1614756" lon="13.6155841"><ele>429.0</ele><time>2026-05-02T09:55:44.863Z</time></trkpt><trkpt lat="46.1614191" lon="13.6155245"><ele>429.0</ele><time>2026-05-02T09:55:45.868Z</time></trkpt><trkpt lat="46.1613686" lon="13.6154675"><ele>429.0</ele><time>2026-05-02T09:55:46.863Z</time></trkpt><trkpt lat="46.161276" lon="13.615344"><ele>429.0</ele><time>2026-05-02T09:55:48.872Z</time></trkpt><trkpt lat="46.1611847" lon="13.6151921"><ele>429.0</ele><time>2026-05-02T09:55:50.874Z</time></trkpt><trkpt lat="46.1611326" lon="13.6151381"><ele>429.0</ele><time>2026-05-02T09:55:51.871Z</time></trkpt><trkpt lat="46.1610507" lon="13.6150112"><ele>429.0</ele><time>2026-05-02T09:55:53.871Z</time></trkpt><trkpt lat="46.1609993" lon="13.6148531"><ele>429.0</ele><time>2026-05-02T09:55:55.863Z</time></trkpt><trkpt lat="46.1609778" lon="13.6147472"><ele>429.0</ele><time>2026-05-02T09:55:56.875Z</time></trkpt><trkpt lat="46.160952" lon="13.6146368"><ele>429.0</ele><time>2026-05-02T09:55:57.862Z</time></trkpt><trkpt lat="46.1609211" lon="13.6145237"><ele>429.0</ele><time>2026-05-02T09:55:58.873Z</time></trkpt><trkpt lat="46.1608871" lon="13.6144104"><ele>429.0</ele><time>2026-05-02T09:55:59.873Z</time></trkpt><trkpt lat="46.1608476" lon="13.6143008"><ele>429.0</ele><time>2026-05-02T09:56:00.868Z</time></trkpt><trkpt lat="46.1608077" lon="13.6141874"><ele>429.0</ele><time>2026-05-02T09:56:01.87Z</time></trkpt><trkpt lat="46.1607793" lon="13.6140755"><ele>429.0</ele><time>2026-05-02T09:56:02.867Z</time></trkpt><trkpt lat="46.1607508" lon="13.6139732"><ele>419.6666666666667</ele><time>2026-05-02T09:56:03.873Z</time></trkpt><trkpt lat="46.1607202" lon="13.6138921"><ele>410.3333333333333</ele><time>2026-05-02T09:56:04.87Z</time></trkpt><trkpt lat="46.1606837" lon="13.6138011"><ele>401.0</ele><time>2026-05-02T09:56:05.868Z</time></trkpt><trkpt lat="46.1606436" lon="13.6137133"><ele>391.66666666666663</ele><time>2026-05-02T09:56:06.865Z</time></trkpt><trkpt lat="46.160594" lon="13.6136448"><ele>382.3333333333333</ele><time>2026-05-02T09:56:07.879Z</time></trkpt><trkpt lat="46.1605492" lon="13.6135775"><ele>373.0</ele><time>2026-05-02T09:56:08.865Z</time></trkpt><trkpt lat="46.1604624" lon="13.6134575"><ele>373.0</ele><time>2026-05-02T09:56:10.872Z</time></trkpt><trkpt lat="46.1603146" lon="13.6132016"><ele>373.0</ele><time>2026-05-02T09:56:14.867Z</time></trkpt><trkpt lat="46.1602789" lon="13.6131236"><ele>373.0</ele><time>2026-05-02T09:56:15.863Z</time></trkpt><trkpt lat="46.1602175" lon="13.6129677"><ele>373.0</ele><time>2026-05-02T09:56:17.869Z</time></trkpt><trkpt lat="46.1601848" lon="13.6128857"><ele>375.66666666666663</ele><time>2026-05-02T09:56:18.88Z</time></trkpt><trkpt lat="46.1601583" lon="13.6127983"><ele>378.3333333333333</ele><time>2026-05-02T09:56:19.864Z</time></trkpt><trkpt lat="46.1601319" lon="13.6126527"><ele>381.0</ele><time>2026-05-02T09:56:21.864Z</time></trkpt><trkpt lat="46.1601222" lon="13.6125613"><ele>383.66666666666663</ele><time>2026-05-02T09:56:22.867Z</time></trkpt><trkpt lat="46.1601169" lon="13.6124217"><ele>386.3333333333333</ele><time>2026-05-02T09:56:24.868Z</time></trkpt><trkpt lat="46.1601357" lon="13.6122999"><ele>389.0</ele><time>2026-05-02T09:56:26.865Z</time></trkpt><trkpt lat="46.1601715" lon="13.6121955"><ele>389.0</ele><time>2026-05-02T09:56:28.863Z</time></trkpt><trkpt lat="46.1601901" lon="13.6120935"><ele>389.0</ele><time>2026-05-02T09:56:30.865Z</time></trkpt><trkpt lat="46.160129" lon="13.6120026"><ele>389.0</ele><time>2026-05-02T09:56:32.861Z</time></trkpt><trkpt lat="46.1599977" lon="13.6117744"><ele>389.0</ele><time>2026-05-02T09:56:36.865Z</time></trkpt><trkpt lat="46.1599561" lon="13.6116854"><ele>389.0</ele><time>2026-05-02T09:56:37.857Z</time></trkpt><trkpt lat="46.1599121" lon="13.6115918"><ele>390.49999999999994</ele><time>2026-05-02T09:56:38.866Z</time></trkpt><trkpt lat="46.1598689" lon="13.6114834"><ele>392.0</ele><time>2026-05-02T09:56:39.868Z</time></trkpt><trkpt lat="46.1598263" lon="13.6113729"><ele>393.5</ele><time>2026-05-02T09:56:40.873Z</time></trkpt><trkpt lat="46.1597848" lon="13.6112624"><ele>395.0</ele><time>2026-05-02T09:56:41.869Z</time></trkpt><trkpt lat="46.159747" lon="13.6111556"><ele>396.49999999999994</ele><time>2026-05-02T09:56:42.873Z</time></trkpt><trkpt lat="46.1597181" lon="13.6110414"><ele>398.0</ele><time>2026-05-02T09:56:43.874Z</time></trkpt><trkpt lat="46.1596948" lon="13.6109232"><ele>390.0</ele><time>2026-05-02T09:56:44.861Z</time></trkpt><trkpt lat="46.1596709" lon="13.6107941"><ele>382.0</ele><time>2026-05-02T09:56:45.867Z</time></trkpt><trkpt lat="46.1596413" lon="13.6106665"><ele>374.0</ele><time>2026-05-02T09:56:46.863Z</time></trkpt><trkpt lat="46.159619" lon="13.610534"><ele>366.0</ele><time>2026-05-02T09:56:47.863Z</time></trkpt><trkpt lat="46.1596035" lon="13.6103963"><ele>358.0</ele><time>2026-05-02T09:56:48.873Z</time></trkpt><trkpt lat="46.1595934" lon="13.6102521"><ele>358.4</ele><time>2026-05-02T09:56:49.863Z</time></trkpt><trkpt lat="46.159583" lon="13.6101116"><ele>358.79999999999995</ele><time>2026-05-02T09:56:50.863Z</time></trkpt><trkpt lat="46.1595663" lon="13.6099807"><ele>359.2</ele><time>2026-05-02T09:56:51.872Z</time></trkpt><trkpt lat="46.1595473" lon="13.6098471"><ele>359.6</ele><time>2026-05-02T09:56:52.868Z</time></trkpt><trkpt lat="46.1595316" lon="13.6097217"><ele>360.0</ele><time>2026-05-02T09:56:53.864Z</time></trkpt><trkpt lat="46.1595051" lon="13.609486"><ele>360.0</ele><time>2026-05-02T09:56:55.863Z</time></trkpt><trkpt lat="46.1594903" lon="13.6093504"><ele>360.0</ele><time>2026-05-02T09:56:56.875Z</time></trkpt><trkpt lat="46.1594724" lon="13.6092167"><ele>360.0</ele><time>2026-05-02T09:56:57.864Z</time></trkpt><trkpt lat="46.1594501" lon="13.6091022"><ele>360.0</ele><time>2026-05-02T09:56:58.863Z</time></trkpt><trkpt lat="46.1594246" lon="13.6090113"><ele>360.0</ele><time>2026-05-02T09:56:59.865Z</time></trkpt><trkpt lat="46.1593889" lon="13.6089259"><ele>360.0</ele><time>2026-05-02T09:57:00.877Z</time></trkpt><trkpt lat="46.1593551" lon="13.6088274"><ele>360.0</ele><time>2026-05-02T09:57:01.863Z</time></trkpt><trkpt lat="46.1593267" lon="13.6087335"><ele>360.0</ele><time>2026-05-02T09:57:02.877Z</time></trkpt><trkpt lat="46.1593027" lon="13.6086439"><ele>360.0</ele><time>2026-05-02T09:57:03.871Z</time></trkpt><trkpt lat="46.1592697" lon="13.6085445"><ele>360.0</ele><time>2026-05-02T09:57:04.866Z</time></trkpt><trkpt lat="46.1592323" lon="13.60845"><ele>360.0</ele><time>2026-05-02T09:57:05.866Z</time></trkpt><trkpt lat="46.1591951" lon="13.6083666"><ele>360.0</ele><time>2026-05-02T09:57:06.875Z</time></trkpt><trkpt lat="46.1591198" lon="13.6082186"><ele>362.3333333333333</ele><time>2026-05-02T09:57:08.864Z</time></trkpt><trkpt lat="46.1590734" lon="13.6081219"><ele>364.6666666666667</ele><time>2026-05-02T09:57:09.861Z</time></trkpt><trkpt lat="46.1590278" lon="13.6080251"><ele>367.0</ele><time>2026-05-02T09:57:10.872Z</time></trkpt><trkpt lat="46.1589836" lon="13.6079354"><ele>369.33333333333337</ele><time>2026-05-02T09:57:11.861Z</time></trkpt><trkpt lat="46.158941" lon="13.6078534"><ele>371.6666666666667</ele><time>2026-05-02T09:57:12.864Z</time></trkpt><trkpt lat="46.1589053" lon="13.607749"><ele>374.0</ele><time>2026-05-02T09:57:13.867Z</time></trkpt><trkpt lat="46.1588714" lon="13.6076528"><ele>365.79999999999995</ele><time>2026-05-02T09:57:14.868Z</time></trkpt><trkpt lat="46.1588076" lon="13.6074621"><ele>357.59999999999997</ele><time>2026-05-02T09:57:16.862Z</time></trkpt><trkpt lat="46.158781" lon="13.6073739"><ele>349.4</ele><time>2026-05-02T09:57:17.868Z</time></trkpt><trkpt lat="46.1587625" lon="13.6072713"><ele>341.2</ele><time>2026-05-02T09:57:18.875Z</time></trkpt><trkpt lat="46.1587828" lon="13.6071217"><ele>333.0</ele><time>2026-05-02T09:57:20.862Z</time></trkpt><trkpt lat="46.1588223" lon="13.6070414"><ele>334.0</ele><time>2026-05-02T09:57:21.877Z</time></trkpt><trkpt lat="46.1588681" lon="13.6069647"><ele>335.0</ele><time>2026-05-02T09:57:22.865Z</time></trkpt><trkpt lat="46.1589135" lon="13.6068544"><ele>336.0</ele><time>2026-05-02T09:57:24.865Z</time></trkpt><trkpt lat="46.1588386" lon="13.6067709"><ele>337.0</ele><time>2026-05-02T09:57:26.866Z</time></trkpt><trkpt lat="46.158756" lon="13.6066825"><ele>338.0</ele><time>2026-05-02T09:57:28.863Z</time></trkpt><trkpt lat="46.1587026" lon="13.6065976"><ele>339.0</ele><time>2026-05-02T09:57:30.871Z</time></trkpt><trkpt lat="46.1587079" lon="13.6067235"><ele>339.0</ele><time>2026-05-02T09:57:34.865Z</time></trkpt><trkpt lat="46.1587802" lon="13.6068094"><ele>339.0</ele><time>2026-05-02T09:57:36.876Z</time></trkpt><trkpt lat="46.1587297" lon="13.6070424"><ele>339.0</ele><time>2026-05-02T09:57:40.864Z</time></trkpt><trkpt lat="46.1586824" lon="13.6071104"><ele>339.0</ele><time>2026-05-02T09:57:41.862Z</time></trkpt><trkpt lat="46.1586403" lon="13.6071872"><ele>339.0</ele><time>2026-05-02T09:57:42.862Z</time></trkpt><trkpt lat="46.158606" lon="13.6072636"><ele>337.79999999999995</ele><time>2026-05-02T09:57:43.866Z</time></trkpt><trkpt lat="46.1585571" lon="13.6074156"><ele>336.59999999999997</ele><time>2026-05-02T09:57:45.868Z</time></trkpt><trkpt lat="46.1585242" lon="13.6075877"><ele>335.4</ele><time>2026-05-02T09:57:47.864Z</time></trkpt><trkpt lat="46.1585207" lon="13.6076911"><ele>334.2</ele><time>2026-05-02T09:57:48.864Z</time></trkpt><trkpt lat="46.1585307" lon="13.6078078"><ele>333.0</ele><time>2026-05-02T09:57:49.871Z</time></trkpt><trkpt lat="46.1585557" lon="13.6079268"><ele>332.4</ele><time>2026-05-02T09:57:50.87Z</time></trkpt><trkpt lat="46.1585764" lon="13.6080523"><ele>331.79999999999995</ele><time>2026-05-02T09:57:51.867Z</time></trkpt><trkpt lat="46.1585946" lon="13.6081821"><ele>331.2</ele><time>2026-05-02T09:57:52.864Z</time></trkpt><trkpt lat="46.1586289" lon="13.6083072"><ele>330.6</ele><time>2026-05-02T09:57:53.864Z</time></trkpt><trkpt lat="46.1586734" lon="13.6084352"><ele>330.0</ele><time>2026-05-02T09:57:54.862Z</time></trkpt><trkpt lat="46.158712" lon="13.6085498"><ele>326.75</ele><time>2026-05-02T09:57:55.861Z</time></trkpt><trkpt lat="46.1587423" lon="13.6086798"><ele>323.5</ele><time>2026-05-02T09:57:56.866Z</time></trkpt><trkpt lat="46.1587652" lon="13.6088199"><ele>320.25</ele><time>2026-05-02T09:57:57.867Z</time></trkpt><trkpt lat="46.1588134" lon="13.609139"><ele>317.0</ele><time>2026-05-02T09:57:59.864Z</time></trkpt><trkpt lat="46.1588277" lon="13.6092908"><ele>317.0</ele><time>2026-05-02T09:58:00.869Z</time></trkpt><trkpt lat="46.1588467" lon="13.6094302"><ele>317.0</ele><time>2026-05-02T09:58:01.863Z</time></trkpt><trkpt lat="46.1588617" lon="13.6095652"><ele>317.0</ele><time>2026-05-02T09:58:02.866Z</time></trkpt><trkpt lat="46.1588737" lon="13.6096747"><ele>317.0</ele><time>2026-05-02T09:58:03.864Z</time></trkpt><trkpt lat="46.1588698" lon="13.6097881"><ele>317.0</ele><time>2026-05-02T09:58:04.868Z</time></trkpt><trkpt lat="46.1588651" lon="13.6099135"><ele>317.0</ele><time>2026-05-02T09:58:05.857Z</time></trkpt><trkpt lat="46.1588579" lon="13.6100413"><ele>316.2</ele><time>2026-05-02T09:58:06.865Z</time></trkpt><trkpt lat="46.1588552" lon="13.610177"><ele>315.4</ele><time>2026-05-02T09:58:07.869Z</time></trkpt><trkpt lat="46.1588547" lon="13.6103144"><ele>314.6</ele><time>2026-05-02T09:58:08.868Z</time></trkpt><trkpt lat="46.1588635" lon="13.6104375"><ele>313.8</ele><time>2026-05-02T09:58:09.868Z</time></trkpt><trkpt lat="46.1588601" lon="13.6105678"><ele>313.0</ele><time>2026-05-02T09:58:10.863Z</time></trkpt><trkpt lat="46.1588535" lon="13.6107017"><ele>313.0</ele><time>2026-05-02T09:58:11.86Z</time></trkpt><trkpt lat="46.1588481" lon="13.6108195"><ele>313.0</ele><time>2026-05-02T09:58:12.859Z</time></trkpt><trkpt lat="46.158829" lon="13.6109509"><ele>313.0</ele><time>2026-05-02T09:58:13.857Z</time></trkpt><trkpt lat="46.1588095" lon="13.6110692"><ele>313.0</ele><time>2026-05-02T09:58:14.865Z</time></trkpt><trkpt lat="46.1587971" lon="13.6111877"><ele>313.0</ele><time>2026-05-02T09:58:15.86Z</time></trkpt><trkpt lat="46.1587719" lon="13.6113077"><ele>313.0</ele><time>2026-05-02T09:58:16.86Z</time></trkpt><trkpt lat="46.1587401" lon="13.6114234"><ele>313.2</ele><time>2026-05-02T09:58:17.871Z</time></trkpt><trkpt lat="46.1587166" lon="13.6115275"><ele>313.4</ele><time>2026-05-02T09:58:18.865Z</time></trkpt><trkpt lat="46.1586957" lon="13.6117406"><ele>313.59999999999997</ele><time>2026-05-02T09:58:20.878Z</time></trkpt><trkpt lat="46.1586836" lon="13.6118572"><ele>313.8</ele><time>2026-05-02T09:58:21.866Z</time></trkpt><trkpt lat="46.1586718" lon="13.6120002"><ele>314.0</ele><time>2026-05-02T09:58:22.864Z</time></trkpt><trkpt lat="46.1586682" lon="13.6121546"><ele>314.0</ele><time>2026-05-02T09:58:23.868Z</time></trkpt><trkpt lat="46.1586719" lon="13.6122953"><ele>314.0</ele><time>2026-05-02T09:58:24.864Z</time></trkpt><trkpt lat="46.1586764" lon="13.6124035"><ele>314.0</ele><time>2026-05-02T09:58:25.861Z</time></trkpt><trkpt lat="46.1587318" lon="13.6125366"><ele>314.0</ele><time>2026-05-02T09:58:27.862Z</time></trkpt><trkpt lat="46.1588269" lon="13.6126076"><ele>314.0</ele><time>2026-05-02T09:58:29.866Z</time></trkpt><trkpt lat="46.1588935" lon="13.6126432"><ele>314.0</ele><time>2026-05-02T09:58:31.863Z</time></trkpt><trkpt lat="46.1589137" lon="13.612785"><ele>314.0</ele><time>2026-05-02T09:58:33.868Z</time></trkpt><trkpt lat="46.1589174" lon="13.6128779"><ele>314.0</ele><time>2026-05-02T09:58:34.867Z</time></trkpt><trkpt lat="46.1589762" lon="13.6130265"><ele>314.0</ele><time>2026-05-02T09:58:36.862Z</time></trkpt><trkpt lat="46.1590229" lon="13.6131101"><ele>314.0</ele><time>2026-05-02T09:58:37.859Z</time></trkpt><trkpt lat="46.1590636" lon="13.6131991"><ele>314.0</ele><time>2026-05-02T09:58:38.859Z</time></trkpt><trkpt lat="46.1591194" lon="13.6133106"><ele>316.5</ele><time>2026-05-02T09:58:39.872Z</time></trkpt><trkpt lat="46.1592457" lon="13.6135839"><ele>319.0</ele><time>2026-05-02T09:58:41.871Z</time></trkpt><trkpt lat="46.1592932" lon="13.6137269"><ele>321.5</ele><time>2026-05-02T09:58:42.866Z</time></trkpt><trkpt lat="46.1593339" lon="13.6138545"><ele>324.0</ele><time>2026-05-02T09:58:43.864Z</time></trkpt><trkpt lat="46.1593685" lon="13.6139694"><ele>324.0</ele><time>2026-05-02T09:58:44.869Z</time></trkpt><trkpt lat="46.159399" lon="13.6140878"><ele>324.0</ele><time>2026-05-02T09:58:45.869Z</time></trkpt><trkpt lat="46.1594138" lon="13.6141937"><ele>324.0</ele><time>2026-05-02T09:58:46.864Z</time></trkpt><trkpt lat="46.1594184" lon="13.6143054"><ele>324.0</ele><time>2026-05-02T09:58:47.868Z</time></trkpt><trkpt lat="46.1594259" lon="13.6143984"><ele>324.0</ele><time>2026-05-02T09:58:48.866Z</time></trkpt><trkpt lat="46.1594391" lon="13.6144988"><ele>324.0</ele><time>2026-05-02T09:58:49.859Z</time></trkpt><trkpt lat="46.1594585" lon="13.6146145"><ele>322.3333333333333</ele><time>2026-05-02T09:58:50.863Z</time></trkpt><trkpt lat="46.1594783" lon="13.614728"><ele>320.6666666666667</ele><time>2026-05-02T09:58:51.876Z</time></trkpt><trkpt lat="46.1595072" lon="13.61484"><ele>319.0</ele><time>2026-05-02T09:58:52.88Z</time></trkpt><trkpt lat="46.159527" lon="13.6149536"><ele>317.33333333333337</ele><time>2026-05-02T09:58:53.86Z</time></trkpt><trkpt lat="46.1595316" lon="13.61506"><ele>315.6666666666667</ele><time>2026-05-02T09:58:54.86Z</time></trkpt><trkpt lat="46.1595266" lon="13.6151719"><ele>314.0</ele><time>2026-05-02T09:58:55.868Z</time></trkpt><trkpt lat="46.1595215" lon="13.6152813"><ele>313.0</ele><time>2026-05-02T09:58:56.858Z</time></trkpt><trkpt lat="46.1595212" lon="13.6153995"><ele>312.0</ele><time>2026-05-02T09:58:57.872Z</time></trkpt><trkpt lat="46.159509" lon="13.6155011"><ele>311.0</ele><time>2026-05-02T09:58:58.863Z</time></trkpt><trkpt lat="46.1595056" lon="13.6156627"><ele>310.0</ele><time>2026-05-02T09:59:00.87Z</time></trkpt><trkpt lat="46.1594627" lon="13.6157502"><ele>309.0</ele><time>2026-05-02T09:59:08.863Z</time></trkpt><trkpt lat="46.159402" lon="13.6157075"><ele>308.0</ele><time>2026-05-02T09:59:10.877Z</time></trkpt><trkpt lat="46.1593156" lon="13.6156348"><ele>308.0</ele><time>2026-05-02T09:59:13.862Z</time></trkpt><trkpt lat="46.1592702" lon="13.6155621"><ele>308.0</ele><time>2026-05-02T09:59:15.872Z</time></trkpt><trkpt lat="46.1592569" lon="13.6154378"><ele>308.0</ele><time>2026-05-02T10:00:37.868Z</time></trkpt><trkpt lat="46.1592158" lon="13.6151295"><ele>308.0</ele><time>2026-05-02T10:00:39.871Z</time></trkpt><trkpt lat="46.1591836" lon="13.6149087"><ele>309.6666666666667</ele><time>2026-05-02T10:00:40.862Z</time></trkpt><trkpt lat="46.1591441" lon="13.614637"><ele>311.3333333333333</ele><time>2026-05-02T10:00:41.871Z</time></trkpt><trkpt lat="46.1590949" lon="13.614379"><ele>313.0</ele><time>2026-05-02T10:00:42.87Z</time></trkpt><trkpt lat="46.1590195" lon="13.6141601"><ele>313.0</ele><time>2026-05-02T10:00:43.864Z</time></trkpt><trkpt lat="46.1589528" lon="13.6139599"><ele>313.0</ele><time>2026-05-02T10:00:44.864Z</time></trkpt><trkpt lat="46.1588594" lon="13.6137867"><ele>313.0</ele><time>2026-05-02T10:00:45.86Z</time></trkpt><trkpt lat="46.1587666" lon="13.6136091"><ele>312.66666666666663</ele><time>2026-05-02T10:00:46.861Z</time></trkpt><trkpt lat="46.1586814" lon="13.6134407"><ele>312.3333333333333</ele><time>2026-05-02T10:00:47.861Z</time></trkpt><trkpt lat="46.1585889" lon="13.613255"><ele>312.0</ele><time>2026-05-02T10:00:48.862Z</time></trkpt><trkpt lat="46.1584965" lon="13.613089"><ele>312.0</ele><time>2026-05-02T10:00:49.863Z</time></trkpt><trkpt lat="46.1584183" lon="13.6129486"><ele>312.0</ele><time>2026-05-02T10:00:50.86Z</time></trkpt><trkpt lat="46.1583316" lon="13.6127812"><ele>312.0</ele><time>2026-05-02T10:00:51.857Z</time></trkpt><trkpt lat="46.158251" lon="13.6126047"><ele>312.0</ele><time>2026-05-02T10:00:52.87Z</time></trkpt><trkpt lat="46.1582044" lon="13.6123778"><ele>320.0</ele><time>2026-05-02T10:00:53.867Z</time></trkpt><trkpt lat="46.1581706" lon="13.6121535"><ele>328.0</ele><time>2026-05-02T10:00:54.869Z</time></trkpt><trkpt lat="46.1581479" lon="13.61193"><ele>336.0</ele><time>2026-05-02T10:00:55.861Z</time></trkpt><trkpt lat="46.1581283" lon="13.6117279"><ele>336.0</ele><time>2026-05-02T10:00:56.862Z</time></trkpt><trkpt lat="46.158092" lon="13.6115388"><ele>336.0</ele><time>2026-05-02T10:00:57.866Z</time></trkpt><trkpt lat="46.1581056" lon="13.611369"><ele>336.0</ele><time>2026-05-02T10:00:58.865Z</time></trkpt><trkpt lat="46.1582201" lon="13.6109428"><ele>328.3333333333333</ele><time>2026-05-02T10:01:00.863Z</time></trkpt><trkpt lat="46.1582848" lon="13.6106979"><ele>320.66666666666663</ele><time>2026-05-02T10:01:01.869Z</time></trkpt><trkpt lat="46.1583349" lon="13.6104632"><ele>313.0</ele><time>2026-05-02T10:01:02.865Z</time></trkpt><trkpt lat="46.1583392" lon="13.6102561"><ele>312.25</ele><time>2026-05-02T10:01:03.866Z</time></trkpt><trkpt lat="46.1582786" lon="13.6100864"><ele>311.5</ele><time>2026-05-02T10:01:04.871Z</time></trkpt><trkpt lat="46.1581895" lon="13.6099275"><ele>310.75</ele><time>2026-05-02T10:01:05.868Z</time></trkpt><trkpt lat="46.1580848" lon="13.6097858"><ele>310.0</ele><time>2026-05-02T10:01:06.859Z</time></trkpt><trkpt lat="46.1579891" lon="13.6096863"><ele>311.0</ele><time>2026-05-02T10:01:07.869Z</time></trkpt><trkpt lat="46.1578716" lon="13.609647"><ele>312.0</ele><time>2026-05-02T10:01:08.859Z</time></trkpt><trkpt lat="46.1577607" lon="13.6096207"><ele>313.0</ele><time>2026-05-02T10:01:09.866Z</time></trkpt><trkpt lat="46.157671" lon="13.609561"><ele>314.0</ele><time>2026-05-02T10:01:10.862Z</time></trkpt><trkpt lat="46.1576461" lon="13.609405"><ele>315.0</ele><time>2026-05-02T10:01:11.86Z</time></trkpt><trkpt lat="46.1576153" lon="13.6091999"><ele>315.0</ele><time>2026-05-02T10:01:12.87Z</time></trkpt><trkpt lat="46.1576006" lon="13.6089814"><ele>315.0</ele><time>2026-05-02T10:01:13.862Z</time></trkpt><trkpt lat="46.1575937" lon="13.6087764"><ele>315.0</ele><time>2026-05-02T10:01:14.864Z</time></trkpt><trkpt lat="46.1575766" lon="13.6085923"><ele>315.0</ele><time>2026-05-02T10:01:15.873Z</time></trkpt><trkpt lat="46.1575733" lon="13.6084035"><ele>311.75</ele><time>2026-05-02T10:01:16.884Z</time></trkpt><trkpt lat="46.1575894" lon="13.608215"><ele>308.5</ele><time>2026-05-02T10:01:17.862Z</time></trkpt><trkpt lat="46.1576383" lon="13.6080289"><ele>305.25</ele><time>2026-05-02T10:01:18.86Z</time></trkpt><trkpt lat="46.1576777" lon="13.6078455"><ele>302.0</ele><time>2026-05-02T10:01:19.863Z</time></trkpt><trkpt lat="46.1576804" lon="13.6074577"><ele>300.33333333333337</ele><time>2026-05-02T10:01:21.87Z</time></trkpt><trkpt lat="46.1576326" lon="13.6072651"><ele>298.6666666666667</ele><time>2026-05-02T10:01:22.868Z</time></trkpt><trkpt lat="46.1575123" lon="13.6071264"><ele>297.0</ele><time>2026-05-02T10:01:23.87Z</time></trkpt><trkpt lat="46.1573529" lon="13.6070461"><ele>297.25</ele><time>2026-05-02T10:01:24.86Z</time></trkpt><trkpt lat="46.1572333" lon="13.6069389"><ele>297.5</ele><time>2026-05-02T10:01:25.862Z</time></trkpt><trkpt lat="46.1571435" lon="13.6068394"><ele>297.75</ele><time>2026-05-02T10:01:26.859Z</time></trkpt><trkpt lat="46.1570819" lon="13.6067058"><ele>298.0</ele><time>2026-05-02T10:01:27.862Z</time></trkpt><trkpt lat="46.1570735" lon="13.6065044"><ele>298.0</ele><time>2026-05-02T10:01:28.868Z</time></trkpt><trkpt lat="46.1570575" lon="13.6062536"><ele>298.0</ele><time>2026-05-02T10:01:29.865Z</time></trkpt><trkpt lat="46.1570303" lon="13.6059956"><ele>298.0</ele><time>2026-05-02T10:01:30.862Z</time></trkpt><trkpt lat="46.1569949" lon="13.6057393"><ele>295.0</ele><time>2026-05-02T10:01:31.866Z</time></trkpt><trkpt lat="46.1569794" lon="13.6055116"><ele>292.0</ele><time>2026-05-02T10:01:32.862Z</time></trkpt><trkpt lat="46.1569841" lon="13.6053066"><ele>289.0</ele><time>2026-05-02T10:01:33.87Z</time></trkpt><trkpt lat="46.156981" lon="13.6051091"><ele>286.0</ele><time>2026-05-02T10:01:34.87Z</time></trkpt><trkpt lat="46.1569589" lon="13.6048985"><ele>286.0</ele><time>2026-05-02T10:01:35.863Z</time></trkpt><trkpt lat="46.1569008" lon="13.6047231"><ele>286.0</ele><time>2026-05-02T10:01:36.865Z</time></trkpt><trkpt lat="46.1568258" lon="13.604571"><ele>286.0</ele><time>2026-05-02T10:01:37.864Z</time></trkpt><trkpt lat="46.1567744" lon="13.6044262"><ele>286.0</ele><time>2026-05-02T10:01:38.867Z</time></trkpt><trkpt lat="46.1567084" lon="13.6042546"><ele>286.0</ele><time>2026-05-02T10:01:39.867Z</time></trkpt><trkpt lat="46.1566383" lon="13.6040642"><ele>286.0</ele><time>2026-05-02T10:01:40.876Z</time></trkpt><trkpt lat="46.1565618" lon="13.603603"><ele>287.3333333333333</ele><time>2026-05-02T10:01:42.861Z</time></trkpt><trkpt lat="46.1565653" lon="13.6033528"><ele>288.6666666666667</ele><time>2026-05-02T10:01:43.868Z</time></trkpt><trkpt lat="46.1565707" lon="13.6031032"><ele>290.0</ele><time>2026-05-02T10:01:44.859Z</time></trkpt><trkpt lat="46.1565746" lon="13.6028657"><ele>289.25</ele><time>2026-05-02T10:01:45.872Z</time></trkpt><trkpt lat="46.1565864" lon="13.6026291"><ele>288.5</ele><time>2026-05-02T10:01:46.866Z</time></trkpt><trkpt lat="46.1565876" lon="13.6024176"><ele>287.75</ele><time>2026-05-02T10:01:47.863Z</time></trkpt><trkpt lat="46.1566015" lon="13.6022319"><ele>287.0</ele><time>2026-05-02T10:01:48.861Z</time></trkpt><trkpt lat="46.1566312" lon="13.6020284"><ele>285.0</ele><time>2026-05-02T10:01:49.871Z</time></trkpt><trkpt lat="46.1566816" lon="13.6018241"><ele>283.0</ele><time>2026-05-02T10:01:50.877Z</time></trkpt><trkpt lat="46.1567518" lon="13.601601"><ele>281.0</ele><time>2026-05-02T10:01:51.871Z</time></trkpt><trkpt lat="46.1568253" lon="13.6013786"><ele>281.0</ele><time>2026-05-02T10:01:52.862Z</time></trkpt><trkpt lat="46.1568991" lon="13.6011752"><ele>281.0</ele><time>2026-05-02T10:01:53.865Z</time></trkpt><trkpt lat="46.1569308" lon="13.6009994"><ele>281.0</ele><time>2026-05-02T10:01:54.864Z</time></trkpt><trkpt lat="46.1569035" lon="13.600797"><ele>281.0</ele><time>2026-05-02T10:01:55.865Z</time></trkpt><trkpt lat="46.1568874" lon="13.6006148"><ele>281.0</ele><time>2026-05-02T10:01:56.859Z</time></trkpt><trkpt lat="46.1568786" lon="13.6004411"><ele>281.0</ele><time>2026-05-02T10:01:57.873Z</time></trkpt><trkpt lat="46.156856" lon="13.6002593"><ele>281.0</ele><time>2026-05-02T10:01:58.861Z</time></trkpt><trkpt lat="46.1568088" lon="13.60005"><ele>281.0</ele><time>2026-05-02T10:01:59.863Z</time></trkpt><trkpt lat="46.1567155" lon="13.5998799"><ele>280.6666666666667</ele><time>2026-05-02T10:02:00.864Z</time></trkpt><trkpt lat="46.1566095" lon="13.5997154"><ele>280.3333333333333</ele><time>2026-05-02T10:02:01.867Z</time></trkpt><trkpt lat="46.156419" lon="13.5994448"><ele>280.0</ele><time>2026-05-02T10:02:03.858Z</time></trkpt><trkpt lat="46.1563493" lon="13.5992463"><ele>286.0</ele><time>2026-05-02T10:02:04.868Z</time></trkpt><trkpt lat="46.1562811" lon="13.5990175"><ele>292.0</ele><time>2026-05-02T10:02:05.86Z</time></trkpt><trkpt lat="46.1562044" lon="13.5987887"><ele>298.0</ele><time>2026-05-02T10:02:06.867Z</time></trkpt><trkpt lat="46.1561482" lon="13.598569"><ele>298.0</ele><time>2026-05-02T10:02:07.857Z</time></trkpt><trkpt lat="46.1561083" lon="13.5983521"><ele>298.0</ele><time>2026-05-02T10:02:08.87Z</time></trkpt><trkpt lat="46.1560895" lon="13.5981012"><ele>298.0</ele><time>2026-05-02T10:02:09.861Z</time></trkpt><trkpt lat="46.1560912" lon="13.5978418"><ele>294.3333333333333</ele><time>2026-05-02T10:02:10.861Z</time></trkpt><trkpt lat="46.1560961" lon="13.5976101"><ele>290.6666666666667</ele><time>2026-05-02T10:02:11.863Z</time></trkpt><trkpt lat="46.1560978" lon="13.5973849"><ele>287.0</ele><time>2026-05-02T10:02:12.865Z</time></trkpt><trkpt lat="46.1560875" lon="13.5971441"><ele>286.33333333333337</ele><time>2026-05-02T10:02:13.871Z</time></trkpt><trkpt lat="46.1560752" lon="13.5969329"><ele>285.6666666666667</ele><time>2026-05-02T10:02:14.861Z</time></trkpt><trkpt lat="46.1560617" lon="13.5967302"><ele>285.0</ele><time>2026-05-02T10:02:15.864Z</time></trkpt><trkpt lat="46.1560177" lon="13.5964984"><ele>285.0</ele><time>2026-05-02T10:02:16.862Z</time></trkpt><trkpt lat="46.1559789" lon="13.5962254"><ele>285.0</ele><time>2026-05-02T10:02:17.865Z</time></trkpt><trkpt lat="46.1559299" lon="13.5960078"><ele>285.0</ele><time>2026-05-02T10:02:18.872Z</time></trkpt><trkpt lat="46.1558839" lon="13.5958211"><ele>283.5</ele><time>2026-05-02T10:02:19.864Z</time></trkpt><trkpt lat="46.1558515" lon="13.5956536"><ele>282.0</ele><time>2026-05-02T10:02:20.864Z</time></trkpt><trkpt lat="46.1558156" lon="13.595514"><ele>280.5</ele><time>2026-05-02T10:02:21.867Z</time></trkpt><trkpt lat="46.1558165" lon="13.5953697"><ele>279.0</ele><time>2026-05-02T10:02:22.868Z</time></trkpt><trkpt lat="46.1558686" lon="13.5951164"><ele>277.5</ele><time>2026-05-02T10:02:24.861Z</time></trkpt><trkpt lat="46.1559142" lon="13.5949667"><ele>276.0</ele><time>2026-05-02T10:02:25.865Z</time></trkpt><trkpt lat="46.1559729" lon="13.5948144"><ele>274.5</ele><time>2026-05-02T10:02:26.863Z</time></trkpt><trkpt lat="46.1560423" lon="13.5946743"><ele>273.0</ele><time>2026-05-02T10:02:27.867Z</time></trkpt><trkpt lat="46.1561082" lon="13.594549"><ele>271.8</ele><time>2026-05-02T10:02:28.862Z</time></trkpt><trkpt lat="46.1561599" lon="13.5944265"><ele>270.6</ele><time>2026-05-02T10:02:29.86Z</time></trkpt><trkpt lat="46.1561915" lon="13.5942846"><ele>269.4</ele><time>2026-05-02T10:02:30.876Z</time></trkpt><trkpt lat="46.1561944" lon="13.5941355"><ele>268.2</ele><time>2026-05-02T10:02:31.869Z</time></trkpt><trkpt lat="46.1561773" lon="13.5939918"><ele>267.0</ele><time>2026-05-02T10:02:32.871Z</time></trkpt><trkpt lat="46.1561313" lon="13.5938417"><ele>267.0</ele><time>2026-05-02T10:02:33.861Z</time></trkpt><trkpt lat="46.1560992" lon="13.5936938"><ele>267.0</ele><time>2026-05-02T10:02:34.86Z</time></trkpt><trkpt lat="46.1560677" lon="13.5935737"><ele>267.0</ele><time>2026-05-02T10:02:35.865Z</time></trkpt><trkpt lat="46.1560403" lon="13.59347"><ele>267.0</ele><time>2026-05-02T10:02:36.868Z</time></trkpt><trkpt lat="46.1560144" lon="13.5933739"><ele>267.0</ele><time>2026-05-02T10:02:37.867Z</time></trkpt><trkpt lat="46.1559867" lon="13.5932785"><ele>267.0</ele><time>2026-05-02T10:02:38.867Z</time></trkpt><trkpt lat="46.1559571" lon="13.5931833"><ele>266.4</ele><time>2026-05-02T10:02:39.858Z</time></trkpt><trkpt lat="46.1559329" lon="13.5930872"><ele>265.79999999999995</ele><time>2026-05-02T10:02:40.861Z</time></trkpt><trkpt lat="46.1559121" lon="13.5929888"><ele>265.2</ele><time>2026-05-02T10:02:41.878Z</time></trkpt><trkpt lat="46.1559028" lon="13.5928804"><ele>264.59999999999997</ele><time>2026-05-02T10:02:42.869Z</time></trkpt><trkpt lat="46.1559049" lon="13.5927624"><ele>264.0</ele><time>2026-05-02T10:02:43.859Z</time></trkpt><trkpt lat="46.1559078" lon="13.5925218"><ele>264.0</ele><time>2026-05-02T10:02:45.865Z</time></trkpt><trkpt lat="46.1558918" lon="13.5924168"><ele>264.0</ele><time>2026-05-02T10:02:46.863Z</time></trkpt><trkpt lat="46.1558678" lon="13.5923062"><ele>264.0</ele><time>2026-05-02T10:02:47.862Z</time></trkpt><trkpt lat="46.1558393" lon="13.5922018"><ele>264.0</ele><time>2026-05-02T10:02:48.869Z</time></trkpt><trkpt lat="46.1558073" lon="13.5921009"><ele>264.0</ele><time>2026-05-02T10:02:49.869Z</time></trkpt><trkpt lat="46.1557733" lon="13.5919959"><ele>264.0</ele><time>2026-05-02T10:02:50.861Z</time></trkpt><trkpt lat="46.1557472" lon="13.5918978"><ele>262.59999999999997</ele><time>2026-05-02T10:02:51.87Z</time></trkpt><trkpt lat="46.1557267" lon="13.5918062"><ele>261.2</ele><time>2026-05-02T10:02:52.858Z</time></trkpt><trkpt lat="46.1556989" lon="13.5916353"><ele>259.79999999999995</ele><time>2026-05-02T10:02:54.864Z</time></trkpt><trkpt lat="46.1556525" lon="13.591483"><ele>258.4</ele><time>2026-05-02T10:02:56.864Z</time></trkpt><trkpt lat="46.155614" lon="13.5913221"><ele>257.0</ele><time>2026-05-02T10:02:58.867Z</time></trkpt><trkpt lat="46.1555968" lon="13.5912206"><ele>256.8</ele><time>2026-05-02T10:02:59.867Z</time></trkpt><trkpt lat="46.1555975" lon="13.5910878"><ele>256.6</ele><time>2026-05-02T10:03:00.875Z</time></trkpt><trkpt lat="46.1555988" lon="13.5909506"><ele>256.40000000000003</ele><time>2026-05-02T10:03:01.865Z</time></trkpt><trkpt lat="46.1555903" lon="13.5908068"><ele>256.2</ele><time>2026-05-02T10:03:02.859Z</time></trkpt><trkpt lat="46.1555918" lon="13.5906519"><ele>256.0</ele><time>2026-05-02T10:03:03.863Z</time></trkpt><trkpt lat="46.1555944" lon="13.5904806"><ele>255.33333333333331</ele><time>2026-05-02T10:03:04.864Z</time></trkpt><trkpt lat="46.1555793" lon="13.5901197"><ele>254.66666666666669</ele><time>2026-05-02T10:03:06.869Z</time></trkpt><trkpt lat="46.1555603" lon="13.5899232"><ele>254.0</ele><time>2026-05-02T10:03:07.855Z</time></trkpt><trkpt lat="46.1555283" lon="13.5897204"><ele>253.33333333333334</ele><time>2026-05-02T10:03:08.862Z</time></trkpt><trkpt lat="46.155486" lon="13.5895035"><ele>252.66666666666669</ele><time>2026-05-02T10:03:09.863Z</time></trkpt><trkpt lat="46.1554235" lon="13.5892674"><ele>252.0</ele><time>2026-05-02T10:03:10.877Z</time></trkpt><trkpt lat="46.1553762" lon="13.5890419"><ele>252.0</ele><time>2026-05-02T10:03:11.861Z</time></trkpt><trkpt lat="46.1553202" lon="13.5888429"><ele>252.0</ele><time>2026-05-02T10:03:12.867Z</time></trkpt><trkpt lat="46.155266" lon="13.5886531"><ele>252.0</ele><time>2026-05-02T10:03:13.861Z</time></trkpt><trkpt lat="46.1552252" lon="13.5884677"><ele>252.0</ele><time>2026-05-02T10:03:14.855Z</time></trkpt><trkpt lat="46.1552071" lon="13.5882675"><ele>252.33333333333331</ele><time>2026-05-02T10:03:15.86Z</time></trkpt><trkpt lat="46.155215" lon="13.5880646"><ele>252.66666666666666</ele><time>2026-05-02T10:03:16.861Z</time></trkpt><trkpt lat="46.1552566" lon="13.5878304"><ele>253.0</ele><time>2026-05-02T10:03:17.867Z</time></trkpt><trkpt lat="46.1553136" lon="13.5875817"><ele>256.66666666666663</ele><time>2026-05-02T10:03:18.864Z</time></trkpt><trkpt lat="46.1553669" lon="13.5873483"><ele>260.3333333333333</ele><time>2026-05-02T10:03:19.868Z</time></trkpt><trkpt lat="46.1554302" lon="13.5871353"><ele>264.0</ele><time>2026-05-02T10:03:20.859Z</time></trkpt><trkpt lat="46.1555134" lon="13.5869314"><ele>260.3333333333333</ele><time>2026-05-02T10:03:21.866Z</time></trkpt><trkpt lat="46.1556051" lon="13.5867448"><ele>256.66666666666663</ele><time>2026-05-02T10:03:22.874Z</time></trkpt><trkpt lat="46.1556947" lon="13.5865814"><ele>253.0</ele><time>2026-05-02T10:03:23.864Z</time></trkpt><trkpt lat="46.1557891" lon="13.586415"><ele>253.0</ele><time>2026-05-02T10:03:24.859Z</time></trkpt><trkpt lat="46.1558887" lon="13.5862387"><ele>253.0</ele><time>2026-05-02T10:03:25.862Z</time></trkpt><trkpt lat="46.1560644" lon="13.5859083"><ele>253.0</ele><time>2026-05-02T10:03:27.862Z</time></trkpt><trkpt lat="46.1561413" lon="13.5857616"><ele>252.25</ele><time>2026-05-02T10:03:28.857Z</time></trkpt><trkpt lat="46.1562067" lon="13.5856251"><ele>251.5</ele><time>2026-05-02T10:03:29.864Z</time></trkpt><trkpt lat="46.1562684" lon="13.5854892"><ele>250.75</ele><time>2026-05-02T10:03:30.867Z</time></trkpt><trkpt lat="46.1563369" lon="13.5853543"><ele>250.0</ele><time>2026-05-02T10:03:31.864Z</time></trkpt><trkpt lat="46.1564144" lon="13.5852283"><ele>250.0</ele><time>2026-05-02T10:03:32.87Z</time></trkpt><trkpt lat="46.1564777" lon="13.5850838"><ele>250.0</ele><time>2026-05-02T10:03:33.864Z</time></trkpt><trkpt lat="46.1565296" lon="13.584897"><ele>250.0</ele><time>2026-05-02T10:03:34.868Z</time></trkpt><trkpt lat="46.1565813" lon="13.5847237"><ele>250.0</ele><time>2026-05-02T10:03:35.861Z</time></trkpt><trkpt lat="46.1566308" lon="13.5845623"><ele>252.0</ele><time>2026-05-02T10:03:36.865Z</time></trkpt><trkpt lat="46.1566923" lon="13.5844193"><ele>254.0</ele><time>2026-05-02T10:03:37.868Z</time></trkpt><trkpt lat="46.1567496" lon="13.5842906"><ele>256.0</ele><time>2026-05-02T10:03:38.864Z</time></trkpt><trkpt lat="46.1567902" lon="13.5841734"><ele>258.0</ele><time>2026-05-02T10:03:39.864Z</time></trkpt><trkpt lat="46.1568063" lon="13.5840624"><ele>260.0</ele><time>2026-05-02T10:03:40.867Z</time></trkpt><trkpt lat="46.1568033" lon="13.5839346"><ele>260.0</ele><time>2026-05-02T10:03:41.868Z</time></trkpt><trkpt lat="46.1567953" lon="13.5837812"><ele>260.0</ele><time>2026-05-02T10:03:42.869Z</time></trkpt><trkpt lat="46.1567947" lon="13.5836189"><ele>260.0</ele><time>2026-05-02T10:03:43.864Z</time></trkpt><trkpt lat="46.1567952" lon="13.5834745"><ele>260.0</ele><time>2026-05-02T10:03:44.868Z</time></trkpt><trkpt lat="46.1568025" lon="13.5833424"><ele>260.0</ele><time>2026-05-02T10:03:45.867Z</time></trkpt><trkpt lat="46.1567979" lon="13.5832079"><ele>260.5</ele><time>2026-05-02T10:03:46.867Z</time></trkpt><trkpt lat="46.156742" lon="13.5829503"><ele>261.0</ele><time>2026-05-02T10:03:48.864Z</time></trkpt><trkpt lat="46.1567053" lon="13.5827905"><ele>261.5</ele><time>2026-05-02T10:03:49.867Z</time></trkpt><trkpt lat="46.1566704" lon="13.5826205"><ele>262.0</ele><time>2026-05-02T10:03:50.865Z</time></trkpt><trkpt lat="46.1566201" lon="13.5824223"><ele>261.0</ele><time>2026-05-02T10:03:51.869Z</time></trkpt><trkpt lat="46.1565599" lon="13.5822225"><ele>260.0</ele><time>2026-05-02T10:03:52.865Z</time></trkpt><trkpt lat="46.1565022" lon="13.5820315"><ele>259.0</ele><time>2026-05-02T10:03:53.865Z</time></trkpt><trkpt lat="46.1564515" lon="13.5818543"><ele>258.0</ele><time>2026-05-02T10:03:54.858Z</time></trkpt><trkpt lat="46.1563888" lon="13.5816805"><ele>258.0</ele><time>2026-05-02T10:03:55.87Z</time></trkpt><trkpt lat="46.1563223" lon="13.5815266"><ele>258.0</ele><time>2026-05-02T10:03:56.862Z</time></trkpt><trkpt lat="46.1562771" lon="13.5814282"><ele>258.0</ele><time>2026-05-02T10:03:57.86Z</time></trkpt><trkpt lat="46.1562489" lon="13.5813117"><ele>258.0</ele><time>2026-05-02T10:03:58.863Z</time></trkpt><trkpt lat="46.1562817" lon="13.5811949"><ele>258.0</ele><time>2026-05-02T10:03:59.864Z</time></trkpt><trkpt lat="46.1563629" lon="13.5811062"><ele>261.4</ele><time>2026-05-02T10:04:00.862Z</time></trkpt><trkpt lat="46.1564444" lon="13.5810445"><ele>264.8</ele><time>2026-05-02T10:04:01.862Z</time></trkpt><trkpt lat="46.1565498" lon="13.5809823"><ele>268.2</ele><time>2026-05-02T10:04:02.861Z</time></trkpt><trkpt lat="46.1566517" lon="13.5809"><ele>271.6</ele><time>2026-05-02T10:04:03.863Z</time></trkpt><trkpt lat="46.1567519" lon="13.5808345"><ele>275.0</ele><time>2026-05-02T10:04:04.861Z</time></trkpt><trkpt lat="46.1568483" lon="13.5807683"><ele>279.75</ele><time>2026-05-02T10:04:05.86Z</time></trkpt><trkpt lat="46.1569411" lon="13.5806977"><ele>284.5</ele><time>2026-05-02T10:04:06.859Z</time></trkpt><trkpt lat="46.1570414" lon="13.5806269"><ele>289.25</ele><time>2026-05-02T10:04:07.863Z</time></trkpt><trkpt lat="46.1572051" lon="13.5804463"><ele>294.0</ele><time>2026-05-02T10:04:09.858Z</time></trkpt><trkpt lat="46.1572612" lon="13.580371"><ele>297.6666666666667</ele><time>2026-05-02T10:04:10.865Z</time></trkpt><trkpt lat="46.1573049" lon="13.5803028"><ele>301.3333333333333</ele><time>2026-05-02T10:04:11.868Z</time></trkpt><trkpt lat="46.1573475" lon="13.580208"><ele>305.0</ele><time>2026-05-02T10:04:13.867Z</time></trkpt><trkpt lat="46.1572755" lon="13.5802089"><ele>308.66666666666663</ele><time>2026-05-02T10:04:17.861Z</time></trkpt><trkpt lat="46.1571956" lon="13.5802495"><ele>312.3333333333333</ele><time>2026-05-02T10:04:18.866Z</time></trkpt><trkpt lat="46.1570846" lon="13.5802792"><ele>316.0</ele><time>2026-05-02T10:04:19.858Z</time></trkpt><trkpt lat="46.1569476" lon="13.5802884"><ele>316.0</ele><time>2026-05-02T10:04:20.868Z</time></trkpt><trkpt lat="46.1568222" lon="13.580299"><ele>316.0</ele><time>2026-05-02T10:04:21.86Z</time></trkpt><trkpt lat="46.1566954" lon="13.5802867"><ele>316.0</ele><time>2026-05-02T10:04:22.862Z</time></trkpt><trkpt lat="46.1565677" lon="13.5802357"><ele>316.0</ele><time>2026-05-02T10:04:23.865Z</time></trkpt><trkpt lat="46.1564195" lon="13.5802035"><ele>310.6</ele><time>2026-05-02T10:04:24.869Z</time></trkpt><trkpt lat="46.1563075" lon="13.5801403"><ele>305.20000000000005</ele><time>2026-05-02T10:04:25.861Z</time></trkpt><trkpt lat="46.1561999" lon="13.580088"><ele>299.79999999999995</ele><time>2026-05-02T10:04:26.862Z</time></trkpt><trkpt lat="46.1561224" lon="13.5799972"><ele>294.4</ele><time>2026-05-02T10:04:27.858Z</time></trkpt><trkpt lat="46.1560778" lon="13.579885"><ele>289.0</ele><time>2026-05-02T10:04:28.867Z</time></trkpt><trkpt lat="46.1560292" lon="13.5796144"><ele>289.8</ele><time>2026-05-02T10:04:30.872Z</time></trkpt><trkpt lat="46.1560203" lon="13.579481"><ele>290.59999999999997</ele><time>2026-05-02T10:04:31.854Z</time></trkpt><trkpt lat="46.1560043" lon="13.5793477"><ele>291.4</ele><time>2026-05-02T10:04:32.873Z</time></trkpt><trkpt lat="46.1560006" lon="13.579196"><ele>292.2</ele><time>2026-05-02T10:04:33.861Z</time></trkpt><trkpt lat="46.1559914" lon="13.5790461"><ele>293.0</ele><time>2026-05-02T10:04:34.86Z</time></trkpt><trkpt lat="46.155972" lon="13.5789076"><ele>293.0</ele><time>2026-05-02T10:04:35.869Z</time></trkpt><trkpt lat="46.1559455" lon="13.5787869"><ele>293.0</ele><time>2026-05-02T10:04:36.867Z</time></trkpt><trkpt lat="46.1559193" lon="13.5786786"><ele>293.0</ele><time>2026-05-02T10:04:37.858Z</time></trkpt><trkpt lat="46.1558975" lon="13.5785806"><ele>293.0</ele><time>2026-05-02T10:04:38.873Z</time></trkpt><trkpt lat="46.1559447" lon="13.5784061"><ele>293.0</ele><time>2026-05-02T10:04:40.863Z</time></trkpt><trkpt lat="46.1560067" lon="13.57831"><ele>292.25</ele><time>2026-05-02T10:04:41.866Z</time></trkpt><trkpt lat="46.1560928" lon="13.5782061"><ele>291.5</ele><time>2026-05-02T10:04:42.867Z</time></trkpt><trkpt lat="46.1561733" lon="13.5781146"><ele>290.75</ele><time>2026-05-02T10:04:43.863Z</time></trkpt><trkpt lat="46.1562922" lon="13.5780011"><ele>290.0</ele><time>2026-05-02T10:04:44.862Z</time></trkpt><trkpt lat="46.1564087" lon="13.5778767"><ele>291.5</ele><time>2026-05-02T10:04:45.859Z</time></trkpt><trkpt lat="46.1565253" lon="13.5777398"><ele>293.0</ele><time>2026-05-02T10:04:46.855Z</time></trkpt><trkpt lat="46.156647" lon="13.5776114"><ele>294.5</ele><time>2026-05-02T10:04:47.863Z</time></trkpt><trkpt lat="46.1567581" lon="13.5775177"><ele>296.0</ele><time>2026-05-02T10:04:48.859Z</time></trkpt><trkpt lat="46.1568626" lon="13.5774135"><ele>305.0</ele><time>2026-05-02T10:04:49.865Z</time></trkpt><trkpt lat="46.1570667" lon="13.5772043"><ele>314.0</ele><time>2026-05-02T10:04:51.865Z</time></trkpt><trkpt lat="46.1571575" lon="13.5770924"><ele>323.0</ele><time>2026-05-02T10:04:52.858Z</time></trkpt><trkpt lat="46.1572199" lon="13.576996"><ele>326.2</ele><time>2026-05-02T10:04:53.867Z</time></trkpt><trkpt lat="46.1572638" lon="13.5769069"><ele>329.4</ele><time>2026-05-02T10:04:54.86Z</time></trkpt><trkpt lat="46.1572844" lon="13.5768092"><ele>332.59999999999997</ele><time>2026-05-02T10:04:55.866Z</time></trkpt><trkpt lat="46.1572777" lon="13.5766899"><ele>335.79999999999995</ele><time>2026-05-02T10:04:56.866Z</time></trkpt><trkpt lat="46.1572499" lon="13.5765477"><ele>339.0</ele><time>2026-05-02T10:04:57.86Z</time></trkpt><trkpt lat="46.1570799" lon="13.5764579"><ele>339.0</ele><time>2026-05-02T10:04:58.868Z</time></trkpt><trkpt lat="46.1568911" lon="13.576398"><ele>339.0</ele><time>2026-05-02T10:04:59.863Z</time></trkpt><trkpt lat="46.1566511" lon="13.5763752"><ele>339.0</ele><time>2026-05-02T10:05:00.871Z</time></trkpt><trkpt lat="46.1565014" lon="13.5763869"><ele>335.0</ele><time>2026-05-02T10:05:01.862Z</time></trkpt><trkpt lat="46.1563906" lon="13.5763761"><ele>331.0</ele><time>2026-05-02T10:05:02.859Z</time></trkpt><trkpt lat="46.1562832" lon="13.5763524"><ele>327.0</ele><time>2026-05-02T10:05:03.86Z</time></trkpt><trkpt lat="46.1561909" lon="13.5763481"><ele>323.0</ele><time>2026-05-02T10:05:04.866Z</time></trkpt><trkpt lat="46.1561141" lon="13.5763062"><ele>319.0</ele><time>2026-05-02T10:05:05.859Z</time></trkpt><trkpt lat="46.1560641" lon="13.5761989"><ele>322.6</ele><time>2026-05-02T10:05:06.859Z</time></trkpt><trkpt lat="46.156051" lon="13.5760755"><ele>326.2</ele><time>2026-05-02T10:05:07.858Z</time></trkpt><trkpt lat="46.1560633" lon="13.5759179"><ele>329.8</ele><time>2026-05-02T10:05:08.863Z</time></trkpt><trkpt lat="46.1560966" lon="13.57574"><ele>333.40000000000003</ele><time>2026-05-02T10:05:09.858Z</time></trkpt><trkpt lat="46.1561291" lon="13.5755669"><ele>337.0</ele><time>2026-05-02T10:05:10.858Z</time></trkpt><trkpt lat="46.1561345" lon="13.5752929"><ele>342.5</ele><time>2026-05-02T10:05:12.868Z</time></trkpt><trkpt lat="46.1561083" lon="13.57518"><ele>348.0</ele><time>2026-05-02T10:05:13.855Z</time></trkpt><trkpt lat="46.1560031" lon="13.5751185"><ele>353.5</ele><time>2026-05-02T10:05:14.866Z</time></trkpt><trkpt lat="46.1558589" lon="13.5751236"><ele>359.0</ele><time>2026-05-02T10:05:15.868Z</time></trkpt><trkpt lat="46.1557465" lon="13.5751166"><ele>353.0</ele><time>2026-05-02T10:05:16.867Z</time></trkpt><trkpt lat="46.1556634" lon="13.5750668"><ele>347.0</ele><time>2026-05-02T10:05:17.869Z</time></trkpt><trkpt lat="46.1555881" lon="13.5749867"><ele>341.0</ele><time>2026-05-02T10:05:18.866Z</time></trkpt><trkpt lat="46.1555212" lon="13.5748864"><ele>335.0</ele><time>2026-05-02T10:05:19.867Z</time></trkpt><trkpt lat="46.1554508" lon="13.5747827"><ele>329.0</ele><time>2026-05-02T10:05:20.862Z</time></trkpt><trkpt lat="46.1553999" lon="13.5746752"><ele>329.0</ele><time>2026-05-02T10:05:21.861Z</time></trkpt><trkpt lat="46.1553802" lon="13.5745583"><ele>329.0</ele><time>2026-05-02T10:05:22.861Z</time></trkpt><trkpt lat="46.155392" lon="13.5744498"><ele>329.0</ele><time>2026-05-02T10:05:23.866Z</time></trkpt><trkpt lat="46.1554273" lon="13.5743063"><ele>329.0</ele><time>2026-05-02T10:05:24.865Z</time></trkpt><trkpt lat="46.1554743" lon="13.5741384"><ele>329.0</ele><time>2026-05-02T10:05:25.866Z</time></trkpt><trkpt lat="46.1555371" lon="13.5739467"><ele>330.33333333333337</ele><time>2026-05-02T10:05:26.868Z</time></trkpt><trkpt lat="46.1556034" lon="13.5737445"><ele>331.6666666666667</ele><time>2026-05-02T10:05:27.862Z</time></trkpt><trkpt lat="46.1556852" lon="13.5735308"><ele>333.0</ele><time>2026-05-02T10:05:28.86Z</time></trkpt><trkpt lat="46.1557731" lon="13.5733315"><ele>346.6666666666667</ele><time>2026-05-02T10:05:29.863Z</time></trkpt><trkpt lat="46.1558279" lon="13.5731363"><ele>360.33333333333337</ele><time>2026-05-02T10:05:30.86Z</time></trkpt><trkpt lat="46.1558677" lon="13.5729192"><ele>374.0</ele><time>2026-05-02T10:05:31.866Z</time></trkpt><trkpt lat="46.1559687" lon="13.5724848"><ele>374.0</ele><time>2026-05-02T10:05:33.858Z</time></trkpt><trkpt lat="46.1560294" lon="13.5722949"><ele>374.0</ele><time>2026-05-02T10:05:34.875Z</time></trkpt><trkpt lat="46.1560451" lon="13.5721179"><ele>374.0</ele><time>2026-05-02T10:05:35.862Z</time></trkpt><trkpt lat="46.1560476" lon="13.5719585"><ele>374.0</ele><time>2026-05-02T10:05:36.86Z</time></trkpt><trkpt lat="46.1560277" lon="13.5718458"><ele>375.1666666666667</ele><time>2026-05-02T10:05:37.869Z</time></trkpt><trkpt lat="46.1559727" lon="13.571774"><ele>376.33333333333337</ele><time>2026-05-02T10:05:38.863Z</time></trkpt><trkpt lat="46.1558996" lon="13.5717368"><ele>377.5</ele><time>2026-05-02T10:05:39.857Z</time></trkpt><trkpt lat="46.155802" lon="13.5717016"><ele>378.6666666666667</ele><time>2026-05-02T10:05:40.859Z</time></trkpt><trkpt lat="46.1557013" lon="13.5716969"><ele>379.8333333333333</ele><time>2026-05-02T10:05:41.864Z</time></trkpt><trkpt lat="46.1556092" lon="13.5716967"><ele>381.0</ele><time>2026-05-02T10:05:42.864Z</time></trkpt><trkpt lat="46.1555422" lon="13.5717118"><ele>381.0</ele><time>2026-05-02T10:05:43.867Z</time></trkpt><trkpt lat="46.1555276" lon="13.5716136"><ele>381.0</ele><time>2026-05-02T10:05:45.864Z</time></trkpt><trkpt lat="46.1555833" lon="13.571569"><ele>381.0</ele><time>2026-05-02T10:05:46.866Z</time></trkpt><trkpt lat="46.1556638" lon="13.5715733"><ele>381.0</ele><time>2026-05-02T10:05:47.86Z</time></trkpt><trkpt lat="46.155786" lon="13.5715859"><ele>381.0</ele><time>2026-05-02T10:05:48.86Z</time></trkpt><trkpt lat="46.1558932" lon="13.5715995"><ele>381.0</ele><time>2026-05-02T10:05:49.859Z</time></trkpt><trkpt lat="46.1559943" lon="13.5715842"><ele>379.25</ele><time>2026-05-02T10:05:50.868Z</time></trkpt><trkpt lat="46.1560775" lon="13.5715969"><ele>377.5</ele><time>2026-05-02T10:05:51.866Z</time></trkpt><trkpt lat="46.1561489" lon="13.5716328"><ele>375.75</ele><time>2026-05-02T10:05:52.861Z</time></trkpt><trkpt lat="46.1562375" lon="13.5718458"><ele>374.0</ele><time>2026-05-02T10:05:54.865Z</time></trkpt><trkpt lat="46.1562587" lon="13.5720243"><ele>374.0</ele><time>2026-05-02T10:05:55.862Z</time></trkpt><trkpt lat="46.156252" lon="13.5721814"><ele>374.0</ele><time>2026-05-02T10:05:56.861Z</time></trkpt><trkpt lat="46.1563066" lon="13.5723352"><ele>374.0</ele><time>2026-05-02T10:05:58.864Z</time></trkpt><trkpt lat="46.1563453" lon="13.5724186"><ele>374.0</ele><time>2026-05-02T10:05:59.861Z</time></trkpt><trkpt lat="46.1564386" lon="13.5724213"><ele>374.0</ele><time>2026-05-02T10:06:01.859Z</time></trkpt><trkpt lat="46.1564448" lon="13.5723089"><ele>374.0</ele><time>2026-05-02T10:06:02.871Z</time></trkpt><trkpt lat="46.1564116" lon="13.5722004"><ele>374.0</ele><time>2026-05-02T10:06:03.854Z</time></trkpt><trkpt lat="46.1563847" lon="13.5720784"><ele>374.0</ele><time>2026-05-02T10:06:04.863Z</time></trkpt><trkpt lat="46.1563754" lon="13.5719427"><ele>374.0</ele><time>2026-05-02T10:06:05.862Z</time></trkpt><trkpt lat="46.1563655" lon="13.5718001"><ele>374.0</ele><time>2026-05-02T10:06:06.861Z</time></trkpt><trkpt lat="46.1563563" lon="13.5716502"><ele>378.33333333333337</ele><time>2026-05-02T10:06:07.866Z</time></trkpt><trkpt lat="46.1563449" lon="13.5715031"><ele>382.6666666666667</ele><time>2026-05-02T10:06:08.864Z</time></trkpt><trkpt lat="46.1563257" lon="13.5713778"><ele>387.0</ele><time>2026-05-02T10:06:09.862Z</time></trkpt><trkpt lat="46.1563034" lon="13.5712654"><ele>391.33333333333337</ele><time>2026-05-02T10:06:10.863Z</time></trkpt><trkpt lat="46.1562713" lon="13.5711657"><ele>395.6666666666667</ele><time>2026-05-02T10:06:11.859Z</time></trkpt><trkpt lat="46.1562078" lon="13.5710941"><ele>400.0</ele><time>2026-05-02T10:06:12.861Z</time></trkpt><trkpt lat="46.1561293" lon="13.5711401"><ele>405.0</ele><time>2026-05-02T10:06:13.86Z</time></trkpt><trkpt lat="46.1559159" lon="13.5710971"><ele>410.0</ele><time>2026-05-02T10:06:15.86Z</time></trkpt><trkpt lat="46.1558262" lon="13.5710982"><ele>415.0</ele><time>2026-05-02T10:06:16.865Z</time></trkpt><trkpt lat="46.1557481" lon="13.5710838"><ele>420.0</ele><time>2026-05-02T10:06:17.861Z</time></trkpt><trkpt lat="46.155657" lon="13.5710523"><ele>420.0</ele><time>2026-05-02T10:06:18.861Z</time></trkpt><trkpt lat="46.1555615" lon="13.5709884"><ele>420.0</ele><time>2026-05-02T10:06:19.859Z</time></trkpt><trkpt lat="46.1554598" lon="13.5709052"><ele>420.0</ele><time>2026-05-02T10:06:20.866Z</time></trkpt><trkpt lat="46.1553562" lon="13.5708483"><ele>420.0</ele><time>2026-05-02T10:06:21.86Z</time></trkpt><trkpt lat="46.1552611" lon="13.5707911"><ele>420.0</ele><time>2026-05-02T10:06:22.862Z</time></trkpt><trkpt lat="46.1551674" lon="13.5707672"><ele>420.0</ele><time>2026-05-02T10:06:23.862Z</time></trkpt><trkpt lat="46.1550772" lon="13.5707391"><ele>420.0</ele><time>2026-05-02T10:06:24.87Z</time></trkpt><trkpt lat="46.1549839" lon="13.5707039"><ele>420.0</ele><time>2026-05-02T10:06:25.869Z</time></trkpt><trkpt lat="46.1548839" lon="13.5706479"><ele>420.0</ele><time>2026-05-02T10:06:26.858Z</time></trkpt><trkpt lat="46.1547814" lon="13.5705789"><ele>420.0</ele><time>2026-05-02T10:06:27.864Z</time></trkpt><trkpt lat="46.1547016" lon="13.5705134"><ele>420.0</ele><time>2026-05-02T10:06:28.867Z</time></trkpt><trkpt lat="46.1546428" lon="13.5704579"><ele>420.0</ele><time>2026-05-02T10:06:29.862Z</time></trkpt><trkpt lat="46.1547324" lon="13.5703817"><ele>420.0</ele><time>2026-05-02T10:06:32.854Z</time></trkpt><trkpt lat="46.1548112" lon="13.570434"><ele>420.0</ele><time>2026-05-02T10:06:33.862Z</time></trkpt><trkpt lat="46.1549009" lon="13.5705211"><ele>420.0</ele><time>2026-05-02T10:06:34.865Z</time></trkpt><trkpt lat="46.1551047" lon="13.5706438"><ele>420.0</ele><time>2026-05-02T10:06:36.859Z</time></trkpt><trkpt lat="46.1552151" lon="13.5706634"><ele>420.0</ele><time>2026-05-02T10:06:37.861Z</time></trkpt><trkpt lat="46.1553248" lon="13.570659"><ele>420.0</ele><time>2026-05-02T10:06:38.861Z</time></trkpt><trkpt lat="46.1554311" lon="13.5706236"><ele>420.0</ele><time>2026-05-02T10:06:39.862Z</time></trkpt><trkpt lat="46.1555437" lon="13.5705981"><ele>420.0</ele><time>2026-05-02T10:06:40.86Z</time></trkpt><trkpt lat="46.1556671" lon="13.5705803"><ele>423.25</ele><time>2026-05-02T10:06:41.861Z</time></trkpt><trkpt lat="46.1558068" lon="13.570564"><ele>426.5</ele><time>2026-05-02T10:06:42.863Z</time></trkpt><trkpt lat="46.1559405" lon="13.570549"><ele>429.75</ele><time>2026-05-02T10:06:43.858Z</time></trkpt><trkpt lat="46.1560668" lon="13.5705351"><ele>433.0</ele><time>2026-05-02T10:06:44.869Z</time></trkpt><trkpt lat="46.1561726" lon="13.5705548"><ele>433.00000000000006</ele><time>2026-05-02T10:06:45.858Z</time></trkpt><trkpt lat="46.1562626" lon="13.5705745"><ele>433.0</ele><time>2026-05-02T10:06:46.872Z</time></trkpt><trkpt lat="46.1563358" lon="13.5706027"><ele>433.0</ele><time>2026-05-02T10:06:47.861Z</time></trkpt><trkpt lat="46.1564047" lon="13.57052"><ele>433.0</ele><time>2026-05-02T10:06:49.867Z</time></trkpt><trkpt lat="46.1563777" lon="13.5704373"><ele>433.00000000000006</ele><time>2026-05-02T10:06:50.865Z</time></trkpt><trkpt lat="46.1562747" lon="13.5703558"><ele>433.0</ele><time>2026-05-02T10:06:52.858Z</time></trkpt><trkpt lat="46.1562073" lon="13.5703276"><ele>441.0</ele><time>2026-05-02T10:06:53.861Z</time></trkpt><trkpt lat="46.1561276" lon="13.5703054"><ele>449.0</ele><time>2026-05-02T10:06:54.858Z</time></trkpt><trkpt lat="46.1560394" lon="13.5702834"><ele>457.0</ele><time>2026-05-02T10:06:55.866Z</time></trkpt><trkpt lat="46.1558511" lon="13.5702348"><ele>465.0</ele><time>2026-05-02T10:06:57.864Z</time></trkpt><trkpt lat="46.1557532" lon="13.5702029"><ele>460.2</ele><time>2026-05-02T10:06:58.862Z</time></trkpt><trkpt lat="46.1556525" lon="13.5701699"><ele>455.4</ele><time>2026-05-02T10:06:59.863Z</time></trkpt><trkpt lat="46.1555526" lon="13.5701407"><ele>450.6</ele><time>2026-05-02T10:07:00.862Z</time></trkpt><trkpt lat="46.155458" lon="13.5701074"><ele>445.8</ele><time>2026-05-02T10:07:01.866Z</time></trkpt><trkpt lat="46.1553751" lon="13.570065"><ele>441.0</ele><time>2026-05-02T10:07:02.863Z</time></trkpt><trkpt lat="46.155301" lon="13.5700375"><ele>441.0</ele><time>2026-05-02T10:07:03.863Z</time></trkpt><trkpt lat="46.155285" lon="13.5699111"><ele>441.0</ele><time>2026-05-02T10:07:06.861Z</time></trkpt><trkpt lat="46.1553295" lon="13.5698283"><ele>441.0</ele><time>2026-05-02T10:07:07.858Z</time></trkpt><trkpt lat="46.155385" lon="13.5697354"><ele>441.0</ele><time>2026-05-02T10:07:08.869Z</time></trkpt><trkpt lat="46.1554444" lon="13.5696453"><ele>441.0</ele><time>2026-05-02T10:07:09.867Z</time></trkpt><trkpt lat="46.1554953" lon="13.5695628"><ele>441.0</ele><time>2026-05-02T10:07:10.861Z</time></trkpt><trkpt lat="46.1555495" lon="13.569488"><ele>445.20000000000005</ele><time>2026-05-02T10:07:11.855Z</time></trkpt><trkpt lat="46.1556109" lon="13.569414"><ele>449.40000000000003</ele><time>2026-05-02T10:07:12.861Z</time></trkpt><trkpt lat="46.1556808" lon="13.5693392"><ele>453.6</ele><time>2026-05-02T10:07:13.863Z</time></trkpt><trkpt lat="46.1557483" lon="13.5692441"><ele>457.8</ele><time>2026-05-02T10:07:14.862Z</time></trkpt><trkpt lat="46.1558204" lon="13.5691457"><ele>462.0</ele><time>2026-05-02T10:07:15.863Z</time></trkpt><trkpt lat="46.1558942" lon="13.5690385"><ele>462.0</ele><time>2026-05-02T10:07:16.863Z</time></trkpt><trkpt lat="46.1559996" lon="13.5688465"><ele>462.0</ele><time>2026-05-02T10:07:18.858Z</time></trkpt><trkpt lat="46.1560378" lon="13.5687476"><ele>462.0</ele><time>2026-05-02T10:07:19.862Z</time></trkpt><trkpt lat="46.1561255" lon="13.5686053"><ele>462.0</ele><time>2026-05-02T10:07:21.857Z</time></trkpt><trkpt lat="46.1561802" lon="13.5685171"><ele>458.3333333333333</ele><time>2026-05-02T10:07:22.867Z</time></trkpt><trkpt lat="46.1562327" lon="13.568418"><ele>454.66666666666663</ele><time>2026-05-02T10:07:23.862Z</time></trkpt><trkpt lat="46.1562963" lon="13.5683301"><ele>451.0</ele><time>2026-05-02T10:07:24.866Z</time></trkpt><trkpt lat="46.156346" lon="13.5682358"><ele>447.3333333333333</ele><time>2026-05-02T10:07:25.859Z</time></trkpt><trkpt lat="46.1563907" lon="13.5681398"><ele>443.66666666666663</ele><time>2026-05-02T10:07:26.859Z</time></trkpt><trkpt lat="46.1564375" lon="13.5680498"><ele>440.0</ele><time>2026-05-02T10:07:27.86Z</time></trkpt><trkpt lat="46.1564817" lon="13.5679722"><ele>439.99999999999994</ele><time>2026-05-02T10:07:28.861Z</time></trkpt><trkpt lat="46.1565301" lon="13.5678983"><ele>440.0</ele><time>2026-05-02T10:07:29.858Z</time></trkpt><trkpt lat="46.1565763" lon="13.5678133"><ele>440.0</ele><time>2026-05-02T10:07:30.866Z</time></trkpt><trkpt lat="46.1566415" lon="13.5677256"><ele>440.0</ele><time>2026-05-02T10:07:31.859Z</time></trkpt><trkpt lat="46.1567093" lon="13.5676382"><ele>439.99999999999994</ele><time>2026-05-02T10:07:32.861Z</time></trkpt><trkpt lat="46.1567673" lon="13.5675427"><ele>440.0</ele><time>2026-05-02T10:07:33.862Z</time></trkpt><trkpt lat="46.1568186" lon="13.5674675"><ele>442.8</ele><time>2026-05-02T10:07:34.855Z</time></trkpt><trkpt lat="46.1568592" lon="13.5673703"><ele>445.6</ele><time>2026-05-02T10:07:35.86Z</time></trkpt><trkpt lat="46.1569095" lon="13.5672732"><ele>448.4</ele><time>2026-05-02T10:07:36.867Z</time></trkpt><trkpt lat="46.1569619" lon="13.5671881"><ele>451.2</ele><time>2026-05-02T10:07:37.864Z</time></trkpt><trkpt lat="46.1570718" lon="13.5670187"><ele>454.0</ele><time>2026-05-02T10:07:39.863Z</time></trkpt><trkpt lat="46.1571291" lon="13.566926"><ele>454.00000000000006</ele><time>2026-05-02T10:07:40.861Z</time></trkpt><trkpt lat="46.1571831" lon="13.5668502"><ele>454.0</ele><time>2026-05-02T10:07:41.855Z</time></trkpt><trkpt lat="46.1572481" lon="13.5667143"><ele>454.0</ele><time>2026-05-02T10:07:43.856Z</time></trkpt><trkpt lat="46.1572871" lon="13.5665738"><ele>454.0</ele><time>2026-05-02T10:07:45.856Z</time></trkpt><trkpt lat="46.1573094" lon="13.5664798"><ele>454.00000000000006</ele><time>2026-05-02T10:07:46.866Z</time></trkpt><trkpt lat="46.1573197" lon="13.566378"><ele>454.0</ele><time>2026-05-02T10:07:47.864Z</time></trkpt><trkpt lat="46.1573389" lon="13.5662722"><ele>457.1666666666667</ele><time>2026-05-02T10:07:48.869Z</time></trkpt><trkpt lat="46.1573624" lon="13.5661585"><ele>460.33333333333337</ele><time>2026-05-02T10:07:49.862Z</time></trkpt><trkpt lat="46.1573769" lon="13.5660677"><ele>463.5</ele><time>2026-05-02T10:07:50.859Z</time></trkpt><trkpt lat="46.1574075" lon="13.5659074"><ele>466.66666666666663</ele><time>2026-05-02T10:07:52.863Z</time></trkpt><trkpt lat="46.1573899" lon="13.5658188"><ele>469.8333333333333</ele><time>2026-05-02T10:07:54.865Z</time></trkpt><trkpt lat="46.1572982" lon="13.5657422"><ele>473.0</ele><time>2026-05-02T10:07:56.862Z</time></trkpt><trkpt lat="46.1572316" lon="13.5656805"><ele>473.0</ele><time>2026-05-02T10:07:58.869Z</time></trkpt><trkpt lat="46.1571002" lon="13.5654367"><ele>473.0</ele><time>2026-05-02T10:08:02.86Z</time></trkpt><trkpt lat="46.1570004" lon="13.5653111"><ele>473.0</ele><time>2026-05-02T10:08:04.86Z</time></trkpt><trkpt lat="46.1569319" lon="13.5652317"><ele>473.0</ele><time>2026-05-02T10:08:05.855Z</time></trkpt><trkpt lat="46.1568646" lon="13.5651481"><ele>473.0</ele><time>2026-05-02T10:08:06.859Z</time></trkpt><trkpt lat="46.1568053" lon="13.5650905"><ele>472.99999999999994</ele><time>2026-05-02T10:08:07.868Z</time></trkpt><trkpt lat="46.1567454" lon="13.5650523"><ele>472.99999999999994</ele><time>2026-05-02T10:08:08.861Z</time></trkpt><trkpt lat="46.1566225" lon="13.5650517"><ele>473.0</ele><time>2026-05-02T10:08:10.859Z</time></trkpt><trkpt lat="46.1564951" lon="13.5650676"><ele>473.0</ele><time>2026-05-02T10:08:12.852Z</time></trkpt><trkpt lat="46.1563982" lon="13.5650465"><ele>473.0</ele><time>2026-05-02T10:08:14.855Z</time></trkpt><trkpt lat="46.1563006" lon="13.5649839"><ele>472.99999999999994</ele><time>2026-05-02T10:08:16.856Z</time></trkpt><trkpt lat="46.1562413" lon="13.5649474"><ele>472.99999999999994</ele><time>2026-05-02T10:08:17.868Z</time></trkpt><trkpt lat="46.1561828" lon="13.5649048"><ele>473.0</ele><time>2026-05-02T10:08:18.858Z</time></trkpt><trkpt lat="46.1560671" lon="13.564828"><ele>473.0</ele><time>2026-05-02T10:08:20.864Z</time></trkpt><trkpt lat="46.1559343" lon="13.5647358"><ele>472.99999999999994</ele><time>2026-05-02T10:08:22.86Z</time></trkpt><trkpt lat="46.1558674" lon="13.5646756"><ele>473.0</ele><time>2026-05-02T10:08:23.864Z</time></trkpt><trkpt lat="46.1558026" lon="13.5646117"><ele>473.0</ele><time>2026-05-02T10:08:24.857Z</time></trkpt><trkpt lat="46.1557542" lon="13.5645514"><ele>473.0</ele><time>2026-05-02T10:08:25.859Z</time></trkpt><trkpt lat="46.1556798" lon="13.5644183"><ele>472.99999999999994</ele><time>2026-05-02T10:08:27.853Z</time></trkpt><trkpt lat="46.1556647" lon="13.5643182"><ele>473.0</ele><time>2026-05-02T10:08:28.859Z</time></trkpt><trkpt lat="46.1556538" lon="13.5642044"><ele>472.99999999999994</ele><time>2026-05-02T10:08:29.856Z</time></trkpt><trkpt lat="46.155659" lon="13.5640814"><ele>473.0</ele><time>2026-05-02T10:08:30.86Z</time></trkpt><trkpt lat="46.1556695" lon="13.5639674"><ele>473.0</ele><time>2026-05-02T10:08:31.859Z</time></trkpt><trkpt lat="46.1556776" lon="13.5638492"><ele>473.0</ele><time>2026-05-02T10:08:32.858Z</time></trkpt><trkpt lat="46.1556927" lon="13.5637251"><ele>472.99999999999994</ele><time>2026-05-02T10:08:33.864Z</time></trkpt><trkpt lat="46.1556907" lon="13.563587"><ele>473.0</ele><time>2026-05-02T10:08:34.861Z</time></trkpt><trkpt lat="46.1556857" lon="13.563455"><ele>472.99999999999994</ele><time>2026-05-02T10:08:35.861Z</time></trkpt><trkpt lat="46.1556851" lon="13.5633309"><ele>473.0</ele><time>2026-05-02T10:08:36.868Z</time></trkpt><trkpt lat="46.1556861" lon="13.5632255"><ele>473.0</ele><time>2026-05-02T10:08:37.856Z</time></trkpt><trkpt lat="46.1556888" lon="13.5631225"><ele>473.0</ele><time>2026-05-02T10:08:38.864Z</time></trkpt><trkpt lat="46.1556969" lon="13.5630197"><ele>472.99999999999994</ele><time>2026-05-02T10:08:39.862Z</time></trkpt><trkpt lat="46.1557119" lon="13.5629144"><ele>473.0</ele><time>2026-05-02T10:08:40.859Z</time></trkpt><trkpt lat="46.1557284" lon="13.5628101"><ele>473.0</ele><time>2026-05-02T10:08:41.863Z</time></trkpt><trkpt lat="46.1557233" lon="13.5625909"><ele>472.99999999999994</ele><time>2026-05-02T10:08:43.859Z</time></trkpt><trkpt lat="46.1557213" lon="13.5624525"><ele>472.99999999999994</ele><time>2026-05-02T10:08:44.86Z</time></trkpt><trkpt lat="46.155708" lon="13.5623385"><ele>473.0</ele><time>2026-05-02T10:08:45.863Z</time></trkpt><trkpt lat="46.1556833" lon="13.5622347"><ele>473.0</ele><time>2026-05-02T10:08:46.859Z</time></trkpt><trkpt lat="46.1556488" lon="13.5621344"><ele>478.99999999999994</ele><time>2026-05-02T10:08:47.868Z</time></trkpt><trkpt lat="46.1556215" lon="13.5620354"><ele>485.0</ele><time>2026-05-02T10:08:48.869Z</time></trkpt><trkpt lat="46.1556119" lon="13.5619361"><ele>491.0</ele><time>2026-05-02T10:08:49.861Z</time></trkpt><trkpt lat="46.15559" lon="13.5618229"><ele>497.0</ele><time>2026-05-02T10:08:50.859Z</time></trkpt><trkpt lat="46.1555675" lon="13.561697"><ele>502.99999999999994</ele><time>2026-05-02T10:08:51.864Z</time></trkpt><trkpt lat="46.1555412" lon="13.5615659"><ele>509.0</ele><time>2026-05-02T10:08:52.861Z</time></trkpt><trkpt lat="46.1555192" lon="13.5614408"><ele>508.99999999999994</ele><time>2026-05-02T10:08:53.858Z</time></trkpt><trkpt lat="46.1554987" lon="13.5613416"><ele>509.0</ele><time>2026-05-02T10:08:54.869Z</time></trkpt><trkpt lat="46.1554916" lon="13.5612484"><ele>509.0</ele><time>2026-05-02T10:08:55.857Z</time></trkpt><trkpt lat="46.1554725" lon="13.5611058"><ele>509.0</ele><time>2026-05-02T10:08:57.858Z</time></trkpt><trkpt lat="46.1554269" lon="13.5610369"><ele>508.99999999999994</ele><time>2026-05-02T10:09:00.857Z</time></trkpt><trkpt lat="46.1553634" lon="13.5610626"><ele>509.0</ele><time>2026-05-02T10:09:02.856Z</time></trkpt><trkpt lat="46.1552256" lon="13.5612894"><ele>508.99999999999994</ele><time>2026-05-02T10:09:06.856Z</time></trkpt><trkpt lat="46.1551712" lon="13.5613549"><ele>509.0</ele><time>2026-05-02T10:09:07.86Z</time></trkpt><trkpt lat="46.155105" lon="13.561425"><ele>509.0</ele><time>2026-05-02T10:09:08.864Z</time></trkpt><trkpt lat="46.1550323" lon="13.5614998"><ele>509.0</ele><time>2026-05-02T10:09:09.856Z</time></trkpt><trkpt lat="46.1549711" lon="13.5615569"><ele>508.99999999999994</ele><time>2026-05-02T10:09:10.861Z</time></trkpt><trkpt lat="46.1549063" lon="13.5616046"><ele>509.0</ele><time>2026-05-02T10:09:11.858Z</time></trkpt><trkpt lat="46.1548351" lon="13.5616302"><ele>509.8333333333333</ele><time>2026-05-02T10:09:12.863Z</time></trkpt><trkpt lat="46.1547608" lon="13.5616611"><ele>510.66666666666663</ele><time>2026-05-02T10:09:13.857Z</time></trkpt><trkpt lat="46.1546867" lon="13.5617072"><ele>511.5</ele><time>2026-05-02T10:09:14.87Z</time></trkpt><trkpt lat="46.1546185" lon="13.5617618"><ele>512.3333333333334</ele><time>2026-05-02T10:09:15.857Z</time></trkpt><trkpt lat="46.1545432" lon="13.5618125"><ele>513.1666666666667</ele><time>2026-05-02T10:09:16.871Z</time></trkpt><trkpt lat="46.1544572" lon="13.5618658"><ele>514.0</ele><time>2026-05-02T10:09:17.858Z</time></trkpt><trkpt lat="46.1543745" lon="13.5619028"><ele>514.0</ele><time>2026-05-02T10:09:18.862Z</time></trkpt><trkpt lat="46.1542929" lon="13.5619487"><ele>514.0</ele><time>2026-05-02T10:09:19.86Z</time></trkpt><trkpt lat="46.1542142" lon="13.56199"><ele>514.0</ele><time>2026-05-02T10:09:20.87Z</time></trkpt><trkpt lat="46.1541375" lon="13.5620375"><ele>514.0</ele><time>2026-05-02T10:09:21.853Z</time></trkpt><trkpt lat="46.1540667" lon="13.5620999"><ele>514.0</ele><time>2026-05-02T10:09:22.864Z</time></trkpt><trkpt lat="46.1540004" lon="13.5621559"><ele>514.0</ele><time>2026-05-02T10:09:23.858Z</time></trkpt><trkpt lat="46.1539356" lon="13.5622156"><ele>508.50000000000006</ele><time>2026-05-02T10:09:24.859Z</time></trkpt><trkpt lat="46.153804" lon="13.5623396"><ele>503.0</ele><time>2026-05-02T10:09:26.863Z</time></trkpt><trkpt lat="46.1537467" lon="13.5623914"><ele>497.5</ele><time>2026-05-02T10:09:27.86Z</time></trkpt><trkpt lat="46.1536802" lon="13.5624428"><ele>492.0</ele><time>2026-05-02T10:09:28.852Z</time></trkpt><trkpt lat="46.1536198" lon="13.5624773"><ele>486.50000000000006</ele><time>2026-05-02T10:09:29.858Z</time></trkpt><trkpt lat="46.1535617" lon="13.5625293"><ele>481.0</ele><time>2026-05-02T10:09:30.859Z</time></trkpt><trkpt lat="46.1535053" lon="13.562581"><ele>481.0</ele><time>2026-05-02T10:09:31.857Z</time></trkpt><trkpt lat="46.153396" lon="13.5626275"><ele>481.0</ele><time>2026-05-02T10:09:33.864Z</time></trkpt><trkpt lat="46.1533245" lon="13.5626355"><ele>481.0</ele><time>2026-05-02T10:09:34.857Z</time></trkpt><trkpt lat="46.1532334" lon="13.5626393"><ele>481.0</ele><time>2026-05-02T10:09:35.852Z</time></trkpt><trkpt lat="46.1531355" lon="13.5626521"><ele>481.0</ele><time>2026-05-02T10:09:36.865Z</time></trkpt><trkpt lat="46.1530387" lon="13.5626539"><ele>481.00000000000006</ele><time>2026-05-02T10:09:37.862Z</time></trkpt><trkpt lat="46.152947" lon="13.5626429"><ele>481.0</ele><time>2026-05-02T10:09:38.87Z</time></trkpt><trkpt lat="46.152866" lon="13.562626"><ele>481.0</ele><time>2026-05-02T10:09:39.861Z</time></trkpt><trkpt lat="46.1527917" lon="13.5625957"><ele>481.0</ele><time>2026-05-02T10:09:40.86Z</time></trkpt><trkpt lat="46.1527198" lon="13.5625603"><ele>481.00000000000006</ele><time>2026-05-02T10:09:41.864Z</time></trkpt><trkpt lat="46.1526395" lon="13.5625131"><ele>481.0</ele><time>2026-05-02T10:09:42.858Z</time></trkpt><trkpt lat="46.1525604" lon="13.5624446"><ele>440.40000000000003</ele><time>2026-05-02T10:09:43.852Z</time></trkpt><trkpt lat="46.152482" lon="13.5623613"><ele>399.8</ele><time>2026-05-02T10:09:44.866Z</time></trkpt><trkpt lat="46.1524065" lon="13.5622813"><ele>359.20000000000005</ele><time>2026-05-02T10:09:45.863Z</time></trkpt><trkpt lat="46.1522967" lon="13.5620925"><ele>318.6</ele><time>2026-05-02T10:09:47.86Z</time></trkpt><trkpt lat="46.1522552" lon="13.5619899"><ele>278.0</ele><time>2026-05-02T10:09:48.86Z</time></trkpt><trkpt lat="46.1522178" lon="13.5618704"><ele>278.0</ele><time>2026-05-02T10:09:49.86Z</time></trkpt><trkpt lat="46.1521829" lon="13.5617356"><ele>278.0</ele><time>2026-05-02T10:09:50.857Z</time></trkpt><trkpt lat="46.152152" lon="13.561597"><ele>278.0</ele><time>2026-05-02T10:09:51.856Z</time></trkpt><trkpt lat="46.1521285" lon="13.5614426"><ele>278.0</ele><time>2026-05-02T10:09:52.863Z</time></trkpt><trkpt lat="46.1521061" lon="13.5612939"><ele>278.0</ele><time>2026-05-02T10:09:53.864Z</time></trkpt><trkpt lat="46.1520895" lon="13.5611575"><ele>286.5</ele><time>2026-05-02T10:09:54.856Z</time></trkpt><trkpt lat="46.1520807" lon="13.5610254"><ele>295.0</ele><time>2026-05-02T10:09:55.86Z</time></trkpt><trkpt lat="46.1520751" lon="13.5608825"><ele>303.5</ele><time>2026-05-02T10:09:56.865Z</time></trkpt><trkpt lat="46.1520648" lon="13.5607471"><ele>312.0</ele><time>2026-05-02T10:09:57.859Z</time></trkpt><trkpt lat="46.1520604" lon="13.560626"><ele>320.5</ele><time>2026-05-02T10:09:58.857Z</time></trkpt><trkpt lat="46.1520574" lon="13.5605124"><ele>329.0</ele><time>2026-05-02T10:09:59.862Z</time></trkpt><trkpt lat="46.1520636" lon="13.560403"><ele>337.4</ele><time>2026-05-02T10:10:00.86Z</time></trkpt><trkpt lat="46.1520608" lon="13.5602525"><ele>345.79999999999995</ele><time>2026-05-02T10:10:01.87Z</time></trkpt><trkpt lat="46.1520596" lon="13.5601045"><ele>354.20000000000005</ele><time>2026-05-02T10:10:02.863Z</time></trkpt><trkpt lat="46.1520521" lon="13.5599555"><ele>362.6</ele><time>2026-05-02T10:10:03.866Z</time></trkpt><trkpt lat="46.1520383" lon="13.559813"><ele>371.0</ele><time>2026-05-02T10:10:04.856Z</time></trkpt><trkpt lat="46.1520158" lon="13.559671"><ele>384.5</ele><time>2026-05-02T10:10:05.852Z</time></trkpt><trkpt lat="46.1519917" lon="13.5595277"><ele>398.0</ele><time>2026-05-02T10:10:06.865Z</time></trkpt><trkpt lat="46.151962" lon="13.5592662"><ele>411.5</ele><time>2026-05-02T10:10:08.854Z</time></trkpt><trkpt lat="46.1519714" lon="13.5591391"><ele>425.0</ele><time>2026-05-02T10:10:09.855Z</time></trkpt><trkpt lat="46.1519782" lon="13.5590259"><ele>425.0</ele><time>2026-05-02T10:10:10.859Z</time></trkpt><trkpt lat="46.1519929" lon="13.5589214"><ele>425.0</ele><time>2026-05-02T10:10:11.86Z</time></trkpt><trkpt lat="46.1520242" lon="13.558792"><ele>425.0</ele><time>2026-05-02T10:10:12.864Z</time></trkpt><trkpt lat="46.1520489" lon="13.5586577"><ele>425.0</ele><time>2026-05-02T10:10:13.866Z</time></trkpt><trkpt lat="46.1520928" lon="13.5585144"><ele>425.0</ele><time>2026-05-02T10:10:14.867Z</time></trkpt><trkpt lat="46.1521382" lon="13.5583546"><ele>422.8</ele><time>2026-05-02T10:10:15.854Z</time></trkpt><trkpt lat="46.1521806" lon="13.5582074"><ele>420.6</ele><time>2026-05-02T10:10:16.856Z</time></trkpt><trkpt lat="46.1522243" lon="13.5580681"><ele>418.4</ele><time>2026-05-02T10:10:17.855Z</time></trkpt><trkpt lat="46.1522683" lon="13.5579225"><ele>416.2</ele><time>2026-05-02T10:10:18.864Z</time></trkpt><trkpt lat="46.1522965" lon="13.5578092"><ele>414.0</ele><time>2026-05-02T10:10:19.865Z</time></trkpt><trkpt lat="46.1523139" lon="13.5577006"><ele>414.0</ele><time>2026-05-02T10:10:20.861Z</time></trkpt><trkpt lat="46.1522618" lon="13.5575782"><ele>414.0</ele><time>2026-05-02T10:10:22.86Z</time></trkpt><trkpt lat="46.152197" lon="13.5574921"><ele>414.0</ele><time>2026-05-02T10:10:23.865Z</time></trkpt><trkpt lat="46.152111" lon="13.5573927"><ele>414.0</ele><time>2026-05-02T10:10:24.862Z</time></trkpt><trkpt lat="46.152035" lon="13.5572945"><ele>414.0</ele><time>2026-05-02T10:10:25.858Z</time></trkpt><trkpt lat="46.1519694" lon="13.557187"><ele>422.5</ele><time>2026-05-02T10:10:26.855Z</time></trkpt><trkpt lat="46.1519015" lon="13.5570883"><ele>431.0</ele><time>2026-05-02T10:10:27.86Z</time></trkpt><trkpt lat="46.1517984" lon="13.5568746"><ele>439.5</ele><time>2026-05-02T10:10:29.86Z</time></trkpt><trkpt lat="46.1517624" lon="13.556757"><ele>448.0</ele><time>2026-05-02T10:10:30.868Z</time></trkpt><trkpt lat="46.1517264" lon="13.5566307"><ele>448.0</ele><time>2026-05-02T10:10:31.86Z</time></trkpt><trkpt lat="46.1516981" lon="13.5564984"><ele>447.99999999999994</ele><time>2026-05-02T10:10:32.856Z</time></trkpt><trkpt lat="46.1516719" lon="13.5563581"><ele>447.99999999999994</ele><time>2026-05-02T10:10:33.863Z</time></trkpt><trkpt lat="46.1516434" lon="13.5562063"><ele>448.0</ele><time>2026-05-02T10:10:34.86Z</time></trkpt><trkpt lat="46.1516136" lon="13.5560614"><ele>448.0</ele><time>2026-05-02T10:10:35.857Z</time></trkpt><trkpt lat="46.1515933" lon="13.5559347"><ele>445.83333333333337</ele><time>2026-05-02T10:10:36.875Z</time></trkpt><trkpt lat="46.1515868" lon="13.5557977"><ele>443.6666666666667</ele><time>2026-05-02T10:10:37.86Z</time></trkpt><trkpt lat="46.1515893" lon="13.555663"><ele>441.5</ele><time>2026-05-02T10:10:38.861Z</time></trkpt><trkpt lat="46.1515928" lon="13.5555346"><ele>439.33333333333337</ele><time>2026-05-02T10:10:39.859Z</time></trkpt><trkpt lat="46.1516108" lon="13.5554245"><ele>437.1666666666667</ele><time>2026-05-02T10:10:40.859Z</time></trkpt><trkpt lat="46.1516322" lon="13.5553217"><ele>435.0</ele><time>2026-05-02T10:10:41.858Z</time></trkpt><trkpt lat="46.1516711" lon="13.5552155"><ele>433.8</ele><time>2026-05-02T10:10:42.855Z</time></trkpt><trkpt lat="46.1517179" lon="13.555088"><ele>432.6</ele><time>2026-05-02T10:10:43.863Z</time></trkpt><trkpt lat="46.1517725" lon="13.5549628"><ele>431.4</ele><time>2026-05-02T10:10:44.864Z</time></trkpt><trkpt lat="46.1518428" lon="13.554834"><ele>430.2</ele><time>2026-05-02T10:10:45.856Z</time></trkpt><trkpt lat="46.1519132" lon="13.5546913"><ele>429.0</ele><time>2026-05-02T10:10:46.858Z</time></trkpt><trkpt lat="46.1519853" lon="13.5545548"><ele>424.5</ele><time>2026-05-02T10:10:47.858Z</time></trkpt><trkpt lat="46.1520305" lon="13.5544061"><ele>420.0</ele><time>2026-05-02T10:10:48.86Z</time></trkpt><trkpt lat="46.152085" lon="13.5541357"><ele>415.5</ele><time>2026-05-02T10:10:50.859Z</time></trkpt><trkpt lat="46.152122" lon="13.554009"><ele>411.0</ele><time>2026-05-02T10:10:51.855Z</time></trkpt><trkpt lat="46.1521741" lon="13.5538738"><ele>411.0</ele><time>2026-05-02T10:10:52.856Z</time></trkpt><trkpt lat="46.1522247" lon="13.5537423"><ele>411.0</ele><time>2026-05-02T10:10:53.864Z</time></trkpt><trkpt lat="46.1522836" lon="13.5536132"><ele>411.0</ele><time>2026-05-02T10:10:54.863Z</time></trkpt><trkpt lat="46.1523404" lon="13.5534848"><ele>411.0</ele><time>2026-05-02T10:10:55.871Z</time></trkpt><trkpt lat="46.1523901" lon="13.5533654"><ele>411.0</ele><time>2026-05-02T10:10:56.86Z</time></trkpt><trkpt lat="46.1524312" lon="13.5532618"><ele>412.8333333333333</ele><time>2026-05-02T10:10:57.856Z</time></trkpt><trkpt lat="46.1524692" lon="13.5531696"><ele>414.66666666666663</ele><time>2026-05-02T10:10:58.858Z</time></trkpt><trkpt lat="46.1525157" lon="13.5530936"><ele>416.5</ele><time>2026-05-02T10:10:59.859Z</time></trkpt><trkpt lat="46.1525608" lon="13.5530244"><ele>418.3333333333333</ele><time>2026-05-02T10:11:00.869Z</time></trkpt><trkpt lat="46.1526243" lon="13.5529432"><ele>420.16666666666663</ele><time>2026-05-02T10:11:02.858Z</time></trkpt><trkpt lat="46.152604" lon="13.5528456"><ele>422.0</ele><time>2026-05-02T10:11:04.855Z</time></trkpt><trkpt lat="46.1525478" lon="13.5527107"><ele>422.0</ele><time>2026-05-02T10:11:06.858Z</time></trkpt><trkpt lat="46.1525397" lon="13.5525452"><ele>422.0</ele><time>2026-05-02T10:11:08.856Z</time></trkpt><trkpt lat="46.1525603" lon="13.552452"><ele>422.0</ele><time>2026-05-02T10:11:09.861Z</time></trkpt><trkpt lat="46.1526322" lon="13.5522552"><ele>422.0</ele><time>2026-05-02T10:11:11.861Z</time></trkpt><trkpt lat="46.1526482" lon="13.5521654"><ele>422.0</ele><time>2026-05-02T10:11:12.864Z</time></trkpt><trkpt lat="46.1526311" lon="13.5520269"><ele>420.49999999999994</ele><time>2026-05-02T10:11:14.858Z</time></trkpt><trkpt lat="46.1525784" lon="13.5518814"><ele>419.0</ele><time>2026-05-02T10:11:16.865Z</time></trkpt><trkpt lat="46.1525354" lon="13.5517891"><ele>417.5</ele><time>2026-05-02T10:11:17.86Z</time></trkpt><trkpt lat="46.152493" lon="13.5517011"><ele>416.0</ele><time>2026-05-02T10:11:18.856Z</time></trkpt><trkpt lat="46.1524515" lon="13.5516177"><ele>414.49999999999994</ele><time>2026-05-02T10:11:19.866Z</time></trkpt><trkpt lat="46.1524044" lon="13.5515272"><ele>413.0</ele><time>2026-05-02T10:11:20.859Z</time></trkpt><trkpt lat="46.1523472" lon="13.551458"><ele>413.8333333333333</ele><time>2026-05-02T10:11:21.859Z</time></trkpt><trkpt lat="46.1522698" lon="13.5513976"><ele>414.66666666666663</ele><time>2026-05-02T10:11:22.859Z</time></trkpt><trkpt lat="46.1522018" lon="13.5513612"><ele>415.5</ele><time>2026-05-02T10:11:23.861Z</time></trkpt><trkpt lat="46.1521336" lon="13.5513002"><ele>416.33333333333337</ele><time>2026-05-02T10:11:24.854Z</time></trkpt><trkpt lat="46.1520743" lon="13.5512259"><ele>417.1666666666667</ele><time>2026-05-02T10:11:25.865Z</time></trkpt><trkpt lat="46.152009" lon="13.5511595"><ele>418.0</ele><time>2026-05-02T10:11:26.862Z</time></trkpt><trkpt lat="46.1519608" lon="13.5510919"><ele>418.0</ele><time>2026-05-02T10:11:27.864Z</time></trkpt><trkpt lat="46.1519253" lon="13.5510152"><ele>418.0</ele><time>2026-05-02T10:11:28.856Z</time></trkpt><trkpt lat="46.151856" lon="13.5508861"><ele>418.0</ele><time>2026-05-02T10:11:30.861Z</time></trkpt><trkpt lat="46.1516799" lon="13.5507747"><ele>418.0</ele><time>2026-05-02T10:11:34.857Z</time></trkpt><trkpt lat="46.1515756" lon="13.5508004"><ele>414.50000000000006</ele><time>2026-05-02T10:11:36.856Z</time></trkpt><trkpt lat="46.1515083" lon="13.5507952"><ele>411.0</ele><time>2026-05-02T10:11:37.867Z</time></trkpt><trkpt lat="46.1514221" lon="13.5507601"><ele>407.5</ele><time>2026-05-02T10:11:38.858Z</time></trkpt><trkpt lat="46.1513409" lon="13.5507177"><ele>404.0</ele><time>2026-05-02T10:11:39.859Z</time></trkpt><trkpt lat="46.1512515" lon="13.5506846"><ele>400.50000000000006</ele><time>2026-05-02T10:11:40.852Z</time></trkpt><trkpt lat="46.1511528" lon="13.5506634"><ele>397.0</ele><time>2026-05-02T10:11:41.86Z</time></trkpt><trkpt lat="46.1510623" lon="13.5506488"><ele>397.00000000000006</ele><time>2026-05-02T10:11:42.858Z</time></trkpt><trkpt lat="46.150974" lon="13.5506453"><ele>397.0</ele><time>2026-05-02T10:11:43.858Z</time></trkpt><trkpt lat="46.1508912" lon="13.5506476"><ele>397.0</ele><time>2026-05-02T10:11:44.863Z</time></trkpt><trkpt lat="46.1508149" lon="13.5506374"><ele>397.0</ele><time>2026-05-02T10:11:45.857Z</time></trkpt><trkpt lat="46.1507472" lon="13.5506229"><ele>397.00000000000006</ele><time>2026-05-02T10:11:46.862Z</time></trkpt><trkpt lat="46.1506843" lon="13.5505967"><ele>397.0</ele><time>2026-05-02T10:11:47.86Z</time></trkpt><trkpt lat="46.1505886" lon="13.5505086"><ele>387.33333333333337</ele><time>2026-05-02T10:11:49.856Z</time></trkpt><trkpt lat="46.1505759" lon="13.5502887"><ele>377.6666666666667</ele><time>2026-05-02T10:11:51.856Z</time></trkpt><trkpt lat="46.1506329" lon="13.5500305"><ele>368.0</ele><time>2026-05-02T10:11:53.858Z</time></trkpt><trkpt lat="46.1506709" lon="13.5498796"><ele>368.0</ele><time>2026-05-02T10:11:54.858Z</time></trkpt><trkpt lat="46.1506932" lon="13.5497476"><ele>368.0</ele><time>2026-05-02T10:11:55.855Z</time></trkpt><trkpt lat="46.1507135" lon="13.5496242"><ele>368.0</ele><time>2026-05-02T10:11:56.857Z</time></trkpt><trkpt lat="46.1507321" lon="13.549512"><ele>368.0</ele><time>2026-05-02T10:11:57.863Z</time></trkpt><trkpt lat="46.1507527" lon="13.5493871"><ele>368.0</ele><time>2026-05-02T10:11:58.856Z</time></trkpt><trkpt lat="46.1508004" lon="13.5492288"><ele>372.83333333333337</ele><time>2026-05-02T10:11:59.853Z</time></trkpt><trkpt lat="46.1508518" lon="13.5490947"><ele>377.6666666666667</ele><time>2026-05-02T10:12:00.859Z</time></trkpt><trkpt lat="46.1509005" lon="13.5489806"><ele>382.5</ele><time>2026-05-02T10:12:01.859Z</time></trkpt><trkpt lat="46.1509357" lon="13.5488775"><ele>387.33333333333337</ele><time>2026-05-02T10:12:02.857Z</time></trkpt><trkpt lat="46.1509524" lon="13.5487843"><ele>392.1666666666667</ele><time>2026-05-02T10:12:03.861Z</time></trkpt><trkpt lat="46.1509469" lon="13.5486916"><ele>397.0</ele><time>2026-05-02T10:12:04.857Z</time></trkpt><trkpt lat="46.1509136" lon="13.5485415"><ele>397.0</ele><time>2026-05-02T10:12:06.866Z</time></trkpt><trkpt lat="46.150861" lon="13.5484821"><ele>397.0</ele><time>2026-05-02T10:12:07.856Z</time></trkpt><trkpt lat="46.1508002" lon="13.5484239"><ele>397.0</ele><time>2026-05-02T10:12:08.861Z</time></trkpt><trkpt lat="46.150741" lon="13.5483572"><ele>397.0</ele><time>2026-05-02T10:12:09.854Z</time></trkpt><trkpt lat="46.1506968" lon="13.5482697"><ele>397.0</ele><time>2026-05-02T10:12:10.857Z</time></trkpt><trkpt lat="46.1506772" lon="13.5481655"><ele>397.0</ele><time>2026-05-02T10:12:11.852Z</time></trkpt><trkpt lat="46.1506666" lon="13.5480617"><ele>397.0</ele><time>2026-05-02T10:12:12.85Z</time></trkpt><trkpt lat="46.1506619" lon="13.5478534"><ele>397.40000000000003</ele><time>2026-05-02T10:12:14.862Z</time></trkpt><trkpt lat="46.1506789" lon="13.5477307"><ele>397.8</ele><time>2026-05-02T10:12:15.866Z</time></trkpt><trkpt lat="46.1507108" lon="13.5475978"><ele>398.2</ele><time>2026-05-02T10:12:16.856Z</time></trkpt><trkpt lat="46.1507506" lon="13.5474605"><ele>398.6</ele><time>2026-05-02T10:12:17.855Z</time></trkpt><trkpt lat="46.1507891" lon="13.5472958"><ele>399.0</ele><time>2026-05-02T10:12:18.866Z</time></trkpt><trkpt lat="46.1508353" lon="13.5471464"><ele>399.6</ele><time>2026-05-02T10:12:19.868Z</time></trkpt><trkpt lat="46.1508718" lon="13.5469904"><ele>400.2</ele><time>2026-05-02T10:12:20.856Z</time></trkpt><trkpt lat="46.1509074" lon="13.5468437"><ele>400.8</ele><time>2026-05-02T10:12:21.852Z</time></trkpt><trkpt lat="46.1509417" lon="13.5466998"><ele>401.40000000000003</ele><time>2026-05-02T10:12:22.863Z</time></trkpt><trkpt lat="46.1509542" lon="13.5465756"><ele>402.0</ele><time>2026-05-02T10:12:23.857Z</time></trkpt><trkpt lat="46.1509609" lon="13.5464487"><ele>402.0</ele><time>2026-05-02T10:12:25.86Z</time></trkpt><trkpt lat="46.1508827" lon="13.5464952"><ele>402.0</ele><time>2026-05-02T10:13:08.857Z</time></trkpt><trkpt lat="46.15062" lon="13.5465575"><ele>402.0</ele><time>2026-05-02T10:13:36.85Z</time></trkpt><trkpt lat="46.1505174" lon="13.5465927"><ele>400.8333333333333</ele><time>2026-05-02T10:13:37.858Z</time></trkpt><trkpt lat="46.1504222" lon="13.5466306"><ele>399.66666666666663</ele><time>2026-05-02T10:13:38.86Z</time></trkpt><trkpt lat="46.1503357" lon="13.54666"><ele>398.5</ele><time>2026-05-02T10:13:39.858Z</time></trkpt><trkpt lat="46.1502618" lon="13.5466677"><ele>397.3333333333333</ele><time>2026-05-02T10:13:40.86Z</time></trkpt><trkpt lat="46.150192" lon="13.546665"><ele>396.16666666666663</ele><time>2026-05-02T10:13:41.855Z</time></trkpt><trkpt lat="46.1501069" lon="13.5466337"><ele>395.0</ele><time>2026-05-02T10:13:43.856Z</time></trkpt><trkpt lat="46.1501053" lon="13.5465066"><ele>395.0</ele><time>2026-05-02T10:13:45.86Z</time></trkpt><trkpt lat="46.1501138" lon="13.5464054"><ele>395.0</ele><time>2026-05-02T10:13:46.87Z</time></trkpt><trkpt lat="46.1501086" lon="13.5462634"><ele>395.0</ele><time>2026-05-02T10:13:47.857Z</time></trkpt><trkpt lat="46.1500936" lon="13.5461269"><ele>395.0</ele><time>2026-05-02T10:13:48.856Z</time></trkpt><trkpt lat="46.1500942" lon="13.5459893"><ele>395.0</ele><time>2026-05-02T10:13:49.859Z</time></trkpt><trkpt lat="46.1500257" lon="13.545873"><ele>401.0</ele><time>2026-05-02T10:13:51.857Z</time></trkpt><trkpt lat="46.1499423" lon="13.5458612"><ele>407.0</ele><time>2026-05-02T10:13:53.857Z</time></trkpt><trkpt lat="46.1498552" lon="13.545996"><ele>413.0</ele><time>2026-05-02T10:13:55.859Z</time></trkpt><trkpt lat="46.1497391" lon="13.5461871"><ele>419.0</ele><time>2026-05-02T10:13:57.857Z</time></trkpt><trkpt lat="46.1496798" lon="13.546285"><ele>419.79999999999995</ele><time>2026-05-02T10:13:58.875Z</time></trkpt><trkpt lat="46.149627" lon="13.546388"><ele>420.59999999999997</ele><time>2026-05-02T10:13:59.863Z</time></trkpt><trkpt lat="46.1495332" lon="13.5464907"><ele>421.4</ele><time>2026-05-02T10:14:01.859Z</time></trkpt><trkpt lat="46.1494632" lon="13.5466178"><ele>422.2</ele><time>2026-05-02T10:14:03.86Z</time></trkpt><trkpt lat="46.1494372" lon="13.5467149"><ele>423.0</ele><time>2026-05-02T10:14:04.865Z</time></trkpt><trkpt lat="46.1494021" lon="13.5468208"><ele>423.0</ele><time>2026-05-02T10:14:05.858Z</time></trkpt><trkpt lat="46.1493879" lon="13.5469367"><ele>423.0</ele><time>2026-05-02T10:14:06.857Z</time></trkpt><trkpt lat="46.1493535" lon="13.5470531"><ele>423.0</ele><time>2026-05-02T10:14:07.86Z</time></trkpt><trkpt lat="46.1493039" lon="13.5471851"><ele>423.0</ele><time>2026-05-02T10:14:08.867Z</time></trkpt><trkpt lat="46.1492429" lon="13.5473231"><ele>423.0</ele><time>2026-05-02T10:14:09.861Z</time></trkpt><trkpt lat="46.1491678" lon="13.5474559"><ele>420.59999999999997</ele><time>2026-05-02T10:14:10.856Z</time></trkpt><trkpt lat="46.1490926" lon="13.5475798"><ele>418.2</ele><time>2026-05-02T10:14:11.872Z</time></trkpt><trkpt lat="46.1490146" lon="13.5476926"><ele>415.8</ele><time>2026-05-02T10:14:12.862Z</time></trkpt><trkpt lat="46.1489266" lon="13.5477862"><ele>413.4</ele><time>2026-05-02T10:14:13.857Z</time></trkpt><trkpt lat="46.1488435" lon="13.5478421"><ele>411.0</ele><time>2026-05-02T10:14:14.86Z</time></trkpt><trkpt lat="46.1487524" lon="13.5478808"><ele>411.0</ele><time>2026-05-02T10:14:15.853Z</time></trkpt><trkpt lat="46.1486402" lon="13.54787"><ele>411.0</ele><time>2026-05-02T10:14:16.859Z</time></trkpt><trkpt lat="46.148426" lon="13.547747"><ele>411.0</ele><time>2026-05-02T10:14:18.856Z</time></trkpt><trkpt lat="46.1483466" lon="13.5476882"><ele>411.0</ele><time>2026-05-02T10:14:19.863Z</time></trkpt><trkpt lat="46.1482759" lon="13.5476458"><ele>407.8333333333333</ele><time>2026-05-02T10:14:20.857Z</time></trkpt><trkpt lat="46.1481896" lon="13.5476328"><ele>404.66666666666663</ele><time>2026-05-02T10:14:21.855Z</time></trkpt><trkpt lat="46.148095" lon="13.5476651"><ele>401.5</ele><time>2026-05-02T10:14:22.86Z</time></trkpt><trkpt lat="46.1480166" lon="13.5476903"><ele>398.3333333333333</ele><time>2026-05-02T10:14:23.86Z</time></trkpt><trkpt lat="46.1479355" lon="13.5477129"><ele>395.16666666666663</ele><time>2026-05-02T10:14:24.858Z</time></trkpt><trkpt lat="46.1478357" lon="13.5477203"><ele>392.0</ele><time>2026-05-02T10:14:25.864Z</time></trkpt><trkpt lat="46.1477361" lon="13.5477189"><ele>391.99999999999994</ele><time>2026-05-02T10:14:26.86Z</time></trkpt><trkpt lat="46.1476361" lon="13.5477187"><ele>392.0</ele><time>2026-05-02T10:14:27.856Z</time></trkpt><trkpt lat="46.1475433" lon="13.547714"><ele>392.0</ele><time>2026-05-02T10:14:28.855Z</time></trkpt><trkpt lat="46.1474661" lon="13.5476934"><ele>392.0</ele><time>2026-05-02T10:14:29.856Z</time></trkpt><trkpt lat="46.1474059" lon="13.5476337"><ele>391.99999999999994</ele><time>2026-05-02T10:14:30.862Z</time></trkpt><trkpt lat="46.1473425" lon="13.5475259"><ele>392.0</ele><time>2026-05-02T10:14:31.859Z</time></trkpt><trkpt lat="46.1472954" lon="13.5474279"><ele>386.99999999999994</ele><time>2026-05-02T10:14:32.859Z</time></trkpt><trkpt lat="46.147244" lon="13.5473487"><ele>382.0</ele><time>2026-05-02T10:14:33.856Z</time></trkpt><trkpt lat="46.1471776" lon="13.5472925"><ele>377.0</ele><time>2026-05-02T10:14:34.862Z</time></trkpt><trkpt lat="46.1471043" lon="13.5472302"><ele>372.0</ele><time>2026-05-02T10:14:35.856Z</time></trkpt><trkpt lat="46.1470357" lon="13.5471805"><ele>367.0</ele><time>2026-05-02T10:14:36.864Z</time></trkpt><trkpt lat="46.146983" lon="13.547125"><ele>362.0</ele><time>2026-05-02T10:14:37.862Z</time></trkpt><trkpt lat="46.1469177" lon="13.5468857"><ele>360.40000000000003</ele><time>2026-05-02T10:14:40.859Z</time></trkpt><trkpt lat="46.1469234" lon="13.5467682"><ele>358.8</ele><time>2026-05-02T10:14:41.864Z</time></trkpt><trkpt lat="46.1469437" lon="13.5466369"><ele>357.2</ele><time>2026-05-02T10:14:42.863Z</time></trkpt><trkpt lat="46.146971" lon="13.5464898"><ele>355.6</ele><time>2026-05-02T10:14:43.859Z</time></trkpt><trkpt lat="46.1469929" lon="13.5463441"><ele>354.0</ele><time>2026-05-02T10:14:44.86Z</time></trkpt><trkpt lat="46.1469943" lon="13.5462258"><ele>354.0</ele><time>2026-05-02T10:14:45.857Z</time></trkpt><trkpt lat="46.1469814" lon="13.5461173"><ele>354.0</ele><time>2026-05-02T10:14:46.866Z</time></trkpt><trkpt lat="46.1469352" lon="13.546029"><ele>354.0</ele><time>2026-05-02T10:14:47.854Z</time></trkpt><trkpt lat="46.1468691" lon="13.5459629"><ele>354.0</ele><time>2026-05-02T10:14:48.863Z</time></trkpt><trkpt lat="46.1467911" lon="13.5458987"><ele>354.0</ele><time>2026-05-02T10:14:49.86Z</time></trkpt><trkpt lat="46.146701" lon="13.5458257"><ele>354.0</ele><time>2026-05-02T10:14:50.864Z</time></trkpt><trkpt lat="46.1466066" lon="13.5457499"><ele>354.0</ele><time>2026-05-02T10:14:51.864Z</time></trkpt><trkpt lat="46.1465187" lon="13.545664"><ele>354.0</ele><time>2026-05-02T10:14:52.854Z</time></trkpt><trkpt lat="46.1464459" lon="13.5455847"><ele>354.0</ele><time>2026-05-02T10:14:53.861Z</time></trkpt><trkpt lat="46.1463877" lon="13.5455219"><ele>354.0</ele><time>2026-05-02T10:14:54.857Z</time></trkpt><trkpt lat="46.1463501" lon="13.5454487"><ele>354.0</ele><time>2026-05-02T10:14:55.854Z</time></trkpt><trkpt lat="46.1463182" lon="13.5453585"><ele>354.0</ele><time>2026-05-02T10:14:56.857Z</time></trkpt><trkpt lat="46.1463068" lon="13.5452241"><ele>354.0</ele><time>2026-05-02T10:14:57.857Z</time></trkpt><trkpt lat="46.1462862" lon="13.5450935"><ele>354.0</ele><time>2026-05-02T10:14:58.854Z</time></trkpt><trkpt lat="46.14624" lon="13.5448613"><ele>354.0</ele><time>2026-05-02T10:15:00.872Z</time></trkpt><trkpt lat="46.1462096" lon="13.5447548"><ele>354.0</ele><time>2026-05-02T10:15:01.857Z</time></trkpt><trkpt lat="46.1461714" lon="13.5446469"><ele>354.0</ele><time>2026-05-02T10:15:02.854Z</time></trkpt><trkpt lat="46.1461253" lon="13.5445519"><ele>358.5</ele><time>2026-05-02T10:15:03.852Z</time></trkpt><trkpt lat="46.1460686" lon="13.5444776"><ele>363.0</ele><time>2026-05-02T10:15:04.861Z</time></trkpt><trkpt lat="46.1460265" lon="13.5443836"><ele>367.5</ele><time>2026-05-02T10:15:05.864Z</time></trkpt><trkpt lat="46.1459896" lon="13.5442782"><ele>372.0</ele><time>2026-05-02T10:15:06.864Z</time></trkpt><trkpt lat="46.1459432" lon="13.5441758"><ele>376.5</ele><time>2026-05-02T10:15:07.867Z</time></trkpt><trkpt lat="46.1458836" lon="13.5440777"><ele>381.0</ele><time>2026-05-02T10:15:08.856Z</time></trkpt><trkpt lat="46.1458235" lon="13.5439605"><ele>381.0</ele><time>2026-05-02T10:15:09.857Z</time></trkpt><trkpt lat="46.1457522" lon="13.5438285"><ele>381.0</ele><time>2026-05-02T10:15:10.868Z</time></trkpt><trkpt lat="46.1456818" lon="13.5436841"><ele>381.0</ele><time>2026-05-02T10:15:11.855Z</time></trkpt><trkpt lat="46.1456133" lon="13.5435374"><ele>381.0</ele><time>2026-05-02T10:15:12.861Z</time></trkpt><trkpt lat="46.1455483" lon="13.5434057"><ele>372.8333333333333</ele><time>2026-05-02T10:15:13.858Z</time></trkpt><trkpt lat="46.1454998" lon="13.5433085"><ele>364.6666666666667</ele><time>2026-05-02T10:15:14.862Z</time></trkpt><trkpt lat="46.1454718" lon="13.5431618"><ele>356.5</ele><time>2026-05-02T10:15:16.865Z</time></trkpt><trkpt lat="46.145479" lon="13.5430459"><ele>348.33333333333337</ele><time>2026-05-02T10:15:17.854Z</time></trkpt><trkpt lat="46.145489" lon="13.5429369"><ele>340.1666666666667</ele><time>2026-05-02T10:15:18.863Z</time></trkpt><trkpt lat="46.1455085" lon="13.5428296"><ele>332.0</ele><time>2026-05-02T10:15:19.854Z</time></trkpt><trkpt lat="46.1455778" lon="13.542616"><ele>331.8</ele><time>2026-05-02T10:15:21.853Z</time></trkpt><trkpt lat="46.1456273" lon="13.5425085"><ele>331.6</ele><time>2026-05-02T10:15:22.866Z</time></trkpt><trkpt lat="46.145695" lon="13.5424284"><ele>331.40000000000003</ele><time>2026-05-02T10:15:23.856Z</time></trkpt><trkpt lat="46.1457522" lon="13.5422995"><ele>331.20000000000005</ele><time>2026-05-02T10:15:25.86Z</time></trkpt><trkpt lat="46.1456874" lon="13.542155"><ele>331.0</ele><time>2026-05-02T10:15:27.857Z</time></trkpt><trkpt lat="46.1456422" lon="13.5420093"><ele>332.3333333333333</ele><time>2026-05-02T10:15:29.864Z</time></trkpt><trkpt lat="46.1456278" lon="13.5419178"><ele>333.66666666666663</ele><time>2026-05-02T10:15:30.858Z</time></trkpt><trkpt lat="46.1456249" lon="13.5418115"><ele>335.0</ele><time>2026-05-02T10:15:31.866Z</time></trkpt><trkpt lat="46.1456237" lon="13.5417048"><ele>336.3333333333333</ele><time>2026-05-02T10:15:32.858Z</time></trkpt><trkpt lat="46.1455998" lon="13.5415894"><ele>337.6666666666667</ele><time>2026-05-02T10:15:33.856Z</time></trkpt><trkpt lat="46.1455436" lon="13.5414681"><ele>339.0</ele><time>2026-05-02T10:15:34.86Z</time></trkpt><trkpt lat="46.1454985" lon="13.5413556"><ele>339.0</ele><time>2026-05-02T10:15:35.855Z</time></trkpt><trkpt lat="46.1454598" lon="13.5412498"><ele>339.0</ele><time>2026-05-02T10:15:36.863Z</time></trkpt><trkpt lat="46.145414" lon="13.5411755"><ele>339.0</ele><time>2026-05-02T10:15:56.856Z</time></trkpt><trkpt lat="46.145282" lon="13.5409325"><ele>339.0</ele><time>2026-05-02T10:16:46.847Z</time></trkpt><trkpt lat="46.1452309" lon="13.5408309"><ele>339.0</ele><time>2026-05-02T10:16:48.853Z</time></trkpt><trkpt lat="46.1450982" lon="13.5405564"><ele>339.0</ele><time>2026-05-02T10:16:52.865Z</time></trkpt><trkpt lat="46.1450758" lon="13.5404304"><ele>339.0</ele><time>2026-05-02T10:16:53.854Z</time></trkpt><trkpt lat="46.1450355" lon="13.5402873"><ele>339.0</ele><time>2026-05-02T10:16:54.862Z</time></trkpt><trkpt lat="46.1450033" lon="13.5401708"><ele>339.0</ele><time>2026-05-02T10:16:55.855Z</time></trkpt><trkpt lat="46.1449862" lon="13.540042"><ele>339.0</ele><time>2026-05-02T10:16:56.854Z</time></trkpt><trkpt lat="46.1449679" lon="13.5399118"><ele>339.0</ele><time>2026-05-02T10:16:57.852Z</time></trkpt><trkpt lat="46.144944" lon="13.5397894"><ele>339.0</ele><time>2026-05-02T10:16:58.861Z</time></trkpt><trkpt lat="46.144918" lon="13.5396545"><ele>339.0</ele><time>2026-05-02T10:16:59.853Z</time></trkpt><trkpt lat="46.1448856" lon="13.5395267"><ele>339.0</ele><time>2026-05-02T10:17:00.852Z</time></trkpt><trkpt lat="46.1448504" lon="13.539405"><ele>339.0</ele><time>2026-05-02T10:17:01.858Z</time></trkpt><trkpt lat="46.1448096" lon="13.5392862"><ele>339.0</ele><time>2026-05-02T10:17:02.856Z</time></trkpt><trkpt lat="46.1447576" lon="13.5391749"><ele>339.0</ele><time>2026-05-02T10:17:03.855Z</time></trkpt><trkpt lat="46.1447257" lon="13.5390371"><ele>339.0</ele><time>2026-05-02T10:17:04.856Z</time></trkpt><trkpt lat="46.1446823" lon="13.538915"><ele>339.0</ele><time>2026-05-02T10:17:05.861Z</time></trkpt><trkpt lat="46.1446382" lon="13.5387921"><ele>339.0</ele><time>2026-05-02T10:17:06.856Z</time></trkpt><trkpt lat="46.1445838" lon="13.5386826"><ele>339.0</ele><time>2026-05-02T10:17:07.854Z</time></trkpt><trkpt lat="46.1445231" lon="13.5385739"><ele>339.0</ele><time>2026-05-02T10:17:08.853Z</time></trkpt><trkpt lat="46.1444633" lon="13.5384594"><ele>339.0</ele><time>2026-05-02T10:17:09.859Z</time></trkpt><trkpt lat="46.1442746" lon="13.5383209"><ele>348.25</ele><time>2026-05-02T10:17:11.856Z</time></trkpt><trkpt lat="46.1441566" lon="13.5382727"><ele>357.5</ele><time>2026-05-02T10:17:12.861Z</time></trkpt><trkpt lat="46.1440304" lon="13.5382291"><ele>366.75</ele><time>2026-05-02T10:17:13.861Z</time></trkpt><trkpt lat="46.1439033" lon="13.5381828"><ele>376.0</ele><time>2026-05-02T10:17:14.862Z</time></trkpt><trkpt lat="46.1437774" lon="13.5381422"><ele>376.0</ele><time>2026-05-02T10:17:15.864Z</time></trkpt><trkpt lat="46.1436548" lon="13.5380752"><ele>376.0</ele><time>2026-05-02T10:17:16.865Z</time></trkpt><trkpt lat="46.1435404" lon="13.5380234"><ele>376.0</ele><time>2026-05-02T10:17:17.856Z</time></trkpt><trkpt lat="46.143425" lon="13.5379751"><ele>376.0</ele><time>2026-05-02T10:17:18.857Z</time></trkpt><trkpt lat="46.1433145" lon="13.5379301"><ele>376.0</ele><time>2026-05-02T10:17:19.855Z</time></trkpt><trkpt lat="46.1432175" lon="13.5378908"><ele>376.0</ele><time>2026-05-02T10:17:20.859Z</time></trkpt><trkpt lat="46.1431293" lon="13.537847"><ele>376.0</ele><time>2026-05-02T10:17:21.848Z</time></trkpt><trkpt lat="46.1430556" lon="13.5377938"><ele>376.0</ele><time>2026-05-02T10:17:22.868Z</time></trkpt><trkpt lat="46.1430148" lon="13.5377239"><ele>376.0</ele><time>2026-05-02T10:17:23.861Z</time></trkpt><trkpt lat="46.1429992" lon="13.5376246"><ele>376.0</ele><time>2026-05-02T10:17:24.85Z</time></trkpt><trkpt lat="46.143007" lon="13.5375119"><ele>376.0</ele><time>2026-05-02T10:17:25.853Z</time></trkpt><trkpt lat="46.1430126" lon="13.5374138"><ele>376.0</ele><time>2026-05-02T10:17:26.851Z</time></trkpt><trkpt lat="46.1430505" lon="13.5373105"><ele>376.0</ele><time>2026-05-02T10:17:28.855Z</time></trkpt><trkpt lat="46.1431277" lon="13.5373478"><ele>376.0</ele><time>2026-05-02T10:17:30.854Z</time></trkpt><trkpt lat="46.1432172" lon="13.5375099"><ele>376.0</ele><time>2026-05-02T10:17:32.857Z</time></trkpt><trkpt lat="46.1432614" lon="13.5375969"><ele>376.0</ele><time>2026-05-02T10:17:33.853Z</time></trkpt><trkpt lat="46.1433504" lon="13.5376539"><ele>385.20000000000005</ele><time>2026-05-02T10:17:35.856Z</time></trkpt><trkpt lat="46.1433376" lon="13.5374995"><ele>394.40000000000003</ele><time>2026-05-02T10:17:37.856Z</time></trkpt><trkpt lat="46.1433153" lon="13.5373295"><ele>403.6</ele><time>2026-05-02T10:17:38.867Z</time></trkpt><trkpt lat="46.1432924" lon="13.5371599"><ele>412.8</ele><time>2026-05-02T10:17:39.868Z</time></trkpt><trkpt lat="46.1432512" lon="13.5370258"><ele>422.0</ele><time>2026-05-02T10:17:40.853Z</time></trkpt><trkpt lat="46.1431865" lon="13.5369148"><ele>422.0</ele><time>2026-05-02T10:17:41.854Z</time></trkpt><trkpt lat="46.143108" lon="13.5368064"><ele>422.0</ele><time>2026-05-02T10:17:42.849Z</time></trkpt><trkpt lat="46.1429977" lon="13.5367025"><ele>422.0</ele><time>2026-05-02T10:17:43.86Z</time></trkpt><trkpt lat="46.1428784" lon="13.5365945"><ele>422.0</ele><time>2026-05-02T10:17:44.853Z</time></trkpt><trkpt lat="46.1427523" lon="13.5365076"><ele>422.0</ele><time>2026-05-02T10:17:45.861Z</time></trkpt><trkpt lat="46.1426466" lon="13.5364322"><ele>422.0</ele><time>2026-05-02T10:17:46.867Z</time></trkpt><trkpt lat="46.1425502" lon="13.5363603"><ele>422.0</ele><time>2026-05-02T10:17:47.863Z</time></trkpt><trkpt lat="46.1424525" lon="13.5362892"><ele>422.0</ele><time>2026-05-02T10:17:48.854Z</time></trkpt><trkpt lat="46.1423625" lon="13.5361763"><ele>420.0</ele><time>2026-05-02T10:17:49.854Z</time></trkpt><trkpt lat="46.1422949" lon="13.5360296"><ele>418.0</ele><time>2026-05-02T10:17:50.859Z</time></trkpt><trkpt lat="46.1422389" lon="13.5358834"><ele>416.0</ele><time>2026-05-02T10:17:51.855Z</time></trkpt><trkpt lat="46.1421445" lon="13.5355887"><ele>416.0</ele><time>2026-05-02T10:17:53.86Z</time></trkpt><trkpt lat="46.1421195" lon="13.5354257"><ele>416.0</ele><time>2026-05-02T10:17:54.854Z</time></trkpt><trkpt lat="46.1421126" lon="13.5352622"><ele>416.0</ele><time>2026-05-02T10:17:55.856Z</time></trkpt><trkpt lat="46.1421046" lon="13.5350975"><ele>416.0</ele><time>2026-05-02T10:17:56.854Z</time></trkpt><trkpt lat="46.1420973" lon="13.5349336"><ele>418.75</ele><time>2026-05-02T10:17:57.855Z</time></trkpt><trkpt lat="46.1420984" lon="13.5347663"><ele>421.5</ele><time>2026-05-02T10:17:58.855Z</time></trkpt><trkpt lat="46.1421041" lon="13.5345985"><ele>424.25</ele><time>2026-05-02T10:17:59.868Z</time></trkpt><trkpt lat="46.1421066" lon="13.5344296"><ele>427.0</ele><time>2026-05-02T10:18:00.847Z</time></trkpt><trkpt lat="46.1420915" lon="13.5342804"><ele>429.33333333333337</ele><time>2026-05-02T10:18:01.856Z</time></trkpt><trkpt lat="46.1420586" lon="13.5341407"><ele>431.6666666666667</ele><time>2026-05-02T10:18:02.859Z</time></trkpt><trkpt lat="46.1420096" lon="13.5340427"><ele>434.0</ele><time>2026-05-02T10:18:03.859Z</time></trkpt><trkpt lat="46.1419464" lon="13.5339604"><ele>436.33333333333337</ele><time>2026-05-02T10:18:04.859Z</time></trkpt><trkpt lat="46.1418742" lon="13.5339083"><ele>438.6666666666667</ele><time>2026-05-02T10:18:05.857Z</time></trkpt><trkpt lat="46.1418053" lon="13.5338659"><ele>441.0</ele><time>2026-05-02T10:18:06.857Z</time></trkpt><trkpt lat="46.1417387" lon="13.5338241"><ele>441.0</ele><time>2026-05-02T10:18:07.86Z</time></trkpt><trkpt lat="46.1416705" lon="13.5337832"><ele>441.0</ele><time>2026-05-02T10:18:08.863Z</time></trkpt><trkpt lat="46.1416038" lon="13.533736"><ele>441.0</ele><time>2026-05-02T10:18:09.854Z</time></trkpt><trkpt lat="46.141545" lon="13.5336766"><ele>441.0</ele><time>2026-05-02T10:18:10.863Z</time></trkpt><trkpt lat="46.1414801" lon="13.5336139"><ele>441.0</ele><time>2026-05-02T10:18:11.854Z</time></trkpt><trkpt lat="46.1414208" lon="13.5335387"><ele>441.0</ele><time>2026-05-02T10:18:12.858Z</time></trkpt><trkpt lat="46.1413251" lon="13.5333757"><ele>441.0</ele><time>2026-05-02T10:18:14.849Z</time></trkpt><trkpt lat="46.1412881" lon="13.5332912"><ele>441.0</ele><time>2026-05-02T10:18:15.865Z</time></trkpt><trkpt lat="46.1412525" lon="13.5331936"><ele>441.0</ele><time>2026-05-02T10:18:16.86Z</time></trkpt><trkpt lat="46.1412046" lon="13.5331018"><ele>441.0</ele><time>2026-05-02T10:18:17.857Z</time></trkpt><trkpt lat="46.1411596" lon="13.5330183"><ele>441.0</ele><time>2026-05-02T10:18:18.852Z</time></trkpt><trkpt lat="46.1411005" lon="13.5329444"><ele>441.0</ele><time>2026-05-02T10:18:19.852Z</time></trkpt><trkpt lat="46.1410361" lon="13.532871"><ele>441.0</ele><time>2026-05-02T10:18:20.854Z</time></trkpt><trkpt lat="46.1409744" lon="13.5327977"><ele>441.0</ele><time>2026-05-02T10:18:21.851Z</time></trkpt><trkpt lat="46.1409144" lon="13.5327311"><ele>441.0</ele><time>2026-05-02T10:18:22.852Z</time></trkpt><trkpt lat="46.1408589" lon="13.5326609"><ele>441.0</ele><time>2026-05-02T10:18:23.861Z</time></trkpt><trkpt lat="46.1408136" lon="13.5325856"><ele>441.0</ele><time>2026-05-02T10:18:24.856Z</time></trkpt><trkpt lat="46.1407733" lon="13.5324858"><ele>441.0</ele><time>2026-05-02T10:18:25.859Z</time></trkpt><trkpt lat="46.1407231" lon="13.5323752"><ele>441.0</ele><time>2026-05-02T10:18:26.864Z</time></trkpt><trkpt lat="46.1406741" lon="13.532254"><ele>441.0</ele><time>2026-05-02T10:18:27.852Z</time></trkpt><trkpt lat="46.1406232" lon="13.5321237"><ele>441.0</ele><time>2026-05-02T10:18:28.854Z</time></trkpt><trkpt lat="46.1405826" lon="13.5319938"><ele>441.0</ele><time>2026-05-02T10:18:29.86Z</time></trkpt><trkpt lat="46.1405417" lon="13.5318567"><ele>441.0</ele><time>2026-05-02T10:18:30.856Z</time></trkpt><trkpt lat="46.1405246" lon="13.5317209"><ele>441.0</ele><time>2026-05-02T10:18:31.85Z</time></trkpt><trkpt lat="46.1405057" lon="13.531607"><ele>441.0</ele><time>2026-05-02T10:18:32.87Z</time></trkpt><trkpt lat="46.1404895" lon="13.5315126"><ele>441.0</ele><time>2026-05-02T10:18:33.853Z</time></trkpt><trkpt lat="46.1403816" lon="13.5313023"><ele>441.0</ele><time>2026-05-02T10:18:36.863Z</time></trkpt><trkpt lat="46.1403207" lon="13.5312445"><ele>441.0</ele><time>2026-05-02T10:18:37.862Z</time></trkpt><trkpt lat="46.1402588" lon="13.5311854"><ele>441.0</ele><time>2026-05-02T10:18:38.855Z</time></trkpt><trkpt lat="46.1401974" lon="13.5311253"><ele>441.0</ele><time>2026-05-02T10:18:39.856Z</time></trkpt><trkpt lat="46.1401364" lon="13.5310609"><ele>441.0</ele><time>2026-05-02T10:18:40.856Z</time></trkpt><trkpt lat="46.1400748" lon="13.5309851"><ele>441.0</ele><time>2026-05-02T10:18:41.853Z</time></trkpt><trkpt lat="46.1400192" lon="13.5309011"><ele>441.0</ele><time>2026-05-02T10:18:42.855Z</time></trkpt><trkpt lat="46.1399684" lon="13.5308151"><ele>441.0</ele><time>2026-05-02T10:18:43.853Z</time></trkpt><trkpt lat="46.1399131" lon="13.530719"><ele>438.8333333333333</ele><time>2026-05-02T10:18:44.855Z</time></trkpt><trkpt lat="46.1398558" lon="13.5306134"><ele>436.66666666666663</ele><time>2026-05-02T10:18:45.858Z</time></trkpt><trkpt lat="46.1398181" lon="13.5304937"><ele>434.5</ele><time>2026-05-02T10:18:46.852Z</time></trkpt><trkpt lat="46.1397955" lon="13.5303774"><ele>432.3333333333333</ele><time>2026-05-02T10:18:47.86Z</time></trkpt><trkpt lat="46.139779" lon="13.5302666"><ele>430.16666666666663</ele><time>2026-05-02T10:18:48.858Z</time></trkpt><trkpt lat="46.1397477" lon="13.5301732"><ele>428.0</ele><time>2026-05-02T10:18:49.854Z</time></trkpt><trkpt lat="46.1397199" lon="13.5300799"><ele>437.4</ele><time>2026-05-02T10:18:50.863Z</time></trkpt><trkpt lat="46.1396818" lon="13.529994"><ele>446.79999999999995</ele><time>2026-05-02T10:18:51.86Z</time></trkpt><trkpt lat="46.1396061" lon="13.529909"><ele>456.2</ele><time>2026-05-02T10:18:53.865Z</time></trkpt><trkpt lat="46.1395317" lon="13.5299182"><ele>465.6</ele><time>2026-05-02T10:18:54.854Z</time></trkpt><trkpt lat="46.1393522" lon="13.5299438"><ele>475.0</ele><time>2026-05-02T10:18:56.868Z</time></trkpt><trkpt lat="46.1392588" lon="13.5299518"><ele>475.0</ele><time>2026-05-02T10:18:57.855Z</time></trkpt><trkpt lat="46.1391761" lon="13.5299418"><ele>475.0</ele><time>2026-05-02T10:18:58.864Z</time></trkpt><trkpt lat="46.1391029" lon="13.5299328"><ele>475.0</ele><time>2026-05-02T10:18:59.854Z</time></trkpt><trkpt lat="46.1389669" lon="13.5299416"><ele>475.0</ele><time>2026-05-02T10:19:01.852Z</time></trkpt><trkpt lat="46.138885" lon="13.5299739"><ele>475.0</ele><time>2026-05-02T10:19:02.86Z</time></trkpt><trkpt lat="46.138809" lon="13.5299957"><ele>476.4</ele><time>2026-05-02T10:19:03.852Z</time></trkpt><trkpt lat="46.1387209" lon="13.5300239"><ele>477.8</ele><time>2026-05-02T10:19:04.856Z</time></trkpt><trkpt lat="46.1386249" lon="13.5300616"><ele>479.20000000000005</ele><time>2026-05-02T10:19:05.856Z</time></trkpt><trkpt lat="46.1385313" lon="13.5301117"><ele>480.6</ele><time>2026-05-02T10:19:06.849Z</time></trkpt><trkpt lat="46.1384341" lon="13.5301584"><ele>482.0</ele><time>2026-05-02T10:19:07.868Z</time></trkpt><trkpt lat="46.1383347" lon="13.5301877"><ele>482.0</ele><time>2026-05-02T10:19:08.853Z</time></trkpt><trkpt lat="46.1382313" lon="13.5302173"><ele>482.00000000000006</ele><time>2026-05-02T10:19:09.852Z</time></trkpt><trkpt lat="46.1381223" lon="13.5302442"><ele>482.00000000000006</ele><time>2026-05-02T10:19:10.856Z</time></trkpt><trkpt lat="46.1380117" lon="13.5302822"><ele>482.0</ele><time>2026-05-02T10:19:11.859Z</time></trkpt><trkpt lat="46.1379104" lon="13.5303251"><ele>482.0</ele><time>2026-05-02T10:19:12.86Z</time></trkpt><trkpt lat="46.1378109" lon="13.5303712"><ele>485.25</ele><time>2026-05-02T10:19:13.857Z</time></trkpt><trkpt lat="46.1377202" lon="13.5304082"><ele>488.5</ele><time>2026-05-02T10:19:14.856Z</time></trkpt><trkpt lat="46.1376426" lon="13.5304162"><ele>491.75</ele><time>2026-05-02T10:19:15.859Z</time></trkpt><trkpt lat="46.137466" lon="13.530378"><ele>495.0</ele><time>2026-05-02T10:19:17.862Z</time></trkpt><trkpt lat="46.1373615" lon="13.5303198"><ele>495.0</ele><time>2026-05-02T10:19:18.857Z</time></trkpt><trkpt lat="46.1372478" lon="13.5302605"><ele>495.0</ele><time>2026-05-02T10:19:19.86Z</time></trkpt><trkpt lat="46.1371497" lon="13.5301867"><ele>495.0</ele><time>2026-05-02T10:19:20.868Z</time></trkpt><trkpt lat="46.1370541" lon="13.53013"><ele>495.0</ele><time>2026-05-02T10:19:21.853Z</time></trkpt><trkpt lat="46.1369611" lon="13.530083"><ele>495.0</ele><time>2026-05-02T10:19:22.862Z</time></trkpt><trkpt lat="46.1368683" lon="13.5300701"><ele>495.0</ele><time>2026-05-02T10:19:23.857Z</time></trkpt><trkpt lat="46.1367783" lon="13.5300503"><ele>495.0</ele><time>2026-05-02T10:19:24.851Z</time></trkpt><trkpt lat="46.1366849" lon="13.5300181"><ele>495.0</ele><time>2026-05-02T10:19:25.857Z</time></trkpt><trkpt lat="46.136591" lon="13.5299791"><ele>495.0</ele><time>2026-05-02T10:19:26.868Z</time></trkpt><trkpt lat="46.1365004" lon="13.5299296"><ele>495.0</ele><time>2026-05-02T10:19:27.851Z</time></trkpt><trkpt lat="46.1364257" lon="13.5298671"><ele>495.0</ele><time>2026-05-02T10:19:28.85Z</time></trkpt><trkpt lat="46.1363628" lon="13.5297951"><ele>495.0</ele><time>2026-05-02T10:19:29.85Z</time></trkpt><trkpt lat="46.1362982" lon="13.5297141"><ele>495.0</ele><time>2026-05-02T10:19:30.866Z</time></trkpt><trkpt lat="46.1362484" lon="13.5296277"><ele>495.0</ele><time>2026-05-02T10:19:31.859Z</time></trkpt><trkpt lat="46.1362004" lon="13.5295374"><ele>495.0</ele><time>2026-05-02T10:19:32.855Z</time></trkpt><trkpt lat="46.1361411" lon="13.5294539"><ele>495.0</ele><time>2026-05-02T10:19:33.852Z</time></trkpt><trkpt lat="46.136081" lon="13.5293719"><ele>488.8333333333333</ele><time>2026-05-02T10:19:34.854Z</time></trkpt><trkpt lat="46.1360353" lon="13.5292864"><ele>482.66666666666663</ele><time>2026-05-02T10:19:35.855Z</time></trkpt><trkpt lat="46.1360113" lon="13.5291865"><ele>476.5</ele><time>2026-05-02T10:19:36.86Z</time></trkpt><trkpt lat="46.136017" lon="13.5289613"><ele>470.3333333333333</ele><time>2026-05-02T10:19:38.854Z</time></trkpt><trkpt lat="46.1360124" lon="13.5288695"><ele>464.16666666666663</ele><time>2026-05-02T10:19:39.851Z</time></trkpt><trkpt lat="46.1360009" lon="13.5287773"><ele>458.0</ele><time>2026-05-02T10:19:40.857Z</time></trkpt><trkpt lat="46.135964" lon="13.528675"><ele>457.99999999999994</ele><time>2026-05-02T10:19:41.858Z</time></trkpt><trkpt lat="46.1359165" lon="13.5285604"><ele>458.0</ele><time>2026-05-02T10:19:42.863Z</time></trkpt><trkpt lat="46.135875" lon="13.5284486"><ele>458.0</ele><time>2026-05-02T10:19:43.86Z</time></trkpt><trkpt lat="46.1358253" lon="13.5283388"><ele>458.0</ele><time>2026-05-02T10:19:44.863Z</time></trkpt><trkpt lat="46.1357829" lon="13.5282318"><ele>457.99999999999994</ele><time>2026-05-02T10:19:45.851Z</time></trkpt><trkpt lat="46.1357333" lon="13.5281281"><ele>458.0</ele><time>2026-05-02T10:19:46.855Z</time></trkpt><trkpt lat="46.1356722" lon="13.5280248"><ele>452.8333333333333</ele><time>2026-05-02T10:19:47.85Z</time></trkpt><trkpt lat="46.135609" lon="13.5279326"><ele>447.66666666666663</ele><time>2026-05-02T10:19:48.858Z</time></trkpt><trkpt lat="46.1355471" lon="13.5278492"><ele>442.5</ele><time>2026-05-02T10:19:49.85Z</time></trkpt><trkpt lat="46.1354911" lon="13.5277617"><ele>437.33333333333337</ele><time>2026-05-02T10:19:50.853Z</time></trkpt><trkpt lat="46.1354368" lon="13.5276789"><ele>432.1666666666667</ele><time>2026-05-02T10:19:51.853Z</time></trkpt><trkpt lat="46.1353665" lon="13.5275795"><ele>427.0</ele><time>2026-05-02T10:19:52.864Z</time></trkpt><trkpt lat="46.1352836" lon="13.5274706"><ele>427.0</ele><time>2026-05-02T10:19:53.856Z</time></trkpt><trkpt lat="46.1352166" lon="13.5273419"><ele>427.00000000000006</ele><time>2026-05-02T10:19:54.853Z</time></trkpt><trkpt lat="46.1351507" lon="13.5272221"><ele>427.00000000000006</ele><time>2026-05-02T10:19:55.85Z</time></trkpt><trkpt lat="46.1350931" lon="13.527126"><ele>427.0</ele><time>2026-05-02T10:19:56.864Z</time></trkpt><trkpt lat="46.1350381" lon="13.5270499"><ele>427.0</ele><time>2026-05-02T10:19:57.863Z</time></trkpt><trkpt lat="46.1349505" lon="13.5268898"><ele>428.00000000000006</ele><time>2026-05-02T10:19:59.852Z</time></trkpt><trkpt lat="46.1349139" lon="13.5268064"><ele>429.0</ele><time>2026-05-02T10:20:00.859Z</time></trkpt><trkpt lat="46.1348629" lon="13.5267221"><ele>430.0</ele><time>2026-05-02T10:20:01.864Z</time></trkpt><trkpt lat="46.1348075" lon="13.5266576"><ele>431.0</ele><time>2026-05-02T10:20:02.858Z</time></trkpt><trkpt lat="46.1347118" lon="13.5266087"><ele>432.00000000000006</ele><time>2026-05-02T10:20:04.849Z</time></trkpt><trkpt lat="46.1346145" lon="13.5267118"><ele>433.0</ele><time>2026-05-02T10:20:06.865Z</time></trkpt><trkpt lat="46.1345487" lon="13.5267798"><ele>433.0</ele><time>2026-05-02T10:20:07.863Z</time></trkpt><trkpt lat="46.1344742" lon="13.5268412"><ele>432.99999999999994</ele><time>2026-05-02T10:20:08.85Z</time></trkpt><trkpt lat="46.1343923" lon="13.5268973"><ele>432.99999999999994</ele><time>2026-05-02T10:20:09.853Z</time></trkpt><trkpt lat="46.1343047" lon="13.5269502"><ele>433.0</ele><time>2026-05-02T10:20:10.855Z</time></trkpt><trkpt lat="46.1342172" lon="13.5270087"><ele>433.0</ele><time>2026-05-02T10:20:11.862Z</time></trkpt><trkpt lat="46.1341403" lon="13.527063"><ele>431.59999999999997</ele><time>2026-05-02T10:20:12.858Z</time></trkpt><trkpt lat="46.1340718" lon="13.5271083"><ele>430.19999999999993</ele><time>2026-05-02T10:20:13.853Z</time></trkpt><trkpt lat="46.1340088" lon="13.5271487"><ele>428.8</ele><time>2026-05-02T10:20:14.854Z</time></trkpt><trkpt lat="46.1339024" lon="13.5271437"><ele>427.4</ele><time>2026-05-02T10:20:16.859Z</time></trkpt><trkpt lat="46.1337971" lon="13.527054"><ele>426.0</ele><time>2026-05-02T10:20:18.853Z</time></trkpt><trkpt lat="46.1336969" lon="13.5268528"><ele>426.0</ele><time>2026-05-02T10:20:20.859Z</time></trkpt><trkpt lat="46.1336285" lon="13.5267176"><ele>426.0</ele><time>2026-05-02T10:20:21.853Z</time></trkpt><trkpt lat="46.1335489" lon="13.526577"><ele>426.0</ele><time>2026-05-02T10:20:22.854Z</time></trkpt><trkpt lat="46.133473" lon="13.5264307"><ele>426.0</ele><time>2026-05-02T10:20:23.849Z</time></trkpt><trkpt lat="46.1334154" lon="13.5262879"><ele>425.5</ele><time>2026-05-02T10:20:24.856Z</time></trkpt><trkpt lat="46.1333529" lon="13.5261473"><ele>425.0</ele><time>2026-05-02T10:20:25.852Z</time></trkpt><trkpt lat="46.1332833" lon="13.5259985"><ele>424.5</ele><time>2026-05-02T10:20:26.851Z</time></trkpt><trkpt lat="46.1332102" lon="13.5258465"><ele>424.0</ele><time>2026-05-02T10:20:27.856Z</time></trkpt><trkpt lat="46.1331312" lon="13.5256961"><ele>420.79999999999995</ele><time>2026-05-02T10:20:28.854Z</time></trkpt><trkpt lat="46.1330522" lon="13.5255671"><ele>417.59999999999997</ele><time>2026-05-02T10:20:29.857Z</time></trkpt><trkpt lat="46.1329729" lon="13.5254468"><ele>414.4</ele><time>2026-05-02T10:20:30.852Z</time></trkpt><trkpt lat="46.1328955" lon="13.5253297"><ele>411.2</ele><time>2026-05-02T10:20:31.859Z</time></trkpt><trkpt lat="46.132829" lon="13.5252164"><ele>408.0</ele><time>2026-05-02T10:20:32.86Z</time></trkpt><trkpt lat="46.1327789" lon="13.5251162"><ele>408.0</ele><time>2026-05-02T10:20:33.859Z</time></trkpt><trkpt lat="46.1327523" lon="13.5250287"><ele>408.0</ele><time>2026-05-02T10:20:34.859Z</time></trkpt><trkpt lat="46.1327208" lon="13.5249326"><ele>408.0</ele><time>2026-05-02T10:20:35.864Z</time></trkpt><trkpt lat="46.1326986" lon="13.5248177"><ele>408.0</ele><time>2026-05-02T10:20:36.852Z</time></trkpt><trkpt lat="46.1326731" lon="13.5246885"><ele>408.0</ele><time>2026-05-02T10:20:37.851Z</time></trkpt><trkpt lat="46.1326461" lon="13.5245755"><ele>408.0</ele><time>2026-05-02T10:20:38.85Z</time></trkpt><trkpt lat="46.1326177" lon="13.5244675"><ele>409.8333333333333</ele><time>2026-05-02T10:20:39.854Z</time></trkpt><trkpt lat="46.1326084" lon="13.5242436"><ele>411.66666666666663</ele><time>2026-05-02T10:20:41.856Z</time></trkpt><trkpt lat="46.1326035" lon="13.5241355"><ele>413.5</ele><time>2026-05-02T10:20:42.862Z</time></trkpt><trkpt lat="46.1325956" lon="13.5240232"><ele>415.3333333333333</ele><time>2026-05-02T10:20:43.858Z</time></trkpt><trkpt lat="46.1326152" lon="13.523921"><ele>417.16666666666663</ele><time>2026-05-02T10:20:44.852Z</time></trkpt><trkpt lat="46.1326554" lon="13.5238465"><ele>419.0</ele><time>2026-05-02T10:20:45.865Z</time></trkpt><trkpt lat="46.1327056" lon="13.5237811"><ele>418.0</ele><time>2026-05-02T10:20:46.853Z</time></trkpt><trkpt lat="46.1327629" lon="13.5236807"><ele>417.0</ele><time>2026-05-02T10:20:48.851Z</time></trkpt><trkpt lat="46.1326944" lon="13.5235655"><ele>416.0</ele><time>2026-05-02T10:20:50.849Z</time></trkpt><trkpt lat="46.1326256" lon="13.5234704"><ele>415.0</ele><time>2026-05-02T10:20:51.857Z</time></trkpt><trkpt lat="46.1325555" lon="13.5233501"><ele>414.0</ele><time>2026-05-02T10:20:52.862Z</time></trkpt><trkpt lat="46.1324992" lon="13.5232129"><ele>414.0</ele><time>2026-05-02T10:20:53.855Z</time></trkpt><trkpt lat="46.1324454" lon="13.523073"><ele>414.0</ele><time>2026-05-02T10:20:54.855Z</time></trkpt><trkpt lat="46.1323944" lon="13.5229174"><ele>414.0</ele><time>2026-05-02T10:20:55.852Z</time></trkpt><trkpt lat="46.1323346" lon="13.522781"><ele>414.0</ele><time>2026-05-02T10:20:56.85Z</time></trkpt><trkpt lat="46.132264" lon="13.5226437"><ele>409.25</ele><time>2026-05-02T10:20:57.871Z</time></trkpt><trkpt lat="46.132184" lon="13.522516"><ele>404.5</ele><time>2026-05-02T10:20:58.855Z</time></trkpt><trkpt lat="46.1321067" lon="13.5223888"><ele>399.75</ele><time>2026-05-02T10:20:59.852Z</time></trkpt><trkpt lat="46.1320284" lon="13.5222571"><ele>395.0</ele><time>2026-05-02T10:21:00.852Z</time></trkpt><trkpt lat="46.1318905" lon="13.5219691"><ele>393.66666666666663</ele><time>2026-05-02T10:21:02.853Z</time></trkpt><trkpt lat="46.1318335" lon="13.5218286"><ele>392.3333333333333</ele><time>2026-05-02T10:21:03.852Z</time></trkpt><trkpt lat="46.1318019" lon="13.5217048"><ele>391.0</ele><time>2026-05-02T10:21:04.857Z</time></trkpt><trkpt lat="46.1317775" lon="13.5216122"><ele>389.66666666666663</ele><time>2026-05-02T10:21:05.852Z</time></trkpt><trkpt lat="46.1317399" lon="13.5214991"><ele>388.3333333333333</ele><time>2026-05-02T10:21:07.849Z</time></trkpt><trkpt lat="46.1316828" lon="13.5214274"><ele>387.0</ele><time>2026-05-02T10:21:10.864Z</time></trkpt><trkpt lat="46.1316132" lon="13.5213954"><ele>386.5</ele><time>2026-05-02T10:21:13.856Z</time></trkpt><trkpt lat="46.1315289" lon="13.5213607"><ele>386.0</ele><time>2026-05-02T10:22:06.852Z</time></trkpt><trkpt lat="46.1313031" lon="13.5213112"><ele>385.5</ele><time>2026-05-02T10:22:09.858Z</time></trkpt><trkpt lat="46.1311868" lon="13.5213305"><ele>385.0</ele><time>2026-05-02T10:22:10.848Z</time></trkpt><trkpt lat="46.1310611" lon="13.5213623"><ele>385.0</ele><time>2026-05-02T10:22:11.849Z</time></trkpt><trkpt lat="46.1309325" lon="13.5213856"><ele>385.0</ele><time>2026-05-02T10:22:12.857Z</time></trkpt><trkpt lat="46.1308019" lon="13.5214305"><ele>385.0</ele><time>2026-05-02T10:22:13.857Z</time></trkpt><trkpt lat="46.1306811" lon="13.5214502"><ele>385.0</ele><time>2026-05-02T10:22:14.853Z</time></trkpt><trkpt lat="46.1305502" lon="13.5214122"><ele>382.25</ele><time>2026-05-02T10:22:15.852Z</time></trkpt><trkpt lat="46.1304177" lon="13.5213437"><ele>379.5</ele><time>2026-05-02T10:22:16.853Z</time></trkpt><trkpt lat="46.130292" lon="13.5212795"><ele>376.75</ele><time>2026-05-02T10:22:17.858Z</time></trkpt><trkpt lat="46.1301787" lon="13.521224"><ele>374.0</ele><time>2026-05-02T10:22:18.856Z</time></trkpt><trkpt lat="46.1300788" lon="13.5211698"><ele>374.0</ele><time>2026-05-02T10:22:19.852Z</time></trkpt><trkpt lat="46.1299987" lon="13.5211159"><ele>374.0</ele><time>2026-05-02T10:22:20.86Z</time></trkpt><trkpt lat="46.1299357" lon="13.5210576"><ele>374.0</ele><time>2026-05-02T10:22:21.86Z</time></trkpt><trkpt lat="46.129881" lon="13.5210007"><ele>374.0</ele><time>2026-05-02T10:22:22.857Z</time></trkpt><trkpt lat="46.1298321" lon="13.520942"><ele>374.0</ele><time>2026-05-02T10:22:23.855Z</time></trkpt><trkpt lat="46.1297853" lon="13.5208265"><ele>374.0</ele><time>2026-05-02T10:22:25.856Z</time></trkpt><trkpt lat="46.1298591" lon="13.5207198"><ele>374.0</ele><time>2026-05-02T10:22:27.861Z</time></trkpt><trkpt lat="46.1300238" lon="13.5206291"><ele>374.0</ele><time>2026-05-02T10:22:31.857Z</time></trkpt><trkpt lat="46.1301097" lon="13.5205644"><ele>374.0</ele><time>2026-05-02T10:22:33.857Z</time></trkpt><trkpt lat="46.1302117" lon="13.5205201"><ele>374.0</ele><time>2026-05-02T10:22:35.851Z</time></trkpt><trkpt lat="46.1302967" lon="13.5205251"><ele>374.0</ele><time>2026-05-02T10:22:37.852Z</time></trkpt><trkpt lat="46.1303696" lon="13.5205584"><ele>374.0</ele><time>2026-05-02T10:22:39.856Z</time></trkpt><trkpt lat="46.1304274" lon="13.5205951"><ele>374.0</ele><time>2026-05-02T10:22:41.848Z</time></trkpt><trkpt lat="46.1304668" lon="13.520666"><ele>374.0</ele><time>2026-05-02T10:22:43.853Z</time></trkpt><trkpt lat="46.1304165" lon="13.5206086"><ele>374.0</ele><time>2026-05-02T10:22:53.858Z</time></trkpt></trkseg><trkseg><trkpt lat="46.1302871" lon="13.5205897"><ele>374.0</ele><time>2026-05-02T11:29:54.414Z</time></trkpt><trkpt lat="46.1301995" lon="13.5205358"><ele>374.0</ele><time>2026-05-02T11:29:56.408Z</time></trkpt><trkpt lat="46.1299721" lon="13.5206026"><ele>374.0</ele><time>2026-05-02T11:30:00.409Z</time></trkpt><trkpt lat="46.1299089" lon="13.5206797"><ele>374.0</ele><time>2026-05-02T11:30:02.419Z</time></trkpt><trkpt lat="46.1298165" lon="13.5207129"><ele>372.5</ele><time>2026-05-02T11:30:04.407Z</time></trkpt><trkpt lat="46.1296841" lon="13.5206876"><ele>371.0</ele><time>2026-05-02T11:30:06.214Z</time></trkpt><trkpt lat="46.1296043" lon="13.5206426"><ele>369.5</ele><time>2026-05-02T11:30:07.107Z</time></trkpt><trkpt lat="46.1294578" lon="13.5204704"><ele>368.0</ele><time>2026-05-02T11:30:08.915Z</time></trkpt><trkpt lat="46.1293825" lon="13.5203799"><ele>368.0</ele><time>2026-05-02T11:30:09.842Z</time></trkpt><trkpt lat="46.1292871" lon="13.5202809"><ele>368.0</ele><time>2026-05-02T11:30:10.843Z</time></trkpt><trkpt lat="46.1291994" lon="13.5201768"><ele>368.0</ele><time>2026-05-02T11:30:11.841Z</time></trkpt><trkpt lat="46.1291137" lon="13.5200658"><ele>368.0</ele><time>2026-05-02T11:30:12.847Z</time></trkpt><trkpt lat="46.129032" lon="13.5199501"><ele>367.0</ele><time>2026-05-02T11:30:13.844Z</time></trkpt><trkpt lat="46.1289512" lon="13.5198428"><ele>366.0</ele><time>2026-05-02T11:30:14.841Z</time></trkpt><trkpt lat="46.128861" lon="13.5197358"><ele>365.0</ele><time>2026-05-02T11:30:15.84Z</time></trkpt><trkpt lat="46.128753" lon="13.519641"><ele>364.0</ele><time>2026-05-02T11:30:16.846Z</time></trkpt><trkpt lat="46.1285238" lon="13.5195238"><ele>362.25</ele><time>2026-05-02T11:30:18.841Z</time></trkpt><trkpt lat="46.128411" lon="13.5195024"><ele>360.5</ele><time>2026-05-02T11:30:19.842Z</time></trkpt><trkpt lat="46.1282886" lon="13.5194952"><ele>358.75</ele><time>2026-05-02T11:30:20.846Z</time></trkpt><trkpt lat="46.1281694" lon="13.5194783"><ele>357.0</ele><time>2026-05-02T11:30:21.842Z</time></trkpt><trkpt lat="46.1280431" lon="13.5194939"><ele>357.0</ele><time>2026-05-02T11:30:22.854Z</time></trkpt><trkpt lat="46.1279107" lon="13.5194806"><ele>357.0</ele><time>2026-05-02T11:30:23.848Z</time></trkpt><trkpt lat="46.127787" lon="13.5194365"><ele>357.0</ele><time>2026-05-02T11:30:24.842Z</time></trkpt><trkpt lat="46.12768" lon="13.5193526"><ele>357.0</ele><time>2026-05-02T11:30:25.842Z</time></trkpt><trkpt lat="46.1275718" lon="13.5192506"><ele>357.0</ele><time>2026-05-02T11:30:26.85Z</time></trkpt><trkpt lat="46.1274573" lon="13.5191466"><ele>357.0</ele><time>2026-05-02T11:30:27.841Z</time></trkpt><trkpt lat="46.1273462" lon="13.5190435"><ele>357.0</ele><time>2026-05-02T11:30:28.845Z</time></trkpt><trkpt lat="46.127242" lon="13.5189462"><ele>357.0</ele><time>2026-05-02T11:30:29.844Z</time></trkpt><trkpt lat="46.127144" lon="13.5188469"><ele>356.40000000000003</ele><time>2026-05-02T11:30:30.835Z</time></trkpt><trkpt lat="46.1270508" lon="13.5187479"><ele>355.8</ele><time>2026-05-02T11:30:31.835Z</time></trkpt><trkpt lat="46.1269693" lon="13.5186401"><ele>355.2</ele><time>2026-05-02T11:30:32.845Z</time></trkpt><trkpt lat="46.1269064" lon="13.5185052"><ele>354.6</ele><time>2026-05-02T11:30:33.839Z</time></trkpt><trkpt lat="46.1268394" lon="13.5183881"><ele>354.0</ele><time>2026-05-02T11:30:34.847Z</time></trkpt><trkpt lat="46.1267656" lon="13.5182766"><ele>354.0</ele><time>2026-05-02T11:30:35.85Z</time></trkpt><trkpt lat="46.1266911" lon="13.5181912"><ele>354.0</ele><time>2026-05-02T11:30:36.842Z</time></trkpt><trkpt lat="46.126614" lon="13.5181324"><ele>354.0</ele><time>2026-05-02T11:30:37.846Z</time></trkpt><trkpt lat="46.126442" lon="13.5180452"><ele>354.0</ele><time>2026-05-02T11:30:39.842Z</time></trkpt><trkpt lat="46.1263505" lon="13.5180099"><ele>352.2</ele><time>2026-05-02T11:30:40.85Z</time></trkpt><trkpt lat="46.1262606" lon="13.5179916"><ele>350.4</ele><time>2026-05-02T11:30:41.844Z</time></trkpt><trkpt lat="46.1261879" lon="13.5179796"><ele>348.6</ele><time>2026-05-02T11:30:42.845Z</time></trkpt><trkpt lat="46.1261241" lon="13.5180242"><ele>346.8</ele><time>2026-05-02T11:30:43.85Z</time></trkpt><trkpt lat="46.126029" lon="13.5181276"><ele>345.0</ele><time>2026-05-02T11:30:44.845Z</time></trkpt><trkpt lat="46.1259392" lon="13.5182343"><ele>345.0</ele><time>2026-05-02T11:30:45.838Z</time></trkpt><trkpt lat="46.1258438" lon="13.5183512"><ele>345.0</ele><time>2026-05-02T11:30:46.842Z</time></trkpt><trkpt lat="46.1257452" lon="13.518452"><ele>345.0</ele><time>2026-05-02T11:30:47.84Z</time></trkpt><trkpt lat="46.1256383" lon="13.5185736"><ele>345.0</ele><time>2026-05-02T11:30:48.855Z</time></trkpt><trkpt lat="46.1255163" lon="13.5186577"><ele>345.5</ele><time>2026-05-02T11:30:49.841Z</time></trkpt><trkpt lat="46.1253783" lon="13.5187269"><ele>346.0</ele><time>2026-05-02T11:30:50.844Z</time></trkpt><trkpt lat="46.1252432" lon="13.5187836"><ele>346.5</ele><time>2026-05-02T11:30:51.844Z</time></trkpt><trkpt lat="46.1250992" lon="13.5188206"><ele>347.0</ele><time>2026-05-02T11:30:52.849Z</time></trkpt><trkpt lat="46.1249474" lon="13.5188622"><ele>337.0</ele><time>2026-05-02T11:30:53.839Z</time></trkpt><trkpt lat="46.1247964" lon="13.5189071"><ele>327.0</ele><time>2026-05-02T11:30:54.847Z</time></trkpt><trkpt lat="46.1246319" lon="13.5189395"><ele>317.0</ele><time>2026-05-02T11:30:55.842Z</time></trkpt><trkpt lat="46.1244819" lon="13.5189617"><ele>317.0</ele><time>2026-05-02T11:30:56.842Z</time></trkpt><trkpt lat="46.1243225" lon="13.5189952"><ele>317.0</ele><time>2026-05-02T11:30:57.846Z</time></trkpt><trkpt lat="46.12417" lon="13.5190251"><ele>317.0</ele><time>2026-05-02T11:30:58.85Z</time></trkpt><trkpt lat="46.1238603" lon="13.5190542"><ele>314.33333333333337</ele><time>2026-05-02T11:31:00.843Z</time></trkpt><trkpt lat="46.1236924" lon="13.5190501"><ele>311.6666666666667</ele><time>2026-05-02T11:31:01.847Z</time></trkpt><trkpt lat="46.1235349" lon="13.5190339"><ele>309.0</ele><time>2026-05-02T11:31:02.841Z</time></trkpt><trkpt lat="46.1233913" lon="13.5190189"><ele>309.0</ele><time>2026-05-02T11:31:03.835Z</time></trkpt><trkpt lat="46.1232403" lon="13.5189895"><ele>309.0</ele><time>2026-05-02T11:31:04.845Z</time></trkpt><trkpt lat="46.1230863" lon="13.5189167"><ele>309.0</ele><time>2026-05-02T11:31:05.843Z</time></trkpt><trkpt lat="46.1229564" lon="13.518776"><ele>308.0</ele><time>2026-05-02T11:31:06.838Z</time></trkpt><trkpt lat="46.12283" lon="13.5186459"><ele>307.0</ele><time>2026-05-02T11:31:07.841Z</time></trkpt><trkpt lat="46.1227067" lon="13.5185492"><ele>306.0</ele><time>2026-05-02T11:31:08.844Z</time></trkpt><trkpt lat="46.1225674" lon="13.5184478"><ele>306.0</ele><time>2026-05-02T11:31:09.84Z</time></trkpt><trkpt lat="46.1224336" lon="13.5183566"><ele>306.0</ele><time>2026-05-02T11:31:10.839Z</time></trkpt><trkpt lat="46.1223019" lon="13.5182714"><ele>306.0</ele><time>2026-05-02T11:31:11.855Z</time></trkpt><trkpt lat="46.1221625" lon="13.5181637"><ele>302.3333333333333</ele><time>2026-05-02T11:31:12.843Z</time></trkpt><trkpt lat="46.1220307" lon="13.5180473"><ele>298.66666666666663</ele><time>2026-05-02T11:31:13.839Z</time></trkpt><trkpt lat="46.1219034" lon="13.5179146"><ele>295.0</ele><time>2026-05-02T11:31:14.839Z</time></trkpt><trkpt lat="46.1218062" lon="13.5177504"><ele>295.0</ele><time>2026-05-02T11:31:15.843Z</time></trkpt><trkpt lat="46.1217153" lon="13.5175727"><ele>295.0</ele><time>2026-05-02T11:31:16.843Z</time></trkpt><trkpt lat="46.1216405" lon="13.5173701"><ele>295.0</ele><time>2026-05-02T11:31:17.846Z</time></trkpt><trkpt lat="46.1215621" lon="13.5171615"><ele>279.0</ele><time>2026-05-02T11:31:18.84Z</time></trkpt><trkpt lat="46.1214886" lon="13.5169652"><ele>263.0</ele><time>2026-05-02T11:31:19.848Z</time></trkpt><trkpt lat="46.1213717" lon="13.516596"><ele>247.0</ele><time>2026-05-02T11:31:21.84Z</time></trkpt><trkpt lat="46.1213468" lon="13.5164101"><ele>247.0</ele><time>2026-05-02T11:31:22.849Z</time></trkpt><trkpt lat="46.1213994" lon="13.5161713"><ele>247.0</ele><time>2026-05-02T11:31:23.842Z</time></trkpt><trkpt lat="46.121449" lon="13.5159175"><ele>247.0</ele><time>2026-05-02T11:31:24.84Z</time></trkpt><trkpt lat="46.1214812" lon="13.5156694"><ele>245.0</ele><time>2026-05-02T11:31:25.855Z</time></trkpt><trkpt lat="46.1215046" lon="13.5154034"><ele>243.0</ele><time>2026-05-02T11:31:26.842Z</time></trkpt><trkpt lat="46.1214979" lon="13.5151577"><ele>241.0</ele><time>2026-05-02T11:31:27.85Z</time></trkpt><trkpt lat="46.1214928" lon="13.5149389"><ele>241.0</ele><time>2026-05-02T11:31:28.849Z</time></trkpt><trkpt lat="46.1214929" lon="13.5147293"><ele>241.0</ele><time>2026-05-02T11:31:29.847Z</time></trkpt><trkpt lat="46.121471" lon="13.5145292"><ele>241.0</ele><time>2026-05-02T11:31:30.847Z</time></trkpt><trkpt lat="46.1214358" lon="13.5143301"><ele>241.0</ele><time>2026-05-02T11:31:31.841Z</time></trkpt><trkpt lat="46.1214186" lon="13.5141393"><ele>241.75</ele><time>2026-05-02T11:31:32.838Z</time></trkpt><trkpt lat="46.1213897" lon="13.5139781"><ele>242.5</ele><time>2026-05-02T11:31:33.839Z</time></trkpt><trkpt lat="46.1213121" lon="13.5138624"><ele>243.25</ele><time>2026-05-02T11:31:34.854Z</time></trkpt><trkpt lat="46.1212059" lon="13.5137373"><ele>244.0</ele><time>2026-05-02T11:31:35.842Z</time></trkpt><trkpt lat="46.121093" lon="13.5136726"><ele>247.25</ele><time>2026-05-02T11:31:36.852Z</time></trkpt><trkpt lat="46.120992" lon="13.5135849"><ele>250.5</ele><time>2026-05-02T11:31:37.833Z</time></trkpt><trkpt lat="46.1209032" lon="13.5134639"><ele>253.75</ele><time>2026-05-02T11:31:38.848Z</time></trkpt><trkpt lat="46.120839" lon="13.5132887"><ele>257.0</ele><time>2026-05-02T11:31:39.84Z</time></trkpt><trkpt lat="46.1207803" lon="13.5130853"><ele>235.0</ele><time>2026-05-02T11:31:40.836Z</time></trkpt><trkpt lat="46.1206993" lon="13.5125566"><ele>213.0</ele><time>2026-05-02T11:31:42.843Z</time></trkpt><trkpt lat="46.120713" lon="13.5122458"><ele>213.33333333333331</ele><time>2026-05-02T11:31:43.841Z</time></trkpt><trkpt lat="46.1207019" lon="13.5120035"><ele>213.66666666666666</ele><time>2026-05-02T11:31:44.848Z</time></trkpt><trkpt lat="46.1206596" lon="13.5117754"><ele>214.0</ele><time>2026-05-02T11:31:45.838Z</time></trkpt><trkpt lat="46.1205955" lon="13.5115617"><ele>214.0</ele><time>2026-05-02T11:31:46.842Z</time></trkpt><trkpt lat="46.1205228" lon="13.5113556"><ele>214.0</ele><time>2026-05-02T11:31:47.84Z</time></trkpt><trkpt lat="46.1204606" lon="13.5111393"><ele>214.0</ele><time>2026-05-02T11:31:48.847Z</time></trkpt><trkpt lat="46.1204015" lon="13.5109135"><ele>214.66666666666666</ele><time>2026-05-02T11:31:49.84Z</time></trkpt><trkpt lat="46.120321" lon="13.5107239"><ele>215.33333333333331</ele><time>2026-05-02T11:31:50.847Z</time></trkpt><trkpt lat="46.1202268" lon="13.510547"><ele>216.0</ele><time>2026-05-02T11:31:51.844Z</time></trkpt><trkpt lat="46.1201146" lon="13.5103652"><ele>217.0</ele><time>2026-05-02T11:31:52.84Z</time></trkpt><trkpt lat="46.1200127" lon="13.5102069"><ele>218.0</ele><time>2026-05-02T11:31:53.843Z</time></trkpt><trkpt lat="46.119927" lon="13.510062"><ele>219.0</ele><time>2026-05-02T11:31:54.843Z</time></trkpt><trkpt lat="46.1198648" lon="13.5099178"><ele>220.0</ele><time>2026-05-02T11:31:55.837Z</time></trkpt><trkpt lat="46.1198206" lon="13.5098322"><ele>220.0</ele><time>2026-05-02T11:31:56.843Z</time></trkpt><trkpt lat="46.1197805" lon="13.509759"><ele>220.0</ele><time>2026-05-02T11:31:58.846Z</time></trkpt><trkpt lat="46.1197738" lon="13.5098879"><ele>220.0</ele><time>2026-05-02T11:32:00.839Z</time></trkpt><trkpt lat="46.1198058" lon="13.5099998"><ele>220.0</ele><time>2026-05-02T11:32:01.841Z</time></trkpt><trkpt lat="46.1198901" lon="13.51031"><ele>219.0</ele><time>2026-05-02T11:32:03.84Z</time></trkpt><trkpt lat="46.1199367" lon="13.5105013"><ele>218.0</ele><time>2026-05-02T11:32:04.845Z</time></trkpt><trkpt lat="46.1199897" lon="13.5106938"><ele>217.0</ele><time>2026-05-02T11:32:05.842Z</time></trkpt><trkpt lat="46.1200382" lon="13.5109003"><ele>216.0</ele><time>2026-05-02T11:32:06.842Z</time></trkpt><trkpt lat="46.1200816" lon="13.5111194"><ele>215.5</ele><time>2026-05-02T11:32:07.838Z</time></trkpt><trkpt lat="46.1201091" lon="13.5113313"><ele>215.0</ele><time>2026-05-02T11:32:08.844Z</time></trkpt><trkpt lat="46.1201122" lon="13.5115293"><ele>214.5</ele><time>2026-05-02T11:32:09.846Z</time></trkpt><trkpt lat="46.1200839" lon="13.5117274"><ele>214.0</ele><time>2026-05-02T11:32:10.836Z</time></trkpt><trkpt lat="46.1200154" lon="13.5119257"><ele>213.75</ele><time>2026-05-02T11:32:11.838Z</time></trkpt><trkpt lat="46.1199246" lon="13.5121054"><ele>213.5</ele><time>2026-05-02T11:32:12.849Z</time></trkpt><trkpt lat="46.1198509" lon="13.5122841"><ele>213.25</ele><time>2026-05-02T11:32:13.844Z</time></trkpt><trkpt lat="46.1198122" lon="13.5124472"><ele>213.0</ele><time>2026-05-02T11:32:14.848Z</time></trkpt><trkpt lat="46.1198039" lon="13.5126169"><ele>206.60000000000002</ele><time>2026-05-02T11:32:15.84Z</time></trkpt><trkpt lat="46.1197935" lon="13.5127893"><ele>200.20000000000002</ele><time>2026-05-02T11:32:16.84Z</time></trkpt><trkpt lat="46.1197795" lon="13.5129515"><ele>193.8</ele><time>2026-05-02T11:32:17.845Z</time></trkpt><trkpt lat="46.1197735" lon="13.5130986"><ele>187.4</ele><time>2026-05-02T11:32:18.848Z</time></trkpt><trkpt lat="46.1197483" lon="13.513228"><ele>181.0</ele><time>2026-05-02T11:32:19.841Z</time></trkpt><trkpt lat="46.1197183" lon="13.5133314"><ele>181.0</ele><time>2026-05-02T11:32:20.841Z</time></trkpt><trkpt lat="46.1196639" lon="13.5134339"><ele>181.0</ele><time>2026-05-02T11:32:22.842Z</time></trkpt><trkpt lat="46.1197009" lon="13.5129007"><ele>181.0</ele><time>2026-05-02T11:32:25.838Z</time></trkpt><trkpt lat="46.119684" lon="13.5126049"><ele>181.0</ele><time>2026-05-02T11:32:26.845Z</time></trkpt><trkpt lat="46.1196587" lon="13.512345"><ele>181.0</ele><time>2026-05-02T11:32:27.841Z</time></trkpt><trkpt lat="46.1196415" lon="13.512143"><ele>181.0</ele><time>2026-05-02T11:32:28.835Z</time></trkpt><trkpt lat="46.1196292" lon="13.5119559"><ele>181.0</ele><time>2026-05-02T11:32:29.845Z</time></trkpt><trkpt lat="46.1196184" lon="13.511777"><ele>181.0</ele><time>2026-05-02T11:32:30.839Z</time></trkpt><trkpt lat="46.1195941" lon="13.5115864"><ele>181.0</ele><time>2026-05-02T11:32:31.854Z</time></trkpt><trkpt lat="46.1195699" lon="13.5113989"><ele>184.25</ele><time>2026-05-02T11:32:32.838Z</time></trkpt><trkpt lat="46.1195326" lon="13.5112206"><ele>187.5</ele><time>2026-05-02T11:32:33.846Z</time></trkpt><trkpt lat="46.1194824" lon="13.5110345"><ele>190.75</ele><time>2026-05-02T11:32:34.837Z</time></trkpt><trkpt lat="46.119432" lon="13.510887"><ele>194.0</ele><time>2026-05-02T11:32:35.842Z</time></trkpt><trkpt lat="46.1193589" lon="13.5107676"><ele>194.0</ele><time>2026-05-02T11:32:36.846Z</time></trkpt><trkpt lat="46.1192586" lon="13.5107153"><ele>194.0</ele><time>2026-05-02T11:32:37.844Z</time></trkpt><trkpt lat="46.1191645" lon="13.5106489"><ele>194.0</ele><time>2026-05-02T11:32:38.84Z</time></trkpt><trkpt lat="46.1190744" lon="13.5105858"><ele>194.0</ele><time>2026-05-02T11:32:39.84Z</time></trkpt><trkpt lat="46.1189753" lon="13.5105463"><ele>194.0</ele><time>2026-05-02T11:32:40.852Z</time></trkpt><trkpt lat="46.1188624" lon="13.5105333"><ele>188.33333333333334</ele><time>2026-05-02T11:32:41.837Z</time></trkpt><trkpt lat="46.1187407" lon="13.5105371"><ele>182.66666666666669</ele><time>2026-05-02T11:32:42.848Z</time></trkpt><trkpt lat="46.118616" lon="13.5105604"><ele>177.0</ele><time>2026-05-02T11:32:43.846Z</time></trkpt><trkpt lat="46.1183515" lon="13.5105982"><ele>172.66666666666666</ele><time>2026-05-02T11:32:45.839Z</time></trkpt><trkpt lat="46.1181944" lon="13.5106536"><ele>168.33333333333331</ele><time>2026-05-02T11:32:46.844Z</time></trkpt><trkpt lat="46.1180452" lon="13.5106881"><ele>164.0</ele><time>2026-05-02T11:32:47.841Z</time></trkpt><trkpt lat="46.1178733" lon="13.5107608"><ele>164.0</ele><time>2026-05-02T11:32:48.841Z</time></trkpt><trkpt lat="46.1177333" lon="13.5108"><ele>164.0</ele><time>2026-05-02T11:32:49.843Z</time></trkpt><trkpt lat="46.1176057" lon="13.5108353"><ele>164.0</ele><time>2026-05-02T11:32:50.85Z</time></trkpt><trkpt lat="46.1174935" lon="13.5108532"><ele>164.0</ele><time>2026-05-02T11:32:51.837Z</time></trkpt><trkpt lat="46.1173852" lon="13.510868"><ele>162.2</ele><time>2026-05-02T11:32:52.843Z</time></trkpt><trkpt lat="46.1172962" lon="13.5108481"><ele>160.39999999999998</ele><time>2026-05-02T11:32:53.838Z</time></trkpt><trkpt lat="46.1172806" lon="13.5107495"><ele>158.6</ele><time>2026-05-02T11:32:54.848Z</time></trkpt><trkpt lat="46.1172531" lon="13.5106349"><ele>156.8</ele><time>2026-05-02T11:32:55.839Z</time></trkpt><trkpt lat="46.1172516" lon="13.510454"><ele>155.0</ele><time>2026-05-02T11:32:56.845Z</time></trkpt><trkpt lat="46.11723" lon="13.5102815"><ele>155.0</ele><time>2026-05-02T11:32:57.839Z</time></trkpt><trkpt lat="46.1172146" lon="13.5101157"><ele>155.0</ele><time>2026-05-02T11:32:58.851Z</time></trkpt><trkpt lat="46.1171771" lon="13.5099415"><ele>155.0</ele><time>2026-05-02T11:32:59.86Z</time></trkpt><trkpt lat="46.1171256" lon="13.5097574"><ele>155.0</ele><time>2026-05-02T11:33:00.84Z</time></trkpt><trkpt lat="46.117069" lon="13.5095641"><ele>154.66666666666666</ele><time>2026-05-02T11:33:01.837Z</time></trkpt><trkpt lat="46.1170058" lon="13.5093628"><ele>154.33333333333334</ele><time>2026-05-02T11:33:02.839Z</time></trkpt><trkpt lat="46.1169371" lon="13.509166"><ele>154.0</ele><time>2026-05-02T11:33:03.838Z</time></trkpt><trkpt lat="46.1168729" lon="13.5089729"><ele>153.5</ele><time>2026-05-02T11:33:04.85Z</time></trkpt><trkpt lat="46.1167942" lon="13.5085567"><ele>153.0</ele><time>2026-05-02T11:33:06.842Z</time></trkpt><trkpt lat="46.1167595" lon="13.5083368"><ele>153.0</ele><time>2026-05-02T11:33:07.847Z</time></trkpt><trkpt lat="46.1167152" lon="13.5081299"><ele>153.0</ele><time>2026-05-02T11:33:08.847Z</time></trkpt><trkpt lat="46.1166792" lon="13.5079724"><ele>153.0</ele><time>2026-05-02T11:33:09.841Z</time></trkpt><trkpt lat="46.1166459" lon="13.5078453"><ele>153.0</ele><time>2026-05-02T11:33:10.848Z</time></trkpt><trkpt lat="46.1166142" lon="13.5077474"><ele>153.0</ele><time>2026-05-02T11:33:11.842Z</time></trkpt><trkpt lat="46.1165835" lon="13.5076145"><ele>152.0</ele><time>2026-05-02T11:33:13.84Z</time></trkpt><trkpt lat="46.1165248" lon="13.5074665"><ele>151.0</ele><time>2026-05-02T11:33:15.84Z</time></trkpt><trkpt lat="46.1164805" lon="13.5073882"><ele>150.0</ele><time>2026-05-02T11:33:16.843Z</time></trkpt><trkpt lat="46.1164329" lon="13.5073019"><ele>149.0</ele><time>2026-05-02T11:33:17.847Z</time></trkpt><trkpt lat="46.1163706" lon="13.5072165"><ele>148.0</ele><time>2026-05-02T11:33:18.847Z</time></trkpt><trkpt lat="46.1163015" lon="13.5071295"><ele>147.0</ele><time>2026-05-02T11:33:19.841Z</time></trkpt><trkpt lat="46.1162228" lon="13.5070346"><ele>147.0</ele><time>2026-05-02T11:33:20.849Z</time></trkpt><trkpt lat="46.1161275" lon="13.5069312"><ele>147.0</ele><time>2026-05-02T11:33:21.841Z</time></trkpt><trkpt lat="46.1160328" lon="13.5068007"><ele>147.0</ele><time>2026-05-02T11:33:22.844Z</time></trkpt><trkpt lat="46.1159381" lon="13.5066594"><ele>147.0</ele><time>2026-05-02T11:33:23.839Z</time></trkpt><trkpt lat="46.1158353" lon="13.5065142"><ele>145.5</ele><time>2026-05-02T11:33:24.843Z</time></trkpt><trkpt lat="46.1157307" lon="13.5063336"><ele>144.0</ele><time>2026-05-02T11:33:25.84Z</time></trkpt><trkpt lat="46.115577" lon="13.505901"><ele>144.0</ele><time>2026-05-02T11:33:27.839Z</time></trkpt><trkpt lat="46.1155159" lon="13.5056954"><ele>144.0</ele><time>2026-05-02T11:33:28.841Z</time></trkpt><trkpt lat="46.1154895" lon="13.5054985"><ele>144.0</ele><time>2026-05-02T11:33:29.841Z</time></trkpt><trkpt lat="46.1154852" lon="13.5053014"><ele>144.0</ele><time>2026-05-02T11:33:30.842Z</time></trkpt><trkpt lat="46.1154947" lon="13.5050718"><ele>144.25</ele><time>2026-05-02T11:33:31.839Z</time></trkpt><trkpt lat="46.115493" lon="13.5048554"><ele>144.5</ele><time>2026-05-02T11:33:32.843Z</time></trkpt><trkpt lat="46.1154786" lon="13.5046512"><ele>144.75</ele><time>2026-05-02T11:33:33.846Z</time></trkpt><trkpt lat="46.1154576" lon="13.5044474"><ele>145.0</ele><time>2026-05-02T11:33:34.848Z</time></trkpt><trkpt lat="46.1154317" lon="13.5042375"><ele>144.33333333333334</ele><time>2026-05-02T11:33:35.842Z</time></trkpt><trkpt lat="46.1154024" lon="13.5040103"><ele>143.66666666666666</ele><time>2026-05-02T11:33:36.846Z</time></trkpt><trkpt lat="46.1153633" lon="13.503789"><ele>143.0</ele><time>2026-05-02T11:33:37.84Z</time></trkpt><trkpt lat="46.115318" lon="13.5035835"><ele>143.0</ele><time>2026-05-02T11:33:38.845Z</time></trkpt><trkpt lat="46.1152794" lon="13.5033445"><ele>143.0</ele><time>2026-05-02T11:33:39.84Z</time></trkpt><trkpt lat="46.1152396" lon="13.5031182"><ele>143.0</ele><time>2026-05-02T11:33:40.845Z</time></trkpt><trkpt lat="46.1151966" lon="13.5028904"><ele>144.0</ele><time>2026-05-02T11:33:41.841Z</time></trkpt><trkpt lat="46.1151306" lon="13.5026677"><ele>145.0</ele><time>2026-05-02T11:33:42.85Z</time></trkpt><trkpt lat="46.1150602" lon="13.5024541"><ele>146.0</ele><time>2026-05-02T11:33:43.838Z</time></trkpt><trkpt lat="46.1150025" lon="13.5022506"><ele>145.33333333333331</ele><time>2026-05-02T11:33:44.848Z</time></trkpt><trkpt lat="46.1149511" lon="13.5020521"><ele>144.66666666666666</ele><time>2026-05-02T11:33:45.839Z</time></trkpt><trkpt lat="46.1149062" lon="13.5018506"><ele>144.0</ele><time>2026-05-02T11:33:46.843Z</time></trkpt><trkpt lat="46.1149133" lon="13.5013966"><ele>144.33333333333334</ele><time>2026-05-02T11:33:48.849Z</time></trkpt><trkpt lat="46.1149587" lon="13.5011612"><ele>144.66666666666669</ele><time>2026-05-02T11:33:49.835Z</time></trkpt><trkpt lat="46.1150252" lon="13.5009372"><ele>145.0</ele><time>2026-05-02T11:33:50.838Z</time></trkpt><trkpt lat="46.1150986" lon="13.5007079"><ele>145.0</ele><time>2026-05-02T11:33:51.839Z</time></trkpt><trkpt lat="46.1151865" lon="13.5004992"><ele>145.0</ele><time>2026-05-02T11:33:52.846Z</time></trkpt><trkpt lat="46.1152866" lon="13.5002998"><ele>145.0</ele><time>2026-05-02T11:33:53.843Z</time></trkpt><trkpt lat="46.1153878" lon="13.5000974"><ele>145.33333333333334</ele><time>2026-05-02T11:33:54.845Z</time></trkpt><trkpt lat="46.1154747" lon="13.4998937"><ele>145.66666666666666</ele><time>2026-05-02T11:33:55.849Z</time></trkpt><trkpt lat="46.1155695" lon="13.4996692"><ele>146.0</ele><time>2026-05-02T11:33:56.85Z</time></trkpt><trkpt lat="46.1156538" lon="13.4994254"><ele>146.33333333333331</ele><time>2026-05-02T11:33:57.842Z</time></trkpt><trkpt lat="46.1157337" lon="13.4991858"><ele>146.66666666666666</ele><time>2026-05-02T11:33:58.847Z</time></trkpt><trkpt lat="46.1157869" lon="13.4989307"><ele>147.0</ele><time>2026-05-02T11:33:59.839Z</time></trkpt><trkpt lat="46.1158417" lon="13.4986761"><ele>145.33333333333334</ele><time>2026-05-02T11:34:00.849Z</time></trkpt><trkpt lat="46.1159065" lon="13.4984325"><ele>143.66666666666669</ele><time>2026-05-02T11:34:01.844Z</time></trkpt><trkpt lat="46.1159764" lon="13.4981985"><ele>142.0</ele><time>2026-05-02T11:34:02.841Z</time></trkpt><trkpt lat="46.116052" lon="13.4979791"><ele>140.66666666666669</ele><time>2026-05-02T11:34:03.838Z</time></trkpt><trkpt lat="46.1161478" lon="13.4977543"><ele>139.33333333333334</ele><time>2026-05-02T11:34:04.846Z</time></trkpt><trkpt lat="46.1162533" lon="13.4975313"><ele>138.0</ele><time>2026-05-02T11:34:05.845Z</time></trkpt><trkpt lat="46.1163836" lon="13.4973159"><ele>138.0</ele><time>2026-05-02T11:34:06.841Z</time></trkpt><trkpt lat="46.1165191" lon="13.4971215"><ele>138.0</ele><time>2026-05-02T11:34:07.852Z</time></trkpt><trkpt lat="46.1167874" lon="13.4967903"><ele>138.0</ele><time>2026-05-02T11:34:09.838Z</time></trkpt><trkpt lat="46.1169213" lon="13.4966229"><ele>138.0</ele><time>2026-05-02T11:34:10.844Z</time></trkpt><trkpt lat="46.1170635" lon="13.4964469"><ele>138.0</ele><time>2026-05-02T11:34:11.841Z</time></trkpt><trkpt lat="46.1172095" lon="13.4962686"><ele>138.66666666666666</ele><time>2026-05-02T11:34:12.837Z</time></trkpt><trkpt lat="46.1173577" lon="13.4960848"><ele>139.33333333333331</ele><time>2026-05-02T11:34:13.842Z</time></trkpt><trkpt lat="46.1175059" lon="13.4958926"><ele>140.0</ele><time>2026-05-02T11:34:14.852Z</time></trkpt><trkpt lat="46.1176509" lon="13.4957026"><ele>140.33333333333331</ele><time>2026-05-02T11:34:15.846Z</time></trkpt><trkpt lat="46.1177744" lon="13.4955214"><ele>140.66666666666666</ele><time>2026-05-02T11:34:16.842Z</time></trkpt><trkpt lat="46.1178923" lon="13.4953618"><ele>141.0</ele><time>2026-05-02T11:34:17.838Z</time></trkpt><trkpt lat="46.1180042" lon="13.495215"><ele>141.5</ele><time>2026-05-02T11:34:18.852Z</time></trkpt><trkpt lat="46.1181181" lon="13.4950756"><ele>142.0</ele><time>2026-05-02T11:34:19.836Z</time></trkpt><trkpt lat="46.1182264" lon="13.4949371"><ele>142.5</ele><time>2026-05-02T11:34:20.838Z</time></trkpt><trkpt lat="46.1183398" lon="13.4947952"><ele>143.0</ele><time>2026-05-02T11:34:21.838Z</time></trkpt><trkpt lat="46.1184395" lon="13.4946432"><ele>143.5</ele><time>2026-05-02T11:34:22.845Z</time></trkpt><trkpt lat="46.118539" lon="13.4945013"><ele>144.0</ele><time>2026-05-02T11:34:23.844Z</time></trkpt><trkpt lat="46.1186415" lon="13.4943801"><ele>144.5</ele><time>2026-05-02T11:34:24.838Z</time></trkpt><trkpt lat="46.1187247" lon="13.4942566"><ele>145.0</ele><time>2026-05-02T11:34:25.841Z</time></trkpt><trkpt lat="46.1188065" lon="13.4941441"><ele>145.0</ele><time>2026-05-02T11:34:26.852Z</time></trkpt><trkpt lat="46.1188917" lon="13.4940491"><ele>145.0</ele><time>2026-05-02T11:34:27.85Z</time></trkpt><trkpt lat="46.1189722" lon="13.4939538"><ele>145.0</ele><time>2026-05-02T11:34:28.839Z</time></trkpt><trkpt lat="46.119056" lon="13.4938593"><ele>145.0</ele><time>2026-05-02T11:34:29.84Z</time></trkpt><trkpt lat="46.1192521" lon="13.4936797"><ele>145.0</ele><time>2026-05-02T11:34:31.839Z</time></trkpt><trkpt lat="46.1193629" lon="13.4936447"><ele>145.0</ele><time>2026-05-02T11:34:32.839Z</time></trkpt><trkpt lat="46.1194834" lon="13.4936618"><ele>145.0</ele><time>2026-05-02T11:34:33.843Z</time></trkpt><trkpt lat="46.1196154" lon="13.4937141"><ele>145.0</ele><time>2026-05-02T11:34:34.85Z</time></trkpt><trkpt lat="46.1197501" lon="13.4937743"><ele>145.0</ele><time>2026-05-02T11:34:35.838Z</time></trkpt><trkpt lat="46.1198874" lon="13.4938377"><ele>145.0</ele><time>2026-05-02T11:34:36.839Z</time></trkpt><trkpt lat="46.1200253" lon="13.4938977"><ele>145.0</ele><time>2026-05-02T11:34:37.842Z</time></trkpt><trkpt lat="46.1201612" lon="13.4939613"><ele>145.0</ele><time>2026-05-02T11:34:38.844Z</time></trkpt><trkpt lat="46.1202971" lon="13.494011"><ele>145.75</ele><time>2026-05-02T11:34:39.845Z</time></trkpt><trkpt lat="46.1204261" lon="13.494066"><ele>146.5</ele><time>2026-05-02T11:34:40.841Z</time></trkpt><trkpt lat="46.1205452" lon="13.4941242"><ele>147.25</ele><time>2026-05-02T11:34:41.841Z</time></trkpt><trkpt lat="46.1206595" lon="13.4941751"><ele>148.0</ele><time>2026-05-02T11:34:42.842Z</time></trkpt><trkpt lat="46.1207786" lon="13.4942242"><ele>148.5</ele><time>2026-05-02T11:34:43.839Z</time></trkpt><trkpt lat="46.1208954" lon="13.4942798"><ele>149.0</ele><time>2026-05-02T11:34:44.849Z</time></trkpt><trkpt lat="46.1210174" lon="13.4943411"><ele>149.5</ele><time>2026-05-02T11:34:45.838Z</time></trkpt><trkpt lat="46.1211416" lon="13.4944142"><ele>150.0</ele><time>2026-05-02T11:34:46.84Z</time></trkpt><trkpt lat="46.1212716" lon="13.4944805"><ele>150.0</ele><time>2026-05-02T11:34:47.843Z</time></trkpt><trkpt lat="46.1214044" lon="13.4945563"><ele>150.0</ele><time>2026-05-02T11:34:48.849Z</time></trkpt><trkpt lat="46.1215436" lon="13.4946509"><ele>150.0</ele><time>2026-05-02T11:34:49.843Z</time></trkpt><trkpt lat="46.1216693" lon="13.4947546"><ele>150.0</ele><time>2026-05-02T11:34:50.841Z</time></trkpt><trkpt lat="46.1219483" lon="13.4949906"><ele>151.66666666666666</ele><time>2026-05-02T11:34:52.84Z</time></trkpt><trkpt lat="46.1220924" lon="13.4951191"><ele>153.33333333333331</ele><time>2026-05-02T11:34:53.849Z</time></trkpt><trkpt lat="46.1222292" lon="13.4952375"><ele>155.0</ele><time>2026-05-02T11:34:54.838Z</time></trkpt><trkpt lat="46.1223729" lon="13.4953323"><ele>156.0</ele><time>2026-05-02T11:34:55.835Z</time></trkpt><trkpt lat="46.1225092" lon="13.4954163"><ele>157.0</ele><time>2026-05-02T11:34:56.84Z</time></trkpt><trkpt lat="46.122633" lon="13.4954952"><ele>158.0</ele><time>2026-05-02T11:34:57.837Z</time></trkpt><trkpt lat="46.1227456" lon="13.495571"><ele>159.0</ele><time>2026-05-02T11:34:58.854Z</time></trkpt><trkpt lat="46.122857" lon="13.4956366"><ele>158.5</ele><time>2026-05-02T11:34:59.839Z</time></trkpt><trkpt lat="46.1229689" lon="13.4957063"><ele>158.0</ele><time>2026-05-02T11:35:00.845Z</time></trkpt><trkpt lat="46.1230877" lon="13.4957946"><ele>157.5</ele><time>2026-05-02T11:35:01.838Z</time></trkpt><trkpt lat="46.123223" lon="13.4958923"><ele>157.0</ele><time>2026-05-02T11:35:02.843Z</time></trkpt><trkpt lat="46.1233662" lon="13.4959588"><ele>157.0</ele><time>2026-05-02T11:35:03.845Z</time></trkpt><trkpt lat="46.1235221" lon="13.4960149"><ele>157.0</ele><time>2026-05-02T11:35:04.841Z</time></trkpt><trkpt lat="46.1236754" lon="13.4960729"><ele>157.0</ele><time>2026-05-02T11:35:05.855Z</time></trkpt><trkpt lat="46.1238406" lon="13.4961409"><ele>157.0</ele><time>2026-05-02T11:35:06.847Z</time></trkpt><trkpt lat="46.123991" lon="13.4962024"><ele>157.0</ele><time>2026-05-02T11:35:07.841Z</time></trkpt><trkpt lat="46.1241384" lon="13.4962562"><ele>157.0</ele><time>2026-05-02T11:35:08.839Z</time></trkpt><trkpt lat="46.1242858" lon="13.4963099"><ele>156.33333333333334</ele><time>2026-05-02T11:35:09.841Z</time></trkpt><trkpt lat="46.1244373" lon="13.4963572"><ele>155.66666666666666</ele><time>2026-05-02T11:35:10.85Z</time></trkpt><trkpt lat="46.1245953" lon="13.4963936"><ele>155.0</ele><time>2026-05-02T11:35:11.844Z</time></trkpt><trkpt lat="46.1249548" lon="13.4963526"><ele>155.0</ele><time>2026-05-02T11:35:13.838Z</time></trkpt><trkpt lat="46.1251235" lon="13.4963217"><ele>155.0</ele><time>2026-05-02T11:35:14.842Z</time></trkpt><trkpt lat="46.125296" lon="13.4962894"><ele>155.0</ele><time>2026-05-02T11:35:15.84Z</time></trkpt><trkpt lat="46.1254521" lon="13.4962471"><ele>153.66666666666666</ele><time>2026-05-02T11:35:16.84Z</time></trkpt><trkpt lat="46.1256137" lon="13.4962361"><ele>152.33333333333334</ele><time>2026-05-02T11:35:17.841Z</time></trkpt><trkpt lat="46.1257647" lon="13.4962614"><ele>151.0</ele><time>2026-05-02T11:35:18.845Z</time></trkpt><trkpt lat="46.1259092" lon="13.4963093"><ele>151.0</ele><time>2026-05-02T11:35:19.842Z</time></trkpt><trkpt lat="46.1260504" lon="13.4963636"><ele>151.0</ele><time>2026-05-02T11:35:20.85Z</time></trkpt><trkpt lat="46.1261775" lon="13.4964323"><ele>151.0</ele><time>2026-05-02T11:35:21.84Z</time></trkpt><trkpt lat="46.1262949" lon="13.4964844"><ele>151.0</ele><time>2026-05-02T11:35:22.84Z</time></trkpt><trkpt lat="46.1264045" lon="13.4965488"><ele>151.0</ele><time>2026-05-02T11:35:23.847Z</time></trkpt><trkpt lat="46.1265009" lon="13.4966014"><ele>151.0</ele><time>2026-05-02T11:35:24.848Z</time></trkpt><trkpt lat="46.1265849" lon="13.4966303"><ele>151.0</ele><time>2026-05-02T11:35:25.839Z</time></trkpt><trkpt lat="46.1266549" lon="13.496615"><ele>151.0</ele><time>2026-05-02T11:35:26.84Z</time></trkpt><trkpt lat="46.1267467" lon="13.4965464"><ele>151.0</ele><time>2026-05-02T11:35:28.841Z</time></trkpt><trkpt lat="46.1268017" lon="13.4964664"><ele>151.0</ele><time>2026-05-02T11:35:29.838Z</time></trkpt><trkpt lat="46.126864" lon="13.496388"><ele>153.0</ele><time>2026-05-02T11:35:30.845Z</time></trkpt><trkpt lat="46.1269328" lon="13.496313"><ele>155.0</ele><time>2026-05-02T11:35:31.844Z</time></trkpt><trkpt lat="46.1270137" lon="13.496249"><ele>157.0</ele><time>2026-05-02T11:35:32.839Z</time></trkpt><trkpt lat="46.1270902" lon="13.4961745"><ele>159.0</ele><time>2026-05-02T11:35:33.842Z</time></trkpt><trkpt lat="46.1272518" lon="13.4960202"><ele>159.8</ele><time>2026-05-02T11:35:35.841Z</time></trkpt><trkpt lat="46.1273266" lon="13.4959458"><ele>160.60000000000002</ele><time>2026-05-02T11:35:36.843Z</time></trkpt><trkpt lat="46.1274164" lon="13.4958646"><ele>161.4</ele><time>2026-05-02T11:35:37.847Z</time></trkpt><trkpt lat="46.1275079" lon="13.4958017"><ele>162.20000000000002</ele><time>2026-05-02T11:35:38.844Z</time></trkpt><trkpt lat="46.1276012" lon="13.4957514"><ele>163.0</ele><time>2026-05-02T11:35:39.844Z</time></trkpt><trkpt lat="46.127698" lon="13.495721"><ele>163.0</ele><time>2026-05-02T11:35:40.843Z</time></trkpt><trkpt lat="46.1277851" lon="13.4957075"><ele>163.0</ele><time>2026-05-02T11:35:41.843Z</time></trkpt><trkpt lat="46.1278748" lon="13.495706"><ele>163.0</ele><time>2026-05-02T11:35:42.839Z</time></trkpt><trkpt lat="46.1279736" lon="13.4957137"><ele>163.0</ele><time>2026-05-02T11:35:43.833Z</time></trkpt><trkpt lat="46.1280716" lon="13.4957193"><ele>163.0</ele><time>2026-05-02T11:35:44.838Z</time></trkpt><trkpt lat="46.1281605" lon="13.4957166"><ele>163.8</ele><time>2026-05-02T11:35:45.841Z</time></trkpt><trkpt lat="46.1282557" lon="13.4956989"><ele>164.60000000000002</ele><time>2026-05-02T11:35:46.833Z</time></trkpt><trkpt lat="46.1283488" lon="13.4956627"><ele>165.39999999999998</ele><time>2026-05-02T11:35:47.84Z</time></trkpt><trkpt lat="46.1284466" lon="13.4956286"><ele>166.2</ele><time>2026-05-02T11:35:48.847Z</time></trkpt><trkpt lat="46.1285435" lon="13.4955976"><ele>167.0</ele><time>2026-05-02T11:35:49.843Z</time></trkpt><trkpt lat="46.1286418" lon="13.4955698"><ele>167.0</ele><time>2026-05-02T11:35:50.842Z</time></trkpt><trkpt lat="46.128743" lon="13.4955487"><ele>167.0</ele><time>2026-05-02T11:35:51.841Z</time></trkpt><trkpt lat="46.1288489" lon="13.4955384"><ele>167.0</ele><time>2026-05-02T11:35:52.841Z</time></trkpt><trkpt lat="46.128962" lon="13.4955408"><ele>167.0</ele><time>2026-05-02T11:35:53.84Z</time></trkpt><trkpt lat="46.1290741" lon="13.4955494"><ele>167.0</ele><time>2026-05-02T11:35:54.852Z</time></trkpt><trkpt lat="46.1292914" lon="13.4955536"><ele>167.16666666666666</ele><time>2026-05-02T11:35:56.847Z</time></trkpt><trkpt lat="46.1293958" lon="13.4955649"><ele>167.33333333333331</ele><time>2026-05-02T11:35:57.843Z</time></trkpt><trkpt lat="46.1294827" lon="13.4955883"><ele>167.5</ele><time>2026-05-02T11:35:58.843Z</time></trkpt><trkpt lat="46.1295655" lon="13.4956148"><ele>167.66666666666666</ele><time>2026-05-02T11:35:59.839Z</time></trkpt><trkpt lat="46.1296408" lon="13.4956547"><ele>167.83333333333334</ele><time>2026-05-02T11:36:00.839Z</time></trkpt><trkpt lat="46.1297097" lon="13.4957031"><ele>168.0</ele><time>2026-05-02T11:36:01.845Z</time></trkpt><trkpt lat="46.1297788" lon="13.4957505"><ele>168.0</ele><time>2026-05-02T11:36:02.845Z</time></trkpt><trkpt lat="46.1298557" lon="13.495786"><ele>168.0</ele><time>2026-05-02T11:36:03.838Z</time></trkpt><trkpt lat="46.1299316" lon="13.4957832"><ele>168.0</ele><time>2026-05-02T11:36:04.843Z</time></trkpt><trkpt lat="46.1300019" lon="13.4957587"><ele>168.0</ele><time>2026-05-02T11:36:05.838Z</time></trkpt><trkpt lat="46.130057" lon="13.4957054"><ele>168.0</ele><time>2026-05-02T11:36:06.845Z</time></trkpt><trkpt lat="46.1301041" lon="13.4956297"><ele>168.0</ele><time>2026-05-02T11:36:07.843Z</time></trkpt><trkpt lat="46.1301519" lon="13.4955524"><ele>168.0</ele><time>2026-05-02T11:36:08.836Z</time></trkpt><trkpt lat="46.1302002" lon="13.4954891"><ele>168.66666666666666</ele><time>2026-05-02T11:36:09.849Z</time></trkpt><trkpt lat="46.1302644" lon="13.4954678"><ele>169.33333333333334</ele><time>2026-05-02T11:36:10.843Z</time></trkpt><trkpt lat="46.1303558" lon="13.4954703"><ele>170.0</ele><time>2026-05-02T11:36:11.843Z</time></trkpt><trkpt lat="46.1304425" lon="13.4954596"><ele>170.66666666666669</ele><time>2026-05-02T11:36:12.843Z</time></trkpt><trkpt lat="46.1305428" lon="13.4954588"><ele>171.33333333333334</ele><time>2026-05-02T11:36:13.832Z</time></trkpt><trkpt lat="46.1306428" lon="13.4954648"><ele>172.0</ele><time>2026-05-02T11:36:14.84Z</time></trkpt><trkpt lat="46.1307309" lon="13.4954827"><ele>173.0</ele><time>2026-05-02T11:36:15.844Z</time></trkpt><trkpt lat="46.1308898" lon="13.4955964"><ele>174.0</ele><time>2026-05-02T11:36:17.842Z</time></trkpt><trkpt lat="46.1309622" lon="13.4956723"><ele>175.0</ele><time>2026-05-02T11:36:18.837Z</time></trkpt><trkpt lat="46.1310215" lon="13.4957561"><ele>176.0</ele><time>2026-05-02T11:36:19.839Z</time></trkpt><trkpt lat="46.1310801" lon="13.4958388"><ele>177.0</ele><time>2026-05-02T11:36:20.846Z</time></trkpt><trkpt lat="46.131139" lon="13.4959214"><ele>177.0</ele><time>2026-05-02T11:36:21.842Z</time></trkpt><trkpt lat="46.1311965" lon="13.4959984"><ele>177.0</ele><time>2026-05-02T11:36:22.839Z</time></trkpt><trkpt lat="46.1312616" lon="13.4960594"><ele>177.0</ele><time>2026-05-02T11:36:23.845Z</time></trkpt><trkpt lat="46.1313291" lon="13.4961006"><ele>177.0</ele><time>2026-05-02T11:36:24.839Z</time></trkpt><trkpt lat="46.1314011" lon="13.4961399"><ele>177.0</ele><time>2026-05-02T11:36:25.838Z</time></trkpt><trkpt lat="46.1314747" lon="13.4961754"><ele>177.0</ele><time>2026-05-02T11:36:26.838Z</time></trkpt><trkpt lat="46.1315464" lon="13.496197"><ele>177.33333333333334</ele><time>2026-05-02T11:36:27.845Z</time></trkpt><trkpt lat="46.1316297" lon="13.4961836"><ele>177.66666666666666</ele><time>2026-05-02T11:36:28.836Z</time></trkpt><trkpt lat="46.1317049" lon="13.4961551"><ele>178.0</ele><time>2026-05-02T11:36:29.84Z</time></trkpt><trkpt lat="46.1317761" lon="13.4961024"><ele>178.33333333333331</ele><time>2026-05-02T11:36:30.849Z</time></trkpt><trkpt lat="46.1318368" lon="13.4960263"><ele>178.66666666666666</ele><time>2026-05-02T11:36:31.836Z</time></trkpt><trkpt lat="46.1318889" lon="13.4959357"><ele>179.0</ele><time>2026-05-02T11:36:32.841Z</time></trkpt><trkpt lat="46.1319316" lon="13.4958358"><ele>179.0</ele><time>2026-05-02T11:36:33.84Z</time></trkpt><trkpt lat="46.1319682" lon="13.4957326"><ele>179.0</ele><time>2026-05-02T11:36:34.838Z</time></trkpt><trkpt lat="46.1319994" lon="13.4956394"><ele>179.0</ele><time>2026-05-02T11:36:35.835Z</time></trkpt><trkpt lat="46.1320081" lon="13.4954879"><ele>179.0</ele><time>2026-05-02T11:36:37.85Z</time></trkpt><trkpt lat="46.1318663" lon="13.495373"><ele>179.0</ele><time>2026-05-02T11:36:40.843Z</time></trkpt><trkpt lat="46.1317901" lon="13.4953599"><ele>182.0</ele><time>2026-05-02T11:36:41.842Z</time></trkpt><trkpt lat="46.1317021" lon="13.4953561"><ele>185.0</ele><time>2026-05-02T11:36:42.846Z</time></trkpt><trkpt lat="46.1315995" lon="13.4953303"><ele>188.0</ele><time>2026-05-02T11:36:43.842Z</time></trkpt><trkpt lat="46.1314918" lon="13.4953309"><ele>191.0</ele><time>2026-05-02T11:36:44.841Z</time></trkpt><trkpt lat="46.1314046" lon="13.4953407"><ele>194.0</ele><time>2026-05-02T11:36:45.844Z</time></trkpt><trkpt lat="46.1313295" lon="13.4953379"><ele>194.00000000000003</ele><time>2026-05-02T11:36:46.843Z</time></trkpt><trkpt lat="46.1312545" lon="13.4953304"><ele>194.0</ele><time>2026-05-02T11:36:47.847Z</time></trkpt><trkpt lat="46.1311827" lon="13.4953103"><ele>194.0</ele><time>2026-05-02T11:36:48.841Z</time></trkpt><trkpt lat="46.1311118" lon="13.4952598"><ele>194.0</ele><time>2026-05-02T11:36:49.846Z</time></trkpt><trkpt lat="46.1310425" lon="13.4951788"><ele>194.00000000000003</ele><time>2026-05-02T11:36:50.854Z</time></trkpt><trkpt lat="46.130976" lon="13.4950948"><ele>194.0</ele><time>2026-05-02T11:36:51.836Z</time></trkpt><trkpt lat="46.1309114" lon="13.4950021"><ele>194.00000000000003</ele><time>2026-05-02T11:36:52.843Z</time></trkpt><trkpt lat="46.1308454" lon="13.4949107"><ele>194.0</ele><time>2026-05-02T11:36:53.842Z</time></trkpt><trkpt lat="46.1307724" lon="13.4948354"><ele>194.0</ele><time>2026-05-02T11:36:54.849Z</time></trkpt><trkpt lat="46.1306914" lon="13.4947753"><ele>194.0</ele><time>2026-05-02T11:36:55.843Z</time></trkpt><trkpt lat="46.1306138" lon="13.4947309"><ele>194.00000000000003</ele><time>2026-05-02T11:36:56.842Z</time></trkpt><trkpt lat="46.1305225" lon="13.4947182"><ele>194.0</ele><time>2026-05-02T11:36:57.843Z</time></trkpt><trkpt lat="46.1304309" lon="13.49472"><ele>192.75</ele><time>2026-05-02T11:36:58.839Z</time></trkpt><trkpt lat="46.1302581" lon="13.4947347"><ele>191.5</ele><time>2026-05-02T11:37:00.852Z</time></trkpt><trkpt lat="46.130198" lon="13.4946056"><ele>190.25</ele><time>2026-05-02T11:37:02.84Z</time></trkpt><trkpt lat="46.1302073" lon="13.4944583"><ele>189.0</ele><time>2026-05-02T11:37:03.839Z</time></trkpt><trkpt lat="46.1302091" lon="13.4943023"><ele>192.33333333333334</ele><time>2026-05-02T11:37:04.843Z</time></trkpt><trkpt lat="46.1301743" lon="13.4942133"><ele>195.66666666666669</ele><time>2026-05-02T11:37:05.84Z</time></trkpt><trkpt lat="46.1300723" lon="13.4941411"><ele>199.0</ele><time>2026-05-02T11:37:06.839Z</time></trkpt><trkpt lat="46.1299804" lon="13.4940803"><ele>202.33333333333334</ele><time>2026-05-02T11:37:07.853Z</time></trkpt><trkpt lat="46.1299029" lon="13.4940373"><ele>205.66666666666669</ele><time>2026-05-02T11:37:08.841Z</time></trkpt><trkpt lat="46.1298268" lon="13.4940093"><ele>209.0</ele><time>2026-05-02T11:37:09.842Z</time></trkpt><trkpt lat="46.1297529" lon="13.4939888"><ele>209.16666666666669</ele><time>2026-05-02T11:37:10.837Z</time></trkpt><trkpt lat="46.1296761" lon="13.49398"><ele>209.33333333333334</ele><time>2026-05-02T11:37:11.842Z</time></trkpt><trkpt lat="46.1296098" lon="13.4939798"><ele>209.5</ele><time>2026-05-02T11:37:12.844Z</time></trkpt><trkpt lat="46.1296941" lon="13.4938724"><ele>209.66666666666669</ele><time>2026-05-02T11:37:17.832Z</time></trkpt><trkpt lat="46.1297827" lon="13.4938294"><ele>209.83333333333334</ele><time>2026-05-02T11:37:18.85Z</time></trkpt><trkpt lat="46.1298721" lon="13.49378"><ele>210.0</ele><time>2026-05-02T11:37:19.842Z</time></trkpt><trkpt lat="46.130104" lon="13.4937451"><ele>213.33333333333334</ele><time>2026-05-02T11:37:21.839Z</time></trkpt><trkpt lat="46.1302258" lon="13.4937364"><ele>216.66666666666669</ele><time>2026-05-02T11:37:22.841Z</time></trkpt><trkpt lat="46.1303101" lon="13.4937209"><ele>220.0</ele><time>2026-05-02T11:37:23.834Z</time></trkpt><trkpt lat="46.1303896" lon="13.4937157"><ele>223.33333333333334</ele><time>2026-05-02T11:37:24.852Z</time></trkpt><trkpt lat="46.1304583" lon="13.4937196"><ele>226.66666666666669</ele><time>2026-05-02T11:37:25.838Z</time></trkpt><trkpt lat="46.1305249" lon="13.4936893"><ele>230.0</ele><time>2026-05-02T11:37:26.842Z</time></trkpt><trkpt lat="46.1305917" lon="13.4935845"><ele>230.00000000000003</ele><time>2026-05-02T11:37:27.84Z</time></trkpt><trkpt lat="46.1306334" lon="13.4934519"><ele>230.0</ele><time>2026-05-02T11:37:28.845Z</time></trkpt><trkpt lat="46.130667" lon="13.4933245"><ele>230.0</ele><time>2026-05-02T11:37:29.843Z</time></trkpt><trkpt lat="46.1307035" lon="13.4932104"><ele>230.0</ele><time>2026-05-02T11:37:30.848Z</time></trkpt><trkpt lat="46.1307389" lon="13.4931074"><ele>230.00000000000003</ele><time>2026-05-02T11:37:31.84Z</time></trkpt><trkpt lat="46.130759" lon="13.4930071"><ele>230.0</ele><time>2026-05-02T11:37:32.838Z</time></trkpt><trkpt lat="46.1307783" lon="13.4929109"><ele>229.0</ele><time>2026-05-02T11:37:33.839Z</time></trkpt><trkpt lat="46.1308313" lon="13.4927928"><ele>228.0</ele><time>2026-05-02T11:37:35.843Z</time></trkpt><trkpt lat="46.1309187" lon="13.4927735"><ele>227.0</ele><time>2026-05-02T11:37:37.847Z</time></trkpt><trkpt lat="46.1310329" lon="13.4927491"><ele>226.0</ele><time>2026-05-02T11:37:39.839Z</time></trkpt><trkpt lat="46.1311425" lon="13.4926578"><ele>225.0</ele><time>2026-05-02T11:37:41.842Z</time></trkpt><trkpt lat="46.131316" lon="13.4925549"><ele>225.00000000000003</ele><time>2026-05-02T11:37:44.838Z</time></trkpt><trkpt lat="46.1313852" lon="13.492547"><ele>225.0</ele><time>2026-05-02T11:37:45.851Z</time></trkpt><trkpt lat="46.1314474" lon="13.4925849"><ele>225.00000000000003</ele><time>2026-05-02T11:37:46.839Z</time></trkpt><trkpt lat="46.1315074" lon="13.4926533"><ele>225.00000000000003</ele><time>2026-05-02T11:37:47.84Z</time></trkpt><trkpt lat="46.1315573" lon="13.492737"><ele>225.0</ele><time>2026-05-02T11:37:48.841Z</time></trkpt><trkpt lat="46.131608" lon="13.4928206"><ele>225.00000000000003</ele><time>2026-05-02T11:37:49.839Z</time></trkpt><trkpt lat="46.1316601" lon="13.4929022"><ele>225.00000000000003</ele><time>2026-05-02T11:37:50.839Z</time></trkpt><trkpt lat="46.13171" lon="13.492981"><ele>227.42857142857144</ele><time>2026-05-02T11:37:51.837Z</time></trkpt><trkpt lat="46.1317595" lon="13.493058"><ele>229.85714285714286</ele><time>2026-05-02T11:37:52.842Z</time></trkpt><trkpt lat="46.1318167" lon="13.4931301"><ele>232.28571428571428</ele><time>2026-05-02T11:37:53.838Z</time></trkpt><trkpt lat="46.1318726" lon="13.4931957"><ele>234.71428571428572</ele><time>2026-05-02T11:37:54.846Z</time></trkpt><trkpt lat="46.1319336" lon="13.4932502"><ele>237.1428571428571</ele><time>2026-05-02T11:37:55.837Z</time></trkpt><trkpt lat="46.1320005" lon="13.4933025"><ele>239.57142857142856</ele><time>2026-05-02T11:37:56.84Z</time></trkpt><trkpt lat="46.1320699" lon="13.4933422"><ele>242.0</ele><time>2026-05-02T11:37:57.846Z</time></trkpt><trkpt lat="46.1321404" lon="13.4933596"><ele>242.0</ele><time>2026-05-02T11:37:58.843Z</time></trkpt><trkpt lat="46.1322131" lon="13.4933794"><ele>242.0</ele><time>2026-05-02T11:37:59.841Z</time></trkpt><trkpt lat="46.1322822" lon="13.4934143"><ele>242.0</ele><time>2026-05-02T11:38:00.845Z</time></trkpt><trkpt lat="46.1323478" lon="13.4934481"><ele>242.0</ele><time>2026-05-02T11:38:01.84Z</time></trkpt><trkpt lat="46.132458" lon="13.4935253"><ele>242.0</ele><time>2026-05-02T11:38:03.842Z</time></trkpt><trkpt lat="46.1325596" lon="13.4936781"><ele>239.0</ele><time>2026-05-02T11:38:05.835Z</time></trkpt><trkpt lat="46.1326233" lon="13.4937813"><ele>236.0</ele><time>2026-05-02T11:38:06.842Z</time></trkpt><trkpt lat="46.1326881" lon="13.4938768"><ele>233.0</ele><time>2026-05-02T11:38:07.843Z</time></trkpt><trkpt lat="46.1327578" lon="13.493973"><ele>230.0</ele><time>2026-05-02T11:38:08.84Z</time></trkpt><trkpt lat="46.132824" lon="13.4940693"><ele>227.0</ele><time>2026-05-02T11:38:09.837Z</time></trkpt><trkpt lat="46.1328973" lon="13.4941562"><ele>227.00000000000003</ele><time>2026-05-02T11:38:10.84Z</time></trkpt><trkpt lat="46.1329744" lon="13.4942321"><ele>227.0</ele><time>2026-05-02T11:38:11.839Z</time></trkpt><trkpt lat="46.1330407" lon="13.4943022"><ele>227.0</ele><time>2026-05-02T11:38:12.845Z</time></trkpt><trkpt lat="46.1331016" lon="13.4943771"><ele>227.0</ele><time>2026-05-02T11:38:13.838Z</time></trkpt><trkpt lat="46.1331595" lon="13.4944404"><ele>227.00000000000003</ele><time>2026-05-02T11:38:14.841Z</time></trkpt><trkpt lat="46.1332132" lon="13.4944898"><ele>227.0</ele><time>2026-05-02T11:38:15.842Z</time></trkpt><trkpt lat="46.1332681" lon="13.494535"><ele>230.66666666666669</ele><time>2026-05-02T11:38:16.836Z</time></trkpt><trkpt lat="46.1333184" lon="13.4946138"><ele>234.33333333333334</ele><time>2026-05-02T11:38:17.839Z</time></trkpt><trkpt lat="46.1333632" lon="13.4947054"><ele>238.0</ele><time>2026-05-02T11:38:18.838Z</time></trkpt><trkpt lat="46.1333986" lon="13.4948098"><ele>241.66666666666669</ele><time>2026-05-02T11:38:19.839Z</time></trkpt><trkpt lat="46.1334267" lon="13.4949245"><ele>245.33333333333334</ele><time>2026-05-02T11:38:20.838Z</time></trkpt><trkpt lat="46.1334514" lon="13.4950352"><ele>249.0</ele><time>2026-05-02T11:38:21.843Z</time></trkpt><trkpt lat="46.1334732" lon="13.4951404"><ele>249.0</ele><time>2026-05-02T11:38:22.849Z</time></trkpt><trkpt lat="46.1335" lon="13.4952447"><ele>248.99999999999997</ele><time>2026-05-02T11:38:23.838Z</time></trkpt><trkpt lat="46.1335357" lon="13.4953409"><ele>248.99999999999997</ele><time>2026-05-02T11:38:24.835Z</time></trkpt><trkpt lat="46.1336343" lon="13.4955421"><ele>249.0</ele><time>2026-05-02T11:38:26.84Z</time></trkpt><trkpt lat="46.1336904" lon="13.4956375"><ele>249.0</ele><time>2026-05-02T11:38:27.836Z</time></trkpt><trkpt lat="46.1337296" lon="13.4957284"><ele>247.5</ele><time>2026-05-02T11:38:28.833Z</time></trkpt><trkpt lat="46.13375" lon="13.49582"><ele>246.0</ele><time>2026-05-02T11:38:29.837Z</time></trkpt><trkpt lat="46.1337632" lon="13.4959255"><ele>244.5</ele><time>2026-05-02T11:38:30.837Z</time></trkpt><trkpt lat="46.1337759" lon="13.496045"><ele>243.0</ele><time>2026-05-02T11:38:31.841Z</time></trkpt><trkpt lat="46.1337976" lon="13.4961877"><ele>241.5</ele><time>2026-05-02T11:38:32.844Z</time></trkpt><trkpt lat="46.1338262" lon="13.496334"><ele>240.0</ele><time>2026-05-02T11:38:33.84Z</time></trkpt><trkpt lat="46.1338467" lon="13.4964813"><ele>238.66666666666666</ele><time>2026-05-02T11:38:34.843Z</time></trkpt><trkpt lat="46.1338778" lon="13.4966119"><ele>237.33333333333331</ele><time>2026-05-02T11:38:35.842Z</time></trkpt><trkpt lat="46.1338947" lon="13.496746"><ele>236.0</ele><time>2026-05-02T11:38:36.843Z</time></trkpt><trkpt lat="46.133907" lon="13.4968607"><ele>234.66666666666666</ele><time>2026-05-02T11:38:37.834Z</time></trkpt><trkpt lat="46.1339231" lon="13.4969699"><ele>233.33333333333331</ele><time>2026-05-02T11:38:38.841Z</time></trkpt><trkpt lat="46.1339288" lon="13.4970759"><ele>232.0</ele><time>2026-05-02T11:38:39.837Z</time></trkpt><trkpt lat="46.1339429" lon="13.4971825"><ele>230.99999999999997</ele><time>2026-05-02T11:38:40.836Z</time></trkpt><trkpt lat="46.133973" lon="13.4972932"><ele>230.0</ele><time>2026-05-02T11:38:41.835Z</time></trkpt><trkpt lat="46.1339978" lon="13.4974055"><ele>229.0</ele><time>2026-05-02T11:38:42.84Z</time></trkpt><trkpt lat="46.1340285" lon="13.4975084"><ele>228.0</ele><time>2026-05-02T11:38:43.839Z</time></trkpt><trkpt lat="46.1340744" lon="13.4976157"><ele>226.99999999999997</ele><time>2026-05-02T11:38:44.848Z</time></trkpt><trkpt lat="46.1341358" lon="13.4977154"><ele>226.0</ele><time>2026-05-02T11:38:45.834Z</time></trkpt><trkpt lat="46.1342436" lon="13.4979103"><ele>227.60000000000002</ele><time>2026-05-02T11:38:47.833Z</time></trkpt><trkpt lat="46.1343093" lon="13.4980175"><ele>229.20000000000002</ele><time>2026-05-02T11:38:48.841Z</time></trkpt><trkpt lat="46.1343789" lon="13.4981158"><ele>230.79999999999998</ele><time>2026-05-02T11:38:49.838Z</time></trkpt><trkpt lat="46.1344556" lon="13.4982062"><ele>232.39999999999998</ele><time>2026-05-02T11:38:50.847Z</time></trkpt><trkpt lat="46.1345517" lon="13.4982844"><ele>234.0</ele><time>2026-05-02T11:38:51.834Z</time></trkpt><trkpt lat="46.1346421" lon="13.4983631"><ele>234.0</ele><time>2026-05-02T11:38:52.843Z</time></trkpt><trkpt lat="46.1347371" lon="13.4984122"><ele>233.99999999999997</ele><time>2026-05-02T11:38:53.837Z</time></trkpt><trkpt lat="46.1348358" lon="13.4984564"><ele>233.99999999999997</ele><time>2026-05-02T11:38:54.84Z</time></trkpt><trkpt lat="46.1349505" lon="13.498482"><ele>234.0</ele><time>2026-05-02T11:38:55.844Z</time></trkpt><trkpt lat="46.1350519" lon="13.4984893"><ele>234.0</ele><time>2026-05-02T11:38:56.836Z</time></trkpt><trkpt lat="46.1351402" lon="13.4985067"><ele>234.0</ele><time>2026-05-02T11:38:57.838Z</time></trkpt><trkpt lat="46.1352149" lon="13.4985334"><ele>233.99999999999997</ele><time>2026-05-02T11:38:58.842Z</time></trkpt><trkpt lat="46.1353091" lon="13.4986183"><ele>233.99999999999997</ele><time>2026-05-02T11:39:00.847Z</time></trkpt><trkpt lat="46.1353769" lon="13.498744"><ele>234.0</ele><time>2026-05-02T11:39:02.839Z</time></trkpt><trkpt lat="46.1354402" lon="13.4988975"><ele>234.0</ele><time>2026-05-02T11:39:04.844Z</time></trkpt><trkpt lat="46.1354903" lon="13.4990019"><ele>234.0</ele><time>2026-05-02T11:39:05.833Z</time></trkpt><trkpt lat="46.1355591" lon="13.4991087"><ele>234.0</ele><time>2026-05-02T11:39:06.835Z</time></trkpt><trkpt lat="46.1357156" lon="13.499339"><ele>234.0</ele><time>2026-05-02T11:39:08.836Z</time></trkpt><trkpt lat="46.1357893" lon="13.4994543"><ele>234.0</ele><time>2026-05-02T11:39:09.84Z</time></trkpt><trkpt lat="46.1358597" lon="13.4995496"><ele>234.0</ele><time>2026-05-02T11:39:10.84Z</time></trkpt><trkpt lat="46.1359374" lon="13.4996358"><ele>234.0</ele><time>2026-05-02T11:39:11.84Z</time></trkpt><trkpt lat="46.1360067" lon="13.4996985"><ele>234.0</ele><time>2026-05-02T11:39:12.842Z</time></trkpt><trkpt lat="46.1360672" lon="13.4997334"><ele>234.0</ele><time>2026-05-02T11:39:13.843Z</time></trkpt><trkpt lat="46.1361355" lon="13.4997456"><ele>234.0</ele><time>2026-05-02T11:39:14.84Z</time></trkpt><trkpt lat="46.1362186" lon="13.4997435"><ele>234.0</ele><time>2026-05-02T11:39:15.836Z</time></trkpt><trkpt lat="46.1363041" lon="13.4997315"><ele>234.0</ele><time>2026-05-02T11:39:16.843Z</time></trkpt><trkpt lat="46.1363806" lon="13.4996975"><ele>234.0</ele><time>2026-05-02T11:39:17.835Z</time></trkpt><trkpt lat="46.136461" lon="13.4996592"><ele>234.0</ele><time>2026-05-02T11:39:18.834Z</time></trkpt><trkpt lat="46.1365372" lon="13.4996416"><ele>234.0</ele><time>2026-05-02T11:39:19.838Z</time></trkpt><trkpt lat="46.1366039" lon="13.4996638"><ele>234.0</ele><time>2026-05-02T11:39:20.833Z</time></trkpt><trkpt lat="46.1366665" lon="13.4996876"><ele>234.0</ele><time>2026-05-02T11:39:21.841Z</time></trkpt><trkpt lat="46.1367774" lon="13.4997117"><ele>235.0</ele><time>2026-05-02T11:39:23.837Z</time></trkpt><trkpt lat="46.1369248" lon="13.4997102"><ele>236.0</ele><time>2026-05-02T11:39:25.836Z</time></trkpt><trkpt lat="46.1370171" lon="13.4997294"><ele>237.0</ele><time>2026-05-02T11:39:26.838Z</time></trkpt><trkpt lat="46.137101" lon="13.4997526"><ele>238.0</ele><time>2026-05-02T11:39:27.837Z</time></trkpt><trkpt lat="46.1372768" lon="13.4998519"><ele>238.0</ele><time>2026-05-02T11:39:29.842Z</time></trkpt><trkpt lat="46.1373697" lon="13.4999096"><ele>238.0</ele><time>2026-05-02T11:39:30.837Z</time></trkpt><trkpt lat="46.1374637" lon="13.4999764"><ele>238.0</ele><time>2026-05-02T11:39:31.834Z</time></trkpt><trkpt lat="46.1375523" lon="13.5000509"><ele>238.0</ele><time>2026-05-02T11:39:32.835Z</time></trkpt><trkpt lat="46.1376474" lon="13.5001149"><ele>238.0</ele><time>2026-05-02T11:39:33.838Z</time></trkpt><trkpt lat="46.1377281" lon="13.5001901"><ele>238.0</ele><time>2026-05-02T11:39:34.846Z</time></trkpt><trkpt lat="46.1377739" lon="13.5002573"><ele>238.0</ele><time>2026-05-02T11:39:35.847Z</time></trkpt><trkpt lat="46.1378216" lon="13.5003282"><ele>238.0</ele><time>2026-05-02T11:39:36.835Z</time></trkpt><trkpt lat="46.1378655" lon="13.5003994"><ele>238.0</ele><time>2026-05-02T11:39:37.839Z</time></trkpt><trkpt lat="46.1378991" lon="13.5005018"><ele>238.0</ele><time>2026-05-02T11:39:38.838Z</time></trkpt><trkpt lat="46.137919" lon="13.5006155"><ele>238.0</ele><time>2026-05-02T11:39:39.834Z</time></trkpt><trkpt lat="46.1379472" lon="13.5007252"><ele>238.0</ele><time>2026-05-02T11:39:40.838Z</time></trkpt><trkpt lat="46.1379757" lon="13.5008209"><ele>237.99999999999997</ele><time>2026-05-02T11:39:41.836Z</time></trkpt><trkpt lat="46.1379964" lon="13.5009109"><ele>238.0</ele><time>2026-05-02T11:39:42.847Z</time></trkpt><trkpt lat="46.1380248" lon="13.5009997"><ele>238.0</ele><time>2026-05-02T11:39:43.834Z</time></trkpt><trkpt lat="46.1380654" lon="13.501076"><ele>238.0</ele><time>2026-05-02T11:39:44.84Z</time></trkpt><trkpt lat="46.138107" lon="13.50116"><ele>237.99999999999997</ele><time>2026-05-02T11:39:45.838Z</time></trkpt><trkpt lat="46.1381515" lon="13.5012467"><ele>238.0</ele><time>2026-05-02T11:39:46.843Z</time></trkpt><trkpt lat="46.1382245" lon="13.5013973"><ele>241.99999999999997</ele><time>2026-05-02T11:39:48.839Z</time></trkpt><trkpt lat="46.138316" lon="13.5015328"><ele>246.0</ele><time>2026-05-02T11:39:50.841Z</time></trkpt><trkpt lat="46.1383715" lon="13.5015878"><ele>250.0</ele><time>2026-05-02T11:39:51.839Z</time></trkpt><trkpt lat="46.1384348" lon="13.5016293"><ele>254.0</ele><time>2026-05-02T11:39:52.836Z</time></trkpt><trkpt lat="46.1385007" lon="13.501652"><ele>258.0</ele><time>2026-05-02T11:39:53.84Z</time></trkpt><trkpt lat="46.1385698" lon="13.5016729"><ele>262.0</ele><time>2026-05-02T11:39:54.837Z</time></trkpt><trkpt lat="46.1386399" lon="13.5017082"><ele>262.0</ele><time>2026-05-02T11:39:55.838Z</time></trkpt><trkpt lat="46.138707" lon="13.5017828"><ele>262.0</ele><time>2026-05-02T11:39:56.844Z</time></trkpt><trkpt lat="46.1387797" lon="13.5018691"><ele>262.0</ele><time>2026-05-02T11:39:57.843Z</time></trkpt><trkpt lat="46.1388471" lon="13.5019661"><ele>262.0</ele><time>2026-05-02T11:39:58.833Z</time></trkpt><trkpt lat="46.1389097" lon="13.5020688"><ele>262.0</ele><time>2026-05-02T11:39:59.836Z</time></trkpt><trkpt lat="46.138974" lon="13.5021661"><ele>259.8333333333333</ele><time>2026-05-02T11:40:00.843Z</time></trkpt><trkpt lat="46.139037" lon="13.5022561"><ele>257.66666666666663</ele><time>2026-05-02T11:40:01.837Z</time></trkpt><trkpt lat="46.139087" lon="13.5023562"><ele>255.5</ele><time>2026-05-02T11:40:02.838Z</time></trkpt><trkpt lat="46.1391352" lon="13.502461"><ele>253.33333333333331</ele><time>2026-05-02T11:40:03.842Z</time></trkpt><trkpt lat="46.1391769" lon="13.5025632"><ele>251.16666666666666</ele><time>2026-05-02T11:40:04.839Z</time></trkpt><trkpt lat="46.1392143" lon="13.502664"><ele>249.0</ele><time>2026-05-02T11:40:05.845Z</time></trkpt><trkpt lat="46.1392494" lon="13.5027502"><ele>249.6</ele><time>2026-05-02T11:40:06.839Z</time></trkpt><trkpt lat="46.1392985" lon="13.5028292"><ele>250.2</ele><time>2026-05-02T11:40:07.848Z</time></trkpt><trkpt lat="46.1393551" lon="13.5028945"><ele>250.79999999999998</ele><time>2026-05-02T11:40:08.836Z</time></trkpt><trkpt lat="46.1394092" lon="13.5029587"><ele>251.39999999999998</ele><time>2026-05-02T11:40:09.839Z</time></trkpt><trkpt lat="46.1395945" lon="13.5030511"><ele>252.0</ele><time>2026-05-02T11:40:11.835Z</time></trkpt><trkpt lat="46.1397048" lon="13.5030823"><ele>252.0</ele><time>2026-05-02T11:40:12.84Z</time></trkpt><trkpt lat="46.1398108" lon="13.5030726"><ele>252.0</ele><time>2026-05-02T11:40:13.837Z</time></trkpt><trkpt lat="46.1399094" lon="13.5030643"><ele>252.0</ele><time>2026-05-02T11:40:14.84Z</time></trkpt><trkpt lat="46.1400082" lon="13.5030271"><ele>252.0</ele><time>2026-05-02T11:40:15.846Z</time></trkpt><trkpt lat="46.1401105" lon="13.5029928"><ele>252.0</ele><time>2026-05-02T11:40:16.844Z</time></trkpt><trkpt lat="46.1402106" lon="13.5029714"><ele>253.6</ele><time>2026-05-02T11:40:17.836Z</time></trkpt><trkpt lat="46.1403117" lon="13.5029451"><ele>255.2</ele><time>2026-05-02T11:40:18.839Z</time></trkpt><trkpt lat="46.1404233" lon="13.5029021"><ele>256.8</ele><time>2026-05-02T11:40:19.838Z</time></trkpt><trkpt lat="46.1405194" lon="13.5028742"><ele>258.4</ele><time>2026-05-02T11:40:20.847Z</time></trkpt><trkpt lat="46.1406138" lon="13.502806"><ele>260.0</ele><time>2026-05-02T11:40:21.84Z</time></trkpt><trkpt lat="46.1407074" lon="13.5027375"><ele>265.42857142857144</ele><time>2026-05-02T11:40:22.833Z</time></trkpt><trkpt lat="46.1407932" lon="13.5026857"><ele>270.8571428571429</ele><time>2026-05-02T11:40:23.84Z</time></trkpt><trkpt lat="46.1408539" lon="13.5026508"><ele>276.2857142857143</ele><time>2026-05-02T11:40:24.84Z</time></trkpt><trkpt lat="46.1409234" lon="13.5026031"><ele>281.7142857142857</ele><time>2026-05-02T11:40:25.837Z</time></trkpt><trkpt lat="46.1409851" lon="13.5025416"><ele>287.1428571428571</ele><time>2026-05-02T11:40:26.842Z</time></trkpt><trkpt lat="46.1410327" lon="13.5024806"><ele>292.57142857142856</ele><time>2026-05-02T11:40:27.837Z</time></trkpt><trkpt lat="46.1410984" lon="13.5024637"><ele>298.0</ele><time>2026-05-02T11:40:28.84Z</time></trkpt><trkpt lat="46.1411674" lon="13.5024609"><ele>298.0</ele><time>2026-05-02T11:40:29.834Z</time></trkpt><trkpt lat="46.1412667" lon="13.5025009"><ele>298.0</ele><time>2026-05-02T11:40:31.838Z</time></trkpt><trkpt lat="46.1414078" lon="13.502516"><ele>298.0</ele><time>2026-05-02T11:40:33.834Z</time></trkpt><trkpt lat="46.1414888" lon="13.5025093"><ele>298.0</ele><time>2026-05-02T11:40:34.84Z</time></trkpt><trkpt lat="46.1415703" lon="13.502506"><ele>298.0</ele><time>2026-05-02T11:40:35.838Z</time></trkpt><trkpt lat="46.1416477" lon="13.5025013"><ele>299.66666666666663</ele><time>2026-05-02T11:40:36.837Z</time></trkpt><trkpt lat="46.1417237" lon="13.502498"><ele>301.3333333333333</ele><time>2026-05-02T11:40:37.842Z</time></trkpt><trkpt lat="46.1418063" lon="13.5025029"><ele>303.0</ele><time>2026-05-02T11:40:38.85Z</time></trkpt><trkpt lat="46.1418757" lon="13.5025065"><ele>304.6666666666667</ele><time>2026-05-02T11:40:39.84Z</time></trkpt><trkpt lat="46.1419465" lon="13.5024981"><ele>306.33333333333337</ele><time>2026-05-02T11:40:40.839Z</time></trkpt><trkpt lat="46.1420487" lon="13.502487"><ele>308.0</ele><time>2026-05-02T11:40:41.838Z</time></trkpt><trkpt lat="46.1421546" lon="13.5024839"><ele>308.0</ele><time>2026-05-02T11:40:42.841Z</time></trkpt><trkpt lat="46.1422587" lon="13.5024833"><ele>308.0</ele><time>2026-05-02T11:40:43.84Z</time></trkpt><trkpt lat="46.1423637" lon="13.5024833"><ele>308.0</ele><time>2026-05-02T11:40:44.839Z</time></trkpt><trkpt lat="46.1424645" lon="13.5024814"><ele>308.0</ele><time>2026-05-02T11:40:45.833Z</time></trkpt><trkpt lat="46.1425642" lon="13.5024774"><ele>308.0</ele><time>2026-05-02T11:40:46.842Z</time></trkpt><trkpt lat="46.1426497" lon="13.5024635"><ele>309.8</ele><time>2026-05-02T11:40:47.837Z</time></trkpt><trkpt lat="46.1427258" lon="13.5024543"><ele>311.6</ele><time>2026-05-02T11:40:48.834Z</time></trkpt><trkpt lat="46.1428071" lon="13.5024345"><ele>313.4</ele><time>2026-05-02T11:40:50.837Z</time></trkpt><trkpt lat="46.1427882" lon="13.5023388"><ele>315.2</ele><time>2026-05-02T11:40:53.834Z</time></trkpt><trkpt lat="46.1426314" lon="13.5021459"><ele>317.0</ele><time>2026-05-02T11:40:57.836Z</time></trkpt><trkpt lat="46.1426495" lon="13.5020511"><ele>318.4</ele><time>2026-05-02T11:41:28.84Z</time></trkpt><trkpt lat="46.1426547" lon="13.5018271"><ele>319.79999999999995</ele><time>2026-05-02T11:41:34.838Z</time></trkpt><trkpt lat="46.1426908" lon="13.5017319"><ele>321.2</ele><time>2026-05-02T11:41:36.831Z</time></trkpt><trkpt lat="46.1427013" lon="13.5016291"><ele>322.59999999999997</ele><time>2026-05-02T11:41:45.845Z</time></trkpt><trkpt lat="46.1427179" lon="13.5015164"><ele>324.0</ele><time>2026-05-02T11:41:48.834Z</time></trkpt><trkpt lat="46.1427329" lon="13.5014123"><ele>324.0</ele><time>2026-05-02T11:41:50.835Z</time></trkpt><trkpt lat="46.1427561" lon="13.5014315"><ele>324.0</ele><time>2026-05-02T11:42:25.841Z</time></trkpt><trkpt lat="46.1427303" lon="13.5016801"><ele>324.0</ele><time>2026-05-02T11:42:28.841Z</time></trkpt><trkpt lat="46.1427049" lon="13.5017637"><ele>324.0</ele><time>2026-05-02T11:42:29.839Z</time></trkpt><trkpt lat="46.1426751" lon="13.5018534"><ele>324.0</ele><time>2026-05-02T11:42:30.834Z</time></trkpt><trkpt lat="46.142646" lon="13.5019425"><ele>324.0</ele><time>2026-05-02T11:42:31.832Z</time></trkpt><trkpt lat="46.1426131" lon="13.5020367"><ele>324.0</ele><time>2026-05-02T11:42:33.836Z</time></trkpt><trkpt lat="46.1426683" lon="13.5021001"><ele>324.0</ele><time>2026-05-02T11:42:55.841Z</time></trkpt><trkpt lat="46.1428594" lon="13.5020349"><ele>324.0</ele><time>2026-05-02T11:42:59.836Z</time></trkpt><trkpt lat="46.1429692" lon="13.5020071"><ele>324.0</ele><time>2026-05-02T11:43:01.835Z</time></trkpt><trkpt lat="46.1430417" lon="13.502008"><ele>324.0</ele><time>2026-05-02T11:43:02.831Z</time></trkpt><trkpt lat="46.1431384" lon="13.5020665"><ele>324.0</ele><time>2026-05-02T11:43:04.842Z</time></trkpt><trkpt lat="46.143221" lon="13.502151"><ele>324.0</ele><time>2026-05-02T11:43:06.834Z</time></trkpt><trkpt lat="46.1432762" lon="13.5022309"><ele>324.0</ele><time>2026-05-02T11:43:08.839Z</time></trkpt><trkpt lat="46.1433272" lon="13.5023784"><ele>324.0</ele><time>2026-05-02T11:43:10.84Z</time></trkpt><trkpt lat="46.143359" lon="13.5024777"><ele>324.5</ele><time>2026-05-02T11:43:11.842Z</time></trkpt><trkpt lat="46.1433834" lon="13.5025808"><ele>325.0</ele><time>2026-05-02T11:43:12.83Z</time></trkpt><trkpt lat="46.1434208" lon="13.5026802"><ele>325.5</ele><time>2026-05-02T11:43:13.84Z</time></trkpt><trkpt lat="46.143465" lon="13.5027859"><ele>326.0</ele><time>2026-05-02T11:43:14.841Z</time></trkpt><trkpt lat="46.1435231" lon="13.5029071"><ele>326.5</ele><time>2026-05-02T11:43:15.833Z</time></trkpt><trkpt lat="46.143575" lon="13.5030217"><ele>327.0</ele><time>2026-05-02T11:43:16.847Z</time></trkpt><trkpt lat="46.1436868" lon="13.5032375"><ele>327.0</ele><time>2026-05-02T11:43:18.842Z</time></trkpt><trkpt lat="46.1437549" lon="13.5033513"><ele>327.0</ele><time>2026-05-02T11:43:19.835Z</time></trkpt><trkpt lat="46.1438204" lon="13.5034504"><ele>327.0</ele><time>2026-05-02T11:43:20.838Z</time></trkpt><trkpt lat="46.1438876" lon="13.5035181"><ele>327.0</ele><time>2026-05-02T11:43:21.834Z</time></trkpt><trkpt lat="46.1439708" lon="13.5035627"><ele>327.0</ele><time>2026-05-02T11:43:23.844Z</time></trkpt><trkpt lat="46.144012" lon="13.5034646"><ele>327.0</ele><time>2026-05-02T11:43:25.834Z</time></trkpt><trkpt lat="46.1439963" lon="13.5032968"><ele>327.0</ele><time>2026-05-02T11:43:27.832Z</time></trkpt><trkpt lat="46.1439768" lon="13.5032091"><ele>327.0</ele><time>2026-05-02T11:43:28.836Z</time></trkpt><trkpt lat="46.1439485" lon="13.5030542"><ele>327.0</ele><time>2026-05-02T11:43:30.845Z</time></trkpt><trkpt lat="46.1439447" lon="13.5028804"><ele>327.0</ele><time>2026-05-02T11:43:32.835Z</time></trkpt><trkpt lat="46.1439575" lon="13.5027872"><ele>327.0</ele><time>2026-05-02T11:43:33.837Z</time></trkpt><trkpt lat="46.143975" lon="13.5026925"><ele>327.0</ele><time>2026-05-02T11:43:34.838Z</time></trkpt><trkpt lat="46.1440006" lon="13.5025873"><ele>328.40000000000003</ele><time>2026-05-02T11:43:35.838Z</time></trkpt><trkpt lat="46.1440301" lon="13.5024833"><ele>329.8</ele><time>2026-05-02T11:43:36.84Z</time></trkpt><trkpt lat="46.144061" lon="13.5023861"><ele>331.2</ele><time>2026-05-02T11:43:37.836Z</time></trkpt><trkpt lat="46.1441879" lon="13.5021911"><ele>332.6</ele><time>2026-05-02T11:43:40.836Z</time></trkpt><trkpt lat="46.1442478" lon="13.5021378"><ele>334.0</ele><time>2026-05-02T11:43:41.839Z</time></trkpt><trkpt lat="46.1443261" lon="13.5021262"><ele>337.5</ele><time>2026-05-02T11:43:42.835Z</time></trkpt><trkpt lat="46.144408" lon="13.5021311"><ele>341.0</ele><time>2026-05-02T11:43:43.837Z</time></trkpt><trkpt lat="46.1444991" lon="13.5021517"><ele>344.5</ele><time>2026-05-02T11:43:44.839Z</time></trkpt><trkpt lat="46.1445703" lon="13.5021975"><ele>348.0</ele><time>2026-05-02T11:43:45.835Z</time></trkpt><trkpt lat="46.1446365" lon="13.5022668"><ele>351.5</ele><time>2026-05-02T11:43:46.836Z</time></trkpt><trkpt lat="46.1446967" lon="13.5023477"><ele>355.0</ele><time>2026-05-02T11:43:47.849Z</time></trkpt><trkpt lat="46.1447622" lon="13.5023995"><ele>355.0</ele><time>2026-05-02T11:43:48.841Z</time></trkpt><trkpt lat="46.1448276" lon="13.5024421"><ele>355.0</ele><time>2026-05-02T11:43:49.831Z</time></trkpt><trkpt lat="46.1449047" lon="13.5024579"><ele>355.0</ele><time>2026-05-02T11:43:50.837Z</time></trkpt><trkpt lat="46.1449845" lon="13.5024728"><ele>355.0</ele><time>2026-05-02T11:43:51.843Z</time></trkpt><trkpt lat="46.1450615" lon="13.5024864"><ele>355.0</ele><time>2026-05-02T11:43:52.83Z</time></trkpt><trkpt lat="46.1451661" lon="13.5024891"><ele>355.0</ele><time>2026-05-02T11:43:54.833Z</time></trkpt><trkpt lat="46.1452593" lon="13.5023997"><ele>354.0</ele><time>2026-05-02T11:43:56.837Z</time></trkpt><trkpt lat="46.1453147" lon="13.5023363"><ele>353.0</ele><time>2026-05-02T11:43:57.837Z</time></trkpt><trkpt lat="46.1453745" lon="13.5022676"><ele>352.0</ele><time>2026-05-02T11:43:58.838Z</time></trkpt><trkpt lat="46.1455295" lon="13.5020932"><ele>351.0</ele><time>2026-05-02T11:44:01.833Z</time></trkpt><trkpt lat="46.1456359" lon="13.5020588"><ele>351.0</ele><time>2026-05-02T11:44:03.838Z</time></trkpt><trkpt lat="46.1457102" lon="13.5020674"><ele>351.0</ele><time>2026-05-02T11:44:04.834Z</time></trkpt><trkpt lat="46.145794" lon="13.5020628"><ele>351.0</ele><time>2026-05-02T11:44:05.837Z</time></trkpt><trkpt lat="46.1458788" lon="13.5020563"><ele>351.0</ele><time>2026-05-02T11:44:06.83Z</time></trkpt><trkpt lat="46.1459716" lon="13.5020388"><ele>351.0</ele><time>2026-05-02T11:44:07.84Z</time></trkpt><trkpt lat="46.1460544" lon="13.5020298"><ele>351.0</ele><time>2026-05-02T11:44:08.842Z</time></trkpt><trkpt lat="46.1461319" lon="13.5020465"><ele>353.8333333333333</ele><time>2026-05-02T11:44:09.831Z</time></trkpt><trkpt lat="46.1461969" lon="13.5020732"><ele>356.6666666666667</ele><time>2026-05-02T11:44:10.829Z</time></trkpt><trkpt lat="46.1462642" lon="13.5021368"><ele>359.5</ele><time>2026-05-02T11:44:11.837Z</time></trkpt><trkpt lat="46.1463207" lon="13.5022149"><ele>362.33333333333337</ele><time>2026-05-02T11:44:12.837Z</time></trkpt><trkpt lat="46.1463756" lon="13.5022911"><ele>365.1666666666667</ele><time>2026-05-02T11:44:13.842Z</time></trkpt><trkpt lat="46.1464458" lon="13.5023399"><ele>368.0</ele><time>2026-05-02T11:44:14.846Z</time></trkpt><trkpt lat="46.1465183" lon="13.5023503"><ele>372.4</ele><time>2026-05-02T11:44:15.831Z</time></trkpt><trkpt lat="46.1465935" lon="13.5023432"><ele>376.79999999999995</ele><time>2026-05-02T11:44:16.835Z</time></trkpt><trkpt lat="46.1466704" lon="13.5023374"><ele>381.2</ele><time>2026-05-02T11:44:17.839Z</time></trkpt><trkpt lat="46.1467457" lon="13.5023429"><ele>385.6</ele><time>2026-05-02T11:44:18.838Z</time></trkpt><trkpt lat="46.1468714" lon="13.5024043"><ele>390.0</ele><time>2026-05-02T11:44:20.844Z</time></trkpt><trkpt lat="46.1470124" lon="13.5025074"><ele>390.0</ele><time>2026-05-02T11:44:22.839Z</time></trkpt><trkpt lat="46.1470758" lon="13.5025632"><ele>390.0</ele><time>2026-05-02T11:44:23.833Z</time></trkpt><trkpt lat="46.147138" lon="13.5026267"><ele>390.0</ele><time>2026-05-02T11:44:24.848Z</time></trkpt><trkpt lat="46.1471997" lon="13.5026959"><ele>390.0</ele><time>2026-05-02T11:44:25.834Z</time></trkpt><trkpt lat="46.147261" lon="13.5027683"><ele>390.0</ele><time>2026-05-02T11:44:26.843Z</time></trkpt><trkpt lat="46.147315" lon="13.502823"><ele>390.0</ele><time>2026-05-02T11:44:27.839Z</time></trkpt><trkpt lat="46.1474129" lon="13.5028639"><ele>390.6666666666667</ele><time>2026-05-02T11:44:29.835Z</time></trkpt><trkpt lat="46.1474778" lon="13.5028778"><ele>391.33333333333337</ele><time>2026-05-02T11:44:30.846Z</time></trkpt><trkpt lat="46.1475406" lon="13.5028854"><ele>392.0</ele><time>2026-05-02T11:44:31.839Z</time></trkpt><trkpt lat="46.1476573" lon="13.5028524"><ele>392.6666666666667</ele><time>2026-05-02T11:44:33.841Z</time></trkpt><trkpt lat="46.1477212" lon="13.502815"><ele>393.33333333333337</ele><time>2026-05-02T11:44:34.835Z</time></trkpt><trkpt lat="46.1477798" lon="13.50276"><ele>394.0</ele><time>2026-05-02T11:44:35.831Z</time></trkpt><trkpt lat="46.1478394" lon="13.502673"><ele>394.0</ele><time>2026-05-02T11:44:36.838Z</time></trkpt><trkpt lat="46.1479034" lon="13.50258"><ele>394.0</ele><time>2026-05-02T11:44:37.839Z</time></trkpt><trkpt lat="46.147969" lon="13.5024966"><ele>394.0</ele><time>2026-05-02T11:44:38.841Z</time></trkpt><trkpt lat="46.1480434" lon="13.502415"><ele>394.0</ele><time>2026-05-02T11:44:39.842Z</time></trkpt><trkpt lat="46.1481168" lon="13.5023364"><ele>394.0</ele><time>2026-05-02T11:44:40.84Z</time></trkpt><trkpt lat="46.1482106" lon="13.5022681"><ele>394.4</ele><time>2026-05-02T11:44:41.833Z</time></trkpt><trkpt lat="46.1483522" lon="13.5021981"><ele>394.79999999999995</ele><time>2026-05-02T11:44:43.834Z</time></trkpt><trkpt lat="46.1484196" lon="13.5021447"><ele>395.20000000000005</ele><time>2026-05-02T11:44:44.836Z</time></trkpt><trkpt lat="46.1484846" lon="13.5020647"><ele>395.6</ele><time>2026-05-02T11:44:45.834Z</time></trkpt><trkpt lat="46.1485566" lon="13.5019768"><ele>396.0</ele><time>2026-05-02T11:44:46.844Z</time></trkpt><trkpt lat="46.1486235" lon="13.5018947"><ele>396.0</ele><time>2026-05-02T11:44:47.836Z</time></trkpt><trkpt lat="46.1486982" lon="13.5018178"><ele>396.0</ele><time>2026-05-02T11:44:48.833Z</time></trkpt><trkpt lat="46.1487844" lon="13.5017316"><ele>396.0</ele><time>2026-05-02T11:44:49.836Z</time></trkpt><trkpt lat="46.1488717" lon="13.5016487"><ele>396.0</ele><time>2026-05-02T11:44:50.831Z</time></trkpt><trkpt lat="46.1489386" lon="13.5015787"><ele>396.0</ele><time>2026-05-02T11:44:51.832Z</time></trkpt><trkpt lat="46.1489919" lon="13.5015208"><ele>399.0</ele><time>2026-05-02T11:44:52.839Z</time></trkpt><trkpt lat="46.1491013" lon="13.5014409"><ele>402.0</ele><time>2026-05-02T11:44:54.834Z</time></trkpt><trkpt lat="46.1491707" lon="13.5014284"><ele>405.0</ele><time>2026-05-02T11:44:55.833Z</time></trkpt><trkpt lat="46.1492506" lon="13.5014245"><ele>408.0</ele><time>2026-05-02T11:44:56.836Z</time></trkpt><trkpt lat="46.1493264" lon="13.5014297"><ele>411.0</ele><time>2026-05-02T11:44:57.843Z</time></trkpt><trkpt lat="46.1494016" lon="13.5014674"><ele>414.0</ele><time>2026-05-02T11:44:58.828Z</time></trkpt><trkpt lat="46.1494838" lon="13.5015157"><ele>414.0</ele><time>2026-05-02T11:44:59.831Z</time></trkpt><trkpt lat="46.1495587" lon="13.5015749"><ele>414.0</ele><time>2026-05-02T11:45:00.838Z</time></trkpt><trkpt lat="46.1496134" lon="13.5016273"><ele>414.0</ele><time>2026-05-02T11:45:01.836Z</time></trkpt><trkpt lat="46.1496768" lon="13.5016761"><ele>414.0</ele><time>2026-05-02T11:45:02.839Z</time></trkpt><trkpt lat="46.149815" lon="13.5017441"><ele>414.0</ele><time>2026-05-02T11:45:04.845Z</time></trkpt><trkpt lat="46.1498928" lon="13.5017627"><ele>414.0</ele><time>2026-05-02T11:45:05.841Z</time></trkpt><trkpt lat="46.1499764" lon="13.5017763"><ele>415.14285714285717</ele><time>2026-05-02T11:45:06.845Z</time></trkpt><trkpt lat="46.1500503" lon="13.5018092"><ele>416.2857142857143</ele><time>2026-05-02T11:45:07.841Z</time></trkpt><trkpt lat="46.1501159" lon="13.5018418"><ele>417.42857142857144</ele><time>2026-05-02T11:45:08.841Z</time></trkpt><trkpt lat="46.1501873" lon="13.5018668"><ele>418.57142857142856</ele><time>2026-05-02T11:45:09.839Z</time></trkpt><trkpt lat="46.1502522" lon="13.5018832"><ele>419.7142857142857</ele><time>2026-05-02T11:45:10.84Z</time></trkpt><trkpt lat="46.1503264" lon="13.5018982"><ele>420.8571428571429</ele><time>2026-05-02T11:45:11.835Z</time></trkpt><trkpt lat="46.1503947" lon="13.50192"><ele>422.0</ele><time>2026-05-02T11:45:12.84Z</time></trkpt><trkpt lat="46.1504755" lon="13.5019341"><ele>421.99999999999994</ele><time>2026-05-02T11:45:13.834Z</time></trkpt><trkpt lat="46.1505475" lon="13.5019453"><ele>422.0</ele><time>2026-05-02T11:45:14.839Z</time></trkpt><trkpt lat="46.1506143" lon="13.5019149"><ele>422.0</ele><time>2026-05-02T11:45:15.832Z</time></trkpt><trkpt lat="46.1506792" lon="13.5018648"><ele>422.0</ele><time>2026-05-02T11:45:16.838Z</time></trkpt><trkpt lat="46.1507302" lon="13.5017947"><ele>421.99999999999994</ele><time>2026-05-02T11:45:17.849Z</time></trkpt><trkpt lat="46.1507596" lon="13.5016967"><ele>422.0</ele><time>2026-05-02T11:45:18.836Z</time></trkpt><trkpt lat="46.1507896" lon="13.5015716"><ele>421.0</ele><time>2026-05-02T11:45:19.841Z</time></trkpt><trkpt lat="46.1508189" lon="13.5014466"><ele>420.0</ele><time>2026-05-02T11:45:20.839Z</time></trkpt><trkpt lat="46.1509148" lon="13.5012573"><ele>419.0</ele><time>2026-05-02T11:45:22.843Z</time></trkpt><trkpt lat="46.150964" lon="13.5011887"><ele>418.0</ele><time>2026-05-02T11:45:23.842Z</time></trkpt><trkpt lat="46.1510941" lon="13.5011759"><ele>418.0</ele><time>2026-05-02T11:45:27.837Z</time></trkpt><trkpt lat="46.1511998" lon="13.5012447"><ele>418.0</ele><time>2026-05-02T11:45:29.841Z</time></trkpt><trkpt lat="46.151317" lon="13.5011642"><ele>418.0</ele><time>2026-05-02T11:45:31.831Z</time></trkpt><trkpt lat="46.1513482" lon="13.501076"><ele>418.0</ele><time>2026-05-02T11:45:32.832Z</time></trkpt><trkpt lat="46.1513864" lon="13.5009694"><ele>418.0</ele><time>2026-05-02T11:45:33.834Z</time></trkpt><trkpt lat="46.1514315" lon="13.5008489"><ele>418.0</ele><time>2026-05-02T11:45:34.831Z</time></trkpt><trkpt lat="46.1514759" lon="13.5007466"><ele>418.0</ele><time>2026-05-02T11:45:35.835Z</time></trkpt><trkpt lat="46.1515068" lon="13.5006634"><ele>418.0</ele><time>2026-05-02T11:45:36.83Z</time></trkpt><trkpt lat="46.1515856" lon="13.500621"><ele>418.0</ele><time>2026-05-02T11:45:38.84Z</time></trkpt><trkpt lat="46.1516881" lon="13.5006308"><ele>418.0</ele><time>2026-05-02T11:45:40.833Z</time></trkpt><trkpt lat="46.1518165" lon="13.5006416"><ele>423.79999999999995</ele><time>2026-05-02T11:45:42.829Z</time></trkpt><trkpt lat="46.1518899" lon="13.500644"><ele>429.6</ele><time>2026-05-02T11:45:43.835Z</time></trkpt><trkpt lat="46.1519555" lon="13.5006333"><ele>435.40000000000003</ele><time>2026-05-02T11:45:44.837Z</time></trkpt><trkpt lat="46.1521524" lon="13.5006486"><ele>441.20000000000005</ele><time>2026-05-02T11:45:47.834Z</time></trkpt><trkpt lat="46.1522414" lon="13.5006644"><ele>447.0</ele><time>2026-05-02T11:45:48.831Z</time></trkpt><trkpt lat="46.1523263" lon="13.5006735"><ele>449.3333333333333</ele><time>2026-05-02T11:45:49.833Z</time></trkpt><trkpt lat="46.1524076" lon="13.5006772"><ele>451.66666666666663</ele><time>2026-05-02T11:45:50.835Z</time></trkpt><trkpt lat="46.15249" lon="13.5006843"><ele>454.0</ele><time>2026-05-02T11:45:51.836Z</time></trkpt><trkpt lat="46.1525714" lon="13.5006972"><ele>456.3333333333333</ele><time>2026-05-02T11:45:52.834Z</time></trkpt><trkpt lat="46.1526431" lon="13.5007296"><ele>458.66666666666663</ele><time>2026-05-02T11:45:53.837Z</time></trkpt><trkpt lat="46.152713" lon="13.5007885"><ele>461.0</ele><time>2026-05-02T11:45:54.837Z</time></trkpt><trkpt lat="46.1527893" lon="13.5008811"><ele>461.0</ele><time>2026-05-02T11:45:55.838Z</time></trkpt><trkpt lat="46.1528619" lon="13.5009706"><ele>461.0</ele><time>2026-05-02T11:45:56.843Z</time></trkpt><trkpt lat="46.1529411" lon="13.5010598"><ele>461.0</ele><time>2026-05-02T11:45:57.831Z</time></trkpt><trkpt lat="46.1530231" lon="13.5011418"><ele>461.0</ele><time>2026-05-02T11:45:58.843Z</time></trkpt><trkpt lat="46.153105" lon="13.5012127"><ele>461.0</ele><time>2026-05-02T11:45:59.835Z</time></trkpt><trkpt lat="46.1531856" lon="13.5012662"><ele>462.8333333333333</ele><time>2026-05-02T11:46:00.839Z</time></trkpt><trkpt lat="46.1532639" lon="13.5013169"><ele>464.66666666666663</ele><time>2026-05-02T11:46:01.832Z</time></trkpt><trkpt lat="46.1533382" lon="13.5013561"><ele>466.5</ele><time>2026-05-02T11:46:02.839Z</time></trkpt><trkpt lat="46.1534148" lon="13.5013866"><ele>468.33333333333337</ele><time>2026-05-02T11:46:03.853Z</time></trkpt><trkpt lat="46.1534979" lon="13.5013938"><ele>470.1666666666667</ele><time>2026-05-02T11:46:04.831Z</time></trkpt><trkpt lat="46.1535856" lon="13.5013893"><ele>472.0</ele><time>2026-05-02T11:46:05.841Z</time></trkpt><trkpt lat="46.1537669" lon="13.5013482"><ele>472.00000000000006</ele><time>2026-05-02T11:46:07.838Z</time></trkpt><trkpt lat="46.1538451" lon="13.5013215"><ele>472.0</ele><time>2026-05-02T11:46:08.834Z</time></trkpt><trkpt lat="46.1539168" lon="13.5012822"><ele>472.0</ele><time>2026-05-02T11:46:09.831Z</time></trkpt><trkpt lat="46.153991" lon="13.5012165"><ele>472.0</ele><time>2026-05-02T11:46:10.833Z</time></trkpt><trkpt lat="46.154066" lon="13.5011447"><ele>472.00000000000006</ele><time>2026-05-02T11:46:11.84Z</time></trkpt><trkpt lat="46.1541335" lon="13.5010815"><ele>472.0</ele><time>2026-05-02T11:46:12.834Z</time></trkpt><trkpt lat="46.1542066" lon="13.5010168"><ele>467.83333333333337</ele><time>2026-05-02T11:46:13.828Z</time></trkpt><trkpt lat="46.1542725" lon="13.500959"><ele>463.6666666666667</ele><time>2026-05-02T11:46:14.833Z</time></trkpt><trkpt lat="46.1543384" lon="13.5009049"><ele>459.5</ele><time>2026-05-02T11:46:15.833Z</time></trkpt><trkpt lat="46.1544067" lon="13.5008418"><ele>455.33333333333337</ele><time>2026-05-02T11:46:16.844Z</time></trkpt><trkpt lat="46.1544762" lon="13.5007894"><ele>451.1666666666667</ele><time>2026-05-02T11:46:17.84Z</time></trkpt><trkpt lat="46.1545805" lon="13.5007574"><ele>447.0</ele><time>2026-05-02T11:46:19.841Z</time></trkpt><trkpt lat="46.1546408" lon="13.5007857"><ele>447.0</ele><time>2026-05-02T11:46:20.837Z</time></trkpt><trkpt lat="46.1547089" lon="13.5008205"><ele>447.0</ele><time>2026-05-02T11:46:21.833Z</time></trkpt><trkpt lat="46.1547648" lon="13.5008714"><ele>447.0</ele><time>2026-05-02T11:46:22.836Z</time></trkpt><trkpt lat="46.1548096" lon="13.5009376"><ele>447.0</ele><time>2026-05-02T11:46:23.834Z</time></trkpt><trkpt lat="46.154863" lon="13.5010963"><ele>447.0</ele><time>2026-05-02T11:46:25.83Z</time></trkpt><trkpt lat="46.1548867" lon="13.5011921"><ele>447.0</ele><time>2026-05-02T11:46:26.835Z</time></trkpt><trkpt lat="46.1549744" lon="13.5015039"><ele>447.40000000000003</ele><time>2026-05-02T11:46:30.836Z</time></trkpt><trkpt lat="46.1549971" lon="13.5016462"><ele>447.80000000000007</ele><time>2026-05-02T11:46:32.837Z</time></trkpt><trkpt lat="46.1550151" lon="13.5017797"><ele>448.2</ele><time>2026-05-02T11:46:34.84Z</time></trkpt><trkpt lat="46.1550599" lon="13.5018858"><ele>448.6</ele><time>2026-05-02T11:46:36.832Z</time></trkpt><trkpt lat="46.1551159" lon="13.5019763"><ele>449.0</ele><time>2026-05-02T11:46:38.84Z</time></trkpt><trkpt lat="46.1552145" lon="13.5019576"><ele>448.99999999999994</ele><time>2026-05-02T11:46:41.827Z</time></trkpt><trkpt lat="46.1552748" lon="13.5019128"><ele>449.0</ele><time>2026-05-02T11:46:42.837Z</time></trkpt><trkpt lat="46.1553348" lon="13.5018501"><ele>449.0</ele><time>2026-05-02T11:46:43.838Z</time></trkpt><trkpt lat="46.1554132" lon="13.5017979"><ele>449.0</ele><time>2026-05-02T11:46:44.842Z</time></trkpt><trkpt lat="46.1554943" lon="13.5017588"><ele>448.99999999999994</ele><time>2026-05-02T11:46:45.829Z</time></trkpt><trkpt lat="46.1555712" lon="13.501709"><ele>449.0</ele><time>2026-05-02T11:46:46.835Z</time></trkpt><trkpt lat="46.1556555" lon="13.5016771"><ele>446.0</ele><time>2026-05-02T11:46:47.83Z</time></trkpt><trkpt lat="46.1558283" lon="13.5016725"><ele>443.0</ele><time>2026-05-02T11:46:49.838Z</time></trkpt><trkpt lat="46.1559375" lon="13.5017081"><ele>440.0</ele><time>2026-05-02T11:46:50.834Z</time></trkpt><trkpt lat="46.1560462" lon="13.5017544"><ele>437.0</ele><time>2026-05-02T11:46:51.831Z</time></trkpt><trkpt lat="46.1561551" lon="13.5018301"><ele>437.0</ele><time>2026-05-02T11:46:52.84Z</time></trkpt><trkpt lat="46.1562599" lon="13.5019018"><ele>437.00000000000006</ele><time>2026-05-02T11:46:53.846Z</time></trkpt><trkpt lat="46.1563427" lon="13.501973"><ele>437.00000000000006</ele><time>2026-05-02T11:46:54.84Z</time></trkpt><trkpt lat="46.1564349" lon="13.5020073"><ele>437.0</ele><time>2026-05-02T11:46:55.831Z</time></trkpt><trkpt lat="46.1565146" lon="13.5020216"><ele>437.0</ele><time>2026-05-02T11:46:56.831Z</time></trkpt><trkpt lat="46.1566085" lon="13.502048"><ele>437.0</ele><time>2026-05-02T11:46:58.835Z</time></trkpt><trkpt lat="46.1566902" lon="13.50206"><ele>437.0</ele><time>2026-05-02T11:47:00.833Z</time></trkpt><trkpt lat="46.1566983" lon="13.5019611"><ele>437.0</ele><time>2026-05-02T11:47:36.835Z</time></trkpt><trkpt lat="46.1568381" lon="13.501737"><ele>437.0</ele><time>2026-05-02T11:47:40.829Z</time></trkpt><trkpt lat="46.1569141" lon="13.5016503"><ele>437.0</ele><time>2026-05-02T11:47:41.838Z</time></trkpt><trkpt lat="46.1569941" lon="13.5015519"><ele>437.00000000000006</ele><time>2026-05-02T11:47:42.849Z</time></trkpt><trkpt lat="46.1570692" lon="13.5014622"><ele>437.00000000000006</ele><time>2026-05-02T11:47:43.834Z</time></trkpt><trkpt lat="46.1571545" lon="13.5013801"><ele>437.0</ele><time>2026-05-02T11:47:44.832Z</time></trkpt><trkpt lat="46.15724" lon="13.5013181"><ele>437.0</ele><time>2026-05-02T11:47:45.835Z</time></trkpt><trkpt lat="46.1573359" lon="13.5012446"><ele>438.6</ele><time>2026-05-02T11:47:46.837Z</time></trkpt><trkpt lat="46.1574237" lon="13.5011718"><ele>440.20000000000005</ele><time>2026-05-02T11:47:47.835Z</time></trkpt><trkpt lat="46.1575092" lon="13.5010981"><ele>441.8</ele><time>2026-05-02T11:47:48.836Z</time></trkpt><trkpt lat="46.1575949" lon="13.5010315"><ele>443.4</ele><time>2026-05-02T11:47:49.829Z</time></trkpt><trkpt lat="46.1576819" lon="13.5009795"><ele>445.0</ele><time>2026-05-02T11:47:50.833Z</time></trkpt><trkpt lat="46.1577567" lon="13.50095"><ele>445.00000000000006</ele><time>2026-05-02T11:47:51.835Z</time></trkpt><trkpt lat="46.1578336" lon="13.500967"><ele>445.0</ele><time>2026-05-02T11:47:52.831Z</time></trkpt><trkpt lat="46.1578968" lon="13.5010382"><ele>445.0</ele><time>2026-05-02T11:47:53.835Z</time></trkpt><trkpt lat="46.1579427" lon="13.5011572"><ele>445.0</ele><time>2026-05-02T11:47:54.838Z</time></trkpt><trkpt lat="46.15797" lon="13.5012872"><ele>445.00000000000006</ele><time>2026-05-02T11:47:55.837Z</time></trkpt><trkpt lat="46.1579897" lon="13.5014114"><ele>445.0</ele><time>2026-05-02T11:47:56.835Z</time></trkpt><trkpt lat="46.1580205" lon="13.5015185"><ele>448.0</ele><time>2026-05-02T11:47:57.839Z</time></trkpt><trkpt lat="46.1580469" lon="13.5016104"><ele>451.0</ele><time>2026-05-02T11:47:58.828Z</time></trkpt><trkpt lat="46.1581948" lon="13.5016224"><ele>454.0</ele><time>2026-05-02T11:48:02.831Z</time></trkpt><trkpt lat="46.158249" lon="13.501574"><ele>457.0</ele><time>2026-05-02T11:48:03.841Z</time></trkpt><trkpt lat="46.1583544" lon="13.5014769"><ele>460.0</ele><time>2026-05-02T11:48:05.828Z</time></trkpt><trkpt lat="46.1584765" lon="13.5014716"><ele>460.71428571428567</ele><time>2026-05-02T11:48:07.836Z</time></trkpt><trkpt lat="46.1585458" lon="13.5015041"><ele>461.42857142857144</ele><time>2026-05-02T11:48:08.833Z</time></trkpt><trkpt lat="46.1586088" lon="13.501547"><ele>462.1428571428571</ele><time>2026-05-02T11:48:09.833Z</time></trkpt><trkpt lat="46.1586705" lon="13.5015856"><ele>462.85714285714283</ele><time>2026-05-02T11:48:10.845Z</time></trkpt><trkpt lat="46.1587372" lon="13.5016046"><ele>463.57142857142856</ele><time>2026-05-02T11:48:11.832Z</time></trkpt><trkpt lat="46.1588045" lon="13.5016076"><ele>464.2857142857143</ele><time>2026-05-02T11:48:12.83Z</time></trkpt><trkpt lat="46.1588721" lon="13.5015957"><ele>465.0</ele><time>2026-05-02T11:48:13.836Z</time></trkpt><trkpt lat="46.1589412" lon="13.5015833"><ele>465.0</ele><time>2026-05-02T11:48:14.839Z</time></trkpt><trkpt lat="46.1590128" lon="13.5015669"><ele>465.0</ele><time>2026-05-02T11:48:15.833Z</time></trkpt><trkpt lat="46.1591164" lon="13.5014859"><ele>465.0</ele><time>2026-05-02T11:48:17.843Z</time></trkpt><trkpt lat="46.1591621" lon="13.5014174"><ele>465.0</ele><time>2026-05-02T11:48:18.834Z</time></trkpt><trkpt lat="46.1592319" lon="13.5013352"><ele>465.0</ele><time>2026-05-02T11:48:19.836Z</time></trkpt><trkpt lat="46.1593697" lon="13.5011633"><ele>465.4</ele><time>2026-05-02T11:48:21.841Z</time></trkpt><trkpt lat="46.1594421" lon="13.501081"><ele>465.8</ele><time>2026-05-02T11:48:22.836Z</time></trkpt><trkpt lat="46.1595236" lon="13.5010103"><ele>466.20000000000005</ele><time>2026-05-02T11:48:23.834Z</time></trkpt><trkpt lat="46.1595956" lon="13.5009121"><ele>466.6</ele><time>2026-05-02T11:48:24.844Z</time></trkpt><trkpt lat="46.1596768" lon="13.5008307"><ele>467.0</ele><time>2026-05-02T11:48:25.83Z</time></trkpt><trkpt lat="46.1597544" lon="13.5007379"><ele>467.0</ele><time>2026-05-02T11:48:26.844Z</time></trkpt><trkpt lat="46.1598437" lon="13.5006691"><ele>467.00000000000006</ele><time>2026-05-02T11:48:27.831Z</time></trkpt><trkpt lat="46.1599435" lon="13.5006115"><ele>467.00000000000006</ele><time>2026-05-02T11:48:28.845Z</time></trkpt><trkpt lat="46.1600449" lon="13.5005345"><ele>467.0</ele><time>2026-05-02T11:48:29.834Z</time></trkpt><trkpt lat="46.1601346" lon="13.500474"><ele>467.0</ele><time>2026-05-02T11:48:30.833Z</time></trkpt><trkpt lat="46.1602284" lon="13.5004148"><ele>467.99999999999994</ele><time>2026-05-02T11:48:31.84Z</time></trkpt><trkpt lat="46.1603093" lon="13.5003609"><ele>469.0</ele><time>2026-05-02T11:48:32.836Z</time></trkpt><trkpt lat="46.160372" lon="13.5003073"><ele>470.0</ele><time>2026-05-02T11:48:33.832Z</time></trkpt><trkpt lat="46.1604293" lon="13.5002506"><ele>471.0</ele><time>2026-05-02T11:48:34.834Z</time></trkpt><trkpt lat="46.160496" lon="13.500183"><ele>471.99999999999994</ele><time>2026-05-02T11:48:35.833Z</time></trkpt><trkpt lat="46.1605606" lon="13.5001016"><ele>473.0</ele><time>2026-05-02T11:48:36.844Z</time></trkpt><trkpt lat="46.1606369" lon="13.4999991"><ele>475.75</ele><time>2026-05-02T11:48:37.832Z</time></trkpt><trkpt lat="46.1607215" lon="13.4998709"><ele>478.5</ele><time>2026-05-02T11:48:38.832Z</time></trkpt><trkpt lat="46.1607904" lon="13.4997216"><ele>481.25</ele><time>2026-05-02T11:48:39.83Z</time></trkpt><trkpt lat="46.1608597" lon="13.4995689"><ele>484.0</ele><time>2026-05-02T11:48:40.843Z</time></trkpt><trkpt lat="46.1609849" lon="13.4992771"><ele>484.0</ele><time>2026-05-02T11:48:42.834Z</time></trkpt><trkpt lat="46.1610533" lon="13.4991462"><ele>484.0</ele><time>2026-05-02T11:48:43.844Z</time></trkpt><trkpt lat="46.161121" lon="13.4990257"><ele>484.0</ele><time>2026-05-02T11:48:44.834Z</time></trkpt><trkpt lat="46.161193" lon="13.4988996"><ele>484.0</ele><time>2026-05-02T11:48:45.834Z</time></trkpt><trkpt lat="46.1612742" lon="13.4987852"><ele>484.0</ele><time>2026-05-02T11:48:46.832Z</time></trkpt><trkpt lat="46.1613534" lon="13.498682"><ele>486.2</ele><time>2026-05-02T11:48:47.835Z</time></trkpt><trkpt lat="46.1614334" lon="13.498584"><ele>488.4</ele><time>2026-05-02T11:48:48.852Z</time></trkpt><trkpt lat="46.1615124" lon="13.4985021"><ele>490.6</ele><time>2026-05-02T11:48:49.836Z</time></trkpt><trkpt lat="46.1615948" lon="13.4984245"><ele>492.8</ele><time>2026-05-02T11:48:50.836Z</time></trkpt><trkpt lat="46.1616633" lon="13.4983373"><ele>495.0</ele><time>2026-05-02T11:48:51.833Z</time></trkpt><trkpt lat="46.1617361" lon="13.4982568"><ele>495.0</ele><time>2026-05-02T11:48:52.833Z</time></trkpt><trkpt lat="46.1618037" lon="13.4981687"><ele>495.0</ele><time>2026-05-02T11:48:53.83Z</time></trkpt><trkpt lat="46.1618818" lon="13.4980832"><ele>495.0</ele><time>2026-05-02T11:48:54.831Z</time></trkpt><trkpt lat="46.161968" lon="13.4980312"><ele>495.0</ele><time>2026-05-02T11:48:55.833Z</time></trkpt><trkpt lat="46.1620579" lon="13.4979939"><ele>495.0</ele><time>2026-05-02T11:48:56.845Z</time></trkpt><trkpt lat="46.1621313" lon="13.4979963"><ele>495.0</ele><time>2026-05-02T11:48:57.852Z</time></trkpt><trkpt lat="46.1621941" lon="13.498023"><ele>495.0</ele><time>2026-05-02T11:48:58.835Z</time></trkpt><trkpt lat="46.1623201" lon="13.4980658"><ele>495.0</ele><time>2026-05-02T11:49:00.831Z</time></trkpt><trkpt lat="46.1624487" lon="13.4980378"><ele>495.0</ele><time>2026-05-02T11:49:02.837Z</time></trkpt><trkpt lat="46.1626242" lon="13.4979267"><ele>494.2</ele><time>2026-05-02T11:49:04.828Z</time></trkpt><trkpt lat="46.1627074" lon="13.4978615"><ele>493.4</ele><time>2026-05-02T11:49:05.832Z</time></trkpt><trkpt lat="46.1628023" lon="13.4977988"><ele>492.6</ele><time>2026-05-02T11:49:06.838Z</time></trkpt><trkpt lat="46.1628896" lon="13.4977318"><ele>491.8</ele><time>2026-05-02T11:49:07.833Z</time></trkpt><trkpt lat="46.1629614" lon="13.4976668"><ele>491.0</ele><time>2026-05-02T11:49:08.839Z</time></trkpt><trkpt lat="46.1630251" lon="13.4976173"><ele>491.0</ele><time>2026-05-02T11:49:09.834Z</time></trkpt><trkpt lat="46.1630933" lon="13.4975467"><ele>491.0</ele><time>2026-05-02T11:49:10.832Z</time></trkpt><trkpt lat="46.1631669" lon="13.4974652"><ele>491.0</ele><time>2026-05-02T11:49:11.831Z</time></trkpt><trkpt lat="46.1632472" lon="13.4973855"><ele>491.0</ele><time>2026-05-02T11:49:12.84Z</time></trkpt><trkpt lat="46.1633326" lon="13.4973148"><ele>491.0</ele><time>2026-05-02T11:49:13.835Z</time></trkpt><trkpt lat="46.1634166" lon="13.4972289"><ele>493.4</ele><time>2026-05-02T11:49:14.836Z</time></trkpt><trkpt lat="46.1634985" lon="13.4971463"><ele>495.8</ele><time>2026-05-02T11:49:15.832Z</time></trkpt><trkpt lat="46.1635779" lon="13.4970583"><ele>498.19999999999993</ele><time>2026-05-02T11:49:16.831Z</time></trkpt><trkpt lat="46.1636528" lon="13.4969681"><ele>500.59999999999997</ele><time>2026-05-02T11:49:17.838Z</time></trkpt><trkpt lat="46.1637211" lon="13.4968973"><ele>503.0</ele><time>2026-05-02T11:49:18.847Z</time></trkpt><trkpt lat="46.1637959" lon="13.4968297"><ele>503.0</ele><time>2026-05-02T11:49:19.836Z</time></trkpt><trkpt lat="46.1638827" lon="13.4968403"><ele>503.0</ele><time>2026-05-02T11:49:21.833Z</time></trkpt><trkpt lat="46.1638606" lon="13.4969619"><ele>503.0</ele><time>2026-05-02T11:49:23.829Z</time></trkpt><trkpt lat="46.1637105" lon="13.497228"><ele>503.0</ele><time>2026-05-02T11:49:27.83Z</time></trkpt><trkpt lat="46.1636549" lon="13.4973267"><ele>507.79999999999995</ele><time>2026-05-02T11:49:28.837Z</time></trkpt><trkpt lat="46.1636025" lon="13.4974431"><ele>512.5999999999999</ele><time>2026-05-02T11:49:29.835Z</time></trkpt><trkpt lat="46.1635546" lon="13.4975637"><ele>517.4000000000001</ele><time>2026-05-02T11:49:30.837Z</time></trkpt><trkpt lat="46.1635124" lon="13.4976884"><ele>522.2</ele><time>2026-05-02T11:49:31.84Z</time></trkpt><trkpt lat="46.1634567" lon="13.4977892"><ele>527.0</ele><time>2026-05-02T11:49:32.838Z</time></trkpt><trkpt lat="46.1634026" lon="13.4978928"><ele>524.8333333333333</ele><time>2026-05-02T11:49:33.832Z</time></trkpt><trkpt lat="46.1633592" lon="13.4979996"><ele>522.6666666666666</ele><time>2026-05-02T11:49:34.831Z</time></trkpt><trkpt lat="46.1633248" lon="13.4981239"><ele>520.5</ele><time>2026-05-02T11:49:35.833Z</time></trkpt><trkpt lat="46.1632918" lon="13.4982321"><ele>518.3333333333334</ele><time>2026-05-02T11:49:36.835Z</time></trkpt><trkpt lat="46.163259" lon="13.4983465"><ele>516.1666666666667</ele><time>2026-05-02T11:49:37.829Z</time></trkpt><trkpt lat="46.1632253" lon="13.4984678"><ele>514.0</ele><time>2026-05-02T11:49:38.838Z</time></trkpt><trkpt lat="46.1631872" lon="13.4985779"><ele>514.0</ele><time>2026-05-02T11:49:39.831Z</time></trkpt><trkpt lat="46.1631514" lon="13.4986755"><ele>514.0</ele><time>2026-05-02T11:49:40.838Z</time></trkpt><trkpt lat="46.1630937" lon="13.4987951"><ele>514.0</ele><time>2026-05-02T11:49:42.841Z</time></trkpt><trkpt lat="46.1631484" lon="13.4987294"><ele>514.0</ele><time>2026-05-02T11:49:46.84Z</time></trkpt><trkpt lat="46.1632578" lon="13.4985463"><ele>514.0</ele><time>2026-05-02T11:49:49.828Z</time></trkpt><trkpt lat="46.1633152" lon="13.4984736"><ele>519.6666666666667</ele><time>2026-05-02T11:49:50.836Z</time></trkpt><trkpt lat="46.163382" lon="13.4983902"><ele>525.3333333333334</ele><time>2026-05-02T11:49:51.833Z</time></trkpt><trkpt lat="46.1634429" lon="13.4983225"><ele>531.0</ele><time>2026-05-02T11:49:52.833Z</time></trkpt><trkpt lat="46.1635082" lon="13.4982587"><ele>536.6666666666666</ele><time>2026-05-02T11:49:53.833Z</time></trkpt><trkpt lat="46.1635775" lon="13.4981924"><ele>542.3333333333333</ele><time>2026-05-02T11:49:54.837Z</time></trkpt><trkpt lat="46.163645" lon="13.4981255"><ele>548.0</ele><time>2026-05-02T11:49:55.83Z</time></trkpt><trkpt lat="46.1637004" lon="13.4980421"><ele>548.0</ele><time>2026-05-02T11:49:56.835Z</time></trkpt><trkpt lat="46.1637656" lon="13.4979781"><ele>548.0</ele><time>2026-05-02T11:49:57.838Z</time></trkpt><trkpt lat="46.163841" lon="13.4979226"><ele>548.0</ele><time>2026-05-02T11:49:58.84Z</time></trkpt><trkpt lat="46.1639216" lon="13.4978731"><ele>548.0</ele><time>2026-05-02T11:49:59.828Z</time></trkpt><trkpt lat="46.1640079" lon="13.4978227"><ele>548.0</ele><time>2026-05-02T11:50:00.829Z</time></trkpt><trkpt lat="46.1640949" lon="13.4977876"><ele>548.0</ele><time>2026-05-02T11:50:01.829Z</time></trkpt><trkpt lat="46.1641749" lon="13.4977658"><ele>548.3333333333333</ele><time>2026-05-02T11:50:02.832Z</time></trkpt><trkpt lat="46.1642582" lon="13.4977484"><ele>548.6666666666666</ele><time>2026-05-02T11:50:03.837Z</time></trkpt><trkpt lat="46.1643315" lon="13.4977541"><ele>549.0</ele><time>2026-05-02T11:50:04.838Z</time></trkpt><trkpt lat="46.164394" lon="13.4977787"><ele>549.3333333333334</ele><time>2026-05-02T11:50:05.832Z</time></trkpt><trkpt lat="46.1644556" lon="13.4978278"><ele>549.6666666666667</ele><time>2026-05-02T11:50:06.843Z</time></trkpt><trkpt lat="46.164501" lon="13.4978955"><ele>550.0</ele><time>2026-05-02T11:50:07.828Z</time></trkpt><trkpt lat="46.1645572" lon="13.4980979"><ele>554.0</ele><time>2026-05-02T11:50:09.842Z</time></trkpt><trkpt lat="46.1645634" lon="13.4982413"><ele>558.0</ele><time>2026-05-02T11:50:10.83Z</time></trkpt><trkpt lat="46.1645571" lon="13.4983828"><ele>562.0</ele><time>2026-05-02T11:50:11.835Z</time></trkpt><trkpt lat="46.164542" lon="13.4985184"><ele>566.0</ele><time>2026-05-02T11:50:12.831Z</time></trkpt><trkpt lat="46.1645181" lon="13.4986376"><ele>570.0</ele><time>2026-05-02T11:50:13.843Z</time></trkpt><trkpt lat="46.1644887" lon="13.4987436"><ele>570.5</ele><time>2026-05-02T11:50:14.834Z</time></trkpt><trkpt lat="46.1644692" lon="13.4988316"><ele>571.0</ele><time>2026-05-02T11:50:15.829Z</time></trkpt><trkpt lat="46.1644167" lon="13.4989011"><ele>571.5</ele><time>2026-05-02T11:50:16.842Z</time></trkpt><trkpt lat="46.1643543" lon="13.4989598"><ele>572.0</ele><time>2026-05-02T11:50:17.833Z</time></trkpt><trkpt lat="46.1640967" lon="13.4992056"><ele>572.0</ele><time>2026-05-02T11:50:21.838Z</time></trkpt><trkpt lat="46.164043" lon="13.4992923"><ele>572.0</ele><time>2026-05-02T11:50:22.845Z</time></trkpt><trkpt lat="46.1639929" lon="13.499382"><ele>572.0</ele><time>2026-05-02T11:50:23.838Z</time></trkpt><trkpt lat="46.1639428" lon="13.4994749"><ele>572.0</ele><time>2026-05-02T11:50:24.838Z</time></trkpt><trkpt lat="46.1638985" lon="13.4995681"><ele>572.0</ele><time>2026-05-02T11:50:25.841Z</time></trkpt><trkpt lat="46.1638641" lon="13.4997234"><ele>572.0</ele><time>2026-05-02T11:50:27.828Z</time></trkpt><trkpt lat="46.1638226" lon="13.4998518"><ele>575.25</ele><time>2026-05-02T11:50:29.838Z</time></trkpt><trkpt lat="46.1637775" lon="13.5000431"><ele>578.5</ele><time>2026-05-02T11:50:56.829Z</time></trkpt><trkpt lat="46.1637354" lon="13.5002113"><ele>581.75</ele><time>2026-05-02T11:51:01.837Z</time></trkpt><trkpt lat="46.1637039" lon="13.5003421"><ele>585.0</ele><time>2026-05-02T11:53:19.837Z</time></trkpt><trkpt lat="46.1636039" lon="13.5006287"><ele>585.0</ele><time>2026-05-02T11:53:23.83Z</time></trkpt><trkpt lat="46.1635716" lon="13.5007404"><ele>585.0</ele><time>2026-05-02T11:53:24.836Z</time></trkpt><trkpt lat="46.1635517" lon="13.5008662"><ele>585.0</ele><time>2026-05-02T11:53:25.833Z</time></trkpt><trkpt lat="46.16352" lon="13.5009745"><ele>585.0</ele><time>2026-05-02T11:53:26.831Z</time></trkpt><trkpt lat="46.1634996" lon="13.5010728"><ele>585.0</ele><time>2026-05-02T11:53:27.831Z</time></trkpt><trkpt lat="46.1634825" lon="13.5011761"><ele>585.0</ele><time>2026-05-02T11:53:28.827Z</time></trkpt><trkpt lat="46.1634698" lon="13.5012793"><ele>585.1666666666666</ele><time>2026-05-02T11:53:29.839Z</time></trkpt><trkpt lat="46.1634664" lon="13.501388"><ele>585.3333333333334</ele><time>2026-05-02T11:53:30.838Z</time></trkpt><trkpt lat="46.1634775" lon="13.5015052"><ele>585.5</ele><time>2026-05-02T11:53:31.831Z</time></trkpt><trkpt lat="46.1634881" lon="13.5016244"><ele>585.6666666666667</ele><time>2026-05-02T11:53:32.83Z</time></trkpt><trkpt lat="46.1635051" lon="13.5017382"><ele>585.8333333333334</ele><time>2026-05-02T11:53:33.838Z</time></trkpt><trkpt lat="46.1635251" lon="13.5018445"><ele>586.0</ele><time>2026-05-02T11:53:34.835Z</time></trkpt><trkpt lat="46.163535" lon="13.5019492"><ele>586.0</ele><time>2026-05-02T11:53:35.838Z</time></trkpt><trkpt lat="46.1635426" lon="13.5020583"><ele>586.0</ele><time>2026-05-02T11:53:36.842Z</time></trkpt><trkpt lat="46.1635514" lon="13.5021881"><ele>586.0</ele><time>2026-05-02T11:53:37.829Z</time></trkpt><trkpt lat="46.1635493" lon="13.5023323"><ele>586.0</ele><time>2026-05-02T11:53:38.835Z</time></trkpt><trkpt lat="46.1635437" lon="13.5024792"><ele>586.0</ele><time>2026-05-02T11:53:39.827Z</time></trkpt><trkpt lat="46.1635163" lon="13.5026215"><ele>585.0</ele><time>2026-05-02T11:53:40.839Z</time></trkpt><trkpt lat="46.1634872" lon="13.5029187"><ele>584.0</ele><time>2026-05-02T11:53:42.827Z</time></trkpt><trkpt lat="46.1634763" lon="13.5030597"><ele>583.0</ele><time>2026-05-02T11:53:43.846Z</time></trkpt><trkpt lat="46.1634742" lon="13.5032022"><ele>582.0</ele><time>2026-05-02T11:53:44.83Z</time></trkpt><trkpt lat="46.1634811" lon="13.5033497"><ele>582.0</ele><time>2026-05-02T11:53:45.833Z</time></trkpt><trkpt lat="46.1634895" lon="13.5035066"><ele>582.0</ele><time>2026-05-02T11:53:46.833Z</time></trkpt><trkpt lat="46.1634995" lon="13.5036712"><ele>582.0</ele><time>2026-05-02T11:53:47.829Z</time></trkpt><trkpt lat="46.1635018" lon="13.5038347"><ele>582.0</ele><time>2026-05-02T11:53:48.827Z</time></trkpt><trkpt lat="46.1634986" lon="13.5040027"><ele>582.2</ele><time>2026-05-02T11:53:49.835Z</time></trkpt><trkpt lat="46.1634971" lon="13.5041668"><ele>582.4000000000001</ele><time>2026-05-02T11:53:50.832Z</time></trkpt><trkpt lat="46.1634947" lon="13.5043196"><ele>582.5999999999999</ele><time>2026-05-02T11:53:51.832Z</time></trkpt><trkpt lat="46.1634943" lon="13.5044636"><ele>582.8</ele><time>2026-05-02T11:53:52.836Z</time></trkpt><trkpt lat="46.1634934" lon="13.5046181"><ele>583.0</ele><time>2026-05-02T11:53:53.828Z</time></trkpt><trkpt lat="46.1634815" lon="13.5047828"><ele>583.1999999999999</ele><time>2026-05-02T11:53:54.83Z</time></trkpt><trkpt lat="46.1634721" lon="13.5049458"><ele>583.4</ele><time>2026-05-02T11:53:55.831Z</time></trkpt><trkpt lat="46.1634629" lon="13.5050973"><ele>583.5999999999999</ele><time>2026-05-02T11:53:56.831Z</time></trkpt><trkpt lat="46.1634488" lon="13.5052483"><ele>583.8</ele><time>2026-05-02T11:53:57.832Z</time></trkpt><trkpt lat="46.1634459" lon="13.5054003"><ele>584.0</ele><time>2026-05-02T11:53:58.829Z</time></trkpt><trkpt lat="46.163455" lon="13.5055637"><ele>584.0</ele><time>2026-05-02T11:53:59.837Z</time></trkpt><trkpt lat="46.1634626" lon="13.5057131"><ele>584.0</ele><time>2026-05-02T11:54:00.833Z</time></trkpt><trkpt lat="46.1634735" lon="13.5058655"><ele>584.0</ele><time>2026-05-02T11:54:01.836Z</time></trkpt><trkpt lat="46.1635159" lon="13.5061507"><ele>584.0</ele><time>2026-05-02T11:54:03.836Z</time></trkpt><trkpt lat="46.1635524" lon="13.5062994"><ele>586.0</ele><time>2026-05-02T11:54:04.83Z</time></trkpt><trkpt lat="46.1635851" lon="13.5064664"><ele>588.0</ele><time>2026-05-02T11:54:05.832Z</time></trkpt><trkpt lat="46.1636069" lon="13.5066372"><ele>590.0</ele><time>2026-05-02T11:54:06.832Z</time></trkpt><trkpt lat="46.1636368" lon="13.5067983"><ele>592.0</ele><time>2026-05-02T11:54:07.829Z</time></trkpt><trkpt lat="46.1636508" lon="13.5069556"><ele>595.0</ele><time>2026-05-02T11:54:08.831Z</time></trkpt><trkpt lat="46.1636631" lon="13.5071091"><ele>598.0</ele><time>2026-05-02T11:54:09.837Z</time></trkpt><trkpt lat="46.1636689" lon="13.5072455"><ele>601.0</ele><time>2026-05-02T11:54:10.837Z</time></trkpt><trkpt lat="46.1636769" lon="13.5073565"><ele>604.0</ele><time>2026-05-02T11:54:11.83Z</time></trkpt><trkpt lat="46.1637197" lon="13.5075061"><ele>607.0</ele><time>2026-05-02T11:54:13.833Z</time></trkpt><trkpt lat="46.1638176" lon="13.5076116"><ele>607.0</ele><time>2026-05-02T11:54:15.833Z</time></trkpt><trkpt lat="46.1638979" lon="13.507657"><ele>607.0</ele><time>2026-05-02T11:54:16.842Z</time></trkpt><trkpt lat="46.1639766" lon="13.5077067"><ele>607.0</ele><time>2026-05-02T11:54:17.826Z</time></trkpt><trkpt lat="46.1640611" lon="13.5077525"><ele>607.0</ele><time>2026-05-02T11:54:18.828Z</time></trkpt><trkpt lat="46.1641489" lon="13.5077929"><ele>607.0</ele><time>2026-05-02T11:54:19.829Z</time></trkpt><trkpt lat="46.1642468" lon="13.5078293"><ele>609.0</ele><time>2026-05-02T11:54:20.836Z</time></trkpt><trkpt lat="46.1643462" lon="13.5078619"><ele>611.0</ele><time>2026-05-02T11:54:21.829Z</time></trkpt><trkpt lat="46.1644452" lon="13.5078848"><ele>613.0</ele><time>2026-05-02T11:54:22.825Z</time></trkpt><trkpt lat="46.1646365" lon="13.5079335"><ele>615.0</ele><time>2026-05-02T11:54:24.837Z</time></trkpt><trkpt lat="46.1647275" lon="13.5079691"><ele>615.0</ele><time>2026-05-02T11:54:25.823Z</time></trkpt><trkpt lat="46.1648014" lon="13.5080088"><ele>615.0</ele><time>2026-05-02T11:54:26.825Z</time></trkpt><trkpt lat="46.1648666" lon="13.508052"><ele>615.0</ele><time>2026-05-02T11:54:27.837Z</time></trkpt><trkpt lat="46.1649378" lon="13.5080678"><ele>615.0</ele><time>2026-05-02T11:54:28.83Z</time></trkpt><trkpt lat="46.1650166" lon="13.5080705"><ele>615.0</ele><time>2026-05-02T11:54:29.833Z</time></trkpt><trkpt lat="46.1651028" lon="13.5080494"><ele>615.0</ele><time>2026-05-02T11:54:30.83Z</time></trkpt><trkpt lat="46.1651795" lon="13.5080151"><ele>615.6666666666666</ele><time>2026-05-02T11:54:31.835Z</time></trkpt><trkpt lat="46.1652511" lon="13.5079778"><ele>616.3333333333334</ele><time>2026-05-02T11:54:32.838Z</time></trkpt><trkpt lat="46.1653215" lon="13.5079395"><ele>617.0</ele><time>2026-05-02T11:54:33.839Z</time></trkpt><trkpt lat="46.165437" lon="13.5079254"><ele>617.6666666666667</ele><time>2026-05-02T11:54:35.837Z</time></trkpt><trkpt lat="46.165508" lon="13.5079883"><ele>618.3333333333334</ele><time>2026-05-02T11:54:37.829Z</time></trkpt><trkpt lat="46.1655432" lon="13.5081106"><ele>619.0</ele><time>2026-05-02T11:54:39.837Z</time></trkpt><trkpt lat="46.1655565" lon="13.5082034"><ele>619.0</ele><time>2026-05-02T11:54:40.829Z</time></trkpt><trkpt lat="46.1655707" lon="13.5083318"><ele>619.0</ele><time>2026-05-02T11:54:41.829Z</time></trkpt><trkpt lat="46.165577" lon="13.5084664"><ele>619.0</ele><time>2026-05-02T11:54:42.831Z</time></trkpt><trkpt lat="46.1655773" lon="13.5086121"><ele>619.0</ele><time>2026-05-02T11:54:43.827Z</time></trkpt><trkpt lat="46.1655774" lon="13.508859"><ele>621.8</ele><time>2026-05-02T11:54:45.832Z</time></trkpt><trkpt lat="46.165611" lon="13.5089748"><ele>624.5999999999999</ele><time>2026-05-02T11:54:47.839Z</time></trkpt><trkpt lat="46.1657081" lon="13.5089847"><ele>627.4</ele><time>2026-05-02T11:54:50.832Z</time></trkpt><trkpt lat="46.1658293" lon="13.5089045"><ele>630.1999999999999</ele><time>2026-05-02T11:54:52.837Z</time></trkpt><trkpt lat="46.1658998" lon="13.5088359"><ele>633.0</ele><time>2026-05-02T11:54:53.837Z</time></trkpt><trkpt lat="46.1659572" lon="13.5087853"><ele>627.1666666666666</ele><time>2026-05-02T11:54:54.829Z</time></trkpt><trkpt lat="46.1660315" lon="13.5087301"><ele>621.3333333333334</ele><time>2026-05-02T11:54:55.831Z</time></trkpt><trkpt lat="46.1661119" lon="13.5087172"><ele>615.5</ele><time>2026-05-02T11:54:56.827Z</time></trkpt><trkpt lat="46.1661856" lon="13.508688"><ele>609.6666666666667</ele><time>2026-05-02T11:54:57.839Z</time></trkpt><trkpt lat="46.1662748" lon="13.508641"><ele>603.8333333333334</ele><time>2026-05-02T11:54:58.83Z</time></trkpt><trkpt lat="46.1663677" lon="13.5086187"><ele>598.0</ele><time>2026-05-02T11:54:59.831Z</time></trkpt><trkpt lat="46.1664594" lon="13.5085875"><ele>594.1999999999999</ele><time>2026-05-02T11:55:00.829Z</time></trkpt><trkpt lat="46.1665403" lon="13.5085534"><ele>590.4</ele><time>2026-05-02T11:55:01.827Z</time></trkpt><trkpt lat="46.1666243" lon="13.5084978"><ele>586.5999999999999</ele><time>2026-05-02T11:55:02.833Z</time></trkpt><trkpt lat="46.1667129" lon="13.5084681"><ele>582.8</ele><time>2026-05-02T11:55:03.831Z</time></trkpt><trkpt lat="46.1667837" lon="13.5084436"><ele>579.0</ele><time>2026-05-02T11:55:04.825Z</time></trkpt><trkpt lat="46.1669911" lon="13.5084649"><ele>579.0</ele><time>2026-05-02T11:55:08.837Z</time></trkpt><trkpt lat="46.1670684" lon="13.5086407"><ele>579.0</ele><time>2026-05-02T11:55:10.833Z</time></trkpt><trkpt lat="46.1671058" lon="13.5087528"><ele>579.0</ele><time>2026-05-02T11:55:11.828Z</time></trkpt><trkpt lat="46.1671444" lon="13.5088645"><ele>579.0</ele><time>2026-05-02T11:55:12.828Z</time></trkpt><trkpt lat="46.1671891" lon="13.5089553"><ele>579.0</ele><time>2026-05-02T11:55:13.84Z</time></trkpt><trkpt lat="46.1672337" lon="13.5090202"><ele>582.8333333333334</ele><time>2026-05-02T11:55:14.832Z</time></trkpt><trkpt lat="46.167321" lon="13.5090747"><ele>586.6666666666666</ele><time>2026-05-02T11:55:16.831Z</time></trkpt><trkpt lat="46.1673858" lon="13.5090472"><ele>590.5</ele><time>2026-05-02T11:55:17.836Z</time></trkpt><trkpt lat="46.1674596" lon="13.5090235"><ele>594.3333333333333</ele><time>2026-05-02T11:55:18.829Z</time></trkpt><trkpt lat="46.1675262" lon="13.5089883"><ele>598.1666666666666</ele><time>2026-05-02T11:55:19.833Z</time></trkpt><trkpt lat="46.1675958" lon="13.5089621"><ele>602.0</ele><time>2026-05-02T11:55:20.83Z</time></trkpt><trkpt lat="46.1676667" lon="13.5089308"><ele>602.0</ele><time>2026-05-02T11:55:21.835Z</time></trkpt><trkpt lat="46.167741" lon="13.5089017"><ele>602.0</ele><time>2026-05-02T11:55:22.835Z</time></trkpt><trkpt lat="46.1678308" lon="13.5088714"><ele>602.0</ele><time>2026-05-02T11:55:23.828Z</time></trkpt><trkpt lat="46.1679285" lon="13.5088277"><ele>602.0</ele><time>2026-05-02T11:55:24.827Z</time></trkpt><trkpt lat="46.1680235" lon="13.5087751"><ele>602.0</ele><time>2026-05-02T11:55:25.834Z</time></trkpt><trkpt lat="46.1682026" lon="13.508673"><ele>597.6</ele><time>2026-05-02T11:55:27.838Z</time></trkpt><trkpt lat="46.1682868" lon="13.5086022"><ele>593.2</ele><time>2026-05-02T11:55:28.835Z</time></trkpt><trkpt lat="46.1683611" lon="13.5085077"><ele>588.8</ele><time>2026-05-02T11:55:29.831Z</time></trkpt><trkpt lat="46.1684345" lon="13.5084102"><ele>584.4</ele><time>2026-05-02T11:55:30.825Z</time></trkpt><trkpt lat="46.1684925" lon="13.5083032"><ele>580.0</ele><time>2026-05-02T11:55:31.834Z</time></trkpt><trkpt lat="46.1685495" lon="13.5081981"><ele>580.0</ele><time>2026-05-02T11:55:32.826Z</time></trkpt><trkpt lat="46.1686146" lon="13.5080908"><ele>580.0</ele><time>2026-05-02T11:55:33.836Z</time></trkpt><trkpt lat="46.1686903" lon="13.5079901"><ele>580.0</ele><time>2026-05-02T11:55:34.831Z</time></trkpt><trkpt lat="46.1687676" lon="13.5078905"><ele>580.0</ele><time>2026-05-02T11:55:35.834Z</time></trkpt><trkpt lat="46.1688423" lon="13.5077974"><ele>580.0</ele><time>2026-05-02T11:55:36.835Z</time></trkpt><trkpt lat="46.1689117" lon="13.5077225"><ele>580.2</ele><time>2026-05-02T11:55:37.835Z</time></trkpt><trkpt lat="46.168979" lon="13.5076702"><ele>580.4</ele><time>2026-05-02T11:55:38.828Z</time></trkpt><trkpt lat="46.1690983" lon="13.5076206"><ele>580.6</ele><time>2026-05-02T11:55:40.829Z</time></trkpt><trkpt lat="46.1692133" lon="13.5076494"><ele>580.8</ele><time>2026-05-02T11:55:42.834Z</time></trkpt><trkpt lat="46.1692822" lon="13.5077594"><ele>581.0</ele><time>2026-05-02T11:55:44.84Z</time></trkpt><trkpt lat="46.1693162" lon="13.5079534"><ele>581.0</ele><time>2026-05-02T11:55:46.834Z</time></trkpt><trkpt lat="46.1693111" lon="13.5082296"><ele>581.0</ele><time>2026-05-02T11:55:48.835Z</time></trkpt><trkpt lat="46.1692978" lon="13.5083793"><ele>581.0</ele><time>2026-05-02T11:55:49.832Z</time></trkpt><trkpt lat="46.1692997" lon="13.5085265"><ele>581.0</ele><time>2026-05-02T11:55:50.832Z</time></trkpt><trkpt lat="46.1693103" lon="13.5086701"><ele>585.8333333333333</ele><time>2026-05-02T11:55:51.835Z</time></trkpt><trkpt lat="46.1693227" lon="13.508784"><ele>590.6666666666666</ele><time>2026-05-02T11:55:52.827Z</time></trkpt><trkpt lat="46.1693344" lon="13.5088751"><ele>595.5</ele><time>2026-05-02T11:55:53.829Z</time></trkpt><trkpt lat="46.1693569" lon="13.508963"><ele>600.3333333333334</ele><time>2026-05-02T11:55:54.83Z</time></trkpt><trkpt lat="46.1694053" lon="13.5090488"><ele>605.1666666666667</ele><time>2026-05-02T11:55:55.835Z</time></trkpt><trkpt lat="46.1694715" lon="13.5091247"><ele>610.0</ele><time>2026-05-02T11:55:56.832Z</time></trkpt><trkpt lat="46.1695458" lon="13.5091793"><ele>610.0</ele><time>2026-05-02T11:55:57.826Z</time></trkpt><trkpt lat="46.1696388" lon="13.5092077"><ele>610.0</ele><time>2026-05-02T11:55:58.83Z</time></trkpt><trkpt lat="46.1697335" lon="13.5092296"><ele>610.0</ele><time>2026-05-02T11:55:59.828Z</time></trkpt><trkpt lat="46.1698123" lon="13.50927"><ele>610.0</ele><time>2026-05-02T11:56:00.831Z</time></trkpt><trkpt lat="46.1698786" lon="13.5093278"><ele>610.0</ele><time>2026-05-02T11:56:01.832Z</time></trkpt><trkpt lat="46.1699432" lon="13.5093855"><ele>610.0</ele><time>2026-05-02T11:56:02.826Z</time></trkpt><trkpt lat="46.1700119" lon="13.5094262"><ele>608.8</ele><time>2026-05-02T11:56:03.828Z</time></trkpt><trkpt lat="46.1700784" lon="13.5094486"><ele>607.6</ele><time>2026-05-02T11:56:04.835Z</time></trkpt><trkpt lat="46.1701659" lon="13.509462"><ele>606.4</ele><time>2026-05-02T11:56:05.836Z</time></trkpt><trkpt lat="46.1702482" lon="13.5094799"><ele>605.2</ele><time>2026-05-02T11:56:06.831Z</time></trkpt><trkpt lat="46.1703417" lon="13.5095058"><ele>604.0</ele><time>2026-05-02T11:56:07.834Z</time></trkpt><trkpt lat="46.1705039" lon="13.5096391"><ele>604.0</ele><time>2026-05-02T11:56:09.832Z</time></trkpt><trkpt lat="46.1705752" lon="13.5097361"><ele>604.0</ele><time>2026-05-02T11:56:10.825Z</time></trkpt><trkpt lat="46.1706316" lon="13.5098275"><ele>604.0</ele><time>2026-05-02T11:56:11.827Z</time></trkpt><trkpt lat="46.1706873" lon="13.5098988"><ele>604.0</ele><time>2026-05-02T11:56:12.834Z</time></trkpt><trkpt lat="46.1707576" lon="13.5099782"><ele>604.0</ele><time>2026-05-02T11:56:14.833Z</time></trkpt><trkpt lat="46.1708451" lon="13.5099825"><ele>604.0</ele><time>2026-05-02T11:56:16.83Z</time></trkpt><trkpt lat="46.1709535" lon="13.5099974"><ele>598.0</ele><time>2026-05-02T11:56:18.83Z</time></trkpt><trkpt lat="46.1710247" lon="13.5100291"><ele>592.0</ele><time>2026-05-02T11:56:19.832Z</time></trkpt><trkpt lat="46.1711036" lon="13.5100655"><ele>586.0</ele><time>2026-05-02T11:56:20.834Z</time></trkpt><trkpt lat="46.1711962" lon="13.5101367"><ele>580.0</ele><time>2026-05-02T11:56:21.824Z</time></trkpt><trkpt lat="46.1713045" lon="13.5102163"><ele>574.0</ele><time>2026-05-02T11:56:22.825Z</time></trkpt><trkpt lat="46.1714114" lon="13.5103001"><ele>574.0</ele><time>2026-05-02T11:56:23.832Z</time></trkpt><trkpt lat="46.1715025" lon="13.5103777"><ele>574.0</ele><time>2026-05-02T11:56:24.844Z</time></trkpt><trkpt lat="46.1715844" lon="13.5104406"><ele>574.0</ele><time>2026-05-02T11:56:25.823Z</time></trkpt><trkpt lat="46.1716721" lon="13.5104814"><ele>574.0</ele><time>2026-05-02T11:56:26.832Z</time></trkpt><trkpt lat="46.1717592" lon="13.5104866"><ele>574.0</ele><time>2026-05-02T11:56:27.831Z</time></trkpt><trkpt lat="46.1718573" lon="13.5104698"><ele>569.0</ele><time>2026-05-02T11:56:28.832Z</time></trkpt><trkpt lat="46.1720717" lon="13.5103437"><ele>564.0</ele><time>2026-05-02T11:56:30.83Z</time></trkpt><trkpt lat="46.1721843" lon="13.5102588"><ele>559.0</ele><time>2026-05-02T11:56:31.833Z</time></trkpt><trkpt lat="46.1722935" lon="13.5101673"><ele>560.8</ele><time>2026-05-02T11:56:32.828Z</time></trkpt><trkpt lat="46.1723992" lon="13.5100684"><ele>562.5999999999999</ele><time>2026-05-02T11:56:33.833Z</time></trkpt><trkpt lat="46.1724963" lon="13.5099888"><ele>564.4</ele><time>2026-05-02T11:56:34.831Z</time></trkpt><trkpt lat="46.1725834" lon="13.5099029"><ele>566.1999999999999</ele><time>2026-05-02T11:56:35.83Z</time></trkpt><trkpt lat="46.1726651" lon="13.5098279"><ele>568.0</ele><time>2026-05-02T11:56:36.829Z</time></trkpt><trkpt lat="46.1727305" lon="13.509769"><ele>568.0</ele><time>2026-05-02T11:56:37.836Z</time></trkpt><trkpt lat="46.1728047" lon="13.5097445"><ele>568.0</ele><time>2026-05-02T11:56:38.846Z</time></trkpt><trkpt lat="46.1728862" lon="13.5097491"><ele>568.0</ele><time>2026-05-02T11:56:39.837Z</time></trkpt><trkpt lat="46.1729745" lon="13.5097471"><ele>568.0</ele><time>2026-05-02T11:56:40.836Z</time></trkpt><trkpt lat="46.1730667" lon="13.5097377"><ele>568.0</ele><time>2026-05-02T11:56:41.827Z</time></trkpt><trkpt lat="46.1731518" lon="13.5097157"><ele>568.0</ele><time>2026-05-02T11:56:42.841Z</time></trkpt><trkpt lat="46.1732235" lon="13.5096843"><ele>566.8</ele><time>2026-05-02T11:56:43.829Z</time></trkpt><trkpt lat="46.1732905" lon="13.5096606"><ele>565.5999999999999</ele><time>2026-05-02T11:56:44.831Z</time></trkpt><trkpt lat="46.1733955" lon="13.5096231"><ele>564.4000000000001</ele><time>2026-05-02T11:56:46.835Z</time></trkpt><trkpt lat="46.1734797" lon="13.5095788"><ele>563.2</ele><time>2026-05-02T11:56:48.831Z</time></trkpt><trkpt lat="46.1735405" lon="13.5095187"><ele>562.0</ele><time>2026-05-02T11:57:24.838Z</time></trkpt><trkpt lat="46.1737628" lon="13.5094684"><ele>562.0</ele><time>2026-05-02T11:57:29.831Z</time></trkpt><trkpt lat="46.1738469" lon="13.5094658"><ele>562.0</ele><time>2026-05-02T11:57:30.842Z</time></trkpt><trkpt lat="46.173957" lon="13.5094313"><ele>562.0</ele><time>2026-05-02T11:57:31.836Z</time></trkpt><trkpt lat="46.1740504" lon="13.5093792"><ele>562.0</ele><time>2026-05-02T11:57:32.829Z</time></trkpt><trkpt lat="46.1741444" lon="13.5093104"><ele>562.0</ele><time>2026-05-02T11:57:33.836Z</time></trkpt><trkpt lat="46.1742234" lon="13.5092405"><ele>563.6</ele><time>2026-05-02T11:57:34.829Z</time></trkpt><trkpt lat="46.1743244" lon="13.5092255"><ele>565.2</ele><time>2026-05-02T11:57:35.84Z</time></trkpt><trkpt lat="46.1744257" lon="13.5092347"><ele>566.8</ele><time>2026-05-02T11:57:36.836Z</time></trkpt><trkpt lat="46.1745153" lon="13.5092556"><ele>568.4</ele><time>2026-05-02T11:57:37.835Z</time></trkpt><trkpt lat="46.1745922" lon="13.5092679"><ele>570.0</ele><time>2026-05-02T11:57:38.83Z</time></trkpt><trkpt lat="46.1746751" lon="13.5093196"><ele>570.0</ele><time>2026-05-02T11:57:39.833Z</time></trkpt><trkpt lat="46.1747581" lon="13.5093996"><ele>570.0</ele><time>2026-05-02T11:57:40.83Z</time></trkpt><trkpt lat="46.1748468" lon="13.5094966"><ele>570.0</ele><time>2026-05-02T11:57:41.836Z</time></trkpt><trkpt lat="46.1749367" lon="13.5095674"><ele>570.0</ele><time>2026-05-02T11:57:42.826Z</time></trkpt><trkpt lat="46.1750143" lon="13.5096344"><ele>570.0</ele><time>2026-05-02T11:57:43.833Z</time></trkpt><trkpt lat="46.1750927" lon="13.5096807"><ele>570.5</ele><time>2026-05-02T11:57:44.831Z</time></trkpt><trkpt lat="46.1751666" lon="13.5096718"><ele>571.0</ele><time>2026-05-02T11:57:45.827Z</time></trkpt><trkpt lat="46.1753208" lon="13.5095278"><ele>571.5</ele><time>2026-05-02T11:57:47.832Z</time></trkpt><trkpt lat="46.1753882" lon="13.50941"><ele>572.0</ele><time>2026-05-02T11:57:48.835Z</time></trkpt><trkpt lat="46.1754326" lon="13.5092379"><ele>572.0</ele><time>2026-05-02T11:57:49.833Z</time></trkpt><trkpt lat="46.175477" lon="13.5090591"><ele>572.0</ele><time>2026-05-02T11:57:50.827Z</time></trkpt><trkpt lat="46.1755125" lon="13.5088886"><ele>572.0</ele><time>2026-05-02T11:57:51.83Z</time></trkpt><trkpt lat="46.1755615" lon="13.5087304"><ele>572.0</ele><time>2026-05-02T11:57:52.833Z</time></trkpt><trkpt lat="46.1756157" lon="13.5085861"><ele>572.6</ele><time>2026-05-02T11:57:53.827Z</time></trkpt><trkpt lat="46.1756865" lon="13.5084822"><ele>573.2</ele><time>2026-05-02T11:57:54.83Z</time></trkpt><trkpt lat="46.175769" lon="13.5084179"><ele>573.8</ele><time>2026-05-02T11:57:55.828Z</time></trkpt><trkpt lat="46.1758462" lon="13.5083545"><ele>574.4</ele><time>2026-05-02T11:57:56.831Z</time></trkpt><trkpt lat="46.175924" lon="13.5082591"><ele>575.0</ele><time>2026-05-02T11:57:57.828Z</time></trkpt><trkpt lat="46.1759928" lon="13.5081183"><ele>575.0</ele><time>2026-05-02T11:57:58.827Z</time></trkpt><trkpt lat="46.1760593" lon="13.5079698"><ele>575.0</ele><time>2026-05-02T11:57:59.828Z</time></trkpt><trkpt lat="46.1761288" lon="13.5078394"><ele>575.0</ele><time>2026-05-02T11:58:00.829Z</time></trkpt><trkpt lat="46.1761911" lon="13.5077135"><ele>575.0</ele><time>2026-05-02T11:58:01.831Z</time></trkpt><trkpt lat="46.1762299" lon="13.5075774"><ele>575.0</ele><time>2026-05-02T11:58:02.844Z</time></trkpt><trkpt lat="46.1762623" lon="13.5074407"><ele>570.25</ele><time>2026-05-02T11:58:03.83Z</time></trkpt><trkpt lat="46.1762951" lon="13.5073073"><ele>565.5</ele><time>2026-05-02T11:58:04.831Z</time></trkpt><trkpt lat="46.1763357" lon="13.5071809"><ele>560.75</ele><time>2026-05-02T11:58:05.829Z</time></trkpt><trkpt lat="46.1763916" lon="13.5070745"><ele>556.0</ele><time>2026-05-02T11:58:06.835Z</time></trkpt><trkpt lat="46.1765627" lon="13.5069264"><ele>556.0</ele><time>2026-05-02T11:58:08.834Z</time></trkpt><trkpt lat="46.1766481" lon="13.5068335"><ele>556.0</ele><time>2026-05-02T11:58:09.835Z</time></trkpt><trkpt lat="46.1767486" lon="13.5067238"><ele>556.0</ele><time>2026-05-02T11:58:10.836Z</time></trkpt><trkpt lat="46.1768592" lon="13.5066112"><ele>556.0</ele><time>2026-05-02T11:58:11.83Z</time></trkpt><trkpt lat="46.176971" lon="13.5065092"><ele>556.0</ele><time>2026-05-02T11:58:12.841Z</time></trkpt><trkpt lat="46.17708" lon="13.5063911"><ele>556.0</ele><time>2026-05-02T11:58:13.83Z</time></trkpt><trkpt lat="46.1771874" lon="13.5062811"><ele>556.0</ele><time>2026-05-02T11:58:14.825Z</time></trkpt><trkpt lat="46.1773025" lon="13.506195"><ele>556.0</ele><time>2026-05-02T11:58:15.825Z</time></trkpt><trkpt lat="46.177407" lon="13.5061072"><ele>558.0</ele><time>2026-05-02T11:58:16.834Z</time></trkpt><trkpt lat="46.1775035" lon="13.5060194"><ele>560.0</ele><time>2026-05-02T11:58:17.829Z</time></trkpt><trkpt lat="46.1775832" lon="13.5059367"><ele>562.0</ele><time>2026-05-02T11:58:18.837Z</time></trkpt><trkpt lat="46.1776432" lon="13.5058511"><ele>564.0</ele><time>2026-05-02T11:58:19.839Z</time></trkpt><trkpt lat="46.1776886" lon="13.5057544"><ele>566.0</ele><time>2026-05-02T11:58:20.823Z</time></trkpt><trkpt lat="46.1777185" lon="13.5056327"><ele>566.0</ele><time>2026-05-02T11:58:21.831Z</time></trkpt><trkpt lat="46.1777354" lon="13.5055044"><ele>566.0</ele><time>2026-05-02T11:58:22.856Z</time></trkpt><trkpt lat="46.177727" lon="13.5053734"><ele>566.0</ele><time>2026-05-02T11:58:23.834Z</time></trkpt><trkpt lat="46.1777126" lon="13.5052457"><ele>566.0</ele><time>2026-05-02T11:58:24.832Z</time></trkpt><trkpt lat="46.1776961" lon="13.5051164"><ele>566.0</ele><time>2026-05-02T11:58:25.837Z</time></trkpt><trkpt lat="46.1777" lon="13.5049979"><ele>566.0</ele><time>2026-05-02T11:58:26.825Z</time></trkpt><trkpt lat="46.1777227" lon="13.5048607"><ele>563.5</ele><time>2026-05-02T11:58:27.838Z</time></trkpt><trkpt lat="46.1778122" lon="13.5045818"><ele>561.0</ele><time>2026-05-02T11:58:29.823Z</time></trkpt><trkpt lat="46.1778692" lon="13.5044519"><ele>558.5</ele><time>2026-05-02T11:58:30.827Z</time></trkpt><trkpt lat="46.177924" lon="13.5043019"><ele>556.0</ele><time>2026-05-02T11:58:31.835Z</time></trkpt><trkpt lat="46.1779608" lon="13.5041451"><ele>556.0</ele><time>2026-05-02T11:58:32.835Z</time></trkpt><trkpt lat="46.1779988" lon="13.503982"><ele>556.0</ele><time>2026-05-02T11:58:33.834Z</time></trkpt><trkpt lat="46.1780365" lon="13.5038167"><ele>556.0</ele><time>2026-05-02T11:58:34.835Z</time></trkpt><trkpt lat="46.1780631" lon="13.5036478"><ele>556.0</ele><time>2026-05-02T11:58:35.824Z</time></trkpt><trkpt lat="46.1780753" lon="13.5034854"><ele>556.4</ele><time>2026-05-02T11:58:36.835Z</time></trkpt><trkpt lat="46.1780787" lon="13.503338"><ele>556.8</ele><time>2026-05-02T11:58:37.83Z</time></trkpt><trkpt lat="46.1780899" lon="13.5032159"><ele>557.1999999999999</ele><time>2026-05-02T11:58:38.836Z</time></trkpt><trkpt lat="46.1781186" lon="13.5030879"><ele>557.6</ele><time>2026-05-02T11:58:39.834Z</time></trkpt><trkpt lat="46.1781653" lon="13.5029708"><ele>558.0</ele><time>2026-05-02T11:58:40.836Z</time></trkpt><trkpt lat="46.1782384" lon="13.5028635"><ele>561.5</ele><time>2026-05-02T11:58:41.828Z</time></trkpt><trkpt lat="46.1783068" lon="13.5027546"><ele>565.0</ele><time>2026-05-02T11:58:42.84Z</time></trkpt><trkpt lat="46.1783689" lon="13.502644"><ele>568.5</ele><time>2026-05-02T11:58:43.828Z</time></trkpt><trkpt lat="46.178418" lon="13.5025348"><ele>572.0</ele><time>2026-05-02T11:58:44.829Z</time></trkpt><trkpt lat="46.1784616" lon="13.5024339"><ele>575.5</ele><time>2026-05-02T11:58:45.832Z</time></trkpt><trkpt lat="46.1784899" lon="13.5023425"><ele>579.0</ele><time>2026-05-02T11:58:46.841Z</time></trkpt><trkpt lat="46.1785221" lon="13.5022444"><ele>579.0</ele><time>2026-05-02T11:58:48.829Z</time></trkpt><trkpt lat="46.1785058" lon="13.5024819"><ele>579.0</ele><time>2026-05-02T11:58:55.837Z</time></trkpt><trkpt lat="46.1785676" lon="13.5025725"><ele>579.0</ele><time>2026-05-02T11:58:57.825Z</time></trkpt><trkpt lat="46.178666" lon="13.502662"><ele>579.0</ele><time>2026-05-02T11:58:59.83Z</time></trkpt><trkpt lat="46.1787701" lon="13.5027204"><ele>579.0</ele><time>2026-05-02T11:59:01.832Z</time></trkpt><trkpt lat="46.1788075" lon="13.5028458"><ele>579.0</ele><time>2026-05-02T11:59:03.835Z</time></trkpt><trkpt lat="46.1788043" lon="13.5029996"><ele>579.0</ele><time>2026-05-02T11:59:05.831Z</time></trkpt><trkpt lat="46.1787876" lon="13.5031754"><ele>579.0</ele><time>2026-05-02T11:59:07.825Z</time></trkpt><trkpt lat="46.1787561" lon="13.5033392"><ele>579.0</ele><time>2026-05-02T11:59:09.829Z</time></trkpt><trkpt lat="46.1786789" lon="13.5035858"><ele>579.8333333333334</ele><time>2026-05-02T11:59:12.844Z</time></trkpt><trkpt lat="46.1786426" lon="13.5036707"><ele>580.6666666666666</ele><time>2026-05-02T11:59:13.834Z</time></trkpt><trkpt lat="46.1786008" lon="13.5037661"><ele>581.5</ele><time>2026-05-02T11:59:14.831Z</time></trkpt><trkpt lat="46.1785545" lon="13.5038681"><ele>582.3333333333333</ele><time>2026-05-02T11:59:15.825Z</time></trkpt><trkpt lat="46.1785125" lon="13.5039749"><ele>583.1666666666666</ele><time>2026-05-02T11:59:16.83Z</time></trkpt><trkpt lat="46.1784781" lon="13.5040751"><ele>584.0</ele><time>2026-05-02T11:59:17.826Z</time></trkpt><trkpt lat="46.1784479" lon="13.5041737"><ele>585.1428571428571</ele><time>2026-05-02T11:59:18.832Z</time></trkpt><trkpt lat="46.1784156" lon="13.5042691"><ele>586.2857142857143</ele><time>2026-05-02T11:59:19.831Z</time></trkpt><trkpt lat="46.1783973" lon="13.504366"><ele>587.4285714285714</ele><time>2026-05-02T11:59:20.831Z</time></trkpt><trkpt lat="46.178403" lon="13.504465"><ele>588.5714285714286</ele><time>2026-05-02T11:59:21.827Z</time></trkpt><trkpt lat="46.1784162" lon="13.504564"><ele>589.7142857142857</ele><time>2026-05-02T11:59:22.829Z</time></trkpt><trkpt lat="46.1784221" lon="13.5046673"><ele>590.8571428571429</ele><time>2026-05-02T11:59:23.827Z</time></trkpt><trkpt lat="46.1784212" lon="13.5047771"><ele>592.0</ele><time>2026-05-02T11:59:24.835Z</time></trkpt><trkpt lat="46.1784101" lon="13.5048852"><ele>593.0</ele><time>2026-05-02T11:59:25.825Z</time></trkpt><trkpt lat="46.1783865" lon="13.5049909"><ele>594.0</ele><time>2026-05-02T11:59:26.821Z</time></trkpt><trkpt lat="46.1783632" lon="13.5051019"><ele>595.0</ele><time>2026-05-02T11:59:27.829Z</time></trkpt><trkpt lat="46.1783566" lon="13.5052173"><ele>596.0</ele><time>2026-05-02T11:59:28.835Z</time></trkpt><trkpt lat="46.1783608" lon="13.5053558"><ele>597.0</ele><time>2026-05-02T11:59:29.828Z</time></trkpt><trkpt lat="46.1783485" lon="13.5055051"><ele>598.0</ele><time>2026-05-02T11:59:30.826Z</time></trkpt><trkpt lat="46.178298" lon="13.5058298"><ele>599.4</ele><time>2026-05-02T11:59:32.841Z</time></trkpt><trkpt lat="46.1782807" lon="13.5059994"><ele>600.8</ele><time>2026-05-02T11:59:33.828Z</time></trkpt><trkpt lat="46.1782636" lon="13.5061462"><ele>602.2</ele><time>2026-05-02T11:59:34.821Z</time></trkpt><trkpt lat="46.1782451" lon="13.5062704"><ele>603.6</ele><time>2026-05-02T11:59:35.829Z</time></trkpt><trkpt lat="46.1782437" lon="13.5063623"><ele>605.0</ele><time>2026-05-02T11:59:36.827Z</time></trkpt><trkpt lat="46.1782914" lon="13.5065167"><ele>606.2</ele><time>2026-05-02T11:59:38.828Z</time></trkpt><trkpt lat="46.1783052" lon="13.5066449"><ele>607.4</ele><time>2026-05-02T11:59:40.836Z</time></trkpt><trkpt lat="46.1782394" lon="13.5067822"><ele>608.6</ele><time>2026-05-02T11:59:42.828Z</time></trkpt><trkpt lat="46.1781542" lon="13.506935"><ele>609.8</ele><time>2026-05-02T11:59:44.824Z</time></trkpt><trkpt lat="46.1780994" lon="13.5070301"><ele>611.0</ele><time>2026-05-02T11:59:45.83Z</time></trkpt><trkpt lat="46.1780479" lon="13.5071313"><ele>611.0</ele><time>2026-05-02T11:59:46.828Z</time></trkpt><trkpt lat="46.1780024" lon="13.5072214"><ele>611.0</ele><time>2026-05-02T11:59:47.834Z</time></trkpt><trkpt lat="46.1779702" lon="13.5073195"><ele>611.0</ele><time>2026-05-02T11:59:48.833Z</time></trkpt><trkpt lat="46.1779412" lon="13.5074152"><ele>611.0</ele><time>2026-05-02T11:59:49.83Z</time></trkpt><trkpt lat="46.1779151" lon="13.5075092"><ele>611.0</ele><time>2026-05-02T11:59:50.834Z</time></trkpt><trkpt lat="46.1780023" lon="13.5074919"><ele>611.0</ele><time>2026-05-02T11:59:55.828Z</time></trkpt><trkpt lat="46.1781251" lon="13.5073014"><ele>615.8</ele><time>2026-05-02T11:59:57.833Z</time></trkpt><trkpt lat="46.1781912" lon="13.5072234"><ele>620.6</ele><time>2026-05-02T11:59:58.826Z</time></trkpt><trkpt lat="46.1782517" lon="13.5071761"><ele>625.4</ele><time>2026-05-02T11:59:59.826Z</time></trkpt><trkpt lat="46.1783351" lon="13.5071605"><ele>630.2</ele><time>2026-05-02T12:00:00.828Z</time></trkpt><trkpt lat="46.1784451" lon="13.5072576"><ele>635.0</ele><time>2026-05-02T12:00:02.837Z</time></trkpt><trkpt lat="46.1785182" lon="13.5073147"><ele>635.0</ele><time>2026-05-02T12:00:04.83Z</time></trkpt><trkpt lat="46.1786162" lon="13.5072683"><ele>635.0</ele><time>2026-05-02T12:00:07.825Z</time></trkpt><trkpt lat="46.1786825" lon="13.5071808"><ele>635.0</ele><time>2026-05-02T12:00:09.824Z</time></trkpt><trkpt lat="46.178731" lon="13.507035"><ele>635.0</ele><time>2026-05-02T12:00:11.835Z</time></trkpt><trkpt lat="46.1787419" lon="13.5069334"><ele>635.0</ele><time>2026-05-02T12:00:12.83Z</time></trkpt><trkpt lat="46.1787573" lon="13.5068259"><ele>630.5</ele><time>2026-05-02T12:00:13.827Z</time></trkpt><trkpt lat="46.1787893" lon="13.5067174"><ele>626.0</ele><time>2026-05-02T12:00:14.828Z</time></trkpt><trkpt lat="46.1788182" lon="13.5066062"><ele>621.5</ele><time>2026-05-02T12:00:15.828Z</time></trkpt><trkpt lat="46.1788458" lon="13.5064814"><ele>617.0</ele><time>2026-05-02T12:00:16.837Z</time></trkpt><trkpt lat="46.1789235" lon="13.5062131"><ele>614.6</ele><time>2026-05-02T12:00:18.837Z</time></trkpt><trkpt lat="46.1789614" lon="13.5060861"><ele>612.2</ele><time>2026-05-02T12:00:19.833Z</time></trkpt><trkpt lat="46.1790002" lon="13.5059589"><ele>609.8</ele><time>2026-05-02T12:00:20.833Z</time></trkpt><trkpt lat="46.1790539" lon="13.5058404"><ele>607.4</ele><time>2026-05-02T12:00:21.833Z</time></trkpt><trkpt lat="46.1791082" lon="13.5057288"><ele>605.0</ele><time>2026-05-02T12:00:22.826Z</time></trkpt><trkpt lat="46.1791547" lon="13.5055997"><ele>611.8</ele><time>2026-05-02T12:00:23.834Z</time></trkpt><trkpt lat="46.1792009" lon="13.505468"><ele>618.6</ele><time>2026-05-02T12:00:24.829Z</time></trkpt><trkpt lat="46.1792421" lon="13.5053339"><ele>625.4</ele><time>2026-05-02T12:00:25.822Z</time></trkpt><trkpt lat="46.1792789" lon="13.5052022"><ele>632.2</ele><time>2026-05-02T12:00:26.829Z</time></trkpt><trkpt lat="46.1793127" lon="13.5050741"><ele>639.0</ele><time>2026-05-02T12:00:27.827Z</time></trkpt><trkpt lat="46.1793607" lon="13.5049526"><ele>639.0</ele><time>2026-05-02T12:00:28.834Z</time></trkpt><trkpt lat="46.1793961" lon="13.5048229"><ele>639.0</ele><time>2026-05-02T12:00:29.831Z</time></trkpt><trkpt lat="46.1794415" lon="13.5046887"><ele>639.0</ele><time>2026-05-02T12:00:30.828Z</time></trkpt><trkpt lat="46.1794968" lon="13.5045685"><ele>639.0</ele><time>2026-05-02T12:00:31.832Z</time></trkpt><trkpt lat="46.1795576" lon="13.5044547"><ele>639.0</ele><time>2026-05-02T12:00:32.834Z</time></trkpt><trkpt lat="46.1796055" lon="13.5043203"><ele>636.6</ele><time>2026-05-02T12:00:33.837Z</time></trkpt><trkpt lat="46.1796519" lon="13.504193"><ele>634.2</ele><time>2026-05-02T12:00:34.829Z</time></trkpt><trkpt lat="46.1796997" lon="13.5040854"><ele>631.8000000000001</ele><time>2026-05-02T12:00:35.831Z</time></trkpt><trkpt lat="46.1797546" lon="13.5039757"><ele>629.4</ele><time>2026-05-02T12:00:36.836Z</time></trkpt><trkpt lat="46.179806" lon="13.5038515"><ele>627.0</ele><time>2026-05-02T12:00:37.832Z</time></trkpt><trkpt lat="46.1799309" lon="13.5035839"><ele>632.2</ele><time>2026-05-02T12:00:39.823Z</time></trkpt><trkpt lat="46.1799928" lon="13.5034552"><ele>637.4000000000001</ele><time>2026-05-02T12:00:40.825Z</time></trkpt><trkpt lat="46.1800637" lon="13.5033299"><ele>642.5999999999999</ele><time>2026-05-02T12:00:41.833Z</time></trkpt><trkpt lat="46.1801312" lon="13.5031989"><ele>647.8</ele><time>2026-05-02T12:00:42.825Z</time></trkpt><trkpt lat="46.1802005" lon="13.5030713"><ele>653.0</ele><time>2026-05-02T12:00:43.825Z</time></trkpt><trkpt lat="46.1802761" lon="13.5029563"><ele>650.5</ele><time>2026-05-02T12:00:44.831Z</time></trkpt><trkpt lat="46.180359" lon="13.502837"><ele>648.0</ele><time>2026-05-02T12:00:45.825Z</time></trkpt><trkpt lat="46.18045" lon="13.5027091"><ele>645.5</ele><time>2026-05-02T12:00:46.841Z</time></trkpt><trkpt lat="46.1805404" lon="13.5025806"><ele>643.0</ele><time>2026-05-02T12:00:47.826Z</time></trkpt><trkpt lat="46.1806454" lon="13.5024654"><ele>644.6666666666667</ele><time>2026-05-02T12:00:48.829Z</time></trkpt><trkpt lat="46.1807298" lon="13.5023503"><ele>646.3333333333334</ele><time>2026-05-02T12:00:49.827Z</time></trkpt><trkpt lat="46.1807926" lon="13.5022556"><ele>648.0</ele><time>2026-05-02T12:00:50.826Z</time></trkpt><trkpt lat="46.1808526" lon="13.502201"><ele>649.6666666666666</ele><time>2026-05-02T12:00:51.827Z</time></trkpt><trkpt lat="46.1809171" lon="13.5021531"><ele>651.3333333333333</ele><time>2026-05-02T12:00:52.834Z</time></trkpt><trkpt lat="46.1809879" lon="13.5020923"><ele>653.0</ele><time>2026-05-02T12:00:53.83Z</time></trkpt><trkpt lat="46.1810741" lon="13.5020151"><ele>653.0</ele><time>2026-05-02T12:00:54.836Z</time></trkpt><trkpt lat="46.1811544" lon="13.5019209"><ele>653.0</ele><time>2026-05-02T12:00:55.835Z</time></trkpt><trkpt lat="46.1812354" lon="13.5018209"><ele>653.0</ele><time>2026-05-02T12:00:56.828Z</time></trkpt><trkpt lat="46.181319" lon="13.5017331"><ele>653.0</ele><time>2026-05-02T12:00:57.828Z</time></trkpt><trkpt lat="46.181402" lon="13.501626"><ele>653.0</ele><time>2026-05-02T12:00:58.828Z</time></trkpt><trkpt lat="46.1815777" lon="13.50137"><ele>656.5</ele><time>2026-05-02T12:01:00.831Z</time></trkpt><trkpt lat="46.1816573" lon="13.5012532"><ele>660.0</ele><time>2026-05-02T12:01:01.829Z</time></trkpt><trkpt lat="46.1817378" lon="13.5011327"><ele>663.5</ele><time>2026-05-02T12:01:02.827Z</time></trkpt><trkpt lat="46.1818169" lon="13.5010056"><ele>667.0</ele><time>2026-05-02T12:01:03.839Z</time></trkpt><trkpt lat="46.181892" lon="13.5008732"><ele>667.0</ele><time>2026-05-02T12:01:04.836Z</time></trkpt><trkpt lat="46.1819622" lon="13.5007393"><ele>667.0</ele><time>2026-05-02T12:01:05.835Z</time></trkpt><trkpt lat="46.1820266" lon="13.5006196"><ele>667.0</ele><time>2026-05-02T12:01:06.829Z</time></trkpt><trkpt lat="46.1820878" lon="13.5004985"><ele>667.0</ele><time>2026-05-02T12:01:07.828Z</time></trkpt><trkpt lat="46.1821447" lon="13.5003852"><ele>667.0</ele><time>2026-05-02T12:01:08.834Z</time></trkpt><trkpt lat="46.1822131" lon="13.5002825"><ele>668.0</ele><time>2026-05-02T12:01:09.83Z</time></trkpt><trkpt lat="46.1822964" lon="13.5001629"><ele>669.0</ele><time>2026-05-02T12:01:10.829Z</time></trkpt><trkpt lat="46.1823943" lon="13.5000623"><ele>670.0</ele><time>2026-05-02T12:01:11.823Z</time></trkpt><trkpt lat="46.1825026" lon="13.4999554"><ele>671.0</ele><time>2026-05-02T12:01:12.824Z</time></trkpt><trkpt lat="46.1826118" lon="13.4998507"><ele>671.0</ele><time>2026-05-02T12:01:13.829Z</time></trkpt><trkpt lat="46.1827122" lon="13.499756"><ele>671.0</ele><time>2026-05-02T12:01:14.84Z</time></trkpt><trkpt lat="46.1828125" lon="13.4996686"><ele>671.0</ele><time>2026-05-02T12:01:15.825Z</time></trkpt><trkpt lat="46.1828988" lon="13.4995864"><ele>671.0</ele><time>2026-05-02T12:01:16.826Z</time></trkpt><trkpt lat="46.182974" lon="13.4995324"><ele>671.0</ele><time>2026-05-02T12:01:17.831Z</time></trkpt><trkpt lat="46.1830381" lon="13.4995133"><ele>669.8</ele><time>2026-05-02T12:01:18.828Z</time></trkpt><trkpt lat="46.1831014" lon="13.4994908"><ele>668.5999999999999</ele><time>2026-05-02T12:01:19.837Z</time></trkpt><trkpt lat="46.1832589" lon="13.4994144"><ele>667.4</ele><time>2026-05-02T12:01:21.829Z</time></trkpt><trkpt lat="46.1833457" lon="13.4993547"><ele>666.2</ele><time>2026-05-02T12:01:22.832Z</time></trkpt><trkpt lat="46.1834281" lon="13.4992564"><ele>665.0</ele><time>2026-05-02T12:01:23.826Z</time></trkpt><trkpt lat="46.1834954" lon="13.4991355"><ele>665.0</ele><time>2026-05-02T12:01:24.822Z</time></trkpt><trkpt lat="46.1835491" lon="13.4990005"><ele>665.0</ele><time>2026-05-02T12:01:25.825Z</time></trkpt><trkpt lat="46.1836017" lon="13.4988901"><ele>665.0</ele><time>2026-05-02T12:01:26.829Z</time></trkpt><trkpt lat="46.183674" lon="13.4987959"><ele>665.0</ele><time>2026-05-02T12:01:27.83Z</time></trkpt><trkpt lat="46.1837557" lon="13.4987121"><ele>665.0</ele><time>2026-05-02T12:01:28.833Z</time></trkpt><trkpt lat="46.1838482" lon="13.4986214"><ele>663.4</ele><time>2026-05-02T12:01:29.829Z</time></trkpt><trkpt lat="46.1839423" lon="13.4985452"><ele>661.8</ele><time>2026-05-02T12:01:30.832Z</time></trkpt><trkpt lat="46.1840396" lon="13.4984665"><ele>660.2</ele><time>2026-05-02T12:01:31.829Z</time></trkpt><trkpt lat="46.1841278" lon="13.4983947"><ele>658.6</ele><time>2026-05-02T12:01:32.835Z</time></trkpt><trkpt lat="46.1842134" lon="13.4983273"><ele>657.0</ele><time>2026-05-02T12:01:33.824Z</time></trkpt><trkpt lat="46.1842926" lon="13.4982612"><ele>657.0</ele><time>2026-05-02T12:01:34.825Z</time></trkpt><trkpt lat="46.1843658" lon="13.4981898"><ele>657.0</ele><time>2026-05-02T12:01:35.825Z</time></trkpt><trkpt lat="46.1844189" lon="13.4981027"><ele>657.0</ele><time>2026-05-02T12:01:36.828Z</time></trkpt><trkpt lat="46.184458" lon="13.4980043"><ele>657.0</ele><time>2026-05-02T12:01:37.831Z</time></trkpt><trkpt lat="46.1845029" lon="13.4978916"><ele>657.0</ele><time>2026-05-02T12:01:38.826Z</time></trkpt><trkpt lat="46.1845612" lon="13.4977956"><ele>657.0</ele><time>2026-05-02T12:01:39.823Z</time></trkpt><trkpt lat="46.1846124" lon="13.49774"><ele>658.75</ele><time>2026-05-02T12:01:40.825Z</time></trkpt><trkpt lat="46.1847969" lon="13.4976904"><ele>660.5</ele><time>2026-05-02T12:01:43.826Z</time></trkpt><trkpt lat="46.1848704" lon="13.4977016"><ele>662.25</ele><time>2026-05-02T12:01:44.833Z</time></trkpt><trkpt lat="46.1849402" lon="13.4977"><ele>664.0</ele><time>2026-05-02T12:01:45.83Z</time></trkpt><trkpt lat="46.1850675" lon="13.497626"><ele>664.0</ele><time>2026-05-02T12:01:47.826Z</time></trkpt><trkpt lat="46.1851305" lon="13.4975768"><ele>664.0</ele><time>2026-05-02T12:01:48.828Z</time></trkpt><trkpt lat="46.1851742" lon="13.4975045"><ele>664.0</ele><time>2026-05-02T12:01:49.823Z</time></trkpt><trkpt lat="46.1852203" lon="13.497426"><ele>664.0</ele><time>2026-05-02T12:01:50.822Z</time></trkpt><trkpt lat="46.1852763" lon="13.497341"><ele>664.0</ele><time>2026-05-02T12:01:51.829Z</time></trkpt><trkpt lat="46.1853498" lon="13.4972699"><ele>664.0</ele><time>2026-05-02T12:01:52.823Z</time></trkpt><trkpt lat="46.1854158" lon="13.4971862"><ele>664.0</ele><time>2026-05-02T12:01:53.821Z</time></trkpt><trkpt lat="46.1854771" lon="13.497101"><ele>664.0</ele><time>2026-05-02T12:01:54.832Z</time></trkpt><trkpt lat="46.1855209" lon="13.496979"><ele>664.0</ele><time>2026-05-02T12:01:55.833Z</time></trkpt><trkpt lat="46.1855579" lon="13.4968482"><ele>664.0</ele><time>2026-05-02T12:01:56.821Z</time></trkpt><trkpt lat="46.1855836" lon="13.4967045"><ele>664.0</ele><time>2026-05-02T12:01:57.827Z</time></trkpt><trkpt lat="46.1856186" lon="13.4965753"><ele>661.0</ele><time>2026-05-02T12:01:58.832Z</time></trkpt><trkpt lat="46.1856389" lon="13.4964384"><ele>658.0</ele><time>2026-05-02T12:01:59.824Z</time></trkpt><trkpt lat="46.1856574" lon="13.4963032"><ele>655.0</ele><time>2026-05-02T12:02:00.82Z</time></trkpt><trkpt lat="46.1857021" lon="13.4961769"><ele>652.0</ele><time>2026-05-02T12:02:01.818Z</time></trkpt><trkpt lat="46.1858044" lon="13.4959242"><ele>656.1666666666667</ele><time>2026-05-02T12:02:03.825Z</time></trkpt><trkpt lat="46.1858642" lon="13.4958194"><ele>660.3333333333334</ele><time>2026-05-02T12:02:04.828Z</time></trkpt><trkpt lat="46.1859266" lon="13.4957423"><ele>664.5</ele><time>2026-05-02T12:02:05.825Z</time></trkpt><trkpt lat="46.1859912" lon="13.4956827"><ele>668.6666666666666</ele><time>2026-05-02T12:02:06.825Z</time></trkpt><trkpt lat="46.1860697" lon="13.4956515"><ele>672.8333333333333</ele><time>2026-05-02T12:02:07.829Z</time></trkpt><trkpt lat="46.1861416" lon="13.4956155"><ele>677.0</ele><time>2026-05-02T12:02:08.826Z</time></trkpt><trkpt lat="46.1862157" lon="13.4956011"><ele>677.0</ele><time>2026-05-02T12:02:09.832Z</time></trkpt><trkpt lat="46.1862886" lon="13.4955897"><ele>677.0</ele><time>2026-05-02T12:02:10.84Z</time></trkpt><trkpt lat="46.1863752" lon="13.4956289"><ele>677.0</ele><time>2026-05-02T12:02:11.832Z</time></trkpt><trkpt lat="46.1864507" lon="13.4956899"><ele>677.0</ele><time>2026-05-02T12:02:12.829Z</time></trkpt><trkpt lat="46.1865266" lon="13.4957844"><ele>677.0</ele><time>2026-05-02T12:02:13.836Z</time></trkpt><trkpt lat="46.1865993" lon="13.495885"><ele>680.0</ele><time>2026-05-02T12:02:14.824Z</time></trkpt><trkpt lat="46.1866858" lon="13.4959956"><ele>683.0</ele><time>2026-05-02T12:02:15.832Z</time></trkpt><trkpt lat="46.186772" lon="13.4961035"><ele>686.0</ele><time>2026-05-02T12:02:16.828Z</time></trkpt><trkpt lat="46.1868606" lon="13.496217"><ele>689.0</ele><time>2026-05-02T12:02:17.836Z</time></trkpt><trkpt lat="46.1869566" lon="13.4963269"><ele>690.5</ele><time>2026-05-02T12:02:18.822Z</time></trkpt><trkpt lat="46.1870638" lon="13.496434"><ele>692.0</ele><time>2026-05-02T12:02:19.825Z</time></trkpt><trkpt lat="46.1871745" lon="13.4965289"><ele>693.5</ele><time>2026-05-02T12:02:20.83Z</time></trkpt><trkpt lat="46.1872718" lon="13.4966245"><ele>695.0</ele><time>2026-05-02T12:02:21.829Z</time></trkpt><trkpt lat="46.1873698" lon="13.4967109"><ele>695.0</ele><time>2026-05-02T12:02:22.831Z</time></trkpt><trkpt lat="46.1875597" lon="13.4968442"><ele>695.0</ele><time>2026-05-02T12:02:24.836Z</time></trkpt><trkpt lat="46.187651" lon="13.4969012"><ele>695.0</ele><time>2026-05-02T12:02:25.831Z</time></trkpt><trkpt lat="46.1877549" lon="13.4969543"><ele>695.0</ele><time>2026-05-02T12:02:26.828Z</time></trkpt><trkpt lat="46.1878432" lon="13.4970037"><ele>695.0</ele><time>2026-05-02T12:02:27.821Z</time></trkpt><trkpt lat="46.187937" lon="13.4970444"><ele>695.0</ele><time>2026-05-02T12:02:28.837Z</time></trkpt><trkpt lat="46.1880432" lon="13.4970902"><ele>695.0</ele><time>2026-05-02T12:02:29.831Z</time></trkpt><trkpt lat="46.1881502" lon="13.4971404"><ele>695.0</ele><time>2026-05-02T12:02:30.831Z</time></trkpt><trkpt lat="46.1882558" lon="13.4971933"><ele>695.0</ele><time>2026-05-02T12:02:31.827Z</time></trkpt><trkpt lat="46.1883468" lon="13.4972303"><ele>700.0</ele><time>2026-05-02T12:02:32.826Z</time></trkpt><trkpt lat="46.188434" lon="13.4972694"><ele>705.0</ele><time>2026-05-02T12:02:33.831Z</time></trkpt><trkpt lat="46.1885269" lon="13.4973066"><ele>710.0</ele><time>2026-05-02T12:02:34.826Z</time></trkpt><trkpt lat="46.1886161" lon="13.4973449"><ele>715.0</ele><time>2026-05-02T12:02:35.825Z</time></trkpt><trkpt lat="46.1886974" lon="13.4973733"><ele>720.0</ele><time>2026-05-02T12:02:36.841Z</time></trkpt><trkpt lat="46.1887779" lon="13.4974032"><ele>725.0</ele><time>2026-05-02T12:02:37.824Z</time></trkpt><trkpt lat="46.1888652" lon="13.4974247"><ele>725.0</ele><time>2026-05-02T12:02:38.83Z</time></trkpt><trkpt lat="46.1889527" lon="13.4974351"><ele>725.0</ele><time>2026-05-02T12:02:39.825Z</time></trkpt><trkpt lat="46.1890409" lon="13.4974033"><ele>725.0</ele><time>2026-05-02T12:02:40.825Z</time></trkpt><trkpt lat="46.1891517" lon="13.4973394"><ele>725.0</ele><time>2026-05-02T12:02:41.825Z</time></trkpt><trkpt lat="46.1892544" lon="13.4972976"><ele>725.0</ele><time>2026-05-02T12:02:42.831Z</time></trkpt><trkpt lat="46.1893573" lon="13.4972393"><ele>727.25</ele><time>2026-05-02T12:02:43.825Z</time></trkpt><trkpt lat="46.1895512" lon="13.4971322"><ele>729.5</ele><time>2026-05-02T12:02:45.823Z</time></trkpt><trkpt lat="46.1896429" lon="13.4970838"><ele>731.75</ele><time>2026-05-02T12:02:46.826Z</time></trkpt><trkpt lat="46.1897232" lon="13.4970442"><ele>734.0</ele><time>2026-05-02T12:02:47.823Z</time></trkpt><trkpt lat="46.1897893" lon="13.4970015"><ele>736.7142857142857</ele><time>2026-05-02T12:02:48.824Z</time></trkpt><trkpt lat="46.1898719" lon="13.4969982"><ele>739.4285714285714</ele><time>2026-05-02T12:02:49.825Z</time></trkpt><trkpt lat="46.1899536" lon="13.4970053"><ele>742.1428571428571</ele><time>2026-05-02T12:02:50.831Z</time></trkpt><trkpt lat="46.1900221" lon="13.4970127"><ele>744.8571428571429</ele><time>2026-05-02T12:02:51.824Z</time></trkpt><trkpt lat="46.1900901" lon="13.4970274"><ele>747.5714285714287</ele><time>2026-05-02T12:02:52.834Z</time></trkpt><trkpt lat="46.1901644" lon="13.497045"><ele>750.2857142857143</ele><time>2026-05-02T12:02:53.827Z</time></trkpt><trkpt lat="46.1902284" lon="13.4970666"><ele>753.0</ele><time>2026-05-02T12:02:54.826Z</time></trkpt><trkpt lat="46.1902871" lon="13.4971082"><ele>753.0</ele><time>2026-05-02T12:02:55.829Z</time></trkpt><trkpt lat="46.1903472" lon="13.497176"><ele>753.0</ele><time>2026-05-02T12:02:56.833Z</time></trkpt><trkpt lat="46.1904113" lon="13.4972493"><ele>753.0</ele><time>2026-05-02T12:02:57.825Z</time></trkpt><trkpt lat="46.1904617" lon="13.4973151"><ele>753.0</ele><time>2026-05-02T12:02:58.829Z</time></trkpt><trkpt lat="46.1905198" lon="13.4973876"><ele>753.0</ele><time>2026-05-02T12:02:59.834Z</time></trkpt><trkpt lat="46.1905769" lon="13.4974356"><ele>753.0</ele><time>2026-05-02T12:03:00.83Z</time></trkpt><trkpt lat="46.1906361" lon="13.4974764"><ele>753.0</ele><time>2026-05-02T12:03:01.828Z</time></trkpt><trkpt lat="46.190706" lon="13.4975281"><ele>750.25</ele><time>2026-05-02T12:03:02.832Z</time></trkpt><trkpt lat="46.1907816" lon="13.4975888"><ele>747.5</ele><time>2026-05-02T12:03:03.823Z</time></trkpt><trkpt lat="46.1908618" lon="13.4976618"><ele>744.75</ele><time>2026-05-02T12:03:04.821Z</time></trkpt><trkpt lat="46.1909831" lon="13.4977789"><ele>742.0</ele><time>2026-05-02T12:03:06.822Z</time></trkpt><trkpt lat="46.1910994" lon="13.4978718"><ele>747.5</ele><time>2026-05-02T12:03:08.829Z</time></trkpt><trkpt lat="46.1911557" lon="13.4979197"><ele>753.0</ele><time>2026-05-02T12:03:09.845Z</time></trkpt><trkpt lat="46.1912124" lon="13.4979715"><ele>758.5</ele><time>2026-05-02T12:03:10.825Z</time></trkpt><trkpt lat="46.1913202" lon="13.4980037"><ele>764.0</ele><time>2026-05-02T12:03:12.826Z</time></trkpt><trkpt lat="46.1914456" lon="13.4979963"><ele>769.4999999999999</ele><time>2026-05-02T12:03:14.828Z</time></trkpt><trkpt lat="46.1915192" lon="13.4979812"><ele>775.0</ele><time>2026-05-02T12:03:15.824Z</time></trkpt><trkpt lat="46.1915859" lon="13.4979583"><ele>774.9999999999999</ele><time>2026-05-02T12:03:16.825Z</time></trkpt><trkpt lat="46.1916693" lon="13.4979233"><ele>775.0</ele><time>2026-05-02T12:03:17.821Z</time></trkpt><trkpt lat="46.1917468" lon="13.4978449"><ele>775.0</ele><time>2026-05-02T12:03:18.827Z</time></trkpt><trkpt lat="46.1918162" lon="13.4977695"><ele>775.0</ele><time>2026-05-02T12:03:19.831Z</time></trkpt><trkpt lat="46.191879" lon="13.4976959"><ele>774.9999999999999</ele><time>2026-05-02T12:03:20.831Z</time></trkpt><trkpt lat="46.1919547" lon="13.4976664"><ele>775.0</ele><time>2026-05-02T12:03:21.82Z</time></trkpt><trkpt lat="46.1920234" lon="13.4976692"><ele>761.25</ele><time>2026-05-02T12:03:22.83Z</time></trkpt><trkpt lat="46.1920984" lon="13.4976965"><ele>747.5</ele><time>2026-05-02T12:03:23.823Z</time></trkpt><trkpt lat="46.1922147" lon="13.4977104"><ele>733.75</ele><time>2026-05-02T12:03:25.833Z</time></trkpt><trkpt lat="46.1924274" lon="13.4977898"><ele>720.0</ele><time>2026-05-02T12:03:29.834Z</time></trkpt><trkpt lat="46.1924546" lon="13.4978945"><ele>722.3333333333334</ele><time>2026-05-02T12:03:30.824Z</time></trkpt><trkpt lat="46.1924851" lon="13.4980133"><ele>724.6666666666666</ele><time>2026-05-02T12:03:31.824Z</time></trkpt><trkpt lat="46.1924964" lon="13.4981289"><ele>727.0</ele><time>2026-05-02T12:03:32.819Z</time></trkpt><trkpt lat="46.1925153" lon="13.4982503"><ele>729.3333333333333</ele><time>2026-05-02T12:03:33.832Z</time></trkpt><trkpt lat="46.1925166" lon="13.4983737"><ele>731.6666666666666</ele><time>2026-05-02T12:03:34.829Z</time></trkpt><trkpt lat="46.1925238" lon="13.4984867"><ele>734.0</ele><time>2026-05-02T12:03:35.824Z</time></trkpt><trkpt lat="46.1925318" lon="13.4985855"><ele>734.0</ele><time>2026-05-02T12:03:36.821Z</time></trkpt><trkpt lat="46.1925363" lon="13.4986933"><ele>734.0</ele><time>2026-05-02T12:03:37.827Z</time></trkpt><trkpt lat="46.1925493" lon="13.4988078"><ele>734.0</ele><time>2026-05-02T12:03:38.826Z</time></trkpt><trkpt lat="46.1925638" lon="13.4989244"><ele>734.0</ele><time>2026-05-02T12:03:39.823Z</time></trkpt><trkpt lat="46.1925616" lon="13.4990321"><ele>734.0</ele><time>2026-05-02T12:03:40.838Z</time></trkpt><trkpt lat="46.1925671" lon="13.4991511"><ele>734.0</ele><time>2026-05-02T12:03:41.83Z</time></trkpt><trkpt lat="46.1925695" lon="13.4992701"><ele>735.0</ele><time>2026-05-02T12:03:42.83Z</time></trkpt><trkpt lat="46.1925711" lon="13.4993766"><ele>736.0</ele><time>2026-05-02T12:03:43.837Z</time></trkpt><trkpt lat="46.1925888" lon="13.4994715"><ele>737.0</ele><time>2026-05-02T12:03:44.828Z</time></trkpt><trkpt lat="46.1926131" lon="13.4995602"><ele>738.0</ele><time>2026-05-02T12:03:45.824Z</time></trkpt><trkpt lat="46.1926432" lon="13.4997032"><ele>739.0</ele><time>2026-05-02T12:03:47.835Z</time></trkpt><trkpt lat="46.1926441" lon="13.4999941"><ele>740.1666666666667</ele><time>2026-05-02T12:03:51.826Z</time></trkpt><trkpt lat="46.1926501" lon="13.5000971"><ele>741.3333333333334</ele><time>2026-05-02T12:03:53.83Z</time></trkpt><trkpt lat="46.1926753" lon="13.5001919"><ele>742.5</ele><time>2026-05-02T12:03:55.833Z</time></trkpt><trkpt lat="46.19274" lon="13.5002351"><ele>743.6666666666666</ele><time>2026-05-02T12:04:00.825Z</time></trkpt><trkpt lat="46.1928088" lon="13.500219"><ele>744.8333333333333</ele><time>2026-05-02T12:04:02.83Z</time></trkpt><trkpt lat="46.1929034" lon="13.5002169"><ele>746.0</ele><time>2026-05-02T12:04:04.831Z</time></trkpt><trkpt lat="46.1930049" lon="13.5001795"><ele>746.0</ele><time>2026-05-02T12:04:06.824Z</time></trkpt><trkpt lat="46.1931264" lon="13.5001403"><ele>746.0</ele><time>2026-05-02T12:04:08.825Z</time></trkpt><trkpt lat="46.1932647" lon="13.5000943"><ele>746.0</ele><time>2026-05-02T12:04:10.838Z</time></trkpt><trkpt lat="46.1933356" lon="13.5000673"><ele>746.0</ele><time>2026-05-02T12:04:11.824Z</time></trkpt><trkpt lat="46.1934593" lon="13.5000397"><ele>737.5</ele><time>2026-05-02T12:04:13.819Z</time></trkpt><trkpt lat="46.1935568" lon="13.5000661"><ele>729.0</ele><time>2026-05-02T12:04:15.83Z</time></trkpt><trkpt lat="46.1936733" lon="13.5001203"><ele>720.5</ele><time>2026-05-02T12:04:17.832Z</time></trkpt><trkpt lat="46.1937562" lon="13.5002403"><ele>712.0</ele><time>2026-05-02T12:04:19.824Z</time></trkpt><trkpt lat="46.1938226" lon="13.5003923"><ele>719.0</ele><time>2026-05-02T12:04:21.831Z</time></trkpt><trkpt lat="46.1938013" lon="13.5004904"><ele>726.0</ele><time>2026-05-02T12:04:22.826Z</time></trkpt><trkpt lat="46.1937686" lon="13.5006118"><ele>733.0</ele><time>2026-05-02T12:04:23.829Z</time></trkpt><trkpt lat="46.193752" lon="13.5007712"><ele>740.0</ele><time>2026-05-02T12:04:24.822Z</time></trkpt><trkpt lat="46.1937142" lon="13.5009151"><ele>747.0</ele><time>2026-05-02T12:04:25.833Z</time></trkpt><trkpt lat="46.1937298" lon="13.5010332"><ele>747.0</ele><time>2026-05-02T12:04:26.833Z</time></trkpt><trkpt lat="46.1937637" lon="13.5011603"><ele>747.0</ele><time>2026-05-02T12:04:28.826Z</time></trkpt><trkpt lat="46.1938532" lon="13.5012762"><ele>747.0</ele><time>2026-05-02T12:04:30.826Z</time></trkpt><trkpt lat="46.1940528" lon="13.5014794"><ele>747.0</ele><time>2026-05-02T12:04:34.825Z</time></trkpt><trkpt lat="46.1941274" lon="13.5015169"><ele>747.0</ele><time>2026-05-02T12:04:35.822Z</time></trkpt><trkpt lat="46.194202" lon="13.5015663"><ele>747.0</ele><time>2026-05-02T12:04:36.829Z</time></trkpt><trkpt lat="46.1942846" lon="13.5016336"><ele>747.0</ele><time>2026-05-02T12:04:37.826Z</time></trkpt><trkpt lat="46.1943666" lon="13.501714"><ele>747.0</ele><time>2026-05-02T12:04:38.822Z</time></trkpt><trkpt lat="46.1944384" lon="13.5017969"><ele>747.0</ele><time>2026-05-02T12:04:39.824Z</time></trkpt><trkpt lat="46.1945143" lon="13.5018786"><ele>747.0</ele><time>2026-05-02T12:04:40.836Z</time></trkpt><trkpt lat="46.1946034" lon="13.5019756"><ele>747.0</ele><time>2026-05-02T12:04:41.825Z</time></trkpt><trkpt lat="46.1946882" lon="13.5020542"><ele>747.0</ele><time>2026-05-02T12:04:42.833Z</time></trkpt><trkpt lat="46.1947725" lon="13.5021292"><ele>747.0</ele><time>2026-05-02T12:04:43.826Z</time></trkpt><trkpt lat="46.1948579" lon="13.5021906"><ele>747.0</ele><time>2026-05-02T12:04:44.837Z</time></trkpt><trkpt lat="46.1949269" lon="13.5022647"><ele>747.0</ele><time>2026-05-02T12:04:45.829Z</time></trkpt><trkpt lat="46.1949937" lon="13.5023536"><ele>747.0</ele><time>2026-05-02T12:04:46.83Z</time></trkpt><trkpt lat="46.1950736" lon="13.5024585"><ele>747.0</ele><time>2026-05-02T12:04:47.823Z</time></trkpt><trkpt lat="46.1951087" lon="13.5025614"><ele>747.0</ele><time>2026-05-02T12:04:48.842Z</time></trkpt><trkpt lat="46.1951518" lon="13.5026589"><ele>747.0</ele><time>2026-05-02T12:04:49.827Z</time></trkpt><trkpt lat="46.1952077" lon="13.5027449"><ele>747.0</ele><time>2026-05-02T12:04:50.828Z</time></trkpt><trkpt lat="46.19526" lon="13.5028066"><ele>747.0</ele><time>2026-05-02T12:04:51.826Z</time></trkpt><trkpt lat="46.1954129" lon="13.5029752"><ele>747.0</ele><time>2026-05-02T12:04:54.833Z</time></trkpt><trkpt lat="46.1954586" lon="13.5030495"><ele>747.0</ele><time>2026-05-02T12:04:55.829Z</time></trkpt><trkpt lat="46.1955031" lon="13.5031336"><ele>747.0</ele><time>2026-05-02T12:04:56.828Z</time></trkpt><trkpt lat="46.1955376" lon="13.5032303"><ele>747.0</ele><time>2026-05-02T12:04:58.841Z</time></trkpt><trkpt lat="46.1956084" lon="13.5032937"><ele>747.0</ele><time>2026-05-02T12:05:00.821Z</time></trkpt><trkpt lat="46.1956856" lon="13.5034149"><ele>747.0</ele><time>2026-05-02T12:05:02.825Z</time></trkpt><trkpt lat="46.1957217" lon="13.503503"><ele>747.0</ele><time>2026-05-02T12:05:03.827Z</time></trkpt><trkpt lat="46.1957703" lon="13.503587"><ele>747.0</ele><time>2026-05-02T12:05:04.835Z</time></trkpt><trkpt lat="46.1958449" lon="13.503739"><ele>747.0</ele><time>2026-05-02T12:05:06.828Z</time></trkpt><trkpt lat="46.1958944" lon="13.5038279"><ele>747.0</ele><time>2026-05-02T12:05:07.824Z</time></trkpt><trkpt lat="46.1959484" lon="13.5039231"><ele>747.0</ele><time>2026-05-02T12:05:08.83Z</time></trkpt><trkpt lat="46.1960007" lon="13.50401"><ele>747.0</ele><time>2026-05-02T12:05:09.833Z</time></trkpt><trkpt lat="46.1960651" lon="13.5040967"><ele>747.0</ele><time>2026-05-02T12:05:10.824Z</time></trkpt><trkpt lat="46.1961295" lon="13.5041752"><ele>747.0</ele><time>2026-05-02T12:05:11.828Z</time></trkpt><trkpt lat="46.1961689" lon="13.5042559"><ele>747.0</ele><time>2026-05-02T12:05:12.833Z</time></trkpt><trkpt lat="46.1962631" lon="13.5044357"><ele>747.0</ele><time>2026-05-02T12:05:14.832Z</time></trkpt><trkpt lat="46.1962922" lon="13.5045328"><ele>747.0</ele><time>2026-05-02T12:05:15.822Z</time></trkpt><trkpt lat="46.1963231" lon="13.5046366"><ele>747.0</ele><time>2026-05-02T12:05:16.825Z</time></trkpt><trkpt lat="46.1963518" lon="13.5047501"><ele>747.0</ele><time>2026-05-02T12:05:17.826Z</time></trkpt><trkpt lat="46.1963647" lon="13.5048814"><ele>747.0</ele><time>2026-05-02T12:05:18.83Z</time></trkpt><trkpt lat="46.196371" lon="13.5049964"><ele>747.0</ele><time>2026-05-02T12:05:19.832Z</time></trkpt><trkpt lat="46.196401" lon="13.5050946"><ele>746.9999999999999</ele><time>2026-05-02T12:05:20.825Z</time></trkpt><trkpt lat="46.1964334" lon="13.5051824"><ele>747.0</ele><time>2026-05-02T12:05:21.828Z</time></trkpt><trkpt lat="46.1964597" lon="13.505267"><ele>747.0</ele><time>2026-05-02T12:05:22.82Z</time></trkpt><trkpt lat="46.1964821" lon="13.505357"><ele>747.0</ele><time>2026-05-02T12:05:23.833Z</time></trkpt><trkpt lat="46.1965055" lon="13.5054522"><ele>747.0</ele><time>2026-05-02T12:05:24.83Z</time></trkpt><trkpt lat="46.1965283" lon="13.5055426"><ele>746.9999999999999</ele><time>2026-05-02T12:05:25.82Z</time></trkpt><trkpt lat="46.1965428" lon="13.5056653"><ele>747.0</ele><time>2026-05-02T12:05:27.821Z</time></trkpt><trkpt lat="46.1966194" lon="13.5056645"><ele>747.0</ele><time>2026-05-02T12:05:35.831Z</time></trkpt><trkpt lat="46.1967917" lon="13.5057816"><ele>747.0</ele><time>2026-05-02T12:05:39.815Z</time></trkpt><trkpt lat="46.1968266" lon="13.5058677"><ele>747.0</ele><time>2026-05-02T12:05:40.82Z</time></trkpt><trkpt lat="46.1968567" lon="13.5059657"><ele>747.0</ele><time>2026-05-02T12:05:41.82Z</time></trkpt><trkpt lat="46.196884" lon="13.5060669"><ele>747.0</ele><time>2026-05-02T12:05:42.829Z</time></trkpt><trkpt lat="46.1969209" lon="13.5061713"><ele>747.0</ele><time>2026-05-02T12:05:43.822Z</time></trkpt><trkpt lat="46.1969539" lon="13.5062828"><ele>747.0</ele><time>2026-05-02T12:05:44.824Z</time></trkpt><trkpt lat="46.1969845" lon="13.5063906"><ele>747.0</ele><time>2026-05-02T12:05:45.819Z</time></trkpt><trkpt lat="46.1970313" lon="13.5064934"><ele>747.0</ele><time>2026-05-02T12:05:46.822Z</time></trkpt><trkpt lat="46.1970727" lon="13.5065939"><ele>747.0</ele><time>2026-05-02T12:05:47.821Z</time></trkpt><trkpt lat="46.1971065" lon="13.5066993"><ele>747.0</ele><time>2026-05-02T12:05:48.819Z</time></trkpt><trkpt lat="46.197129" lon="13.5068033"><ele>747.0</ele><time>2026-05-02T12:05:49.826Z</time></trkpt><trkpt lat="46.1971521" lon="13.5069135"><ele>747.0</ele><time>2026-05-02T12:05:50.824Z</time></trkpt><trkpt lat="46.1971732" lon="13.5070399"><ele>747.0</ele><time>2026-05-02T12:05:51.824Z</time></trkpt><trkpt lat="46.1971959" lon="13.5071622"><ele>747.0</ele><time>2026-05-02T12:05:52.827Z</time></trkpt><trkpt lat="46.197224" lon="13.5072726"><ele>747.0</ele><time>2026-05-02T12:05:53.823Z</time></trkpt><trkpt lat="46.1972454" lon="13.5073796"><ele>747.0</ele><time>2026-05-02T12:05:54.836Z</time></trkpt><trkpt lat="46.1972578" lon="13.5074895"><ele>747.0</ele><time>2026-05-02T12:05:55.821Z</time></trkpt><trkpt lat="46.1972685" lon="13.5076101"><ele>747.0</ele><time>2026-05-02T12:05:56.829Z</time></trkpt><trkpt lat="46.1973338" lon="13.5078405"><ele>747.0</ele><time>2026-05-02T12:05:59.818Z</time></trkpt><trkpt lat="46.1974184" lon="13.507855"><ele>747.0</ele><time>2026-05-02T12:06:02.821Z</time></trkpt><trkpt lat="46.1974609" lon="13.5077813"><ele>747.0</ele><time>2026-05-02T12:06:03.825Z</time></trkpt><trkpt lat="46.1975142" lon="13.5076655"><ele>747.0</ele><time>2026-05-02T12:06:04.839Z</time></trkpt><trkpt lat="46.197572" lon="13.5075145"><ele>747.0</ele><time>2026-05-02T12:06:05.821Z</time></trkpt><trkpt lat="46.1976328" lon="13.507357"><ele>747.0</ele><time>2026-05-02T12:06:06.822Z</time></trkpt><trkpt lat="46.1977065" lon="13.507094"><ele>747.0</ele><time>2026-05-02T12:06:08.621Z</time></trkpt><trkpt lat="46.1978007" lon="13.5068863"><ele>747.0</ele><time>2026-05-02T12:06:10.425Z</time></trkpt><trkpt lat="46.1978483" lon="13.5067513"><ele>747.0</ele><time>2026-05-02T12:06:11.42Z</time></trkpt><trkpt lat="46.1979003" lon="13.5066047"><ele>747.0</ele><time>2026-05-02T12:06:12.427Z</time></trkpt><trkpt lat="46.1980034" lon="13.5063081"><ele>747.0</ele><time>2026-05-02T12:06:14.235Z</time></trkpt><trkpt lat="46.1980654" lon="13.5060083"><ele>746.6666666666666</ele><time>2026-05-02T12:06:16.019Z</time></trkpt><trkpt lat="46.1980993" lon="13.5058306"><ele>746.3333333333333</ele><time>2026-05-02T12:06:17.022Z</time></trkpt><trkpt lat="46.1981128" lon="13.505665"><ele>746.0</ele><time>2026-05-02T12:06:18.024Z</time></trkpt><trkpt lat="46.1981532" lon="13.5053139"><ele>754.3333333333333</ele><time>2026-05-02T12:06:20.02Z</time></trkpt><trkpt lat="46.1981851" lon="13.5051121"><ele>762.6666666666666</ele><time>2026-05-02T12:06:21.021Z</time></trkpt><trkpt lat="46.198223" lon="13.5048946"><ele>771.0</ele><time>2026-05-02T12:06:22.033Z</time></trkpt><trkpt lat="46.1982586" lon="13.5046612"><ele>768.6666666666666</ele><time>2026-05-02T12:06:23.023Z</time></trkpt><trkpt lat="46.1983009" lon="13.5044273"><ele>766.3333333333333</ele><time>2026-05-02T12:06:24.019Z</time></trkpt><trkpt lat="46.1983386" lon="13.5042069"><ele>764.0</ele><time>2026-05-02T12:06:25.023Z</time></trkpt><trkpt lat="46.1983552" lon="13.5039903"><ele>764.0</ele><time>2026-05-02T12:06:26.015Z</time></trkpt><trkpt lat="46.1983542" lon="13.503757"><ele>764.0</ele><time>2026-05-02T12:06:27.024Z</time></trkpt><trkpt lat="46.1983744" lon="13.503543"><ele>764.0</ele><time>2026-05-02T12:06:28.023Z</time></trkpt><trkpt lat="46.1983886" lon="13.5033353"><ele>763.5</ele><time>2026-05-02T12:06:29.02Z</time></trkpt><trkpt lat="46.1984182" lon="13.5031474"><ele>763.0</ele><time>2026-05-02T12:06:30.02Z</time></trkpt><trkpt lat="46.1984485" lon="13.5029664"><ele>762.5</ele><time>2026-05-02T12:06:31.023Z</time></trkpt><trkpt lat="46.1984796" lon="13.5028007"><ele>762.0</ele><time>2026-05-02T12:06:32.019Z</time></trkpt><trkpt lat="46.1984798" lon="13.5026304"><ele>760.5</ele><time>2026-05-02T12:06:33.032Z</time></trkpt><trkpt lat="46.1984676" lon="13.5024617"><ele>759.0</ele><time>2026-05-02T12:06:34.018Z</time></trkpt><trkpt lat="46.1984692" lon="13.5022716"><ele>757.5</ele><time>2026-05-02T12:06:35.021Z</time></trkpt><trkpt lat="46.1985145" lon="13.5021255"><ele>756.0</ele><time>2026-05-02T12:06:36.018Z</time></trkpt><trkpt lat="46.1985513" lon="13.5019627"><ele>754.5</ele><time>2026-05-02T12:06:37.017Z</time></trkpt><trkpt lat="46.1985673" lon="13.5017895"><ele>753.0</ele><time>2026-05-02T12:06:38.023Z</time></trkpt><trkpt lat="46.1985841" lon="13.5016236"><ele>751.5</ele><time>2026-05-02T12:06:39.026Z</time></trkpt><trkpt lat="46.1986072" lon="13.5013327"><ele>750.0</ele><time>2026-05-02T12:06:41.02Z</time></trkpt><trkpt lat="46.1986033" lon="13.5011766"><ele>749.75</ele><time>2026-05-02T12:06:42.021Z</time></trkpt><trkpt lat="46.1986037" lon="13.5010097"><ele>749.5</ele><time>2026-05-02T12:06:43.02Z</time></trkpt><trkpt lat="46.1986164" lon="13.5008355"><ele>749.25</ele><time>2026-05-02T12:06:44.017Z</time></trkpt><trkpt lat="46.1986407" lon="13.5006521"><ele>749.0</ele><time>2026-05-02T12:06:45.015Z</time></trkpt><trkpt lat="46.1986594" lon="13.5004707"><ele>748.4000000000001</ele><time>2026-05-02T12:06:46.013Z</time></trkpt><trkpt lat="46.1986611" lon="13.500307"><ele>747.8</ele><time>2026-05-02T12:06:47.02Z</time></trkpt><trkpt lat="46.1986455" lon="13.5001667"><ele>747.2</ele><time>2026-05-02T12:06:48.017Z</time></trkpt><trkpt lat="46.1986426" lon="13.5000416"><ele>746.5999999999999</ele><time>2026-05-02T12:06:49.019Z</time></trkpt><trkpt lat="46.1986328" lon="13.4999269"><ele>746.0</ele><time>2026-05-02T12:06:50.025Z</time></trkpt><trkpt lat="46.1986053" lon="13.4998241"><ele>746.0</ele><time>2026-05-02T12:06:51.019Z</time></trkpt><trkpt lat="46.1985831" lon="13.4997265"><ele>746.0</ele><time>2026-05-02T12:06:52.014Z</time></trkpt><trkpt lat="46.1985902" lon="13.4996178"><ele>746.0</ele><time>2026-05-02T12:06:53.021Z</time></trkpt><trkpt lat="46.198615" lon="13.4994743"><ele>746.0</ele><time>2026-05-02T12:06:54.029Z</time></trkpt><trkpt lat="46.198648" lon="13.4993019"><ele>746.0</ele><time>2026-05-02T12:06:55.028Z</time></trkpt><trkpt lat="46.1986827" lon="13.4990032"><ele>745.0</ele><time>2026-05-02T12:06:56.825Z</time></trkpt><trkpt lat="46.1986836" lon="13.4988438"><ele>744.0</ele><time>2026-05-02T12:06:57.82Z</time></trkpt><trkpt lat="46.1986634" lon="13.4987197"><ele>743.0</ele><time>2026-05-02T12:06:58.827Z</time></trkpt><trkpt lat="46.1986565" lon="13.498592"><ele>742.0</ele><time>2026-05-02T12:06:59.827Z</time></trkpt><trkpt lat="46.1986455" lon="13.4983442"><ele>743.3333333333334</ele><time>2026-05-02T12:07:01.834Z</time></trkpt><trkpt lat="46.198635" lon="13.4982434"><ele>744.6666666666667</ele><time>2026-05-02T12:07:02.834Z</time></trkpt><trkpt lat="46.1986313" lon="13.4981486"><ele>746.0</ele><time>2026-05-02T12:07:03.839Z</time></trkpt><trkpt lat="46.1985957" lon="13.4979851"><ele>747.3333333333334</ele><time>2026-05-02T12:07:05.828Z</time></trkpt><trkpt lat="46.1985613" lon="13.4978755"><ele>748.6666666666666</ele><time>2026-05-02T12:07:07.822Z</time></trkpt><trkpt lat="46.1986472" lon="13.497822"><ele>750.0</ele><time>2026-05-02T12:08:36.823Z</time></trkpt><trkpt lat="46.1986837" lon="13.497608"><ele>750.4</ele><time>2026-05-02T12:08:38.836Z</time></trkpt><trkpt lat="46.1986946" lon="13.4974738"><ele>750.8</ele><time>2026-05-02T12:08:39.827Z</time></trkpt><trkpt lat="46.1987306" lon="13.4973308"><ele>751.2</ele><time>2026-05-02T12:08:40.823Z</time></trkpt><trkpt lat="46.1987847" lon="13.4972014"><ele>751.6</ele><time>2026-05-02T12:08:41.832Z</time></trkpt><trkpt lat="46.1988302" lon="13.4970785"><ele>752.0</ele><time>2026-05-02T12:08:42.83Z</time></trkpt><trkpt lat="46.198877" lon="13.4969606"><ele>751.2</ele><time>2026-05-02T12:08:43.832Z</time></trkpt><trkpt lat="46.1989084" lon="13.4968299"><ele>750.4000000000001</ele><time>2026-05-02T12:08:44.832Z</time></trkpt><trkpt lat="46.1989251" lon="13.4966981"><ele>749.5999999999999</ele><time>2026-05-02T12:08:45.828Z</time></trkpt><trkpt lat="46.1989295" lon="13.4965673"><ele>748.8</ele><time>2026-05-02T12:08:46.832Z</time></trkpt><trkpt lat="46.1989146" lon="13.4964348"><ele>748.0</ele><time>2026-05-02T12:08:47.832Z</time></trkpt><trkpt lat="46.1988957" lon="13.4963069"><ele>748.8333333333334</ele><time>2026-05-02T12:08:48.835Z</time></trkpt><trkpt lat="46.1988814" lon="13.4961798"><ele>749.6666666666667</ele><time>2026-05-02T12:08:49.826Z</time></trkpt><trkpt lat="46.1988654" lon="13.4960546"><ele>750.5</ele><time>2026-05-02T12:08:50.839Z</time></trkpt><trkpt lat="46.1988421" lon="13.4959304"><ele>751.3333333333334</ele><time>2026-05-02T12:08:51.824Z</time></trkpt><trkpt lat="46.1988184" lon="13.4958051"><ele>752.1666666666666</ele><time>2026-05-02T12:08:52.832Z</time></trkpt><trkpt lat="46.1988011" lon="13.4956735"><ele>753.0</ele><time>2026-05-02T12:08:53.832Z</time></trkpt><trkpt lat="46.1987759" lon="13.4955456"><ele>753.0</ele><time>2026-05-02T12:08:54.837Z</time></trkpt><trkpt lat="46.1987529" lon="13.4954308"><ele>753.0</ele><time>2026-05-02T12:08:55.825Z</time></trkpt><trkpt lat="46.1987286" lon="13.4953279"><ele>753.0</ele><time>2026-05-02T12:08:56.83Z</time></trkpt><trkpt lat="46.1987079" lon="13.4952287"><ele>753.0</ele><time>2026-05-02T12:08:57.831Z</time></trkpt><trkpt lat="46.1986641" lon="13.4949982"><ele>753.0</ele><time>2026-05-02T12:08:59.823Z</time></trkpt><trkpt lat="46.1986449" lon="13.494871"><ele>754.2</ele><time>2026-05-02T12:09:00.824Z</time></trkpt><trkpt lat="46.1986231" lon="13.49474"><ele>755.4</ele><time>2026-05-02T12:09:01.825Z</time></trkpt><trkpt lat="46.1986056" lon="13.4946063"><ele>756.6</ele><time>2026-05-02T12:09:02.832Z</time></trkpt><trkpt lat="46.1985883" lon="13.4944727"><ele>757.8000000000001</ele><time>2026-05-02T12:09:03.819Z</time></trkpt><trkpt lat="46.1985863" lon="13.4943348"><ele>759.0</ele><time>2026-05-02T12:09:04.827Z</time></trkpt><trkpt lat="46.1985886" lon="13.4941984"><ele>759.8000000000001</ele><time>2026-05-02T12:09:05.825Z</time></trkpt><trkpt lat="46.1985871" lon="13.4940585"><ele>760.6</ele><time>2026-05-02T12:09:06.831Z</time></trkpt><trkpt lat="46.1985833" lon="13.4939261"><ele>761.4</ele><time>2026-05-02T12:09:07.827Z</time></trkpt><trkpt lat="46.198577" lon="13.4937889"><ele>762.2</ele><time>2026-05-02T12:09:08.826Z</time></trkpt><trkpt lat="46.1985684" lon="13.493655"><ele>763.0</ele><time>2026-05-02T12:09:09.826Z</time></trkpt><trkpt lat="46.1985526" lon="13.4935361"><ele>763.4</ele><time>2026-05-02T12:09:10.829Z</time></trkpt><trkpt lat="46.1985263" lon="13.4934129"><ele>763.8</ele><time>2026-05-02T12:09:11.833Z</time></trkpt><trkpt lat="46.1984951" lon="13.4932886"><ele>764.2</ele><time>2026-05-02T12:09:12.822Z</time></trkpt><trkpt lat="46.1984621" lon="13.4931537"><ele>764.6</ele><time>2026-05-02T12:09:13.828Z</time></trkpt><trkpt lat="46.1984341" lon="13.4930107"><ele>765.0</ele><time>2026-05-02T12:09:14.829Z</time></trkpt><trkpt lat="46.1984194" lon="13.4928564"><ele>766.0</ele><time>2026-05-02T12:09:15.821Z</time></trkpt><trkpt lat="46.1984106" lon="13.4926867"><ele>767.0</ele><time>2026-05-02T12:09:16.826Z</time></trkpt><trkpt lat="46.1983882" lon="13.4925216"><ele>768.0</ele><time>2026-05-02T12:09:17.826Z</time></trkpt><trkpt lat="46.1983664" lon="13.492361"><ele>769.0</ele><time>2026-05-02T12:09:18.821Z</time></trkpt><trkpt lat="46.1982857" lon="13.4920568"><ele>771.2</ele><time>2026-05-02T12:09:20.823Z</time></trkpt><trkpt lat="46.1982318" lon="13.4919121"><ele>773.4000000000001</ele><time>2026-05-02T12:09:21.822Z</time></trkpt><trkpt lat="46.1981854" lon="13.4917758"><ele>775.6</ele><time>2026-05-02T12:09:22.827Z</time></trkpt><trkpt lat="46.1981335" lon="13.4916302"><ele>777.8</ele><time>2026-05-02T12:09:23.829Z</time></trkpt><trkpt lat="46.1980815" lon="13.491491"><ele>780.0</ele><time>2026-05-02T12:09:24.845Z</time></trkpt><trkpt lat="46.1980324" lon="13.491353"><ele>776.4</ele><time>2026-05-02T12:09:25.83Z</time></trkpt><trkpt lat="46.197992" lon="13.4912191"><ele>772.8</ele><time>2026-05-02T12:09:26.828Z</time></trkpt><trkpt lat="46.1979411" lon="13.4910834"><ele>769.2</ele><time>2026-05-02T12:09:27.824Z</time></trkpt><trkpt lat="46.1978855" lon="13.4909483"><ele>765.6</ele><time>2026-05-02T12:09:28.833Z</time></trkpt><trkpt lat="46.1978201" lon="13.4908242"><ele>762.0</ele><time>2026-05-02T12:09:29.835Z</time></trkpt><trkpt lat="46.1977486" lon="13.4907229"><ele>762.0</ele><time>2026-05-02T12:09:30.826Z</time></trkpt><trkpt lat="46.1976855" lon="13.490644"><ele>762.0</ele><time>2026-05-02T12:09:31.823Z</time></trkpt><trkpt lat="46.19759" lon="13.4906412"><ele>762.0</ele><time>2026-05-02T12:09:33.828Z</time></trkpt><trkpt lat="46.1975806" lon="13.4908035"><ele>762.0</ele><time>2026-05-02T12:09:35.824Z</time></trkpt><trkpt lat="46.1976436" lon="13.4909049"><ele>762.0</ele><time>2026-05-02T12:09:36.832Z</time></trkpt><trkpt lat="46.1977148" lon="13.491022"><ele>762.0</ele><time>2026-05-02T12:09:37.826Z</time></trkpt><trkpt lat="46.1977646" lon="13.4911664"><ele>762.0</ele><time>2026-05-02T12:09:38.832Z</time></trkpt><trkpt lat="46.1977762" lon="13.4913182"><ele>762.0</ele><time>2026-05-02T12:09:39.829Z</time></trkpt><trkpt lat="46.1977814" lon="13.4916344"><ele>762.0</ele><time>2026-05-02T12:09:41.819Z</time></trkpt><trkpt lat="46.1977693" lon="13.4917955"><ele>759.4000000000001</ele><time>2026-05-02T12:09:42.832Z</time></trkpt><trkpt lat="46.1977516" lon="13.4919547"><ele>756.8000000000001</ele><time>2026-05-02T12:09:43.829Z</time></trkpt><trkpt lat="46.1977517" lon="13.4921141"><ele>754.2</ele><time>2026-05-02T12:09:44.838Z</time></trkpt><trkpt lat="46.1977706" lon="13.4922504"><ele>751.6</ele><time>2026-05-02T12:09:45.821Z</time></trkpt><trkpt lat="46.1978103" lon="13.4923408"><ele>749.0</ele><time>2026-05-02T12:09:46.825Z</time></trkpt><trkpt lat="46.1978428" lon="13.4924755"><ele>749.0</ele><time>2026-05-02T12:09:48.831Z</time></trkpt><trkpt lat="46.1977533" lon="13.4924536"><ele>749.0</ele><time>2026-05-02T12:09:50.835Z</time></trkpt><trkpt lat="46.1976921" lon="13.4923694"><ele>749.0</ele><time>2026-05-02T12:09:51.832Z</time></trkpt><trkpt lat="46.1976269" lon="13.4922824"><ele>749.0</ele><time>2026-05-02T12:09:52.837Z</time></trkpt><trkpt lat="46.1975586" lon="13.4922003"><ele>749.0</ele><time>2026-05-02T12:09:53.835Z</time></trkpt><trkpt lat="46.1974975" lon="13.4921153"><ele>749.0</ele><time>2026-05-02T12:09:54.822Z</time></trkpt><trkpt lat="46.197441" lon="13.4920177"><ele>749.0</ele><time>2026-05-02T12:09:55.817Z</time></trkpt><trkpt lat="46.1973926" lon="13.4919153"><ele>749.0</ele><time>2026-05-02T12:09:56.837Z</time></trkpt><trkpt lat="46.1973472" lon="13.4917905"><ele>749.0</ele><time>2026-05-02T12:09:57.823Z</time></trkpt><trkpt lat="46.1972961" lon="13.4916712"><ele>749.0</ele><time>2026-05-02T12:09:58.822Z</time></trkpt><trkpt lat="46.1972335" lon="13.491573"><ele>749.0</ele><time>2026-05-02T12:09:59.826Z</time></trkpt><trkpt lat="46.1971418" lon="13.49151"><ele>744.6666666666666</ele><time>2026-05-02T12:10:00.828Z</time></trkpt><trkpt lat="46.1969076" lon="13.4914054"><ele>740.3333333333334</ele><time>2026-05-02T12:10:02.83Z</time></trkpt><trkpt lat="46.196803" lon="13.4913281"><ele>736.0</ele><time>2026-05-02T12:10:03.839Z</time></trkpt><trkpt lat="46.196698" lon="13.4912223"><ele>736.0</ele><time>2026-05-02T12:10:04.823Z</time></trkpt><trkpt lat="46.19658" lon="13.491119"><ele>736.0</ele><time>2026-05-02T12:10:05.819Z</time></trkpt><trkpt lat="46.1964601" lon="13.491019"><ele>736.0</ele><time>2026-05-02T12:10:06.829Z</time></trkpt><trkpt lat="46.196332" lon="13.4909225"><ele>736.0</ele><time>2026-05-02T12:10:07.819Z</time></trkpt><trkpt lat="46.196214" lon="13.4908256"><ele>732.1999999999999</ele><time>2026-05-02T12:10:08.829Z</time></trkpt><trkpt lat="46.1961179" lon="13.4907431"><ele>728.4</ele><time>2026-05-02T12:10:09.824Z</time></trkpt><trkpt lat="46.1960424" lon="13.4906649"><ele>724.6</ele><time>2026-05-02T12:10:10.831Z</time></trkpt><trkpt lat="46.1959777" lon="13.4905666"><ele>720.8</ele><time>2026-05-02T12:10:11.825Z</time></trkpt><trkpt lat="46.1959296" lon="13.4904394"><ele>717.0</ele><time>2026-05-02T12:10:12.828Z</time></trkpt><trkpt lat="46.1958863" lon="13.4903011"><ele>717.0</ele><time>2026-05-02T12:10:13.826Z</time></trkpt><trkpt lat="46.1958431" lon="13.4901329"><ele>717.0</ele><time>2026-05-02T12:10:14.822Z</time></trkpt><trkpt lat="46.1957962" lon="13.4899663"><ele>717.0</ele><time>2026-05-02T12:10:15.828Z</time></trkpt><trkpt lat="46.1957369" lon="13.4897947"><ele>717.0</ele><time>2026-05-02T12:10:16.827Z</time></trkpt><trkpt lat="46.1956817" lon="13.4896303"><ele>705.25</ele><time>2026-05-02T12:10:17.822Z</time></trkpt><trkpt lat="46.1956235" lon="13.4894735"><ele>693.5</ele><time>2026-05-02T12:10:18.831Z</time></trkpt><trkpt lat="46.1955831" lon="13.4893062"><ele>681.75</ele><time>2026-05-02T12:10:19.824Z</time></trkpt><trkpt lat="46.1955594" lon="13.4890962"><ele>670.0</ele><time>2026-05-02T12:10:20.835Z</time></trkpt><trkpt lat="46.1955375" lon="13.4888442"><ele>673.5</ele><time>2026-05-02T12:10:21.821Z</time></trkpt><trkpt lat="46.1955178" lon="13.4884049"><ele>677.0</ele><time>2026-05-02T12:10:23.822Z</time></trkpt><trkpt lat="46.1955004" lon="13.4881905"><ele>677.0</ele><time>2026-05-02T12:10:24.83Z</time></trkpt><trkpt lat="46.1954757" lon="13.4879958"><ele>677.0</ele><time>2026-05-02T12:10:25.828Z</time></trkpt><trkpt lat="46.1954664" lon="13.4877965"><ele>677.0</ele><time>2026-05-02T12:10:26.826Z</time></trkpt><trkpt lat="46.1954559" lon="13.4876052"><ele>677.0</ele><time>2026-05-02T12:10:27.823Z</time></trkpt><trkpt lat="46.1954023" lon="13.4873898"><ele>676.6666666666666</ele><time>2026-05-02T12:10:28.828Z</time></trkpt><trkpt lat="46.1953513" lon="13.487175"><ele>676.3333333333334</ele><time>2026-05-02T12:10:29.826Z</time></trkpt><trkpt lat="46.1953058" lon="13.4869564"><ele>676.0</ele><time>2026-05-02T12:10:30.834Z</time></trkpt><trkpt lat="46.1952745" lon="13.4867314"><ele>678.5</ele><time>2026-05-02T12:10:31.82Z</time></trkpt><trkpt lat="46.1952384" lon="13.4865417"><ele>681.0</ele><time>2026-05-02T12:10:32.828Z</time></trkpt><trkpt lat="46.1951629" lon="13.486378"><ele>683.5</ele><time>2026-05-02T12:10:33.832Z</time></trkpt><trkpt lat="46.1950922" lon="13.4862369"><ele>686.0</ele><time>2026-05-02T12:10:34.823Z</time></trkpt><trkpt lat="46.1950055" lon="13.4861385"><ele>687.5</ele><time>2026-05-02T12:10:35.834Z</time></trkpt><trkpt lat="46.1949012" lon="13.4860506"><ele>689.0</ele><time>2026-05-02T12:10:36.826Z</time></trkpt><trkpt lat="46.1947937" lon="13.4859874"><ele>690.5</ele><time>2026-05-02T12:10:37.821Z</time></trkpt><trkpt lat="46.1947076" lon="13.4858994"><ele>692.0</ele><time>2026-05-02T12:10:38.831Z</time></trkpt><trkpt lat="46.1946719" lon="13.4857476"><ele>678.3333333333333</ele><time>2026-05-02T12:10:39.83Z</time></trkpt><trkpt lat="46.1946495" lon="13.4855444"><ele>664.6666666666666</ele><time>2026-05-02T12:10:40.824Z</time></trkpt><trkpt lat="46.1946274" lon="13.4853094"><ele>651.0</ele><time>2026-05-02T12:10:41.82Z</time></trkpt><trkpt lat="46.1946146" lon="13.4850914"><ele>651.0</ele><time>2026-05-02T12:10:42.833Z</time></trkpt><trkpt lat="46.1945794" lon="13.4846653"><ele>651.0</ele><time>2026-05-02T12:10:44.834Z</time></trkpt><trkpt lat="46.1945409" lon="13.4844594"><ele>651.0</ele><time>2026-05-02T12:10:45.821Z</time></trkpt><trkpt lat="46.1944981" lon="13.4842586"><ele>652.4</ele><time>2026-05-02T12:10:46.824Z</time></trkpt><trkpt lat="46.1944401" lon="13.4840789"><ele>653.8</ele><time>2026-05-02T12:10:47.825Z</time></trkpt><trkpt lat="46.1943486" lon="13.4839301"><ele>655.1999999999999</ele><time>2026-05-02T12:10:48.827Z</time></trkpt><trkpt lat="46.1942845" lon="13.4838159"><ele>656.5999999999999</ele><time>2026-05-02T12:10:49.832Z</time></trkpt><trkpt lat="46.1942385" lon="13.4837515"><ele>658.0</ele><time>2026-05-02T12:10:50.825Z</time></trkpt><trkpt lat="46.1941743" lon="13.4837706"><ele>658.0</ele><time>2026-05-02T12:10:51.824Z</time></trkpt><trkpt lat="46.1941322" lon="13.4838442"><ele>658.0</ele><time>2026-05-02T12:10:52.824Z</time></trkpt><trkpt lat="46.1941288" lon="13.484024"><ele>658.0</ele><time>2026-05-02T12:10:54.827Z</time></trkpt><trkpt lat="46.1941731" lon="13.4841648"><ele>658.0</ele><time>2026-05-02T12:10:55.829Z</time></trkpt><trkpt lat="46.1942098" lon="13.4843129"><ele>658.0</ele><time>2026-05-02T12:10:56.827Z</time></trkpt><trkpt lat="46.1942383" lon="13.4844438"><ele>658.0</ele><time>2026-05-02T12:10:57.821Z</time></trkpt><trkpt lat="46.1942634" lon="13.4845838"><ele>658.0</ele><time>2026-05-02T12:10:58.829Z</time></trkpt><trkpt lat="46.1942788" lon="13.4847286"><ele>658.0</ele><time>2026-05-02T12:10:59.822Z</time></trkpt><trkpt lat="46.194282" lon="13.4848699"><ele>658.0</ele><time>2026-05-02T12:11:00.822Z</time></trkpt><trkpt lat="46.1942844" lon="13.4850159"><ele>658.0</ele><time>2026-05-02T12:11:01.822Z</time></trkpt><trkpt lat="46.1942722" lon="13.4851542"><ele>656.25</ele><time>2026-05-02T12:11:02.824Z</time></trkpt><trkpt lat="46.1942548" lon="13.4852839"><ele>654.5</ele><time>2026-05-02T12:11:03.822Z</time></trkpt><trkpt lat="46.1942017" lon="13.4855375"><ele>652.75</ele><time>2026-05-02T12:11:05.827Z</time></trkpt><trkpt lat="46.1941738" lon="13.4856696"><ele>651.0</ele><time>2026-05-02T12:11:06.833Z</time></trkpt><trkpt lat="46.1941473" lon="13.4858035"><ele>650.4</ele><time>2026-05-02T12:11:07.831Z</time></trkpt><trkpt lat="46.1941235" lon="13.4859424"><ele>649.8</ele><time>2026-05-02T12:11:08.822Z</time></trkpt><trkpt lat="46.1941073" lon="13.4860856"><ele>649.1999999999999</ele><time>2026-05-02T12:11:09.825Z</time></trkpt><trkpt lat="46.1940902" lon="13.4862216"><ele>648.5999999999999</ele><time>2026-05-02T12:11:10.829Z</time></trkpt><trkpt lat="46.1940836" lon="13.4863539"><ele>648.0</ele><time>2026-05-02T12:11:11.831Z</time></trkpt><trkpt lat="46.1940792" lon="13.4864854"><ele>648.0</ele><time>2026-05-02T12:11:12.826Z</time></trkpt><trkpt lat="46.1940724" lon="13.4866227"><ele>648.0</ele><time>2026-05-02T12:11:13.822Z</time></trkpt><trkpt lat="46.1940601" lon="13.48676"><ele>648.0</ele><time>2026-05-02T12:11:14.827Z</time></trkpt><trkpt lat="46.1940471" lon="13.4868957"><ele>648.0</ele><time>2026-05-02T12:11:15.823Z</time></trkpt><trkpt lat="46.1940422" lon="13.487041"><ele>648.0</ele><time>2026-05-02T12:11:16.828Z</time></trkpt><trkpt lat="46.1940354" lon="13.4871873"><ele>647.0</ele><time>2026-05-02T12:11:17.824Z</time></trkpt><trkpt lat="46.1940247" lon="13.4873292"><ele>646.0</ele><time>2026-05-02T12:11:18.827Z</time></trkpt><trkpt lat="46.194011" lon="13.4874669"><ele>645.0</ele><time>2026-05-02T12:11:19.825Z</time></trkpt><trkpt lat="46.1939952" lon="13.4875973"><ele>644.0</ele><time>2026-05-02T12:11:20.824Z</time></trkpt><trkpt lat="46.1939792" lon="13.4877212"><ele>643.0</ele><time>2026-05-02T12:11:21.826Z</time></trkpt><trkpt lat="46.1939637" lon="13.4878499"><ele>632.8</ele><time>2026-05-02T12:11:22.827Z</time></trkpt><trkpt lat="46.1939607" lon="13.4879767"><ele>622.5999999999999</ele><time>2026-05-02T12:11:23.832Z</time></trkpt><trkpt lat="46.1939672" lon="13.4880971"><ele>612.4000000000001</ele><time>2026-05-02T12:11:24.827Z</time></trkpt><trkpt lat="46.1939293" lon="13.4882932"><ele>602.2</ele><time>2026-05-02T12:11:27.83Z</time></trkpt><trkpt lat="46.1938803" lon="13.4881335"><ele>592.0</ele><time>2026-05-02T12:11:29.821Z</time></trkpt><trkpt lat="46.1938723" lon="13.4879975"><ele>593.25</ele><time>2026-05-02T12:11:30.833Z</time></trkpt><trkpt lat="46.1938577" lon="13.4878432"><ele>594.5</ele><time>2026-05-02T12:11:31.833Z</time></trkpt><trkpt lat="46.1938458" lon="13.4876784"><ele>595.75</ele><time>2026-05-02T12:11:32.826Z</time></trkpt><trkpt lat="46.193828" lon="13.4875005"><ele>597.0</ele><time>2026-05-02T12:11:33.827Z</time></trkpt><trkpt lat="46.1938155" lon="13.4873323"><ele>597.0</ele><time>2026-05-02T12:11:34.823Z</time></trkpt><trkpt lat="46.1938073" lon="13.4871668"><ele>597.0</ele><time>2026-05-02T12:11:35.827Z</time></trkpt><trkpt lat="46.1937976" lon="13.4870153"><ele>597.0</ele><time>2026-05-02T12:11:36.824Z</time></trkpt><trkpt lat="46.1937786" lon="13.486864"><ele>597.0</ele><time>2026-05-02T12:11:37.818Z</time></trkpt><trkpt lat="46.1937421" lon="13.4867118"><ele>597.0</ele><time>2026-05-02T12:11:38.823Z</time></trkpt><trkpt lat="46.1936998" lon="13.4865633"><ele>598.6666666666666</ele><time>2026-05-02T12:11:39.832Z</time></trkpt><trkpt lat="46.1936684" lon="13.486417"><ele>600.3333333333334</ele><time>2026-05-02T12:11:40.835Z</time></trkpt><trkpt lat="46.1936385" lon="13.4862822"><ele>602.0</ele><time>2026-05-02T12:11:41.826Z</time></trkpt><trkpt lat="46.193609" lon="13.4861762"><ele>603.6666666666667</ele><time>2026-05-02T12:11:42.838Z</time></trkpt><trkpt lat="46.1935274" lon="13.4860873"><ele>605.3333333333334</ele><time>2026-05-02T12:11:44.828Z</time></trkpt><trkpt lat="46.1934707" lon="13.4861269"><ele>607.0</ele><time>2026-05-02T12:11:45.83Z</time></trkpt><trkpt lat="46.193314" lon="13.4862827"><ele>607.0</ele><time>2026-05-02T12:11:47.821Z</time></trkpt><trkpt lat="46.1932248" lon="13.4863548"><ele>607.0</ele><time>2026-05-02T12:11:48.824Z</time></trkpt><trkpt lat="46.1931338" lon="13.4864022"><ele>607.0</ele><time>2026-05-02T12:11:49.834Z</time></trkpt><trkpt lat="46.1930285" lon="13.4864261"><ele>607.0</ele><time>2026-05-02T12:11:50.83Z</time></trkpt><trkpt lat="46.1929052" lon="13.4864248"><ele>607.0</ele><time>2026-05-02T12:11:51.832Z</time></trkpt><trkpt lat="46.1927763" lon="13.4863908"><ele>603.0</ele><time>2026-05-02T12:11:52.829Z</time></trkpt><trkpt lat="46.1926443" lon="13.4863511"><ele>599.0</ele><time>2026-05-02T12:11:53.822Z</time></trkpt><trkpt lat="46.1925172" lon="13.4863194"><ele>595.0</ele><time>2026-05-02T12:11:54.829Z</time></trkpt><trkpt lat="46.1923959" lon="13.4862749"><ele>591.0</ele><time>2026-05-02T12:11:55.82Z</time></trkpt><trkpt lat="46.1922712" lon="13.4862252"><ele>589.4</ele><time>2026-05-02T12:11:56.822Z</time></trkpt><trkpt lat="46.1921453" lon="13.4861876"><ele>587.8</ele><time>2026-05-02T12:11:57.824Z</time></trkpt><trkpt lat="46.1920296" lon="13.4861564"><ele>586.1999999999999</ele><time>2026-05-02T12:11:58.834Z</time></trkpt><trkpt lat="46.1919325" lon="13.4861155"><ele>584.6</ele><time>2026-05-02T12:11:59.829Z</time></trkpt><trkpt lat="46.191857" lon="13.4860463"><ele>583.0</ele><time>2026-05-02T12:12:00.832Z</time></trkpt><trkpt lat="46.1918012" lon="13.4859449"><ele>583.0</ele><time>2026-05-02T12:12:01.826Z</time></trkpt><trkpt lat="46.1917589" lon="13.4858316"><ele>583.0</ele><time>2026-05-02T12:12:02.824Z</time></trkpt><trkpt lat="46.1917073" lon="13.4857363"><ele>583.0</ele><time>2026-05-02T12:12:03.831Z</time></trkpt><trkpt lat="46.1916482" lon="13.4856589"><ele>583.0</ele><time>2026-05-02T12:12:04.828Z</time></trkpt><trkpt lat="46.191565" lon="13.4855944"><ele>583.0</ele><time>2026-05-02T12:12:05.821Z</time></trkpt><trkpt lat="46.1914849" lon="13.4855523"><ele>583.0</ele><time>2026-05-02T12:12:06.82Z</time></trkpt><trkpt lat="46.1913261" lon="13.4854682"><ele>582.1666666666667</ele><time>2026-05-02T12:12:08.833Z</time></trkpt><trkpt lat="46.1912573" lon="13.4854221"><ele>581.3333333333334</ele><time>2026-05-02T12:12:09.822Z</time></trkpt><trkpt lat="46.1911906" lon="13.4853682"><ele>580.5</ele><time>2026-05-02T12:12:10.837Z</time></trkpt><trkpt lat="46.1911235" lon="13.4853143"><ele>579.6666666666666</ele><time>2026-05-02T12:12:11.821Z</time></trkpt><trkpt lat="46.1910621" lon="13.4852702"><ele>578.8333333333333</ele><time>2026-05-02T12:12:12.823Z</time></trkpt><trkpt lat="46.190995" lon="13.4852367"><ele>578.0</ele><time>2026-05-02T12:12:13.821Z</time></trkpt><trkpt lat="46.1909155" lon="13.4852037"><ele>578.0</ele><time>2026-05-02T12:12:14.821Z</time></trkpt><trkpt lat="46.190828" lon="13.4851804"><ele>578.0</ele><time>2026-05-02T12:12:15.828Z</time></trkpt><trkpt lat="46.1907521" lon="13.4851571"><ele>578.0</ele><time>2026-05-02T12:12:16.825Z</time></trkpt><trkpt lat="46.1906856" lon="13.485119"><ele>578.0</ele><time>2026-05-02T12:12:17.833Z</time></trkpt><trkpt lat="46.1906308" lon="13.4850667"><ele>578.0</ele><time>2026-05-02T12:12:18.833Z</time></trkpt><trkpt lat="46.1906024" lon="13.4849825"><ele>578.0</ele><time>2026-05-02T12:12:19.829Z</time></trkpt><trkpt lat="46.1905845" lon="13.484874"><ele>578.0</ele><time>2026-05-02T12:12:20.828Z</time></trkpt><trkpt lat="46.1905687" lon="13.4847505"><ele>574.6</ele><time>2026-05-02T12:12:21.824Z</time></trkpt><trkpt lat="46.1905522" lon="13.4846381"><ele>571.1999999999999</ele><time>2026-05-02T12:12:22.824Z</time></trkpt><trkpt lat="46.1905243" lon="13.4845533"><ele>567.8</ele><time>2026-05-02T12:12:23.83Z</time></trkpt><trkpt lat="46.1904411" lon="13.4844602"><ele>564.4</ele><time>2026-05-02T12:12:25.836Z</time></trkpt><trkpt lat="46.1903569" lon="13.4843453"><ele>561.0</ele><time>2026-05-02T12:12:27.827Z</time></trkpt><trkpt lat="46.1902869" lon="13.4841615"><ele>561.0</ele><time>2026-05-02T12:12:29.823Z</time></trkpt><trkpt lat="46.1902529" lon="13.4840471"><ele>561.0</ele><time>2026-05-02T12:12:30.826Z</time></trkpt><trkpt lat="46.1902168" lon="13.4839355"><ele>561.0</ele><time>2026-05-02T12:12:31.821Z</time></trkpt><trkpt lat="46.1901743" lon="13.4838315"><ele>561.0</ele><time>2026-05-02T12:12:32.832Z</time></trkpt><trkpt lat="46.1901186" lon="13.4837491"><ele>561.0</ele><time>2026-05-02T12:12:33.831Z</time></trkpt><trkpt lat="46.190055" lon="13.4836675"><ele>561.0</ele><time>2026-05-02T12:12:34.822Z</time></trkpt><trkpt lat="46.189997" lon="13.4835883"><ele>560.6666666666666</ele><time>2026-05-02T12:12:35.826Z</time></trkpt><trkpt lat="46.189956" lon="13.4835111"><ele>560.3333333333334</ele><time>2026-05-02T12:12:36.824Z</time></trkpt><trkpt lat="46.1899336" lon="13.4834258"><ele>560.0</ele><time>2026-05-02T12:12:37.824Z</time></trkpt><trkpt lat="46.1899312" lon="13.4833157"><ele>559.6666666666667</ele><time>2026-05-02T12:12:38.827Z</time></trkpt><trkpt lat="46.1899478" lon="13.4831811"><ele>559.3333333333334</ele><time>2026-05-02T12:12:39.825Z</time></trkpt><trkpt lat="46.1899643" lon="13.4830379"><ele>559.0</ele><time>2026-05-02T12:12:40.841Z</time></trkpt><trkpt lat="46.1899754" lon="13.482896"><ele>559.0</ele><time>2026-05-02T12:12:41.832Z</time></trkpt><trkpt lat="46.189987" lon="13.4827462"><ele>559.0</ele><time>2026-05-02T12:12:42.828Z</time></trkpt><trkpt lat="46.1899913" lon="13.4826073"><ele>559.0</ele><time>2026-05-02T12:12:43.825Z</time></trkpt><trkpt lat="46.1899961" lon="13.4824798"><ele>559.0</ele><time>2026-05-02T12:12:44.831Z</time></trkpt><trkpt lat="46.1899896" lon="13.4823684"><ele>559.0</ele><time>2026-05-02T12:12:45.826Z</time></trkpt><trkpt lat="46.1899222" lon="13.4822775"><ele>559.0</ele><time>2026-05-02T12:12:47.82Z</time></trkpt><trkpt lat="46.1898609" lon="13.4824312"><ele>559.0</ele><time>2026-05-02T12:12:49.823Z</time></trkpt><trkpt lat="46.1898617" lon="13.4827078"><ele>559.0</ele><time>2026-05-02T12:12:51.822Z</time></trkpt><trkpt lat="46.1898517" lon="13.4828638"><ele>559.0</ele><time>2026-05-02T12:12:52.826Z</time></trkpt><trkpt lat="46.1898367" lon="13.483022"><ele>554.2</ele><time>2026-05-02T12:12:53.824Z</time></trkpt><trkpt lat="46.1897766" lon="13.4831675"><ele>549.4</ele><time>2026-05-02T12:12:54.834Z</time></trkpt><trkpt lat="46.1897144" lon="13.4832884"><ele>544.6</ele><time>2026-05-02T12:12:55.825Z</time></trkpt><trkpt lat="46.1896444" lon="13.4834058"><ele>539.8</ele><time>2026-05-02T12:12:56.837Z</time></trkpt><trkpt lat="46.1895816" lon="13.4835345"><ele>535.0</ele><time>2026-05-02T12:12:57.828Z</time></trkpt><trkpt lat="46.189534" lon="13.4836607"><ele>534.4</ele><time>2026-05-02T12:12:58.825Z</time></trkpt><trkpt lat="46.1895054" lon="13.4838006"><ele>533.8</ele><time>2026-05-02T12:12:59.831Z</time></trkpt><trkpt lat="46.1895084" lon="13.4839629"><ele>533.2</ele><time>2026-05-02T12:13:00.824Z</time></trkpt><trkpt lat="46.1895158" lon="13.4841202"><ele>532.6</ele><time>2026-05-02T12:13:01.828Z</time></trkpt><trkpt lat="46.1895271" lon="13.4842575"><ele>532.0</ele><time>2026-05-02T12:13:02.82Z</time></trkpt><trkpt lat="46.1895337" lon="13.4843738"><ele>532.0</ele><time>2026-05-02T12:13:03.821Z</time></trkpt><trkpt lat="46.1895314" lon="13.4844665"><ele>532.0</ele><time>2026-05-02T12:13:04.834Z</time></trkpt><trkpt lat="46.1894711" lon="13.4845099"><ele>532.0</ele><time>2026-05-02T12:13:06.817Z</time></trkpt><trkpt lat="46.1894258" lon="13.4843214"><ele>532.0</ele><time>2026-05-02T12:13:08.829Z</time></trkpt><trkpt lat="46.1894053" lon="13.4841686"><ele>532.0</ele><time>2026-05-02T12:13:09.828Z</time></trkpt><trkpt lat="46.1893765" lon="13.4840137"><ele>533.0</ele><time>2026-05-02T12:13:10.831Z</time></trkpt><trkpt lat="46.1893083" lon="13.483694"><ele>534.0</ele><time>2026-05-02T12:13:12.83Z</time></trkpt><trkpt lat="46.1892769" lon="13.4835372"><ele>535.0</ele><time>2026-05-02T12:13:13.828Z</time></trkpt><trkpt lat="46.1892527" lon="13.4833778"><ele>535.0</ele><time>2026-05-02T12:13:14.826Z</time></trkpt><trkpt lat="46.1892332" lon="13.4832293"><ele>535.0</ele><time>2026-05-02T12:13:15.824Z</time></trkpt><trkpt lat="46.1892028" lon="13.4830882"><ele>535.0</ele><time>2026-05-02T12:13:16.82Z</time></trkpt><trkpt lat="46.1891504" lon="13.4829718"><ele>535.0</ele><time>2026-05-02T12:13:17.834Z</time></trkpt><trkpt lat="46.1890821" lon="13.4828897"><ele>535.0</ele><time>2026-05-02T12:13:18.827Z</time></trkpt><trkpt lat="46.1889869" lon="13.4828473"><ele>530.5</ele><time>2026-05-02T12:13:19.828Z</time></trkpt><trkpt lat="46.1888796" lon="13.4828524"><ele>526.0</ele><time>2026-05-02T12:13:20.83Z</time></trkpt><trkpt lat="46.1886862" lon="13.4828731"><ele>521.5</ele><time>2026-05-02T12:13:22.828Z</time></trkpt><trkpt lat="46.1885953" lon="13.4828306"><ele>517.0</ele><time>2026-05-02T12:13:23.818Z</time></trkpt><trkpt lat="46.1885016" lon="13.4827637"><ele>517.0</ele><time>2026-05-02T12:13:24.826Z</time></trkpt><trkpt lat="46.1884118" lon="13.4826953"><ele>517.0</ele><time>2026-05-02T12:13:25.822Z</time></trkpt><trkpt lat="46.1883159" lon="13.4826297"><ele>517.0</ele><time>2026-05-02T12:13:26.822Z</time></trkpt><trkpt lat="46.1882247" lon="13.4825593"><ele>517.0</ele><time>2026-05-02T12:13:27.82Z</time></trkpt><trkpt lat="46.1881346" lon="13.4824769"><ele>517.0</ele><time>2026-05-02T12:13:28.827Z</time></trkpt><trkpt lat="46.1880535" lon="13.4823821"><ele>511.25</ele><time>2026-05-02T12:13:29.822Z</time></trkpt><trkpt lat="46.1879878" lon="13.4822493"><ele>505.5</ele><time>2026-05-02T12:13:30.819Z</time></trkpt><trkpt lat="46.1879307" lon="13.4821032"><ele>499.75</ele><time>2026-05-02T12:13:31.824Z</time></trkpt><trkpt lat="46.1878821" lon="13.4818274"><ele>494.0</ele><time>2026-05-02T12:13:33.82Z</time></trkpt><trkpt lat="46.1878963" lon="13.4817097"><ele>493.5</ele><time>2026-05-02T12:13:34.821Z</time></trkpt><trkpt lat="46.1879473" lon="13.4815866"><ele>493.0</ele><time>2026-05-02T12:13:35.827Z</time></trkpt><trkpt lat="46.1880168" lon="13.4814502"><ele>492.5</ele><time>2026-05-02T12:13:36.825Z</time></trkpt><trkpt lat="46.1880919" lon="13.4813129"><ele>492.0</ele><time>2026-05-02T12:13:37.822Z</time></trkpt><trkpt lat="46.1881709" lon="13.4811816"><ele>495.6</ele><time>2026-05-02T12:13:38.826Z</time></trkpt><trkpt lat="46.1882538" lon="13.4810521"><ele>499.20000000000005</ele><time>2026-05-02T12:13:39.823Z</time></trkpt><trkpt lat="46.1883128" lon="13.480922"><ele>502.8</ele><time>2026-05-02T12:13:40.825Z</time></trkpt><trkpt lat="46.1883522" lon="13.4807868"><ele>506.4</ele><time>2026-05-02T12:13:41.821Z</time></trkpt><trkpt lat="46.1883703" lon="13.4806529"><ele>510.0</ele><time>2026-05-02T12:13:42.818Z</time></trkpt><trkpt lat="46.1883608" lon="13.4805167"><ele>506.4</ele><time>2026-05-02T12:13:43.824Z</time></trkpt><trkpt lat="46.1883343" lon="13.4803859"><ele>502.8</ele><time>2026-05-02T12:13:44.84Z</time></trkpt><trkpt lat="46.188276" lon="13.4802953"><ele>499.20000000000005</ele><time>2026-05-02T12:13:45.82Z</time></trkpt><trkpt lat="46.1881739" lon="13.4802661"><ele>495.6</ele><time>2026-05-02T12:13:46.828Z</time></trkpt><trkpt lat="46.1880399" lon="13.4802656"><ele>492.0</ele><time>2026-05-02T12:13:47.826Z</time></trkpt><trkpt lat="46.1879079" lon="13.4803255"><ele>490.0</ele><time>2026-05-02T12:13:48.822Z</time></trkpt><trkpt lat="46.1877794" lon="13.48042"><ele>488.0</ele><time>2026-05-02T12:13:49.822Z</time></trkpt><trkpt lat="46.1876782" lon="13.4805485"><ele>486.0</ele><time>2026-05-02T12:13:50.829Z</time></trkpt><trkpt lat="46.1876166" lon="13.4806917"><ele>484.0</ele><time>2026-05-02T12:13:51.822Z</time></trkpt><trkpt lat="46.1875924" lon="13.4808438"><ele>484.0</ele><time>2026-05-02T12:13:52.828Z</time></trkpt><trkpt lat="46.1875326" lon="13.4811393"><ele>484.0</ele><time>2026-05-02T12:13:54.825Z</time></trkpt><trkpt lat="46.1874658" lon="13.4812679"><ele>484.0</ele><time>2026-05-02T12:13:55.825Z</time></trkpt><trkpt lat="46.1873937" lon="13.4813948"><ele>484.0</ele><time>2026-05-02T12:13:56.819Z</time></trkpt><trkpt lat="46.1873161" lon="13.4815298"><ele>477.0</ele><time>2026-05-02T12:13:57.824Z</time></trkpt><trkpt lat="46.1872424" lon="13.4816747"><ele>470.0</ele><time>2026-05-02T12:13:58.82Z</time></trkpt><trkpt lat="46.1871793" lon="13.4818285"><ele>463.0</ele><time>2026-05-02T12:13:59.828Z</time></trkpt><trkpt lat="46.1871352" lon="13.4819914"><ele>456.0</ele><time>2026-05-02T12:14:00.821Z</time></trkpt><trkpt lat="46.1871009" lon="13.4821646"><ele>455.0</ele><time>2026-05-02T12:14:01.829Z</time></trkpt><trkpt lat="46.1870731" lon="13.4823388"><ele>454.0</ele><time>2026-05-02T12:14:02.828Z</time></trkpt><trkpt lat="46.1870585" lon="13.4825235"><ele>453.0</ele><time>2026-05-02T12:14:03.822Z</time></trkpt><trkpt lat="46.1870457" lon="13.4827069"><ele>452.0</ele><time>2026-05-02T12:14:04.828Z</time></trkpt><trkpt lat="46.1870529" lon="13.4829054"><ele>451.0</ele><time>2026-05-02T12:14:05.826Z</time></trkpt><trkpt lat="46.1870718" lon="13.4830969"><ele>450.0</ele><time>2026-05-02T12:14:06.825Z</time></trkpt><trkpt lat="46.1870991" lon="13.4832774"><ele>449.0</ele><time>2026-05-02T12:14:07.826Z</time></trkpt><trkpt lat="46.1871372" lon="13.4834496"><ele>448.0</ele><time>2026-05-02T12:14:08.827Z</time></trkpt><trkpt lat="46.1871868" lon="13.4836167"><ele>446.75</ele><time>2026-05-02T12:14:09.822Z</time></trkpt><trkpt lat="46.187202" lon="13.4837867"><ele>445.5</ele><time>2026-05-02T12:14:10.823Z</time></trkpt><trkpt lat="46.1872117" lon="13.4839621"><ele>444.25</ele><time>2026-05-02T12:14:11.827Z</time></trkpt><trkpt lat="46.1872183" lon="13.4841253"><ele>443.0</ele><time>2026-05-02T12:14:12.832Z</time></trkpt><trkpt lat="46.1872204" lon="13.4843028"><ele>438.66666666666663</ele><time>2026-05-02T12:14:13.832Z</time></trkpt><trkpt lat="46.1872289" lon="13.4846704"><ele>434.33333333333337</ele><time>2026-05-02T12:14:15.817Z</time></trkpt><trkpt lat="46.187256" lon="13.4848536"><ele>430.0</ele><time>2026-05-02T12:14:16.821Z</time></trkpt><trkpt lat="46.1872931" lon="13.4850356"><ele>430.0</ele><time>2026-05-02T12:14:17.826Z</time></trkpt><trkpt lat="46.1873209" lon="13.4852163"><ele>430.0</ele><time>2026-05-02T12:14:18.827Z</time></trkpt><trkpt lat="46.1873286" lon="13.4853956"><ele>430.0</ele><time>2026-05-02T12:14:19.822Z</time></trkpt><trkpt lat="46.1873278" lon="13.4855539"><ele>430.0</ele><time>2026-05-02T12:14:20.821Z</time></trkpt><trkpt lat="46.1873401" lon="13.4857013"><ele>425.0</ele><time>2026-05-02T12:14:21.821Z</time></trkpt><trkpt lat="46.1873707" lon="13.4858068"><ele>420.0</ele><time>2026-05-02T12:14:22.821Z</time></trkpt><trkpt lat="46.1873843" lon="13.4859311"><ele>415.0</ele><time>2026-05-02T12:14:24.824Z</time></trkpt><trkpt lat="46.187333" lon="13.4858478"><ele>410.0</ele><time>2026-05-02T12:14:26.824Z</time></trkpt><trkpt lat="46.1872862" lon="13.4857222"><ele>405.0</ele><time>2026-05-02T12:14:27.827Z</time></trkpt><trkpt lat="46.1872333" lon="13.4855612"><ele>411.25</ele><time>2026-05-02T12:14:28.823Z</time></trkpt><trkpt lat="46.1871806" lon="13.485389"><ele>417.5</ele><time>2026-05-02T12:14:29.833Z</time></trkpt><trkpt lat="46.1871216" lon="13.4852194"><ele>423.75</ele><time>2026-05-02T12:14:30.833Z</time></trkpt><trkpt lat="46.1870446" lon="13.4850614"><ele>430.0</ele><time>2026-05-02T12:14:31.817Z</time></trkpt><trkpt lat="46.1869482" lon="13.4849184"><ele>430.0</ele><time>2026-05-02T12:14:32.823Z</time></trkpt><trkpt lat="46.1868454" lon="13.4847771"><ele>430.0</ele><time>2026-05-02T12:14:33.824Z</time></trkpt><trkpt lat="46.1867373" lon="13.4846224"><ele>430.0</ele><time>2026-05-02T12:14:34.837Z</time></trkpt><trkpt lat="46.1865369" lon="13.4843175"><ele>424.5</ele><time>2026-05-02T12:14:36.822Z</time></trkpt><trkpt lat="46.1864575" lon="13.4841618"><ele>419.0</ele><time>2026-05-02T12:14:37.834Z</time></trkpt><trkpt lat="46.1863944" lon="13.4839893"><ele>413.5</ele><time>2026-05-02T12:14:38.826Z</time></trkpt><trkpt lat="46.1863306" lon="13.4838044"><ele>408.0</ele><time>2026-05-02T12:14:39.824Z</time></trkpt><trkpt lat="46.1862627" lon="13.4836192"><ele>408.0</ele><time>2026-05-02T12:14:40.833Z</time></trkpt><trkpt lat="46.1861788" lon="13.4834155"><ele>408.0</ele><time>2026-05-02T12:14:41.821Z</time></trkpt><trkpt lat="46.1860907" lon="13.4832041"><ele>408.0</ele><time>2026-05-02T12:14:42.835Z</time></trkpt><trkpt lat="46.1860275" lon="13.4829817"><ele>411.66666666666663</ele><time>2026-05-02T12:14:43.821Z</time></trkpt><trkpt lat="46.1859624" lon="13.4827717"><ele>415.3333333333333</ele><time>2026-05-02T12:14:44.82Z</time></trkpt><trkpt lat="46.1858755" lon="13.4825913"><ele>419.0</ele><time>2026-05-02T12:14:45.822Z</time></trkpt><trkpt lat="46.1858064" lon="13.4823961"><ele>419.0</ele><time>2026-05-02T12:14:46.822Z</time></trkpt><trkpt lat="46.1857345" lon="13.482191"><ele>419.0</ele><time>2026-05-02T12:14:47.823Z</time></trkpt><trkpt lat="46.1856714" lon="13.4820061"><ele>419.0</ele><time>2026-05-02T12:14:48.828Z</time></trkpt><trkpt lat="46.1855833" lon="13.4818759"><ele>419.0</ele><time>2026-05-02T12:14:49.827Z</time></trkpt><trkpt lat="46.1854504" lon="13.4817965"><ele>415.4</ele><time>2026-05-02T12:14:50.823Z</time></trkpt><trkpt lat="46.1853384" lon="13.4817202"><ele>411.79999999999995</ele><time>2026-05-02T12:14:51.822Z</time></trkpt><trkpt lat="46.1852512" lon="13.4816344"><ele>408.20000000000005</ele><time>2026-05-02T12:14:52.828Z</time></trkpt><trkpt lat="46.1851582" lon="13.4815731"><ele>404.6</ele><time>2026-05-02T12:14:53.824Z</time></trkpt><trkpt lat="46.1850705" lon="13.4815633"><ele>401.0</ele><time>2026-05-02T12:14:54.821Z</time></trkpt><trkpt lat="46.1849793" lon="13.481601"><ele>401.0</ele><time>2026-05-02T12:14:55.818Z</time></trkpt><trkpt lat="46.1849341" lon="13.481741"><ele>401.0</ele><time>2026-05-02T12:14:56.826Z</time></trkpt><trkpt lat="46.1848804" lon="13.482062"><ele>401.0</ele><time>2026-05-02T12:14:58.823Z</time></trkpt><trkpt lat="46.1849049" lon="13.4822912"><ele>399.0</ele><time>2026-05-02T12:14:59.829Z</time></trkpt><trkpt lat="46.1849362" lon="13.4825274"><ele>397.0</ele><time>2026-05-02T12:15:00.819Z</time></trkpt><trkpt lat="46.1849538" lon="13.4827662"><ele>395.0</ele><time>2026-05-02T12:15:01.824Z</time></trkpt><trkpt lat="46.1849419" lon="13.4830012"><ele>393.5</ele><time>2026-05-02T12:15:02.822Z</time></trkpt><trkpt lat="46.1849775" lon="13.4831521"><ele>392.0</ele><time>2026-05-02T12:15:03.824Z</time></trkpt><trkpt lat="46.1850488" lon="13.4832886"><ele>390.5</ele><time>2026-05-02T12:15:04.825Z</time></trkpt><trkpt lat="46.1851099" lon="13.4834539"><ele>389.0</ele><time>2026-05-02T12:15:05.822Z</time></trkpt><trkpt lat="46.1851601" lon="13.4836389"><ele>386.25</ele><time>2026-05-02T12:15:06.821Z</time></trkpt><trkpt lat="46.1852165" lon="13.4838208"><ele>383.5</ele><time>2026-05-02T12:15:07.822Z</time></trkpt><trkpt lat="46.1852782" lon="13.4839829"><ele>380.75</ele><time>2026-05-02T12:15:08.838Z</time></trkpt><trkpt lat="46.1853435" lon="13.4841406"><ele>378.0</ele><time>2026-05-02T12:15:09.82Z</time></trkpt><trkpt lat="46.1854062" lon="13.4842691"><ele>378.0</ele><time>2026-05-02T12:15:10.817Z</time></trkpt><trkpt lat="46.185468" lon="13.4843613"><ele>378.0</ele><time>2026-05-02T12:15:11.824Z</time></trkpt><trkpt lat="46.1855233" lon="13.4844342"><ele>378.0</ele><time>2026-05-02T12:15:12.83Z</time></trkpt><trkpt lat="46.1855023" lon="13.4845495"><ele>378.0</ele><time>2026-05-02T12:15:14.821Z</time></trkpt><trkpt lat="46.1854341" lon="13.4845683"><ele>378.0</ele><time>2026-05-02T12:15:15.824Z</time></trkpt><trkpt lat="46.1853455" lon="13.4846068"><ele>378.0</ele><time>2026-05-02T12:15:16.823Z</time></trkpt><trkpt lat="46.1851806" lon="13.4845518"><ele>366.5</ele><time>2026-05-02T12:15:17.828Z</time></trkpt><trkpt lat="46.1848056" lon="13.4845378"><ele>355.0</ele><time>2026-05-02T12:15:19.821Z</time></trkpt><trkpt lat="46.1846039" lon="13.4845443"><ele>355.0</ele><time>2026-05-02T12:15:20.819Z</time></trkpt><trkpt lat="46.184439" lon="13.4845695"><ele>355.0</ele><time>2026-05-02T12:15:21.825Z</time></trkpt><trkpt lat="46.1842969" lon="13.4845678"><ele>355.0</ele><time>2026-05-02T12:15:22.83Z</time></trkpt><trkpt lat="46.1841724" lon="13.4845076"><ele>355.0</ele><time>2026-05-02T12:15:23.82Z</time></trkpt><trkpt lat="46.1840714" lon="13.4844155"><ele>345.5</ele><time>2026-05-02T12:15:24.831Z</time></trkpt><trkpt lat="46.184006" lon="13.4842854"><ele>336.0</ele><time>2026-05-02T12:15:25.831Z</time></trkpt><trkpt lat="46.1839572" lon="13.4841128"><ele>326.5</ele><time>2026-05-02T12:15:26.821Z</time></trkpt><trkpt lat="46.1839203" lon="13.4839113"><ele>317.0</ele><time>2026-05-02T12:15:27.821Z</time></trkpt><trkpt lat="46.1838808" lon="13.4836997"><ele>317.0</ele><time>2026-05-02T12:15:28.829Z</time></trkpt><trkpt lat="46.1838592" lon="13.4834773"><ele>317.0</ele><time>2026-05-02T12:15:29.829Z</time></trkpt><trkpt lat="46.1838556" lon="13.4832602"><ele>317.0</ele><time>2026-05-02T12:15:30.826Z</time></trkpt><trkpt lat="46.1838662" lon="13.4830871"><ele>317.0</ele><time>2026-05-02T12:15:31.82Z</time></trkpt><trkpt lat="46.1838666" lon="13.482958"><ele>316.25</ele><time>2026-05-02T12:15:32.824Z</time></trkpt><trkpt lat="46.183818" lon="13.4828587"><ele>315.5</ele><time>2026-05-02T12:15:33.824Z</time></trkpt><trkpt lat="46.1837616" lon="13.4827265"><ele>314.75</ele><time>2026-05-02T12:15:34.83Z</time></trkpt><trkpt lat="46.1837285" lon="13.4825622"><ele>314.0</ele><time>2026-05-02T12:15:35.821Z</time></trkpt><trkpt lat="46.183677" lon="13.4823735"><ele>314.0</ele><time>2026-05-02T12:15:36.828Z</time></trkpt><trkpt lat="46.1836371" lon="13.4821709"><ele>314.0</ele><time>2026-05-02T12:15:37.822Z</time></trkpt><trkpt lat="46.1836112" lon="13.4819567"><ele>314.0</ele><time>2026-05-02T12:15:38.821Z</time></trkpt><trkpt lat="46.1835883" lon="13.4814955"><ele>315.75</ele><time>2026-05-02T12:15:40.827Z</time></trkpt><trkpt lat="46.1835604" lon="13.4813038"><ele>317.5</ele><time>2026-05-02T12:15:41.82Z</time></trkpt><trkpt lat="46.1835143" lon="13.4811207"><ele>319.25</ele><time>2026-05-02T12:15:42.819Z</time></trkpt><trkpt lat="46.1834604" lon="13.4809424"><ele>321.0</ele><time>2026-05-02T12:15:43.822Z</time></trkpt><trkpt lat="46.1833966" lon="13.4807584"><ele>321.0</ele><time>2026-05-02T12:15:44.828Z</time></trkpt><trkpt lat="46.1833433" lon="13.4805952"><ele>321.0</ele><time>2026-05-02T12:15:45.825Z</time></trkpt><trkpt lat="46.183325" lon="13.480444"><ele>321.0</ele><time>2026-05-02T12:15:46.825Z</time></trkpt><trkpt lat="46.1833301" lon="13.4802752"><ele>321.0</ele><time>2026-05-02T12:15:47.823Z</time></trkpt><trkpt lat="46.1833232" lon="13.4801008"><ele>321.0</ele><time>2026-05-02T12:15:48.823Z</time></trkpt><trkpt lat="46.1833161" lon="13.4799519"><ele>321.0</ele><time>2026-05-02T12:15:49.822Z</time></trkpt><trkpt lat="46.183354" lon="13.4798693"><ele>321.0</ele><time>2026-05-02T12:15:50.834Z</time></trkpt><trkpt lat="46.1833291" lon="13.4797528"><ele>321.0</ele><time>2026-05-02T12:15:52.834Z</time></trkpt><trkpt lat="46.1832464" lon="13.4798116"><ele>321.0</ele><time>2026-05-02T12:15:54.822Z</time></trkpt><trkpt lat="46.1832144" lon="13.4799292"><ele>321.0</ele><time>2026-05-02T12:15:55.818Z</time></trkpt><trkpt lat="46.1831944" lon="13.4800627"><ele>321.0</ele><time>2026-05-02T12:15:56.825Z</time></trkpt><trkpt lat="46.1831908" lon="13.4801982"><ele>321.0</ele><time>2026-05-02T12:15:57.82Z</time></trkpt><trkpt lat="46.1831896" lon="13.4803493"><ele>321.0</ele><time>2026-05-02T12:15:58.818Z</time></trkpt><trkpt lat="46.1831805" lon="13.4805106"><ele>321.0</ele><time>2026-05-02T12:15:59.826Z</time></trkpt><trkpt lat="46.1831608" lon="13.480667"><ele>321.0</ele><time>2026-05-02T12:16:00.826Z</time></trkpt><trkpt lat="46.1831368" lon="13.481021"><ele>311.5</ele><time>2026-05-02T12:16:02.826Z</time></trkpt><trkpt lat="46.1831277" lon="13.4812049"><ele>302.0</ele><time>2026-05-02T12:16:03.828Z</time></trkpt><trkpt lat="46.1831198" lon="13.4813952"><ele>292.5</ele><time>2026-05-02T12:16:04.831Z</time></trkpt><trkpt lat="46.18311" lon="13.4815814"><ele>283.0</ele><time>2026-05-02T12:16:05.817Z</time></trkpt><trkpt lat="46.1831125" lon="13.4817737"><ele>283.25</ele><time>2026-05-02T12:16:06.825Z</time></trkpt><trkpt lat="46.1831137" lon="13.4819591"><ele>283.5</ele><time>2026-05-02T12:16:07.826Z</time></trkpt><trkpt lat="46.1831135" lon="13.4821357"><ele>283.75</ele><time>2026-05-02T12:16:08.821Z</time></trkpt><trkpt lat="46.1831135" lon="13.4823001"><ele>284.0</ele><time>2026-05-02T12:16:09.822Z</time></trkpt><trkpt lat="46.1831249" lon="13.4824754"><ele>284.0</ele><time>2026-05-02T12:16:10.819Z</time></trkpt><trkpt lat="46.1831552" lon="13.4826128"><ele>284.0</ele><time>2026-05-02T12:16:11.826Z</time></trkpt><trkpt lat="46.1831865" lon="13.4827443"><ele>284.0</ele><time>2026-05-02T12:16:12.825Z</time></trkpt><trkpt lat="46.1832154" lon="13.4828695"><ele>284.0</ele><time>2026-05-02T12:16:13.829Z</time></trkpt><trkpt lat="46.1832275" lon="13.482959"><ele>284.0</ele><time>2026-05-02T12:16:14.821Z</time></trkpt><trkpt lat="46.1832098" lon="13.48307"><ele>284.0</ele><time>2026-05-02T12:16:15.82Z</time></trkpt><trkpt lat="46.1832003" lon="13.4831821"><ele>284.4</ele><time>2026-05-02T12:16:16.824Z</time></trkpt><trkpt lat="46.1831606" lon="13.4832841"><ele>284.79999999999995</ele><time>2026-05-02T12:16:17.827Z</time></trkpt><trkpt lat="46.1831201" lon="13.4833907"><ele>285.20000000000005</ele><time>2026-05-02T12:16:18.825Z</time></trkpt><trkpt lat="46.1830866" lon="13.4835248"><ele>285.6</ele><time>2026-05-02T12:16:19.82Z</time></trkpt><trkpt lat="46.1830731" lon="13.4836762"><ele>286.0</ele><time>2026-05-02T12:16:20.823Z</time></trkpt><trkpt lat="46.1830603" lon="13.4838495"><ele>281.3333333333333</ele><time>2026-05-02T12:16:21.822Z</time></trkpt><trkpt lat="46.183071" lon="13.4842058"><ele>276.6666666666667</ele><time>2026-05-02T12:16:23.821Z</time></trkpt><trkpt lat="46.1830971" lon="13.48438"><ele>272.0</ele><time>2026-05-02T12:16:24.827Z</time></trkpt><trkpt lat="46.1831101" lon="13.4845473"><ele>275.6</ele><time>2026-05-02T12:16:25.817Z</time></trkpt><trkpt lat="46.1831276" lon="13.484711"><ele>279.2</ele><time>2026-05-02T12:16:26.821Z</time></trkpt><trkpt lat="46.1831565" lon="13.4848594"><ele>282.8</ele><time>2026-05-02T12:16:27.83Z</time></trkpt><trkpt lat="46.1831944" lon="13.4849914"><ele>286.4</ele><time>2026-05-02T12:16:28.822Z</time></trkpt><trkpt lat="46.1832247" lon="13.4851137"><ele>290.0</ele><time>2026-05-02T12:16:29.824Z</time></trkpt><trkpt lat="46.1832515" lon="13.4852316"><ele>286.4</ele><time>2026-05-02T12:16:30.823Z</time></trkpt><trkpt lat="46.1832777" lon="13.4853257"><ele>282.8</ele><time>2026-05-02T12:16:31.829Z</time></trkpt><trkpt lat="46.1832609" lon="13.4851822"><ele>279.2</ele><time>2026-05-02T12:16:34.821Z</time></trkpt><trkpt lat="46.1832154" lon="13.4850488"><ele>275.6</ele><time>2026-05-02T12:16:35.826Z</time></trkpt><trkpt lat="46.1832116" lon="13.4849442"><ele>272.0</ele><time>2026-05-02T12:16:36.823Z</time></trkpt><trkpt lat="46.1830312" lon="13.4843403"><ele>272.0</ele><time>2026-05-02T12:16:38.82Z</time></trkpt><trkpt lat="46.1829532" lon="13.484098"><ele>272.0</ele><time>2026-05-02T12:16:39.818Z</time></trkpt><trkpt lat="46.1828614" lon="13.4839306"><ele>272.0</ele><time>2026-05-02T12:16:40.821Z</time></trkpt><trkpt lat="46.1827852" lon="13.4838036"><ele>272.0</ele><time>2026-05-02T12:16:41.824Z</time></trkpt><trkpt lat="46.1827186" lon="13.4836532"><ele>275.5</ele><time>2026-05-02T12:16:42.82Z</time></trkpt><trkpt lat="46.1826147" lon="13.4833677"><ele>279.0</ele><time>2026-05-02T12:16:44.821Z</time></trkpt><trkpt lat="46.1825847" lon="13.4832161"><ele>282.5</ele><time>2026-05-02T12:16:45.824Z</time></trkpt><trkpt lat="46.1825872" lon="13.4830673"><ele>286.0</ele><time>2026-05-02T12:16:46.824Z</time></trkpt><trkpt lat="46.1826089" lon="13.4829442"><ele>285.66666666666663</ele><time>2026-05-02T12:16:47.815Z</time></trkpt><trkpt lat="46.1826135" lon="13.4828209"><ele>285.3333333333333</ele><time>2026-05-02T12:16:48.821Z</time></trkpt><trkpt lat="46.1826092" lon="13.4827075"><ele>285.0</ele><time>2026-05-02T12:16:49.816Z</time></trkpt><trkpt lat="46.1825934" lon="13.4826077"><ele>284.6666666666667</ele><time>2026-05-02T12:16:50.821Z</time></trkpt><trkpt lat="46.1825432" lon="13.4824897"><ele>284.33333333333337</ele><time>2026-05-02T12:16:51.824Z</time></trkpt><trkpt lat="46.182472" lon="13.4823773"><ele>284.0</ele><time>2026-05-02T12:16:52.821Z</time></trkpt><trkpt lat="46.1823886" lon="13.4822389"><ele>274.25</ele><time>2026-05-02T12:16:53.829Z</time></trkpt><trkpt lat="46.182303" lon="13.4820873"><ele>264.5</ele><time>2026-05-02T12:16:54.829Z</time></trkpt><trkpt lat="46.182224" lon="13.4819291"><ele>254.75</ele><time>2026-05-02T12:16:55.821Z</time></trkpt><trkpt lat="46.1821755" lon="13.4817744"><ele>245.0</ele><time>2026-05-02T12:16:56.817Z</time></trkpt><trkpt lat="46.1821367" lon="13.4816157"><ele>245.0</ele><time>2026-05-02T12:16:57.822Z</time></trkpt><trkpt lat="46.1821071" lon="13.4814294"><ele>245.0</ele><time>2026-05-02T12:16:58.822Z</time></trkpt><trkpt lat="46.1820912" lon="13.4812486"><ele>245.0</ele><time>2026-05-02T12:16:59.817Z</time></trkpt><trkpt lat="46.182073" lon="13.4810657"><ele>245.0</ele><time>2026-05-02T12:17:00.837Z</time></trkpt><trkpt lat="46.1820394" lon="13.4808858"><ele>244.25</ele><time>2026-05-02T12:17:01.822Z</time></trkpt><trkpt lat="46.1819887" lon="13.4807295"><ele>243.5</ele><time>2026-05-02T12:17:02.823Z</time></trkpt><trkpt lat="46.1819114" lon="13.4806163"><ele>242.75</ele><time>2026-05-02T12:17:03.83Z</time></trkpt><trkpt lat="46.1818099" lon="13.4803715"><ele>242.0</ele><time>2026-05-02T12:17:05.818Z</time></trkpt><trkpt lat="46.1818195" lon="13.480225"><ele>240.5</ele><time>2026-05-02T12:17:06.814Z</time></trkpt><trkpt lat="46.1818337" lon="13.480067"><ele>239.0</ele><time>2026-05-02T12:17:07.819Z</time></trkpt><trkpt lat="46.1818313" lon="13.4799023"><ele>237.5</ele><time>2026-05-02T12:17:08.823Z</time></trkpt><trkpt lat="46.1818301" lon="13.479731"><ele>236.0</ele><time>2026-05-02T12:17:09.835Z</time></trkpt><trkpt lat="46.1818365" lon="13.4795555"><ele>231.8</ele><time>2026-05-02T12:17:10.822Z</time></trkpt><trkpt lat="46.1818607" lon="13.4794146"><ele>227.60000000000002</ele><time>2026-05-02T12:17:11.817Z</time></trkpt><trkpt lat="46.1819047" lon="13.4793076"><ele>223.4</ele><time>2026-05-02T12:17:12.815Z</time></trkpt><trkpt lat="46.1819663" lon="13.4791736"><ele>219.2</ele><time>2026-05-02T12:17:13.819Z</time></trkpt><trkpt lat="46.182043" lon="13.4790241"><ele>215.0</ele><time>2026-05-02T12:17:14.827Z</time></trkpt><trkpt lat="46.1821476" lon="13.4789021"><ele>215.0</ele><time>2026-05-02T12:17:15.833Z</time></trkpt><trkpt lat="46.182275" lon="13.4787825"><ele>215.0</ele><time>2026-05-02T12:17:16.824Z</time></trkpt><trkpt lat="46.1824056" lon="13.4786878"><ele>215.0</ele><time>2026-05-02T12:17:17.82Z</time></trkpt><trkpt lat="46.182537" lon="13.4785949"><ele>215.0</ele><time>2026-05-02T12:17:18.819Z</time></trkpt><trkpt lat="46.1826582" lon="13.4785024"><ele>214.5</ele><time>2026-05-02T12:17:19.819Z</time></trkpt><trkpt lat="46.1827475" lon="13.4783747"><ele>214.0</ele><time>2026-05-02T12:17:20.824Z</time></trkpt><trkpt lat="46.1828747" lon="13.4782743"><ele>213.5</ele><time>2026-05-02T12:17:21.828Z</time></trkpt><trkpt lat="46.183006" lon="13.4781922"><ele>213.0</ele><time>2026-05-02T12:17:22.827Z</time></trkpt><trkpt lat="46.1831215" lon="13.478125"><ele>210.0</ele><time>2026-05-02T12:17:23.823Z</time></trkpt><trkpt lat="46.1832339" lon="13.4780251"><ele>207.0</ele><time>2026-05-02T12:17:24.834Z</time></trkpt><trkpt lat="46.1834259" lon="13.4778779"><ele>204.0</ele><time>2026-05-02T12:17:26.818Z</time></trkpt><trkpt lat="46.1835211" lon="13.4777929"><ele>204.0</ele><time>2026-05-02T12:17:27.821Z</time></trkpt><trkpt lat="46.1836355" lon="13.477739"><ele>204.0</ele><time>2026-05-02T12:17:28.821Z</time></trkpt><trkpt lat="46.1837418" lon="13.477688"><ele>204.0</ele><time>2026-05-02T12:17:29.82Z</time></trkpt><trkpt lat="46.1838477" lon="13.477649"><ele>204.0</ele><time>2026-05-02T12:17:30.825Z</time></trkpt><trkpt lat="46.1839607" lon="13.4776146"><ele>209.66666666666669</ele><time>2026-05-02T12:17:31.823Z</time></trkpt><trkpt lat="46.1840811" lon="13.4775591"><ele>215.33333333333334</ele><time>2026-05-02T12:17:32.819Z</time></trkpt><trkpt lat="46.1843217" lon="13.4774188"><ele>221.0</ele><time>2026-05-02T12:17:34.82Z</time></trkpt><trkpt lat="46.1845479" lon="13.4772625"><ele>221.0</ele><time>2026-05-02T12:17:36.821Z</time></trkpt><trkpt lat="46.1846337" lon="13.4771673"><ele>221.00000000000003</ele><time>2026-05-02T12:17:37.824Z</time></trkpt><trkpt lat="46.1847042" lon="13.4770728"><ele>221.00000000000003</ele><time>2026-05-02T12:17:38.833Z</time></trkpt><trkpt lat="46.1847656" lon="13.4770023"><ele>221.0</ele><time>2026-05-02T12:17:39.817Z</time></trkpt><trkpt lat="46.1846703" lon="13.4769775"><ele>221.0</ele><time>2026-05-02T12:17:42.826Z</time></trkpt><trkpt lat="46.1845861" lon="13.4770786"><ele>221.0</ele><time>2026-05-02T12:17:43.82Z</time></trkpt><trkpt lat="46.184473" lon="13.4771972"><ele>221.0</ele><time>2026-05-02T12:17:44.824Z</time></trkpt><trkpt lat="46.1843682" lon="13.4773158"><ele>221.0</ele><time>2026-05-02T12:17:45.822Z</time></trkpt><trkpt lat="46.1841291" lon="13.4775267"><ele>216.75</ele><time>2026-05-02T12:17:47.819Z</time></trkpt><trkpt lat="46.1840026" lon="13.477623"><ele>212.5</ele><time>2026-05-02T12:17:48.82Z</time></trkpt><trkpt lat="46.183876" lon="13.4777168"><ele>208.25</ele><time>2026-05-02T12:17:49.827Z</time></trkpt><trkpt lat="46.183746" lon="13.477799"><ele>204.0</ele><time>2026-05-02T12:17:50.818Z</time></trkpt><trkpt lat="46.1836254" lon="13.4778738"><ele>206.25</ele><time>2026-05-02T12:17:51.824Z</time></trkpt><trkpt lat="46.1834969" lon="13.4779466"><ele>208.5</ele><time>2026-05-02T12:17:52.83Z</time></trkpt><trkpt lat="46.1833681" lon="13.478006"><ele>210.75</ele><time>2026-05-02T12:17:53.82Z</time></trkpt><trkpt lat="46.1832369" lon="13.4780546"><ele>213.0</ele><time>2026-05-02T12:17:54.82Z</time></trkpt><trkpt lat="46.1830644" lon="13.4780583"><ele>213.0</ele><time>2026-05-02T12:17:55.819Z</time></trkpt><trkpt lat="46.182901" lon="13.4780771"><ele>213.0</ele><time>2026-05-02T12:17:56.832Z</time></trkpt><trkpt lat="46.1827458" lon="13.4780892"><ele>213.0</ele><time>2026-05-02T12:17:57.822Z</time></trkpt><trkpt lat="46.1826135" lon="13.4780809"><ele>213.0</ele><time>2026-05-02T12:17:58.82Z</time></trkpt><trkpt lat="46.1824861" lon="13.4780838"><ele>213.0</ele><time>2026-05-02T12:17:59.826Z</time></trkpt><trkpt lat="46.1823636" lon="13.4781064"><ele>213.0</ele><time>2026-05-02T12:18:00.83Z</time></trkpt><trkpt lat="46.1822255" lon="13.4781359"><ele>213.0</ele><time>2026-05-02T12:18:01.819Z</time></trkpt><trkpt lat="46.1821033" lon="13.4781541"><ele>209.4</ele><time>2026-05-02T12:18:02.822Z</time></trkpt><trkpt lat="46.1819992" lon="13.4781241"><ele>205.8</ele><time>2026-05-02T12:18:03.822Z</time></trkpt><trkpt lat="46.1819237" lon="13.4780715"><ele>202.2</ele><time>2026-05-02T12:18:04.821Z</time></trkpt><trkpt lat="46.1818688" lon="13.4780057"><ele>198.6</ele><time>2026-05-02T12:18:05.821Z</time></trkpt><trkpt lat="46.1818142" lon="13.477895"><ele>195.0</ele><time>2026-05-02T12:18:07.825Z</time></trkpt><trkpt lat="46.1815964" lon="13.4777335"><ele>193.5</ele><time>2026-05-02T12:18:44.822Z</time></trkpt><trkpt lat="46.1814829" lon="13.4777204"><ele>192.0</ele><time>2026-05-02T12:18:45.817Z</time></trkpt><trkpt lat="46.1813628" lon="13.4776874"><ele>190.5</ele><time>2026-05-02T12:18:46.827Z</time></trkpt><trkpt lat="46.1812481" lon="13.4776631"><ele>189.0</ele><time>2026-05-02T12:18:47.83Z</time></trkpt><trkpt lat="46.181125" lon="13.4776403"><ele>189.0</ele><time>2026-05-02T12:18:48.825Z</time></trkpt><trkpt lat="46.1810133" lon="13.4776107"><ele>189.0</ele><time>2026-05-02T12:18:49.824Z</time></trkpt><trkpt lat="46.1808984" lon="13.4775946"><ele>189.0</ele><time>2026-05-02T12:18:50.818Z</time></trkpt><trkpt lat="46.1807828" lon="13.4775817"><ele>189.0</ele><time>2026-05-02T12:18:51.822Z</time></trkpt><trkpt lat="46.1806715" lon="13.4775721"><ele>188.83333333333334</ele><time>2026-05-02T12:18:52.828Z</time></trkpt><trkpt lat="46.1805687" lon="13.4775838"><ele>188.66666666666666</ele><time>2026-05-02T12:18:53.827Z</time></trkpt><trkpt lat="46.1804707" lon="13.4775953"><ele>188.5</ele><time>2026-05-02T12:18:54.819Z</time></trkpt><trkpt lat="46.180392" lon="13.4776189"><ele>188.33333333333331</ele><time>2026-05-02T12:18:55.816Z</time></trkpt><trkpt lat="46.1803257" lon="13.4776048"><ele>188.16666666666666</ele><time>2026-05-02T12:18:57.82Z</time></trkpt><trkpt lat="46.1803417" lon="13.4775141"><ele>188.0</ele><time>2026-05-02T12:18:59.821Z</time></trkpt><trkpt lat="46.1803537" lon="13.477338"><ele>188.0</ele><time>2026-05-02T12:19:01.822Z</time></trkpt><trkpt lat="46.1803445" lon="13.4770499"><ele>188.0</ele><time>2026-05-02T12:19:03.828Z</time></trkpt><trkpt lat="46.1803258" lon="13.4768923"><ele>188.0</ele><time>2026-05-02T12:19:04.82Z</time></trkpt><trkpt lat="46.1802972" lon="13.4767386"><ele>188.0</ele><time>2026-05-02T12:19:05.822Z</time></trkpt><trkpt lat="46.1802722" lon="13.4765783"><ele>188.0</ele><time>2026-05-02T12:19:06.836Z</time></trkpt><trkpt lat="46.1802489" lon="13.4764233"><ele>188.0</ele><time>2026-05-02T12:19:07.819Z</time></trkpt><trkpt lat="46.1802309" lon="13.4762783"><ele>188.0</ele><time>2026-05-02T12:19:08.821Z</time></trkpt><trkpt lat="46.1802074" lon="13.4761348"><ele>188.0</ele><time>2026-05-02T12:19:09.827Z</time></trkpt><trkpt lat="46.1801807" lon="13.4760132"><ele>188.0</ele><time>2026-05-02T12:19:10.816Z</time></trkpt><trkpt lat="46.1801488" lon="13.475902"><ele>188.4</ele><time>2026-05-02T12:19:11.818Z</time></trkpt><trkpt lat="46.1801286" lon="13.4758074"><ele>188.8</ele><time>2026-05-02T12:19:12.823Z</time></trkpt><trkpt lat="46.1800797" lon="13.4756516"><ele>189.2</ele><time>2026-05-02T12:19:14.826Z</time></trkpt><trkpt lat="46.1800081" lon="13.475512"><ele>189.6</ele><time>2026-05-02T12:19:16.826Z</time></trkpt><trkpt lat="46.1800005" lon="13.4753496"><ele>190.0</ele><time>2026-05-02T12:19:18.824Z</time></trkpt><trkpt lat="46.1800221" lon="13.4752558"><ele>191.6</ele><time>2026-05-02T12:19:19.82Z</time></trkpt><trkpt lat="46.1800415" lon="13.475157"><ele>193.2</ele><time>2026-05-02T12:19:20.818Z</time></trkpt><trkpt lat="46.1800541" lon="13.4750479"><ele>194.8</ele><time>2026-05-02T12:19:21.827Z</time></trkpt><trkpt lat="46.1800547" lon="13.4749421"><ele>196.4</ele><time>2026-05-02T12:19:22.819Z</time></trkpt><trkpt lat="46.1800519" lon="13.4746924"><ele>198.0</ele><time>2026-05-02T12:19:24.816Z</time></trkpt><trkpt lat="46.1800396" lon="13.4745696"><ele>198.83333333333334</ele><time>2026-05-02T12:19:25.819Z</time></trkpt><trkpt lat="46.1800257" lon="13.474437"><ele>199.66666666666669</ele><time>2026-05-02T12:19:26.82Z</time></trkpt><trkpt lat="46.1800057" lon="13.4743131"><ele>200.5</ele><time>2026-05-02T12:19:27.819Z</time></trkpt><trkpt lat="46.1799846" lon="13.4741887"><ele>201.33333333333334</ele><time>2026-05-02T12:19:28.816Z</time></trkpt><trkpt lat="46.1799735" lon="13.4740757"><ele>202.16666666666669</ele><time>2026-05-02T12:19:29.824Z</time></trkpt><trkpt lat="46.1799719" lon="13.4739655"><ele>203.0</ele><time>2026-05-02T12:19:30.828Z</time></trkpt><trkpt lat="46.179973" lon="13.4738397"><ele>204.4</ele><time>2026-05-02T12:19:31.816Z</time></trkpt><trkpt lat="46.1799793" lon="13.4737019"><ele>205.8</ele><time>2026-05-02T12:19:32.82Z</time></trkpt><trkpt lat="46.1799838" lon="13.4735601"><ele>207.2</ele><time>2026-05-02T12:19:33.822Z</time></trkpt><trkpt lat="46.1799771" lon="13.4734122"><ele>208.6</ele><time>2026-05-02T12:19:34.824Z</time></trkpt><trkpt lat="46.1799499" lon="13.4732743"><ele>210.0</ele><time>2026-05-02T12:19:35.818Z</time></trkpt><trkpt lat="46.1798986" lon="13.4731425"><ele>212.8</ele><time>2026-05-02T12:19:36.821Z</time></trkpt><trkpt lat="46.1798343" lon="13.4730207"><ele>215.6</ele><time>2026-05-02T12:19:37.816Z</time></trkpt><trkpt lat="46.1797561" lon="13.4729322"><ele>218.39999999999998</ele><time>2026-05-02T12:19:38.819Z</time></trkpt><trkpt lat="46.1796982" lon="13.4728722"><ele>221.2</ele><time>2026-05-02T12:19:39.817Z</time></trkpt><trkpt lat="46.1796615" lon="13.4727244"><ele>224.0</ele><time>2026-05-02T12:19:41.82Z</time></trkpt><trkpt lat="46.1797421" lon="13.4726428"><ele>224.0</ele><time>2026-05-02T12:19:43.818Z</time></trkpt><trkpt lat="46.1798251" lon="13.4726655"><ele>224.0</ele><time>2026-05-02T12:19:44.819Z</time></trkpt><trkpt lat="46.1799426" lon="13.4729058"><ele>224.0</ele><time>2026-05-02T12:19:46.821Z</time></trkpt><trkpt lat="46.1799719" lon="13.4730634"><ele>224.0</ele><time>2026-05-02T12:19:47.817Z</time></trkpt><trkpt lat="46.1800154" lon="13.4732049"><ele>220.5</ele><time>2026-05-02T12:19:48.83Z</time></trkpt><trkpt lat="46.1800902" lon="13.4733669"><ele>217.0</ele><time>2026-05-02T12:19:49.824Z</time></trkpt><trkpt lat="46.1801659" lon="13.473482"><ele>213.5</ele><time>2026-05-02T12:19:50.814Z</time></trkpt><trkpt lat="46.1802584" lon="13.4735641"><ele>210.0</ele><time>2026-05-02T12:19:51.836Z</time></trkpt><trkpt lat="46.180345" lon="13.4736644"><ele>208.25</ele><time>2026-05-02T12:19:52.816Z</time></trkpt><trkpt lat="46.1804032" lon="13.4737904"><ele>206.5</ele><time>2026-05-02T12:19:53.818Z</time></trkpt><trkpt lat="46.1804437" lon="13.473966"><ele>204.75</ele><time>2026-05-02T12:19:54.823Z</time></trkpt><trkpt lat="46.1804644" lon="13.4741693"><ele>203.0</ele><time>2026-05-02T12:19:55.825Z</time></trkpt><trkpt lat="46.1804991" lon="13.4743573"><ele>203.0</ele><time>2026-05-02T12:19:56.836Z</time></trkpt><trkpt lat="46.180555" lon="13.4745417"><ele>203.0</ele><time>2026-05-02T12:19:57.82Z</time></trkpt><trkpt lat="46.180591" lon="13.4746863"><ele>203.0</ele><time>2026-05-02T12:19:58.814Z</time></trkpt><trkpt lat="46.180611" lon="13.474827"><ele>203.0</ele><time>2026-05-02T12:19:59.818Z</time></trkpt><trkpt lat="46.1806252" lon="13.474926"><ele>203.0</ele><time>2026-05-02T12:20:00.815Z</time></trkpt><trkpt lat="46.1807324" lon="13.4749181"><ele>205.2</ele><time>2026-05-02T12:20:02.817Z</time></trkpt><trkpt lat="46.1808253" lon="13.4748729"><ele>207.4</ele><time>2026-05-02T12:20:04.816Z</time></trkpt><trkpt lat="46.1808972" lon="13.4748469"><ele>209.59999999999997</ele><time>2026-05-02T12:20:06.819Z</time></trkpt><trkpt lat="46.1810513" lon="13.4747887"><ele>211.79999999999998</ele><time>2026-05-02T12:20:09.818Z</time></trkpt><trkpt lat="46.181128" lon="13.4747713"><ele>214.0</ele><time>2026-05-02T12:20:10.817Z</time></trkpt><trkpt lat="46.1812017" lon="13.4747569"><ele>213.99999999999997</ele><time>2026-05-02T12:20:11.82Z</time></trkpt><trkpt lat="46.1812693" lon="13.4747351"><ele>214.0</ele><time>2026-05-02T12:20:12.825Z</time></trkpt><trkpt lat="46.181337" lon="13.4746424"><ele>214.0</ele><time>2026-05-02T12:20:14.829Z</time></trkpt><trkpt lat="46.1812556" lon="13.4746247"><ele>214.0</ele><time>2026-05-02T12:20:16.816Z</time></trkpt><trkpt lat="46.1811617" lon="13.4746428"><ele>213.99999999999997</ele><time>2026-05-02T12:20:17.824Z</time></trkpt><trkpt lat="46.181058" lon="13.4746635"><ele>214.0</ele><time>2026-05-02T12:20:18.82Z</time></trkpt><trkpt lat="46.1809578" lon="13.4746592"><ele>214.0</ele><time>2026-05-02T12:20:19.822Z</time></trkpt><trkpt lat="46.1808684" lon="13.4746058"><ele>213.99999999999997</ele><time>2026-05-02T12:20:20.822Z</time></trkpt><trkpt lat="46.1808001" lon="13.4745178"><ele>213.99999999999997</ele><time>2026-05-02T12:20:21.821Z</time></trkpt><trkpt lat="46.1807694" lon="13.4743878"><ele>214.0</ele><time>2026-05-02T12:20:22.818Z</time></trkpt><trkpt lat="46.1807522" lon="13.4742298"><ele>214.0</ele><time>2026-05-02T12:20:23.821Z</time></trkpt><trkpt lat="46.1807433" lon="13.4740383"><ele>220.5</ele><time>2026-05-02T12:20:24.816Z</time></trkpt><trkpt lat="46.1807428" lon="13.4738368"><ele>227.0</ele><time>2026-05-02T12:20:25.819Z</time></trkpt><trkpt lat="46.1807594" lon="13.4736409"><ele>233.5</ele><time>2026-05-02T12:20:26.832Z</time></trkpt><trkpt lat="46.1808104" lon="13.4734694"><ele>240.0</ele><time>2026-05-02T12:20:27.821Z</time></trkpt><trkpt lat="46.1809255" lon="13.4731758"><ele>240.25</ele><time>2026-05-02T12:20:29.816Z</time></trkpt><trkpt lat="46.1809532" lon="13.4730164"><ele>240.5</ele><time>2026-05-02T12:20:30.815Z</time></trkpt><trkpt lat="46.1809452" lon="13.4728349"><ele>240.75</ele><time>2026-05-02T12:20:31.836Z</time></trkpt><trkpt lat="46.1809172" lon="13.4726468"><ele>241.0</ele><time>2026-05-02T12:20:32.82Z</time></trkpt><trkpt lat="46.1808762" lon="13.4724608"><ele>243.25</ele><time>2026-05-02T12:20:33.829Z</time></trkpt><trkpt lat="46.1808313" lon="13.4722802"><ele>245.5</ele><time>2026-05-02T12:20:34.824Z</time></trkpt><trkpt lat="46.1807814" lon="13.4721168"><ele>247.75</ele><time>2026-05-02T12:20:35.833Z</time></trkpt><trkpt lat="46.1807503" lon="13.4719597"><ele>250.0</ele><time>2026-05-02T12:20:36.824Z</time></trkpt><trkpt lat="46.1807584" lon="13.4718292"><ele>248.99999999999997</ele><time>2026-05-02T12:20:37.816Z</time></trkpt><trkpt lat="46.1807787" lon="13.4717184"><ele>248.0</ele><time>2026-05-02T12:20:38.827Z</time></trkpt><trkpt lat="46.1807738" lon="13.4716208"><ele>247.0</ele><time>2026-05-02T12:20:39.827Z</time></trkpt><trkpt lat="46.1806923" lon="13.4714967"><ele>246.0</ele><time>2026-05-02T12:20:41.814Z</time></trkpt><trkpt lat="46.1806149" lon="13.4714734"><ele>244.99999999999997</ele><time>2026-05-02T12:20:42.827Z</time></trkpt><trkpt lat="46.1805688" lon="13.4713988"><ele>244.0</ele><time>2026-05-02T12:20:43.817Z</time></trkpt><trkpt lat="46.1805345" lon="13.471256"><ele>246.39999999999998</ele><time>2026-05-02T12:20:44.828Z</time></trkpt><trkpt lat="46.1804945" lon="13.4711385"><ele>248.79999999999998</ele><time>2026-05-02T12:20:45.831Z</time></trkpt><trkpt lat="46.1804171" lon="13.4710818"><ele>251.20000000000002</ele><time>2026-05-02T12:20:46.819Z</time></trkpt><trkpt lat="46.180318" lon="13.471047"><ele>253.60000000000002</ele><time>2026-05-02T12:20:47.817Z</time></trkpt><trkpt lat="46.1802355" lon="13.4710071"><ele>256.0</ele><time>2026-05-02T12:20:48.817Z</time></trkpt><trkpt lat="46.1800976" lon="13.4708487"><ele>256.0</ele><time>2026-05-02T12:20:50.82Z</time></trkpt><trkpt lat="46.1800495" lon="13.4707205"><ele>256.0</ele><time>2026-05-02T12:20:51.825Z</time></trkpt><trkpt lat="46.1800278" lon="13.4705759"><ele>256.0</ele><time>2026-05-02T12:20:52.826Z</time></trkpt><trkpt lat="46.1800296" lon="13.4704127"><ele>256.0</ele><time>2026-05-02T12:20:53.825Z</time></trkpt><trkpt lat="46.1800454" lon="13.4702376"><ele>256.0</ele><time>2026-05-02T12:20:54.818Z</time></trkpt><trkpt lat="46.1800664" lon="13.4700405"><ele>260.0</ele><time>2026-05-02T12:20:55.82Z</time></trkpt><trkpt lat="46.1800609" lon="13.4698818"><ele>264.0</ele><time>2026-05-02T12:20:56.814Z</time></trkpt><trkpt lat="46.1800474" lon="13.4697344"><ele>268.0</ele><time>2026-05-02T12:20:57.818Z</time></trkpt><trkpt lat="46.1800359" lon="13.4695674"><ele>272.0</ele><time>2026-05-02T12:20:58.831Z</time></trkpt><trkpt lat="46.1800189" lon="13.4693958"><ele>276.0</ele><time>2026-05-02T12:20:59.822Z</time></trkpt><trkpt lat="46.1799782" lon="13.4692776"><ele>277.2</ele><time>2026-05-02T12:21:00.814Z</time></trkpt><trkpt lat="46.1798642" lon="13.4692307"><ele>278.40000000000003</ele><time>2026-05-02T12:21:02.819Z</time></trkpt><trkpt lat="46.1797796" lon="13.4692999"><ele>279.6</ele><time>2026-05-02T12:21:03.817Z</time></trkpt><trkpt lat="46.1796864" lon="13.4693705"><ele>280.8</ele><time>2026-05-02T12:21:04.825Z</time></trkpt><trkpt lat="46.179593" lon="13.4694045"><ele>282.0</ele><time>2026-05-02T12:21:05.82Z</time></trkpt><trkpt lat="46.1795165" lon="13.4693877"><ele>282.0</ele><time>2026-05-02T12:21:06.826Z</time></trkpt><trkpt lat="46.1794476" lon="13.4693256"><ele>282.0</ele><time>2026-05-02T12:21:07.82Z</time></trkpt><trkpt lat="46.1793989" lon="13.4691753"><ele>282.0</ele><time>2026-05-02T12:21:08.817Z</time></trkpt><trkpt lat="46.1793454" lon="13.4689752"><ele>282.0</ele><time>2026-05-02T12:21:09.821Z</time></trkpt><trkpt lat="46.1792726" lon="13.468753"><ele>283.4</ele><time>2026-05-02T12:21:11.814Z</time></trkpt><trkpt lat="46.1791719" lon="13.4686871"><ele>284.79999999999995</ele><time>2026-05-02T12:21:12.821Z</time></trkpt><trkpt lat="46.1790743" lon="13.4686519"><ele>286.2</ele><time>2026-05-02T12:21:13.821Z</time></trkpt><trkpt lat="46.1789759" lon="13.4686227"><ele>287.59999999999997</ele><time>2026-05-02T12:21:14.828Z</time></trkpt><trkpt lat="46.1788771" lon="13.4685856"><ele>289.0</ele><time>2026-05-02T12:21:15.819Z</time></trkpt><trkpt lat="46.1787788" lon="13.4685173"><ele>289.0</ele><time>2026-05-02T12:21:16.818Z</time></trkpt><trkpt lat="46.1786808" lon="13.4684501"><ele>289.0</ele><time>2026-05-02T12:21:17.819Z</time></trkpt><trkpt lat="46.1785924" lon="13.4683684"><ele>289.0</ele><time>2026-05-02T12:21:18.818Z</time></trkpt><trkpt lat="46.1785154" lon="13.4682521"><ele>289.0</ele><time>2026-05-02T12:21:19.829Z</time></trkpt><trkpt lat="46.1784554" lon="13.4681302"><ele>289.0</ele><time>2026-05-02T12:21:20.819Z</time></trkpt><trkpt lat="46.1783977" lon="13.4680074"><ele>290.4</ele><time>2026-05-02T12:21:21.821Z</time></trkpt><trkpt lat="46.1783481" lon="13.4678958"><ele>291.79999999999995</ele><time>2026-05-02T12:21:22.825Z</time></trkpt><trkpt lat="46.1783173" lon="13.4677725"><ele>293.20000000000005</ele><time>2026-05-02T12:21:23.825Z</time></trkpt><trkpt lat="46.178331" lon="13.4676409"><ele>294.6</ele><time>2026-05-02T12:21:24.817Z</time></trkpt><trkpt lat="46.178383" lon="13.4674848"><ele>296.0</ele><time>2026-05-02T12:21:25.833Z</time></trkpt><trkpt lat="46.1784468" lon="13.4673282"><ele>296.0</ele><time>2026-05-02T12:21:26.816Z</time></trkpt><trkpt lat="46.1785097" lon="13.4671861"><ele>296.0</ele><time>2026-05-02T12:21:27.816Z</time></trkpt><trkpt lat="46.1785621" lon="13.4670779"><ele>296.0</ele><time>2026-05-02T12:21:28.817Z</time></trkpt><trkpt lat="46.1785585" lon="13.4669776"><ele>296.0</ele><time>2026-05-02T12:21:29.817Z</time></trkpt><trkpt lat="46.1785104" lon="13.4668946"><ele>296.0</ele><time>2026-05-02T12:21:30.826Z</time></trkpt><trkpt lat="46.1783362" lon="13.4667357"><ele>299.6</ele><time>2026-05-02T12:21:32.829Z</time></trkpt><trkpt lat="46.178228" lon="13.4666517"><ele>303.20000000000005</ele><time>2026-05-02T12:21:33.828Z</time></trkpt><trkpt lat="46.1781192" lon="13.4666107"><ele>306.79999999999995</ele><time>2026-05-02T12:21:34.819Z</time></trkpt><trkpt lat="46.1780313" lon="13.4665779"><ele>310.4</ele><time>2026-05-02T12:21:35.819Z</time></trkpt><trkpt lat="46.177973" lon="13.4665155"><ele>314.0</ele><time>2026-05-02T12:21:36.835Z</time></trkpt><trkpt lat="46.1780289" lon="13.4664066"><ele>314.0</ele><time>2026-05-02T12:21:38.82Z</time></trkpt><trkpt lat="46.1781033" lon="13.4664176"><ele>314.0</ele><time>2026-05-02T12:21:39.815Z</time></trkpt><trkpt lat="46.1782045" lon="13.4664734"><ele>314.0</ele><time>2026-05-02T12:21:40.821Z</time></trkpt><trkpt lat="46.1783157" lon="13.4665442"><ele>314.0</ele><time>2026-05-02T12:21:41.817Z</time></trkpt><trkpt lat="46.1784336" lon="13.4666238"><ele>314.0</ele><time>2026-05-02T12:21:42.821Z</time></trkpt><trkpt lat="46.178527" lon="13.4666877"><ele>314.4</ele><time>2026-05-02T12:21:43.826Z</time></trkpt><trkpt lat="46.1785981" lon="13.466701"><ele>314.79999999999995</ele><time>2026-05-02T12:21:44.825Z</time></trkpt><trkpt lat="46.1786145" lon="13.466611"><ele>315.20000000000005</ele><time>2026-05-02T12:21:46.815Z</time></trkpt><trkpt lat="46.1785362" lon="13.4665246"><ele>315.6</ele><time>2026-05-02T12:21:47.818Z</time></trkpt><trkpt lat="46.17844" lon="13.466401"><ele>316.0</ele><time>2026-05-02T12:21:48.828Z</time></trkpt><trkpt lat="46.1783402" lon="13.4662825"><ele>320.5</ele><time>2026-05-02T12:21:49.824Z</time></trkpt><trkpt lat="46.1782472" lon="13.4661612"><ele>325.0</ele><time>2026-05-02T12:21:50.821Z</time></trkpt><trkpt lat="46.1781603" lon="13.4660639"><ele>329.5</ele><time>2026-05-02T12:21:51.821Z</time></trkpt><trkpt lat="46.1780859" lon="13.4659883"><ele>334.0</ele><time>2026-05-02T12:21:52.829Z</time></trkpt><trkpt lat="46.1779812" lon="13.4657933"><ele>334.25</ele><time>2026-05-02T12:21:54.824Z</time></trkpt><trkpt lat="46.1779846" lon="13.4656396"><ele>334.5</ele><time>2026-05-02T12:21:55.821Z</time></trkpt><trkpt lat="46.1780062" lon="13.4654853"><ele>334.75</ele><time>2026-05-02T12:21:56.825Z</time></trkpt><trkpt lat="46.1780467" lon="13.4653039"><ele>335.0</ele><time>2026-05-02T12:21:57.833Z</time></trkpt><trkpt lat="46.1781016" lon="13.465136"><ele>337.25</ele><time>2026-05-02T12:21:58.822Z</time></trkpt><trkpt lat="46.1781369" lon="13.4649808"><ele>339.5</ele><time>2026-05-02T12:21:59.817Z</time></trkpt><trkpt lat="46.1781388" lon="13.4648115"><ele>341.75</ele><time>2026-05-02T12:22:00.821Z</time></trkpt><trkpt lat="46.178131" lon="13.4646452"><ele>344.0</ele><time>2026-05-02T12:22:01.819Z</time></trkpt><trkpt lat="46.1781126" lon="13.4644835"><ele>343.0</ele><time>2026-05-02T12:22:02.815Z</time></trkpt><trkpt lat="46.1781153" lon="13.4643501"><ele>342.0</ele><time>2026-05-02T12:22:03.826Z</time></trkpt><trkpt lat="46.178128" lon="13.4642225"><ele>341.0</ele><time>2026-05-02T12:22:04.825Z</time></trkpt><trkpt lat="46.1781607" lon="13.4641401"><ele>340.0</ele><time>2026-05-02T12:22:05.816Z</time></trkpt><trkpt lat="46.1782796" lon="13.4642167"><ele>339.0</ele><time>2026-05-02T12:22:07.82Z</time></trkpt><trkpt lat="46.1783295" lon="13.46436"><ele>339.0</ele><time>2026-05-02T12:22:08.819Z</time></trkpt><trkpt lat="46.1783671" lon="13.4645389"><ele>339.0</ele><time>2026-05-02T12:22:09.816Z</time></trkpt><trkpt lat="46.1783787" lon="13.4647199"><ele>339.0</ele><time>2026-05-02T12:22:10.831Z</time></trkpt><trkpt lat="46.1784194" lon="13.4649008"><ele>339.0</ele><time>2026-05-02T12:22:11.828Z</time></trkpt><trkpt lat="46.1784778" lon="13.4650602"><ele>339.6666666666667</ele><time>2026-05-02T12:22:12.82Z</time></trkpt><trkpt lat="46.1785546" lon="13.4652038"><ele>340.33333333333337</ele><time>2026-05-02T12:22:13.82Z</time></trkpt><trkpt lat="46.1787725" lon="13.4654822"><ele>341.0</ele><time>2026-05-02T12:22:15.824Z</time></trkpt><trkpt lat="46.1788753" lon="13.465593"><ele>339.25</ele><time>2026-05-02T12:22:16.823Z</time></trkpt><trkpt lat="46.1789764" lon="13.4656859"><ele>337.5</ele><time>2026-05-02T12:22:17.823Z</time></trkpt><trkpt lat="46.1790787" lon="13.4657663"><ele>335.75</ele><time>2026-05-02T12:22:18.823Z</time></trkpt><trkpt lat="46.1791823" lon="13.4658103"><ele>334.0</ele><time>2026-05-02T12:22:19.817Z</time></trkpt><trkpt lat="46.1792955" lon="13.465861"><ele>335.0</ele><time>2026-05-02T12:22:20.827Z</time></trkpt><trkpt lat="46.1793776" lon="13.4659243"><ele>336.0</ele><time>2026-05-02T12:22:21.823Z</time></trkpt><trkpt lat="46.1794753" lon="13.4660285"><ele>337.0</ele><time>2026-05-02T12:22:22.827Z</time></trkpt><trkpt lat="46.179549" lon="13.4661335"><ele>338.0</ele><time>2026-05-02T12:22:23.824Z</time></trkpt><trkpt lat="46.1796125" lon="13.4662354"><ele>339.0</ele><time>2026-05-02T12:22:24.826Z</time></trkpt><trkpt lat="46.1796778" lon="13.4663341"><ele>339.0</ele><time>2026-05-02T12:22:25.819Z</time></trkpt><trkpt lat="46.179735" lon="13.4664193"><ele>339.0</ele><time>2026-05-02T12:22:26.82Z</time></trkpt><trkpt lat="46.1797928" lon="13.4664652"><ele>339.0</ele><time>2026-05-02T12:22:27.824Z</time></trkpt><trkpt lat="46.1798863" lon="13.4664419"><ele>339.0</ele><time>2026-05-02T12:22:29.816Z</time></trkpt><trkpt lat="46.1798786" lon="13.4662807"><ele>339.0</ele><time>2026-05-02T12:22:31.825Z</time></trkpt><trkpt lat="46.1798759" lon="13.4661745"><ele>339.0</ele><time>2026-05-02T12:22:32.821Z</time></trkpt><trkpt lat="46.1798737" lon="13.4660379"><ele>346.5</ele><time>2026-05-02T12:22:33.821Z</time></trkpt><trkpt lat="46.1798435" lon="13.4658318"><ele>354.0</ele><time>2026-05-02T12:22:34.819Z</time></trkpt><trkpt lat="46.1797486" lon="13.4653955"><ele>359.0</ele><time>2026-05-02T12:22:36.826Z</time></trkpt><trkpt lat="46.1796784" lon="13.4651622"><ele>364.0</ele><time>2026-05-02T12:22:37.82Z</time></trkpt><trkpt lat="46.1796136" lon="13.4649413"><ele>369.0</ele><time>2026-05-02T12:22:38.82Z</time></trkpt><trkpt lat="46.1795748" lon="13.4647547"><ele>371.5</ele><time>2026-05-02T12:22:39.819Z</time></trkpt><trkpt lat="46.1795211" lon="13.4645696"><ele>374.0</ele><time>2026-05-02T12:22:40.834Z</time></trkpt><trkpt lat="46.1794426" lon="13.4643962"><ele>376.5</ele><time>2026-05-02T12:22:41.821Z</time></trkpt><trkpt lat="46.1793661" lon="13.4642237"><ele>379.0</ele><time>2026-05-02T12:22:42.824Z</time></trkpt><trkpt lat="46.1792947" lon="13.4640558"><ele>379.0</ele><time>2026-05-02T12:22:43.816Z</time></trkpt><trkpt lat="46.1792248" lon="13.4638827"><ele>379.0</ele><time>2026-05-02T12:22:44.825Z</time></trkpt><trkpt lat="46.1792003" lon="13.4637214"><ele>379.0</ele><time>2026-05-02T12:22:45.83Z</time></trkpt><trkpt lat="46.1792002" lon="13.4635517"><ele>379.0</ele><time>2026-05-02T12:22:46.816Z</time></trkpt><trkpt lat="46.1792079" lon="13.4633677"><ele>380.25</ele><time>2026-05-02T12:22:47.821Z</time></trkpt><trkpt lat="46.1792093" lon="13.4631746"><ele>381.5</ele><time>2026-05-02T12:22:48.819Z</time></trkpt><trkpt lat="46.1792039" lon="13.4629816"><ele>382.75</ele><time>2026-05-02T12:22:49.816Z</time></trkpt><trkpt lat="46.1791853" lon="13.4627887"><ele>384.0</ele><time>2026-05-02T12:22:50.829Z</time></trkpt><trkpt lat="46.1791548" lon="13.462608"><ele>386.25</ele><time>2026-05-02T12:22:51.827Z</time></trkpt><trkpt lat="46.1791194" lon="13.4624353"><ele>388.5</ele><time>2026-05-02T12:22:52.822Z</time></trkpt><trkpt lat="46.1790906" lon="13.4622783"><ele>390.75</ele><time>2026-05-02T12:22:53.823Z</time></trkpt><trkpt lat="46.1790873" lon="13.4621268"><ele>393.0</ele><time>2026-05-02T12:22:54.826Z</time></trkpt><trkpt lat="46.1790998" lon="13.4619621"><ele>394.33333333333337</ele><time>2026-05-02T12:22:55.828Z</time></trkpt><trkpt lat="46.1791235" lon="13.4618105"><ele>395.6666666666667</ele><time>2026-05-02T12:22:56.819Z</time></trkpt><trkpt lat="46.1791382" lon="13.4614912"><ele>397.0</ele><time>2026-05-02T12:22:58.817Z</time></trkpt><trkpt lat="46.1790981" lon="13.4613229"><ele>396.0</ele><time>2026-05-02T12:22:59.817Z</time></trkpt><trkpt lat="46.1790519" lon="13.4611793"><ele>395.0</ele><time>2026-05-02T12:23:00.82Z</time></trkpt><trkpt lat="46.1790029" lon="13.4610507"><ele>394.0</ele><time>2026-05-02T12:23:01.82Z</time></trkpt><trkpt lat="46.1789631" lon="13.4609113"><ele>393.0</ele><time>2026-05-02T12:23:02.821Z</time></trkpt><trkpt lat="46.1789431" lon="13.460756"><ele>392.0</ele><time>2026-05-02T12:23:03.826Z</time></trkpt><trkpt lat="46.1789122" lon="13.4606102"><ele>392.0</ele><time>2026-05-02T12:23:04.823Z</time></trkpt><trkpt lat="46.1788599" lon="13.4604678"><ele>392.0</ele><time>2026-05-02T12:23:05.82Z</time></trkpt><trkpt lat="46.1787896" lon="13.4603323"><ele>392.0</ele><time>2026-05-02T12:23:06.82Z</time></trkpt><trkpt lat="46.1787155" lon="13.4602034"><ele>392.0</ele><time>2026-05-02T12:23:07.819Z</time></trkpt><trkpt lat="46.1786382" lon="13.4600822"><ele>394.5</ele><time>2026-05-02T12:23:08.829Z</time></trkpt><trkpt lat="46.1785678" lon="13.4599672"><ele>397.0</ele><time>2026-05-02T12:23:09.814Z</time></trkpt><trkpt lat="46.1785003" lon="13.4598386"><ele>399.5</ele><time>2026-05-02T12:23:10.827Z</time></trkpt><trkpt lat="46.1784385" lon="13.4596905"><ele>402.0</ele><time>2026-05-02T12:23:11.82Z</time></trkpt><trkpt lat="46.1783929" lon="13.4595391"><ele>404.3333333333333</ele><time>2026-05-02T12:23:12.816Z</time></trkpt><trkpt lat="46.1783586" lon="13.4593994"><ele>406.66666666666663</ele><time>2026-05-02T12:23:13.819Z</time></trkpt><trkpt lat="46.1783301" lon="13.4592711"><ele>409.0</ele><time>2026-05-02T12:23:14.823Z</time></trkpt><trkpt lat="46.1783159" lon="13.4591334"><ele>411.3333333333333</ele><time>2026-05-02T12:23:15.822Z</time></trkpt><trkpt lat="46.1783219" lon="13.4590201"><ele>413.66666666666663</ele><time>2026-05-02T12:23:16.827Z</time></trkpt><trkpt lat="46.1782892" lon="13.4589376"><ele>416.0</ele><time>2026-05-02T12:23:18.818Z</time></trkpt><trkpt lat="46.1782198" lon="13.4592471"><ele>416.0</ele><time>2026-05-02T12:23:21.821Z</time></trkpt><trkpt lat="46.1782832" lon="13.4593997"><ele>416.0</ele><time>2026-05-02T12:23:22.822Z</time></trkpt><trkpt lat="46.1784297" lon="13.4595368"><ele>416.0</ele><time>2026-05-02T12:23:23.818Z</time></trkpt><trkpt lat="46.1786323" lon="13.4596687"><ele>419.66666666666663</ele><time>2026-05-02T12:23:24.818Z</time></trkpt><trkpt lat="46.1788244" lon="13.4597858"><ele>423.33333333333337</ele><time>2026-05-02T12:23:25.829Z</time></trkpt><trkpt lat="46.1789922" lon="13.4599101"><ele>427.0</ele><time>2026-05-02T12:23:26.819Z</time></trkpt><trkpt lat="46.1791395" lon="13.460021"><ele>427.0</ele><time>2026-05-02T12:23:27.815Z</time></trkpt><trkpt lat="46.1792787" lon="13.4600844"><ele>427.0</ele><time>2026-05-02T12:23:28.822Z</time></trkpt><trkpt lat="46.179404" lon="13.4600983"><ele>427.0</ele><time>2026-05-02T12:23:29.817Z</time></trkpt><trkpt lat="46.1794909" lon="13.4600833"><ele>427.0</ele><time>2026-05-02T12:23:30.82Z</time></trkpt><trkpt lat="46.1795806" lon="13.4600449"><ele>427.0</ele><time>2026-05-02T12:23:32.819Z</time></trkpt><trkpt lat="46.1795707" lon="13.459846"><ele>427.0</ele><time>2026-05-02T12:23:34.818Z</time></trkpt><trkpt lat="46.1795227" lon="13.459672"><ele>427.0</ele><time>2026-05-02T12:23:35.82Z</time></trkpt><trkpt lat="46.1794594" lon="13.4594706"><ele>427.0</ele><time>2026-05-02T12:23:36.822Z</time></trkpt><trkpt lat="46.1793867" lon="13.4592621"><ele>430.0</ele><time>2026-05-02T12:23:37.826Z</time></trkpt><trkpt lat="46.1792849" lon="13.4590562"><ele>433.0</ele><time>2026-05-02T12:23:38.822Z</time></trkpt><trkpt lat="46.1791809" lon="13.4588629"><ele>436.0</ele><time>2026-05-02T12:23:39.816Z</time></trkpt><trkpt lat="46.1789707" lon="13.4585863"><ele>436.0</ele><time>2026-05-02T12:23:41.817Z</time></trkpt><trkpt lat="46.1788559" lon="13.4585203"><ele>436.0</ele><time>2026-05-02T12:23:42.823Z</time></trkpt><trkpt lat="46.1787303" lon="13.4584635"><ele>436.0</ele><time>2026-05-02T12:23:43.817Z</time></trkpt><trkpt lat="46.1786129" lon="13.4584083"><ele>436.0</ele><time>2026-05-02T12:23:44.819Z</time></trkpt><trkpt lat="46.1785493" lon="13.4583453"><ele>436.0</ele><time>2026-05-02T12:23:45.825Z</time></trkpt><trkpt lat="46.178675" lon="13.4583074"><ele>436.0</ele><time>2026-05-02T12:23:48.817Z</time></trkpt><trkpt lat="46.1787909" lon="13.4583776"><ele>436.0</ele><time>2026-05-02T12:23:49.817Z</time></trkpt><trkpt lat="46.178918" lon="13.4584474"><ele>436.0</ele><time>2026-05-02T12:23:50.824Z</time></trkpt><trkpt lat="46.1790576" lon="13.4585203"><ele>437.5</ele><time>2026-05-02T12:23:51.814Z</time></trkpt><trkpt lat="46.1791898" lon="13.4586083"><ele>439.0</ele><time>2026-05-02T12:23:52.821Z</time></trkpt><trkpt lat="46.1793018" lon="13.458731"><ele>440.5</ele><time>2026-05-02T12:23:53.821Z</time></trkpt><trkpt lat="46.1794164" lon="13.4588642"><ele>442.0</ele><time>2026-05-02T12:23:54.818Z</time></trkpt><trkpt lat="46.1795422" lon="13.4590015"><ele>442.0</ele><time>2026-05-02T12:23:55.816Z</time></trkpt><trkpt lat="46.1796753" lon="13.4591254"><ele>442.0</ele><time>2026-05-02T12:23:56.818Z</time></trkpt><trkpt lat="46.1797784" lon="13.4592589"><ele>442.0</ele><time>2026-05-02T12:23:57.819Z</time></trkpt><trkpt lat="46.1798579" lon="13.4594096"><ele>442.0</ele><time>2026-05-02T12:23:58.819Z</time></trkpt><trkpt lat="46.1799021" lon="13.4595835"><ele>447.0</ele><time>2026-05-02T12:23:59.817Z</time></trkpt><trkpt lat="46.1799235" lon="13.4597439"><ele>452.0</ele><time>2026-05-02T12:24:00.824Z</time></trkpt><trkpt lat="46.180035" lon="13.4600065"><ele>457.0</ele><time>2026-05-02T12:24:02.816Z</time></trkpt><trkpt lat="46.1801471" lon="13.4600908"><ele>457.0</ele><time>2026-05-02T12:24:03.817Z</time></trkpt><trkpt lat="46.1802626" lon="13.4601542"><ele>457.00000000000006</ele><time>2026-05-02T12:24:04.817Z</time></trkpt><trkpt lat="46.1803729" lon="13.4601899"><ele>457.00000000000006</ele><time>2026-05-02T12:24:05.822Z</time></trkpt><trkpt lat="46.1804774" lon="13.4602339"><ele>457.0</ele><time>2026-05-02T12:24:06.826Z</time></trkpt><trkpt lat="46.1805568" lon="13.4603099"><ele>457.0</ele><time>2026-05-02T12:24:07.816Z</time></trkpt><trkpt lat="46.1806421" lon="13.4603995"><ele>460.5</ele><time>2026-05-02T12:24:08.822Z</time></trkpt><trkpt lat="46.1807159" lon="13.4605322"><ele>464.0</ele><time>2026-05-02T12:24:09.819Z</time></trkpt><trkpt lat="46.180781" lon="13.4606849"><ele>467.5</ele><time>2026-05-02T12:24:10.821Z</time></trkpt><trkpt lat="46.1808348" lon="13.4608429"><ele>471.0</ele><time>2026-05-02T12:24:11.824Z</time></trkpt><trkpt lat="46.1808834" lon="13.4609863"><ele>471.0</ele><time>2026-05-02T12:24:12.821Z</time></trkpt><trkpt lat="46.180926" lon="13.4611006"><ele>471.0</ele><time>2026-05-02T12:24:13.815Z</time></trkpt><trkpt lat="46.1809751" lon="13.4611916"><ele>471.0</ele><time>2026-05-02T12:24:14.829Z</time></trkpt><trkpt lat="46.1810356" lon="13.4612661"><ele>471.0</ele><time>2026-05-02T12:24:15.821Z</time></trkpt><trkpt lat="46.1811177" lon="13.4613171"><ele>471.0</ele><time>2026-05-02T12:24:16.823Z</time></trkpt><trkpt lat="46.1811974" lon="13.4613379"><ele>471.0</ele><time>2026-05-02T12:24:17.815Z</time></trkpt><trkpt lat="46.1812876" lon="13.4613269"><ele>471.0</ele><time>2026-05-02T12:24:18.818Z</time></trkpt><trkpt lat="46.1813941" lon="13.4612818"><ele>471.0</ele><time>2026-05-02T12:24:19.824Z</time></trkpt><trkpt lat="46.1814993" lon="13.4612455"><ele>471.0</ele><time>2026-05-02T12:24:20.821Z</time></trkpt><trkpt lat="46.181603" lon="13.4612182"><ele>471.0</ele><time>2026-05-02T12:24:21.818Z</time></trkpt><trkpt lat="46.1817956" lon="13.4612185"><ele>471.0</ele><time>2026-05-02T12:24:23.814Z</time></trkpt><trkpt lat="46.1818978" lon="13.4612702"><ele>471.0</ele><time>2026-05-02T12:24:24.821Z</time></trkpt><trkpt lat="46.1819984" lon="13.4613439"><ele>471.0</ele><time>2026-05-02T12:24:25.822Z</time></trkpt><trkpt lat="46.1820923" lon="13.4614269"><ele>471.0</ele><time>2026-05-02T12:24:26.816Z</time></trkpt><trkpt lat="46.1821633" lon="13.4615597"><ele>471.0</ele><time>2026-05-02T12:24:27.819Z</time></trkpt><trkpt lat="46.1822216" lon="13.461721"><ele>471.0</ele><time>2026-05-02T12:24:28.818Z</time></trkpt><trkpt lat="46.1822773" lon="13.461884"><ele>471.0</ele><time>2026-05-02T12:24:29.82Z</time></trkpt><trkpt lat="46.1823159" lon="13.462041"><ele>471.0</ele><time>2026-05-02T12:24:30.821Z</time></trkpt><trkpt lat="46.1823207" lon="13.462191"><ele>471.0</ele><time>2026-05-02T12:24:31.817Z</time></trkpt><trkpt lat="46.1823135" lon="13.4623359"><ele>471.0</ele><time>2026-05-02T12:24:32.813Z</time></trkpt><trkpt lat="46.1822977" lon="13.4624771"><ele>472.6666666666667</ele><time>2026-05-02T12:24:33.823Z</time></trkpt><trkpt lat="46.1822802" lon="13.4626134"><ele>474.33333333333337</ele><time>2026-05-02T12:24:34.815Z</time></trkpt><trkpt lat="46.1822791" lon="13.4627527"><ele>476.0</ele><time>2026-05-02T12:24:35.825Z</time></trkpt><trkpt lat="46.1823036" lon="13.4628753"><ele>477.6666666666667</ele><time>2026-05-02T12:24:36.827Z</time></trkpt><trkpt lat="46.1823429" lon="13.4629662"><ele>479.33333333333337</ele><time>2026-05-02T12:24:37.817Z</time></trkpt><trkpt lat="46.1824047" lon="13.463013"><ele>481.0</ele><time>2026-05-02T12:24:38.817Z</time></trkpt><trkpt lat="46.1824676" lon="13.4629971"><ele>483.75</ele><time>2026-05-02T12:24:39.82Z</time></trkpt><trkpt lat="46.1825076" lon="13.4628444"><ele>486.5</ele><time>2026-05-02T12:24:41.815Z</time></trkpt><trkpt lat="46.1824839" lon="13.46273"><ele>489.25</ele><time>2026-05-02T12:24:42.825Z</time></trkpt><trkpt lat="46.1824402" lon="13.4624389"><ele>492.0</ele><time>2026-05-02T12:24:44.82Z</time></trkpt><trkpt lat="46.1824317" lon="13.4622735"><ele>493.8</ele><time>2026-05-02T12:24:45.823Z</time></trkpt><trkpt lat="46.1824357" lon="13.462114"><ele>495.6</ele><time>2026-05-02T12:24:46.821Z</time></trkpt><trkpt lat="46.1824491" lon="13.4619533"><ele>497.40000000000003</ele><time>2026-05-02T12:24:47.815Z</time></trkpt><trkpt lat="46.1824694" lon="13.4618025"><ele>499.20000000000005</ele><time>2026-05-02T12:24:48.812Z</time></trkpt><trkpt lat="46.1824889" lon="13.4616557"><ele>501.0</ele><time>2026-05-02T12:24:49.835Z</time></trkpt><trkpt lat="46.1824946" lon="13.4615311"><ele>501.0</ele><time>2026-05-02T12:24:50.82Z</time></trkpt><trkpt lat="46.1824808" lon="13.4614109"><ele>501.0</ele><time>2026-05-02T12:24:51.816Z</time></trkpt><trkpt lat="46.1824515" lon="13.461291"><ele>501.0</ele><time>2026-05-02T12:24:52.815Z</time></trkpt><trkpt lat="46.1823973" lon="13.4611542"><ele>501.0</ele><time>2026-05-02T12:24:53.823Z</time></trkpt><trkpt lat="46.182327" lon="13.4610095"><ele>501.0</ele><time>2026-05-02T12:24:54.82Z</time></trkpt><trkpt lat="46.1822604" lon="13.4608633"><ele>503.0</ele><time>2026-05-02T12:24:55.813Z</time></trkpt><trkpt lat="46.1821859" lon="13.460726"><ele>505.0</ele><time>2026-05-02T12:24:56.82Z</time></trkpt><trkpt lat="46.1820938" lon="13.4605898"><ele>507.0</ele><time>2026-05-02T12:24:57.814Z</time></trkpt><trkpt lat="46.1819961" lon="13.4604589"><ele>509.0</ele><time>2026-05-02T12:24:58.822Z</time></trkpt><trkpt lat="46.181899" lon="13.4603379"><ele>509.0</ele><time>2026-05-02T12:24:59.817Z</time></trkpt><trkpt lat="46.1818062" lon="13.4602358"><ele>509.0</ele><time>2026-05-02T12:25:00.824Z</time></trkpt><trkpt lat="46.1817137" lon="13.4601349"><ele>509.0</ele><time>2026-05-02T12:25:01.829Z</time></trkpt><trkpt lat="46.1816153" lon="13.4600532"><ele>509.0</ele><time>2026-05-02T12:25:02.815Z</time></trkpt><trkpt lat="46.1815251" lon="13.4599765"><ele>505.75</ele><time>2026-05-02T12:25:03.817Z</time></trkpt><trkpt lat="46.1814438" lon="13.4598995"><ele>502.5</ele><time>2026-05-02T12:25:04.816Z</time></trkpt><trkpt lat="46.1813367" lon="13.4596592"><ele>499.25</ele><time>2026-05-02T12:25:06.834Z</time></trkpt><trkpt lat="46.1813239" lon="13.4595155"><ele>496.0</ele><time>2026-05-02T12:25:07.82Z</time></trkpt><trkpt lat="46.1813077" lon="13.4593852"><ele>496.0</ele><time>2026-05-02T12:25:08.821Z</time></trkpt><trkpt lat="46.1812566" lon="13.4592666"><ele>496.0</ele><time>2026-05-02T12:25:09.814Z</time></trkpt><trkpt lat="46.1811954" lon="13.4591551"><ele>496.0</ele><time>2026-05-02T12:25:10.82Z</time></trkpt><trkpt lat="46.1811226" lon="13.4590332"><ele>496.0</ele><time>2026-05-02T12:25:11.817Z</time></trkpt><trkpt lat="46.1810669" lon="13.4588906"><ele>496.0</ele><time>2026-05-02T12:25:12.82Z</time></trkpt><trkpt lat="46.1810128" lon="13.4587437"><ele>498.20000000000005</ele><time>2026-05-02T12:25:13.826Z</time></trkpt><trkpt lat="46.1809688" lon="13.4585853"><ele>500.40000000000003</ele><time>2026-05-02T12:25:14.825Z</time></trkpt><trkpt lat="46.1809406" lon="13.4584267"><ele>502.6</ele><time>2026-05-02T12:25:15.822Z</time></trkpt><trkpt lat="46.1809134" lon="13.4582757"><ele>504.8</ele><time>2026-05-02T12:25:16.822Z</time></trkpt><trkpt lat="46.1808761" lon="13.4581355"><ele>507.0</ele><time>2026-05-02T12:25:17.833Z</time></trkpt><trkpt lat="46.180836" lon="13.4579994"><ele>506.6</ele><time>2026-05-02T12:25:18.822Z</time></trkpt><trkpt lat="46.1807984" lon="13.4578837"><ele>506.20000000000005</ele><time>2026-05-02T12:25:19.818Z</time></trkpt><trkpt lat="46.1807514" lon="13.4577743"><ele>505.8</ele><time>2026-05-02T12:25:20.812Z</time></trkpt><trkpt lat="46.1807019" lon="13.4576728"><ele>505.4</ele><time>2026-05-02T12:25:21.823Z</time></trkpt><trkpt lat="46.1806294" lon="13.4575707"><ele>505.0</ele><time>2026-05-02T12:25:22.829Z</time></trkpt><trkpt lat="46.1805601" lon="13.4574687"><ele>505.0</ele><time>2026-05-02T12:25:23.817Z</time></trkpt><trkpt lat="46.1804869" lon="13.4573761"><ele>505.0</ele><time>2026-05-02T12:25:24.83Z</time></trkpt><trkpt lat="46.1804204" lon="13.4572856"><ele>505.0</ele><time>2026-05-02T12:25:25.815Z</time></trkpt><trkpt lat="46.1803182" lon="13.4570543"><ele>505.0</ele><time>2026-05-02T12:25:27.817Z</time></trkpt><trkpt lat="46.1802703" lon="13.456923"><ele>508.8</ele><time>2026-05-02T12:25:28.83Z</time></trkpt><trkpt lat="46.1802203" lon="13.4568101"><ele>512.6</ele><time>2026-05-02T12:25:29.82Z</time></trkpt><trkpt lat="46.180155" lon="13.4566837"><ele>516.4</ele><time>2026-05-02T12:25:30.814Z</time></trkpt><trkpt lat="46.180092" lon="13.4565565"><ele>520.2</ele><time>2026-05-02T12:25:31.813Z</time></trkpt><trkpt lat="46.1800387" lon="13.4564432"><ele>524.0</ele><time>2026-05-02T12:25:32.826Z</time></trkpt><trkpt lat="46.1800011" lon="13.4563327"><ele>527.0</ele><time>2026-05-02T12:25:33.817Z</time></trkpt><trkpt lat="46.1799751" lon="13.4562121"><ele>530.0</ele><time>2026-05-02T12:25:34.821Z</time></trkpt><trkpt lat="46.1799556" lon="13.4560722"><ele>533.0</ele><time>2026-05-02T12:25:35.816Z</time></trkpt><trkpt lat="46.1799387" lon="13.4559296"><ele>536.0</ele><time>2026-05-02T12:25:36.82Z</time></trkpt><trkpt lat="46.1799234" lon="13.4557998"><ele>539.0</ele><time>2026-05-02T12:25:37.816Z</time></trkpt><trkpt lat="46.1799068" lon="13.4556805"><ele>539.0</ele><time>2026-05-02T12:25:38.817Z</time></trkpt><trkpt lat="46.179902" lon="13.4555701"><ele>539.0</ele><time>2026-05-02T12:25:39.819Z</time></trkpt><trkpt lat="46.1799402" lon="13.4554752"><ele>539.0</ele><time>2026-05-02T12:25:40.831Z</time></trkpt><trkpt lat="46.1799841" lon="13.455373"><ele>539.0</ele><time>2026-05-02T12:25:41.824Z</time></trkpt><trkpt lat="46.1799961" lon="13.4552643"><ele>539.0</ele><time>2026-05-02T12:25:42.824Z</time></trkpt><trkpt lat="46.1799692" lon="13.4551664"><ele>539.0</ele><time>2026-05-02T12:25:43.823Z</time></trkpt><trkpt lat="46.1799181" lon="13.4551004"><ele>540.6</ele><time>2026-05-02T12:25:44.82Z</time></trkpt><trkpt lat="46.1798532" lon="13.4550712"><ele>542.2</ele><time>2026-05-02T12:25:45.816Z</time></trkpt><trkpt lat="46.1797698" lon="13.4550614"><ele>543.8000000000001</ele><time>2026-05-02T12:25:46.812Z</time></trkpt><trkpt lat="46.1795744" lon="13.4550673"><ele>545.4</ele><time>2026-05-02T12:25:48.817Z</time></trkpt><trkpt lat="46.1795117" lon="13.4550363"><ele>547.0</ele><time>2026-05-02T12:25:49.816Z</time></trkpt><trkpt lat="46.1794099" lon="13.4549615"><ele>543.4</ele><time>2026-05-02T12:25:51.819Z</time></trkpt><trkpt lat="46.1793815" lon="13.4548496"><ele>539.8000000000001</ele><time>2026-05-02T12:25:52.817Z</time></trkpt><trkpt lat="46.1793761" lon="13.4547072"><ele>536.2</ele><time>2026-05-02T12:25:53.815Z</time></trkpt><trkpt lat="46.1793875" lon="13.4545626"><ele>532.6</ele><time>2026-05-02T12:25:54.827Z</time></trkpt><trkpt lat="46.1793956" lon="13.4544063"><ele>529.0</ele><time>2026-05-02T12:25:55.82Z</time></trkpt><trkpt lat="46.1794061" lon="13.4542496"><ele>529.0</ele><time>2026-05-02T12:25:56.815Z</time></trkpt><trkpt lat="46.1794186" lon="13.4540983"><ele>529.0</ele><time>2026-05-02T12:25:57.823Z</time></trkpt><trkpt lat="46.1794216" lon="13.4539359"><ele>529.0</ele><time>2026-05-02T12:25:58.823Z</time></trkpt><trkpt lat="46.1794132" lon="13.4537882"><ele>529.0</ele><time>2026-05-02T12:25:59.817Z</time></trkpt><trkpt lat="46.1793863" lon="13.4536472"><ele>529.0</ele><time>2026-05-02T12:26:00.823Z</time></trkpt><trkpt lat="46.179346" lon="13.4534982"><ele>532.75</ele><time>2026-05-02T12:26:01.816Z</time></trkpt><trkpt lat="46.1792804" lon="13.4533542"><ele>536.5</ele><time>2026-05-02T12:26:02.819Z</time></trkpt><trkpt lat="46.1792204" lon="13.4532283"><ele>540.25</ele><time>2026-05-02T12:26:03.817Z</time></trkpt><trkpt lat="46.1791599" lon="13.453091"><ele>544.0</ele><time>2026-05-02T12:26:04.826Z</time></trkpt><trkpt lat="46.1791115" lon="13.4529306"><ele>540.5</ele><time>2026-05-02T12:26:05.822Z</time></trkpt><trkpt lat="46.1790753" lon="13.4527526"><ele>537.0</ele><time>2026-05-02T12:26:06.819Z</time></trkpt><trkpt lat="46.1790568" lon="13.4525717"><ele>533.5</ele><time>2026-05-02T12:26:07.822Z</time></trkpt><trkpt lat="46.1790308" lon="13.4523969"><ele>530.0</ele><time>2026-05-02T12:26:08.82Z</time></trkpt><trkpt lat="46.1789476" lon="13.4521174"><ele>530.0</ele><time>2026-05-02T12:26:10.814Z</time></trkpt><trkpt lat="46.1788994" lon="13.4520139"><ele>530.0</ele><time>2026-05-02T12:26:11.822Z</time></trkpt><trkpt lat="46.1788701" lon="13.4519106"><ele>530.0</ele><time>2026-05-02T12:26:12.813Z</time></trkpt><trkpt lat="46.1789377" lon="13.4520365"><ele>530.0</ele><time>2026-05-02T12:26:16.829Z</time></trkpt><trkpt lat="46.1790039" lon="13.4521799"><ele>530.0</ele><time>2026-05-02T12:26:17.821Z</time></trkpt><trkpt lat="46.1790684" lon="13.4523128"><ele>539.6666666666666</ele><time>2026-05-02T12:26:18.82Z</time></trkpt><trkpt lat="46.1791401" lon="13.4524658"><ele>549.3333333333334</ele><time>2026-05-02T12:26:19.824Z</time></trkpt><trkpt lat="46.1792574" lon="13.4526585"><ele>559.0</ele><time>2026-05-02T12:26:20.816Z</time></trkpt><trkpt lat="46.1793739" lon="13.4528763"><ele>554.0</ele><time>2026-05-02T12:26:21.827Z</time></trkpt><trkpt lat="46.1794889" lon="13.4530975"><ele>549.0</ele><time>2026-05-02T12:26:22.815Z</time></trkpt><trkpt lat="46.1796081" lon="13.4533125"><ele>544.0</ele><time>2026-05-02T12:26:23.819Z</time></trkpt><trkpt lat="46.1797552" lon="13.4534825"><ele>546.75</ele><time>2026-05-02T12:26:24.813Z</time></trkpt><trkpt lat="46.1798733" lon="13.453622"><ele>549.5</ele><time>2026-05-02T12:26:25.818Z</time></trkpt><trkpt lat="46.1799741" lon="13.4537805"><ele>552.25</ele><time>2026-05-02T12:26:26.823Z</time></trkpt><trkpt lat="46.1800426" lon="13.45396"><ele>555.0</ele><time>2026-05-02T12:26:27.815Z</time></trkpt><trkpt lat="46.1800797" lon="13.4541028"><ele>555.0</ele><time>2026-05-02T12:26:28.829Z</time></trkpt><trkpt lat="46.1801314" lon="13.4541891"><ele>555.0</ele><time>2026-05-02T12:26:30.817Z</time></trkpt><trkpt lat="46.1801178" lon="13.453911"><ele>555.0</ele><time>2026-05-02T12:26:33.816Z</time></trkpt><trkpt lat="46.1800645" lon="13.4537712"><ele>555.0</ele><time>2026-05-02T12:26:34.809Z</time></trkpt><trkpt lat="46.1800153" lon="13.4536101"><ele>556.0</ele><time>2026-05-02T12:26:35.815Z</time></trkpt><trkpt lat="46.1799633" lon="13.4534231"><ele>557.0</ele><time>2026-05-02T12:26:36.816Z</time></trkpt><trkpt lat="46.179911" lon="13.4532276"><ele>558.0</ele><time>2026-05-02T12:26:37.81Z</time></trkpt><trkpt lat="46.1798612" lon="13.4530375"><ele>559.0</ele><time>2026-05-02T12:26:38.827Z</time></trkpt><trkpt lat="46.1797944" lon="13.4528477"><ele>559.0</ele><time>2026-05-02T12:26:39.819Z</time></trkpt><trkpt lat="46.1797303" lon="13.452645"><ele>559.0</ele><time>2026-05-02T12:26:40.81Z</time></trkpt><trkpt lat="46.1796624" lon="13.4524363"><ele>559.0</ele><time>2026-05-02T12:26:41.817Z</time></trkpt><trkpt lat="46.1796261" lon="13.4522729"><ele>559.0</ele><time>2026-05-02T12:26:42.815Z</time></trkpt><trkpt lat="46.179628" lon="13.4520739"><ele>560.6</ele><time>2026-05-02T12:26:43.812Z</time></trkpt><trkpt lat="46.1796441" lon="13.4518831"><ele>562.2</ele><time>2026-05-02T12:26:44.813Z</time></trkpt><trkpt lat="46.1796723" lon="13.4517374"><ele>563.8000000000001</ele><time>2026-05-02T12:26:45.811Z</time></trkpt><trkpt lat="46.1797121" lon="13.4516155"><ele>565.4</ele><time>2026-05-02T12:26:46.811Z</time></trkpt><trkpt lat="46.1797332" lon="13.4515092"><ele>567.0</ele><time>2026-05-02T12:26:47.81Z</time></trkpt><trkpt lat="46.1797209" lon="13.4514049"><ele>567.0</ele><time>2026-05-02T12:27:05.812Z</time></trkpt><trkpt lat="46.1797281" lon="13.4511961"><ele>567.0</ele><time>2026-05-02T12:27:09.815Z</time></trkpt><trkpt lat="46.179707" lon="13.4510917"><ele>567.0</ele><time>2026-05-02T12:27:11.819Z</time></trkpt><trkpt lat="46.1796116" lon="13.4509175"><ele>567.0</ele><time>2026-05-02T12:27:13.818Z</time></trkpt><trkpt lat="46.1795629" lon="13.4508227"><ele>567.0</ele><time>2026-05-02T12:27:14.824Z</time></trkpt><trkpt lat="46.1795046" lon="13.4506886"><ele>567.0</ele><time>2026-05-02T12:27:16.815Z</time></trkpt><trkpt lat="46.1794627" lon="13.4506205"><ele>567.0</ele><time>2026-05-02T12:27:17.811Z</time></trkpt><trkpt lat="46.179392" lon="13.4505286"><ele>567.0</ele><time>2026-05-02T12:27:19.817Z</time></trkpt><trkpt lat="46.1793354" lon="13.450373"><ele>567.0</ele><time>2026-05-02T12:27:21.817Z</time></trkpt><trkpt lat="46.1793223" lon="13.4502714"><ele>569.8000000000001</ele><time>2026-05-02T12:27:22.823Z</time></trkpt><trkpt lat="46.1793175" lon="13.4501693"><ele>572.6</ele><time>2026-05-02T12:27:23.817Z</time></trkpt><trkpt lat="46.1793229" lon="13.4500701"><ele>575.4000000000001</ele><time>2026-05-02T12:27:24.815Z</time></trkpt><trkpt lat="46.1793257" lon="13.4499756"><ele>578.2</ele><time>2026-05-02T12:27:25.825Z</time></trkpt><trkpt lat="46.1793397" lon="13.4498066"><ele>581.0</ele><time>2026-05-02T12:27:27.818Z</time></trkpt><trkpt lat="46.179279" lon="13.4494735"><ele>584.4</ele><time>2026-05-02T12:27:31.823Z</time></trkpt><trkpt lat="46.1792249" lon="13.4493322"><ele>587.8</ele><time>2026-05-02T12:27:33.825Z</time></trkpt><trkpt lat="46.1791869" lon="13.4491917"><ele>591.1999999999999</ele><time>2026-05-02T12:27:35.83Z</time></trkpt><trkpt lat="46.1791198" lon="13.449099"><ele>594.6</ele><time>2026-05-02T12:27:37.821Z</time></trkpt><trkpt lat="46.1790301" lon="13.4490983"><ele>598.0</ele><time>2026-05-02T12:27:39.824Z</time></trkpt><trkpt lat="46.1789356" lon="13.4491882"><ele>598.5</ele><time>2026-05-02T12:27:41.811Z</time></trkpt><trkpt lat="46.1788827" lon="13.449313"><ele>599.0</ele><time>2026-05-02T12:27:43.81Z</time></trkpt><trkpt lat="46.1788703" lon="13.4494426"><ele>599.5</ele><time>2026-05-02T12:27:45.818Z</time></trkpt><trkpt lat="46.1788524" lon="13.4495351"><ele>600.0</ele><time>2026-05-02T12:27:46.812Z</time></trkpt><trkpt lat="46.1788247" lon="13.4496282"><ele>600.5</ele><time>2026-05-02T12:27:47.815Z</time></trkpt><trkpt lat="46.1787971" lon="13.4497127"><ele>601.0</ele><time>2026-05-02T12:27:48.81Z</time></trkpt><trkpt lat="46.1787325" lon="13.4498874"><ele>598.1666666666667</ele><time>2026-05-02T12:27:50.818Z</time></trkpt><trkpt lat="46.1786938" lon="13.4499696"><ele>595.3333333333334</ele><time>2026-05-02T12:27:51.811Z</time></trkpt><trkpt lat="46.1786485" lon="13.4500395"><ele>592.5</ele><time>2026-05-02T12:27:52.817Z</time></trkpt><trkpt lat="46.1785594" lon="13.4501175"><ele>589.6666666666666</ele><time>2026-05-02T12:27:54.815Z</time></trkpt><trkpt lat="46.178499" lon="13.4500753"><ele>586.8333333333333</ele><time>2026-05-02T12:27:55.823Z</time></trkpt><trkpt lat="46.1784087" lon="13.4500197"><ele>584.0</ele><time>2026-05-02T12:27:56.808Z</time></trkpt><trkpt lat="46.1783181" lon="13.4499454"><ele>584.0</ele><time>2026-05-02T12:27:57.813Z</time></trkpt><trkpt lat="46.1782458" lon="13.4498891"><ele>584.0</ele><time>2026-05-02T12:27:58.821Z</time></trkpt><trkpt lat="46.1781651" lon="13.4497794"><ele>584.0</ele><time>2026-05-02T12:28:00.817Z</time></trkpt><trkpt lat="46.178114" lon="13.4496885"><ele>584.0</ele><time>2026-05-02T12:28:02.815Z</time></trkpt><trkpt lat="46.1780689" lon="13.4495472"><ele>584.0</ele><time>2026-05-02T12:28:04.818Z</time></trkpt><trkpt lat="46.178057" lon="13.4494495"><ele>589.0</ele><time>2026-05-02T12:28:05.814Z</time></trkpt><trkpt lat="46.1780758" lon="13.4492898"><ele>594.0</ele><time>2026-05-02T12:28:07.809Z</time></trkpt><trkpt lat="46.1781016" lon="13.4492003"><ele>599.0</ele><time>2026-05-02T12:28:08.823Z</time></trkpt><trkpt lat="46.178144" lon="13.4490364"><ele>604.0</ele><time>2026-05-02T12:28:10.819Z</time></trkpt><trkpt lat="46.1781524" lon="13.4488498"><ele>609.0</ele><time>2026-05-02T12:28:12.812Z</time></trkpt><trkpt lat="46.1781376" lon="13.4487558"><ele>609.0</ele><time>2026-05-02T12:28:13.812Z</time></trkpt><trkpt lat="46.1780979" lon="13.4485996"><ele>609.0</ele><time>2026-05-02T12:28:15.82Z</time></trkpt><trkpt lat="46.1780378" lon="13.4485198"><ele>609.0</ele><time>2026-05-02T12:28:17.817Z</time></trkpt><trkpt lat="46.1779752" lon="13.4485091"><ele>609.0</ele><time>2026-05-02T12:28:20.818Z</time></trkpt><trkpt lat="46.1779304" lon="13.4485792"><ele>609.0</ele><time>2026-05-02T12:28:22.824Z</time></trkpt><trkpt lat="46.1778974" lon="13.4487064"><ele>609.0</ele><time>2026-05-02T12:28:24.814Z</time></trkpt><trkpt lat="46.1778583" lon="13.4488708"><ele>609.0</ele><time>2026-05-02T12:28:26.817Z</time></trkpt><trkpt lat="46.1778232" lon="13.4490161"><ele>609.0</ele><time>2026-05-02T12:28:28.817Z</time></trkpt><trkpt lat="46.1777493" lon="13.449152"><ele>609.0</ele><time>2026-05-02T12:28:30.821Z</time></trkpt><trkpt lat="46.1777025" lon="13.4492292"><ele>609.0</ele><time>2026-05-02T12:28:31.818Z</time></trkpt><trkpt lat="46.177597" lon="13.4493831"><ele>609.0</ele><time>2026-05-02T12:28:33.813Z</time></trkpt><trkpt lat="46.1775428" lon="13.4494546"><ele>609.0</ele><time>2026-05-02T12:28:34.814Z</time></trkpt><trkpt lat="46.1774859" lon="13.4495244"><ele>609.0</ele><time>2026-05-02T12:28:35.821Z</time></trkpt><trkpt lat="46.1774278" lon="13.4495819"><ele>609.0</ele><time>2026-05-02T12:28:36.829Z</time></trkpt><trkpt lat="46.1773593" lon="13.4496219"><ele>609.0</ele><time>2026-05-02T12:28:37.814Z</time></trkpt><trkpt lat="46.1772898" lon="13.4496515"><ele>609.0</ele><time>2026-05-02T12:28:38.813Z</time></trkpt><trkpt lat="46.1772203" lon="13.4496687"><ele>609.0</ele><time>2026-05-02T12:28:39.81Z</time></trkpt><trkpt lat="46.1771576" lon="13.4496937"><ele>609.0</ele><time>2026-05-02T12:28:40.823Z</time></trkpt><trkpt lat="46.1770705" lon="13.449769"><ele>612.2</ele><time>2026-05-02T12:28:42.825Z</time></trkpt><trkpt lat="46.1770067" lon="13.4498543"><ele>615.4</ele><time>2026-05-02T12:28:44.815Z</time></trkpt><trkpt lat="46.1770216" lon="13.4499697"><ele>618.6</ele><time>2026-05-02T12:28:46.82Z</time></trkpt><trkpt lat="46.1770289" lon="13.450128"><ele>621.8</ele><time>2026-05-02T12:28:48.817Z</time></trkpt><trkpt lat="46.1770173" lon="13.4502678"><ele>625.0</ele><time>2026-05-02T12:28:50.816Z</time></trkpt><trkpt lat="46.1769813" lon="13.4504477"><ele>622.0</ele><time>2026-05-02T12:28:52.833Z</time></trkpt><trkpt lat="46.1769311" lon="13.4506377"><ele>619.0</ele><time>2026-05-02T12:28:54.821Z</time></trkpt><trkpt lat="46.1769013" lon="13.4507468"><ele>616.0</ele><time>2026-05-02T12:28:55.812Z</time></trkpt><trkpt lat="46.1768639" lon="13.4508543"><ele>613.0</ele><time>2026-05-02T12:28:56.811Z</time></trkpt><trkpt lat="46.176827" lon="13.4509529"><ele>610.0</ele><time>2026-05-02T12:28:57.817Z</time></trkpt><trkpt lat="46.1767907" lon="13.4510458"><ele>610.0</ele><time>2026-05-02T12:28:58.81Z</time></trkpt><trkpt lat="46.1767304" lon="13.451205"><ele>610.0</ele><time>2026-05-02T12:29:00.817Z</time></trkpt><trkpt lat="46.1767087" lon="13.4513043"><ele>610.0</ele><time>2026-05-02T12:29:01.821Z</time></trkpt><trkpt lat="46.1766768" lon="13.4513926"><ele>610.0</ele><time>2026-05-02T12:29:02.816Z</time></trkpt><trkpt lat="46.1766549" lon="13.4515617"><ele>610.0</ele><time>2026-05-02T12:29:04.82Z</time></trkpt><trkpt lat="46.1766058" lon="13.4517282"><ele>608.2</ele><time>2026-05-02T12:29:06.827Z</time></trkpt><trkpt lat="46.176533" lon="13.4518604"><ele>606.4</ele><time>2026-05-02T12:29:08.831Z</time></trkpt><trkpt lat="46.1764326" lon="13.4519802"><ele>604.6</ele><time>2026-05-02T12:29:10.818Z</time></trkpt><trkpt lat="46.176366" lon="13.4520266"><ele>602.8</ele><time>2026-05-02T12:29:11.829Z</time></trkpt><trkpt lat="46.1762911" lon="13.4520621"><ele>601.0</ele><time>2026-05-02T12:29:12.813Z</time></trkpt><trkpt lat="46.1762186" lon="13.4520931"><ele>595.4</ele><time>2026-05-02T12:29:13.815Z</time></trkpt><trkpt lat="46.1761042" lon="13.4521924"><ele>589.8</ele><time>2026-05-02T12:29:15.815Z</time></trkpt><trkpt lat="46.176049" lon="13.4522373"><ele>584.1999999999999</ele><time>2026-05-02T12:29:16.826Z</time></trkpt><trkpt lat="46.1759622" lon="13.4522887"><ele>578.6</ele><time>2026-05-02T12:29:18.814Z</time></trkpt><trkpt lat="46.1758522" lon="13.4522577"><ele>573.0</ele><time>2026-05-02T12:29:20.822Z</time></trkpt><trkpt lat="46.175784" lon="13.4522263"><ele>573.0</ele><time>2026-05-02T12:29:21.822Z</time></trkpt><trkpt lat="46.17571" lon="13.4522104"><ele>573.0</ele><time>2026-05-02T12:29:22.819Z</time></trkpt><trkpt lat="46.1756402" lon="13.4521933"><ele>573.0</ele><time>2026-05-02T12:29:23.813Z</time></trkpt><trkpt lat="46.1755641" lon="13.4521715"><ele>573.0</ele><time>2026-05-02T12:29:24.823Z</time></trkpt><trkpt lat="46.175496" lon="13.4521477"><ele>573.0</ele><time>2026-05-02T12:29:25.817Z</time></trkpt><trkpt lat="46.1754332" lon="13.452127"><ele>573.0</ele><time>2026-05-02T12:29:26.815Z</time></trkpt><trkpt lat="46.175311" lon="13.452068"><ele>579.8</ele><time>2026-05-02T12:29:28.829Z</time></trkpt><trkpt lat="46.1752518" lon="13.452031"><ele>586.5999999999999</ele><time>2026-05-02T12:29:29.813Z</time></trkpt><trkpt lat="46.1751537" lon="13.4520132"><ele>593.4000000000001</ele><time>2026-05-02T12:29:31.814Z</time></trkpt><trkpt lat="46.1750762" lon="13.4520148"><ele>600.2</ele><time>2026-05-02T12:29:33.821Z</time></trkpt><trkpt lat="46.175025" lon="13.452105"><ele>607.0</ele><time>2026-05-02T12:29:35.821Z</time></trkpt><trkpt lat="46.1750812" lon="13.4523759"><ele>607.4</ele><time>2026-05-02T12:29:39.813Z</time></trkpt><trkpt lat="46.1751154" lon="13.4525304"><ele>607.8000000000001</ele><time>2026-05-02T12:29:41.821Z</time></trkpt><trkpt lat="46.1751841" lon="13.4527003"><ele>608.2</ele><time>2026-05-02T12:29:43.825Z</time></trkpt><trkpt lat="46.1752234" lon="13.4528118"><ele>608.6</ele><time>2026-05-02T12:29:44.816Z</time></trkpt><trkpt lat="46.1752512" lon="13.4529202"><ele>609.0</ele><time>2026-05-02T12:29:45.822Z</time></trkpt><trkpt lat="46.1752847" lon="13.4530231"><ele>607.2</ele><time>2026-05-02T12:29:46.826Z</time></trkpt><trkpt lat="46.1753247" lon="13.4531263"><ele>605.4</ele><time>2026-05-02T12:29:47.812Z</time></trkpt><trkpt lat="46.1753608" lon="13.4532365"><ele>603.6</ele><time>2026-05-02T12:29:48.812Z</time></trkpt><trkpt lat="46.1753885" lon="13.4533491"><ele>601.8</ele><time>2026-05-02T12:29:49.815Z</time></trkpt><trkpt lat="46.1754204" lon="13.4534526"><ele>600.0</ele><time>2026-05-02T12:29:50.816Z</time></trkpt><trkpt lat="46.175508" lon="13.4536559"><ele>600.0</ele><time>2026-05-02T12:29:52.82Z</time></trkpt><trkpt lat="46.1755396" lon="13.4537477"><ele>600.0</ele><time>2026-05-02T12:29:53.817Z</time></trkpt><trkpt lat="46.1755739" lon="13.4538549"><ele>600.0</ele><time>2026-05-02T12:29:54.815Z</time></trkpt><trkpt lat="46.1756112" lon="13.4539553"><ele>600.0</ele><time>2026-05-02T12:29:55.815Z</time></trkpt><trkpt lat="46.1756434" lon="13.4540548"><ele>600.0</ele><time>2026-05-02T12:29:56.817Z</time></trkpt><trkpt lat="46.1757069" lon="13.4542514"><ele>596.3333333333334</ele><time>2026-05-02T12:29:58.82Z</time></trkpt><trkpt lat="46.1757398" lon="13.4543536"><ele>592.6666666666666</ele><time>2026-05-02T12:29:59.814Z</time></trkpt><trkpt lat="46.1757838" lon="13.4544432"><ele>589.0</ele><time>2026-05-02T12:30:00.807Z</time></trkpt><trkpt lat="46.1758399" lon="13.4545921"><ele>585.3333333333333</ele><time>2026-05-02T12:30:02.816Z</time></trkpt><trkpt lat="46.1758475" lon="13.4547128"><ele>581.6666666666666</ele><time>2026-05-02T12:30:04.814Z</time></trkpt><trkpt lat="46.1758196" lon="13.4548255"><ele>578.0</ele><time>2026-05-02T12:30:06.815Z</time></trkpt><trkpt lat="46.1757834" lon="13.4549186"><ele>577.0</ele><time>2026-05-02T12:30:08.809Z</time></trkpt><trkpt lat="46.1757074" lon="13.45498"><ele>576.0</ele><time>2026-05-02T12:30:10.823Z</time></trkpt><trkpt lat="46.1755841" lon="13.4550077"><ele>575.0</ele><time>2026-05-02T12:30:12.81Z</time></trkpt><trkpt lat="46.1755165" lon="13.4550266"><ele>574.0</ele><time>2026-05-02T12:30:13.814Z</time></trkpt><trkpt lat="46.1754536" lon="13.4550423"><ele>573.0</ele><time>2026-05-02T12:30:14.819Z</time></trkpt><trkpt lat="46.1753756" lon="13.4550535"><ele>572.0</ele><time>2026-05-02T12:30:15.814Z</time></trkpt><trkpt lat="46.1752932" lon="13.4550709"><ele>575.8000000000001</ele><time>2026-05-02T12:30:16.818Z</time></trkpt><trkpt lat="46.1752234" lon="13.4551042"><ele>579.6</ele><time>2026-05-02T12:30:17.824Z</time></trkpt><trkpt lat="46.1750646" lon="13.4551431"><ele>583.4000000000001</ele><time>2026-05-02T12:30:19.815Z</time></trkpt><trkpt lat="46.1749744" lon="13.4551612"><ele>587.2</ele><time>2026-05-02T12:30:20.829Z</time></trkpt><trkpt lat="46.1748872" lon="13.455193"><ele>591.0</ele><time>2026-05-02T12:30:21.813Z</time></trkpt><trkpt lat="46.1748108" lon="13.4551995"><ele>596.8</ele><time>2026-05-02T12:30:22.822Z</time></trkpt><trkpt lat="46.174747" lon="13.4551762"><ele>602.6</ele><time>2026-05-02T12:30:23.818Z</time></trkpt><trkpt lat="46.1746357" lon="13.45512"><ele>608.4</ele><time>2026-05-02T12:30:25.824Z</time></trkpt><trkpt lat="46.1745275" lon="13.4551003"><ele>614.2</ele><time>2026-05-02T12:30:27.817Z</time></trkpt><trkpt lat="46.1744336" lon="13.4551498"><ele>620.0</ele><time>2026-05-02T12:30:29.816Z</time></trkpt><trkpt lat="46.1743694" lon="13.4551915"><ele>620.0</ele><time>2026-05-02T12:30:30.815Z</time></trkpt><trkpt lat="46.1743071" lon="13.4552406"><ele>620.0</ele><time>2026-05-02T12:30:31.818Z</time></trkpt><trkpt lat="46.174221" lon="13.455336"><ele>620.0</ele><time>2026-05-02T12:30:33.816Z</time></trkpt><trkpt lat="46.1741966" lon="13.4554541"><ele>620.0</ele><time>2026-05-02T12:30:35.818Z</time></trkpt><trkpt lat="46.1742184" lon="13.4555569"><ele>620.0</ele><time>2026-05-02T12:30:36.815Z</time></trkpt><trkpt lat="46.1742234" lon="13.4556715"><ele>620.0</ele><time>2026-05-02T12:30:37.832Z</time></trkpt><trkpt lat="46.1742318" lon="13.4557904"><ele>618.75</ele><time>2026-05-02T12:30:38.813Z</time></trkpt><trkpt lat="46.1742977" lon="13.4560157"><ele>617.5</ele><time>2026-05-02T12:30:40.815Z</time></trkpt><trkpt lat="46.1743292" lon="13.4560997"><ele>616.25</ele><time>2026-05-02T12:30:41.816Z</time></trkpt><trkpt lat="46.174402" lon="13.4562561"><ele>615.0</ele><time>2026-05-02T12:30:43.813Z</time></trkpt><trkpt lat="46.1744847" lon="13.4564089"><ele>616.6666666666666</ele><time>2026-05-02T12:30:45.81Z</time></trkpt><trkpt lat="46.1745271" lon="13.4564872"><ele>618.3333333333334</ele><time>2026-05-02T12:30:46.824Z</time></trkpt><trkpt lat="46.1745684" lon="13.4565821"><ele>620.0</ele><time>2026-05-02T12:30:47.817Z</time></trkpt><trkpt lat="46.1746087" lon="13.4566787"><ele>621.6666666666667</ele><time>2026-05-02T12:30:48.823Z</time></trkpt><trkpt lat="46.1746521" lon="13.4567757"><ele>623.3333333333334</ele><time>2026-05-02T12:30:49.824Z</time></trkpt><trkpt lat="46.1746979" lon="13.4568706"><ele>625.0</ele><time>2026-05-02T12:30:50.813Z</time></trkpt><trkpt lat="46.174726" lon="13.4569832"><ele>625.0</ele><time>2026-05-02T12:30:51.816Z</time></trkpt><trkpt lat="46.1747582" lon="13.457094"><ele>625.0</ele><time>2026-05-02T12:30:52.815Z</time></trkpt><trkpt lat="46.1747927" lon="13.4572139"><ele>625.0</ele><time>2026-05-02T12:30:53.806Z</time></trkpt><trkpt lat="46.1748232" lon="13.4573329"><ele>625.0</ele><time>2026-05-02T12:30:54.816Z</time></trkpt><trkpt lat="46.1748498" lon="13.45745"><ele>625.0</ele><time>2026-05-02T12:30:55.815Z</time></trkpt><trkpt lat="46.1748709" lon="13.4575727"><ele>625.0</ele><time>2026-05-02T12:30:56.816Z</time></trkpt><trkpt lat="46.1749013" lon="13.4576804"><ele>622.0</ele><time>2026-05-02T12:30:57.82Z</time></trkpt><trkpt lat="46.1749415" lon="13.4578"><ele>619.0</ele><time>2026-05-02T12:30:58.814Z</time></trkpt><trkpt lat="46.17497" lon="13.457929"><ele>616.0</ele><time>2026-05-02T12:30:59.812Z</time></trkpt><trkpt lat="46.174997" lon="13.4581676"><ele>613.0</ele><time>2026-05-02T12:31:01.813Z</time></trkpt><trkpt lat="46.1750048" lon="13.4582896"><ele>610.0</ele><time>2026-05-02T12:31:02.814Z</time></trkpt><trkpt lat="46.1750144" lon="13.4584072"><ele>610.0</ele><time>2026-05-02T12:31:03.825Z</time></trkpt><trkpt lat="46.1750198" lon="13.4585312"><ele>610.0</ele><time>2026-05-02T12:31:04.831Z</time></trkpt><trkpt lat="46.1750192" lon="13.4586685"><ele>610.0</ele><time>2026-05-02T12:31:05.812Z</time></trkpt><trkpt lat="46.1750105" lon="13.4588213"><ele>610.0</ele><time>2026-05-02T12:31:06.811Z</time></trkpt><trkpt lat="46.1750111" lon="13.4589659"><ele>610.0</ele><time>2026-05-02T12:31:07.815Z</time></trkpt><trkpt lat="46.1750063" lon="13.4591194"><ele>610.0</ele><time>2026-05-02T12:31:08.816Z</time></trkpt><trkpt lat="46.1749826" lon="13.4592658"><ele>610.0</ele><time>2026-05-02T12:31:09.822Z</time></trkpt><trkpt lat="46.1749499" lon="13.4594115"><ele>610.0</ele><time>2026-05-02T12:31:10.832Z</time></trkpt><trkpt lat="46.1749252" lon="13.4595402"><ele>610.0</ele><time>2026-05-02T12:31:11.818Z</time></trkpt><trkpt lat="46.1749087" lon="13.4596556"><ele>610.0</ele><time>2026-05-02T12:31:12.824Z</time></trkpt><trkpt lat="46.1748935" lon="13.4597763"><ele>609.8333333333334</ele><time>2026-05-02T12:31:13.819Z</time></trkpt><trkpt lat="46.1748948" lon="13.4598901"><ele>609.6666666666667</ele><time>2026-05-02T12:31:14.82Z</time></trkpt><trkpt lat="46.1748927" lon="13.4600176"><ele>609.5</ele><time>2026-05-02T12:31:15.818Z</time></trkpt><trkpt lat="46.1749052" lon="13.460152"><ele>609.3333333333334</ele><time>2026-05-02T12:31:16.813Z</time></trkpt><trkpt lat="46.1749189" lon="13.4602773"><ele>609.1666666666666</ele><time>2026-05-02T12:31:17.814Z</time></trkpt><trkpt lat="46.1749312" lon="13.4603969"><ele>609.0</ele><time>2026-05-02T12:31:18.806Z</time></trkpt><trkpt lat="46.1749423" lon="13.4605051"><ele>607.8</ele><time>2026-05-02T12:31:19.815Z</time></trkpt><trkpt lat="46.1749486" lon="13.4606006"><ele>606.5999999999999</ele><time>2026-05-02T12:31:20.824Z</time></trkpt><trkpt lat="46.1747867" lon="13.4607314"><ele>605.4</ele><time>2026-05-02T12:31:24.815Z</time></trkpt><trkpt lat="46.1747242" lon="13.4607188"><ele>604.1999999999999</ele><time>2026-05-02T12:31:25.817Z</time></trkpt><trkpt lat="46.1746562" lon="13.4606966"><ele>603.0</ele><time>2026-05-02T12:31:26.81Z</time></trkpt><trkpt lat="46.1745931" lon="13.4606682"><ele>602.3333333333334</ele><time>2026-05-02T12:31:27.815Z</time></trkpt><trkpt lat="46.1745214" lon="13.4606552"><ele>601.6666666666666</ele><time>2026-05-02T12:31:28.812Z</time></trkpt><trkpt lat="46.1744383" lon="13.4606655"><ele>601.0</ele><time>2026-05-02T12:31:29.811Z</time></trkpt><trkpt lat="46.1743633" lon="13.4607045"><ele>600.3333333333333</ele><time>2026-05-02T12:31:30.813Z</time></trkpt><trkpt lat="46.1742856" lon="13.460741"><ele>599.6666666666666</ele><time>2026-05-02T12:31:31.811Z</time></trkpt><trkpt lat="46.1742166" lon="13.4607771"><ele>599.0</ele><time>2026-05-02T12:31:32.82Z</time></trkpt><trkpt lat="46.1741472" lon="13.4608045"><ele>599.0</ele><time>2026-05-02T12:31:33.806Z</time></trkpt><trkpt lat="46.1740858" lon="13.4608346"><ele>599.0</ele><time>2026-05-02T12:31:34.814Z</time></trkpt><trkpt lat="46.1739748" lon="13.460831"><ele>599.0</ele><time>2026-05-02T12:31:36.809Z</time></trkpt><trkpt lat="46.1738533" lon="13.4608461"><ele>599.0</ele><time>2026-05-02T12:31:38.824Z</time></trkpt><trkpt lat="46.17379" lon="13.4609003"><ele>599.0</ele><time>2026-05-02T12:31:39.811Z</time></trkpt><trkpt lat="46.1737358" lon="13.46095"><ele>599.0</ele><time>2026-05-02T12:31:40.821Z</time></trkpt><trkpt lat="46.1736532" lon="13.4610634"><ele>598.4</ele><time>2026-05-02T12:31:42.816Z</time></trkpt><trkpt lat="46.1735171" lon="13.4611483"><ele>597.8</ele><time>2026-05-02T12:31:45.81Z</time></trkpt><trkpt lat="46.1734493" lon="13.4611539"><ele>597.2</ele><time>2026-05-02T12:31:46.811Z</time></trkpt><trkpt lat="46.1733765" lon="13.4611592"><ele>596.6</ele><time>2026-05-02T12:31:47.823Z</time></trkpt><trkpt lat="46.173263" lon="13.4611534"><ele>596.0</ele><time>2026-05-02T12:31:49.817Z</time></trkpt><trkpt lat="46.1731616" lon="13.46111"><ele>596.0</ele><time>2026-05-02T12:31:51.813Z</time></trkpt><trkpt lat="46.1730537" lon="13.4609829"><ele>596.0</ele><time>2026-05-02T12:31:53.813Z</time></trkpt><trkpt lat="46.1730083" lon="13.4609173"><ele>596.0</ele><time>2026-05-02T12:31:54.823Z</time></trkpt><trkpt lat="46.1729563" lon="13.4608618"><ele>596.0</ele><time>2026-05-02T12:31:55.811Z</time></trkpt><trkpt lat="46.1728406" lon="13.4607965"><ele>596.0</ele><time>2026-05-02T12:31:57.821Z</time></trkpt><trkpt lat="46.1727357" lon="13.4607793"><ele>596.0</ele><time>2026-05-02T12:31:59.818Z</time></trkpt><trkpt lat="46.1726434" lon="13.4608938"><ele>596.0</ele><time>2026-05-02T12:32:01.809Z</time></trkpt><trkpt lat="46.1725923" lon="13.4609532"><ele>596.0</ele><time>2026-05-02T12:32:02.828Z</time></trkpt><trkpt lat="46.1725433" lon="13.4610319"><ele>596.0</ele><time>2026-05-02T12:32:03.813Z</time></trkpt><trkpt lat="46.1724399" lon="13.461205"><ele>596.0</ele><time>2026-05-02T12:32:05.812Z</time></trkpt><trkpt lat="46.1723824" lon="13.4613215"><ele>596.8</ele><time>2026-05-02T12:32:06.809Z</time></trkpt><trkpt lat="46.1723376" lon="13.4614267"><ele>597.6</ele><time>2026-05-02T12:32:07.823Z</time></trkpt><trkpt lat="46.1722962" lon="13.4615383"><ele>598.4</ele><time>2026-05-02T12:32:08.814Z</time></trkpt><trkpt lat="46.1722503" lon="13.4616648"><ele>599.2</ele><time>2026-05-02T12:32:09.815Z</time></trkpt><trkpt lat="46.1721963" lon="13.461789"><ele>600.0</ele><time>2026-05-02T12:32:10.825Z</time></trkpt><trkpt lat="46.1721339" lon="13.4619054"><ele>600.0</ele><time>2026-05-02T12:32:11.813Z</time></trkpt><trkpt lat="46.1720746" lon="13.4620096"><ele>600.0</ele><time>2026-05-02T12:32:12.808Z</time></trkpt><trkpt lat="46.1720131" lon="13.4621098"><ele>600.0</ele><time>2026-05-02T12:32:13.813Z</time></trkpt><trkpt lat="46.1719446" lon="13.4622205"><ele>600.0</ele><time>2026-05-02T12:32:14.816Z</time></trkpt><trkpt lat="46.1718637" lon="13.462325"><ele>600.0</ele><time>2026-05-02T12:32:15.814Z</time></trkpt><trkpt lat="46.1717673" lon="13.4624301"><ele>602.0</ele><time>2026-05-02T12:32:16.824Z</time></trkpt><trkpt lat="46.1716604" lon="13.4625205"><ele>604.0</ele><time>2026-05-02T12:32:17.815Z</time></trkpt><trkpt lat="46.1715582" lon="13.4626089"><ele>606.0</ele><time>2026-05-02T12:32:18.813Z</time></trkpt><trkpt lat="46.1714539" lon="13.4626918"><ele>608.0</ele><time>2026-05-02T12:32:19.816Z</time></trkpt><trkpt lat="46.1713506" lon="13.4627849"><ele>608.0</ele><time>2026-05-02T12:32:20.827Z</time></trkpt><trkpt lat="46.1712455" lon="13.4629036"><ele>608.0</ele><time>2026-05-02T12:32:21.817Z</time></trkpt><trkpt lat="46.1711341" lon="13.4629969"><ele>608.0</ele><time>2026-05-02T12:32:22.817Z</time></trkpt><trkpt lat="46.1710275" lon="13.4630915"><ele>608.0</ele><time>2026-05-02T12:32:23.813Z</time></trkpt><trkpt lat="46.170933" lon="13.4631873"><ele>611.0</ele><time>2026-05-02T12:32:24.827Z</time></trkpt><trkpt lat="46.1707482" lon="13.4633575"><ele>614.0</ele><time>2026-05-02T12:32:26.814Z</time></trkpt><trkpt lat="46.1706622" lon="13.4634401"><ele>617.0</ele><time>2026-05-02T12:32:27.817Z</time></trkpt><trkpt lat="46.1705923" lon="13.4635401"><ele>620.0</ele><time>2026-05-02T12:32:28.82Z</time></trkpt><trkpt lat="46.1705329" lon="13.4636478"><ele>620.0</ele><time>2026-05-02T12:32:29.814Z</time></trkpt><trkpt lat="46.1704731" lon="13.4637703"><ele>620.0</ele><time>2026-05-02T12:32:30.819Z</time></trkpt><trkpt lat="46.1704233" lon="13.4639077"><ele>620.0</ele><time>2026-05-02T12:32:31.815Z</time></trkpt><trkpt lat="46.1703828" lon="13.4640412"><ele>620.0</ele><time>2026-05-02T12:32:32.815Z</time></trkpt><trkpt lat="46.1703405" lon="13.4641759"><ele>620.0</ele><time>2026-05-02T12:32:33.819Z</time></trkpt><trkpt lat="46.1702727" lon="13.4642887"><ele>616.2</ele><time>2026-05-02T12:32:34.822Z</time></trkpt><trkpt lat="46.1702217" lon="13.4644105"><ele>612.4</ele><time>2026-05-02T12:32:35.818Z</time></trkpt><trkpt lat="46.1701728" lon="13.4645389"><ele>608.6</ele><time>2026-05-02T12:32:36.811Z</time></trkpt><trkpt lat="46.1701168" lon="13.464656"><ele>604.8</ele><time>2026-05-02T12:32:37.821Z</time></trkpt><trkpt lat="46.1700623" lon="13.4647633"><ele>601.0</ele><time>2026-05-02T12:32:38.824Z</time></trkpt><trkpt lat="46.1699987" lon="13.4648483"><ele>598.6666666666667</ele><time>2026-05-02T12:32:39.823Z</time></trkpt><trkpt lat="46.169938" lon="13.4649307"><ele>596.3333333333334</ele><time>2026-05-02T12:32:40.814Z</time></trkpt><trkpt lat="46.1698658" lon="13.4650062"><ele>594.0</ele><time>2026-05-02T12:32:41.821Z</time></trkpt><trkpt lat="46.1698072" lon="13.4650903"><ele>591.6666666666666</ele><time>2026-05-02T12:32:42.822Z</time></trkpt><trkpt lat="46.1697528" lon="13.4651608"><ele>589.3333333333333</ele><time>2026-05-02T12:32:43.825Z</time></trkpt><trkpt lat="46.1697047" lon="13.4652384"><ele>587.0</ele><time>2026-05-02T12:32:44.817Z</time></trkpt><trkpt lat="46.1696648" lon="13.465344"><ele>583.4</ele><time>2026-05-02T12:32:45.816Z</time></trkpt><trkpt lat="46.1696231" lon="13.4655494"><ele>579.8000000000001</ele><time>2026-05-02T12:32:47.815Z</time></trkpt><trkpt lat="46.1696113" lon="13.4656425"><ele>576.2</ele><time>2026-05-02T12:32:48.826Z</time></trkpt><trkpt lat="46.1695863" lon="13.4657385"><ele>572.6</ele><time>2026-05-02T12:32:49.811Z</time></trkpt><trkpt lat="46.1695042" lon="13.4658595"><ele>569.0</ele><time>2026-05-02T12:32:51.824Z</time></trkpt><trkpt lat="46.1694381" lon="13.4658921"><ele>569.0</ele><time>2026-05-02T12:32:52.816Z</time></trkpt><trkpt lat="46.1693362" lon="13.4659035"><ele>569.0</ele><time>2026-05-02T12:32:53.807Z</time></trkpt><trkpt lat="46.1692223" lon="13.4659094"><ele>569.0</ele><time>2026-05-02T12:32:54.815Z</time></trkpt><trkpt lat="46.1691018" lon="13.4659052"><ele>569.0</ele><time>2026-05-02T12:32:55.813Z</time></trkpt><trkpt lat="46.1689812" lon="13.465905"><ele>567.0</ele><time>2026-05-02T12:32:56.813Z</time></trkpt><trkpt lat="46.1688656" lon="13.4659051"><ele>565.0</ele><time>2026-05-02T12:32:57.813Z</time></trkpt><trkpt lat="46.1687575" lon="13.4659055"><ele>563.0</ele><time>2026-05-02T12:32:58.829Z</time></trkpt><trkpt lat="46.1686688" lon="13.4658959"><ele>561.0</ele><time>2026-05-02T12:32:59.816Z</time></trkpt><trkpt lat="46.1685805" lon="13.4658714"><ele>559.0</ele><time>2026-05-02T12:33:00.813Z</time></trkpt><trkpt lat="46.168493" lon="13.4658438"><ele>559.0</ele><time>2026-05-02T12:33:01.81Z</time></trkpt><trkpt lat="46.1684184" lon="13.465805"><ele>559.0</ele><time>2026-05-02T12:33:02.815Z</time></trkpt><trkpt lat="46.1683521" lon="13.4657668"><ele>559.0</ele><time>2026-05-02T12:33:03.821Z</time></trkpt><trkpt lat="46.1682854" lon="13.4657043"><ele>559.0</ele><time>2026-05-02T12:33:04.819Z</time></trkpt><trkpt lat="46.1682224" lon="13.4656218"><ele>559.0</ele><time>2026-05-02T12:33:05.822Z</time></trkpt><trkpt lat="46.1681642" lon="13.4655242"><ele>559.0</ele><time>2026-05-02T12:33:06.813Z</time></trkpt><trkpt lat="46.1680617" lon="13.4652967"><ele>556.0</ele><time>2026-05-02T12:33:08.814Z</time></trkpt><trkpt lat="46.1680211" lon="13.4651758"><ele>553.0</ele><time>2026-05-02T12:33:09.824Z</time></trkpt><trkpt lat="46.1679968" lon="13.4650626"><ele>550.0</ele><time>2026-05-02T12:33:10.812Z</time></trkpt><trkpt lat="46.1679843" lon="13.4649503"><ele>547.0</ele><time>2026-05-02T12:33:11.817Z</time></trkpt><trkpt lat="46.1679679" lon="13.4648494"><ele>544.0</ele><time>2026-05-02T12:33:12.83Z</time></trkpt><trkpt lat="46.1679519" lon="13.4647542"><ele>541.0</ele><time>2026-05-02T12:33:13.809Z</time></trkpt><trkpt lat="46.1679362" lon="13.4646545"><ele>542.1428571428572</ele><time>2026-05-02T12:33:14.815Z</time></trkpt><trkpt lat="46.1679259" lon="13.4645497"><ele>543.2857142857143</ele><time>2026-05-02T12:33:15.818Z</time></trkpt><trkpt lat="46.1679103" lon="13.464447"><ele>544.4285714285714</ele><time>2026-05-02T12:33:16.816Z</time></trkpt><trkpt lat="46.1678911" lon="13.4643515"><ele>545.5714285714287</ele><time>2026-05-02T12:33:17.812Z</time></trkpt><trkpt lat="46.1678872" lon="13.4642605"><ele>546.7142857142858</ele><time>2026-05-02T12:33:18.812Z</time></trkpt><trkpt lat="46.1678791" lon="13.4641697"><ele>547.8571428571429</ele><time>2026-05-02T12:33:19.823Z</time></trkpt><trkpt lat="46.1678953" lon="13.464071"><ele>549.0</ele><time>2026-05-02T12:33:20.827Z</time></trkpt><trkpt lat="46.1679196" lon="13.4639703"><ele>549.0</ele><time>2026-05-02T12:33:21.814Z</time></trkpt><trkpt lat="46.1679352" lon="13.4638613"><ele>549.0</ele><time>2026-05-02T12:33:22.82Z</time></trkpt><trkpt lat="46.1679564" lon="13.4637755"><ele>549.0</ele><time>2026-05-02T12:33:23.823Z</time></trkpt><trkpt lat="46.1679629" lon="13.4636085"><ele>549.0</ele><time>2026-05-02T12:33:25.817Z</time></trkpt><trkpt lat="46.1679493" lon="13.4635059"><ele>549.0</ele><time>2026-05-02T12:33:26.807Z</time></trkpt><trkpt lat="46.1679226" lon="13.4634"><ele>549.0</ele><time>2026-05-02T12:33:27.818Z</time></trkpt><trkpt lat="46.1678758" lon="13.46314"><ele>551.0</ele><time>2026-05-02T12:33:29.822Z</time></trkpt><trkpt lat="46.1678643" lon="13.4629968"><ele>553.0</ele><time>2026-05-02T12:33:30.808Z</time></trkpt><trkpt lat="46.1678465" lon="13.4628717"><ele>555.0</ele><time>2026-05-02T12:33:31.82Z</time></trkpt><trkpt lat="46.1678322" lon="13.462782"><ele>557.0</ele><time>2026-05-02T12:33:32.814Z</time></trkpt><trkpt lat="46.1677707" lon="13.4626674"><ele>559.0</ele><time>2026-05-02T12:33:34.815Z</time></trkpt><trkpt lat="46.1677225" lon="13.4625953"><ele>561.0</ele><time>2026-05-02T12:33:42.814Z</time></trkpt><trkpt lat="46.1676479" lon="13.4625885"><ele>564.0</ele><time>2026-05-02T12:33:54.814Z</time></trkpt><trkpt lat="46.1674597" lon="13.462642"><ele>567.0</ele><time>2026-05-02T12:34:00.813Z</time></trkpt><trkpt lat="46.1673768" lon="13.4626003"><ele>570.0</ele><time>2026-05-02T12:34:02.814Z</time></trkpt><trkpt lat="46.1674734" lon="13.4626183"><ele>573.0</ele><time>2026-05-02T12:34:09.813Z</time></trkpt><trkpt lat="46.1675579" lon="13.4625697"><ele>573.0</ele><time>2026-05-02T12:34:11.822Z</time></trkpt><trkpt lat="46.1676356" lon="13.4625671"><ele>573.0</ele><time>2026-05-02T12:34:15.813Z</time></trkpt><trkpt lat="46.1678454" lon="13.4627764"><ele>573.0</ele><time>2026-05-02T12:35:40.813Z</time></trkpt><trkpt lat="46.167871" lon="13.462905"><ele>573.0</ele><time>2026-05-02T12:35:41.818Z</time></trkpt><trkpt lat="46.1679245" lon="13.4630061"><ele>570.6</ele><time>2026-05-02T12:35:42.82Z</time></trkpt><trkpt lat="46.1680018" lon="13.4631024"><ele>568.1999999999999</ele><time>2026-05-02T12:35:43.814Z</time></trkpt><trkpt lat="46.1680912" lon="13.4631928"><ele>565.8</ele><time>2026-05-02T12:35:44.814Z</time></trkpt><trkpt lat="46.1681834" lon="13.4632808"><ele>563.4</ele><time>2026-05-02T12:35:45.811Z</time></trkpt><trkpt lat="46.1682501" lon="13.4633524"><ele>561.0</ele><time>2026-05-02T12:35:46.82Z</time></trkpt><trkpt lat="46.168302" lon="13.4634168"><ele>564.6666666666666</ele><time>2026-05-02T12:35:47.811Z</time></trkpt><trkpt lat="46.1683545" lon="13.4634675"><ele>568.3333333333334</ele><time>2026-05-02T12:35:48.814Z</time></trkpt><trkpt lat="46.1684104" lon="13.4635182"><ele>572.0</ele><time>2026-05-02T12:35:49.809Z</time></trkpt><trkpt lat="46.1685167" lon="13.4635685"><ele>575.6666666666667</ele><time>2026-05-02T12:35:51.821Z</time></trkpt><trkpt lat="46.168611" lon="13.4636705"><ele>579.3333333333334</ele><time>2026-05-02T12:35:53.81Z</time></trkpt><trkpt lat="46.1686597" lon="13.4637508"><ele>583.0</ele><time>2026-05-02T12:35:54.823Z</time></trkpt><trkpt lat="46.1687163" lon="13.4638339"><ele>583.0</ele><time>2026-05-02T12:35:55.826Z</time></trkpt><trkpt lat="46.1687792" lon="13.4639119"><ele>583.0</ele><time>2026-05-02T12:35:56.814Z</time></trkpt><trkpt lat="46.1688408" lon="13.4639857"><ele>583.0</ele><time>2026-05-02T12:35:57.817Z</time></trkpt><trkpt lat="46.1689696" lon="13.4640784"><ele>583.0</ele><time>2026-05-02T12:35:59.82Z</time></trkpt><trkpt lat="46.1690395" lon="13.464099"><ele>583.0</ele><time>2026-05-02T12:36:00.814Z</time></trkpt><trkpt lat="46.1691191" lon="13.46411"><ele>587.4</ele><time>2026-05-02T12:36:01.815Z</time></trkpt><trkpt lat="46.1691965" lon="13.4641203"><ele>591.8</ele><time>2026-05-02T12:36:02.817Z</time></trkpt><trkpt lat="46.1693072" lon="13.4641024"><ele>596.2</ele><time>2026-05-02T12:36:04.809Z</time></trkpt><trkpt lat="46.169422" lon="13.464061"><ele>600.6</ele><time>2026-05-02T12:36:06.832Z</time></trkpt><trkpt lat="46.1695202" lon="13.4639887"><ele>605.0</ele><time>2026-05-02T12:36:08.819Z</time></trkpt><trkpt lat="46.1694446" lon="13.4639228"><ele>605.0</ele><time>2026-05-02T12:36:13.814Z</time></trkpt><trkpt lat="46.1693406" lon="13.4638816"><ele>605.0</ele><time>2026-05-02T12:36:15.821Z</time></trkpt><trkpt lat="46.1692501" lon="13.4638238"><ele>605.0</ele><time>2026-05-02T12:36:17.82Z</time></trkpt><trkpt lat="46.1691802" lon="13.4637226"><ele>605.0</ele><time>2026-05-02T12:36:19.822Z</time></trkpt><trkpt lat="46.1691354" lon="13.4634488"><ele>604.6666666666666</ele><time>2026-05-02T12:36:22.808Z</time></trkpt><trkpt lat="46.1691155" lon="13.4633447"><ele>604.3333333333333</ele><time>2026-05-02T12:36:23.806Z</time></trkpt><trkpt lat="46.1690967" lon="13.4632364"><ele>604.0</ele><time>2026-05-02T12:36:24.811Z</time></trkpt><trkpt lat="46.1690731" lon="13.4631221"><ele>603.6666666666666</ele><time>2026-05-02T12:36:25.806Z</time></trkpt><trkpt lat="46.1690458" lon="13.4630114"><ele>603.3333333333334</ele><time>2026-05-02T12:36:26.814Z</time></trkpt><trkpt lat="46.1690193" lon="13.4629049"><ele>603.0</ele><time>2026-05-02T12:36:27.805Z</time></trkpt><trkpt lat="46.1690012" lon="13.4628065"><ele>603.0</ele><time>2026-05-02T12:36:28.804Z</time></trkpt><trkpt lat="46.16897" lon="13.4626346"><ele>603.0</ele><time>2026-05-02T12:36:30.815Z</time></trkpt><trkpt lat="46.1689681" lon="13.4625425"><ele>603.0</ele><time>2026-05-02T12:36:31.813Z</time></trkpt><trkpt lat="46.1689646" lon="13.4624406"><ele>603.0</ele><time>2026-05-02T12:36:32.811Z</time></trkpt><trkpt lat="46.1689709" lon="13.4623452"><ele>603.0</ele><time>2026-05-02T12:36:33.811Z</time></trkpt><trkpt lat="46.1689846" lon="13.462167"><ele>603.0</ele><time>2026-05-02T12:36:35.809Z</time></trkpt><trkpt lat="46.168989" lon="13.4620749"><ele>607.5</ele><time>2026-05-02T12:36:36.813Z</time></trkpt><trkpt lat="46.1689461" lon="13.4619245"><ele>612.0</ele><time>2026-05-02T12:36:38.82Z</time></trkpt><trkpt lat="46.1689494" lon="13.461814"><ele>616.5</ele><time>2026-05-02T12:36:41.809Z</time></trkpt><trkpt lat="46.1691003" lon="13.4619929"><ele>621.0</ele><time>2026-05-02T12:36:45.819Z</time></trkpt><trkpt lat="46.1691426" lon="13.462103"><ele>623.3333333333334</ele><time>2026-05-02T12:36:46.81Z</time></trkpt><trkpt lat="46.1691951" lon="13.4622001"><ele>625.6666666666666</ele><time>2026-05-02T12:36:47.812Z</time></trkpt><trkpt lat="46.1692492" lon="13.4622922"><ele>628.0</ele><time>2026-05-02T12:36:48.814Z</time></trkpt><trkpt lat="46.1692935" lon="13.4623675"><ele>630.3333333333333</ele><time>2026-05-02T12:36:49.814Z</time></trkpt><trkpt lat="46.1693513" lon="13.4624304"><ele>632.6666666666666</ele><time>2026-05-02T12:36:50.813Z</time></trkpt><trkpt lat="46.1694055" lon="13.4625006"><ele>635.0</ele><time>2026-05-02T12:36:51.818Z</time></trkpt><trkpt lat="46.1694605" lon="13.4625627"><ele>635.0</ele><time>2026-05-02T12:36:52.807Z</time></trkpt><trkpt lat="46.1695133" lon="13.4626245"><ele>635.0</ele><time>2026-05-02T12:36:53.809Z</time></trkpt><trkpt lat="46.1695789" lon="13.4626821"><ele>635.0</ele><time>2026-05-02T12:36:54.821Z</time></trkpt><trkpt lat="46.1696566" lon="13.4627352"><ele>635.0</ele><time>2026-05-02T12:36:55.812Z</time></trkpt><trkpt lat="46.1697344" lon="13.4627681"><ele>635.0</ele><time>2026-05-02T12:36:56.813Z</time></trkpt><trkpt lat="46.1698034" lon="13.4627978"><ele>635.0</ele><time>2026-05-02T12:36:57.806Z</time></trkpt><trkpt lat="46.169904" lon="13.4628044"><ele>635.0</ele><time>2026-05-02T12:36:59.811Z</time></trkpt><trkpt lat="46.1698829" lon="13.4626846"><ele>635.0</ele><time>2026-05-02T12:37:03.812Z</time></trkpt><trkpt lat="46.16978" lon="13.4625539"><ele>635.0</ele><time>2026-05-02T12:37:05.805Z</time></trkpt><trkpt lat="46.1697151" lon="13.4624757"><ele>635.0</ele><time>2026-05-02T12:37:06.806Z</time></trkpt><trkpt lat="46.1696596" lon="13.462409"><ele>635.0</ele><time>2026-05-02T12:37:07.807Z</time></trkpt><trkpt lat="46.1696188" lon="13.4623365"><ele>635.0</ele><time>2026-05-02T12:37:08.816Z</time></trkpt><trkpt lat="46.1695832" lon="13.4622466"><ele>635.0</ele><time>2026-05-02T12:37:09.81Z</time></trkpt><trkpt lat="46.1695724" lon="13.4621456"><ele>635.0</ele><time>2026-05-02T12:37:10.811Z</time></trkpt><trkpt lat="46.1695686" lon="13.4620389"><ele>635.0</ele><time>2026-05-02T12:37:11.807Z</time></trkpt><trkpt lat="46.1695573" lon="13.4618373"><ele>635.0</ele><time>2026-05-02T12:37:13.804Z</time></trkpt><trkpt lat="46.1695488" lon="13.4617431"><ele>635.0</ele><time>2026-05-02T12:37:14.815Z</time></trkpt><trkpt lat="46.1695465" lon="13.4615723"><ele>636.8333333333333</ele><time>2026-05-02T12:37:16.808Z</time></trkpt><trkpt lat="46.1695478" lon="13.4614728"><ele>638.6666666666666</ele><time>2026-05-02T12:37:17.827Z</time></trkpt><trkpt lat="46.1695431" lon="13.4613746"><ele>640.5</ele><time>2026-05-02T12:37:18.808Z</time></trkpt><trkpt lat="46.1695385" lon="13.4612699"><ele>642.3333333333334</ele><time>2026-05-02T12:37:19.807Z</time></trkpt><trkpt lat="46.1695259" lon="13.4611788"><ele>644.1666666666667</ele><time>2026-05-02T12:37:20.819Z</time></trkpt><trkpt lat="46.16948" lon="13.4609991"><ele>646.0</ele><time>2026-05-02T12:37:22.808Z</time></trkpt><trkpt lat="46.1694507" lon="13.4608958"><ele>648.4</ele><time>2026-05-02T12:37:23.805Z</time></trkpt><trkpt lat="46.1694188" lon="13.4607765"><ele>650.8</ele><time>2026-05-02T12:37:24.809Z</time></trkpt><trkpt lat="46.1693679" lon="13.460542"><ele>653.1999999999999</ele><time>2026-05-02T12:37:26.814Z</time></trkpt><trkpt lat="46.1693518" lon="13.460433"><ele>655.5999999999999</ele><time>2026-05-02T12:37:27.808Z</time></trkpt><trkpt lat="46.1693354" lon="13.4603165"><ele>658.0</ele><time>2026-05-02T12:37:28.81Z</time></trkpt><trkpt lat="46.1693169" lon="13.4602066"><ele>657.1428571428571</ele><time>2026-05-02T12:37:29.813Z</time></trkpt><trkpt lat="46.169305" lon="13.4601111"><ele>656.2857142857142</ele><time>2026-05-02T12:37:30.812Z</time></trkpt><trkpt lat="46.1692689" lon="13.4600259"><ele>655.4285714285714</ele><time>2026-05-02T12:37:31.81Z</time></trkpt><trkpt lat="46.1692216" lon="13.4599605"><ele>654.5714285714286</ele><time>2026-05-02T12:37:32.822Z</time></trkpt><trkpt lat="46.1691492" lon="13.4599064"><ele>653.7142857142857</ele><time>2026-05-02T12:37:33.819Z</time></trkpt><trkpt lat="46.1690885" lon="13.45985"><ele>652.8571428571429</ele><time>2026-05-02T12:37:34.81Z</time></trkpt><trkpt lat="46.169036" lon="13.4597965"><ele>652.0</ele><time>2026-05-02T12:37:35.811Z</time></trkpt><trkpt lat="46.1689922" lon="13.459713"><ele>652.0</ele><time>2026-05-02T12:37:36.809Z</time></trkpt><trkpt lat="46.1689433" lon="13.4596311"><ele>652.0</ele><time>2026-05-02T12:37:37.818Z</time></trkpt><trkpt lat="46.168907" lon="13.4595401"><ele>652.0</ele><time>2026-05-02T12:37:38.83Z</time></trkpt><trkpt lat="46.1688744" lon="13.4594415"><ele>652.0</ele><time>2026-05-02T12:37:39.81Z</time></trkpt><trkpt lat="46.1688334" lon="13.4593341"><ele>652.0</ele><time>2026-05-02T12:37:40.809Z</time></trkpt><trkpt lat="46.1687902" lon="13.4592483"><ele>652.0</ele><time>2026-05-02T12:37:41.812Z</time></trkpt><trkpt lat="46.1687368" lon="13.4591766"><ele>656.75</ele><time>2026-05-02T12:37:42.82Z</time></trkpt><trkpt lat="46.1686838" lon="13.4590506"><ele>661.5</ele><time>2026-05-02T12:37:44.819Z</time></trkpt><trkpt lat="46.1686865" lon="13.4589264"><ele>666.25</ele><time>2026-05-02T12:37:46.81Z</time></trkpt><trkpt lat="46.1687611" lon="13.4586716"><ele>671.0</ele><time>2026-05-02T12:39:36.808Z</time></trkpt><trkpt lat="46.1687615" lon="13.4585149"><ele>675.0</ele><time>2026-05-02T12:39:38.814Z</time></trkpt><trkpt lat="46.1687261" lon="13.4584142"><ele>679.0</ele><time>2026-05-02T12:39:39.81Z</time></trkpt><trkpt lat="46.1686702" lon="13.4583116"><ele>683.0</ele><time>2026-05-02T12:39:40.817Z</time></trkpt><trkpt lat="46.168589" lon="13.458213"><ele>687.0</ele><time>2026-05-02T12:39:42.822Z</time></trkpt><trkpt lat="46.1685125" lon="13.4580997"><ele>691.0</ele><time>2026-05-02T12:39:44.811Z</time></trkpt><trkpt lat="46.1684598" lon="13.4579785"><ele>693.5</ele><time>2026-05-02T12:39:46.812Z</time></trkpt><trkpt lat="46.1684577" lon="13.4578251"><ele>696.0</ele><time>2026-05-02T12:39:48.815Z</time></trkpt><trkpt lat="46.1684655" lon="13.4576539"><ele>698.5</ele><time>2026-05-02T12:39:50.815Z</time></trkpt><trkpt lat="46.1684419" lon="13.4575031"><ele>701.0</ele><time>2026-05-02T12:39:52.805Z</time></trkpt><trkpt lat="46.1683789" lon="13.4572086"><ele>702.6666666666666</ele><time>2026-05-02T12:39:56.818Z</time></trkpt><trkpt lat="46.1683743" lon="13.4571139"><ele>704.3333333333333</ele><time>2026-05-02T12:39:57.813Z</time></trkpt><trkpt lat="46.1683765" lon="13.457019"><ele>706.0</ele><time>2026-05-02T12:39:58.81Z</time></trkpt><trkpt lat="46.1684002" lon="13.4568705"><ele>707.6666666666666</ele><time>2026-05-02T12:40:00.812Z</time></trkpt><trkpt lat="46.168373" lon="13.4567377"><ele>709.3333333333334</ele><time>2026-05-02T12:40:02.813Z</time></trkpt><trkpt lat="46.168319" lon="13.4566799"><ele>711.0</ele><time>2026-05-02T12:40:04.819Z</time></trkpt><trkpt lat="46.168242" lon="13.4565981"><ele>710.5</ele><time>2026-05-02T12:40:06.806Z</time></trkpt><trkpt lat="46.1681497" lon="13.456471"><ele>710.0</ele><time>2026-05-02T12:40:08.815Z</time></trkpt><trkpt lat="46.1681084" lon="13.4563941"><ele>709.5</ele><time>2026-05-02T12:40:09.811Z</time></trkpt><trkpt lat="46.1680729" lon="13.4563101"><ele>709.0</ele><time>2026-05-02T12:40:10.813Z</time></trkpt><trkpt lat="46.1680433" lon="13.4562151"><ele>708.5</ele><time>2026-05-02T12:40:11.817Z</time></trkpt><trkpt lat="46.1680045" lon="13.4561242"><ele>708.0</ele><time>2026-05-02T12:40:12.814Z</time></trkpt><trkpt lat="46.16796" lon="13.4560212"><ele>708.0</ele><time>2026-05-02T12:40:13.812Z</time></trkpt><trkpt lat="46.1678853" lon="13.4558327"><ele>708.0</ele><time>2026-05-02T12:40:15.811Z</time></trkpt><trkpt lat="46.1678602" lon="13.45573"><ele>708.0</ele><time>2026-05-02T12:40:16.812Z</time></trkpt><trkpt lat="46.1678542" lon="13.4556085"><ele>708.0</ele><time>2026-05-02T12:40:17.808Z</time></trkpt><trkpt lat="46.1678584" lon="13.4554829"><ele>708.0</ele><time>2026-05-02T12:40:18.814Z</time></trkpt><trkpt lat="46.1678727" lon="13.4553832"><ele>709.0</ele><time>2026-05-02T12:40:19.81Z</time></trkpt><trkpt lat="46.1678959" lon="13.4552926"><ele>710.0</ele><time>2026-05-02T12:40:20.81Z</time></trkpt><trkpt lat="46.1679283" lon="13.4552008"><ele>711.0</ele><time>2026-05-02T12:40:21.809Z</time></trkpt><trkpt lat="46.1679588" lon="13.4550967"><ele>712.0</ele><time>2026-05-02T12:40:22.814Z</time></trkpt><trkpt lat="46.1679762" lon="13.4549919"><ele>713.0</ele><time>2026-05-02T12:40:23.815Z</time></trkpt><trkpt lat="46.1679757" lon="13.4548965"><ele>714.0</ele><time>2026-05-02T12:40:24.813Z</time></trkpt><trkpt lat="46.1679484" lon="13.4547774"><ele>715.0</ele><time>2026-05-02T12:40:26.812Z</time></trkpt><trkpt lat="46.167826" lon="13.4546611"><ele>716.2</ele><time>2026-05-02T12:40:28.815Z</time></trkpt><trkpt lat="46.1677462" lon="13.4546074"><ele>717.4</ele><time>2026-05-02T12:40:29.81Z</time></trkpt><trkpt lat="46.1676651" lon="13.4545228"><ele>718.5999999999999</ele><time>2026-05-02T12:40:30.818Z</time></trkpt><trkpt lat="46.1675809" lon="13.4544551"><ele>719.8</ele><time>2026-05-02T12:40:31.818Z</time></trkpt><trkpt lat="46.167496" lon="13.4543809"><ele>721.0</ele><time>2026-05-02T12:40:32.827Z</time></trkpt><trkpt lat="46.1674192" lon="13.4543096"><ele>720.1999999999999</ele><time>2026-05-02T12:40:33.813Z</time></trkpt><trkpt lat="46.1673323" lon="13.4542254"><ele>719.4</ele><time>2026-05-02T12:40:34.808Z</time></trkpt><trkpt lat="46.1671914" lon="13.4540789"><ele>718.6</ele><time>2026-05-02T12:40:36.823Z</time></trkpt><trkpt lat="46.1671179" lon="13.4540361"><ele>717.8</ele><time>2026-05-02T12:40:37.814Z</time></trkpt><trkpt lat="46.1670352" lon="13.453986"><ele>717.0</ele><time>2026-05-02T12:40:38.81Z</time></trkpt><trkpt lat="46.1669416" lon="13.4539365"><ele>717.0</ele><time>2026-05-02T12:40:39.824Z</time></trkpt><trkpt lat="46.1668588" lon="13.4538953"><ele>717.0</ele><time>2026-05-02T12:40:40.807Z</time></trkpt><trkpt lat="46.1667844" lon="13.4538564"><ele>717.0</ele><time>2026-05-02T12:40:41.809Z</time></trkpt><trkpt lat="46.1667234" lon="13.4538023"><ele>717.0</ele><time>2026-05-02T12:40:42.814Z</time></trkpt><trkpt lat="46.1666229" lon="13.4537343"><ele>717.0</ele><time>2026-05-02T12:40:44.814Z</time></trkpt><trkpt lat="46.1665286" lon="13.4537619"><ele>717.0</ele><time>2026-05-02T12:40:46.812Z</time></trkpt><trkpt lat="46.1664592" lon="13.4537915"><ele>715.1428571428571</ele><time>2026-05-02T12:40:47.805Z</time></trkpt><trkpt lat="46.1663904" lon="13.4538519"><ele>713.2857142857142</ele><time>2026-05-02T12:40:48.823Z</time></trkpt><trkpt lat="46.1663242" lon="13.4539207"><ele>711.4285714285714</ele><time>2026-05-02T12:40:49.811Z</time></trkpt><trkpt lat="46.166262" lon="13.4539813"><ele>709.5714285714286</ele><time>2026-05-02T12:40:50.81Z</time></trkpt><trkpt lat="46.166206" lon="13.4540406"><ele>707.7142857142857</ele><time>2026-05-02T12:40:51.809Z</time></trkpt><trkpt lat="46.1661602" lon="13.4541159"><ele>705.8571428571429</ele><time>2026-05-02T12:40:52.811Z</time></trkpt><trkpt lat="46.1661163" lon="13.4542011"><ele>704.0</ele><time>2026-05-02T12:40:53.824Z</time></trkpt><trkpt lat="46.1660864" lon="13.4542956"><ele>704.0</ele><time>2026-05-02T12:40:54.818Z</time></trkpt><trkpt lat="46.1660759" lon="13.4544667"><ele>704.0</ele><time>2026-05-02T12:40:56.819Z</time></trkpt><trkpt lat="46.1660656" lon="13.4546681"><ele>704.0</ele><time>2026-05-02T12:40:58.807Z</time></trkpt><trkpt lat="46.1660188" lon="13.4548295"><ele>704.0</ele><time>2026-05-02T12:41:00.812Z</time></trkpt><trkpt lat="46.1659509" lon="13.4549521"><ele>702.6666666666666</ele><time>2026-05-02T12:41:02.817Z</time></trkpt><trkpt lat="46.1658865" lon="13.4549619"><ele>701.3333333333333</ele><time>2026-05-02T12:41:04.814Z</time></trkpt><trkpt lat="46.1658259" lon="13.4548691"><ele>700.0</ele><time>2026-05-02T12:41:06.811Z</time></trkpt><trkpt lat="46.1657815" lon="13.4547964"><ele>698.6666666666666</ele><time>2026-05-02T12:41:07.809Z</time></trkpt><trkpt lat="46.1657254" lon="13.4547042"><ele>697.3333333333334</ele><time>2026-05-02T12:41:08.818Z</time></trkpt><trkpt lat="46.165666" lon="13.4546127"><ele>696.0</ele><time>2026-05-02T12:41:09.812Z</time></trkpt><trkpt lat="46.1656185" lon="13.4545165"><ele>695.1999999999999</ele><time>2026-05-02T12:41:10.815Z</time></trkpt><trkpt lat="46.1655514" lon="13.4544203"><ele>694.4</ele><time>2026-05-02T12:41:11.807Z</time></trkpt><trkpt lat="46.1654852" lon="13.4543396"><ele>693.6</ele><time>2026-05-02T12:41:12.813Z</time></trkpt><trkpt lat="46.1654147" lon="13.4542559"><ele>692.8</ele><time>2026-05-02T12:41:13.82Z</time></trkpt><trkpt lat="46.1653398" lon="13.4541778"><ele>692.0</ele><time>2026-05-02T12:41:14.812Z</time></trkpt><trkpt lat="46.1652618" lon="13.454126"><ele>692.0</ele><time>2026-05-02T12:41:15.806Z</time></trkpt><trkpt lat="46.1651769" lon="13.4540767"><ele>692.0</ele><time>2026-05-02T12:41:16.816Z</time></trkpt><trkpt lat="46.1650915" lon="13.4540618"><ele>692.0</ele><time>2026-05-02T12:41:17.809Z</time></trkpt><trkpt lat="46.1649216" lon="13.4540369"><ele>692.0</ele><time>2026-05-02T12:41:19.82Z</time></trkpt><trkpt lat="46.1648301" lon="13.4540179"><ele>692.0</ele><time>2026-05-02T12:41:20.807Z</time></trkpt><trkpt lat="46.1647444" lon="13.4539812"><ele>690.0</ele><time>2026-05-02T12:41:21.808Z</time></trkpt><trkpt lat="46.1646375" lon="13.4539397"><ele>688.0</ele><time>2026-05-02T12:41:23.816Z</time></trkpt><trkpt lat="46.1645731" lon="13.4539288"><ele>686.0</ele><time>2026-05-02T12:41:25.81Z</time></trkpt><trkpt lat="46.1644928" lon="13.4539983"><ele>684.0</ele><time>2026-05-02T12:41:28.808Z</time></trkpt><trkpt lat="46.1643984" lon="13.4540379"><ele>682.0</ele><time>2026-05-02T12:41:30.81Z</time></trkpt><trkpt lat="46.1642991" lon="13.4540614"><ele>682.0</ele><time>2026-05-02T12:41:32.811Z</time></trkpt><trkpt lat="46.1642162" lon="13.454054"><ele>682.0</ele><time>2026-05-02T12:41:34.811Z</time></trkpt><trkpt lat="46.1641323" lon="13.4540918"><ele>682.0</ele><time>2026-05-02T12:41:36.813Z</time></trkpt><trkpt lat="46.1640704" lon="13.4541655"><ele>682.0</ele><time>2026-05-02T12:41:38.809Z</time></trkpt><trkpt lat="46.163964" lon="13.4543281"><ele>682.0</ele><time>2026-05-02T12:41:42.816Z</time></trkpt><trkpt lat="46.1638818" lon="13.4543222"><ele>679.6</ele><time>2026-05-02T12:41:44.811Z</time></trkpt><trkpt lat="46.16381" lon="13.45428"><ele>677.2</ele><time>2026-05-02T12:41:46.821Z</time></trkpt><trkpt lat="46.1637383" lon="13.4541911"><ele>674.8</ele><time>2026-05-02T12:41:48.813Z</time></trkpt><trkpt lat="46.1636556" lon="13.4541156"><ele>672.4</ele><time>2026-05-02T12:41:50.805Z</time></trkpt><trkpt lat="46.163563" lon="13.4541018"><ele>670.0</ele><time>2026-05-02T12:41:52.812Z</time></trkpt><trkpt lat="46.1634321" lon="13.454151"><ele>670.0</ele><time>2026-05-02T12:41:54.803Z</time></trkpt><trkpt lat="46.1633595" lon="13.4541829"><ele>670.0</ele><time>2026-05-02T12:41:55.819Z</time></trkpt><trkpt lat="46.1632609" lon="13.4542466"><ele>670.0</ele><time>2026-05-02T12:41:57.808Z</time></trkpt><trkpt lat="46.1631973" lon="13.4543138"><ele>670.0</ele><time>2026-05-02T12:41:59.81Z</time></trkpt><trkpt lat="46.1632723" lon="13.4545772"><ele>666.3333333333334</ele><time>2026-05-02T12:42:03.813Z</time></trkpt><trkpt lat="46.1633243" lon="13.4546843"><ele>662.6666666666667</ele><time>2026-05-02T12:42:04.817Z</time></trkpt><trkpt lat="46.1633597" lon="13.4547918"><ele>659.0</ele><time>2026-05-02T12:42:05.818Z</time></trkpt><trkpt lat="46.1633782" lon="13.4549034"><ele>655.3333333333334</ele><time>2026-05-02T12:42:06.811Z</time></trkpt><trkpt lat="46.163403" lon="13.4550164"><ele>651.6666666666666</ele><time>2026-05-02T12:42:07.816Z</time></trkpt><trkpt lat="46.1634197" lon="13.4551223"><ele>648.0</ele><time>2026-05-02T12:42:08.821Z</time></trkpt><trkpt lat="46.1634431" lon="13.45522"><ele>648.0</ele><time>2026-05-02T12:42:09.811Z</time></trkpt><trkpt lat="46.1634497" lon="13.4553733"><ele>648.0</ele><time>2026-05-02T12:42:11.808Z</time></trkpt><trkpt lat="46.1633724" lon="13.4554308"><ele>648.0</ele><time>2026-05-02T12:42:14.811Z</time></trkpt><trkpt lat="46.163284" lon="13.4553584"><ele>648.0</ele><time>2026-05-02T12:42:17.818Z</time></trkpt><trkpt lat="46.163197" lon="13.4552623"><ele>648.0</ele><time>2026-05-02T12:42:19.807Z</time></trkpt><trkpt lat="46.1631464" lon="13.4552048"><ele>645.8</ele><time>2026-05-02T12:42:20.804Z</time></trkpt><trkpt lat="46.1630911" lon="13.4551351"><ele>643.5999999999999</ele><time>2026-05-02T12:42:21.813Z</time></trkpt><trkpt lat="46.1629612" lon="13.4550355"><ele>641.4000000000001</ele><time>2026-05-02T12:42:23.815Z</time></trkpt><trkpt lat="46.1628645" lon="13.4550694"><ele>639.2</ele><time>2026-05-02T12:42:24.812Z</time></trkpt><trkpt lat="46.1627822" lon="13.4550191"><ele>637.0</ele><time>2026-05-02T12:42:25.814Z</time></trkpt><trkpt lat="46.162693" lon="13.4549832"><ele>637.0</ele><time>2026-05-02T12:42:26.809Z</time></trkpt><trkpt lat="46.1625849" lon="13.4549502"><ele>637.0</ele><time>2026-05-02T12:42:28.811Z</time></trkpt><trkpt lat="46.1624835" lon="13.4549001"><ele>637.0</ele><time>2026-05-02T12:42:30.814Z</time></trkpt><trkpt lat="46.1623953" lon="13.4548596"><ele>637.0</ele><time>2026-05-02T12:42:32.807Z</time></trkpt><trkpt lat="46.1623129" lon="13.4548575"><ele>637.0</ele><time>2026-05-02T12:42:50.808Z</time></trkpt><trkpt lat="46.1621421" lon="13.4548054"><ele>640.3333333333334</ele><time>2026-05-02T12:42:54.81Z</time></trkpt><trkpt lat="46.1620255" lon="13.4548159"><ele>643.6666666666667</ele><time>2026-05-02T12:42:56.81Z</time></trkpt><trkpt lat="46.1619483" lon="13.4548394"><ele>647.0</ele><time>2026-05-02T12:42:57.814Z</time></trkpt><trkpt lat="46.1618811" lon="13.4548868"><ele>650.3333333333334</ele><time>2026-05-02T12:42:58.81Z</time></trkpt><trkpt lat="46.1618222" lon="13.4549527"><ele>653.6666666666666</ele><time>2026-05-02T12:42:59.806Z</time></trkpt><trkpt lat="46.1617639" lon="13.4550139"><ele>657.0</ele><time>2026-05-02T12:43:00.811Z</time></trkpt><trkpt lat="46.1617065" lon="13.455086"><ele>657.0</ele><time>2026-05-02T12:43:01.808Z</time></trkpt><trkpt lat="46.1616433" lon="13.455154"><ele>657.0</ele><time>2026-05-02T12:43:02.822Z</time></trkpt><trkpt lat="46.1615785" lon="13.4552003"><ele>657.0</ele><time>2026-05-02T12:43:03.817Z</time></trkpt><trkpt lat="46.1615144" lon="13.4552346"><ele>657.0</ele><time>2026-05-02T12:43:04.814Z</time></trkpt><trkpt lat="46.1614469" lon="13.455264"><ele>657.0</ele><time>2026-05-02T12:43:05.808Z</time></trkpt><trkpt lat="46.161377" lon="13.4552759"><ele>657.0</ele><time>2026-05-02T12:43:06.807Z</time></trkpt><trkpt lat="46.1613056" lon="13.4553012"><ele>657.0</ele><time>2026-05-02T12:43:07.812Z</time></trkpt><trkpt lat="46.1612255" lon="13.4553241"><ele>659.4000000000001</ele><time>2026-05-02T12:43:08.808Z</time></trkpt><trkpt lat="46.161146" lon="13.4553448"><ele>661.8000000000001</ele><time>2026-05-02T12:43:09.816Z</time></trkpt><trkpt lat="46.1610611" lon="13.4553729"><ele>664.2</ele><time>2026-05-02T12:43:10.808Z</time></trkpt><trkpt lat="46.16098" lon="13.4553991"><ele>666.6</ele><time>2026-05-02T12:43:11.808Z</time></trkpt><trkpt lat="46.1608098" lon="13.4554354"><ele>669.0</ele><time>2026-05-02T12:43:13.813Z</time></trkpt><trkpt lat="46.1607348" lon="13.455458"><ele>668.3333333333334</ele><time>2026-05-02T12:43:14.807Z</time></trkpt><trkpt lat="46.1606673" lon="13.4554609"><ele>667.6666666666666</ele><time>2026-05-02T12:43:15.81Z</time></trkpt><trkpt lat="46.1606008" lon="13.4554653"><ele>667.0</ele><time>2026-05-02T12:43:16.819Z</time></trkpt><trkpt lat="46.1605328" lon="13.4554738"><ele>666.3333333333333</ele><time>2026-05-02T12:43:17.808Z</time></trkpt><trkpt lat="46.1604684" lon="13.4554774"><ele>665.6666666666666</ele><time>2026-05-02T12:43:18.82Z</time></trkpt><trkpt lat="46.1603515" lon="13.4554514"><ele>665.0</ele><time>2026-05-02T12:43:20.813Z</time></trkpt><trkpt lat="46.160244" lon="13.4554876"><ele>665.0</ele><time>2026-05-02T12:43:22.801Z</time></trkpt><trkpt lat="46.1601253" lon="13.4555517"><ele>665.0</ele><time>2026-05-02T12:43:24.811Z</time></trkpt><trkpt lat="46.1600493" lon="13.4556142"><ele>665.0</ele><time>2026-05-02T12:43:25.809Z</time></trkpt><trkpt lat="46.1599693" lon="13.4556892"><ele>665.0</ele><time>2026-05-02T12:43:26.813Z</time></trkpt><trkpt lat="46.1598941" lon="13.4557814"><ele>665.0</ele><time>2026-05-02T12:43:27.812Z</time></trkpt><trkpt lat="46.1598393" lon="13.4558877"><ele>665.0</ele><time>2026-05-02T12:43:28.807Z</time></trkpt><trkpt lat="46.159804" lon="13.4560011"><ele>665.0</ele><time>2026-05-02T12:43:29.811Z</time></trkpt><trkpt lat="46.1597938" lon="13.4561286"><ele>665.0</ele><time>2026-05-02T12:43:30.807Z</time></trkpt><trkpt lat="46.1597953" lon="13.4562777"><ele>665.0</ele><time>2026-05-02T12:43:31.806Z</time></trkpt><trkpt lat="46.1597823" lon="13.4563997"><ele>665.0</ele><time>2026-05-02T12:43:32.813Z</time></trkpt><trkpt lat="46.1597032" lon="13.4565883"><ele>665.0</ele><time>2026-05-02T12:43:34.815Z</time></trkpt><trkpt lat="46.1596504" lon="13.4566589"><ele>665.0</ele><time>2026-05-02T12:43:35.819Z</time></trkpt><trkpt lat="46.1595886" lon="13.4566933"><ele>665.0</ele><time>2026-05-02T12:43:36.814Z</time></trkpt><trkpt lat="46.159502" lon="13.4566848"><ele>665.0</ele><time>2026-05-02T12:43:38.809Z</time></trkpt><trkpt lat="46.1594364" lon="13.4567051"><ele>665.0</ele><time>2026-05-02T12:43:44.817Z</time></trkpt><trkpt lat="46.1593783" lon="13.4566644"><ele>665.0</ele><time>2026-05-02T12:43:47.808Z</time></trkpt><trkpt lat="46.1593105" lon="13.4566889"><ele>665.0</ele><time>2026-05-02T12:44:14.826Z</time></trkpt><trkpt lat="46.1591186" lon="13.4565368"><ele>665.0</ele><time>2026-05-02T12:44:18.816Z</time></trkpt><trkpt lat="46.159057" lon="13.456517"><ele>665.0</ele><time>2026-05-02T12:44:19.814Z</time></trkpt><trkpt lat="46.1589886" lon="13.4565039"><ele>665.0</ele><time>2026-05-02T12:44:20.809Z</time></trkpt><trkpt lat="46.1589145" lon="13.4564891"><ele>665.0</ele><time>2026-05-02T12:44:21.819Z</time></trkpt><trkpt lat="46.1588462" lon="13.4564653"><ele>665.0</ele><time>2026-05-02T12:44:22.808Z</time></trkpt><trkpt lat="46.1587755" lon="13.4564424"><ele>665.0</ele><time>2026-05-02T12:44:23.808Z</time></trkpt><trkpt lat="46.1587065" lon="13.456402"><ele>665.0</ele><time>2026-05-02T12:44:24.802Z</time></trkpt><trkpt lat="46.1586492" lon="13.4563524"><ele>665.0</ele><time>2026-05-02T12:44:25.815Z</time></trkpt><trkpt lat="46.1585975" lon="13.4562797"><ele>665.0</ele><time>2026-05-02T12:44:26.811Z</time></trkpt><trkpt lat="46.1585522" lon="13.4561789"><ele>665.0</ele><time>2026-05-02T12:44:27.809Z</time></trkpt><trkpt lat="46.1585098" lon="13.4560537"><ele>665.0</ele><time>2026-05-02T12:44:28.812Z</time></trkpt><trkpt lat="46.1584666" lon="13.4559169"><ele>665.0</ele><time>2026-05-02T12:44:29.81Z</time></trkpt><trkpt lat="46.1584242" lon="13.4557733"><ele>665.0</ele><time>2026-05-02T12:44:30.81Z</time></trkpt><trkpt lat="46.1583771" lon="13.4556204"><ele>665.0</ele><time>2026-05-02T12:44:31.814Z</time></trkpt><trkpt lat="46.158327" lon="13.4554555"><ele>665.0</ele><time>2026-05-02T12:44:32.805Z</time></trkpt><trkpt lat="46.1582708" lon="13.4552927"><ele>665.0</ele><time>2026-05-02T12:44:33.815Z</time></trkpt><trkpt lat="46.1582139" lon="13.4551461"><ele>667.75</ele><time>2026-05-02T12:44:34.82Z</time></trkpt><trkpt lat="46.1581803" lon="13.4550103"><ele>670.5</ele><time>2026-05-02T12:44:35.807Z</time></trkpt><trkpt lat="46.1580973" lon="13.4547251"><ele>673.25</ele><time>2026-05-02T12:44:37.817Z</time></trkpt><trkpt lat="46.1580532" lon="13.4545781"><ele>676.0</ele><time>2026-05-02T12:44:38.819Z</time></trkpt><trkpt lat="46.1580317" lon="13.4544361"><ele>678.0</ele><time>2026-05-02T12:44:39.82Z</time></trkpt><trkpt lat="46.158006" lon="13.4543322"><ele>680.0</ele><time>2026-05-02T12:44:40.812Z</time></trkpt><trkpt lat="46.157948" lon="13.4542354"><ele>682.0</ele><time>2026-05-02T12:44:42.824Z</time></trkpt><trkpt lat="46.1578516" lon="13.4542925"><ele>684.0</ele><time>2026-05-02T12:44:44.815Z</time></trkpt><trkpt lat="46.1577521" lon="13.4544274"><ele>686.0</ele><time>2026-05-02T12:44:46.822Z</time></trkpt><trkpt lat="46.1577048" lon="13.454512"><ele>686.0</ele><time>2026-05-02T12:44:47.824Z</time></trkpt><trkpt lat="46.1576552" lon="13.4546203"><ele>686.0</ele><time>2026-05-02T12:44:48.807Z</time></trkpt><trkpt lat="46.1576098" lon="13.4547287"><ele>686.0</ele><time>2026-05-02T12:44:49.809Z</time></trkpt><trkpt lat="46.1575663" lon="13.454828"><ele>686.0</ele><time>2026-05-02T12:44:50.81Z</time></trkpt><trkpt lat="46.1575272" lon="13.454919"><ele>686.0</ele><time>2026-05-02T12:44:51.816Z</time></trkpt><trkpt lat="46.1574662" lon="13.4550368"><ele>686.0</ele><time>2026-05-02T12:44:53.814Z</time></trkpt><trkpt lat="46.1573939" lon="13.4550292"><ele>683.0</ele><time>2026-05-02T12:44:55.814Z</time></trkpt><trkpt lat="46.1572833" lon="13.4550265"><ele>680.0</ele><time>2026-05-02T12:44:57.805Z</time></trkpt><trkpt lat="46.1571402" lon="13.4550446"><ele>677.0</ele><time>2026-05-02T12:44:59.8Z</time></trkpt><trkpt lat="46.1570744" lon="13.4550537"><ele>674.0</ele><time>2026-05-02T12:45:00.814Z</time></trkpt><trkpt lat="46.1570021" lon="13.4550451"><ele>671.0</ele><time>2026-05-02T12:45:01.816Z</time></trkpt><trkpt lat="46.1569319" lon="13.4550374"><ele>671.0</ele><time>2026-05-02T12:45:02.815Z</time></trkpt><trkpt lat="46.1568282" lon="13.4550188"><ele>671.0</ele><time>2026-05-02T12:45:04.806Z</time></trkpt><trkpt lat="46.1567566" lon="13.4550216"><ele>671.0</ele><time>2026-05-02T12:49:49.806Z</time></trkpt><trkpt lat="46.1565549" lon="13.4549773"><ele>671.0</ele><time>2026-05-02T12:49:53.801Z</time></trkpt><trkpt lat="46.1564838" lon="13.4549302"><ele>671.5999999999999</ele><time>2026-05-02T12:49:54.804Z</time></trkpt><trkpt lat="46.1564118" lon="13.4548887"><ele>672.2</ele><time>2026-05-02T12:49:55.809Z</time></trkpt><trkpt lat="46.1563033" lon="13.4548306"><ele>672.8</ele><time>2026-05-02T12:49:57.818Z</time></trkpt><trkpt lat="46.1561561" lon="13.454821"><ele>673.4000000000001</ele><time>2026-05-02T12:49:59.806Z</time></trkpt><trkpt lat="46.1560687" lon="13.4548108"><ele>674.0</ele><time>2026-05-02T12:50:00.816Z</time></trkpt><trkpt lat="46.1559899" lon="13.4548039"><ele>674.0</ele><time>2026-05-02T12:50:01.803Z</time></trkpt><trkpt lat="46.1559197" lon="13.4547913"><ele>674.0</ele><time>2026-05-02T12:50:02.817Z</time></trkpt><trkpt lat="46.155836" lon="13.4547757"><ele>674.0</ele><time>2026-05-02T12:50:03.804Z</time></trkpt><trkpt lat="46.1557487" lon="13.4547528"><ele>674.0</ele><time>2026-05-02T12:50:04.807Z</time></trkpt><trkpt lat="46.1556658" lon="13.4547321"><ele>674.0</ele><time>2026-05-02T12:50:05.821Z</time></trkpt><trkpt lat="46.1555907" lon="13.4546752"><ele>674.0</ele><time>2026-05-02T12:50:06.816Z</time></trkpt><trkpt lat="46.1554683" lon="13.4546058"><ele>677.25</ele><time>2026-05-02T12:50:08.815Z</time></trkpt><trkpt lat="46.1553557" lon="13.4545342"><ele>680.5</ele><time>2026-05-02T12:50:10.799Z</time></trkpt><trkpt lat="46.1551704" lon="13.4546292"><ele>683.75</ele><time>2026-05-02T12:50:14.811Z</time></trkpt><trkpt lat="46.1551312" lon="13.4547042"><ele>687.0</ele><time>2026-05-02T12:50:15.805Z</time></trkpt><trkpt lat="46.1550885" lon="13.4548047"><ele>687.0</ele><time>2026-05-02T12:50:16.807Z</time></trkpt><trkpt lat="46.1550373" lon="13.4549337"><ele>687.0</ele><time>2026-05-02T12:50:17.813Z</time></trkpt><trkpt lat="46.1549821" lon="13.4550943"><ele>687.0</ele><time>2026-05-02T12:50:18.806Z</time></trkpt><trkpt lat="46.1549353" lon="13.4552554"><ele>687.0</ele><time>2026-05-02T12:50:19.813Z</time></trkpt><trkpt lat="46.1548874" lon="13.455381"><ele>687.0</ele><time>2026-05-02T12:50:20.816Z</time></trkpt><trkpt lat="46.1548021" lon="13.4556189"><ele>687.4000000000001</ele><time>2026-05-02T12:50:22.813Z</time></trkpt><trkpt lat="46.1547531" lon="13.4557244"><ele>687.8000000000001</ele><time>2026-05-02T12:50:23.807Z</time></trkpt><trkpt lat="46.1546905" lon="13.4558087"><ele>688.2</ele><time>2026-05-02T12:50:24.811Z</time></trkpt><trkpt lat="46.1546173" lon="13.4558762"><ele>688.6</ele><time>2026-05-02T12:50:25.81Z</time></trkpt><trkpt lat="46.154529" lon="13.4559432"><ele>689.0</ele><time>2026-05-02T12:50:26.808Z</time></trkpt><trkpt lat="46.1544364" lon="13.4559982"><ele>689.0</ele><time>2026-05-02T12:50:27.81Z</time></trkpt><trkpt lat="46.1543524" lon="13.4560375"><ele>689.0</ele><time>2026-05-02T12:50:28.8Z</time></trkpt><trkpt lat="46.1542535" lon="13.4560731"><ele>689.0</ele><time>2026-05-02T12:50:29.807Z</time></trkpt><trkpt lat="46.1541752" lon="13.4561296"><ele>689.0</ele><time>2026-05-02T12:50:30.808Z</time></trkpt><trkpt lat="46.1540978" lon="13.4561882"><ele>689.0</ele><time>2026-05-02T12:50:31.803Z</time></trkpt><trkpt lat="46.1539581" lon="13.4563223"><ele>687.75</ele><time>2026-05-02T12:50:33.811Z</time></trkpt><trkpt lat="46.1538889" lon="13.4563793"><ele>686.5</ele><time>2026-05-02T12:50:34.804Z</time></trkpt><trkpt lat="46.1537456" lon="13.4564363"><ele>685.25</ele><time>2026-05-02T12:50:36.809Z</time></trkpt><trkpt lat="46.1536334" lon="13.4564298"><ele>684.0</ele><time>2026-05-02T12:50:37.802Z</time></trkpt><trkpt lat="46.1535106" lon="13.4564118"><ele>684.0</ele><time>2026-05-02T12:50:38.808Z</time></trkpt><trkpt lat="46.1533882" lon="13.4563741"><ele>684.0</ele><time>2026-05-02T12:50:39.809Z</time></trkpt><trkpt lat="46.1532782" lon="13.4563491"><ele>684.0</ele><time>2026-05-02T12:50:40.815Z</time></trkpt><trkpt lat="46.1531823" lon="13.4563291"><ele>684.0</ele><time>2026-05-02T12:50:41.811Z</time></trkpt><trkpt lat="46.1530922" lon="13.4563198"><ele>684.0</ele><time>2026-05-02T12:50:42.804Z</time></trkpt><trkpt lat="46.1530169" lon="13.4563161"><ele>683.2</ele><time>2026-05-02T12:50:43.815Z</time></trkpt><trkpt lat="46.1529152" lon="13.4563316"><ele>682.4000000000001</ele><time>2026-05-02T12:50:45.804Z</time></trkpt><trkpt lat="46.1528173" lon="13.4564392"><ele>681.6</ele><time>2026-05-02T12:50:47.805Z</time></trkpt><trkpt lat="46.1527683" lon="13.4566016"><ele>680.8</ele><time>2026-05-02T12:50:49.805Z</time></trkpt><trkpt lat="46.152729" lon="13.4566961"><ele>680.0</ele><time>2026-05-02T12:50:50.801Z</time></trkpt><trkpt lat="46.1526831" lon="13.4568132"><ele>680.0</ele><time>2026-05-02T12:50:51.806Z</time></trkpt><trkpt lat="46.1526397" lon="13.4569225"><ele>680.0</ele><time>2026-05-02T12:50:52.811Z</time></trkpt><trkpt lat="46.1525531" lon="13.4571323"><ele>680.0</ele><time>2026-05-02T12:50:54.813Z</time></trkpt><trkpt lat="46.1525024" lon="13.4572341"><ele>680.0</ele><time>2026-05-02T12:50:55.8Z</time></trkpt><trkpt lat="46.1524635" lon="13.4573245"><ele>680.0</ele><time>2026-05-02T12:50:56.816Z</time></trkpt><trkpt lat="46.1524223" lon="13.4574133"><ele>680.3333333333333</ele><time>2026-05-02T12:50:57.808Z</time></trkpt><trkpt lat="46.1523734" lon="13.4574835"><ele>680.6666666666666</ele><time>2026-05-02T12:50:58.812Z</time></trkpt><trkpt lat="46.1523122" lon="13.4575486"><ele>681.0</ele><time>2026-05-02T12:50:59.809Z</time></trkpt><trkpt lat="46.1522324" lon="13.4575986"><ele>681.3333333333334</ele><time>2026-05-02T12:51:00.812Z</time></trkpt><trkpt lat="46.1521433" lon="13.4576365"><ele>681.6666666666667</ele><time>2026-05-02T12:51:01.818Z</time></trkpt><trkpt lat="46.1520551" lon="13.4576625"><ele>682.0</ele><time>2026-05-02T12:51:02.806Z</time></trkpt><trkpt lat="46.1519661" lon="13.4576772"><ele>682.0</ele><time>2026-05-02T12:51:03.812Z</time></trkpt><trkpt lat="46.1518818" lon="13.4576735"><ele>682.0</ele><time>2026-05-02T12:51:04.822Z</time></trkpt><trkpt lat="46.1518006" lon="13.4576493"><ele>682.0</ele><time>2026-05-02T12:51:05.804Z</time></trkpt><trkpt lat="46.1517247" lon="13.4576037"><ele>682.0</ele><time>2026-05-02T12:51:06.807Z</time></trkpt><trkpt lat="46.1516628" lon="13.4575327"><ele>682.0</ele><time>2026-05-02T12:51:07.812Z</time></trkpt><trkpt lat="46.1516085" lon="13.4574557"><ele>682.0</ele><time>2026-05-02T12:51:08.807Z</time></trkpt><trkpt lat="46.1515167" lon="13.457372"><ele>682.0</ele><time>2026-05-02T12:51:10.809Z</time></trkpt><trkpt lat="46.1514464" lon="13.4573793"><ele>682.0</ele><time>2026-05-02T12:51:11.821Z</time></trkpt><trkpt lat="46.1513765" lon="13.4574064"><ele>682.0</ele><time>2026-05-02T12:51:12.804Z</time></trkpt><trkpt lat="46.1512596" lon="13.4574999"><ele>682.0</ele><time>2026-05-02T12:51:14.806Z</time></trkpt><trkpt lat="46.1511349" lon="13.4575923"><ele>682.0</ele><time>2026-05-02T12:51:16.8Z</time></trkpt><trkpt lat="46.1510701" lon="13.4576182"><ele>682.0</ele><time>2026-05-02T12:51:17.806Z</time></trkpt><trkpt lat="46.1510059" lon="13.4576135"><ele>682.0</ele><time>2026-05-02T12:51:18.81Z</time></trkpt><trkpt lat="46.1509088" lon="13.4576114"><ele>682.0</ele><time>2026-05-02T12:51:20.806Z</time></trkpt><trkpt lat="46.1508089" lon="13.4576019"><ele>682.0</ele><time>2026-05-02T12:51:22.806Z</time></trkpt><trkpt lat="46.1506909" lon="13.4575733"><ele>682.0</ele><time>2026-05-02T12:51:24.81Z</time></trkpt><trkpt lat="46.1505997" lon="13.4575688"><ele>681.5</ele><time>2026-05-02T12:51:25.808Z</time></trkpt><trkpt lat="46.1505059" lon="13.4575658"><ele>681.0</ele><time>2026-05-02T12:51:26.803Z</time></trkpt><trkpt lat="46.1504151" lon="13.4575707"><ele>680.5</ele><time>2026-05-02T12:51:27.81Z</time></trkpt><trkpt lat="46.1503239" lon="13.4575685"><ele>680.0</ele><time>2026-05-02T12:51:28.818Z</time></trkpt><trkpt lat="46.1502457" lon="13.4575648"><ele>679.5</ele><time>2026-05-02T12:51:29.802Z</time></trkpt><trkpt lat="46.1501754" lon="13.4575526"><ele>679.0</ele><time>2026-05-02T12:51:30.814Z</time></trkpt><trkpt lat="46.1501017" lon="13.4575393"><ele>679.0</ele><time>2026-05-02T12:51:31.804Z</time></trkpt><trkpt lat="46.149956" lon="13.4575483"><ele>679.0</ele><time>2026-05-02T12:51:33.809Z</time></trkpt><trkpt lat="46.1498611" lon="13.4575946"><ele>679.0</ele><time>2026-05-02T12:51:34.813Z</time></trkpt><trkpt lat="46.1497697" lon="13.4576564"><ele>679.0</ele><time>2026-05-02T12:51:35.808Z</time></trkpt><trkpt lat="46.1495846" lon="13.4578402"><ele>677.6</ele><time>2026-05-02T12:51:37.807Z</time></trkpt><trkpt lat="46.1495003" lon="13.4579253"><ele>676.2</ele><time>2026-05-02T12:51:38.801Z</time></trkpt><trkpt lat="46.1494175" lon="13.4580149"><ele>674.8000000000001</ele><time>2026-05-02T12:51:39.807Z</time></trkpt><trkpt lat="46.1493343" lon="13.4581061"><ele>673.4000000000001</ele><time>2026-05-02T12:51:40.823Z</time></trkpt><trkpt lat="46.1492446" lon="13.4581698"><ele>672.0</ele><time>2026-05-02T12:51:41.811Z</time></trkpt><trkpt lat="46.1491599" lon="13.4582174"><ele>672.0</ele><time>2026-05-02T12:51:42.798Z</time></trkpt><trkpt lat="46.1490752" lon="13.4582667"><ele>672.0</ele><time>2026-05-02T12:51:43.805Z</time></trkpt><trkpt lat="46.1490003" lon="13.458342"><ele>672.0</ele><time>2026-05-02T12:51:44.808Z</time></trkpt><trkpt lat="46.1489318" lon="13.4584307"><ele>672.0</ele><time>2026-05-02T12:51:45.804Z</time></trkpt><trkpt lat="46.1488845" lon="13.4585427"><ele>672.0</ele><time>2026-05-02T12:51:46.802Z</time></trkpt><trkpt lat="46.1488473" lon="13.458672"><ele>670.0</ele><time>2026-05-02T12:51:47.805Z</time></trkpt><trkpt lat="46.1488196" lon="13.4588161"><ele>668.0</ele><time>2026-05-02T12:51:48.805Z</time></trkpt><trkpt lat="46.1488072" lon="13.4589567"><ele>666.0</ele><time>2026-05-02T12:51:49.802Z</time></trkpt><trkpt lat="46.1487775" lon="13.4590799"><ele>664.0</ele><time>2026-05-02T12:51:50.805Z</time></trkpt><trkpt lat="46.1487323" lon="13.4591876"><ele>662.0</ele><time>2026-05-02T12:51:51.808Z</time></trkpt><trkpt lat="46.1486562" lon="13.4592668"><ele>662.0</ele><time>2026-05-02T12:51:52.807Z</time></trkpt><trkpt lat="46.1485523" lon="13.4593447"><ele>662.0</ele><time>2026-05-02T12:51:53.821Z</time></trkpt><trkpt lat="46.148434" lon="13.459416"><ele>662.0</ele><time>2026-05-02T12:51:54.807Z</time></trkpt><trkpt lat="46.1483186" lon="13.4594992"><ele>662.0</ele><time>2026-05-02T12:51:55.805Z</time></trkpt><trkpt lat="46.148202" lon="13.459567"><ele>663.6666666666666</ele><time>2026-05-02T12:51:56.801Z</time></trkpt><trkpt lat="46.147974" lon="13.459709"><ele>665.3333333333334</ele><time>2026-05-02T12:51:58.814Z</time></trkpt><trkpt lat="46.1478592" lon="13.4597779"><ele>667.0</ele><time>2026-05-02T12:51:59.805Z</time></trkpt><trkpt lat="46.1477477" lon="13.4598527"><ele>667.0</ele><time>2026-05-02T12:52:00.806Z</time></trkpt><trkpt lat="46.1476326" lon="13.4599398"><ele>667.0</ele><time>2026-05-02T12:52:01.8Z</time></trkpt><trkpt lat="46.1475239" lon="13.4600462"><ele>667.0</ele><time>2026-05-02T12:52:02.829Z</time></trkpt><trkpt lat="46.1474254" lon="13.460158"><ele>667.0</ele><time>2026-05-02T12:52:03.802Z</time></trkpt><trkpt lat="46.1473274" lon="13.4602616"><ele>666.2</ele><time>2026-05-02T12:52:04.798Z</time></trkpt><trkpt lat="46.1472266" lon="13.4603721"><ele>665.4000000000001</ele><time>2026-05-02T12:52:05.802Z</time></trkpt><trkpt lat="46.1471243" lon="13.4604544"><ele>664.5999999999999</ele><time>2026-05-02T12:52:06.798Z</time></trkpt><trkpt lat="46.1470277" lon="13.4605253"><ele>663.8</ele><time>2026-05-02T12:52:07.799Z</time></trkpt><trkpt lat="46.1469393" lon="13.4605702"><ele>663.0</ele><time>2026-05-02T12:52:08.799Z</time></trkpt><trkpt lat="46.1468409" lon="13.4605879"><ele>663.0</ele><time>2026-05-02T12:52:09.799Z</time></trkpt><trkpt lat="46.1467493" lon="13.4606055"><ele>663.0</ele><time>2026-05-02T12:52:10.806Z</time></trkpt><trkpt lat="46.1466526" lon="13.4606434"><ele>663.0</ele><time>2026-05-02T12:52:11.798Z</time></trkpt><trkpt lat="46.1465605" lon="13.460681"><ele>663.0</ele><time>2026-05-02T12:52:12.799Z</time></trkpt><trkpt lat="46.1464571" lon="13.4607153"><ele>663.0</ele><time>2026-05-02T12:52:13.798Z</time></trkpt><trkpt lat="46.1463627" lon="13.4607413"><ele>661.8</ele><time>2026-05-02T12:52:14.805Z</time></trkpt><trkpt lat="46.1462684" lon="13.4607583"><ele>660.5999999999999</ele><time>2026-05-02T12:52:15.804Z</time></trkpt><trkpt lat="46.1461987" lon="13.4607859"><ele>659.4000000000001</ele><time>2026-05-02T12:52:16.808Z</time></trkpt><trkpt lat="46.1460934" lon="13.4607827"><ele>658.2</ele><time>2026-05-02T12:52:18.8Z</time></trkpt><trkpt lat="46.1459902" lon="13.4606651"><ele>657.0</ele><time>2026-05-02T12:52:22.816Z</time></trkpt><trkpt lat="46.1459476" lon="13.4605963"><ele>657.0</ele><time>2026-05-02T12:52:24.808Z</time></trkpt><trkpt lat="46.1458913" lon="13.4605258"><ele>657.0</ele><time>2026-05-02T12:52:26.8Z</time></trkpt><trkpt lat="46.1458005" lon="13.4604975"><ele>657.0</ele><time>2026-05-02T12:52:28.807Z</time></trkpt><trkpt lat="46.1457102" lon="13.4604452"><ele>657.0</ele><time>2026-05-02T12:52:30.817Z</time></trkpt><trkpt lat="46.1456041" lon="13.4603591"><ele>657.0</ele><time>2026-05-02T12:52:32.81Z</time></trkpt><trkpt lat="46.1455024" lon="13.460299"><ele>654.0</ele><time>2026-05-02T12:52:34.819Z</time></trkpt><trkpt lat="46.1454048" lon="13.460314"><ele>651.0</ele><time>2026-05-02T12:52:36.816Z</time></trkpt><trkpt lat="46.1452934" lon="13.4603268"><ele>648.0</ele><time>2026-05-02T12:52:38.804Z</time></trkpt><trkpt lat="46.1451863" lon="13.4603158"><ele>645.0</ele><time>2026-05-02T12:52:40.803Z</time></trkpt><trkpt lat="46.1449965" lon="13.4602251"><ele>645.0</ele><time>2026-05-02T12:52:43.81Z</time></trkpt><trkpt lat="46.1449331" lon="13.4601907"><ele>645.0</ele><time>2026-05-02T12:52:44.804Z</time></trkpt><trkpt lat="46.1448711" lon="13.4601568"><ele>645.0</ele><time>2026-05-02T12:52:45.808Z</time></trkpt><trkpt lat="46.1448032" lon="13.4601272"><ele>645.0</ele><time>2026-05-02T12:52:46.8Z</time></trkpt><trkpt lat="46.1447364" lon="13.4600767"><ele>645.0</ele><time>2026-05-02T12:52:47.809Z</time></trkpt><trkpt lat="46.1446299" lon="13.4599618"><ele>645.0</ele><time>2026-05-02T12:52:49.802Z</time></trkpt><trkpt lat="46.1445729" lon="13.4598884"><ele>645.8333333333334</ele><time>2026-05-02T12:52:50.811Z</time></trkpt><trkpt lat="46.1445274" lon="13.4598054"><ele>646.6666666666666</ele><time>2026-05-02T12:52:51.805Z</time></trkpt><trkpt lat="46.1444933" lon="13.4597184"><ele>647.5</ele><time>2026-05-02T12:52:52.817Z</time></trkpt><trkpt lat="46.1444766" lon="13.4596099"><ele>648.3333333333333</ele><time>2026-05-02T12:52:53.805Z</time></trkpt><trkpt lat="46.1444683" lon="13.4594996"><ele>649.1666666666666</ele><time>2026-05-02T12:52:54.806Z</time></trkpt><trkpt lat="46.1444387" lon="13.459392"><ele>650.0</ele><time>2026-05-02T12:52:55.807Z</time></trkpt><trkpt lat="46.1444114" lon="13.4592882"><ele>650.0</ele><time>2026-05-02T12:52:56.799Z</time></trkpt><trkpt lat="46.1443727" lon="13.4591859"><ele>650.0</ele><time>2026-05-02T12:52:57.802Z</time></trkpt><trkpt lat="46.1443258" lon="13.4590804"><ele>650.0</ele><time>2026-05-02T12:52:58.809Z</time></trkpt><trkpt lat="46.1442881" lon="13.4589655"><ele>650.0</ele><time>2026-05-02T12:52:59.815Z</time></trkpt><trkpt lat="46.1442499" lon="13.4588594"><ele>650.0</ele><time>2026-05-02T12:53:00.806Z</time></trkpt><trkpt lat="46.1441738" lon="13.4586895"><ele>648.0</ele><time>2026-05-02T12:53:02.812Z</time></trkpt><trkpt lat="46.1441396" lon="13.4586069"><ele>646.0</ele><time>2026-05-02T12:53:03.813Z</time></trkpt><trkpt lat="46.1441076" lon="13.4585251"><ele>644.0</ele><time>2026-05-02T12:53:04.805Z</time></trkpt><trkpt lat="46.1440476" lon="13.4583607"><ele>642.0</ele><time>2026-05-02T12:53:06.806Z</time></trkpt><trkpt lat="46.1439627" lon="13.4582498"><ele>640.0</ele><time>2026-05-02T12:53:08.806Z</time></trkpt><trkpt lat="46.1438584" lon="13.4581893"><ele>640.0</ele><time>2026-05-02T12:53:10.805Z</time></trkpt><trkpt lat="46.1437408" lon="13.45815"><ele>640.0</ele><time>2026-05-02T12:53:12.808Z</time></trkpt><trkpt lat="46.1436784" lon="13.4581236"><ele>640.0</ele><time>2026-05-02T12:53:13.801Z</time></trkpt><trkpt lat="46.1436166" lon="13.4580959"><ele>640.0</ele><time>2026-05-02T12:53:14.8Z</time></trkpt><trkpt lat="46.1435393" lon="13.458061"><ele>640.0</ele><time>2026-05-02T12:53:15.814Z</time></trkpt><trkpt lat="46.1434562" lon="13.4580246"><ele>640.0</ele><time>2026-05-02T12:53:16.806Z</time></trkpt><trkpt lat="46.1433746" lon="13.4579994"><ele>640.0</ele><time>2026-05-02T12:53:17.807Z</time></trkpt><trkpt lat="46.1432946" lon="13.4579723"><ele>640.0</ele><time>2026-05-02T12:53:18.798Z</time></trkpt><trkpt lat="46.1432201" lon="13.4579492"><ele>640.0</ele><time>2026-05-02T12:53:19.808Z</time></trkpt><trkpt lat="46.1431528" lon="13.457903"><ele>640.0</ele><time>2026-05-02T12:53:20.809Z</time></trkpt><trkpt lat="46.1430818" lon="13.4578683"><ele>640.0</ele><time>2026-05-02T12:53:21.812Z</time></trkpt><trkpt lat="46.1429236" lon="13.4577762"><ele>635.5</ele><time>2026-05-02T12:53:23.803Z</time></trkpt><trkpt lat="46.1428446" lon="13.4577339"><ele>631.0</ele><time>2026-05-02T12:53:24.809Z</time></trkpt><trkpt lat="46.1427572" lon="13.4576882"><ele>626.5</ele><time>2026-05-02T12:53:25.809Z</time></trkpt><trkpt lat="46.142678" lon="13.4576261"><ele>622.0</ele><time>2026-05-02T12:53:26.816Z</time></trkpt><trkpt lat="46.1426193" lon="13.4575766"><ele>617.5</ele><time>2026-05-02T12:53:27.807Z</time></trkpt><trkpt lat="46.1425447" lon="13.4575177"><ele>613.0</ele><time>2026-05-02T12:53:28.804Z</time></trkpt><trkpt lat="46.1424793" lon="13.4574606"><ele>613.0</ele><time>2026-05-02T12:53:29.808Z</time></trkpt><trkpt lat="46.1424145" lon="13.4574107"><ele>613.0</ele><time>2026-05-02T12:53:30.809Z</time></trkpt><trkpt lat="46.1423342" lon="13.4573763"><ele>613.0</ele><time>2026-05-02T12:53:31.805Z</time></trkpt><trkpt lat="46.1422588" lon="13.4573672"><ele>613.0</ele><time>2026-05-02T12:53:32.808Z</time></trkpt><trkpt lat="46.1421906" lon="13.4573677"><ele>613.0</ele><time>2026-05-02T12:53:33.804Z</time></trkpt><trkpt lat="46.1421213" lon="13.4573926"><ele>613.0</ele><time>2026-05-02T12:53:34.815Z</time></trkpt><trkpt lat="46.1420551" lon="13.4574365"><ele>613.0</ele><time>2026-05-02T12:53:35.802Z</time></trkpt><trkpt lat="46.141985" lon="13.4574844"><ele>610.0</ele><time>2026-05-02T12:53:36.809Z</time></trkpt><trkpt lat="46.1419194" lon="13.4575109"><ele>607.0</ele><time>2026-05-02T12:53:37.805Z</time></trkpt><trkpt lat="46.1417972" lon="13.45757"><ele>604.0</ele><time>2026-05-02T12:53:39.803Z</time></trkpt><trkpt lat="46.1417355" lon="13.4575954"><ele>601.0</ele><time>2026-05-02T12:53:40.806Z</time></trkpt><trkpt lat="46.141634" lon="13.4576573"><ele>598.0</ele><time>2026-05-02T12:53:42.804Z</time></trkpt><trkpt lat="46.141473" lon="13.4577819"><ele>599.4285714285714</ele><time>2026-05-02T12:53:45.807Z</time></trkpt><trkpt lat="46.1414205" lon="13.4578393"><ele>600.8571428571429</ele><time>2026-05-02T12:53:46.802Z</time></trkpt><trkpt lat="46.1413708" lon="13.4579159"><ele>602.2857142857142</ele><time>2026-05-02T12:53:47.803Z</time></trkpt><trkpt lat="46.1413112" lon="13.4579823"><ele>603.7142857142858</ele><time>2026-05-02T12:53:48.805Z</time></trkpt><trkpt lat="46.1412399" lon="13.4580264"><ele>605.1428571428572</ele><time>2026-05-02T12:53:49.806Z</time></trkpt><trkpt lat="46.1411819" lon="13.4580626"><ele>606.5714285714286</ele><time>2026-05-02T12:53:50.803Z</time></trkpt><trkpt lat="46.1411147" lon="13.4580975"><ele>608.0</ele><time>2026-05-02T12:53:51.807Z</time></trkpt><trkpt lat="46.1410508" lon="13.4581354"><ele>608.0</ele><time>2026-05-02T12:53:52.804Z</time></trkpt><trkpt lat="46.1409921" lon="13.4581732"><ele>608.0</ele><time>2026-05-02T12:53:53.814Z</time></trkpt><trkpt lat="46.1408966" lon="13.4582168"><ele>608.0</ele><time>2026-05-02T12:53:55.814Z</time></trkpt><trkpt lat="46.1407752" lon="13.4582157"><ele>608.0</ele><time>2026-05-02T12:53:57.815Z</time></trkpt><trkpt lat="46.1406732" lon="13.4582359"><ele>608.0</ele><time>2026-05-02T12:53:59.799Z</time></trkpt><trkpt lat="46.1405609" lon="13.458266"><ele>607.25</ele><time>2026-05-02T12:54:01.811Z</time></trkpt><trkpt lat="46.1404963" lon="13.4582737"><ele>606.5</ele><time>2026-05-02T12:54:02.798Z</time></trkpt><trkpt lat="46.1403751" lon="13.4582517"><ele>605.75</ele><time>2026-05-02T12:54:04.804Z</time></trkpt><trkpt lat="46.140134" lon="13.4581761"><ele>605.0</ele><time>2026-05-02T12:54:08.811Z</time></trkpt><trkpt lat="46.1400111" lon="13.4581667"><ele>605.0</ele><time>2026-05-02T12:54:10.806Z</time></trkpt><trkpt lat="46.139892" lon="13.4581519"><ele>605.0</ele><time>2026-05-02T12:54:12.803Z</time></trkpt><trkpt lat="46.139829" lon="13.458139"><ele>605.0</ele><time>2026-05-02T12:54:13.809Z</time></trkpt><trkpt lat="46.1397595" lon="13.4581256"><ele>605.0</ele><time>2026-05-02T12:54:14.805Z</time></trkpt><trkpt lat="46.1396822" lon="13.4581214"><ele>605.0</ele><time>2026-05-02T12:54:15.807Z</time></trkpt><trkpt lat="46.1395974" lon="13.4581358"><ele>605.0</ele><time>2026-05-02T12:54:16.812Z</time></trkpt><trkpt lat="46.139518" lon="13.4581517"><ele>602.0</ele><time>2026-05-02T12:54:17.81Z</time></trkpt><trkpt lat="46.1394522" lon="13.4581809"><ele>599.0</ele><time>2026-05-02T12:54:18.816Z</time></trkpt><trkpt lat="46.1393816" lon="13.4582024"><ele>596.0</ele><time>2026-05-02T12:54:19.803Z</time></trkpt><trkpt lat="46.1393189" lon="13.4582147"><ele>593.0</ele><time>2026-05-02T12:54:20.8Z</time></trkpt><trkpt lat="46.1392246" lon="13.4582436"><ele>590.0</ele><time>2026-05-02T12:54:22.818Z</time></trkpt><trkpt lat="46.1391253" lon="13.4582773"><ele>587.0</ele><time>2026-05-02T12:54:24.805Z</time></trkpt><trkpt lat="46.1390412" lon="13.4583392"><ele>582.0</ele><time>2026-05-02T12:54:26.802Z</time></trkpt><trkpt lat="46.1388632" lon="13.4585143"><ele>577.0</ele><time>2026-05-02T12:54:30.803Z</time></trkpt><trkpt lat="46.1388026" lon="13.4585609"><ele>572.0</ele><time>2026-05-02T12:54:31.807Z</time></trkpt><trkpt lat="46.1386972" lon="13.4586429"><ele>567.0</ele><time>2026-05-02T12:54:33.801Z</time></trkpt><trkpt lat="46.1386346" lon="13.4586679"><ele>567.0</ele><time>2026-05-02T12:54:34.809Z</time></trkpt><trkpt lat="46.1385692" lon="13.4586829"><ele>567.0</ele><time>2026-05-02T12:54:35.804Z</time></trkpt><trkpt lat="46.1385051" lon="13.4586863"><ele>567.0</ele><time>2026-05-02T12:54:36.811Z</time></trkpt><trkpt lat="46.1384376" lon="13.4586829"><ele>567.0</ele><time>2026-05-02T12:54:37.807Z</time></trkpt><trkpt lat="46.1383037" lon="13.4586799"><ele>567.0</ele><time>2026-05-02T12:54:39.807Z</time></trkpt><trkpt lat="46.1382217" lon="13.4586598"><ele>567.0</ele><time>2026-05-02T12:54:40.812Z</time></trkpt><trkpt lat="46.1381399" lon="13.4586249"><ele>566.0</ele><time>2026-05-02T12:54:41.81Z</time></trkpt><trkpt lat="46.1380652" lon="13.4585842"><ele>565.0</ele><time>2026-05-02T12:54:42.802Z</time></trkpt><trkpt lat="46.1379851" lon="13.4585498"><ele>564.0</ele><time>2026-05-02T12:54:43.801Z</time></trkpt><trkpt lat="46.1379214" lon="13.458541"><ele>563.0</ele><time>2026-05-02T12:54:44.803Z</time></trkpt><trkpt lat="46.137814" lon="13.4585157"><ele>562.0</ele><time>2026-05-02T12:54:46.816Z</time></trkpt><trkpt lat="46.1377242" lon="13.4585002"><ele>561.0</ele><time>2026-05-02T12:54:48.803Z</time></trkpt><trkpt lat="46.1375314" lon="13.4584917"><ele>561.0</ele><time>2026-05-02T12:54:51.805Z</time></trkpt><trkpt lat="46.1374097" lon="13.458532"><ele>561.0</ele><time>2026-05-02T12:54:53.819Z</time></trkpt><trkpt lat="46.137308" lon="13.4585675"><ele>561.0</ele><time>2026-05-02T12:54:55.803Z</time></trkpt><trkpt lat="46.137219" lon="13.4585887"><ele>561.0</ele><time>2026-05-02T12:54:57.801Z</time></trkpt><trkpt lat="46.1371376" lon="13.4586148"><ele>561.0</ele><time>2026-05-02T12:54:59.805Z</time></trkpt><trkpt lat="46.137065" lon="13.4586682"><ele>561.0</ele><time>2026-05-02T12:55:01.802Z</time></trkpt><trkpt lat="46.1370052" lon="13.4586966"><ele>561.0</ele><time>2026-05-02T12:55:03.806Z</time></trkpt><trkpt lat="46.1369188" lon="13.4587333"><ele>561.0</ele><time>2026-05-02T12:55:05.803Z</time></trkpt><trkpt lat="46.136806" lon="13.458783"><ele>561.0</ele><time>2026-05-02T12:55:07.807Z</time></trkpt><trkpt lat="46.1367077" lon="13.4588243"><ele>561.0</ele><time>2026-05-02T12:55:09.802Z</time></trkpt><trkpt lat="46.1365254" lon="13.4588922"><ele>561.0</ele><time>2026-05-02T12:55:13.805Z</time></trkpt><trkpt lat="46.1364168" lon="13.4589631"><ele>561.0</ele><time>2026-05-02T12:55:15.798Z</time></trkpt><trkpt lat="46.1363144" lon="13.4590376"><ele>561.0</ele><time>2026-05-02T12:55:17.802Z</time></trkpt><trkpt lat="46.1362557" lon="13.4590724"><ele>561.0</ele><time>2026-05-02T12:55:18.806Z</time></trkpt><trkpt lat="46.1361592" lon="13.4590973"><ele>561.0</ele><time>2026-05-02T12:55:20.804Z</time></trkpt><trkpt lat="46.1360742" lon="13.4590491"><ele>561.0</ele><time>2026-05-02T12:55:22.816Z</time></trkpt><trkpt lat="46.135973" lon="13.4590105"><ele>561.0</ele><time>2026-05-02T12:55:24.804Z</time></trkpt><trkpt lat="46.1359054" lon="13.4589874"><ele>561.0</ele><time>2026-05-02T12:55:56.809Z</time></trkpt><trkpt lat="46.135775" lon="13.4588371"><ele>561.0</ele><time>2026-05-02T12:56:02.805Z</time></trkpt><trkpt lat="46.1357901" lon="13.4586445"><ele>561.0</ele><time>2026-05-02T12:56:04.805Z</time></trkpt><trkpt lat="46.1358276" lon="13.4585303"><ele>561.0</ele><time>2026-05-02T12:56:05.8Z</time></trkpt><trkpt lat="46.1358669" lon="13.4584107"><ele>561.0</ele><time>2026-05-02T12:56:06.805Z</time></trkpt><trkpt lat="46.1358877" lon="13.4582811"><ele>561.0</ele><time>2026-05-02T12:56:07.799Z</time></trkpt><trkpt lat="46.1359007" lon="13.4581542"><ele>561.0</ele><time>2026-05-02T12:56:08.805Z</time></trkpt><trkpt lat="46.135916" lon="13.4580356"><ele>561.0</ele><time>2026-05-02T12:56:09.805Z</time></trkpt><trkpt lat="46.1359215" lon="13.4579295"><ele>561.0</ele><time>2026-05-02T12:56:10.797Z</time></trkpt><trkpt lat="46.1359321" lon="13.4578178"><ele>561.0</ele><time>2026-05-02T12:56:11.8Z</time></trkpt><trkpt lat="46.1359435" lon="13.4577007"><ele>561.0</ele><time>2026-05-02T12:56:12.808Z</time></trkpt><trkpt lat="46.1359521" lon="13.4575777"><ele>561.0</ele><time>2026-05-02T12:56:13.808Z</time></trkpt><trkpt lat="46.1359567" lon="13.4574532"><ele>561.0</ele><time>2026-05-02T12:56:14.815Z</time></trkpt><trkpt lat="46.135955" lon="13.4573337"><ele>561.0</ele><time>2026-05-02T12:56:15.802Z</time></trkpt><trkpt lat="46.1359533" lon="13.4572213"><ele>560.0</ele><time>2026-05-02T12:56:16.801Z</time></trkpt><trkpt lat="46.1359602" lon="13.4571157"><ele>559.0</ele><time>2026-05-02T12:56:17.802Z</time></trkpt><trkpt lat="46.1359629" lon="13.4568946"><ele>558.0</ele><time>2026-05-02T12:56:19.807Z</time></trkpt><trkpt lat="46.1359576" lon="13.4567887"><ele>557.0</ele><time>2026-05-02T12:56:20.815Z</time></trkpt><trkpt lat="46.1359562" lon="13.4566713"><ele>556.0</ele><time>2026-05-02T12:56:21.808Z</time></trkpt><trkpt lat="46.1359578" lon="13.4565512"><ele>556.0</ele><time>2026-05-02T12:56:22.807Z</time></trkpt><trkpt lat="46.1359648" lon="13.4564254"><ele>556.0</ele><time>2026-05-02T12:56:23.804Z</time></trkpt><trkpt lat="46.1359779" lon="13.4562977"><ele>556.0</ele><time>2026-05-02T12:56:24.812Z</time></trkpt><trkpt lat="46.1359973" lon="13.4561807"><ele>556.0</ele><time>2026-05-02T12:56:25.809Z</time></trkpt><trkpt lat="46.1360231" lon="13.4560697"><ele>556.0</ele><time>2026-05-02T12:56:26.805Z</time></trkpt><trkpt lat="46.1360452" lon="13.4559667"><ele>556.0</ele><time>2026-05-02T12:56:27.8Z</time></trkpt><trkpt lat="46.136067" lon="13.4558621"><ele>555.0</ele><time>2026-05-02T12:56:28.809Z</time></trkpt><trkpt lat="46.1360957" lon="13.4557624"><ele>554.0</ele><time>2026-05-02T12:56:29.804Z</time></trkpt><trkpt lat="46.1360949" lon="13.4556643"><ele>553.0</ele><time>2026-05-02T12:56:30.803Z</time></trkpt><trkpt lat="46.1360887" lon="13.4555675"><ele>552.0</ele><time>2026-05-02T12:56:31.8Z</time></trkpt><trkpt lat="46.1360384" lon="13.4554163"><ele>551.0</ele><time>2026-05-02T12:56:33.797Z</time></trkpt><trkpt lat="46.1359901" lon="13.4553426"><ele>550.0</ele><time>2026-05-02T12:56:34.804Z</time></trkpt><trkpt lat="46.1359264" lon="13.4552598"><ele>548.4</ele><time>2026-05-02T12:56:35.801Z</time></trkpt><trkpt lat="46.1358639" lon="13.4551777"><ele>546.8</ele><time>2026-05-02T12:56:36.817Z</time></trkpt><trkpt lat="46.1358038" lon="13.4550978"><ele>545.2</ele><time>2026-05-02T12:56:37.799Z</time></trkpt><trkpt lat="46.1357508" lon="13.4550152"><ele>543.6</ele><time>2026-05-02T12:56:38.803Z</time></trkpt><trkpt lat="46.1356465" lon="13.4548332"><ele>542.0</ele><time>2026-05-02T12:56:40.82Z</time></trkpt><trkpt lat="46.1356007" lon="13.4547465"><ele>542.0</ele><time>2026-05-02T12:56:41.805Z</time></trkpt><trkpt lat="46.1355573" lon="13.4546707"><ele>542.0</ele><time>2026-05-02T12:56:42.803Z</time></trkpt><trkpt lat="46.1354946" lon="13.4545108"><ele>542.0</ele><time>2026-05-02T12:56:44.802Z</time></trkpt><trkpt lat="46.1354394" lon="13.454359"><ele>542.0</ele><time>2026-05-02T12:56:46.805Z</time></trkpt><trkpt lat="46.1353929" lon="13.4542899"><ele>542.0</ele><time>2026-05-02T12:56:47.797Z</time></trkpt><trkpt lat="46.1352893" lon="13.4542194"><ele>540.0</ele><time>2026-05-02T12:56:49.809Z</time></trkpt><trkpt lat="46.1352202" lon="13.4541974"><ele>538.0</ele><time>2026-05-02T12:56:50.808Z</time></trkpt><trkpt lat="46.1351463" lon="13.4541891"><ele>536.0</ele><time>2026-05-02T12:56:51.807Z</time></trkpt><trkpt lat="46.1350768" lon="13.4541823"><ele>534.0</ele><time>2026-05-02T12:56:52.806Z</time></trkpt><trkpt lat="46.1350093" lon="13.4541865"><ele>532.0</ele><time>2026-05-02T12:56:53.805Z</time></trkpt><trkpt lat="46.1349454" lon="13.4541945"><ele>530.0</ele><time>2026-05-02T12:56:54.808Z</time></trkpt><trkpt lat="46.1348465" lon="13.4541844"><ele>528.0</ele><time>2026-05-02T12:56:56.813Z</time></trkpt><trkpt lat="46.1347999" lon="13.4541111"><ele>526.75</ele><time>2026-05-02T12:57:15.802Z</time></trkpt><trkpt lat="46.1348889" lon="13.4538305"><ele>525.5</ele><time>2026-05-02T12:57:20.802Z</time></trkpt><trkpt lat="46.1349399" lon="13.4537332"><ele>524.25</ele><time>2026-05-02T12:57:21.802Z</time></trkpt><trkpt lat="46.1349953" lon="13.4536304"><ele>523.0</ele><time>2026-05-02T12:57:22.813Z</time></trkpt><trkpt lat="46.1350223" lon="13.4535128"><ele>521.2857142857142</ele><time>2026-05-02T12:57:23.807Z</time></trkpt><trkpt lat="46.135052" lon="13.4534287"><ele>519.5714285714286</ele><time>2026-05-02T12:57:24.797Z</time></trkpt><trkpt lat="46.1351093" lon="13.4533698"><ele>517.8571428571429</ele><time>2026-05-02T12:57:25.818Z</time></trkpt><trkpt lat="46.1351561" lon="13.4532838"><ele>516.1428571428571</ele><time>2026-05-02T12:57:26.802Z</time></trkpt><trkpt lat="46.1351996" lon="13.4532018"><ele>514.4285714285714</ele><time>2026-05-02T12:57:27.801Z</time></trkpt><trkpt lat="46.135243" lon="13.4531133"><ele>512.7142857142857</ele><time>2026-05-02T12:57:28.813Z</time></trkpt><trkpt lat="46.1352788" lon="13.4530175"><ele>511.0</ele><time>2026-05-02T12:57:29.804Z</time></trkpt><trkpt lat="46.1353089" lon="13.4529065"><ele>510.1666666666667</ele><time>2026-05-02T12:57:30.808Z</time></trkpt><trkpt lat="46.1353167" lon="13.4527972"><ele>509.33333333333337</ele><time>2026-05-02T12:57:31.811Z</time></trkpt><trkpt lat="46.1353247" lon="13.4526924"><ele>508.5</ele><time>2026-05-02T12:57:32.804Z</time></trkpt><trkpt lat="46.1353229" lon="13.4525969"><ele>507.66666666666663</ele><time>2026-05-02T12:57:33.807Z</time></trkpt><trkpt lat="46.1353177" lon="13.4524949"><ele>506.8333333333333</ele><time>2026-05-02T12:57:34.799Z</time></trkpt><trkpt lat="46.1353075" lon="13.4524041"><ele>506.0</ele><time>2026-05-02T12:57:35.811Z</time></trkpt><trkpt lat="46.1352547" lon="13.4522598"><ele>506.0</ele><time>2026-05-02T12:57:37.8Z</time></trkpt><trkpt lat="46.1351319" lon="13.4521743"><ele>506.0</ele><time>2026-05-02T12:57:39.804Z</time></trkpt><trkpt lat="46.1350202" lon="13.4522154"><ele>506.0</ele><time>2026-05-02T12:57:41.808Z</time></trkpt><trkpt lat="46.1349489" lon="13.4522558"><ele>506.0</ele><time>2026-05-02T12:57:43.799Z</time></trkpt><trkpt lat="46.1348794" lon="13.4522798"><ele>506.0</ele><time>2026-05-02T12:57:46.802Z</time></trkpt><trkpt lat="46.1347841" lon="13.4523112"><ele>506.0</ele><time>2026-05-02T12:57:49.807Z</time></trkpt><trkpt lat="46.1347149" lon="13.4523377"><ele>506.0</ele><time>2026-05-02T12:57:51.804Z</time></trkpt><trkpt lat="46.13464" lon="13.4523814"><ele>506.0</ele><time>2026-05-02T12:57:53.809Z</time></trkpt><trkpt lat="46.1347022" lon="13.4523421"><ele>506.0</ele><time>2026-05-02T12:58:07.802Z</time></trkpt><trkpt lat="46.1348827" lon="13.4522511"><ele>506.0</ele><time>2026-05-02T12:58:11.802Z</time></trkpt><trkpt lat="46.1349193" lon="13.452166"><ele>505.99999999999994</ele><time>2026-05-02T12:58:13.804Z</time></trkpt><trkpt lat="46.1349587" lon="13.4520939"><ele>506.0</ele><time>2026-05-02T12:58:20.802Z</time></trkpt><trkpt lat="46.1350381" lon="13.4520371"><ele>506.0</ele><time>2026-05-02T12:58:22.81Z</time></trkpt><trkpt lat="46.1351356" lon="13.4520138"><ele>506.0</ele><time>2026-05-02T12:58:24.803Z</time></trkpt><trkpt lat="46.1352199" lon="13.4519773"><ele>505.99999999999994</ele><time>2026-05-02T12:58:26.799Z</time></trkpt><trkpt lat="46.1353113" lon="13.4520051"><ele>506.0</ele><time>2026-05-02T12:58:28.811Z</time></trkpt><trkpt lat="46.1354686" lon="13.4521771"><ele>505.99999999999994</ele><time>2026-05-02T12:58:32.81Z</time></trkpt><trkpt lat="46.1355338" lon="13.452322"><ele>506.0</ele><time>2026-05-02T12:58:34.815Z</time></trkpt><trkpt lat="46.1355658" lon="13.4524013"><ele>506.0</ele><time>2026-05-02T12:58:35.803Z</time></trkpt><trkpt lat="46.1355938" lon="13.4524881"><ele>506.0</ele><time>2026-05-02T12:58:36.813Z</time></trkpt><trkpt lat="46.1356194" lon="13.4525785"><ele>505.99999999999994</ele><time>2026-05-02T12:58:37.809Z</time></trkpt><trkpt lat="46.1356474" lon="13.4526724"><ele>506.0</ele><time>2026-05-02T12:58:38.807Z</time></trkpt><trkpt lat="46.1356626" lon="13.4527648"><ele>505.99999999999994</ele><time>2026-05-02T12:58:39.808Z</time></trkpt><trkpt lat="46.135671" lon="13.4529496"><ele>506.0</ele><time>2026-05-02T12:58:41.797Z</time></trkpt><trkpt lat="46.1356686" lon="13.4530507"><ele>506.0</ele><time>2026-05-02T12:58:42.803Z</time></trkpt><trkpt lat="46.1356501" lon="13.4531429"><ele>506.0</ele><time>2026-05-02T12:58:43.801Z</time></trkpt><trkpt lat="46.135623" lon="13.4532256"><ele>505.99999999999994</ele><time>2026-05-02T12:58:44.815Z</time></trkpt><trkpt lat="46.135586" lon="13.4533724"><ele>506.0</ele><time>2026-05-02T12:58:46.805Z</time></trkpt><trkpt lat="46.1355781" lon="13.4534737"><ele>507.25</ele><time>2026-05-02T12:58:48.812Z</time></trkpt><trkpt lat="46.1356463" lon="13.4535487"><ele>508.5</ele><time>2026-05-02T12:58:51.805Z</time></trkpt><trkpt lat="46.1357764" lon="13.4536215"><ele>509.75</ele><time>2026-05-02T12:58:53.801Z</time></trkpt><trkpt lat="46.1359115" lon="13.4537096"><ele>511.0</ele><time>2026-05-02T12:58:55.805Z</time></trkpt><trkpt lat="46.136011" lon="13.4537644"><ele>509.8</ele><time>2026-05-02T12:58:56.807Z</time></trkpt><trkpt lat="46.1361125" lon="13.4538256"><ele>508.6</ele><time>2026-05-02T12:58:57.802Z</time></trkpt><trkpt lat="46.1362138" lon="13.4538891"><ele>507.4</ele><time>2026-05-02T12:58:58.81Z</time></trkpt><trkpt lat="46.1363051" lon="13.45394"><ele>506.2</ele><time>2026-05-02T12:58:59.805Z</time></trkpt><trkpt lat="46.1363928" lon="13.4539731"><ele>505.0</ele><time>2026-05-02T12:59:00.803Z</time></trkpt><trkpt lat="46.1364725" lon="13.4539792"><ele>505.00000000000006</ele><time>2026-05-02T12:59:01.802Z</time></trkpt><trkpt lat="46.1365427" lon="13.4539435"><ele>505.0</ele><time>2026-05-02T12:59:02.808Z</time></trkpt><trkpt lat="46.1366044" lon="13.4539042"><ele>505.0</ele><time>2026-05-02T12:59:03.804Z</time></trkpt><trkpt lat="46.1366656" lon="13.4538616"><ele>505.0</ele><time>2026-05-02T12:59:04.81Z</time></trkpt><trkpt lat="46.1367302" lon="13.4538489"><ele>505.00000000000006</ele><time>2026-05-02T12:59:05.804Z</time></trkpt><trkpt lat="46.1368461" lon="13.4539213"><ele>505.0</ele><time>2026-05-02T12:59:07.807Z</time></trkpt><trkpt lat="46.1369069" lon="13.4539869"><ele>501.4</ele><time>2026-05-02T12:59:08.811Z</time></trkpt><trkpt lat="46.1369651" lon="13.4540723"><ele>497.8</ele><time>2026-05-02T12:59:09.804Z</time></trkpt><trkpt lat="46.1370251" lon="13.4541604"><ele>494.20000000000005</ele><time>2026-05-02T12:59:10.803Z</time></trkpt><trkpt lat="46.1370915" lon="13.4542566"><ele>490.6</ele><time>2026-05-02T12:59:11.801Z</time></trkpt><trkpt lat="46.1371445" lon="13.4543409"><ele>487.0</ele><time>2026-05-02T12:59:12.804Z</time></trkpt><trkpt lat="46.1372725" lon="13.4545081"><ele>487.00000000000006</ele><time>2026-05-02T12:59:14.797Z</time></trkpt><trkpt lat="46.137331" lon="13.4545925"><ele>487.0</ele><time>2026-05-02T12:59:15.808Z</time></trkpt><trkpt lat="46.1373892" lon="13.4546809"><ele>487.0</ele><time>2026-05-02T12:59:16.812Z</time></trkpt><trkpt lat="46.1374389" lon="13.4547726"><ele>487.0</ele><time>2026-05-02T12:59:17.8Z</time></trkpt><trkpt lat="46.1374786" lon="13.4548716"><ele>487.00000000000006</ele><time>2026-05-02T12:59:18.804Z</time></trkpt><trkpt lat="46.1375117" lon="13.4549695"><ele>487.0</ele><time>2026-05-02T12:59:19.809Z</time></trkpt><trkpt lat="46.1375237" lon="13.4550766"><ele>484.6666666666667</ele><time>2026-05-02T12:59:20.812Z</time></trkpt><trkpt lat="46.1375185" lon="13.4552037"><ele>482.33333333333337</ele><time>2026-05-02T12:59:21.797Z</time></trkpt><trkpt lat="46.1375055" lon="13.455325"><ele>480.0</ele><time>2026-05-02T12:59:22.803Z</time></trkpt><trkpt lat="46.1374925" lon="13.4554398"><ele>477.66666666666663</ele><time>2026-05-02T12:59:23.811Z</time></trkpt><trkpt lat="46.1374805" lon="13.4555494"><ele>475.3333333333333</ele><time>2026-05-02T12:59:24.804Z</time></trkpt><trkpt lat="46.1374769" lon="13.455646"><ele>473.0</ele><time>2026-05-02T12:59:25.809Z</time></trkpt><trkpt lat="46.1375109" lon="13.4557636"><ele>473.0</ele><time>2026-05-02T12:59:27.806Z</time></trkpt><trkpt lat="46.1375925" lon="13.4557426"><ele>472.99999999999994</ele><time>2026-05-02T12:59:29.806Z</time></trkpt><trkpt lat="46.1376678" lon="13.4556694"><ele>472.99999999999994</ele><time>2026-05-02T12:59:30.808Z</time></trkpt><trkpt lat="46.1377254" lon="13.4555606"><ele>473.0</ele><time>2026-05-02T12:59:31.806Z</time></trkpt><trkpt lat="46.1377912" lon="13.4554057"><ele>473.0</ele><time>2026-05-02T12:59:32.803Z</time></trkpt><trkpt lat="46.1378631" lon="13.4552533"><ele>470.3333333333333</ele><time>2026-05-02T12:59:33.797Z</time></trkpt><trkpt lat="46.1379211" lon="13.455095"><ele>467.66666666666663</ele><time>2026-05-02T12:59:34.808Z</time></trkpt><trkpt lat="46.1380482" lon="13.4548469"><ele>465.0</ele><time>2026-05-02T12:59:36.808Z</time></trkpt><trkpt lat="46.1381207" lon="13.4547243"><ele>465.0</ele><time>2026-05-02T12:59:37.804Z</time></trkpt><trkpt lat="46.1382006" lon="13.4546382"><ele>465.0</ele><time>2026-05-02T12:59:38.812Z</time></trkpt><trkpt lat="46.1382894" lon="13.454575"><ele>465.0</ele><time>2026-05-02T12:59:39.811Z</time></trkpt><trkpt lat="46.1383741" lon="13.4545227"><ele>465.0</ele><time>2026-05-02T12:59:40.796Z</time></trkpt><trkpt lat="46.1384543" lon="13.4544667"><ele>465.0</ele><time>2026-05-02T12:59:41.813Z</time></trkpt><trkpt lat="46.1385418" lon="13.4544205"><ele>460.8333333333333</ele><time>2026-05-02T12:59:42.81Z</time></trkpt><trkpt lat="46.1386331" lon="13.4543897"><ele>456.66666666666663</ele><time>2026-05-02T12:59:43.809Z</time></trkpt><trkpt lat="46.1387221" lon="13.4543427"><ele>452.5</ele><time>2026-05-02T12:59:44.811Z</time></trkpt><trkpt lat="46.1388033" lon="13.4542979"><ele>448.3333333333333</ele><time>2026-05-02T12:59:45.814Z</time></trkpt><trkpt lat="46.1388839" lon="13.4542543"><ele>444.16666666666663</ele><time>2026-05-02T12:59:46.807Z</time></trkpt><trkpt lat="46.1389656" lon="13.4542091"><ele>440.0</ele><time>2026-05-02T12:59:47.809Z</time></trkpt><trkpt lat="46.1390378" lon="13.4541534"><ele>441.16666666666663</ele><time>2026-05-02T12:59:48.802Z</time></trkpt><trkpt lat="46.1390989" lon="13.4540897"><ele>442.3333333333333</ele><time>2026-05-02T12:59:49.8Z</time></trkpt><trkpt lat="46.1391753" lon="13.4540172"><ele>443.5</ele><time>2026-05-02T12:59:50.803Z</time></trkpt><trkpt lat="46.1392499" lon="13.4539404"><ele>444.66666666666663</ele><time>2026-05-02T12:59:51.798Z</time></trkpt><trkpt lat="46.1393241" lon="13.4538561"><ele>445.8333333333333</ele><time>2026-05-02T12:59:52.807Z</time></trkpt><trkpt lat="46.1393989" lon="13.4537722"><ele>447.0</ele><time>2026-05-02T12:59:53.81Z</time></trkpt><trkpt lat="46.1394803" lon="13.4536928"><ele>442.75</ele><time>2026-05-02T12:59:54.813Z</time></trkpt><trkpt lat="46.1395646" lon="13.4536395"><ele>438.5</ele><time>2026-05-02T12:59:55.816Z</time></trkpt><trkpt lat="46.1397522" lon="13.4535628"><ele>434.25</ele><time>2026-05-02T12:59:57.801Z</time></trkpt><trkpt lat="46.1398742" lon="13.4535127"><ele>430.0</ele><time>2026-05-02T12:59:58.797Z</time></trkpt><trkpt lat="46.1399948" lon="13.4534958"><ele>430.0</ele><time>2026-05-02T12:59:59.797Z</time></trkpt><trkpt lat="46.1401081" lon="13.4534916"><ele>430.0</ele><time>2026-05-02T13:00:00.797Z</time></trkpt><trkpt lat="46.1402105" lon="13.4535009"><ele>430.0</ele><time>2026-05-02T13:00:01.798Z</time></trkpt><trkpt lat="46.1403064" lon="13.4535164"><ele>430.0</ele><time>2026-05-02T13:00:02.808Z</time></trkpt><trkpt lat="46.1403791" lon="13.4535136"><ele>430.0</ele><time>2026-05-02T13:00:03.805Z</time></trkpt><trkpt lat="46.1404435" lon="13.4535041"><ele>430.0</ele><time>2026-05-02T13:00:04.806Z</time></trkpt><trkpt lat="46.1405509" lon="13.4534716"><ele>430.0</ele><time>2026-05-02T13:00:06.813Z</time></trkpt><trkpt lat="46.1406193" lon="13.453435"><ele>430.0</ele><time>2026-05-02T13:00:07.799Z</time></trkpt><trkpt lat="46.140696" lon="13.4533651"><ele>430.0</ele><time>2026-05-02T13:00:08.804Z</time></trkpt><trkpt lat="46.1407797" lon="13.4532869"><ele>430.0</ele><time>2026-05-02T13:00:09.803Z</time></trkpt><trkpt lat="46.1408574" lon="13.453206"><ele>429.6</ele><time>2026-05-02T13:00:10.808Z</time></trkpt><trkpt lat="46.1409447" lon="13.4531243"><ele>429.2</ele><time>2026-05-02T13:00:11.802Z</time></trkpt><trkpt lat="46.1410163" lon="13.453036"><ele>428.79999999999995</ele><time>2026-05-02T13:00:12.808Z</time></trkpt><trkpt lat="46.1410877" lon="13.4529368"><ele>428.4</ele><time>2026-05-02T13:00:13.804Z</time></trkpt><trkpt lat="46.1411563" lon="13.4528269"><ele>428.0</ele><time>2026-05-02T13:00:14.803Z</time></trkpt><trkpt lat="46.1412074" lon="13.452692"><ele>428.0</ele><time>2026-05-02T13:00:15.808Z</time></trkpt><trkpt lat="46.1412565" lon="13.452553"><ele>428.0</ele><time>2026-05-02T13:00:16.796Z</time></trkpt><trkpt lat="46.141353" lon="13.4523133"><ele>428.0</ele><time>2026-05-02T13:00:18.811Z</time></trkpt><trkpt lat="46.1413893" lon="13.4522092"><ele>428.0</ele><time>2026-05-02T13:00:19.811Z</time></trkpt><trkpt lat="46.1414218" lon="13.4521085"><ele>428.00000000000006</ele><time>2026-05-02T13:00:20.8Z</time></trkpt><trkpt lat="46.1414705" lon="13.4520084"><ele>428.0</ele><time>2026-05-02T13:00:21.797Z</time></trkpt><trkpt lat="46.141517" lon="13.4519265"><ele>428.0</ele><time>2026-05-02T13:00:22.804Z</time></trkpt><trkpt lat="46.1415597" lon="13.4518537"><ele>428.0</ele><time>2026-05-02T13:00:23.804Z</time></trkpt><trkpt lat="46.1416107" lon="13.4517942"><ele>428.0</ele><time>2026-05-02T13:00:24.81Z</time></trkpt><trkpt lat="46.1416718" lon="13.4517486"><ele>428.00000000000006</ele><time>2026-05-02T13:00:25.8Z</time></trkpt><trkpt lat="46.1417459" lon="13.4517872"><ele>428.0</ele><time>2026-05-02T13:00:26.802Z</time></trkpt><trkpt lat="46.1418432" lon="13.4517651"><ele>428.0</ele><time>2026-05-02T13:00:28.809Z</time></trkpt><trkpt lat="46.1418876" lon="13.4516978"><ele>428.0</ele><time>2026-05-02T13:00:48.803Z</time></trkpt><trkpt lat="46.1420049" lon="13.4514992"><ele>428.0</ele><time>2026-05-02T13:00:52.802Z</time></trkpt><trkpt lat="46.1421263" lon="13.451439"><ele>428.0</ele><time>2026-05-02T13:00:54.805Z</time></trkpt><trkpt lat="46.1422578" lon="13.4514255"><ele>427.99999999999994</ele><time>2026-05-02T13:00:56.799Z</time></trkpt><trkpt lat="46.1423447" lon="13.4514041"><ele>428.0</ele><time>2026-05-02T13:00:57.797Z</time></trkpt><trkpt lat="46.1424156" lon="13.4513366"><ele>428.0</ele><time>2026-05-02T13:00:58.805Z</time></trkpt><trkpt lat="46.1424743" lon="13.4512585"><ele>428.0</ele><time>2026-05-02T13:00:59.801Z</time></trkpt><trkpt lat="46.1425302" lon="13.4511678"><ele>427.99999999999994</ele><time>2026-05-02T13:01:00.807Z</time></trkpt><trkpt lat="46.1425888" lon="13.4510433"><ele>428.0</ele><time>2026-05-02T13:01:01.809Z</time></trkpt><trkpt lat="46.1426595" lon="13.4509029"><ele>426.4</ele><time>2026-05-02T13:01:02.812Z</time></trkpt><trkpt lat="46.1427225" lon="13.450775"><ele>424.79999999999995</ele><time>2026-05-02T13:01:03.801Z</time></trkpt><trkpt lat="46.1427633" lon="13.4506428"><ele>423.2</ele><time>2026-05-02T13:01:04.819Z</time></trkpt><trkpt lat="46.142808" lon="13.4505159"><ele>421.6</ele><time>2026-05-02T13:01:05.801Z</time></trkpt><trkpt lat="46.1428486" lon="13.4503803"><ele>420.0</ele><time>2026-05-02T13:01:06.8Z</time></trkpt><trkpt lat="46.1428876" lon="13.4502473"><ele>415.75</ele><time>2026-05-02T13:01:07.807Z</time></trkpt><trkpt lat="46.1429261" lon="13.4501131"><ele>411.5</ele><time>2026-05-02T13:01:08.799Z</time></trkpt><trkpt lat="46.1429655" lon="13.4499822"><ele>407.25</ele><time>2026-05-02T13:01:09.799Z</time></trkpt><trkpt lat="46.1430016" lon="13.4498634"><ele>403.0</ele><time>2026-05-02T13:01:10.803Z</time></trkpt><trkpt lat="46.1430931" lon="13.4496267"><ele>403.0</ele><time>2026-05-02T13:01:13.803Z</time></trkpt><trkpt lat="46.1430282" lon="13.4495259"><ele>403.0</ele><time>2026-05-02T13:01:16.808Z</time></trkpt><trkpt lat="46.1429253" lon="13.4495473"><ele>403.0</ele><time>2026-05-02T13:01:18.805Z</time></trkpt><trkpt lat="46.1428552" lon="13.4495824"><ele>403.0</ele><time>2026-05-02T13:01:19.809Z</time></trkpt><trkpt lat="46.1427885" lon="13.4496664"><ele>403.0</ele><time>2026-05-02T13:01:20.82Z</time></trkpt><trkpt lat="46.1427011" lon="13.4497802"><ele>403.0</ele><time>2026-05-02T13:01:21.806Z</time></trkpt><trkpt lat="46.1426182" lon="13.4499133"><ele>403.0</ele><time>2026-05-02T13:01:22.808Z</time></trkpt><trkpt lat="46.1425356" lon="13.4500684"><ele>403.0</ele><time>2026-05-02T13:01:23.802Z</time></trkpt><trkpt lat="46.1424736" lon="13.4502138"><ele>403.0</ele><time>2026-05-02T13:01:24.807Z</time></trkpt><trkpt lat="46.1424311" lon="13.4503556"><ele>403.0</ele><time>2026-05-02T13:01:25.809Z</time></trkpt><trkpt lat="46.1423969" lon="13.4504814"><ele>403.0</ele><time>2026-05-02T13:01:26.804Z</time></trkpt><trkpt lat="46.1423451" lon="13.4505498"><ele>403.0</ele><time>2026-05-02T13:01:28.806Z</time></trkpt><trkpt lat="46.1423538" lon="13.4504375"><ele>403.0</ele><time>2026-05-02T13:01:30.802Z</time></trkpt><trkpt lat="46.1424047" lon="13.4502757"><ele>403.0</ele><time>2026-05-02T13:01:32.804Z</time></trkpt><trkpt lat="46.142479" lon="13.450055"><ele>403.0</ele><time>2026-05-02T13:01:34.799Z</time></trkpt><trkpt lat="46.142507" lon="13.4499285"><ele>403.0</ele><time>2026-05-02T13:01:35.8Z</time></trkpt><trkpt lat="46.1425476" lon="13.4497802"><ele>403.0</ele><time>2026-05-02T13:01:36.802Z</time></trkpt><trkpt lat="46.142588" lon="13.4496237"><ele>403.0</ele><time>2026-05-02T13:01:37.81Z</time></trkpt><trkpt lat="46.1426188" lon="13.449462"><ele>403.0</ele><time>2026-05-02T13:01:38.811Z</time></trkpt><trkpt lat="46.1426441" lon="13.4493024"><ele>399.79999999999995</ele><time>2026-05-02T13:01:39.804Z</time></trkpt><trkpt lat="46.1426769" lon="13.4491501"><ele>396.6</ele><time>2026-05-02T13:01:40.806Z</time></trkpt><trkpt lat="46.1427203" lon="13.449008"><ele>393.4</ele><time>2026-05-02T13:01:41.809Z</time></trkpt><trkpt lat="46.1427674" lon="13.4488742"><ele>390.20000000000005</ele><time>2026-05-02T13:01:42.804Z</time></trkpt><trkpt lat="46.1428136" lon="13.4487359"><ele>387.0</ele><time>2026-05-02T13:01:43.798Z</time></trkpt><trkpt lat="46.1428685" lon="13.4486442"><ele>387.6666666666667</ele><time>2026-05-02T13:01:44.8Z</time></trkpt><trkpt lat="46.1429429" lon="13.4485705"><ele>388.33333333333337</ele><time>2026-05-02T13:01:45.811Z</time></trkpt><trkpt lat="46.1430218" lon="13.4485151"><ele>389.0</ele><time>2026-05-02T13:01:46.802Z</time></trkpt><trkpt lat="46.143095" lon="13.4484673"><ele>389.6666666666667</ele><time>2026-05-02T13:01:47.804Z</time></trkpt><trkpt lat="46.1431507" lon="13.4484129"><ele>390.33333333333337</ele><time>2026-05-02T13:01:48.801Z</time></trkpt><trkpt lat="46.1432118" lon="13.4483527"><ele>391.0</ele><time>2026-05-02T13:01:49.798Z</time></trkpt><trkpt lat="46.1432899" lon="13.4482139"><ele>391.0</ele><time>2026-05-02T13:01:51.796Z</time></trkpt><trkpt lat="46.143314" lon="13.4480977"><ele>391.0</ele><time>2026-05-02T13:01:52.801Z</time></trkpt><trkpt lat="46.1433277" lon="13.4479699"><ele>391.0</ele><time>2026-05-02T13:01:53.804Z</time></trkpt><trkpt lat="46.1433282" lon="13.4477255"><ele>391.0</ele><time>2026-05-02T13:01:55.798Z</time></trkpt><trkpt lat="46.1433348" lon="13.4476174"><ele>391.0</ele><time>2026-05-02T13:01:56.805Z</time></trkpt><trkpt lat="46.1433588" lon="13.4475136"><ele>388.4285714285714</ele><time>2026-05-02T13:01:57.803Z</time></trkpt><trkpt lat="46.143402" lon="13.4474404"><ele>385.85714285714283</ele><time>2026-05-02T13:01:58.804Z</time></trkpt><trkpt lat="46.1434591" lon="13.4473959"><ele>383.2857142857143</ele><time>2026-05-02T13:01:59.8Z</time></trkpt><trkpt lat="46.1435253" lon="13.4473688"><ele>380.71428571428567</ele><time>2026-05-02T13:02:00.795Z</time></trkpt><trkpt lat="46.143601" lon="13.4473553"><ele>378.14285714285717</ele><time>2026-05-02T13:02:01.802Z</time></trkpt><trkpt lat="46.1436824" lon="13.4473384"><ele>375.57142857142856</ele><time>2026-05-02T13:02:02.803Z</time></trkpt><trkpt lat="46.1437679" lon="13.4473054"><ele>373.0</ele><time>2026-05-02T13:02:03.811Z</time></trkpt><trkpt lat="46.1438703" lon="13.4472709"><ele>373.0</ele><time>2026-05-02T13:02:04.803Z</time></trkpt><trkpt lat="46.1439644" lon="13.4472051"><ele>373.0</ele><time>2026-05-02T13:02:05.8Z</time></trkpt><trkpt lat="46.14406" lon="13.4471425"><ele>373.0</ele><time>2026-05-02T13:02:06.809Z</time></trkpt><trkpt lat="46.1441487" lon="13.4470719"><ele>373.0</ele><time>2026-05-02T13:02:07.807Z</time></trkpt><trkpt lat="46.1442249" lon="13.4469845"><ele>373.0</ele><time>2026-05-02T13:02:08.805Z</time></trkpt><trkpt lat="46.1442877" lon="13.4468987"><ele>370.59999999999997</ele><time>2026-05-02T13:02:09.798Z</time></trkpt><trkpt lat="46.1443493" lon="13.446827"><ele>368.2</ele><time>2026-05-02T13:02:10.813Z</time></trkpt><trkpt lat="46.1444233" lon="13.4467443"><ele>365.8</ele><time>2026-05-02T13:02:12.804Z</time></trkpt><trkpt lat="46.1445071" lon="13.4467295"><ele>363.4</ele><time>2026-05-02T13:02:14.799Z</time></trkpt><trkpt lat="46.1446717" lon="13.4468264"><ele>361.0</ele><time>2026-05-02T13:02:30.804Z</time></trkpt><trkpt lat="46.1447418" lon="13.4468919"><ele>361.0</ele><time>2026-05-02T13:02:32.812Z</time></trkpt><trkpt lat="46.1447997" lon="13.4469342"><ele>361.0</ele><time>2026-05-02T13:02:34.799Z</time></trkpt><trkpt lat="46.1448978" lon="13.4469465"><ele>361.0</ele><time>2026-05-02T13:02:36.813Z</time></trkpt><trkpt lat="46.1450321" lon="13.4469633"><ele>361.0</ele><time>2026-05-02T13:02:38.802Z</time></trkpt><trkpt lat="46.1451363" lon="13.4469574"><ele>361.0</ele><time>2026-05-02T13:02:39.806Z</time></trkpt><trkpt lat="46.1452466" lon="13.4469581"><ele>359.5</ele><time>2026-05-02T13:02:40.803Z</time></trkpt><trkpt lat="46.1453569" lon="13.446943"><ele>358.0</ele><time>2026-05-02T13:02:41.797Z</time></trkpt><trkpt lat="46.1454761" lon="13.4469153"><ele>356.5</ele><time>2026-05-02T13:02:42.804Z</time></trkpt><trkpt lat="46.1455973" lon="13.4468745"><ele>355.0</ele><time>2026-05-02T13:02:43.808Z</time></trkpt><trkpt lat="46.1457288" lon="13.4468408"><ele>351.25</ele><time>2026-05-02T13:02:44.796Z</time></trkpt><trkpt lat="46.1458365" lon="13.4468029"><ele>347.5</ele><time>2026-05-02T13:02:45.803Z</time></trkpt><trkpt lat="46.1459346" lon="13.4467344"><ele>343.75</ele><time>2026-05-02T13:02:46.802Z</time></trkpt><trkpt lat="46.1460329" lon="13.4466179"><ele>340.0</ele><time>2026-05-02T13:02:47.807Z</time></trkpt><trkpt lat="46.1461227" lon="13.4464521"><ele>334.66666666666663</ele><time>2026-05-02T13:02:48.804Z</time></trkpt><trkpt lat="46.1461933" lon="13.4462365"><ele>329.3333333333333</ele><time>2026-05-02T13:02:49.799Z</time></trkpt><trkpt lat="46.146264" lon="13.4460357"><ele>324.0</ele><time>2026-05-02T13:02:50.802Z</time></trkpt><trkpt lat="46.1463304" lon="13.445811"><ele>324.0</ele><time>2026-05-02T13:02:51.807Z</time></trkpt><trkpt lat="46.1463667" lon="13.445556"><ele>324.0</ele><time>2026-05-02T13:02:52.802Z</time></trkpt><trkpt lat="46.1463957" lon="13.4453309"><ele>324.0</ele><time>2026-05-02T13:02:53.808Z</time></trkpt><trkpt lat="46.1464231" lon="13.4451711"><ele>322.5</ele><time>2026-05-02T13:02:54.797Z</time></trkpt><trkpt lat="46.1464665" lon="13.445026"><ele>321.0</ele><time>2026-05-02T13:02:55.805Z</time></trkpt><trkpt lat="46.1465133" lon="13.4448844"><ele>319.5</ele><time>2026-05-02T13:02:56.799Z</time></trkpt><trkpt lat="46.1465808" lon="13.4447993"><ele>318.0</ele><time>2026-05-02T13:02:57.799Z</time></trkpt><trkpt lat="46.1465447" lon="13.4445812"><ele>315.4</ele><time>2026-05-02T13:03:00.797Z</time></trkpt><trkpt lat="46.1464843" lon="13.4445227"><ele>312.8</ele><time>2026-05-02T13:03:01.813Z</time></trkpt><trkpt lat="46.1463678" lon="13.4446132"><ele>310.2</ele><time>2026-05-02T13:03:03.8Z</time></trkpt><trkpt lat="46.1462954" lon="13.4447281"><ele>307.6</ele><time>2026-05-02T13:03:04.808Z</time></trkpt><trkpt lat="46.1462048" lon="13.4448624"><ele>305.0</ele><time>2026-05-02T13:03:05.802Z</time></trkpt><trkpt lat="46.1461191" lon="13.4450029"><ele>305.0</ele><time>2026-05-02T13:03:06.802Z</time></trkpt><trkpt lat="46.1460361" lon="13.4451463"><ele>305.0</ele><time>2026-05-02T13:03:07.799Z</time></trkpt><trkpt lat="46.1459618" lon="13.44528"><ele>305.0</ele><time>2026-05-02T13:03:08.801Z</time></trkpt><trkpt lat="46.1458994" lon="13.4453793"><ele>305.0</ele><time>2026-05-02T13:03:09.803Z</time></trkpt><trkpt lat="46.1458297" lon="13.4454269"><ele>305.0</ele><time>2026-05-02T13:03:11.808Z</time></trkpt><trkpt lat="46.1458379" lon="13.4452794"><ele>305.0</ele><time>2026-05-02T13:03:13.803Z</time></trkpt><trkpt lat="46.1458831" lon="13.4451291"><ele>305.0</ele><time>2026-05-02T13:03:14.803Z</time></trkpt><trkpt lat="46.1459348" lon="13.4449373"><ele>305.0</ele><time>2026-05-02T13:03:15.806Z</time></trkpt><trkpt lat="46.145987" lon="13.4447404"><ele>305.0</ele><time>2026-05-02T13:03:16.8Z</time></trkpt><trkpt lat="46.1460382" lon="13.4445343"><ele>293.5</ele><time>2026-05-02T13:03:17.8Z</time></trkpt><trkpt lat="46.1460977" lon="13.4443259"><ele>282.0</ele><time>2026-05-02T13:03:18.81Z</time></trkpt><trkpt lat="46.1462026" lon="13.4439154"><ele>277.25</ele><time>2026-05-02T13:03:20.805Z</time></trkpt><trkpt lat="46.1462599" lon="13.4437197"><ele>272.5</ele><time>2026-05-02T13:03:21.812Z</time></trkpt><trkpt lat="46.1463358" lon="13.4435482"><ele>267.75</ele><time>2026-05-02T13:03:22.801Z</time></trkpt><trkpt lat="46.146429" lon="13.4434347"><ele>263.0</ele><time>2026-05-02T13:03:23.802Z</time></trkpt><trkpt lat="46.1465147" lon="13.4434246"><ele>265.2</ele><time>2026-05-02T13:03:24.809Z</time></trkpt><trkpt lat="46.1465925" lon="13.4434277"><ele>267.4</ele><time>2026-05-02T13:03:25.802Z</time></trkpt><trkpt lat="46.1466617" lon="13.4434861"><ele>269.59999999999997</ele><time>2026-05-02T13:03:26.803Z</time></trkpt><trkpt lat="46.1467481" lon="13.4436144"><ele>271.8</ele><time>2026-05-02T13:03:27.799Z</time></trkpt><trkpt lat="46.1468234" lon="13.4437402"><ele>274.0</ele><time>2026-05-02T13:03:28.8Z</time></trkpt><trkpt lat="46.1469019" lon="13.4438607"><ele>277.66666666666663</ele><time>2026-05-02T13:03:29.803Z</time></trkpt><trkpt lat="46.1469737" lon="13.443955"><ele>281.3333333333333</ele><time>2026-05-02T13:03:30.801Z</time></trkpt><trkpt lat="46.1470387" lon="13.44404"><ele>285.0</ele><time>2026-05-02T13:03:31.809Z</time></trkpt><trkpt lat="46.1470906" lon="13.4441173"><ele>288.6666666666667</ele><time>2026-05-02T13:03:32.813Z</time></trkpt><trkpt lat="46.147153" lon="13.4441779"><ele>292.33333333333337</ele><time>2026-05-02T13:03:33.8Z</time></trkpt><trkpt lat="46.1472564" lon="13.4442377"><ele>296.0</ele><time>2026-05-02T13:03:35.795Z</time></trkpt><trkpt lat="46.147149" lon="13.4441246"><ele>296.0</ele><time>2026-05-02T13:03:40.8Z</time></trkpt><trkpt lat="46.1470336" lon="13.4439546"><ele>296.0</ele><time>2026-05-02T13:03:42.802Z</time></trkpt><trkpt lat="46.146981" lon="13.4438684"><ele>296.0</ele><time>2026-05-02T13:03:43.806Z</time></trkpt><trkpt lat="46.1469309" lon="13.44379"><ele>296.0</ele><time>2026-05-02T13:03:44.805Z</time></trkpt><trkpt lat="46.1468726" lon="13.4437091"><ele>296.0</ele><time>2026-05-02T13:03:45.802Z</time></trkpt><trkpt lat="46.1468154" lon="13.4436304"><ele>292.33333333333337</ele><time>2026-05-02T13:03:46.806Z</time></trkpt><trkpt lat="46.1467651" lon="13.4435381"><ele>288.6666666666667</ele><time>2026-05-02T13:03:47.807Z</time></trkpt><trkpt lat="46.1467226" lon="13.4434351"><ele>285.0</ele><time>2026-05-02T13:03:48.799Z</time></trkpt><trkpt lat="46.1466866" lon="13.4433201"><ele>281.3333333333333</ele><time>2026-05-02T13:03:49.799Z</time></trkpt><trkpt lat="46.1466576" lon="13.4432025"><ele>277.66666666666663</ele><time>2026-05-02T13:03:50.802Z</time></trkpt><trkpt lat="46.1466659" lon="13.4430849"><ele>274.0</ele><time>2026-05-02T13:03:51.801Z</time></trkpt><trkpt lat="46.1466823" lon="13.4429629"><ele>272.0</ele><time>2026-05-02T13:03:52.803Z</time></trkpt><trkpt lat="46.1466933" lon="13.4428328"><ele>270.0</ele><time>2026-05-02T13:03:53.801Z</time></trkpt><trkpt lat="46.1466902" lon="13.4427077"><ele>268.0</ele><time>2026-05-02T13:03:54.807Z</time></trkpt><trkpt lat="46.1466469" lon="13.4425863"><ele>266.0</ele><time>2026-05-02T13:03:55.809Z</time></trkpt><trkpt lat="46.1466004" lon="13.4424696"><ele>264.0</ele><time>2026-05-02T13:03:56.801Z</time></trkpt><trkpt lat="46.1465493" lon="13.442357"><ele>261.59999999999997</ele><time>2026-05-02T13:03:57.795Z</time></trkpt><trkpt lat="46.1465062" lon="13.4422419"><ele>259.2</ele><time>2026-05-02T13:03:58.809Z</time></trkpt><trkpt lat="46.1464696" lon="13.4421386"><ele>256.79999999999995</ele><time>2026-05-02T13:03:59.807Z</time></trkpt><trkpt lat="46.146417" lon="13.4420366"><ele>254.39999999999998</ele><time>2026-05-02T13:04:00.8Z</time></trkpt><trkpt lat="46.1463464" lon="13.4419626"><ele>252.0</ele><time>2026-05-02T13:04:01.801Z</time></trkpt><trkpt lat="46.1462105" lon="13.4421385"><ele>252.0</ele><time>2026-05-02T13:04:03.805Z</time></trkpt><trkpt lat="46.1461832" lon="13.442334"><ele>252.0</ele><time>2026-05-02T13:04:04.805Z</time></trkpt><trkpt lat="46.1461416" lon="13.4425408"><ele>252.0</ele><time>2026-05-02T13:04:05.799Z</time></trkpt><trkpt lat="46.1461043" lon="13.4427316"><ele>252.0</ele><time>2026-05-02T13:04:06.805Z</time></trkpt><trkpt lat="46.146064" lon="13.4428849"><ele>253.0</ele><time>2026-05-02T13:04:07.804Z</time></trkpt><trkpt lat="46.1460099" lon="13.4430171"><ele>254.0</ele><time>2026-05-02T13:04:08.805Z</time></trkpt><trkpt lat="46.145932" lon="13.4431119"><ele>255.0</ele><time>2026-05-02T13:04:09.797Z</time></trkpt><trkpt lat="46.1458408" lon="13.4431934"><ele>256.0</ele><time>2026-05-02T13:04:10.806Z</time></trkpt><trkpt lat="46.1457369" lon="13.4432531"><ele>257.0</ele><time>2026-05-02T13:04:11.809Z</time></trkpt><trkpt lat="46.1456235" lon="13.4432995"><ele>257.0</ele><time>2026-05-02T13:04:12.795Z</time></trkpt><trkpt lat="46.1455079" lon="13.4433462"><ele>257.0</ele><time>2026-05-02T13:04:13.802Z</time></trkpt><trkpt lat="46.1454034" lon="13.4433705"><ele>257.0</ele><time>2026-05-02T13:04:14.804Z</time></trkpt><trkpt lat="46.145308" lon="13.4433363"><ele>257.0</ele><time>2026-05-02T13:04:15.801Z</time></trkpt><trkpt lat="46.145216" lon="13.4432361"><ele>257.0</ele><time>2026-05-02T13:04:16.803Z</time></trkpt><trkpt lat="46.145157" lon="13.443109"><ele>257.0</ele><time>2026-05-02T13:04:17.814Z</time></trkpt><trkpt lat="46.1450858" lon="13.4429672"><ele>257.0</ele><time>2026-05-02T13:04:18.798Z</time></trkpt><trkpt lat="46.1449987" lon="13.4428335"><ele>257.0</ele><time>2026-05-02T13:04:19.805Z</time></trkpt><trkpt lat="46.1448892" lon="13.4427163"><ele>257.0</ele><time>2026-05-02T13:04:20.802Z</time></trkpt><trkpt lat="46.1447653" lon="13.4426308"><ele>248.33333333333334</ele><time>2026-05-02T13:04:21.801Z</time></trkpt><trkpt lat="46.1446287" lon="13.442561"><ele>239.66666666666669</ele><time>2026-05-02T13:04:22.798Z</time></trkpt><trkpt lat="46.144385" lon="13.4423966"><ele>231.0</ele><time>2026-05-02T13:04:24.8Z</time></trkpt><trkpt lat="46.1442767" lon="13.4423058"><ele>231.0</ele><time>2026-05-02T13:04:25.813Z</time></trkpt><trkpt lat="46.1441669" lon="13.4422143"><ele>231.0</ele><time>2026-05-02T13:04:26.796Z</time></trkpt><trkpt lat="46.1440485" lon="13.4421305"><ele>231.0</ele><time>2026-05-02T13:04:27.8Z</time></trkpt><trkpt lat="46.1439131" lon="13.4420747"><ele>231.0</ele><time>2026-05-02T13:04:28.798Z</time></trkpt><trkpt lat="46.1437691" lon="13.4420443"><ele>230.75</ele><time>2026-05-02T13:04:29.796Z</time></trkpt><trkpt lat="46.1436293" lon="13.4420342"><ele>230.5</ele><time>2026-05-02T13:04:30.794Z</time></trkpt><trkpt lat="46.1435" lon="13.4420021"><ele>230.25</ele><time>2026-05-02T13:04:31.802Z</time></trkpt><trkpt lat="46.143378" lon="13.4419387"><ele>230.0</ele><time>2026-05-02T13:04:32.801Z</time></trkpt><trkpt lat="46.1432896" lon="13.4418226"><ele>229.25</ele><time>2026-05-02T13:04:33.806Z</time></trkpt><trkpt lat="46.1431981" lon="13.4416713"><ele>228.5</ele><time>2026-05-02T13:04:34.808Z</time></trkpt><trkpt lat="46.1431074" lon="13.4415194"><ele>227.75</ele><time>2026-05-02T13:04:35.799Z</time></trkpt><trkpt lat="46.1430118" lon="13.441389"><ele>227.0</ele><time>2026-05-02T13:04:36.805Z</time></trkpt><trkpt lat="46.142927" lon="13.4412859"><ele>226.75</ele><time>2026-05-02T13:04:37.798Z</time></trkpt><trkpt lat="46.1428449" lon="13.4411877"><ele>226.5</ele><time>2026-05-02T13:04:38.81Z</time></trkpt><trkpt lat="46.1427495" lon="13.4411184"><ele>226.25</ele><time>2026-05-02T13:04:39.802Z</time></trkpt><trkpt lat="46.1426256" lon="13.4410855"><ele>226.0</ele><time>2026-05-02T13:04:40.809Z</time></trkpt><trkpt lat="46.1424888" lon="13.4410679"><ele>225.0</ele><time>2026-05-02T13:04:41.809Z</time></trkpt><trkpt lat="46.1423517" lon="13.4410519"><ele>224.0</ele><time>2026-05-02T13:04:42.806Z</time></trkpt><trkpt lat="46.1422051" lon="13.4410422"><ele>223.0</ele><time>2026-05-02T13:04:43.801Z</time></trkpt><trkpt lat="46.1419309" lon="13.4410818"><ele>223.0</ele><time>2026-05-02T13:04:45.796Z</time></trkpt><trkpt lat="46.1418033" lon="13.4411034"><ele>223.0</ele><time>2026-05-02T13:04:46.8Z</time></trkpt><trkpt lat="46.1416849" lon="13.4411164"><ele>223.0</ele><time>2026-05-02T13:04:47.803Z</time></trkpt><trkpt lat="46.1415653" lon="13.4411252"><ele>223.0</ele><time>2026-05-02T13:04:48.806Z</time></trkpt><trkpt lat="46.14145" lon="13.4411301"><ele>222.60000000000002</ele><time>2026-05-02T13:04:49.802Z</time></trkpt><trkpt lat="46.1413436" lon="13.441145"><ele>222.20000000000002</ele><time>2026-05-02T13:04:50.799Z</time></trkpt><trkpt lat="46.1412397" lon="13.441165"><ele>221.8</ele><time>2026-05-02T13:04:51.796Z</time></trkpt><trkpt lat="46.1411281" lon="13.4412041"><ele>221.4</ele><time>2026-05-02T13:04:52.807Z</time></trkpt><trkpt lat="46.1410243" lon="13.4412555"><ele>221.0</ele><time>2026-05-02T13:04:53.798Z</time></trkpt><trkpt lat="46.1409203" lon="13.4413135"><ele>220.60000000000002</ele><time>2026-05-02T13:04:54.813Z</time></trkpt><trkpt lat="46.1408236" lon="13.4413541"><ele>220.20000000000002</ele><time>2026-05-02T13:04:55.799Z</time></trkpt><trkpt lat="46.1407263" lon="13.4413823"><ele>219.79999999999998</ele><time>2026-05-02T13:04:56.804Z</time></trkpt><trkpt lat="46.1406227" lon="13.4414068"><ele>219.39999999999998</ele><time>2026-05-02T13:04:57.809Z</time></trkpt><trkpt lat="46.1405203" lon="13.4414226"><ele>219.0</ele><time>2026-05-02T13:04:58.806Z</time></trkpt><trkpt lat="46.1404202" lon="13.4414223"><ele>218.75</ele><time>2026-05-02T13:04:59.798Z</time></trkpt><trkpt lat="46.1403132" lon="13.4414047"><ele>218.5</ele><time>2026-05-02T13:05:00.802Z</time></trkpt><trkpt lat="46.1401984" lon="13.4413756"><ele>218.25</ele><time>2026-05-02T13:05:01.804Z</time></trkpt><trkpt lat="46.1400749" lon="13.4413507"><ele>218.0</ele><time>2026-05-02T13:05:02.799Z</time></trkpt><trkpt lat="46.1399495" lon="13.4413156"><ele>216.0</ele><time>2026-05-02T13:05:03.799Z</time></trkpt><trkpt lat="46.1398262" lon="13.441285"><ele>214.0</ele><time>2026-05-02T13:05:04.804Z</time></trkpt><trkpt lat="46.1395818" lon="13.4412448"><ele>212.0</ele><time>2026-05-02T13:05:06.805Z</time></trkpt><trkpt lat="46.1394578" lon="13.4412262"><ele>212.0</ele><time>2026-05-02T13:05:07.803Z</time></trkpt><trkpt lat="46.1393303" lon="13.4412032"><ele>212.0</ele><time>2026-05-02T13:05:08.802Z</time></trkpt><trkpt lat="46.1392009" lon="13.4411749"><ele>212.0</ele><time>2026-05-02T13:05:09.801Z</time></trkpt><trkpt lat="46.1390687" lon="13.4411434"><ele>212.0</ele><time>2026-05-02T13:05:10.804Z</time></trkpt><trkpt lat="46.1389394" lon="13.4411079"><ele>211.0</ele><time>2026-05-02T13:05:11.803Z</time></trkpt><trkpt lat="46.1388099" lon="13.4410674"><ele>210.0</ele><time>2026-05-02T13:05:12.8Z</time></trkpt><trkpt lat="46.1386835" lon="13.4410251"><ele>209.0</ele><time>2026-05-02T13:05:13.801Z</time></trkpt><trkpt lat="46.1385647" lon="13.440987"><ele>208.0</ele><time>2026-05-02T13:05:14.801Z</time></trkpt><trkpt lat="46.1384502" lon="13.440948"><ele>208.0</ele><time>2026-05-02T13:05:15.801Z</time></trkpt><trkpt lat="46.1383403" lon="13.4409011"><ele>208.0</ele><time>2026-05-02T13:05:16.805Z</time></trkpt><trkpt lat="46.1382364" lon="13.4408213"><ele>208.0</ele><time>2026-05-02T13:05:17.802Z</time></trkpt><trkpt lat="46.1381539" lon="13.4407065"><ele>208.0</ele><time>2026-05-02T13:05:18.797Z</time></trkpt><trkpt lat="46.1381012" lon="13.4405594"><ele>207.5</ele><time>2026-05-02T13:05:19.806Z</time></trkpt><trkpt lat="46.1380822" lon="13.4403782"><ele>207.0</ele><time>2026-05-02T13:05:20.801Z</time></trkpt><trkpt lat="46.1380954" lon="13.4401654"><ele>206.5</ele><time>2026-05-02T13:05:21.798Z</time></trkpt><trkpt lat="46.1381166" lon="13.4399316"><ele>206.0</ele><time>2026-05-02T13:05:22.805Z</time></trkpt><trkpt lat="46.1381476" lon="13.4396894"><ele>206.0</ele><time>2026-05-02T13:05:23.798Z</time></trkpt><trkpt lat="46.1381822" lon="13.4394585"><ele>206.0</ele><time>2026-05-02T13:05:24.797Z</time></trkpt><trkpt lat="46.1381918" lon="13.4392332"><ele>206.0</ele><time>2026-05-02T13:05:25.795Z</time></trkpt><trkpt lat="46.1382011" lon="13.4390743"><ele>206.0</ele><time>2026-05-02T13:05:26.799Z</time></trkpt><trkpt lat="46.1382236" lon="13.4388147"><ele>206.60000000000002</ele><time>2026-05-02T13:05:29.804Z</time></trkpt><trkpt lat="46.1382343" lon="13.4387052"><ele>207.2</ele><time>2026-05-02T13:05:37.799Z</time></trkpt><trkpt lat="46.1383559" lon="13.4386612"><ele>207.8</ele><time>2026-05-02T13:05:39.801Z</time></trkpt><trkpt lat="46.1384409" lon="13.4386382"><ele>208.39999999999998</ele><time>2026-05-02T13:05:40.795Z</time></trkpt><trkpt lat="46.1385246" lon="13.4385608"><ele>209.0</ele><time>2026-05-02T13:05:41.801Z</time></trkpt><trkpt lat="46.1386141" lon="13.4384867"><ele>209.0</ele><time>2026-05-02T13:05:42.797Z</time></trkpt><trkpt lat="46.1387022" lon="13.4384234"><ele>209.0</ele><time>2026-05-02T13:05:43.798Z</time></trkpt><trkpt lat="46.1387903" lon="13.4383701"><ele>209.0</ele><time>2026-05-02T13:05:44.801Z</time></trkpt><trkpt lat="46.1388724" lon="13.4383226"><ele>209.0</ele><time>2026-05-02T13:05:45.806Z</time></trkpt><trkpt lat="46.1389357" lon="13.438278"><ele>209.0</ele><time>2026-05-02T13:05:46.812Z</time></trkpt><trkpt lat="46.1390155" lon="13.4381915"><ele>210.25</ele><time>2026-05-02T13:05:48.81Z</time></trkpt><trkpt lat="46.1389987" lon="13.4378614"><ele>211.5</ele><time>2026-05-02T13:05:52.806Z</time></trkpt><trkpt lat="46.1389839" lon="13.4377263"><ele>212.75</ele><time>2026-05-02T13:05:54.802Z</time></trkpt><trkpt lat="46.1389635" lon="13.4376041"><ele>214.0</ele><time>2026-05-02T13:05:56.809Z</time></trkpt><trkpt lat="46.1389292" lon="13.4374832"><ele>214.0</ele><time>2026-05-02T13:05:59.8Z</time></trkpt></trkseg><trkseg><trkpt lat="46.1388136" lon="13.4373656"><ele>214.0</ele><time>2026-05-02T13:24:03.224Z</time></trkpt><trkpt lat="46.138905" lon="13.43742"><ele>214.0</ele><time>2026-05-02T13:24:29.799Z</time></trkpt><trkpt lat="46.1388552" lon="13.4371987"><ele>214.0</ele><time>2026-05-02T13:24:35.793Z</time></trkpt><trkpt lat="46.1388955" lon="13.4370713"><ele>214.0</ele><time>2026-05-02T13:24:52.792Z</time></trkpt><trkpt lat="46.1390306" lon="13.4370284"><ele>215.57142857142858</ele><time>2026-05-02T13:24:54.8Z</time></trkpt><trkpt lat="46.1391066" lon="13.4370282"><ele>217.14285714285717</ele><time>2026-05-02T13:24:55.79Z</time></trkpt><trkpt lat="46.1391854" lon="13.4370376"><ele>218.71428571428572</ele><time>2026-05-02T13:24:56.789Z</time></trkpt><trkpt lat="46.1392601" lon="13.4370469"><ele>220.2857142857143</ele><time>2026-05-02T13:24:57.798Z</time></trkpt><trkpt lat="46.1393347" lon="13.437061"><ele>221.85714285714286</ele><time>2026-05-02T13:24:58.798Z</time></trkpt><trkpt lat="46.1394002" lon="13.4370816"><ele>223.42857142857147</ele><time>2026-05-02T13:24:59.789Z</time></trkpt><trkpt lat="46.13947" lon="13.4371172"><ele>225.00000000000003</ele><time>2026-05-02T13:25:00.792Z</time></trkpt><trkpt lat="46.1395292" lon="13.4371502"><ele>225.0</ele><time>2026-05-02T13:25:01.794Z</time></trkpt><trkpt lat="46.1395877" lon="13.4371996"><ele>225.0</ele><time>2026-05-02T13:25:02.793Z</time></trkpt><trkpt lat="46.1396734" lon="13.4373279"><ele>225.0</ele><time>2026-05-02T13:25:04.799Z</time></trkpt><trkpt lat="46.1396986" lon="13.4374182"><ele>225.0</ele><time>2026-05-02T13:25:05.805Z</time></trkpt><trkpt lat="46.1397137" lon="13.4375126"><ele>225.0</ele><time>2026-05-02T13:25:06.802Z</time></trkpt><trkpt lat="46.1397234" lon="13.4376024"><ele>225.0</ele><time>2026-05-02T13:25:07.807Z</time></trkpt><trkpt lat="46.1397828" lon="13.4377286"><ele>230.25</ele><time>2026-05-02T13:25:09.802Z</time></trkpt><trkpt lat="46.1398889" lon="13.4377705"><ele>235.5</ele><time>2026-05-02T13:25:11.796Z</time></trkpt><trkpt lat="46.1400234" lon="13.4377687"><ele>240.75</ele><time>2026-05-02T13:25:13.791Z</time></trkpt><trkpt lat="46.1402037" lon="13.4377097"><ele>246.0</ele><time>2026-05-02T13:25:15.799Z</time></trkpt><trkpt lat="46.1402934" lon="13.4376905"><ele>246.0</ele><time>2026-05-02T13:25:16.804Z</time></trkpt><trkpt lat="46.1403827" lon="13.437669"><ele>246.00000000000003</ele><time>2026-05-02T13:25:17.797Z</time></trkpt><trkpt lat="46.1404784" lon="13.4376507"><ele>246.00000000000003</ele><time>2026-05-02T13:25:18.798Z</time></trkpt><trkpt lat="46.1405778" lon="13.4376343"><ele>246.0</ele><time>2026-05-02T13:25:19.794Z</time></trkpt><trkpt lat="46.1406793" lon="13.4376234"><ele>246.0</ele><time>2026-05-02T13:25:20.797Z</time></trkpt><trkpt lat="46.140779" lon="13.4376147"><ele>249.8</ele><time>2026-05-02T13:25:21.8Z</time></trkpt><trkpt lat="46.1408835" lon="13.4375816"><ele>253.60000000000002</ele><time>2026-05-02T13:25:22.793Z</time></trkpt><trkpt lat="46.1409782" lon="13.4375517"><ele>257.4</ele><time>2026-05-02T13:25:23.802Z</time></trkpt><trkpt lat="46.1410721" lon="13.4375172"><ele>261.2</ele><time>2026-05-02T13:25:24.788Z</time></trkpt><trkpt lat="46.1411642" lon="13.4374866"><ele>265.0</ele><time>2026-05-02T13:25:25.786Z</time></trkpt><trkpt lat="46.1412599" lon="13.4374728"><ele>265.0</ele><time>2026-05-02T13:25:26.791Z</time></trkpt><trkpt lat="46.1413566" lon="13.4374803"><ele>265.0</ele><time>2026-05-02T13:25:27.797Z</time></trkpt><trkpt lat="46.1414605" lon="13.4374876"><ele>265.0</ele><time>2026-05-02T13:25:28.791Z</time></trkpt><trkpt lat="46.1415719" lon="13.4374918"><ele>265.0</ele><time>2026-05-02T13:25:29.795Z</time></trkpt><trkpt lat="46.1416893" lon="13.4374792"><ele>265.0</ele><time>2026-05-02T13:25:30.792Z</time></trkpt><trkpt lat="46.1418006" lon="13.4374735"><ele>265.8</ele><time>2026-05-02T13:25:31.793Z</time></trkpt><trkpt lat="46.1419079" lon="13.4374729"><ele>266.6</ele><time>2026-05-02T13:25:32.792Z</time></trkpt><trkpt lat="46.1420027" lon="13.4374661"><ele>267.4</ele><time>2026-05-02T13:25:33.809Z</time></trkpt><trkpt lat="46.14208" lon="13.4374671"><ele>268.2</ele><time>2026-05-02T13:25:34.794Z</time></trkpt><trkpt lat="46.1422104" lon="13.4375048"><ele>269.0</ele><time>2026-05-02T13:25:36.8Z</time></trkpt><trkpt lat="46.1423292" lon="13.4375294"><ele>271.0</ele><time>2026-05-02T13:25:38.791Z</time></trkpt><trkpt lat="46.1424073" lon="13.437528"><ele>273.0</ele><time>2026-05-02T13:25:39.796Z</time></trkpt><trkpt lat="46.1424758" lon="13.4375463"><ele>275.0</ele><time>2026-05-02T13:25:40.792Z</time></trkpt><trkpt lat="46.1425357" lon="13.4375766"><ele>277.0</ele><time>2026-05-02T13:25:41.798Z</time></trkpt><trkpt lat="46.1426041" lon="13.4376098"><ele>279.0</ele><time>2026-05-02T13:25:42.797Z</time></trkpt><trkpt lat="46.1426769" lon="13.4376417"><ele>281.0</ele><time>2026-05-02T13:25:43.791Z</time></trkpt><trkpt lat="46.1427489" lon="13.4376713"><ele>283.0</ele><time>2026-05-02T13:25:44.794Z</time></trkpt><trkpt lat="46.1428583" lon="13.4377181"><ele>283.0</ele><time>2026-05-02T13:25:46.789Z</time></trkpt><trkpt lat="46.1429758" lon="13.4377281"><ele>283.0</ele><time>2026-05-02T13:25:48.792Z</time></trkpt><trkpt lat="46.1430414" lon="13.4377219"><ele>283.0</ele><time>2026-05-02T13:25:49.792Z</time></trkpt><trkpt lat="46.1431357" lon="13.4377258"><ele>283.0</ele><time>2026-05-02T13:25:51.801Z</time></trkpt><trkpt lat="46.1431988" lon="13.4377673"><ele>283.0</ele><time>2026-05-02T13:25:52.791Z</time></trkpt><trkpt lat="46.1432687" lon="13.4378149"><ele>283.0</ele><time>2026-05-02T13:25:53.794Z</time></trkpt><trkpt lat="46.1433357" lon="13.4378399"><ele>285.0</ele><time>2026-05-02T13:25:54.79Z</time></trkpt><trkpt lat="46.1434022" lon="13.4378638"><ele>287.0</ele><time>2026-05-02T13:25:55.796Z</time></trkpt><trkpt lat="46.1434663" lon="13.4378764"><ele>289.0</ele><time>2026-05-02T13:25:56.793Z</time></trkpt><trkpt lat="46.1436333" lon="13.4378751"><ele>291.0</ele><time>2026-05-02T13:25:59.787Z</time></trkpt><trkpt lat="46.1437372" lon="13.4378349"><ele>293.0</ele><time>2026-05-02T13:26:01.801Z</time></trkpt><trkpt lat="46.1438064" lon="13.4377727"><ele>293.0</ele><time>2026-05-02T13:26:02.804Z</time></trkpt><trkpt lat="46.143881" lon="13.4376933"><ele>293.0</ele><time>2026-05-02T13:26:03.79Z</time></trkpt><trkpt lat="46.1439545" lon="13.4376147"><ele>293.0</ele><time>2026-05-02T13:26:04.795Z</time></trkpt><trkpt lat="46.1440311" lon="13.4375432"><ele>293.0</ele><time>2026-05-02T13:26:05.795Z</time></trkpt><trkpt lat="46.1441049" lon="13.4374663"><ele>293.0</ele><time>2026-05-02T13:26:06.793Z</time></trkpt><trkpt lat="46.1441791" lon="13.4373951"><ele>292.6666666666667</ele><time>2026-05-02T13:26:07.796Z</time></trkpt><trkpt lat="46.1442567" lon="13.4373293"><ele>292.33333333333337</ele><time>2026-05-02T13:26:08.788Z</time></trkpt><trkpt lat="46.1443298" lon="13.4372713"><ele>292.0</ele><time>2026-05-02T13:26:09.8Z</time></trkpt><trkpt lat="46.1443995" lon="13.4372256"><ele>291.6666666666667</ele><time>2026-05-02T13:26:10.79Z</time></trkpt><trkpt lat="46.1444662" lon="13.4371725"><ele>291.3333333333333</ele><time>2026-05-02T13:26:11.793Z</time></trkpt><trkpt lat="46.1445388" lon="13.4371381"><ele>291.0</ele><time>2026-05-02T13:26:12.797Z</time></trkpt><trkpt lat="46.1446136" lon="13.4370995"><ele>294.6666666666667</ele><time>2026-05-02T13:26:13.792Z</time></trkpt><trkpt lat="46.1446838" lon="13.4370498"><ele>298.3333333333333</ele><time>2026-05-02T13:26:14.795Z</time></trkpt><trkpt lat="46.1447502" lon="13.4370032"><ele>302.0</ele><time>2026-05-02T13:26:15.794Z</time></trkpt><trkpt lat="46.1448225" lon="13.4369691"><ele>305.66666666666663</ele><time>2026-05-02T13:26:16.788Z</time></trkpt><trkpt lat="46.1448966" lon="13.4369549"><ele>309.3333333333333</ele><time>2026-05-02T13:26:17.789Z</time></trkpt><trkpt lat="46.1450367" lon="13.4369859"><ele>313.0</ele><time>2026-05-02T13:26:19.802Z</time></trkpt><trkpt lat="46.1451152" lon="13.4370568"><ele>308.6</ele><time>2026-05-02T13:26:20.789Z</time></trkpt><trkpt lat="46.1451896" lon="13.4371432"><ele>304.20000000000005</ele><time>2026-05-02T13:26:21.79Z</time></trkpt><trkpt lat="46.1452681" lon="13.437211"><ele>299.8</ele><time>2026-05-02T13:26:22.805Z</time></trkpt><trkpt lat="46.1453339" lon="13.4372753"><ele>295.40000000000003</ele><time>2026-05-02T13:26:23.793Z</time></trkpt><trkpt lat="46.1454539" lon="13.4373228"><ele>291.0</ele><time>2026-05-02T13:26:25.795Z</time></trkpt><trkpt lat="46.1455269" lon="13.4373141"><ele>291.0</ele><time>2026-05-02T13:26:26.797Z</time></trkpt><trkpt lat="46.1456053" lon="13.4372786"><ele>291.0</ele><time>2026-05-02T13:26:27.798Z</time></trkpt><trkpt lat="46.1456868" lon="13.4372293"><ele>291.0</ele><time>2026-05-02T13:26:28.79Z</time></trkpt><trkpt lat="46.1457713" lon="13.4371786"><ele>291.0</ele><time>2026-05-02T13:26:29.805Z</time></trkpt><trkpt lat="46.1458569" lon="13.4371164"><ele>291.0</ele><time>2026-05-02T13:26:30.791Z</time></trkpt><trkpt lat="46.1459297" lon="13.4370573"><ele>291.0</ele><time>2026-05-02T13:26:31.795Z</time></trkpt><trkpt lat="46.1459922" lon="13.4370059"><ele>296.3333333333333</ele><time>2026-05-02T13:26:32.794Z</time></trkpt><trkpt lat="46.146055" lon="13.4369437"><ele>301.6666666666667</ele><time>2026-05-02T13:26:33.806Z</time></trkpt><trkpt lat="46.1461227" lon="13.436867"><ele>307.0</ele><time>2026-05-02T13:26:34.798Z</time></trkpt><trkpt lat="46.1461886" lon="13.4367786"><ele>312.33333333333337</ele><time>2026-05-02T13:26:35.8Z</time></trkpt><trkpt lat="46.1462458" lon="13.4366828"><ele>317.6666666666667</ele><time>2026-05-02T13:26:36.798Z</time></trkpt><trkpt lat="46.1462984" lon="13.4365762"><ele>323.0</ele><time>2026-05-02T13:26:37.798Z</time></trkpt><trkpt lat="46.1463247" lon="13.4364678"><ele>325.0</ele><time>2026-05-02T13:26:38.789Z</time></trkpt><trkpt lat="46.1463894" lon="13.4362493"><ele>327.0</ele><time>2026-05-02T13:26:40.803Z</time></trkpt><trkpt lat="46.1464218" lon="13.4361675"><ele>329.0</ele><time>2026-05-02T13:26:41.792Z</time></trkpt><trkpt lat="46.1465006" lon="13.4360605"><ele>331.0</ele><time>2026-05-02T13:26:43.788Z</time></trkpt><trkpt lat="46.1465652" lon="13.4360255"><ele>333.0</ele><time>2026-05-02T13:26:44.793Z</time></trkpt><trkpt lat="46.1466252" lon="13.4359828"><ele>333.0</ele><time>2026-05-02T13:26:45.791Z</time></trkpt><trkpt lat="46.1467051" lon="13.4359346"><ele>333.0</ele><time>2026-05-02T13:26:46.798Z</time></trkpt><trkpt lat="46.1467981" lon="13.4358752"><ele>333.0</ele><time>2026-05-02T13:26:47.797Z</time></trkpt><trkpt lat="46.1468936" lon="13.4358277"><ele>333.0</ele><time>2026-05-02T13:26:48.795Z</time></trkpt><trkpt lat="46.1469853" lon="13.4357868"><ele>333.0</ele><time>2026-05-02T13:26:49.793Z</time></trkpt><trkpt lat="46.1470832" lon="13.4357587"><ele>333.0</ele><time>2026-05-02T13:26:50.8Z</time></trkpt><trkpt lat="46.1471817" lon="13.4357183"><ele>333.0</ele><time>2026-05-02T13:26:51.789Z</time></trkpt><trkpt lat="46.1472911" lon="13.4356827"><ele>333.0</ele><time>2026-05-02T13:26:52.792Z</time></trkpt><trkpt lat="46.1473994" lon="13.4356462"><ele>333.0</ele><time>2026-05-02T13:26:53.79Z</time></trkpt><trkpt lat="46.1474993" lon="13.4355942"><ele>333.0</ele><time>2026-05-02T13:26:54.801Z</time></trkpt><trkpt lat="46.1475896" lon="13.4355421"><ele>330.4</ele><time>2026-05-02T13:26:55.792Z</time></trkpt><trkpt lat="46.1476853" lon="13.435487"><ele>327.79999999999995</ele><time>2026-05-02T13:26:56.8Z</time></trkpt><trkpt lat="46.1477782" lon="13.4354485"><ele>325.2</ele><time>2026-05-02T13:26:57.799Z</time></trkpt><trkpt lat="46.147866" lon="13.4354184"><ele>322.6</ele><time>2026-05-02T13:26:58.79Z</time></trkpt><trkpt lat="46.1479496" lon="13.4353956"><ele>320.0</ele><time>2026-05-02T13:26:59.794Z</time></trkpt><trkpt lat="46.1480412" lon="13.4353855"><ele>327.8</ele><time>2026-05-02T13:27:00.785Z</time></trkpt><trkpt lat="46.1482331" lon="13.4353459"><ele>335.6</ele><time>2026-05-02T13:27:02.79Z</time></trkpt><trkpt lat="46.1483208" lon="13.4353496"><ele>343.4</ele><time>2026-05-02T13:27:03.786Z</time></trkpt><trkpt lat="46.1484087" lon="13.4353535"><ele>351.2</ele><time>2026-05-02T13:27:04.787Z</time></trkpt><trkpt lat="46.148485" lon="13.4353451"><ele>359.0</ele><time>2026-05-02T13:27:05.792Z</time></trkpt><trkpt lat="46.1485659" lon="13.4353033"><ele>359.0</ele><time>2026-05-02T13:27:06.79Z</time></trkpt><trkpt lat="46.1486603" lon="13.4352604"><ele>359.0</ele><time>2026-05-02T13:27:07.793Z</time></trkpt><trkpt lat="46.1487516" lon="13.4352089"><ele>359.0</ele><time>2026-05-02T13:27:08.784Z</time></trkpt><trkpt lat="46.1488353" lon="13.4351618"><ele>359.0</ele><time>2026-05-02T13:27:09.791Z</time></trkpt><trkpt lat="46.1489212" lon="13.4351073"><ele>359.0</ele><time>2026-05-02T13:27:10.8Z</time></trkpt><trkpt lat="46.148998" lon="13.4350353"><ele>359.33333333333337</ele><time>2026-05-02T13:27:11.801Z</time></trkpt><trkpt lat="46.1490511" lon="13.4349628"><ele>359.6666666666667</ele><time>2026-05-02T13:27:12.784Z</time></trkpt><trkpt lat="46.1490989" lon="13.434883"><ele>360.0</ele><time>2026-05-02T13:27:13.787Z</time></trkpt><trkpt lat="46.1491418" lon="13.434789"><ele>360.3333333333333</ele><time>2026-05-02T13:27:14.8Z</time></trkpt><trkpt lat="46.1491747" lon="13.4346777"><ele>360.66666666666663</ele><time>2026-05-02T13:27:15.801Z</time></trkpt><trkpt lat="46.1492092" lon="13.4345738"><ele>361.0</ele><time>2026-05-02T13:27:16.803Z</time></trkpt><trkpt lat="46.1492498" lon="13.4344712"><ele>361.0</ele><time>2026-05-02T13:27:17.797Z</time></trkpt><trkpt lat="46.1492978" lon="13.434381"><ele>361.0</ele><time>2026-05-02T13:27:18.796Z</time></trkpt><trkpt lat="46.1493377" lon="13.4342878"><ele>361.0</ele><time>2026-05-02T13:27:19.81Z</time></trkpt><trkpt lat="46.1493714" lon="13.4341995"><ele>361.0</ele><time>2026-05-02T13:27:20.796Z</time></trkpt><trkpt lat="46.1493946" lon="13.4340994"><ele>361.0</ele><time>2026-05-02T13:27:21.79Z</time></trkpt><trkpt lat="46.149434" lon="13.4338851"><ele>361.0</ele><time>2026-05-02T13:27:24.79Z</time></trkpt><trkpt lat="46.1494678" lon="13.4338059"><ele>361.0</ele><time>2026-05-02T13:27:26.792Z</time></trkpt><trkpt lat="46.1495454" lon="13.4338796"><ele>361.0</ele><time>2026-05-02T13:27:28.79Z</time></trkpt><trkpt lat="46.1496125" lon="13.4339833"><ele>361.0</ele><time>2026-05-02T13:27:29.799Z</time></trkpt><trkpt lat="46.149701" lon="13.4340836"><ele>361.0</ele><time>2026-05-02T13:27:31.791Z</time></trkpt><trkpt lat="46.1498004" lon="13.4341349"><ele>358.20000000000005</ele><time>2026-05-02T13:27:33.789Z</time></trkpt><trkpt lat="46.1499232" lon="13.4341547"><ele>355.40000000000003</ele><time>2026-05-02T13:27:35.794Z</time></trkpt><trkpt lat="46.1500404" lon="13.4341155"><ele>352.6</ele><time>2026-05-02T13:27:37.788Z</time></trkpt><trkpt lat="46.1501104" lon="13.4340597"><ele>349.8</ele><time>2026-05-02T13:27:38.798Z</time></trkpt><trkpt lat="46.1501741" lon="13.4339957"><ele>347.0</ele><time>2026-05-02T13:27:39.785Z</time></trkpt><trkpt lat="46.1502402" lon="13.4339076"><ele>347.0</ele><time>2026-05-02T13:27:40.791Z</time></trkpt><trkpt lat="46.1503143" lon="13.433816"><ele>347.0</ele><time>2026-05-02T13:27:41.802Z</time></trkpt><trkpt lat="46.1503776" lon="13.4337426"><ele>347.0</ele><time>2026-05-02T13:27:42.787Z</time></trkpt><trkpt lat="46.1505072" lon="13.4336245"><ele>347.0</ele><time>2026-05-02T13:27:44.791Z</time></trkpt><trkpt lat="46.150568" lon="13.4335659"><ele>347.0</ele><time>2026-05-02T13:27:45.79Z</time></trkpt><trkpt lat="46.1506207" lon="13.4334996"><ele>348.6666666666667</ele><time>2026-05-02T13:27:46.792Z</time></trkpt><trkpt lat="46.150674" lon="13.4334248"><ele>350.33333333333337</ele><time>2026-05-02T13:27:47.792Z</time></trkpt><trkpt lat="46.150712" lon="13.4333341"><ele>352.0</ele><time>2026-05-02T13:27:48.791Z</time></trkpt><trkpt lat="46.1507519" lon="13.4332271"><ele>353.6666666666667</ele><time>2026-05-02T13:27:49.801Z</time></trkpt><trkpt lat="46.1507853" lon="13.4331089"><ele>355.3333333333333</ele><time>2026-05-02T13:27:50.791Z</time></trkpt><trkpt lat="46.1508214" lon="13.4329709"><ele>357.0</ele><time>2026-05-02T13:27:51.79Z</time></trkpt><trkpt lat="46.1508739" lon="13.4328138"><ele>361.0</ele><time>2026-05-02T13:27:52.785Z</time></trkpt><trkpt lat="46.1509014" lon="13.432656"><ele>365.0</ele><time>2026-05-02T13:27:53.798Z</time></trkpt><trkpt lat="46.1509302" lon="13.4325055"><ele>369.0</ele><time>2026-05-02T13:27:54.795Z</time></trkpt><trkpt lat="46.1509566" lon="13.432367"><ele>373.0</ele><time>2026-05-02T13:27:55.802Z</time></trkpt><trkpt lat="46.1509761" lon="13.4322324"><ele>377.0</ele><time>2026-05-02T13:27:56.786Z</time></trkpt><trkpt lat="46.150985" lon="13.4321148"><ele>379.20000000000005</ele><time>2026-05-02T13:27:57.799Z</time></trkpt><trkpt lat="46.150991" lon="13.4320086"><ele>381.4</ele><time>2026-05-02T13:27:58.79Z</time></trkpt><trkpt lat="46.1509906" lon="13.431914"><ele>383.6</ele><time>2026-05-02T13:27:59.8Z</time></trkpt><trkpt lat="46.150998" lon="13.4317674"><ele>385.79999999999995</ele><time>2026-05-02T13:28:01.786Z</time></trkpt><trkpt lat="46.1509539" lon="13.4316015"><ele>388.0</ele><time>2026-05-02T13:28:03.796Z</time></trkpt><trkpt lat="46.1508877" lon="13.4314827"><ele>390.0</ele><time>2026-05-02T13:28:04.781Z</time></trkpt><trkpt lat="46.1507736" lon="13.4312906"><ele>392.0</ele><time>2026-05-02T13:28:06.801Z</time></trkpt><trkpt lat="46.1507379" lon="13.4311144"><ele>394.0</ele><time>2026-05-02T13:28:08.797Z</time></trkpt><trkpt lat="46.150765" lon="13.4309366"><ele>396.0</ele><time>2026-05-02T13:28:10.799Z</time></trkpt><trkpt lat="46.1507972" lon="13.4308428"><ele>396.0</ele><time>2026-05-02T13:28:11.794Z</time></trkpt><trkpt lat="46.150834" lon="13.4307401"><ele>396.0</ele><time>2026-05-02T13:28:12.791Z</time></trkpt><trkpt lat="46.1508823" lon="13.430637"><ele>396.0</ele><time>2026-05-02T13:28:13.806Z</time></trkpt><trkpt lat="46.1509303" lon="13.4305344"><ele>396.0</ele><time>2026-05-02T13:28:14.796Z</time></trkpt><trkpt lat="46.1509738" lon="13.4304319"><ele>396.0</ele><time>2026-05-02T13:28:15.793Z</time></trkpt><trkpt lat="46.1510216" lon="13.4303248"><ele>396.0</ele><time>2026-05-02T13:28:16.794Z</time></trkpt><trkpt lat="46.1510681" lon="13.4302241"><ele>399.3333333333333</ele><time>2026-05-02T13:28:17.79Z</time></trkpt><trkpt lat="46.151112" lon="13.4301229"><ele>402.66666666666663</ele><time>2026-05-02T13:28:18.81Z</time></trkpt><trkpt lat="46.1511609" lon="13.4300156"><ele>406.0</ele><time>2026-05-02T13:28:19.798Z</time></trkpt><trkpt lat="46.1512085" lon="13.4299055"><ele>409.3333333333333</ele><time>2026-05-02T13:28:20.786Z</time></trkpt><trkpt lat="46.1512559" lon="13.4297931"><ele>412.66666666666663</ele><time>2026-05-02T13:28:21.802Z</time></trkpt><trkpt lat="46.1512874" lon="13.4296789"><ele>416.0</ele><time>2026-05-02T13:28:22.791Z</time></trkpt><trkpt lat="46.1513369" lon="13.429575"><ele>413.25</ele><time>2026-05-02T13:28:23.791Z</time></trkpt><trkpt lat="46.1513909" lon="13.4294742"><ele>410.5</ele><time>2026-05-02T13:28:24.799Z</time></trkpt><trkpt lat="46.1514421" lon="13.4293968"><ele>407.75</ele><time>2026-05-02T13:28:25.787Z</time></trkpt><trkpt lat="46.1516157" lon="13.4292015"><ele>405.0</ele><time>2026-05-02T13:28:29.786Z</time></trkpt><trkpt lat="46.1516521" lon="13.4293106"><ele>405.0</ele><time>2026-05-02T13:28:33.791Z</time></trkpt><trkpt lat="46.1516527" lon="13.4294668"><ele>405.0</ele><time>2026-05-02T13:28:35.788Z</time></trkpt><trkpt lat="46.1516568" lon="13.4295597"><ele>405.0</ele><time>2026-05-02T13:28:36.794Z</time></trkpt><trkpt lat="46.1516714" lon="13.4296613"><ele>405.0</ele><time>2026-05-02T13:28:37.795Z</time></trkpt><trkpt lat="46.1516983" lon="13.4297757"><ele>405.0</ele><time>2026-05-02T13:28:38.791Z</time></trkpt><trkpt lat="46.1517301" lon="13.4298792"><ele>405.0</ele><time>2026-05-02T13:28:39.795Z</time></trkpt><trkpt lat="46.151775" lon="13.4299876"><ele>402.0</ele><time>2026-05-02T13:28:40.789Z</time></trkpt><trkpt lat="46.1518283" lon="13.4300979"><ele>399.0</ele><time>2026-05-02T13:28:41.794Z</time></trkpt><trkpt lat="46.1518929" lon="13.4302143"><ele>396.0</ele><time>2026-05-02T13:28:42.799Z</time></trkpt><trkpt lat="46.1519637" lon="13.4303243"><ele>393.0</ele><time>2026-05-02T13:28:43.794Z</time></trkpt><trkpt lat="46.1520256" lon="13.4304364"><ele>390.0</ele><time>2026-05-02T13:28:44.788Z</time></trkpt><trkpt lat="46.1520848" lon="13.4305383"><ele>388.5</ele><time>2026-05-02T13:28:45.796Z</time></trkpt><trkpt lat="46.1521565" lon="13.4306196"><ele>387.0</ele><time>2026-05-02T13:28:46.799Z</time></trkpt><trkpt lat="46.1523249" lon="13.4306635"><ele>385.5</ele><time>2026-05-02T13:28:48.8Z</time></trkpt><trkpt lat="46.1524221" lon="13.4306485"><ele>384.0</ele><time>2026-05-02T13:28:49.8Z</time></trkpt><trkpt lat="46.1525462" lon="13.4305561"><ele>384.0</ele><time>2026-05-02T13:28:50.788Z</time></trkpt><trkpt lat="46.1526606" lon="13.430508"><ele>384.0</ele><time>2026-05-02T13:28:51.784Z</time></trkpt><trkpt lat="46.1527746" lon="13.4304815"><ele>384.0</ele><time>2026-05-02T13:28:52.789Z</time></trkpt><trkpt lat="46.1528538" lon="13.4304432"><ele>384.0</ele><time>2026-05-02T13:28:53.789Z</time></trkpt><trkpt lat="46.1529428" lon="13.4304265"><ele>384.0</ele><time>2026-05-02T13:28:54.795Z</time></trkpt><trkpt lat="46.1530324" lon="13.4304256"><ele>388.1666666666667</ele><time>2026-05-02T13:28:55.79Z</time></trkpt><trkpt lat="46.1531082" lon="13.4304295"><ele>392.33333333333337</ele><time>2026-05-02T13:28:56.801Z</time></trkpt><trkpt lat="46.1531808" lon="13.43042"><ele>396.5</ele><time>2026-05-02T13:28:57.795Z</time></trkpt><trkpt lat="46.1532708" lon="13.4304191"><ele>400.6666666666667</ele><time>2026-05-02T13:28:58.787Z</time></trkpt><trkpt lat="46.1533453" lon="13.4303922"><ele>404.83333333333337</ele><time>2026-05-02T13:28:59.79Z</time></trkpt><trkpt lat="46.1534204" lon="13.4303643"><ele>409.0</ele><time>2026-05-02T13:29:00.791Z</time></trkpt><trkpt lat="46.1535262" lon="13.4303369"><ele>410.5</ele><time>2026-05-02T13:29:02.789Z</time></trkpt><trkpt lat="46.1536174" lon="13.4303934"><ele>412.0</ele><time>2026-05-02T13:29:04.786Z</time></trkpt><trkpt lat="46.153668" lon="13.430528"><ele>413.5</ele><time>2026-05-02T13:29:06.793Z</time></trkpt><trkpt lat="46.1537449" lon="13.4306201"><ele>415.0</ele><time>2026-05-02T13:29:08.79Z</time></trkpt><trkpt lat="46.1539823" lon="13.4306969"><ele>416.8</ele><time>2026-05-02T13:29:12.791Z</time></trkpt><trkpt lat="46.1541075" lon="13.4306603"><ele>418.6</ele><time>2026-05-02T13:29:14.796Z</time></trkpt><trkpt lat="46.1541711" lon="13.4306015"><ele>420.4</ele><time>2026-05-02T13:29:15.789Z</time></trkpt><trkpt lat="46.1542305" lon="13.4305282"><ele>422.2</ele><time>2026-05-02T13:29:16.793Z</time></trkpt><trkpt lat="46.1543087" lon="13.430445"><ele>424.0</ele><time>2026-05-02T13:29:17.79Z</time></trkpt><trkpt lat="46.1543972" lon="13.4303611"><ele>424.0</ele><time>2026-05-02T13:29:18.792Z</time></trkpt><trkpt lat="46.154501" lon="13.4302684"><ele>424.0</ele><time>2026-05-02T13:29:19.801Z</time></trkpt><trkpt lat="46.1546094" lon="13.4301832"><ele>424.0</ele><time>2026-05-02T13:29:20.79Z</time></trkpt><trkpt lat="46.1547068" lon="13.4300848"><ele>424.0</ele><time>2026-05-02T13:29:21.783Z</time></trkpt><trkpt lat="46.1548087" lon="13.4299817"><ele>422.4</ele><time>2026-05-02T13:29:22.794Z</time></trkpt><trkpt lat="46.1548992" lon="13.4298816"><ele>420.79999999999995</ele><time>2026-05-02T13:29:23.786Z</time></trkpt><trkpt lat="46.1549968" lon="13.4298191"><ele>419.20000000000005</ele><time>2026-05-02T13:29:24.796Z</time></trkpt><trkpt lat="46.1550913" lon="13.4297696"><ele>417.6</ele><time>2026-05-02T13:29:25.788Z</time></trkpt><trkpt lat="46.15518" lon="13.4297156"><ele>416.0</ele><time>2026-05-02T13:29:26.79Z</time></trkpt><trkpt lat="46.1552515" lon="13.4296552"><ele>423.20000000000005</ele><time>2026-05-02T13:29:27.787Z</time></trkpt><trkpt lat="46.1553189" lon="13.4295798"><ele>430.40000000000003</ele><time>2026-05-02T13:29:28.784Z</time></trkpt><trkpt lat="46.1553743" lon="13.4295184"><ele>437.6</ele><time>2026-05-02T13:29:29.79Z</time></trkpt><trkpt lat="46.1554793" lon="13.4293516"><ele>444.8</ele><time>2026-05-02T13:29:31.793Z</time></trkpt><trkpt lat="46.1555222" lon="13.4292499"><ele>452.0</ele><time>2026-05-02T13:29:32.8Z</time></trkpt><trkpt lat="46.1555643" lon="13.4291498"><ele>451.99999999999994</ele><time>2026-05-02T13:29:33.804Z</time></trkpt><trkpt lat="46.1556298" lon="13.4290656"><ele>452.0</ele><time>2026-05-02T13:29:34.792Z</time></trkpt><trkpt lat="46.1556796" lon="13.4289761"><ele>452.0</ele><time>2026-05-02T13:29:35.792Z</time></trkpt><trkpt lat="46.1557288" lon="13.4288862"><ele>452.0</ele><time>2026-05-02T13:29:36.791Z</time></trkpt><trkpt lat="46.1557741" lon="13.4287795"><ele>451.99999999999994</ele><time>2026-05-02T13:29:37.795Z</time></trkpt><trkpt lat="46.155819" lon="13.4286607"><ele>452.0</ele><time>2026-05-02T13:29:38.792Z</time></trkpt><trkpt lat="46.1558544" lon="13.4285459"><ele>450.99999999999994</ele><time>2026-05-02T13:29:39.793Z</time></trkpt><trkpt lat="46.155898" lon="13.4284304"><ele>450.0</ele><time>2026-05-02T13:29:40.783Z</time></trkpt><trkpt lat="46.1559369" lon="13.428316"><ele>449.0</ele><time>2026-05-02T13:29:41.802Z</time></trkpt><trkpt lat="46.1559805" lon="13.4282238"><ele>448.0</ele><time>2026-05-02T13:29:42.784Z</time></trkpt><trkpt lat="46.1560206" lon="13.4281362"><ele>446.99999999999994</ele><time>2026-05-02T13:29:43.783Z</time></trkpt><trkpt lat="46.1560998" lon="13.4280128"><ele>446.0</ele><time>2026-05-02T13:29:45.789Z</time></trkpt><trkpt lat="46.1562147" lon="13.4279599"><ele>446.0</ele><time>2026-05-02T13:29:47.791Z</time></trkpt><trkpt lat="46.1563109" lon="13.428032"><ele>446.0</ele><time>2026-05-02T13:29:48.789Z</time></trkpt><trkpt lat="46.1564512" lon="13.4280406"><ele>446.0</ele><time>2026-05-02T13:29:49.795Z</time></trkpt><trkpt lat="46.1565744" lon="13.4280135"><ele>446.0</ele><time>2026-05-02T13:29:50.792Z</time></trkpt><trkpt lat="46.156749" lon="13.4279026"><ele>447.99999999999994</ele><time>2026-05-02T13:29:52.789Z</time></trkpt><trkpt lat="46.1568523" lon="13.4277916"><ele>450.0</ele><time>2026-05-02T13:29:54.788Z</time></trkpt><trkpt lat="46.1568923" lon="13.4277155"><ele>452.0</ele><time>2026-05-02T13:29:55.8Z</time></trkpt><trkpt lat="46.1569276" lon="13.4276124"><ele>454.0</ele><time>2026-05-02T13:29:56.788Z</time></trkpt><trkpt lat="46.1569607" lon="13.4275104"><ele>455.99999999999994</ele><time>2026-05-02T13:29:57.787Z</time></trkpt><trkpt lat="46.1569915" lon="13.4274161"><ele>458.0</ele><time>2026-05-02T13:29:58.797Z</time></trkpt><trkpt lat="46.1570329" lon="13.4273128"><ele>457.99999999999994</ele><time>2026-05-02T13:29:59.805Z</time></trkpt><trkpt lat="46.1570875" lon="13.4272101"><ele>458.0</ele><time>2026-05-02T13:30:00.798Z</time></trkpt><trkpt lat="46.1571417" lon="13.4271238"><ele>458.0</ele><time>2026-05-02T13:30:01.798Z</time></trkpt><trkpt lat="46.1571971" lon="13.4270344"><ele>458.0</ele><time>2026-05-02T13:30:02.799Z</time></trkpt><trkpt lat="46.1572708" lon="13.4269638"><ele>457.99999999999994</ele><time>2026-05-02T13:30:03.799Z</time></trkpt><trkpt lat="46.1573524" lon="13.4269159"><ele>458.0</ele><time>2026-05-02T13:30:04.787Z</time></trkpt><trkpt lat="46.157456" lon="13.4268771"><ele>462.2</ele><time>2026-05-02T13:30:05.794Z</time></trkpt><trkpt lat="46.1575578" lon="13.4268407"><ele>466.4</ele><time>2026-05-02T13:30:06.796Z</time></trkpt><trkpt lat="46.1576613" lon="13.4268061"><ele>470.59999999999997</ele><time>2026-05-02T13:30:07.789Z</time></trkpt><trkpt lat="46.1577643" lon="13.4267675"><ele>474.79999999999995</ele><time>2026-05-02T13:30:08.786Z</time></trkpt><trkpt lat="46.15785" lon="13.4267226"><ele>479.0</ele><time>2026-05-02T13:30:09.79Z</time></trkpt><trkpt lat="46.1579335" lon="13.4266663"><ele>479.0</ele><time>2026-05-02T13:30:10.79Z</time></trkpt><trkpt lat="46.1580056" lon="13.4266347"><ele>479.0</ele><time>2026-05-02T13:30:11.796Z</time></trkpt><trkpt lat="46.1582366" lon="13.4266869"><ele>479.0</ele><time>2026-05-02T13:30:14.799Z</time></trkpt><trkpt lat="46.1583275" lon="13.4267575"><ele>479.0</ele><time>2026-05-02T13:30:15.794Z</time></trkpt><trkpt lat="46.1584293" lon="13.4268294"><ele>478.16666666666663</ele><time>2026-05-02T13:30:16.802Z</time></trkpt><trkpt lat="46.158516" lon="13.4268693"><ele>477.3333333333333</ele><time>2026-05-02T13:30:17.789Z</time></trkpt><trkpt lat="46.1586156" lon="13.4269114"><ele>476.5</ele><time>2026-05-02T13:30:18.79Z</time></trkpt><trkpt lat="46.1587086" lon="13.426944"><ele>475.66666666666663</ele><time>2026-05-02T13:30:19.783Z</time></trkpt><trkpt lat="46.15879" lon="13.4269838"><ele>474.8333333333333</ele><time>2026-05-02T13:30:20.801Z</time></trkpt><trkpt lat="46.1588547" lon="13.4270075"><ele>474.0</ele><time>2026-05-02T13:30:21.791Z</time></trkpt><trkpt lat="46.1589222" lon="13.4270181"><ele>474.0</ele><time>2026-05-02T13:30:22.789Z</time></trkpt><trkpt lat="46.1590244" lon="13.4269748"><ele>474.0</ele><time>2026-05-02T13:30:24.792Z</time></trkpt><trkpt lat="46.1590655" lon="13.4268988"><ele>474.0</ele><time>2026-05-02T13:30:25.788Z</time></trkpt><trkpt lat="46.159103" lon="13.4268121"><ele>474.0</ele><time>2026-05-02T13:30:26.8Z</time></trkpt><trkpt lat="46.1591416" lon="13.4267175"><ele>474.0</ele><time>2026-05-02T13:30:27.796Z</time></trkpt><trkpt lat="46.1591798" lon="13.4266148"><ele>474.0</ele><time>2026-05-02T13:30:28.787Z</time></trkpt><trkpt lat="46.1592185" lon="13.4264945"><ele>474.4</ele><time>2026-05-02T13:30:29.789Z</time></trkpt><trkpt lat="46.1592546" lon="13.4263585"><ele>474.79999999999995</ele><time>2026-05-02T13:30:30.799Z</time></trkpt><trkpt lat="46.1592788" lon="13.426207"><ele>475.20000000000005</ele><time>2026-05-02T13:30:31.793Z</time></trkpt><trkpt lat="46.1592985" lon="13.426059"><ele>475.6</ele><time>2026-05-02T13:30:32.787Z</time></trkpt><trkpt lat="46.159321" lon="13.4259106"><ele>476.0</ele><time>2026-05-02T13:30:33.792Z</time></trkpt><trkpt lat="46.15935" lon="13.4256083"><ele>478.0</ele><time>2026-05-02T13:30:35.787Z</time></trkpt><trkpt lat="46.1593658" lon="13.4254598"><ele>480.0</ele><time>2026-05-02T13:30:36.8Z</time></trkpt><trkpt lat="46.1593764" lon="13.4253144"><ele>482.0</ele><time>2026-05-02T13:30:37.8Z</time></trkpt><trkpt lat="46.1593712" lon="13.4251719"><ele>484.0</ele><time>2026-05-02T13:30:38.804Z</time></trkpt><trkpt lat="46.1593612" lon="13.4250388"><ele>486.0</ele><time>2026-05-02T13:30:39.799Z</time></trkpt><trkpt lat="46.1593475" lon="13.424934"><ele>486.0</ele><time>2026-05-02T13:30:40.789Z</time></trkpt><trkpt lat="46.1593274" lon="13.4248283"><ele>486.0</ele><time>2026-05-02T13:30:41.785Z</time></trkpt><trkpt lat="46.1593024" lon="13.4247246"><ele>486.0</ele><time>2026-05-02T13:30:42.79Z</time></trkpt><trkpt lat="46.1592688" lon="13.4246199"><ele>486.0</ele><time>2026-05-02T13:30:43.795Z</time></trkpt><trkpt lat="46.1592805" lon="13.4244765"><ele>486.0</ele><time>2026-05-02T13:30:45.799Z</time></trkpt><trkpt lat="46.1593287" lon="13.424349"><ele>486.0</ele><time>2026-05-02T13:30:47.789Z</time></trkpt><trkpt lat="46.1593832" lon="13.4242028"><ele>488.8</ele><time>2026-05-02T13:30:49.8Z</time></trkpt><trkpt lat="46.1594328" lon="13.4240305"><ele>491.6</ele><time>2026-05-02T13:30:51.786Z</time></trkpt><trkpt lat="46.1594652" lon="13.4239421"><ele>494.4</ele><time>2026-05-02T13:30:52.784Z</time></trkpt><trkpt lat="46.1594759" lon="13.4238333"><ele>497.2</ele><time>2026-05-02T13:30:53.787Z</time></trkpt><trkpt lat="46.1594814" lon="13.4237323"><ele>500.0</ele><time>2026-05-02T13:30:54.789Z</time></trkpt><trkpt lat="46.159446" lon="13.4235429"><ele>500.4</ele><time>2026-05-02T13:30:56.782Z</time></trkpt><trkpt lat="46.1593878" lon="13.4233817"><ele>500.8</ele><time>2026-05-02T13:30:58.787Z</time></trkpt><trkpt lat="46.15938" lon="13.423234"><ele>501.20000000000005</ele><time>2026-05-02T13:31:00.782Z</time></trkpt><trkpt lat="46.1593803" lon="13.4230712"><ele>501.6</ele><time>2026-05-02T13:31:02.788Z</time></trkpt><trkpt lat="46.1593341" lon="13.4230019"><ele>502.0</ele><time>2026-05-02T13:31:03.781Z</time></trkpt><trkpt lat="46.1592456" lon="13.4229303"><ele>500.00000000000006</ele><time>2026-05-02T13:31:04.784Z</time></trkpt><trkpt lat="46.1591834" lon="13.4228637"><ele>498.0</ele><time>2026-05-02T13:31:05.782Z</time></trkpt><trkpt lat="46.1591548" lon="13.4227707"><ele>496.0</ele><time>2026-05-02T13:31:06.785Z</time></trkpt><trkpt lat="46.1591486" lon="13.4225791"><ele>494.0</ele><time>2026-05-02T13:31:08.782Z</time></trkpt><trkpt lat="46.1591465" lon="13.4224879"><ele>492.00000000000006</ele><time>2026-05-02T13:31:09.79Z</time></trkpt><trkpt lat="46.1591439" lon="13.4223883"><ele>490.0</ele><time>2026-05-02T13:31:10.792Z</time></trkpt><trkpt lat="46.1591393" lon="13.4222823"><ele>490.00000000000006</ele><time>2026-05-02T13:31:11.796Z</time></trkpt><trkpt lat="46.1591398" lon="13.4221621"><ele>490.0</ele><time>2026-05-02T13:31:12.794Z</time></trkpt><trkpt lat="46.1591464" lon="13.4220389"><ele>490.0</ele><time>2026-05-02T13:31:13.799Z</time></trkpt><trkpt lat="46.1591589" lon="13.4219194"><ele>490.0</ele><time>2026-05-02T13:31:14.794Z</time></trkpt><trkpt lat="46.1591739" lon="13.4218033"><ele>490.00000000000006</ele><time>2026-05-02T13:31:15.788Z</time></trkpt><trkpt lat="46.1591826" lon="13.4217083"><ele>490.0</ele><time>2026-05-02T13:31:16.791Z</time></trkpt><trkpt lat="46.1591698" lon="13.4214132"><ele>493.00000000000006</ele><time>2026-05-02T13:31:19.793Z</time></trkpt><trkpt lat="46.1591292" lon="13.4213112"><ele>496.0</ele><time>2026-05-02T13:31:20.792Z</time></trkpt><trkpt lat="46.1590824" lon="13.4212337"><ele>499.0</ele><time>2026-05-02T13:31:21.797Z</time></trkpt><trkpt lat="46.1590298" lon="13.4211694"><ele>502.0</ele><time>2026-05-02T13:31:22.784Z</time></trkpt><trkpt lat="46.1589668" lon="13.4210773"><ele>505.00000000000006</ele><time>2026-05-02T13:31:24.787Z</time></trkpt><trkpt lat="46.1589625" lon="13.4209711"><ele>508.0</ele><time>2026-05-02T13:31:26.802Z</time></trkpt><trkpt lat="46.1589851" lon="13.4208696"><ele>508.0</ele><time>2026-05-02T13:31:28.785Z</time></trkpt><trkpt lat="46.1590208" lon="13.4207387"><ele>507.99999999999994</ele><time>2026-05-02T13:31:30.79Z</time></trkpt><trkpt lat="46.1590852" lon="13.4205761"><ele>507.99999999999994</ele><time>2026-05-02T13:31:32.795Z</time></trkpt><trkpt lat="46.1591428" lon="13.4205003"><ele>508.0</ele><time>2026-05-02T13:31:33.791Z</time></trkpt><trkpt lat="46.1592174" lon="13.4204181"><ele>508.0</ele><time>2026-05-02T13:31:34.788Z</time></trkpt><trkpt lat="46.1592845" lon="13.4203196"><ele>513.25</ele><time>2026-05-02T13:31:35.789Z</time></trkpt><trkpt lat="46.1593598" lon="13.4202156"><ele>518.5</ele><time>2026-05-02T13:31:36.786Z</time></trkpt><trkpt lat="46.1594211" lon="13.4200988"><ele>523.75</ele><time>2026-05-02T13:31:37.794Z</time></trkpt><trkpt lat="46.1595655" lon="13.4198459"><ele>529.0</ele><time>2026-05-02T13:31:39.788Z</time></trkpt><trkpt lat="46.1596283" lon="13.4197144"><ele>534.0</ele><time>2026-05-02T13:31:40.797Z</time></trkpt><trkpt lat="46.159681" lon="13.4195961"><ele>539.0</ele><time>2026-05-02T13:31:41.792Z</time></trkpt><trkpt lat="46.1597367" lon="13.4194797"><ele>544.0</ele><time>2026-05-02T13:31:42.794Z</time></trkpt><trkpt lat="46.1597889" lon="13.4193561"><ele>549.0</ele><time>2026-05-02T13:31:43.784Z</time></trkpt><trkpt lat="46.1598378" lon="13.4192226"><ele>554.0</ele><time>2026-05-02T13:31:44.795Z</time></trkpt><trkpt lat="46.1598843" lon="13.4190937"><ele>545.2</ele><time>2026-05-02T13:31:45.789Z</time></trkpt><trkpt lat="46.1599248" lon="13.4189505"><ele>536.4</ele><time>2026-05-02T13:31:46.791Z</time></trkpt><trkpt lat="46.1599586" lon="13.4187952"><ele>527.6</ele><time>2026-05-02T13:31:47.798Z</time></trkpt><trkpt lat="46.1599984" lon="13.4186491"><ele>518.8</ele><time>2026-05-02T13:31:48.786Z</time></trkpt><trkpt lat="46.1600407" lon="13.4185139"><ele>510.0</ele><time>2026-05-02T13:31:49.797Z</time></trkpt><trkpt lat="46.1600722" lon="13.4183914"><ele>510.0</ele><time>2026-05-02T13:31:50.794Z</time></trkpt><trkpt lat="46.1601004" lon="13.4182762"><ele>510.0</ele><time>2026-05-02T13:31:51.789Z</time></trkpt><trkpt lat="46.1601265" lon="13.4181728"><ele>510.0</ele><time>2026-05-02T13:31:52.791Z</time></trkpt><trkpt lat="46.1601583" lon="13.4180766"><ele>510.0</ele><time>2026-05-02T13:31:53.793Z</time></trkpt><trkpt lat="46.160205" lon="13.4179499"><ele>510.0</ele><time>2026-05-02T13:31:55.787Z</time></trkpt><trkpt lat="46.160295" lon="13.4180113"><ele>510.0</ele><time>2026-05-02T13:31:58.793Z</time></trkpt><trkpt lat="46.160366" lon="13.4183658"><ele>510.0</ele><time>2026-05-02T13:32:02.798Z</time></trkpt><trkpt lat="46.1603995" lon="13.4185093"><ele>510.0</ele><time>2026-05-02T13:32:03.789Z</time></trkpt><trkpt lat="46.1604548" lon="13.4186701"><ele>510.0</ele><time>2026-05-02T13:32:04.786Z</time></trkpt><trkpt lat="46.1605155" lon="13.4188424"><ele>510.0</ele><time>2026-05-02T13:32:05.784Z</time></trkpt><trkpt lat="46.1605654" lon="13.4190171"><ele>507.8</ele><time>2026-05-02T13:32:06.788Z</time></trkpt><trkpt lat="46.1606107" lon="13.419164"><ele>505.6</ele><time>2026-05-02T13:32:07.794Z</time></trkpt><trkpt lat="46.1606358" lon="13.4193036"><ele>503.4</ele><time>2026-05-02T13:32:08.797Z</time></trkpt><trkpt lat="46.160639" lon="13.419461"><ele>501.2</ele><time>2026-05-02T13:32:09.783Z</time></trkpt><trkpt lat="46.1606219" lon="13.4196259"><ele>499.0</ele><time>2026-05-02T13:32:10.793Z</time></trkpt><trkpt lat="46.160601" lon="13.4197881"><ele>497.79999999999995</ele><time>2026-05-02T13:32:11.798Z</time></trkpt><trkpt lat="46.1606026" lon="13.4199405"><ele>496.59999999999997</ele><time>2026-05-02T13:32:12.791Z</time></trkpt><trkpt lat="46.1606054" lon="13.4201005"><ele>495.4</ele><time>2026-05-02T13:32:13.798Z</time></trkpt><trkpt lat="46.160627" lon="13.4202462"><ele>494.2</ele><time>2026-05-02T13:32:14.792Z</time></trkpt><trkpt lat="46.1606587" lon="13.420374"><ele>493.0</ele><time>2026-05-02T13:32:15.79Z</time></trkpt><trkpt lat="46.1607023" lon="13.4204577"><ele>492.79999999999995</ele><time>2026-05-02T13:32:16.786Z</time></trkpt><trkpt lat="46.1607431" lon="13.4205301"><ele>492.59999999999997</ele><time>2026-05-02T13:32:17.783Z</time></trkpt><trkpt lat="46.1608045" lon="13.4205991"><ele>492.40000000000003</ele><time>2026-05-02T13:32:19.788Z</time></trkpt><trkpt lat="46.1608652" lon="13.4207815"><ele>492.20000000000005</ele><time>2026-05-02T13:32:35.784Z</time></trkpt><trkpt lat="46.1609593" lon="13.4208318"><ele>492.0</ele><time>2026-05-02T13:32:37.803Z</time></trkpt><trkpt lat="46.161057" lon="13.4209017"><ele>492.0</ele><time>2026-05-02T13:32:39.794Z</time></trkpt><trkpt lat="46.1611413" lon="13.42097"><ele>492.0</ele><time>2026-05-02T13:32:41.783Z</time></trkpt><trkpt lat="46.1613078" lon="13.421075"><ele>492.0</ele><time>2026-05-02T13:32:50.793Z</time></trkpt><trkpt lat="46.1615344" lon="13.4212401"><ele>494.40000000000003</ele><time>2026-05-02T13:32:53.788Z</time></trkpt><trkpt lat="46.1616042" lon="13.4213411"><ele>496.80000000000007</ele><time>2026-05-02T13:32:54.783Z</time></trkpt><trkpt lat="46.1616477" lon="13.4214745"><ele>499.2</ele><time>2026-05-02T13:32:55.784Z</time></trkpt><trkpt lat="46.1616602" lon="13.4216373"><ele>501.6</ele><time>2026-05-02T13:32:56.783Z</time></trkpt><trkpt lat="46.1616684" lon="13.4217947"><ele>504.0</ele><time>2026-05-02T13:32:57.798Z</time></trkpt><trkpt lat="46.1616916" lon="13.4219419"><ele>504.0</ele><time>2026-05-02T13:32:58.795Z</time></trkpt><trkpt lat="46.1617255" lon="13.4220941"><ele>504.0</ele><time>2026-05-02T13:32:59.781Z</time></trkpt><trkpt lat="46.1617792" lon="13.4222483"><ele>504.0</ele><time>2026-05-02T13:33:00.788Z</time></trkpt><trkpt lat="46.1618289" lon="13.4224002"><ele>504.0</ele><time>2026-05-02T13:33:01.785Z</time></trkpt><trkpt lat="46.161882" lon="13.4225435"><ele>499.25</ele><time>2026-05-02T13:33:02.786Z</time></trkpt><trkpt lat="46.1620053" lon="13.4228103"><ele>494.5</ele><time>2026-05-02T13:33:04.783Z</time></trkpt><trkpt lat="46.1620756" lon="13.422929"><ele>489.75</ele><time>2026-05-02T13:33:05.78Z</time></trkpt><trkpt lat="46.1621439" lon="13.4230532"><ele>485.0</ele><time>2026-05-02T13:33:06.782Z</time></trkpt><trkpt lat="46.1622093" lon="13.4231627"><ele>481.8333333333333</ele><time>2026-05-02T13:33:07.788Z</time></trkpt><trkpt lat="46.1622754" lon="13.4232659"><ele>478.66666666666663</ele><time>2026-05-02T13:33:08.798Z</time></trkpt><trkpt lat="46.1623311" lon="13.4233568"><ele>475.5</ele><time>2026-05-02T13:33:09.797Z</time></trkpt><trkpt lat="46.1623825" lon="13.4234337"><ele>472.33333333333337</ele><time>2026-05-02T13:33:10.788Z</time></trkpt><trkpt lat="46.1624338" lon="13.4234934"><ele>469.1666666666667</ele><time>2026-05-02T13:33:11.792Z</time></trkpt><trkpt lat="46.1624992" lon="13.4235949"><ele>466.0</ele><time>2026-05-02T13:33:13.79Z</time></trkpt><trkpt lat="46.1625058" lon="13.4236891"><ele>474.33333333333337</ele><time>2026-05-02T13:33:14.8Z</time></trkpt><trkpt lat="46.162494" lon="13.4237886"><ele>482.6666666666667</ele><time>2026-05-02T13:33:15.786Z</time></trkpt><trkpt lat="46.1624645" lon="13.4238705"><ele>491.0</ele><time>2026-05-02T13:33:16.781Z</time></trkpt><trkpt lat="46.1624344" lon="13.4239875"><ele>499.33333333333337</ele><time>2026-05-02T13:33:17.789Z</time></trkpt><trkpt lat="46.1624227" lon="13.4241345"><ele>507.6666666666667</ele><time>2026-05-02T13:33:18.79Z</time></trkpt><trkpt lat="46.1624118" lon="13.4243005"><ele>516.0</ele><time>2026-05-02T13:33:19.782Z</time></trkpt><trkpt lat="46.1624039" lon="13.4244682"><ele>521.25</ele><time>2026-05-02T13:33:20.786Z</time></trkpt><trkpt lat="46.1623854" lon="13.4246536"><ele>526.5</ele><time>2026-05-02T13:33:21.787Z</time></trkpt><trkpt lat="46.1623688" lon="13.4248438"><ele>531.75</ele><time>2026-05-02T13:33:22.786Z</time></trkpt><trkpt lat="46.1623498" lon="13.4250257"><ele>537.0</ele><time>2026-05-02T13:33:23.798Z</time></trkpt><trkpt lat="46.162318" lon="13.4251876"><ele>524.6</ele><time>2026-05-02T13:33:24.795Z</time></trkpt><trkpt lat="46.1623187" lon="13.4254353"><ele>512.2</ele><time>2026-05-02T13:33:26.79Z</time></trkpt><trkpt lat="46.1623146" lon="13.4255317"><ele>499.8</ele><time>2026-05-02T13:33:27.798Z</time></trkpt><trkpt lat="46.162315" lon="13.4256341"><ele>487.4</ele><time>2026-05-02T13:33:28.796Z</time></trkpt><trkpt lat="46.1623172" lon="13.4257341"><ele>475.0</ele><time>2026-05-02T13:33:29.802Z</time></trkpt><trkpt lat="46.1623623" lon="13.4258641"><ele>484.4</ele><time>2026-05-02T13:33:31.791Z</time></trkpt><trkpt lat="46.1624223" lon="13.4258172"><ele>493.8</ele><time>2026-05-02T13:33:32.794Z</time></trkpt><trkpt lat="46.1624253" lon="13.4257165"><ele>503.20000000000005</ele><time>2026-05-02T13:33:33.784Z</time></trkpt><trkpt lat="46.1624128" lon="13.4255752"><ele>512.6</ele><time>2026-05-02T13:33:34.796Z</time></trkpt><trkpt lat="46.1624088" lon="13.4254139"><ele>522.0</ele><time>2026-05-02T13:33:35.788Z</time></trkpt><trkpt lat="46.1624284" lon="13.4252115"><ele>523.25</ele><time>2026-05-02T13:33:36.788Z</time></trkpt><trkpt lat="46.1624667" lon="13.4250093"><ele>524.5</ele><time>2026-05-02T13:33:37.797Z</time></trkpt><trkpt lat="46.1625071" lon="13.4248143"><ele>525.75</ele><time>2026-05-02T13:33:38.791Z</time></trkpt><trkpt lat="46.1625427" lon="13.4246372"><ele>527.0</ele><time>2026-05-02T13:33:39.8Z</time></trkpt><trkpt lat="46.1625749" lon="13.4244673"><ele>527.0</ele><time>2026-05-02T13:33:40.795Z</time></trkpt><trkpt lat="46.1626186" lon="13.4242818"><ele>527.0</ele><time>2026-05-02T13:33:41.799Z</time></trkpt><trkpt lat="46.1626781" lon="13.4240915"><ele>527.0</ele><time>2026-05-02T13:33:42.792Z</time></trkpt><trkpt lat="46.1627575" lon="13.4238863"><ele>527.0</ele><time>2026-05-02T13:33:43.789Z</time></trkpt><trkpt lat="46.1628436" lon="13.4236809"><ele>524.25</ele><time>2026-05-02T13:33:44.786Z</time></trkpt><trkpt lat="46.1629935" lon="13.4233855"><ele>521.5</ele><time>2026-05-02T13:33:46.79Z</time></trkpt><trkpt lat="46.1630432" lon="13.4232637"><ele>518.75</ele><time>2026-05-02T13:33:47.784Z</time></trkpt><trkpt lat="46.1630681" lon="13.423153"><ele>516.0</ele><time>2026-05-02T13:33:49.783Z</time></trkpt><trkpt lat="46.16301" lon="13.423011"><ele>516.0</ele><time>2026-05-02T13:33:50.789Z</time></trkpt><trkpt lat="46.162928" lon="13.4228661"><ele>516.0</ele><time>2026-05-02T13:33:51.789Z</time></trkpt><trkpt lat="46.1628321" lon="13.4227355"><ele>516.0</ele><time>2026-05-02T13:33:52.795Z</time></trkpt><trkpt lat="46.1627392" lon="13.4226168"><ele>516.0</ele><time>2026-05-02T13:33:53.79Z</time></trkpt><trkpt lat="46.1626649" lon="13.4224941"><ele>516.0</ele><time>2026-05-02T13:33:54.788Z</time></trkpt><trkpt lat="46.162617" lon="13.4223612"><ele>516.0</ele><time>2026-05-02T13:33:55.799Z</time></trkpt><trkpt lat="46.1625856" lon="13.4222158"><ele>516.0</ele><time>2026-05-02T13:33:56.788Z</time></trkpt><trkpt lat="46.1625714" lon="13.4220598"><ele>516.0</ele><time>2026-05-02T13:33:57.793Z</time></trkpt><trkpt lat="46.1625576" lon="13.4219003"><ele>516.0</ele><time>2026-05-02T13:33:58.796Z</time></trkpt><trkpt lat="46.1625563" lon="13.4217242"><ele>524.0</ele><time>2026-05-02T13:33:59.795Z</time></trkpt><trkpt lat="46.1625602" lon="13.4215455"><ele>532.0</ele><time>2026-05-02T13:34:00.784Z</time></trkpt><trkpt lat="46.1625681" lon="13.4213607"><ele>540.0</ele><time>2026-05-02T13:34:01.786Z</time></trkpt><trkpt lat="46.1625846" lon="13.4211682"><ele>548.0</ele><time>2026-05-02T13:34:02.788Z</time></trkpt><trkpt lat="46.1626098" lon="13.4209758"><ele>548.0</ele><time>2026-05-02T13:34:03.795Z</time></trkpt><trkpt lat="46.1626344" lon="13.4207757"><ele>548.0</ele><time>2026-05-02T13:34:04.806Z</time></trkpt><trkpt lat="46.1626754" lon="13.4205364"><ele>548.0</ele><time>2026-05-02T13:34:05.789Z</time></trkpt><trkpt lat="46.1627457" lon="13.4200209"><ele>548.75</ele><time>2026-05-02T13:34:07.784Z</time></trkpt><trkpt lat="46.1627791" lon="13.419809"><ele>549.5</ele><time>2026-05-02T13:34:08.791Z</time></trkpt><trkpt lat="46.162795" lon="13.4196227"><ele>550.25</ele><time>2026-05-02T13:34:09.788Z</time></trkpt><trkpt lat="46.1627662" lon="13.4194416"><ele>551.0</ele><time>2026-05-02T13:34:10.793Z</time></trkpt><trkpt lat="46.1627449" lon="13.4192496"><ele>556.5</ele><time>2026-05-02T13:34:11.783Z</time></trkpt><trkpt lat="46.162738" lon="13.4190638"><ele>562.0</ele><time>2026-05-02T13:34:12.79Z</time></trkpt><trkpt lat="46.162734" lon="13.4188826"><ele>567.5</ele><time>2026-05-02T13:34:13.787Z</time></trkpt><trkpt lat="46.1627422" lon="13.4187012"><ele>573.0</ele><time>2026-05-02T13:34:14.792Z</time></trkpt><trkpt lat="46.1627441" lon="13.4185211"><ele>574.75</ele><time>2026-05-02T13:34:15.786Z</time></trkpt><trkpt lat="46.1627581" lon="13.4183312"><ele>576.5</ele><time>2026-05-02T13:34:16.801Z</time></trkpt><trkpt lat="46.1627852" lon="13.4181359"><ele>578.25</ele><time>2026-05-02T13:34:17.788Z</time></trkpt><trkpt lat="46.1628224" lon="13.4179501"><ele>580.0</ele><time>2026-05-02T13:34:18.791Z</time></trkpt><trkpt lat="46.1628727" lon="13.4177698"><ele>580.0</ele><time>2026-05-02T13:34:19.792Z</time></trkpt><trkpt lat="46.1629284" lon="13.417602"><ele>580.0</ele><time>2026-05-02T13:34:20.788Z</time></trkpt><trkpt lat="46.1629919" lon="13.4174384"><ele>580.0</ele><time>2026-05-02T13:34:21.792Z</time></trkpt><trkpt lat="46.163054" lon="13.4172911"><ele>580.0</ele><time>2026-05-02T13:34:22.783Z</time></trkpt><trkpt lat="46.1631227" lon="13.4171469"><ele>586.25</ele><time>2026-05-02T13:34:23.794Z</time></trkpt><trkpt lat="46.1632069" lon="13.4170043"><ele>592.5</ele><time>2026-05-02T13:34:24.792Z</time></trkpt><trkpt lat="46.1632906" lon="13.4168787"><ele>598.75</ele><time>2026-05-02T13:34:25.794Z</time></trkpt><trkpt lat="46.1633846" lon="13.4167669"><ele>605.0</ele><time>2026-05-02T13:34:26.787Z</time></trkpt><trkpt lat="46.1634834" lon="13.4166644"><ele>605.0</ele><time>2026-05-02T13:34:27.788Z</time></trkpt><trkpt lat="46.1636872" lon="13.4165039"><ele>605.0</ele><time>2026-05-02T13:34:29.796Z</time></trkpt><trkpt lat="46.1637972" lon="13.4164417"><ele>605.0</ele><time>2026-05-02T13:34:30.787Z</time></trkpt><trkpt lat="46.1639097" lon="13.4163896"><ele>604.6</ele><time>2026-05-02T13:34:31.788Z</time></trkpt><trkpt lat="46.1640053" lon="13.4163023"><ele>604.2</ele><time>2026-05-02T13:34:32.785Z</time></trkpt><trkpt lat="46.1640889" lon="13.4162174"><ele>603.8</ele><time>2026-05-02T13:34:33.791Z</time></trkpt><trkpt lat="46.1641452" lon="13.4161287"><ele>603.4</ele><time>2026-05-02T13:34:34.785Z</time></trkpt><trkpt lat="46.164207" lon="13.4159687"><ele>603.0</ele><time>2026-05-02T13:34:36.786Z</time></trkpt><trkpt lat="46.1640997" lon="13.4158469"><ele>603.0</ele><time>2026-05-02T13:34:38.802Z</time></trkpt><trkpt lat="46.1639696" lon="13.4158221"><ele>603.0</ele><time>2026-05-02T13:34:39.785Z</time></trkpt><trkpt lat="46.163831" lon="13.4157385"><ele>603.0</ele><time>2026-05-02T13:34:40.797Z</time></trkpt><trkpt lat="46.1637292" lon="13.4156236"><ele>603.0</ele><time>2026-05-02T13:34:41.78Z</time></trkpt><trkpt lat="46.1636534" lon="13.4154961"><ele>603.0</ele><time>2026-05-02T13:34:42.787Z</time></trkpt><trkpt lat="46.1635752" lon="13.4153928"><ele>603.0</ele><time>2026-05-02T13:34:43.787Z</time></trkpt><trkpt lat="46.1634943" lon="13.4153015"><ele>603.0</ele><time>2026-05-02T13:34:44.787Z</time></trkpt><trkpt lat="46.1634168" lon="13.4152306"><ele>603.0</ele><time>2026-05-02T13:34:45.787Z</time></trkpt><trkpt lat="46.1633563" lon="13.4151447"><ele>603.0</ele><time>2026-05-02T13:34:46.796Z</time></trkpt><trkpt lat="46.1633131" lon="13.4150372"><ele>602.8</ele><time>2026-05-02T13:34:47.792Z</time></trkpt><trkpt lat="46.1632556" lon="13.4149349"><ele>602.5999999999999</ele><time>2026-05-02T13:34:48.789Z</time></trkpt><trkpt lat="46.1631792" lon="13.41484"><ele>602.4000000000001</ele><time>2026-05-02T13:34:49.789Z</time></trkpt><trkpt lat="46.1630756" lon="13.4146474"><ele>602.2</ele><time>2026-05-02T13:34:51.797Z</time></trkpt><trkpt lat="46.1630662" lon="13.4145493"><ele>602.0</ele><time>2026-05-02T13:34:52.787Z</time></trkpt><trkpt lat="46.1630775" lon="13.4144537"><ele>607.0</ele><time>2026-05-02T13:34:53.792Z</time></trkpt><trkpt lat="46.1630849" lon="13.4143483"><ele>612.0</ele><time>2026-05-02T13:34:54.799Z</time></trkpt><trkpt lat="46.1630821" lon="13.4142495"><ele>617.0</ele><time>2026-05-02T13:34:55.79Z</time></trkpt><trkpt lat="46.1630328" lon="13.4141769"><ele>622.0</ele><time>2026-05-02T13:34:56.786Z</time></trkpt><trkpt lat="46.1629463" lon="13.4141045"><ele>627.0</ele><time>2026-05-02T13:34:57.786Z</time></trkpt><trkpt lat="46.1628594" lon="13.4140163"><ele>632.0</ele><time>2026-05-02T13:34:58.785Z</time></trkpt><trkpt lat="46.1627673" lon="13.4139206"><ele>632.0</ele><time>2026-05-02T13:34:59.786Z</time></trkpt><trkpt lat="46.1626714" lon="13.4138261"><ele>632.0</ele><time>2026-05-02T13:35:00.785Z</time></trkpt><trkpt lat="46.1625722" lon="13.4137315"><ele>632.0</ele><time>2026-05-02T13:35:01.785Z</time></trkpt><trkpt lat="46.1624674" lon="13.4136431"><ele>632.0</ele><time>2026-05-02T13:35:02.786Z</time></trkpt><trkpt lat="46.1623753" lon="13.4135489"><ele>632.0</ele><time>2026-05-02T13:35:03.803Z</time></trkpt><trkpt lat="46.1622896" lon="13.4134554"><ele>632.0</ele><time>2026-05-02T13:35:04.796Z</time></trkpt><trkpt lat="46.1622055" lon="13.4133581"><ele>632.0</ele><time>2026-05-02T13:35:05.784Z</time></trkpt><trkpt lat="46.1621072" lon="13.4132679"><ele>632.0</ele><time>2026-05-02T13:35:06.788Z</time></trkpt><trkpt lat="46.162023" lon="13.413168"><ele>632.0</ele><time>2026-05-02T13:35:07.792Z</time></trkpt><trkpt lat="46.1619511" lon="13.4130681"><ele>634.5</ele><time>2026-05-02T13:35:08.8Z</time></trkpt><trkpt lat="46.1618942" lon="13.4129817"><ele>637.0</ele><time>2026-05-02T13:35:09.786Z</time></trkpt><trkpt lat="46.1618459" lon="13.4128797"><ele>639.5</ele><time>2026-05-02T13:35:10.798Z</time></trkpt><trkpt lat="46.1617878" lon="13.412624"><ele>642.0</ele><time>2026-05-02T13:35:12.785Z</time></trkpt><trkpt lat="46.1617809" lon="13.4124649"><ele>642.0</ele><time>2026-05-02T13:35:13.788Z</time></trkpt><trkpt lat="46.1617811" lon="13.4122935"><ele>642.0</ele><time>2026-05-02T13:35:14.797Z</time></trkpt><trkpt lat="46.1617805" lon="13.412128"><ele>642.0</ele><time>2026-05-02T13:35:15.79Z</time></trkpt><trkpt lat="46.1617809" lon="13.4119649"><ele>642.0</ele><time>2026-05-02T13:35:16.795Z</time></trkpt><trkpt lat="46.1617922" lon="13.4118057"><ele>641.5</ele><time>2026-05-02T13:35:17.793Z</time></trkpt><trkpt lat="46.1618265" lon="13.4116486"><ele>641.0</ele><time>2026-05-02T13:35:18.784Z</time></trkpt><trkpt lat="46.1618806" lon="13.411484"><ele>640.5</ele><time>2026-05-02T13:35:19.786Z</time></trkpt><trkpt lat="46.161938" lon="13.4113138"><ele>640.0</ele><time>2026-05-02T13:35:20.792Z</time></trkpt><trkpt lat="46.1619983" lon="13.4111405"><ele>641.0</ele><time>2026-05-02T13:35:21.8Z</time></trkpt><trkpt lat="46.1620568" lon="13.4109665"><ele>642.0</ele><time>2026-05-02T13:35:22.795Z</time></trkpt><trkpt lat="46.1621038" lon="13.4107943"><ele>643.0</ele><time>2026-05-02T13:35:23.786Z</time></trkpt><trkpt lat="46.1621273" lon="13.4106326"><ele>644.0</ele><time>2026-05-02T13:35:24.786Z</time></trkpt><trkpt lat="46.1621253" lon="13.4104743"><ele>644.8000000000001</ele><time>2026-05-02T13:35:25.789Z</time></trkpt><trkpt lat="46.1620892" lon="13.4103398"><ele>645.6</ele><time>2026-05-02T13:35:26.788Z</time></trkpt><trkpt lat="46.1620487" lon="13.4102182"><ele>646.4</ele><time>2026-05-02T13:35:27.787Z</time></trkpt><trkpt lat="46.1620182" lon="13.4101012"><ele>647.2</ele><time>2026-05-02T13:35:28.783Z</time></trkpt><trkpt lat="46.1620141" lon="13.4099717"><ele>648.0</ele><time>2026-05-02T13:35:29.792Z</time></trkpt><trkpt lat="46.1620165" lon="13.4098379"><ele>648.0</ele><time>2026-05-02T13:35:30.788Z</time></trkpt><trkpt lat="46.1620377" lon="13.4096848"><ele>648.0</ele><time>2026-05-02T13:35:31.797Z</time></trkpt><trkpt lat="46.1621439" lon="13.4093589"><ele>648.0</ele><time>2026-05-02T13:35:33.796Z</time></trkpt><trkpt lat="46.1622739" lon="13.4090375"><ele>650.25</ele><time>2026-05-02T13:35:35.783Z</time></trkpt><trkpt lat="46.1623451" lon="13.408887"><ele>652.5</ele><time>2026-05-02T13:35:36.788Z</time></trkpt><trkpt lat="46.1624184" lon="13.4087438"><ele>654.75</ele><time>2026-05-02T13:35:37.784Z</time></trkpt><trkpt lat="46.1624861" lon="13.4086161"><ele>657.0</ele><time>2026-05-02T13:35:38.798Z</time></trkpt><trkpt lat="46.1625466" lon="13.4085032"><ele>663.2</ele><time>2026-05-02T13:35:39.781Z</time></trkpt><trkpt lat="46.1625998" lon="13.4083972"><ele>669.4000000000001</ele><time>2026-05-02T13:35:40.779Z</time></trkpt><trkpt lat="46.1626532" lon="13.4082922"><ele>675.5999999999999</ele><time>2026-05-02T13:35:41.791Z</time></trkpt><trkpt lat="46.1626957" lon="13.4082114"><ele>681.8</ele><time>2026-05-02T13:35:42.824Z</time></trkpt><trkpt lat="46.1627187" lon="13.4080691"><ele>688.0</ele><time>2026-05-02T13:35:44.783Z</time></trkpt><trkpt lat="46.1626227" lon="13.408011"><ele>688.0</ele><time>2026-05-02T13:35:46.785Z</time></trkpt><trkpt lat="46.1625551" lon="13.4079974"><ele>688.0</ele><time>2026-05-02T13:35:47.796Z</time></trkpt><trkpt lat="46.1624957" lon="13.4079671"><ele>688.0</ele><time>2026-05-02T13:35:48.788Z</time></trkpt><trkpt lat="46.1624435" lon="13.4078306"><ele>688.0</ele><time>2026-05-02T13:35:50.787Z</time></trkpt><trkpt lat="46.1623846" lon="13.4077454"><ele>688.0</ele><time>2026-05-02T13:35:52.787Z</time></trkpt><trkpt lat="46.1622713" lon="13.4077382"><ele>688.0</ele><time>2026-05-02T13:35:54.791Z</time></trkpt><trkpt lat="46.1621154" lon="13.4078092"><ele>687.2</ele><time>2026-05-02T13:35:56.788Z</time></trkpt><trkpt lat="46.1620284" lon="13.4078778"><ele>686.4</ele><time>2026-05-02T13:35:57.796Z</time></trkpt><trkpt lat="46.1619345" lon="13.407961"><ele>685.6</ele><time>2026-05-02T13:35:58.793Z</time></trkpt><trkpt lat="46.1618497" lon="13.4080374"><ele>684.8000000000001</ele><time>2026-05-02T13:35:59.781Z</time></trkpt><trkpt lat="46.1617631" lon="13.4081087"><ele>684.0</ele><time>2026-05-02T13:36:00.784Z</time></trkpt><trkpt lat="46.1616832" lon="13.4081572"><ele>684.0</ele><time>2026-05-02T13:36:01.784Z</time></trkpt><trkpt lat="46.1615972" lon="13.4081982"><ele>684.0</ele><time>2026-05-02T13:36:02.785Z</time></trkpt><trkpt lat="46.1615231" lon="13.4082115"><ele>684.0</ele><time>2026-05-02T13:36:03.797Z</time></trkpt><trkpt lat="46.1614584" lon="13.4082213"><ele>684.0</ele><time>2026-05-02T13:36:04.792Z</time></trkpt><trkpt lat="46.1613532" lon="13.4082116"><ele>684.0</ele><time>2026-05-02T13:36:06.799Z</time></trkpt><trkpt lat="46.1612792" lon="13.4081988"><ele>684.0</ele><time>2026-05-02T13:36:13.786Z</time></trkpt><trkpt lat="46.1611862" lon="13.4082207"><ele>685.8000000000001</ele><time>2026-05-02T13:36:18.788Z</time></trkpt><trkpt lat="46.1610419" lon="13.4083202"><ele>687.6</ele><time>2026-05-02T13:36:20.793Z</time></trkpt><trkpt lat="46.1609645" lon="13.408394"><ele>689.4</ele><time>2026-05-02T13:36:21.792Z</time></trkpt><trkpt lat="46.160893" lon="13.4084606"><ele>691.2</ele><time>2026-05-02T13:36:22.791Z</time></trkpt><trkpt lat="46.1608254" lon="13.4085173"><ele>693.0</ele><time>2026-05-02T13:36:23.79Z</time></trkpt><trkpt lat="46.1607712" lon="13.4085689"><ele>693.0</ele><time>2026-05-02T13:36:24.789Z</time></trkpt><trkpt lat="46.1607124" lon="13.4086218"><ele>693.0</ele><time>2026-05-02T13:36:25.788Z</time></trkpt><trkpt lat="46.1606367" lon="13.4087516"><ele>693.0</ele><time>2026-05-02T13:36:27.787Z</time></trkpt><trkpt lat="46.1606149" lon="13.4089152"><ele>693.0</ele><time>2026-05-02T13:36:29.796Z</time></trkpt><trkpt lat="46.1606112" lon="13.4090095"><ele>693.0</ele><time>2026-05-02T13:36:30.8Z</time></trkpt><trkpt lat="46.1606203" lon="13.4091265"><ele>693.0</ele><time>2026-05-02T13:36:31.782Z</time></trkpt><trkpt lat="46.1606333" lon="13.4092262"><ele>691.8333333333334</ele><time>2026-05-02T13:36:32.797Z</time></trkpt><trkpt lat="46.1606425" lon="13.4094072"><ele>690.6666666666666</ele><time>2026-05-02T13:36:34.794Z</time></trkpt><trkpt lat="46.1606306" lon="13.4095219"><ele>689.5</ele><time>2026-05-02T13:36:35.797Z</time></trkpt><trkpt lat="46.1606153" lon="13.4096334"><ele>688.3333333333333</ele><time>2026-05-02T13:36:36.786Z</time></trkpt><trkpt lat="46.1605948" lon="13.4097397"><ele>687.1666666666666</ele><time>2026-05-02T13:36:37.779Z</time></trkpt><trkpt lat="46.1605609" lon="13.4098387"><ele>686.0</ele><time>2026-05-02T13:36:38.796Z</time></trkpt><trkpt lat="46.1605254" lon="13.4099216"><ele>686.0</ele><time>2026-05-02T13:36:39.784Z</time></trkpt><trkpt lat="46.1603719" lon="13.4101225"><ele>686.0</ele><time>2026-05-02T13:36:42.789Z</time></trkpt><trkpt lat="46.1603031" lon="13.4101882"><ele>686.0</ele><time>2026-05-02T13:36:43.789Z</time></trkpt><trkpt lat="46.1602309" lon="13.4102692"><ele>686.0</ele><time>2026-05-02T13:36:44.786Z</time></trkpt><trkpt lat="46.1601549" lon="13.4103548"><ele>686.0</ele><time>2026-05-02T13:36:45.793Z</time></trkpt><trkpt lat="46.1600995" lon="13.4104517"><ele>686.0</ele><time>2026-05-02T13:36:46.783Z</time></trkpt><trkpt lat="46.1600543" lon="13.4105398"><ele>686.0</ele><time>2026-05-02T13:36:47.786Z</time></trkpt><trkpt lat="46.1600062" lon="13.410599"><ele>686.0</ele><time>2026-05-02T13:36:48.799Z</time></trkpt><trkpt lat="46.1598951" lon="13.4106824"><ele>686.0</ele><time>2026-05-02T13:36:50.784Z</time></trkpt><trkpt lat="46.1597992" lon="13.4108082"><ele>688.5999999999999</ele><time>2026-05-02T13:36:52.789Z</time></trkpt><trkpt lat="46.1597463" lon="13.4109654"><ele>691.2</ele><time>2026-05-02T13:36:54.781Z</time></trkpt><trkpt lat="46.1597278" lon="13.4110736"><ele>693.8</ele><time>2026-05-02T13:36:55.788Z</time></trkpt><trkpt lat="46.1597214" lon="13.4111911"><ele>696.4000000000001</ele><time>2026-05-02T13:36:56.79Z</time></trkpt><trkpt lat="46.1597242" lon="13.4113126"><ele>699.0</ele><time>2026-05-02T13:36:57.781Z</time></trkpt><trkpt lat="46.1597194" lon="13.4114392"><ele>699.0</ele><time>2026-05-02T13:36:58.797Z</time></trkpt><trkpt lat="46.159697" lon="13.4115642"><ele>699.0</ele><time>2026-05-02T13:36:59.797Z</time></trkpt><trkpt lat="46.1596667" lon="13.4116897"><ele>699.0</ele><time>2026-05-02T13:37:00.781Z</time></trkpt><trkpt lat="46.1595768" lon="13.4119642"><ele>699.0</ele><time>2026-05-02T13:37:02.793Z</time></trkpt><trkpt lat="46.1595322" lon="13.4121068"><ele>693.8000000000001</ele><time>2026-05-02T13:37:03.785Z</time></trkpt><trkpt lat="46.1594874" lon="13.4122557"><ele>688.6</ele><time>2026-05-02T13:37:04.787Z</time></trkpt><trkpt lat="46.1594518" lon="13.412392"><ele>683.4</ele><time>2026-05-02T13:37:05.796Z</time></trkpt><trkpt lat="46.1594183" lon="13.4125209"><ele>678.2</ele><time>2026-05-02T13:37:06.79Z</time></trkpt><trkpt lat="46.159385" lon="13.412639"><ele>673.0</ele><time>2026-05-02T13:37:07.781Z</time></trkpt><trkpt lat="46.1593468" lon="13.4127432"><ele>673.0</ele><time>2026-05-02T13:37:08.787Z</time></trkpt><trkpt lat="46.1592584" lon="13.4129014"><ele>673.0</ele><time>2026-05-02T13:37:10.797Z</time></trkpt><trkpt lat="46.1591851" lon="13.4129084"><ele>673.0</ele><time>2026-05-02T13:37:11.793Z</time></trkpt><trkpt lat="46.1591002" lon="13.4129411"><ele>673.0</ele><time>2026-05-02T13:37:12.791Z</time></trkpt><trkpt lat="46.1590092" lon="13.4129807"><ele>673.0</ele><time>2026-05-02T13:37:13.788Z</time></trkpt><trkpt lat="46.1589232" lon="13.4130012"><ele>671.5999999999999</ele><time>2026-05-02T13:37:14.798Z</time></trkpt><trkpt lat="46.1588329" lon="13.4130394"><ele>670.1999999999999</ele><time>2026-05-02T13:37:15.78Z</time></trkpt><trkpt lat="46.1587361" lon="13.4130852"><ele>668.8</ele><time>2026-05-02T13:37:16.782Z</time></trkpt><trkpt lat="46.1586225" lon="13.4131209"><ele>667.4</ele><time>2026-05-02T13:37:17.785Z</time></trkpt><trkpt lat="46.1585137" lon="13.4131498"><ele>666.0</ele><time>2026-05-02T13:37:18.782Z</time></trkpt><trkpt lat="46.1584084" lon="13.4131798"><ele>666.0</ele><time>2026-05-02T13:37:19.793Z</time></trkpt><trkpt lat="46.1583144" lon="13.4132201"><ele>666.0</ele><time>2026-05-02T13:37:20.79Z</time></trkpt><trkpt lat="46.1582354" lon="13.4132632"><ele>666.0</ele><time>2026-05-02T13:37:21.787Z</time></trkpt><trkpt lat="46.158125" lon="13.4133735"><ele>666.0</ele><time>2026-05-02T13:37:23.787Z</time></trkpt><trkpt lat="46.1580812" lon="13.4134538"><ele>666.0</ele><time>2026-05-02T13:37:24.799Z</time></trkpt><trkpt lat="46.1580317" lon="13.4135618"><ele>668.5999999999999</ele><time>2026-05-02T13:37:25.787Z</time></trkpt><trkpt lat="46.1579815" lon="13.4136734"><ele>671.2</ele><time>2026-05-02T13:37:26.794Z</time></trkpt><trkpt lat="46.1579319" lon="13.4137845"><ele>673.8</ele><time>2026-05-02T13:37:27.781Z</time></trkpt><trkpt lat="46.1578822" lon="13.4138923"><ele>676.4000000000001</ele><time>2026-05-02T13:37:28.788Z</time></trkpt><trkpt lat="46.157841" lon="13.4140101"><ele>679.0</ele><time>2026-05-02T13:37:29.787Z</time></trkpt><trkpt lat="46.1578128" lon="13.4141505"><ele>679.0</ele><time>2026-05-02T13:37:30.784Z</time></trkpt><trkpt lat="46.1577894" lon="13.414266"><ele>679.0</ele><time>2026-05-02T13:37:31.786Z</time></trkpt><trkpt lat="46.1577717" lon="13.4143853"><ele>679.0</ele><time>2026-05-02T13:37:32.788Z</time></trkpt><trkpt lat="46.1577692" lon="13.4145086"><ele>679.0</ele><time>2026-05-02T13:37:33.785Z</time></trkpt><trkpt lat="46.1577722" lon="13.4146008"><ele>679.0</ele><time>2026-05-02T13:37:34.786Z</time></trkpt><trkpt lat="46.1577745" lon="13.4147549"><ele>679.0</ele><time>2026-05-02T13:37:36.785Z</time></trkpt><trkpt lat="46.1577598" lon="13.4148478"><ele>675.8000000000001</ele><time>2026-05-02T13:37:37.794Z</time></trkpt><trkpt lat="46.1577283" lon="13.4149466"><ele>672.6</ele><time>2026-05-02T13:37:38.794Z</time></trkpt><trkpt lat="46.1576698" lon="13.415027"><ele>669.4</ele><time>2026-05-02T13:37:39.788Z</time></trkpt><trkpt lat="46.1575896" lon="13.4151209"><ele>666.2</ele><time>2026-05-02T13:37:40.784Z</time></trkpt><trkpt lat="46.1575138" lon="13.415212"><ele>663.0</ele><time>2026-05-02T13:37:41.785Z</time></trkpt><trkpt lat="46.1574519" lon="13.4153287"><ele>670.2</ele><time>2026-05-02T13:37:42.786Z</time></trkpt><trkpt lat="46.157351" lon="13.4155536"><ele>677.4</ele><time>2026-05-02T13:37:44.785Z</time></trkpt><trkpt lat="46.1573098" lon="13.4156656"><ele>684.6</ele><time>2026-05-02T13:37:45.783Z</time></trkpt><trkpt lat="46.1572776" lon="13.4157861"><ele>691.8000000000001</ele><time>2026-05-02T13:37:46.789Z</time></trkpt><trkpt lat="46.1572591" lon="13.4159029"><ele>699.0</ele><time>2026-05-02T13:37:47.784Z</time></trkpt><trkpt lat="46.1572399" lon="13.4159974"><ele>699.0</ele><time>2026-05-02T13:37:48.781Z</time></trkpt><trkpt lat="46.1572297" lon="13.4160904"><ele>699.0</ele><time>2026-05-02T13:37:49.792Z</time></trkpt><trkpt lat="46.1572282" lon="13.4161841"><ele>699.0</ele><time>2026-05-02T13:37:50.787Z</time></trkpt><trkpt lat="46.157246" lon="13.4162792"><ele>699.0</ele><time>2026-05-02T13:37:51.785Z</time></trkpt><trkpt lat="46.1572766" lon="13.4163825"><ele>699.0</ele><time>2026-05-02T13:37:52.787Z</time></trkpt><trkpt lat="46.1573233" lon="13.4164964"><ele>699.0</ele><time>2026-05-02T13:37:53.787Z</time></trkpt><trkpt lat="46.1573747" lon="13.4166181"><ele>694.5</ele><time>2026-05-02T13:37:54.787Z</time></trkpt><trkpt lat="46.1574169" lon="13.4167381"><ele>690.0</ele><time>2026-05-02T13:37:55.789Z</time></trkpt><trkpt lat="46.1574512" lon="13.416834"><ele>685.5</ele><time>2026-05-02T13:37:56.786Z</time></trkpt><trkpt lat="46.1574739" lon="13.4169202"><ele>681.0</ele><time>2026-05-02T13:37:57.793Z</time></trkpt><trkpt lat="46.1575191" lon="13.4169953"><ele>676.5</ele><time>2026-05-02T13:37:58.796Z</time></trkpt><trkpt lat="46.1575712" lon="13.4170623"><ele>672.0</ele><time>2026-05-02T13:37:59.791Z</time></trkpt><trkpt lat="46.1576424" lon="13.4171338"><ele>673.6</ele><time>2026-05-02T13:38:00.786Z</time></trkpt><trkpt lat="46.1577077" lon="13.4171993"><ele>675.2</ele><time>2026-05-02T13:38:01.79Z</time></trkpt><trkpt lat="46.1577899" lon="13.4172653"><ele>676.8</ele><time>2026-05-02T13:38:02.787Z</time></trkpt><trkpt lat="46.1578358" lon="13.4173291"><ele>678.4</ele><time>2026-05-02T13:38:03.783Z</time></trkpt><trkpt lat="46.1580068" lon="13.4174288"><ele>680.0</ele><time>2026-05-02T13:38:06.793Z</time></trkpt><trkpt lat="46.1581035" lon="13.417431"><ele>680.0</ele><time>2026-05-02T13:38:08.793Z</time></trkpt><trkpt lat="46.1581726" lon="13.4174647"><ele>680.0</ele><time>2026-05-02T13:38:10.798Z</time></trkpt><trkpt lat="46.1582207" lon="13.4175568"><ele>680.0</ele><time>2026-05-02T13:38:12.785Z</time></trkpt><trkpt lat="46.1582375" lon="13.4176946"><ele>680.0</ele><time>2026-05-02T13:38:14.788Z</time></trkpt><trkpt lat="46.1582446" lon="13.4178103"><ele>680.0</ele><time>2026-05-02T13:38:15.782Z</time></trkpt><trkpt lat="46.1582422" lon="13.4179393"><ele>680.0</ele><time>2026-05-02T13:38:16.798Z</time></trkpt><trkpt lat="46.1582373" lon="13.4180681"><ele>678.1666666666666</ele><time>2026-05-02T13:38:17.792Z</time></trkpt><trkpt lat="46.1582111" lon="13.4181903"><ele>676.3333333333333</ele><time>2026-05-02T13:38:18.789Z</time></trkpt><trkpt lat="46.1581876" lon="13.4183151"><ele>674.5</ele><time>2026-05-02T13:38:19.787Z</time></trkpt><trkpt lat="46.1581669" lon="13.4184381"><ele>672.6666666666666</ele><time>2026-05-02T13:38:20.785Z</time></trkpt><trkpt lat="46.1581419" lon="13.4185399"><ele>670.8333333333334</ele><time>2026-05-02T13:38:21.798Z</time></trkpt><trkpt lat="46.1581176" lon="13.4186365"><ele>669.0</ele><time>2026-05-02T13:38:22.787Z</time></trkpt><trkpt lat="46.1580953" lon="13.4187268"><ele>663.4000000000001</ele><time>2026-05-02T13:38:23.793Z</time></trkpt><trkpt lat="46.1580649" lon="13.418819"><ele>657.8</ele><time>2026-05-02T13:38:24.781Z</time></trkpt><trkpt lat="46.1579653" lon="13.4190145"><ele>652.2</ele><time>2026-05-02T13:38:26.795Z</time></trkpt><trkpt lat="46.1579091" lon="13.4191002"><ele>646.5999999999999</ele><time>2026-05-02T13:38:27.787Z</time></trkpt><trkpt lat="46.1578509" lon="13.4191809"><ele>641.0</ele><time>2026-05-02T13:38:28.797Z</time></trkpt><trkpt lat="46.1577752" lon="13.4192574"><ele>641.0</ele><time>2026-05-02T13:38:29.778Z</time></trkpt><trkpt lat="46.1576888" lon="13.4193188"><ele>641.0</ele><time>2026-05-02T13:38:30.787Z</time></trkpt><trkpt lat="46.1576086" lon="13.4193847"><ele>641.0</ele><time>2026-05-02T13:38:31.786Z</time></trkpt><trkpt lat="46.1575283" lon="13.4194367"><ele>641.0</ele><time>2026-05-02T13:38:32.785Z</time></trkpt><trkpt lat="46.1574269" lon="13.4194757"><ele>641.0</ele><time>2026-05-02T13:38:33.784Z</time></trkpt><trkpt lat="46.1573171" lon="13.4195082"><ele>640.1999999999999</ele><time>2026-05-02T13:38:34.791Z</time></trkpt><trkpt lat="46.1572136" lon="13.4195489"><ele>639.4</ele><time>2026-05-02T13:38:35.784Z</time></trkpt><trkpt lat="46.1571167" lon="13.4196179"><ele>638.6</ele><time>2026-05-02T13:38:36.793Z</time></trkpt><trkpt lat="46.1570128" lon="13.4196957"><ele>637.8</ele><time>2026-05-02T13:38:37.78Z</time></trkpt><trkpt lat="46.1569062" lon="13.4197435"><ele>637.0</ele><time>2026-05-02T13:38:38.798Z</time></trkpt><trkpt lat="46.1568205" lon="13.4197978"><ele>637.0</ele><time>2026-05-02T13:38:39.798Z</time></trkpt><trkpt lat="46.156729" lon="13.4198558"><ele>637.0</ele><time>2026-05-02T13:38:40.779Z</time></trkpt><trkpt lat="46.1566381" lon="13.4199123"><ele>637.0</ele><time>2026-05-02T13:38:41.793Z</time></trkpt><trkpt lat="46.1565529" lon="13.4199614"><ele>637.0</ele><time>2026-05-02T13:38:42.789Z</time></trkpt><trkpt lat="46.1564816" lon="13.4200373"><ele>637.0</ele><time>2026-05-02T13:38:43.78Z</time></trkpt><trkpt lat="46.1564087" lon="13.4201171"><ele>637.0</ele><time>2026-05-02T13:38:44.788Z</time></trkpt><trkpt lat="46.1563431" lon="13.4202092"><ele>637.0</ele><time>2026-05-02T13:38:45.787Z</time></trkpt><trkpt lat="46.156355" lon="13.4204645"><ele>637.0</ele><time>2026-05-02T13:38:48.787Z</time></trkpt><trkpt lat="46.1564327" lon="13.4205654"><ele>637.0</ele><time>2026-05-02T13:38:49.784Z</time></trkpt><trkpt lat="46.1565923" lon="13.4207139"><ele>637.0</ele><time>2026-05-02T13:38:50.8Z</time></trkpt><trkpt lat="46.1566702" lon="13.4208421"><ele>637.0</ele><time>2026-05-02T13:38:51.789Z</time></trkpt><trkpt lat="46.156737" lon="13.420997"><ele>637.0</ele><time>2026-05-02T13:38:52.782Z</time></trkpt><trkpt lat="46.1567918" lon="13.4211011"><ele>637.0</ele><time>2026-05-02T13:38:53.78Z</time></trkpt><trkpt lat="46.156867" lon="13.4212244"><ele>637.0</ele><time>2026-05-02T13:38:55.791Z</time></trkpt><trkpt lat="46.1569904" lon="13.4211759"><ele>637.0</ele><time>2026-05-02T13:38:57.789Z</time></trkpt><trkpt lat="46.1571086" lon="13.421216"><ele>637.0</ele><time>2026-05-02T13:38:59.79Z</time></trkpt><trkpt lat="46.1571635" lon="13.4212984"><ele>637.0</ele><time>2026-05-02T13:39:00.787Z</time></trkpt><trkpt lat="46.1572064" lon="13.4213838"><ele>637.0</ele><time>2026-05-02T13:39:01.794Z</time></trkpt><trkpt lat="46.1572418" lon="13.4214745"><ele>637.0</ele><time>2026-05-02T13:39:02.78Z</time></trkpt><trkpt lat="46.157256" lon="13.4215939"><ele>637.0</ele><time>2026-05-02T13:39:03.791Z</time></trkpt><trkpt lat="46.157276" lon="13.4217077"><ele>640.25</ele><time>2026-05-02T13:39:04.796Z</time></trkpt><trkpt lat="46.1573009" lon="13.4217929"><ele>643.5</ele><time>2026-05-02T13:39:05.785Z</time></trkpt><trkpt lat="46.157393" lon="13.4219172"><ele>646.75</ele><time>2026-05-02T13:39:07.789Z</time></trkpt><trkpt lat="46.1576004" lon="13.4219915"><ele>650.0</ele><time>2026-05-02T13:39:11.791Z</time></trkpt><trkpt lat="46.1576924" lon="13.4220644"><ele>645.2</ele><time>2026-05-02T13:39:13.812Z</time></trkpt><trkpt lat="46.1577663" lon="13.4221901"><ele>640.4</ele><time>2026-05-02T13:39:15.784Z</time></trkpt><trkpt lat="46.1577829" lon="13.4223039"><ele>635.6</ele><time>2026-05-02T13:39:16.786Z</time></trkpt><trkpt lat="46.1577746" lon="13.4224605"><ele>630.8</ele><time>2026-05-02T13:39:17.789Z</time></trkpt><trkpt lat="46.1577645" lon="13.4226137"><ele>626.0</ele><time>2026-05-02T13:39:18.78Z</time></trkpt><trkpt lat="46.1577546" lon="13.4227571"><ele>626.0</ele><time>2026-05-02T13:39:19.792Z</time></trkpt><trkpt lat="46.1577446" lon="13.4228885"><ele>626.0</ele><time>2026-05-02T13:39:20.779Z</time></trkpt><trkpt lat="46.1577262" lon="13.4230113"><ele>626.0</ele><time>2026-05-02T13:39:21.779Z</time></trkpt><trkpt lat="46.1576865" lon="13.42314"><ele>626.0</ele><time>2026-05-02T13:39:22.784Z</time></trkpt><trkpt lat="46.1576328" lon="13.4232745"><ele>626.0</ele><time>2026-05-02T13:39:23.78Z</time></trkpt><trkpt lat="46.1575805" lon="13.4234054"><ele>623.0</ele><time>2026-05-02T13:39:24.779Z</time></trkpt><trkpt lat="46.1575295" lon="13.4235405"><ele>620.0</ele><time>2026-05-02T13:39:25.778Z</time></trkpt><trkpt lat="46.1574675" lon="13.4236782"><ele>617.0</ele><time>2026-05-02T13:39:26.778Z</time></trkpt><trkpt lat="46.1573937" lon="13.4238108"><ele>614.0</ele><time>2026-05-02T13:39:27.782Z</time></trkpt><trkpt lat="46.1573308" lon="13.4239334"><ele>611.0</ele><time>2026-05-02T13:39:28.782Z</time></trkpt><trkpt lat="46.1571904" lon="13.4240587"><ele>608.2</ele><time>2026-05-02T13:39:30.789Z</time></trkpt><trkpt lat="46.1571094" lon="13.4240856"><ele>605.4000000000001</ele><time>2026-05-02T13:39:31.78Z</time></trkpt><trkpt lat="46.1570234" lon="13.4240875"><ele>602.6</ele><time>2026-05-02T13:39:32.787Z</time></trkpt><trkpt lat="46.156917" lon="13.4240648"><ele>599.8000000000001</ele><time>2026-05-02T13:39:33.787Z</time></trkpt><trkpt lat="46.1568121" lon="13.4240255"><ele>597.0</ele><time>2026-05-02T13:39:34.781Z</time></trkpt><trkpt lat="46.1567147" lon="13.4239883"><ele>597.0</ele><time>2026-05-02T13:39:35.793Z</time></trkpt><trkpt lat="46.1566301" lon="13.4239568"><ele>597.0</ele><time>2026-05-02T13:39:36.787Z</time></trkpt><trkpt lat="46.1565515" lon="13.4239308"><ele>597.0</ele><time>2026-05-02T13:39:37.795Z</time></trkpt><trkpt lat="46.1564791" lon="13.423903"><ele>597.0</ele><time>2026-05-02T13:39:38.782Z</time></trkpt><trkpt lat="46.1564076" lon="13.4238866"><ele>597.0</ele><time>2026-05-02T13:39:39.786Z</time></trkpt><trkpt lat="46.1563328" lon="13.4238668"><ele>597.0</ele><time>2026-05-02T13:39:40.784Z</time></trkpt><trkpt lat="46.1562433" lon="13.4238715"><ele>597.4</ele><time>2026-05-02T13:39:41.781Z</time></trkpt><trkpt lat="46.1561418" lon="13.4239056"><ele>597.8000000000001</ele><time>2026-05-02T13:39:42.79Z</time></trkpt><trkpt lat="46.1560453" lon="13.4239456"><ele>598.2</ele><time>2026-05-02T13:39:43.784Z</time></trkpt><trkpt lat="46.1559552" lon="13.4240085"><ele>598.6</ele><time>2026-05-02T13:39:44.792Z</time></trkpt><trkpt lat="46.1558693" lon="13.4240953"><ele>599.0</ele><time>2026-05-02T13:39:45.782Z</time></trkpt><trkpt lat="46.1558001" lon="13.4241608"><ele>599.0</ele><time>2026-05-02T13:39:46.792Z</time></trkpt><trkpt lat="46.1557278" lon="13.424222"><ele>599.0</ele><time>2026-05-02T13:39:47.791Z</time></trkpt><trkpt lat="46.155655" lon="13.4242859"><ele>599.0</ele><time>2026-05-02T13:39:48.781Z</time></trkpt><trkpt lat="46.1555835" lon="13.4243539"><ele>599.0</ele><time>2026-05-02T13:39:49.78Z</time></trkpt><trkpt lat="46.1554482" lon="13.4244738"><ele>599.0</ele><time>2026-05-02T13:39:51.796Z</time></trkpt><trkpt lat="46.155386" lon="13.4245827"><ele>599.0</ele><time>2026-05-02T13:39:53.78Z</time></trkpt><trkpt lat="46.1554439" lon="13.4246406"><ele>599.0</ele><time>2026-05-02T13:39:55.797Z</time></trkpt><trkpt lat="46.1555605" lon="13.4246356"><ele>599.0</ele><time>2026-05-02T13:39:57.791Z</time></trkpt><trkpt lat="46.1556485" lon="13.4245994"><ele>599.0</ele><time>2026-05-02T13:39:58.782Z</time></trkpt><trkpt lat="46.1557425" lon="13.4245627"><ele>599.0</ele><time>2026-05-02T13:39:59.798Z</time></trkpt><trkpt lat="46.1558379" lon="13.4245409"><ele>599.0</ele><time>2026-05-02T13:40:00.785Z</time></trkpt><trkpt lat="46.1559285" lon="13.4245055"><ele>599.0</ele><time>2026-05-02T13:40:01.79Z</time></trkpt><trkpt lat="46.1560087" lon="13.4244738"><ele>599.0</ele><time>2026-05-02T13:40:02.792Z</time></trkpt><trkpt lat="46.1560856" lon="13.4244429"><ele>599.0</ele><time>2026-05-02T13:40:03.787Z</time></trkpt><trkpt lat="46.1561596" lon="13.4244109"><ele>599.0</ele><time>2026-05-02T13:40:04.786Z</time></trkpt><trkpt lat="46.1562382" lon="13.4244148"><ele>599.0</ele><time>2026-05-02T13:40:05.791Z</time></trkpt><trkpt lat="46.1563076" lon="13.424431"><ele>599.0</ele><time>2026-05-02T13:40:06.786Z</time></trkpt><trkpt lat="46.1563712" lon="13.4244652"><ele>599.0</ele><time>2026-05-02T13:40:07.781Z</time></trkpt><trkpt lat="46.1564272" lon="13.4245339"><ele>599.0</ele><time>2026-05-02T13:40:08.786Z</time></trkpt><trkpt lat="46.1564732" lon="13.4246084"><ele>599.0</ele><time>2026-05-02T13:40:09.781Z</time></trkpt><trkpt lat="46.1565149" lon="13.4246893"><ele>599.0</ele><time>2026-05-02T13:40:10.795Z</time></trkpt><trkpt lat="46.1564766" lon="13.4248178"><ele>599.0</ele><time>2026-05-02T13:40:14.795Z</time></trkpt><trkpt lat="46.1564226" lon="13.4247565"><ele>599.0</ele><time>2026-05-02T13:40:15.787Z</time></trkpt><trkpt lat="46.1563643" lon="13.424706"><ele>594.0</ele><time>2026-05-02T13:40:16.799Z</time></trkpt><trkpt lat="46.1562972" lon="13.4246696"><ele>589.0</ele><time>2026-05-02T13:40:17.785Z</time></trkpt><trkpt lat="46.1562307" lon="13.4246504"><ele>584.0</ele><time>2026-05-02T13:40:18.788Z</time></trkpt><trkpt lat="46.1561639" lon="13.4246516"><ele>579.0</ele><time>2026-05-02T13:40:19.789Z</time></trkpt><trkpt lat="46.1560833" lon="13.4246796"><ele>574.0</ele><time>2026-05-02T13:40:20.783Z</time></trkpt><trkpt lat="46.1559703" lon="13.4247596"><ele>569.0</ele><time>2026-05-02T13:40:21.784Z</time></trkpt><trkpt lat="46.1558462" lon="13.4248614"><ele>569.0</ele><time>2026-05-02T13:40:22.794Z</time></trkpt><trkpt lat="46.1557295" lon="13.424931"><ele>569.0</ele><time>2026-05-02T13:40:23.786Z</time></trkpt><trkpt lat="46.1556189" lon="13.4249804"><ele>569.0</ele><time>2026-05-02T13:40:24.786Z</time></trkpt><trkpt lat="46.1555132" lon="13.4250314"><ele>569.0</ele><time>2026-05-02T13:40:25.795Z</time></trkpt><trkpt lat="46.1554152" lon="13.4250905"><ele>567.8</ele><time>2026-05-02T13:40:26.803Z</time></trkpt><trkpt lat="46.1553169" lon="13.4251485"><ele>566.5999999999999</ele><time>2026-05-02T13:40:27.786Z</time></trkpt><trkpt lat="46.1552239" lon="13.4251993"><ele>565.4</ele><time>2026-05-02T13:40:28.797Z</time></trkpt><trkpt lat="46.1551426" lon="13.4252234"><ele>564.1999999999999</ele><time>2026-05-02T13:40:29.801Z</time></trkpt><trkpt lat="46.1550659" lon="13.4252411"><ele>563.0</ele><time>2026-05-02T13:40:30.788Z</time></trkpt><trkpt lat="46.1549822" lon="13.4252424"><ele>560.75</ele><time>2026-05-02T13:40:31.793Z</time></trkpt><trkpt lat="46.1548164" lon="13.4252061"><ele>558.5</ele><time>2026-05-02T13:40:33.779Z</time></trkpt><trkpt lat="46.1547303" lon="13.4251553"><ele>556.25</ele><time>2026-05-02T13:40:34.788Z</time></trkpt><trkpt lat="46.1546345" lon="13.4251115"><ele>554.0</ele><time>2026-05-02T13:40:35.789Z</time></trkpt><trkpt lat="46.1545373" lon="13.4250674"><ele>554.0</ele><time>2026-05-02T13:40:36.79Z</time></trkpt><trkpt lat="46.1544592" lon="13.4250312"><ele>554.0</ele><time>2026-05-02T13:40:37.785Z</time></trkpt><trkpt lat="46.1543941" lon="13.4249924"><ele>554.0</ele><time>2026-05-02T13:40:38.784Z</time></trkpt><trkpt lat="46.1543336" lon="13.4249505"><ele>554.0</ele><time>2026-05-02T13:40:39.797Z</time></trkpt><trkpt lat="46.1542757" lon="13.4249026"><ele>554.0</ele><time>2026-05-02T13:40:40.794Z</time></trkpt><trkpt lat="46.1541934" lon="13.4248005"><ele>554.0</ele><time>2026-05-02T13:40:42.798Z</time></trkpt><trkpt lat="46.1541094" lon="13.4247237"><ele>554.0</ele><time>2026-05-02T13:40:44.788Z</time></trkpt><trkpt lat="46.1540483" lon="13.4246763"><ele>554.0</ele><time>2026-05-02T13:40:46.796Z</time></trkpt><trkpt lat="46.1539673" lon="13.424766"><ele>554.0</ele><time>2026-05-02T13:40:48.79Z</time></trkpt><trkpt lat="46.1539036" lon="13.4249137"><ele>554.0</ele><time>2026-05-02T13:40:50.789Z</time></trkpt><trkpt lat="46.1538689" lon="13.4250165"><ele>554.0</ele><time>2026-05-02T13:40:51.8Z</time></trkpt><trkpt lat="46.153829" lon="13.425124"><ele>554.25</ele><time>2026-05-02T13:40:52.782Z</time></trkpt><trkpt lat="46.1537735" lon="13.4252302"><ele>554.5</ele><time>2026-05-02T13:40:53.788Z</time></trkpt><trkpt lat="46.1536673" lon="13.4254371"><ele>554.75</ele><time>2026-05-02T13:40:55.782Z</time></trkpt><trkpt lat="46.1536126" lon="13.4255365"><ele>555.0</ele><time>2026-05-02T13:40:56.784Z</time></trkpt><trkpt lat="46.1535533" lon="13.4256391"><ele>550.8333333333334</ele><time>2026-05-02T13:40:57.785Z</time></trkpt><trkpt lat="46.1534916" lon="13.4257273"><ele>546.6666666666666</ele><time>2026-05-02T13:40:58.782Z</time></trkpt><trkpt lat="46.1534469" lon="13.4258014"><ele>542.5</ele><time>2026-05-02T13:40:59.779Z</time></trkpt><trkpt lat="46.1534019" lon="13.4258659"><ele>538.3333333333333</ele><time>2026-05-02T13:41:00.786Z</time></trkpt><trkpt lat="46.1533022" lon="13.4258903"><ele>534.1666666666666</ele><time>2026-05-02T13:41:02.788Z</time></trkpt><trkpt lat="46.1532344" lon="13.4257895"><ele>530.0</ele><time>2026-05-02T13:41:04.792Z</time></trkpt><trkpt lat="46.1532174" lon="13.4256232"><ele>530.0</ele><time>2026-05-02T13:41:06.79Z</time></trkpt><trkpt lat="46.1532167" lon="13.4255211"><ele>530.0</ele><time>2026-05-02T13:41:07.779Z</time></trkpt><trkpt lat="46.1532004" lon="13.4254121"><ele>530.0</ele><time>2026-05-02T13:41:08.787Z</time></trkpt><trkpt lat="46.1531783" lon="13.4252982"><ele>530.0</ele><time>2026-05-02T13:41:09.781Z</time></trkpt><trkpt lat="46.1531637" lon="13.4251873"><ele>530.0</ele><time>2026-05-02T13:41:10.799Z</time></trkpt><trkpt lat="46.153134" lon="13.4250685"><ele>530.0</ele><time>2026-05-02T13:41:11.782Z</time></trkpt><trkpt lat="46.1530944" lon="13.4249514"><ele>528.2</ele><time>2026-05-02T13:41:12.789Z</time></trkpt><trkpt lat="46.1530517" lon="13.4248582"><ele>526.4</ele><time>2026-05-02T13:41:13.796Z</time></trkpt><trkpt lat="46.1529964" lon="13.4248016"><ele>524.6</ele><time>2026-05-02T13:41:14.785Z</time></trkpt><trkpt lat="46.1528597" lon="13.4247601"><ele>522.8</ele><time>2026-05-02T13:41:16.787Z</time></trkpt><trkpt lat="46.1527785" lon="13.424761"><ele>521.0</ele><time>2026-05-02T13:41:17.797Z</time></trkpt><trkpt lat="46.1526901" lon="13.4247763"><ele>521.0</ele><time>2026-05-02T13:41:18.792Z</time></trkpt><trkpt lat="46.1525997" lon="13.4247943"><ele>521.0</ele><time>2026-05-02T13:41:19.783Z</time></trkpt><trkpt lat="46.1525054" lon="13.4248094"><ele>521.0</ele><time>2026-05-02T13:41:20.784Z</time></trkpt><trkpt lat="46.152417" lon="13.4248353"><ele>521.0</ele><time>2026-05-02T13:41:21.777Z</time></trkpt><trkpt lat="46.1523428" lon="13.4248676"><ele>521.0</ele><time>2026-05-02T13:41:22.797Z</time></trkpt><trkpt lat="46.1522678" lon="13.4248996"><ele>521.0</ele><time>2026-05-02T13:41:23.788Z</time></trkpt><trkpt lat="46.1521599" lon="13.4249375"><ele>521.0</ele><time>2026-05-02T13:41:25.788Z</time></trkpt><trkpt lat="46.1520991" lon="13.4249114"><ele>521.0</ele><time>2026-05-02T13:41:26.791Z</time></trkpt><trkpt lat="46.152031" lon="13.4248713"><ele>521.0</ele><time>2026-05-02T13:41:27.786Z</time></trkpt><trkpt lat="46.1519643" lon="13.424805"><ele>521.0</ele><time>2026-05-02T13:41:28.789Z</time></trkpt><trkpt lat="46.151902" lon="13.4247311"><ele>521.0</ele><time>2026-05-02T13:41:29.794Z</time></trkpt><trkpt lat="46.151842" lon="13.4246656"><ele>521.0</ele><time>2026-05-02T13:41:30.787Z</time></trkpt><trkpt lat="46.1517786" lon="13.4246561"><ele>521.0</ele><time>2026-05-02T13:41:31.783Z</time></trkpt><trkpt lat="46.1516492" lon="13.4246977"><ele>521.0</ele><time>2026-05-02T13:41:33.78Z</time></trkpt><trkpt lat="46.1515719" lon="13.4247423"><ele>521.0</ele><time>2026-05-02T13:41:34.783Z</time></trkpt><trkpt lat="46.1514863" lon="13.4248054"><ele>521.0</ele><time>2026-05-02T13:41:35.812Z</time></trkpt><trkpt lat="46.1512885" lon="13.4249561"><ele>521.0</ele><time>2026-05-02T13:41:37.788Z</time></trkpt><trkpt lat="46.1511771" lon="13.4250394"><ele>533.25</ele><time>2026-05-02T13:41:38.791Z</time></trkpt><trkpt lat="46.1510691" lon="13.425122"><ele>545.5</ele><time>2026-05-02T13:41:39.778Z</time></trkpt><trkpt lat="46.1509565" lon="13.4251993"><ele>557.75</ele><time>2026-05-02T13:41:40.788Z</time></trkpt><trkpt lat="46.1508456" lon="13.425247"><ele>570.0</ele><time>2026-05-02T13:41:41.786Z</time></trkpt><trkpt lat="46.1507558" lon="13.4252991"><ele>574.6</ele><time>2026-05-02T13:41:42.784Z</time></trkpt><trkpt lat="46.1506658" lon="13.425343"><ele>579.2</ele><time>2026-05-02T13:41:43.779Z</time></trkpt><trkpt lat="46.1505773" lon="13.4253813"><ele>583.8</ele><time>2026-05-02T13:41:44.784Z</time></trkpt><trkpt lat="46.1505029" lon="13.4253917"><ele>588.4</ele><time>2026-05-02T13:41:45.783Z</time></trkpt><trkpt lat="46.1503695" lon="13.4254351"><ele>593.0</ele><time>2026-05-02T13:41:47.781Z</time></trkpt><trkpt lat="46.1503039" lon="13.4254913"><ele>593.0</ele><time>2026-05-02T13:41:48.79Z</time></trkpt><trkpt lat="46.1503618" lon="13.4256364"><ele>593.0</ele><time>2026-05-02T13:41:49.783Z</time></trkpt><trkpt lat="46.1504248" lon="13.4257863"><ele>593.0</ele><time>2026-05-02T13:41:50.796Z</time></trkpt><trkpt lat="46.1504543" lon="13.4259454"><ele>593.0</ele><time>2026-05-02T13:41:51.785Z</time></trkpt><trkpt lat="46.1504496" lon="13.4261117"><ele>593.0</ele><time>2026-05-02T13:41:52.785Z</time></trkpt><trkpt lat="46.1504508" lon="13.4262244"><ele>593.0</ele><time>2026-05-02T13:41:53.781Z</time></trkpt><trkpt lat="46.1504437" lon="13.4263436"><ele>593.0</ele><time>2026-05-02T13:41:54.784Z</time></trkpt><trkpt lat="46.1504233" lon="13.4264947"><ele>593.0</ele><time>2026-05-02T13:41:55.778Z</time></trkpt><trkpt lat="46.1504083" lon="13.4266566"><ele>593.0</ele><time>2026-05-02T13:41:56.783Z</time></trkpt><trkpt lat="46.1503944" lon="13.4268194"><ele>583.3333333333333</ele><time>2026-05-02T13:41:57.78Z</time></trkpt><trkpt lat="46.1503482" lon="13.4271502"><ele>573.6666666666666</ele><time>2026-05-02T13:41:59.785Z</time></trkpt><trkpt lat="46.1503237" lon="13.4273213"><ele>564.0</ele><time>2026-05-02T13:42:00.793Z</time></trkpt><trkpt lat="46.1503107" lon="13.4274893"><ele>564.0</ele><time>2026-05-02T13:42:01.792Z</time></trkpt><trkpt lat="46.1503065" lon="13.4276371"><ele>564.0</ele><time>2026-05-02T13:42:02.778Z</time></trkpt><trkpt lat="46.1502892" lon="13.4277867"><ele>564.0</ele><time>2026-05-02T13:42:03.782Z</time></trkpt><trkpt lat="46.1502772" lon="13.4279264"><ele>564.0</ele><time>2026-05-02T13:42:04.8Z</time></trkpt><trkpt lat="46.150292" lon="13.4280596"><ele>564.0</ele><time>2026-05-02T13:42:05.792Z</time></trkpt><trkpt lat="46.1502877" lon="13.4281898"><ele>558.8</ele><time>2026-05-02T13:42:06.783Z</time></trkpt><trkpt lat="46.1502734" lon="13.4283378"><ele>553.5999999999999</ele><time>2026-05-02T13:42:07.785Z</time></trkpt><trkpt lat="46.1502507" lon="13.4284864"><ele>548.4</ele><time>2026-05-02T13:42:08.781Z</time></trkpt><trkpt lat="46.1502357" lon="13.428637"><ele>543.1999999999999</ele><time>2026-05-02T13:42:09.782Z</time></trkpt><trkpt lat="46.1502116" lon="13.4287719"><ele>538.0</ele><time>2026-05-02T13:42:10.793Z</time></trkpt><trkpt lat="46.1501684" lon="13.4289006"><ele>530.8</ele><time>2026-05-02T13:42:11.786Z</time></trkpt><trkpt lat="46.1501227" lon="13.4290341"><ele>523.5999999999999</ele><time>2026-05-02T13:42:12.784Z</time></trkpt><trkpt lat="46.1500865" lon="13.4291744"><ele>516.4000000000001</ele><time>2026-05-02T13:42:13.795Z</time></trkpt><trkpt lat="46.1500491" lon="13.4293128"><ele>509.20000000000005</ele><time>2026-05-02T13:42:14.785Z</time></trkpt><trkpt lat="46.1499959" lon="13.4294391"><ele>502.0</ele><time>2026-05-02T13:42:15.789Z</time></trkpt><trkpt lat="46.1499134" lon="13.4295506"><ele>502.6</ele><time>2026-05-02T13:42:16.785Z</time></trkpt><trkpt lat="46.1498442" lon="13.4296531"><ele>503.20000000000005</ele><time>2026-05-02T13:42:17.792Z</time></trkpt><trkpt lat="46.1497715" lon="13.4297419"><ele>503.8</ele><time>2026-05-02T13:42:18.788Z</time></trkpt><trkpt lat="46.1496194" lon="13.4298378"><ele>504.4</ele><time>2026-05-02T13:42:20.784Z</time></trkpt><trkpt lat="46.1495408" lon="13.4298707"><ele>505.0</ele><time>2026-05-02T13:42:21.794Z</time></trkpt><trkpt lat="46.1494719" lon="13.429913"><ele>505.00000000000006</ele><time>2026-05-02T13:42:22.788Z</time></trkpt><trkpt lat="46.1494117" lon="13.4299508"><ele>505.0</ele><time>2026-05-02T13:42:23.784Z</time></trkpt><trkpt lat="46.1493386" lon="13.4300164"><ele>505.0</ele><time>2026-05-02T13:42:24.789Z</time></trkpt><trkpt lat="46.1492809" lon="13.4301027"><ele>505.0</ele><time>2026-05-02T13:42:25.789Z</time></trkpt><trkpt lat="46.1492164" lon="13.4301968"><ele>505.00000000000006</ele><time>2026-05-02T13:42:26.787Z</time></trkpt><trkpt lat="46.1491425" lon="13.4302704"><ele>505.0</ele><time>2026-05-02T13:42:27.792Z</time></trkpt><trkpt lat="46.1490684" lon="13.4303417"><ele>501.6</ele><time>2026-05-02T13:42:28.788Z</time></trkpt><trkpt lat="46.1489844" lon="13.4304005"><ele>498.2</ele><time>2026-05-02T13:42:29.787Z</time></trkpt><trkpt lat="46.1488988" lon="13.4304221"><ele>494.79999999999995</ele><time>2026-05-02T13:42:30.796Z</time></trkpt><trkpt lat="46.1488" lon="13.430427"><ele>491.4</ele><time>2026-05-02T13:42:31.779Z</time></trkpt><trkpt lat="46.148705" lon="13.4304558"><ele>488.0</ele><time>2026-05-02T13:42:32.791Z</time></trkpt><trkpt lat="46.1486083" lon="13.4304906"><ele>488.0</ele><time>2026-05-02T13:42:33.784Z</time></trkpt><trkpt lat="46.148522" lon="13.4305423"><ele>487.99999999999994</ele><time>2026-05-02T13:42:34.787Z</time></trkpt><trkpt lat="46.1484561" lon="13.430635"><ele>487.99999999999994</ele><time>2026-05-02T13:42:35.789Z</time></trkpt><trkpt lat="46.1483974" lon="13.4307212"><ele>488.0</ele><time>2026-05-02T13:42:36.785Z</time></trkpt><trkpt lat="46.1483198" lon="13.4308303"><ele>488.0</ele><time>2026-05-02T13:42:37.798Z</time></trkpt><trkpt lat="46.1482328" lon="13.4309567"><ele>487.66666666666663</ele><time>2026-05-02T13:42:38.779Z</time></trkpt><trkpt lat="46.1481375" lon="13.4310841"><ele>487.33333333333337</ele><time>2026-05-02T13:42:39.782Z</time></trkpt><trkpt lat="46.1479205" lon="13.431311"><ele>487.0</ele><time>2026-05-02T13:42:41.782Z</time></trkpt><trkpt lat="46.1478137" lon="13.4314272"><ele>487.0</ele><time>2026-05-02T13:42:42.799Z</time></trkpt><trkpt lat="46.1477207" lon="13.4315338"><ele>487.0</ele><time>2026-05-02T13:42:43.783Z</time></trkpt><trkpt lat="46.1476274" lon="13.4316309"><ele>487.0</ele><time>2026-05-02T13:42:44.786Z</time></trkpt><trkpt lat="46.1475345" lon="13.4317299"><ele>487.0</ele><time>2026-05-02T13:42:45.795Z</time></trkpt><trkpt lat="46.1474464" lon="13.4318237"><ele>488.6</ele><time>2026-05-02T13:42:46.791Z</time></trkpt><trkpt lat="46.1473608" lon="13.4319005"><ele>490.20000000000005</ele><time>2026-05-02T13:42:47.796Z</time></trkpt><trkpt lat="46.1472815" lon="13.4319648"><ele>491.8</ele><time>2026-05-02T13:42:48.791Z</time></trkpt><trkpt lat="46.147195" lon="13.4320117"><ele>493.4</ele><time>2026-05-02T13:42:49.779Z</time></trkpt><trkpt lat="46.1470896" lon="13.4320223"><ele>495.0</ele><time>2026-05-02T13:42:50.786Z</time></trkpt><trkpt lat="46.1469755" lon="13.4320363"><ele>495.0</ele><time>2026-05-02T13:42:51.786Z</time></trkpt><trkpt lat="46.1468723" lon="13.4320673"><ele>495.0</ele><time>2026-05-02T13:42:52.795Z</time></trkpt><trkpt lat="46.1467712" lon="13.4320886"><ele>495.0</ele><time>2026-05-02T13:42:53.795Z</time></trkpt><trkpt lat="46.1466772" lon="13.4321292"><ele>495.0</ele><time>2026-05-02T13:42:54.788Z</time></trkpt><trkpt lat="46.1465791" lon="13.4322156"><ele>495.0</ele><time>2026-05-02T13:42:55.796Z</time></trkpt><trkpt lat="46.1464812" lon="13.4323075"><ele>491.5</ele><time>2026-05-02T13:42:56.784Z</time></trkpt><trkpt lat="46.1463799" lon="13.4324025"><ele>488.0</ele><time>2026-05-02T13:42:57.787Z</time></trkpt><trkpt lat="46.1462856" lon="13.4325022"><ele>484.5</ele><time>2026-05-02T13:42:58.794Z</time></trkpt><trkpt lat="46.1461935" lon="13.4326049"><ele>481.0</ele><time>2026-05-02T13:42:59.783Z</time></trkpt><trkpt lat="46.1460996" lon="13.4327027"><ele>481.0</ele><time>2026-05-02T13:43:00.796Z</time></trkpt><trkpt lat="46.1460014" lon="13.4327664"><ele>481.0</ele><time>2026-05-02T13:43:01.787Z</time></trkpt><trkpt lat="46.145775" lon="13.4328418"><ele>481.0</ele><time>2026-05-02T13:43:03.79Z</time></trkpt><trkpt lat="46.1456618" lon="13.4328916"><ele>481.25</ele><time>2026-05-02T13:43:04.795Z</time></trkpt><trkpt lat="46.1455504" lon="13.4329376"><ele>481.5</ele><time>2026-05-02T13:43:05.786Z</time></trkpt><trkpt lat="46.1454345" lon="13.4329776"><ele>481.75</ele><time>2026-05-02T13:43:06.789Z</time></trkpt><trkpt lat="46.1453112" lon="13.4329991"><ele>482.0</ele><time>2026-05-02T13:43:07.78Z</time></trkpt><trkpt lat="46.1451709" lon="13.4330199"><ele>475.5</ele><time>2026-05-02T13:43:08.787Z</time></trkpt><trkpt lat="46.1450257" lon="13.4330562"><ele>469.0</ele><time>2026-05-02T13:43:09.801Z</time></trkpt><trkpt lat="46.1448784" lon="13.4330695"><ele>462.5</ele><time>2026-05-02T13:43:10.791Z</time></trkpt><trkpt lat="46.1447533" lon="13.4330789"><ele>456.0</ele><time>2026-05-02T13:43:11.793Z</time></trkpt><trkpt lat="46.1446446" lon="13.4330879"><ele>456.0</ele><time>2026-05-02T13:43:12.801Z</time></trkpt><trkpt lat="46.1445721" lon="13.4331026"><ele>455.99999999999994</ele><time>2026-05-02T13:43:13.786Z</time></trkpt><trkpt lat="46.1445057" lon="13.4330958"><ele>456.0</ele><time>2026-05-02T13:43:14.793Z</time></trkpt><trkpt lat="46.1444385" lon="13.4330552"><ele>456.0</ele><time>2026-05-02T13:43:15.777Z</time></trkpt><trkpt lat="46.1443752" lon="13.4329665"><ele>455.99999999999994</ele><time>2026-05-02T13:43:16.795Z</time></trkpt><trkpt lat="46.14431" lon="13.4329154"><ele>456.0</ele><time>2026-05-02T13:43:17.79Z</time></trkpt><trkpt lat="46.144266" lon="13.4328342"><ele>456.0</ele><time>2026-05-02T13:43:18.781Z</time></trkpt><trkpt lat="46.1442436" lon="13.4327291"><ele>458.8</ele><time>2026-05-02T13:43:19.783Z</time></trkpt><trkpt lat="46.1442465" lon="13.4326135"><ele>461.6</ele><time>2026-05-02T13:43:20.786Z</time></trkpt><trkpt lat="46.144255" lon="13.4324999"><ele>464.4</ele><time>2026-05-02T13:43:21.799Z</time></trkpt><trkpt lat="46.1442591" lon="13.4323833"><ele>467.2</ele><time>2026-05-02T13:43:22.787Z</time></trkpt><trkpt lat="46.1441648" lon="13.4321966"><ele>470.0</ele><time>2026-05-02T13:43:25.779Z</time></trkpt><trkpt lat="46.1440898" lon="13.4321494"><ele>468.2</ele><time>2026-05-02T13:43:26.788Z</time></trkpt><trkpt lat="46.1439986" lon="13.432078"><ele>466.4</ele><time>2026-05-02T13:43:27.786Z</time></trkpt><trkpt lat="46.1438953" lon="13.4320156"><ele>464.6</ele><time>2026-05-02T13:43:28.791Z</time></trkpt><trkpt lat="46.1437871" lon="13.4319661"><ele>462.8</ele><time>2026-05-02T13:43:29.788Z</time></trkpt><trkpt lat="46.1436789" lon="13.4319187"><ele>461.0</ele><time>2026-05-02T13:43:30.793Z</time></trkpt><trkpt lat="46.1435895" lon="13.4318477"><ele>461.0</ele><time>2026-05-02T13:43:31.784Z</time></trkpt><trkpt lat="46.1435207" lon="13.431774"><ele>461.0</ele><time>2026-05-02T13:43:32.79Z</time></trkpt><trkpt lat="46.1434823" lon="13.4316989"><ele>461.0</ele><time>2026-05-02T13:43:33.79Z</time></trkpt><trkpt lat="46.1435443" lon="13.4315692"><ele>461.0</ele><time>2026-05-02T13:43:35.781Z</time></trkpt><trkpt lat="46.1436417" lon="13.4314043"><ele>461.0</ele><time>2026-05-02T13:43:37.779Z</time></trkpt><trkpt lat="46.1436654" lon="13.4313005"><ele>463.0</ele><time>2026-05-02T13:43:38.794Z</time></trkpt><trkpt lat="46.1435938" lon="13.4312114"><ele>465.0</ele><time>2026-05-02T13:43:40.779Z</time></trkpt><trkpt lat="46.1434859" lon="13.4311876"><ele>467.0</ele><time>2026-05-02T13:43:42.786Z</time></trkpt><trkpt lat="46.1433744" lon="13.4310985"><ele>469.0</ele><time>2026-05-02T13:43:44.784Z</time></trkpt><trkpt lat="46.1432542" lon="13.4310328"><ele>467.2</ele><time>2026-05-02T13:43:46.797Z</time></trkpt><trkpt lat="46.1431821" lon="13.4310132"><ele>465.4</ele><time>2026-05-02T13:43:47.796Z</time></trkpt><trkpt lat="46.1430787" lon="13.4309938"><ele>463.6</ele><time>2026-05-02T13:43:48.789Z</time></trkpt><trkpt lat="46.1429633" lon="13.4309572"><ele>461.8</ele><time>2026-05-02T13:43:49.787Z</time></trkpt><trkpt lat="46.1428704" lon="13.4309262"><ele>460.0</ele><time>2026-05-02T13:43:50.785Z</time></trkpt><trkpt lat="46.142786" lon="13.4308459"><ele>460.00000000000006</ele><time>2026-05-02T13:43:52.793Z</time></trkpt><trkpt lat="46.1427919" lon="13.4306966"><ele>460.0</ele><time>2026-05-02T13:43:54.786Z</time></trkpt><trkpt lat="46.1427853" lon="13.4305944"><ele>460.0</ele><time>2026-05-02T13:43:55.782Z</time></trkpt><trkpt lat="46.1427725" lon="13.4304865"><ele>460.0</ele><time>2026-05-02T13:43:56.776Z</time></trkpt><trkpt lat="46.1427535" lon="13.4303844"><ele>460.00000000000006</ele><time>2026-05-02T13:43:57.793Z</time></trkpt><trkpt lat="46.1426673" lon="13.4302872"><ele>460.0</ele><time>2026-05-02T13:43:59.791Z</time></trkpt><trkpt lat="46.1425705" lon="13.4302791"><ele>461.0</ele><time>2026-05-02T13:44:01.786Z</time></trkpt><trkpt lat="46.1424749" lon="13.4302063"><ele>462.0</ele><time>2026-05-02T13:44:03.786Z</time></trkpt><trkpt lat="46.1424052" lon="13.430156"><ele>463.0</ele><time>2026-05-02T13:44:04.791Z</time></trkpt><trkpt lat="46.1423286" lon="13.4300909"><ele>464.0</ele><time>2026-05-02T13:44:05.782Z</time></trkpt><trkpt lat="46.1421949" lon="13.4299118"><ele>464.0</ele><time>2026-05-02T13:44:07.783Z</time></trkpt><trkpt lat="46.1421323" lon="13.4298006"><ele>464.0</ele><time>2026-05-02T13:44:08.79Z</time></trkpt><trkpt lat="46.1420727" lon="13.4296926"><ele>464.0</ele><time>2026-05-02T13:44:09.784Z</time></trkpt><trkpt lat="46.142026" lon="13.429575"><ele>464.0</ele><time>2026-05-02T13:44:10.787Z</time></trkpt><trkpt lat="46.1419977" lon="13.4294505"><ele>464.0</ele><time>2026-05-02T13:44:11.78Z</time></trkpt><trkpt lat="46.1419936" lon="13.4293351"><ele>465.6</ele><time>2026-05-02T13:44:12.795Z</time></trkpt><trkpt lat="46.1419979" lon="13.4292003"><ele>467.2</ele><time>2026-05-02T13:44:13.778Z</time></trkpt><trkpt lat="46.1420152" lon="13.429059"><ele>468.80000000000007</ele><time>2026-05-02T13:44:14.795Z</time></trkpt><trkpt lat="46.1420364" lon="13.428925"><ele>470.40000000000003</ele><time>2026-05-02T13:44:15.792Z</time></trkpt><trkpt lat="46.1420458" lon="13.4288036"><ele>472.0</ele><time>2026-05-02T13:44:16.793Z</time></trkpt><trkpt lat="46.1420469" lon="13.4286683"><ele>473.00000000000006</ele><time>2026-05-02T13:44:17.791Z</time></trkpt><trkpt lat="46.1420298" lon="13.4285346"><ele>474.0</ele><time>2026-05-02T13:44:18.791Z</time></trkpt><trkpt lat="46.1419944" lon="13.428418"><ele>475.0</ele><time>2026-05-02T13:44:19.785Z</time></trkpt><trkpt lat="46.1419558" lon="13.4283113"><ele>476.0</ele><time>2026-05-02T13:44:20.784Z</time></trkpt><trkpt lat="46.1419154" lon="13.4282136"><ele>477.00000000000006</ele><time>2026-05-02T13:44:21.8Z</time></trkpt><trkpt lat="46.1418624" lon="13.4281398"><ele>478.0</ele><time>2026-05-02T13:44:22.803Z</time></trkpt><trkpt lat="46.1418033" lon="13.4280724"><ele>478.00000000000006</ele><time>2026-05-02T13:44:23.782Z</time></trkpt><trkpt lat="46.1417513" lon="13.427999"><ele>478.0</ele><time>2026-05-02T13:44:24.787Z</time></trkpt><trkpt lat="46.1417102" lon="13.4279176"><ele>478.0</ele><time>2026-05-02T13:44:25.783Z</time></trkpt><trkpt lat="46.1416828" lon="13.42782"><ele>478.0</ele><time>2026-05-02T13:44:26.787Z</time></trkpt><trkpt lat="46.1416731" lon="13.4276044"><ele>478.00000000000006</ele><time>2026-05-02T13:44:28.787Z</time></trkpt><trkpt lat="46.1416722" lon="13.4275093"><ele>478.0</ele><time>2026-05-02T13:44:29.793Z</time></trkpt><trkpt lat="46.1416165" lon="13.427371"><ele>479.79999999999995</ele><time>2026-05-02T13:44:31.782Z</time></trkpt><trkpt lat="46.141488" lon="13.4273425"><ele>481.59999999999997</ele><time>2026-05-02T13:44:33.787Z</time></trkpt><trkpt lat="46.1414146" lon="13.4273412"><ele>483.40000000000003</ele><time>2026-05-02T13:44:34.792Z</time></trkpt><trkpt lat="46.1413352" lon="13.4273525"><ele>485.20000000000005</ele><time>2026-05-02T13:44:35.781Z</time></trkpt><trkpt lat="46.1412448" lon="13.4273776"><ele>487.0</ele><time>2026-05-02T13:44:36.783Z</time></trkpt><trkpt lat="46.1411447" lon="13.4274294"><ele>487.0</ele><time>2026-05-02T13:44:37.787Z</time></trkpt><trkpt lat="46.1410464" lon="13.4274929"><ele>487.00000000000006</ele><time>2026-05-02T13:44:38.785Z</time></trkpt><trkpt lat="46.1409419" lon="13.4275563"><ele>487.00000000000006</ele><time>2026-05-02T13:44:39.781Z</time></trkpt><trkpt lat="46.1408379" lon="13.4275966"><ele>487.0</ele><time>2026-05-02T13:44:40.804Z</time></trkpt><trkpt lat="46.1407369" lon="13.4276193"><ele>487.0</ele><time>2026-05-02T13:44:41.782Z</time></trkpt><trkpt lat="46.1406433" lon="13.4276168"><ele>485.50000000000006</ele><time>2026-05-02T13:44:42.788Z</time></trkpt><trkpt lat="46.14056" lon="13.4275921"><ele>484.0</ele><time>2026-05-02T13:44:43.781Z</time></trkpt><trkpt lat="46.140475" lon="13.4275506"><ele>482.5</ele><time>2026-05-02T13:44:44.784Z</time></trkpt><trkpt lat="46.1403937" lon="13.4274794"><ele>481.0</ele><time>2026-05-02T13:44:45.784Z</time></trkpt><trkpt lat="46.140347" lon="13.4273803"><ele>479.50000000000006</ele><time>2026-05-02T13:44:46.786Z</time></trkpt><trkpt lat="46.1403105" lon="13.4272654"><ele>478.0</ele><time>2026-05-02T13:44:47.791Z</time></trkpt><trkpt lat="46.1402757" lon="13.4269319"><ele>478.0</ele><time>2026-05-02T13:44:49.786Z</time></trkpt><trkpt lat="46.1402595" lon="13.4267525"><ele>477.99999999999994</ele><time>2026-05-02T13:44:50.787Z</time></trkpt><trkpt lat="46.1402492" lon="13.4265886"><ele>477.99999999999994</ele><time>2026-05-02T13:44:51.796Z</time></trkpt><trkpt lat="46.1402537" lon="13.4264329"><ele>478.0</ele><time>2026-05-02T13:44:52.786Z</time></trkpt><trkpt lat="46.140284" lon="13.4262992"><ele>478.0</ele><time>2026-05-02T13:44:53.783Z</time></trkpt><trkpt lat="46.1403317" lon="13.4261982"><ele>479.33333333333337</ele><time>2026-05-02T13:44:54.784Z</time></trkpt><trkpt lat="46.1403914" lon="13.4260987"><ele>480.6666666666667</ele><time>2026-05-02T13:44:55.78Z</time></trkpt><trkpt lat="46.1404529" lon="13.4260208"><ele>482.0</ele><time>2026-05-02T13:44:56.795Z</time></trkpt><trkpt lat="46.1405086" lon="13.4259308"><ele>483.33333333333337</ele><time>2026-05-02T13:44:58.778Z</time></trkpt><trkpt lat="46.1404573" lon="13.4258479"><ele>484.6666666666667</ele><time>2026-05-02T13:45:01.792Z</time></trkpt><trkpt lat="46.1403665" lon="13.4258285"><ele>486.0</ele><time>2026-05-02T13:45:03.794Z</time></trkpt><trkpt lat="46.1402977" lon="13.4258266"><ele>486.0</ele><time>2026-05-02T13:45:05.777Z</time></trkpt><trkpt lat="46.1402357" lon="13.4258654"><ele>486.0</ele><time>2026-05-02T13:45:31.782Z</time></trkpt><trkpt lat="46.1400779" lon="13.4258125"><ele>486.0</ele><time>2026-05-02T13:45:35.783Z</time></trkpt><trkpt lat="46.1400168" lon="13.4257604"><ele>486.0</ele><time>2026-05-02T13:45:36.784Z</time></trkpt><trkpt lat="46.1399545" lon="13.4257083"><ele>486.0</ele><time>2026-05-02T13:45:37.778Z</time></trkpt><trkpt lat="46.1398604" lon="13.4256286"><ele>483.8333333333333</ele><time>2026-05-02T13:45:38.781Z</time></trkpt><trkpt lat="46.1397919" lon="13.4255059"><ele>481.66666666666663</ele><time>2026-05-02T13:45:39.788Z</time></trkpt><trkpt lat="46.1397353" lon="13.4254186"><ele>479.5</ele><time>2026-05-02T13:45:40.781Z</time></trkpt><trkpt lat="46.1396747" lon="13.4253466"><ele>477.3333333333333</ele><time>2026-05-02T13:45:41.782Z</time></trkpt><trkpt lat="46.1396096" lon="13.4252658"><ele>475.16666666666663</ele><time>2026-05-02T13:45:42.776Z</time></trkpt><trkpt lat="46.1395616" lon="13.4251697"><ele>473.0</ele><time>2026-05-02T13:45:43.777Z</time></trkpt><trkpt lat="46.1395194" lon="13.4250704"><ele>473.0</ele><time>2026-05-02T13:45:44.781Z</time></trkpt><trkpt lat="46.1394913" lon="13.4249745"><ele>473.0</ele><time>2026-05-02T13:45:45.781Z</time></trkpt><trkpt lat="46.1394706" lon="13.424885"><ele>473.0</ele><time>2026-05-02T13:45:46.796Z</time></trkpt><trkpt lat="46.1394664" lon="13.4247921"><ele>473.0</ele><time>2026-05-02T13:45:47.785Z</time></trkpt><trkpt lat="46.1394811" lon="13.4246901"><ele>473.0</ele><time>2026-05-02T13:45:48.779Z</time></trkpt><trkpt lat="46.1395141" lon="13.4246095"><ele>473.0</ele><time>2026-05-02T13:45:49.779Z</time></trkpt><trkpt lat="46.1395533" lon="13.4245331"><ele>473.0</ele><time>2026-05-02T13:45:50.78Z</time></trkpt><trkpt lat="46.1396017" lon="13.4244441"><ele>474.0</ele><time>2026-05-02T13:45:51.784Z</time></trkpt><trkpt lat="46.1396229" lon="13.4243542"><ele>474.99999999999994</ele><time>2026-05-02T13:45:52.784Z</time></trkpt><trkpt lat="46.1395761" lon="13.4241022"><ele>475.99999999999994</ele><time>2026-05-02T13:45:55.785Z</time></trkpt><trkpt lat="46.1395432" lon="13.4239892"><ele>477.0</ele><time>2026-05-02T13:45:56.793Z</time></trkpt><trkpt lat="46.1395146" lon="13.423871"><ele>478.0</ele><time>2026-05-02T13:45:57.794Z</time></trkpt><trkpt lat="46.1394895" lon="13.4237449"><ele>479.0</ele><time>2026-05-02T13:45:58.782Z</time></trkpt><trkpt lat="46.1394724" lon="13.4235979"><ele>479.99999999999994</ele><time>2026-05-02T13:45:59.783Z</time></trkpt><trkpt lat="46.1394512" lon="13.4234458"><ele>480.99999999999994</ele><time>2026-05-02T13:46:00.777Z</time></trkpt><trkpt lat="46.1394287" lon="13.4232865"><ele>482.0</ele><time>2026-05-02T13:46:01.799Z</time></trkpt><trkpt lat="46.1393918" lon="13.4231438"><ele>483.0</ele><time>2026-05-02T13:46:02.788Z</time></trkpt><trkpt lat="46.1393649" lon="13.4230101"><ele>484.8333333333333</ele><time>2026-05-02T13:46:03.782Z</time></trkpt><trkpt lat="46.1393386" lon="13.4228683"><ele>486.66666666666663</ele><time>2026-05-02T13:46:04.781Z</time></trkpt><trkpt lat="46.1393208" lon="13.4227306"><ele>488.5</ele><time>2026-05-02T13:46:05.783Z</time></trkpt><trkpt lat="46.1393046" lon="13.4226157"><ele>490.3333333333333</ele><time>2026-05-02T13:46:06.781Z</time></trkpt><trkpt lat="46.1392746" lon="13.4225094"><ele>492.16666666666663</ele><time>2026-05-02T13:46:07.782Z</time></trkpt><trkpt lat="46.1392329" lon="13.4223977"><ele>494.0</ele><time>2026-05-02T13:46:08.788Z</time></trkpt><trkpt lat="46.13919" lon="13.4222932"><ele>494.0</ele><time>2026-05-02T13:46:09.794Z</time></trkpt><trkpt lat="46.1391379" lon="13.4221961"><ele>494.0</ele><time>2026-05-02T13:46:10.791Z</time></trkpt><trkpt lat="46.139084" lon="13.4221163"><ele>494.0</ele><time>2026-05-02T13:46:11.781Z</time></trkpt><trkpt lat="46.1390266" lon="13.4220444"><ele>494.0</ele><time>2026-05-02T13:46:12.786Z</time></trkpt><trkpt lat="46.1388942" lon="13.4218151"><ele>494.0</ele><time>2026-05-02T13:46:15.779Z</time></trkpt><trkpt lat="46.1388445" lon="13.4217515"><ele>495.3333333333333</ele><time>2026-05-02T13:46:16.787Z</time></trkpt><trkpt lat="46.1387871" lon="13.4216928"><ele>496.66666666666663</ele><time>2026-05-02T13:46:17.778Z</time></trkpt><trkpt lat="46.1387228" lon="13.4216315"><ele>498.0</ele><time>2026-05-02T13:46:18.789Z</time></trkpt><trkpt lat="46.1386501" lon="13.4215946"><ele>499.33333333333337</ele><time>2026-05-02T13:46:19.784Z</time></trkpt><trkpt lat="46.1385637" lon="13.4215899"><ele>500.6666666666667</ele><time>2026-05-02T13:46:20.775Z</time></trkpt><trkpt lat="46.1384738" lon="13.4215768"><ele>502.0</ele><time>2026-05-02T13:46:21.78Z</time></trkpt><trkpt lat="46.1383905" lon="13.4216079"><ele>502.0</ele><time>2026-05-02T13:46:22.789Z</time></trkpt><trkpt lat="46.1382946" lon="13.4216492"><ele>502.0</ele><time>2026-05-02T13:46:23.776Z</time></trkpt><trkpt lat="46.1381872" lon="13.4216897"><ele>502.0</ele><time>2026-05-02T13:46:24.782Z</time></trkpt><trkpt lat="46.1380692" lon="13.4217442"><ele>502.0</ele><time>2026-05-02T13:46:25.787Z</time></trkpt><trkpt lat="46.137949" lon="13.4217884"><ele>498.5</ele><time>2026-05-02T13:46:26.787Z</time></trkpt><trkpt lat="46.1378266" lon="13.4218263"><ele>495.0</ele><time>2026-05-02T13:46:27.784Z</time></trkpt><trkpt lat="46.1377048" lon="13.421868"><ele>491.5</ele><time>2026-05-02T13:46:28.784Z</time></trkpt><trkpt lat="46.1375923" lon="13.4219098"><ele>488.0</ele><time>2026-05-02T13:46:29.783Z</time></trkpt><trkpt lat="46.1375032" lon="13.4219402"><ele>488.0</ele><time>2026-05-02T13:46:30.787Z</time></trkpt><trkpt lat="46.1374364" lon="13.4219655"><ele>487.99999999999994</ele><time>2026-05-02T13:46:31.787Z</time></trkpt><trkpt lat="46.1373723" lon="13.4219893"><ele>487.99999999999994</ele><time>2026-05-02T13:46:32.794Z</time></trkpt><trkpt lat="46.1373396" lon="13.4218845"><ele>488.0</ele><time>2026-05-02T13:46:34.784Z</time></trkpt><trkpt lat="46.1373862" lon="13.4216364"><ele>488.0</ele><time>2026-05-02T13:46:37.781Z</time></trkpt><trkpt lat="46.1374071" lon="13.4215328"><ele>484.99999999999994</ele><time>2026-05-02T13:46:38.782Z</time></trkpt><trkpt lat="46.1373836" lon="13.4214409"><ele>482.0</ele><time>2026-05-02T13:46:39.784Z</time></trkpt><trkpt lat="46.1373563" lon="13.4213576"><ele>478.99999999999994</ele><time>2026-05-02T13:46:40.783Z</time></trkpt><trkpt lat="46.1373292" lon="13.4212687"><ele>475.99999999999994</ele><time>2026-05-02T13:46:41.778Z</time></trkpt><trkpt lat="46.1372883" lon="13.4211942"><ele>473.0</ele><time>2026-05-02T13:46:42.798Z</time></trkpt><trkpt lat="46.1372465" lon="13.4211098"><ele>469.99999999999994</ele><time>2026-05-02T13:46:43.783Z</time></trkpt><trkpt lat="46.1372217" lon="13.4210168"><ele>466.99999999999994</ele><time>2026-05-02T13:46:44.789Z</time></trkpt><trkpt lat="46.1371913" lon="13.4208143"><ele>466.99999999999994</ele><time>2026-05-02T13:46:46.789Z</time></trkpt><trkpt lat="46.1371879" lon="13.4206978"><ele>467.0</ele><time>2026-05-02T13:46:47.784Z</time></trkpt><trkpt lat="46.1371812" lon="13.4205719"><ele>467.0</ele><time>2026-05-02T13:46:48.783Z</time></trkpt><trkpt lat="46.1371744" lon="13.4204417"><ele>467.0</ele><time>2026-05-02T13:46:49.784Z</time></trkpt><trkpt lat="46.1371725" lon="13.4203236"><ele>466.99999999999994</ele><time>2026-05-02T13:46:50.783Z</time></trkpt><trkpt lat="46.1371433" lon="13.420218"><ele>467.0</ele><time>2026-05-02T13:46:51.782Z</time></trkpt><trkpt lat="46.1370987" lon="13.4201321"><ele>471.5</ele><time>2026-05-02T13:46:52.783Z</time></trkpt><trkpt lat="46.1370337" lon="13.420066"><ele>476.0</ele><time>2026-05-02T13:46:53.784Z</time></trkpt><trkpt lat="46.136949" lon="13.4200202"><ele>480.5</ele><time>2026-05-02T13:46:54.789Z</time></trkpt><trkpt lat="46.1368631" lon="13.4199839"><ele>485.0</ele><time>2026-05-02T13:46:55.779Z</time></trkpt><trkpt lat="46.1366702" lon="13.4199068"><ele>485.0</ele><time>2026-05-02T13:46:57.789Z</time></trkpt><trkpt lat="46.1365798" lon="13.419855"><ele>485.0</ele><time>2026-05-02T13:46:58.787Z</time></trkpt><trkpt lat="46.1364957" lon="13.4197724"><ele>485.0</ele><time>2026-05-02T13:46:59.793Z</time></trkpt><trkpt lat="46.1364025" lon="13.4196883"><ele>485.0</ele><time>2026-05-02T13:47:00.782Z</time></trkpt><trkpt lat="46.1363548" lon="13.4196247"><ele>485.0</ele><time>2026-05-02T13:47:01.784Z</time></trkpt><trkpt lat="46.1363115" lon="13.4194899"><ele>490.2</ele><time>2026-05-02T13:47:03.775Z</time></trkpt><trkpt lat="46.1362934" lon="13.4193467"><ele>495.4</ele><time>2026-05-02T13:47:05.793Z</time></trkpt><trkpt lat="46.1362597" lon="13.4191904"><ele>500.6</ele><time>2026-05-02T13:47:07.793Z</time></trkpt><trkpt lat="46.1362082" lon="13.4190986"><ele>505.8</ele><time>2026-05-02T13:47:09.784Z</time></trkpt><trkpt lat="46.1361483" lon="13.4192298"><ele>511.0</ele><time>2026-05-02T13:47:13.783Z</time></trkpt><trkpt lat="46.1361276" lon="13.4193224"><ele>511.0</ele><time>2026-05-02T13:47:14.777Z</time></trkpt><trkpt lat="46.1360977" lon="13.4194168"><ele>511.0</ele><time>2026-05-02T13:47:15.784Z</time></trkpt><trkpt lat="46.1360595" lon="13.4195157"><ele>511.0</ele><time>2026-05-02T13:47:16.78Z</time></trkpt><trkpt lat="46.1360095" lon="13.4196167"><ele>511.0</ele><time>2026-05-02T13:47:17.774Z</time></trkpt><trkpt lat="46.1358906" lon="13.4198302"><ele>511.0</ele><time>2026-05-02T13:47:19.779Z</time></trkpt><trkpt lat="46.1358205" lon="13.4199226"><ele>507.33333333333337</ele><time>2026-05-02T13:47:20.785Z</time></trkpt><trkpt lat="46.1357531" lon="13.4199854"><ele>503.6666666666667</ele><time>2026-05-02T13:47:21.788Z</time></trkpt><trkpt lat="46.1356787" lon="13.4200291"><ele>500.0</ele><time>2026-05-02T13:47:22.79Z</time></trkpt><trkpt lat="46.1356062" lon="13.4200407"><ele>496.33333333333337</ele><time>2026-05-02T13:47:23.786Z</time></trkpt><trkpt lat="46.1355308" lon="13.4200394"><ele>492.6666666666667</ele><time>2026-05-02T13:47:24.788Z</time></trkpt><trkpt lat="46.1354591" lon="13.4200182"><ele>489.0</ele><time>2026-05-02T13:47:25.794Z</time></trkpt><trkpt lat="46.1353906" lon="13.4200383"><ele>489.0</ele><time>2026-05-02T13:47:26.781Z</time></trkpt><trkpt lat="46.1353182" lon="13.4200763"><ele>489.0</ele><time>2026-05-02T13:47:27.787Z</time></trkpt><trkpt lat="46.1352391" lon="13.4201167"><ele>489.0</ele><time>2026-05-02T13:47:28.792Z</time></trkpt><trkpt lat="46.1351496" lon="13.4201628"><ele>489.0</ele><time>2026-05-02T13:47:29.785Z</time></trkpt><trkpt lat="46.1350659" lon="13.4202247"><ele>489.0</ele><time>2026-05-02T13:47:30.781Z</time></trkpt><trkpt lat="46.1349877" lon="13.4202976"><ele>489.0</ele><time>2026-05-02T13:47:31.788Z</time></trkpt><trkpt lat="46.1349178" lon="13.4203558"><ele>488.79999999999995</ele><time>2026-05-02T13:47:32.796Z</time></trkpt><trkpt lat="46.1348291" lon="13.4204248"><ele>488.59999999999997</ele><time>2026-05-02T13:47:33.785Z</time></trkpt><trkpt lat="46.134743" lon="13.4205084"><ele>488.4</ele><time>2026-05-02T13:47:34.781Z</time></trkpt><trkpt lat="46.1346653" lon="13.4206128"><ele>488.2</ele><time>2026-05-02T13:47:35.782Z</time></trkpt><trkpt lat="46.1345958" lon="13.4207165"><ele>488.0</ele><time>2026-05-02T13:47:36.787Z</time></trkpt><trkpt lat="46.1345276" lon="13.4208069"><ele>482.5</ele><time>2026-05-02T13:47:37.786Z</time></trkpt><trkpt lat="46.1344569" lon="13.4208774"><ele>477.0</ele><time>2026-05-02T13:47:38.785Z</time></trkpt><trkpt lat="46.1343001" lon="13.420986"><ele>471.5</ele><time>2026-05-02T13:47:40.795Z</time></trkpt><trkpt lat="46.1342179" lon="13.42103"><ele>466.0</ele><time>2026-05-02T13:47:41.787Z</time></trkpt><trkpt lat="46.1341209" lon="13.4210927"><ele>463.0</ele><time>2026-05-02T13:47:42.783Z</time></trkpt><trkpt lat="46.1340216" lon="13.4211576"><ele>460.0</ele><time>2026-05-02T13:47:43.776Z</time></trkpt><trkpt lat="46.1339285" lon="13.4212319"><ele>457.0</ele><time>2026-05-02T13:47:44.783Z</time></trkpt><trkpt lat="46.1338426" lon="13.4213169"><ele>454.0</ele><time>2026-05-02T13:47:45.787Z</time></trkpt><trkpt lat="46.1337592" lon="13.4214067"><ele>451.0</ele><time>2026-05-02T13:47:46.779Z</time></trkpt><trkpt lat="46.1336797" lon="13.421499"><ele>448.8</ele><time>2026-05-02T13:47:47.788Z</time></trkpt><trkpt lat="46.1336013" lon="13.421594"><ele>446.6</ele><time>2026-05-02T13:47:48.788Z</time></trkpt><trkpt lat="46.1334632" lon="13.4217089"><ele>444.4</ele><time>2026-05-02T13:47:50.789Z</time></trkpt><trkpt lat="46.1333851" lon="13.4217515"><ele>442.2</ele><time>2026-05-02T13:47:51.792Z</time></trkpt><trkpt lat="46.1333038" lon="13.4217721"><ele>440.0</ele><time>2026-05-02T13:47:52.779Z</time></trkpt><trkpt lat="46.1332228" lon="13.4217646"><ele>434.0</ele><time>2026-05-02T13:47:53.79Z</time></trkpt><trkpt lat="46.133151" lon="13.4217403"><ele>428.0</ele><time>2026-05-02T13:47:54.784Z</time></trkpt><trkpt lat="46.1330749" lon="13.4215903"><ele>422.0</ele><time>2026-05-02T13:47:56.784Z</time></trkpt><trkpt lat="46.1330814" lon="13.4214428"><ele>416.0</ele><time>2026-05-02T13:47:57.789Z</time></trkpt><trkpt lat="46.13309" lon="13.4212701"><ele>410.0</ele><time>2026-05-02T13:47:58.786Z</time></trkpt><trkpt lat="46.1331204" lon="13.4210884"><ele>410.0</ele><time>2026-05-02T13:47:59.786Z</time></trkpt><trkpt lat="46.1331194" lon="13.4208171"><ele>410.0</ele><time>2026-05-02T13:48:01.781Z</time></trkpt><trkpt lat="46.1331134" lon="13.4207134"><ele>410.0</ele><time>2026-05-02T13:48:02.784Z</time></trkpt><trkpt lat="46.1331005" lon="13.4206232"><ele>410.0</ele><time>2026-05-02T13:48:03.792Z</time></trkpt><trkpt lat="46.1330771" lon="13.4205357"><ele>410.0</ele><time>2026-05-02T13:48:04.784Z</time></trkpt><trkpt lat="46.1329892" lon="13.420446"><ele>410.66666666666663</ele><time>2026-05-02T13:48:06.783Z</time></trkpt><trkpt lat="46.1329269" lon="13.4204232"><ele>411.3333333333333</ele><time>2026-05-02T13:48:07.784Z</time></trkpt><trkpt lat="46.1328062" lon="13.4203792"><ele>412.0</ele><time>2026-05-02T13:48:09.782Z</time></trkpt><trkpt lat="46.1326863" lon="13.4203978"><ele>412.66666666666663</ele><time>2026-05-02T13:48:11.792Z</time></trkpt><trkpt lat="46.1326205" lon="13.420412"><ele>413.3333333333333</ele><time>2026-05-02T13:48:12.788Z</time></trkpt><trkpt lat="46.1325562" lon="13.4204156"><ele>414.0</ele><time>2026-05-02T13:48:13.786Z</time></trkpt><trkpt lat="46.1324827" lon="13.4202889"><ele>414.0</ele><time>2026-05-02T13:48:15.782Z</time></trkpt><trkpt lat="46.1324558" lon="13.4201955"><ele>414.0</ele><time>2026-05-02T13:48:16.779Z</time></trkpt><trkpt lat="46.1324275" lon="13.4200816"><ele>414.0</ele><time>2026-05-02T13:48:17.79Z</time></trkpt><trkpt lat="46.1324124" lon="13.4199567"><ele>414.0</ele><time>2026-05-02T13:48:18.783Z</time></trkpt><trkpt lat="46.132409" lon="13.4198241"><ele>414.0</ele><time>2026-05-02T13:48:19.781Z</time></trkpt><trkpt lat="46.1324056" lon="13.4196847"><ele>414.0</ele><time>2026-05-02T13:48:20.787Z</time></trkpt><trkpt lat="46.1323977" lon="13.4192487"><ele>412.25</ele><time>2026-05-02T13:48:23.778Z</time></trkpt><trkpt lat="46.1323964" lon="13.4190816"><ele>410.5</ele><time>2026-05-02T13:48:24.791Z</time></trkpt><trkpt lat="46.1323897" lon="13.4189059"><ele>408.75</ele><time>2026-05-02T13:48:25.787Z</time></trkpt><trkpt lat="46.1323673" lon="13.418734"><ele>407.0</ele><time>2026-05-02T13:48:26.786Z</time></trkpt><trkpt lat="46.132341" lon="13.4185623"><ele>396.75</ele><time>2026-05-02T13:48:27.774Z</time></trkpt><trkpt lat="46.1323165" lon="13.4183971"><ele>386.5</ele><time>2026-05-02T13:48:28.781Z</time></trkpt><trkpt lat="46.1322912" lon="13.4182219"><ele>376.25</ele><time>2026-05-02T13:48:29.781Z</time></trkpt><trkpt lat="46.1322612" lon="13.4180465"><ele>366.0</ele><time>2026-05-02T13:48:30.779Z</time></trkpt><trkpt lat="46.1322365" lon="13.417867"><ele>366.0</ele><time>2026-05-02T13:48:31.784Z</time></trkpt><trkpt lat="46.1322131" lon="13.417692"><ele>366.0</ele><time>2026-05-02T13:48:32.777Z</time></trkpt><trkpt lat="46.1321827" lon="13.4175242"><ele>366.0</ele><time>2026-05-02T13:48:33.782Z</time></trkpt><trkpt lat="46.1321469" lon="13.4173695"><ele>366.0</ele><time>2026-05-02T13:48:34.787Z</time></trkpt><trkpt lat="46.1321142" lon="13.4172242"><ele>371.6</ele><time>2026-05-02T13:48:35.782Z</time></trkpt><trkpt lat="46.1321012" lon="13.4171081"><ele>377.20000000000005</ele><time>2026-05-02T13:48:36.784Z</time></trkpt><trkpt lat="46.1320814" lon="13.4170063"><ele>382.79999999999995</ele><time>2026-05-02T13:48:37.786Z</time></trkpt><trkpt lat="46.1320464" lon="13.4169253"><ele>388.4</ele><time>2026-05-02T13:48:38.786Z</time></trkpt><trkpt lat="46.1319063" lon="13.4169332"><ele>394.0</ele><time>2026-05-02T13:48:40.779Z</time></trkpt><trkpt lat="46.1318109" lon="13.4170112"><ele>394.0</ele><time>2026-05-02T13:48:41.781Z</time></trkpt><trkpt lat="46.1317092" lon="13.4170818"><ele>394.0</ele><time>2026-05-02T13:48:42.794Z</time></trkpt><trkpt lat="46.1315358" lon="13.4171878"><ele>394.0</ele><time>2026-05-02T13:48:44.78Z</time></trkpt><trkpt lat="46.131452" lon="13.4172678"><ele>394.0</ele><time>2026-05-02T13:48:45.781Z</time></trkpt><trkpt lat="46.1313516" lon="13.4173372"><ele>383.0</ele><time>2026-05-02T13:48:46.785Z</time></trkpt><trkpt lat="46.1312491" lon="13.4174127"><ele>372.0</ele><time>2026-05-02T13:48:47.792Z</time></trkpt><trkpt lat="46.1311414" lon="13.4174966"><ele>361.0</ele><time>2026-05-02T13:48:48.789Z</time></trkpt><trkpt lat="46.1310361" lon="13.417569"><ele>350.0</ele><time>2026-05-02T13:48:49.783Z</time></trkpt><trkpt lat="46.1309348" lon="13.4176484"><ele>350.0</ele><time>2026-05-02T13:48:50.786Z</time></trkpt><trkpt lat="46.1308353" lon="13.4177279"><ele>350.0</ele><time>2026-05-02T13:48:51.789Z</time></trkpt><trkpt lat="46.1307375" lon="13.4178083"><ele>350.0</ele><time>2026-05-02T13:48:52.783Z</time></trkpt><trkpt lat="46.1306566" lon="13.417864"><ele>350.0</ele><time>2026-05-02T13:48:53.787Z</time></trkpt><trkpt lat="46.1305828" lon="13.4179091"><ele>350.0</ele><time>2026-05-02T13:48:54.788Z</time></trkpt><trkpt lat="46.1305163" lon="13.4179272"><ele>344.6666666666667</ele><time>2026-05-02T13:48:55.784Z</time></trkpt><trkpt lat="46.130458" lon="13.4177906"><ele>339.33333333333337</ele><time>2026-05-02T13:48:57.781Z</time></trkpt><trkpt lat="46.1304548" lon="13.4176705"><ele>334.0</ele><time>2026-05-02T13:48:58.792Z</time></trkpt><trkpt lat="46.130456" lon="13.4175466"><ele>328.6666666666667</ele><time>2026-05-02T13:48:59.781Z</time></trkpt><trkpt lat="46.1304499" lon="13.4174296"><ele>323.3333333333333</ele><time>2026-05-02T13:49:00.781Z</time></trkpt><trkpt lat="46.1304411" lon="13.4173039"><ele>318.0</ele><time>2026-05-02T13:49:01.786Z</time></trkpt><trkpt lat="46.1304101" lon="13.417207"><ele>319.8</ele><time>2026-05-02T13:49:02.786Z</time></trkpt><trkpt lat="46.1303726" lon="13.4171217"><ele>321.6</ele><time>2026-05-02T13:49:03.79Z</time></trkpt><trkpt lat="46.1302553" lon="13.4169325"><ele>323.40000000000003</ele><time>2026-05-02T13:49:06.779Z</time></trkpt><trkpt lat="46.1301713" lon="13.416902"><ele>325.20000000000005</ele><time>2026-05-02T13:49:08.781Z</time></trkpt><trkpt lat="46.1300833" lon="13.4169351"><ele>327.0</ele><time>2026-05-02T13:49:10.784Z</time></trkpt><trkpt lat="46.1300032" lon="13.4169337"><ele>327.0</ele><time>2026-05-02T13:49:12.781Z</time></trkpt><trkpt lat="46.1299192" lon="13.4169252"><ele>327.0</ele><time>2026-05-02T13:49:14.779Z</time></trkpt><trkpt lat="46.1298507" lon="13.416844"><ele>327.0</ele><time>2026-05-02T13:49:16.782Z</time></trkpt><trkpt lat="46.1298322" lon="13.4166924"><ele>327.0</ele><time>2026-05-02T13:49:18.783Z</time></trkpt><trkpt lat="46.1298344" lon="13.4165966"><ele>327.0</ele><time>2026-05-02T13:49:19.778Z</time></trkpt><trkpt lat="46.1298323" lon="13.4164905"><ele>327.0</ele><time>2026-05-02T13:49:20.786Z</time></trkpt><trkpt lat="46.1298358" lon="13.4163817"><ele>319.5</ele><time>2026-05-02T13:49:21.793Z</time></trkpt><trkpt lat="46.1298567" lon="13.4162731"><ele>312.0</ele><time>2026-05-02T13:49:22.795Z</time></trkpt><trkpt lat="46.1298674" lon="13.4161724"><ele>304.5</ele><time>2026-05-02T13:49:23.774Z</time></trkpt><trkpt lat="46.1298692" lon="13.4160629"><ele>297.0</ele><time>2026-05-02T13:49:24.781Z</time></trkpt><trkpt lat="46.1297949" lon="13.4157151"><ele>297.0</ele><time>2026-05-02T13:49:27.783Z</time></trkpt><trkpt lat="46.1297664" lon="13.4156044"><ele>297.0</ele><time>2026-05-02T13:49:28.784Z</time></trkpt><trkpt lat="46.1297242" lon="13.4154891"><ele>297.0</ele><time>2026-05-02T13:49:29.779Z</time></trkpt><trkpt lat="46.1296825" lon="13.4153844"><ele>297.0</ele><time>2026-05-02T13:49:30.781Z</time></trkpt><trkpt lat="46.1296376" lon="13.4153005"><ele>297.0</ele><time>2026-05-02T13:49:31.784Z</time></trkpt><trkpt lat="46.1295774" lon="13.415211"><ele>297.0</ele><time>2026-05-02T13:49:32.781Z</time></trkpt><trkpt lat="46.1295073" lon="13.4152212"><ele>302.5</ele><time>2026-05-02T13:49:33.792Z</time></trkpt><trkpt lat="46.129446" lon="13.4152505"><ele>308.0</ele><time>2026-05-02T13:49:34.785Z</time></trkpt><trkpt lat="46.129368" lon="13.4152302"><ele>313.5</ele><time>2026-05-02T13:49:35.787Z</time></trkpt><trkpt lat="46.129191" lon="13.4154034"><ele>319.0</ele><time>2026-05-02T13:49:36.781Z</time></trkpt><trkpt lat="46.1290788" lon="13.4154438"><ele>314.2</ele><time>2026-05-02T13:49:37.79Z</time></trkpt><trkpt lat="46.1289658" lon="13.4154945"><ele>309.4</ele><time>2026-05-02T13:49:38.785Z</time></trkpt><trkpt lat="46.1288531" lon="13.4155303"><ele>304.6</ele><time>2026-05-02T13:49:39.79Z</time></trkpt><trkpt lat="46.1287428" lon="13.4155327"><ele>299.8</ele><time>2026-05-02T13:49:40.779Z</time></trkpt><trkpt lat="46.128647" lon="13.4155581"><ele>295.0</ele><time>2026-05-02T13:49:41.778Z</time></trkpt><trkpt lat="46.1285656" lon="13.4156075"><ele>295.0</ele><time>2026-05-02T13:49:42.785Z</time></trkpt><trkpt lat="46.1284771" lon="13.4156938"><ele>295.0</ele><time>2026-05-02T13:49:43.787Z</time></trkpt><trkpt lat="46.1283886" lon="13.4157796"><ele>295.0</ele><time>2026-05-02T13:49:44.784Z</time></trkpt><trkpt lat="46.1283017" lon="13.4158549"><ele>295.0</ele><time>2026-05-02T13:49:45.781Z</time></trkpt><trkpt lat="46.1282081" lon="13.4159301"><ele>295.0</ele><time>2026-05-02T13:49:46.778Z</time></trkpt><trkpt lat="46.1280201" lon="13.416055"><ele>294.75</ele><time>2026-05-02T13:49:48.786Z</time></trkpt><trkpt lat="46.1279234" lon="13.4161227"><ele>294.5</ele><time>2026-05-02T13:49:49.773Z</time></trkpt><trkpt lat="46.1278192" lon="13.4161905"><ele>294.25</ele><time>2026-05-02T13:49:50.787Z</time></trkpt><trkpt lat="46.1277136" lon="13.4162601"><ele>294.0</ele><time>2026-05-02T13:49:51.781Z</time></trkpt><trkpt lat="46.1276095" lon="13.4163254"><ele>287.4</ele><time>2026-05-02T13:49:52.78Z</time></trkpt><trkpt lat="46.1275109" lon="13.4163874"><ele>280.79999999999995</ele><time>2026-05-02T13:49:53.783Z</time></trkpt><trkpt lat="46.1274144" lon="13.4164398"><ele>274.20000000000005</ele><time>2026-05-02T13:49:54.783Z</time></trkpt><trkpt lat="46.1273215" lon="13.4164789"><ele>267.6</ele><time>2026-05-02T13:49:55.776Z</time></trkpt><trkpt lat="46.1272369" lon="13.4164998"><ele>261.0</ele><time>2026-05-02T13:49:56.78Z</time></trkpt><trkpt lat="46.1271623" lon="13.4165102"><ele>261.6</ele><time>2026-05-02T13:49:57.78Z</time></trkpt><trkpt lat="46.1270915" lon="13.4164817"><ele>262.20000000000005</ele><time>2026-05-02T13:49:58.78Z</time></trkpt><trkpt lat="46.1270725" lon="13.4163458"><ele>262.79999999999995</ele><time>2026-05-02T13:49:59.779Z</time></trkpt><trkpt lat="46.1270271" lon="13.4161957"><ele>263.4</ele><time>2026-05-02T13:50:00.783Z</time></trkpt><trkpt lat="46.126942" lon="13.416064"><ele>264.0</ele><time>2026-05-02T13:50:01.782Z</time></trkpt><trkpt lat="46.1268369" lon="13.4159712"><ele>264.0</ele><time>2026-05-02T13:50:02.789Z</time></trkpt><trkpt lat="46.1267644" lon="13.4158588"><ele>264.0</ele><time>2026-05-02T13:50:03.777Z</time></trkpt><trkpt lat="46.1266991" lon="13.4157574"><ele>264.0</ele><time>2026-05-02T13:50:04.784Z</time></trkpt><trkpt lat="46.126617" lon="13.4156757"><ele>264.0</ele><time>2026-05-02T13:50:05.781Z</time></trkpt><trkpt lat="46.126552" lon="13.4156046"><ele>264.0</ele><time>2026-05-02T13:50:06.78Z</time></trkpt><trkpt lat="46.1264947" lon="13.4155363"><ele>259.5</ele><time>2026-05-02T13:50:07.781Z</time></trkpt><trkpt lat="46.1263704" lon="13.4154985"><ele>255.0</ele><time>2026-05-02T13:50:09.787Z</time></trkpt><trkpt lat="46.1262824" lon="13.4154953"><ele>250.5</ele><time>2026-05-02T13:50:10.784Z</time></trkpt><trkpt lat="46.1262012" lon="13.415516"><ele>246.0</ele><time>2026-05-02T13:50:11.784Z</time></trkpt><trkpt lat="46.1261319" lon="13.4155265"><ele>241.5</ele><time>2026-05-02T13:50:12.776Z</time></trkpt><trkpt lat="46.1260662" lon="13.415546"><ele>237.0</ele><time>2026-05-02T13:50:13.781Z</time></trkpt><trkpt lat="46.1259686" lon="13.4155426"><ele>239.5</ele><time>2026-05-02T13:50:15.778Z</time></trkpt><trkpt lat="46.1259927" lon="13.4154203"><ele>242.0</ele><time>2026-05-02T13:50:17.781Z</time></trkpt><trkpt lat="46.1260207" lon="13.4153374"><ele>244.5</ele><time>2026-05-02T13:50:18.783Z</time></trkpt><trkpt lat="46.1260568" lon="13.4152481"><ele>247.0</ele><time>2026-05-02T13:50:20.783Z</time></trkpt><trkpt lat="46.1260223" lon="13.4150912"><ele>249.5</ele><time>2026-05-02T13:50:22.783Z</time></trkpt><trkpt lat="46.1259887" lon="13.4150014"><ele>252.0</ele><time>2026-05-02T13:50:23.794Z</time></trkpt><trkpt lat="46.1259502" lon="13.4149007"><ele>252.0</ele><time>2026-05-02T13:50:24.781Z</time></trkpt><trkpt lat="46.1258985" lon="13.4148215"><ele>252.0</ele><time>2026-05-02T13:50:25.787Z</time></trkpt><trkpt lat="46.1257823" lon="13.4147976"><ele>252.0</ele><time>2026-05-02T13:50:26.783Z</time></trkpt><trkpt lat="46.1256238" lon="13.4147764"><ele>252.0</ele><time>2026-05-02T13:50:27.792Z</time></trkpt><trkpt lat="46.1254742" lon="13.4147335"><ele>246.25</ele><time>2026-05-02T13:50:28.779Z</time></trkpt><trkpt lat="46.1253733" lon="13.4147326"><ele>240.5</ele><time>2026-05-02T13:50:29.777Z</time></trkpt><trkpt lat="46.1251729" lon="13.4147982"><ele>234.75</ele><time>2026-05-02T13:50:31.785Z</time></trkpt><trkpt lat="46.1250611" lon="13.4148145"><ele>229.0</ele><time>2026-05-02T13:50:32.782Z</time></trkpt><trkpt lat="46.1249638" lon="13.4148413"><ele>224.6</ele><time>2026-05-02T13:50:33.776Z</time></trkpt><trkpt lat="46.1248773" lon="13.4148654"><ele>220.2</ele><time>2026-05-02T13:50:34.787Z</time></trkpt><trkpt lat="46.1248039" lon="13.4148686"><ele>215.79999999999998</ele><time>2026-05-02T13:50:35.778Z</time></trkpt><trkpt lat="46.1247171" lon="13.4148473"><ele>211.39999999999998</ele><time>2026-05-02T13:50:36.783Z</time></trkpt><trkpt lat="46.1246138" lon="13.4148281"><ele>207.0</ele><time>2026-05-02T13:50:37.785Z</time></trkpt><trkpt lat="46.1244971" lon="13.414793"><ele>207.0</ele><time>2026-05-02T13:50:38.786Z</time></trkpt><trkpt lat="46.12437" lon="13.4147328"><ele>207.0</ele><time>2026-05-02T13:50:39.779Z</time></trkpt><trkpt lat="46.1242549" lon="13.414656"><ele>207.0</ele><time>2026-05-02T13:50:40.777Z</time></trkpt><trkpt lat="46.124167" lon="13.4145593"><ele>207.0</ele><time>2026-05-02T13:50:41.787Z</time></trkpt><trkpt lat="46.1240924" lon="13.4144579"><ele>206.8</ele><time>2026-05-02T13:50:42.778Z</time></trkpt><trkpt lat="46.12403" lon="13.4143369"><ele>206.6</ele><time>2026-05-02T13:50:43.778Z</time></trkpt><trkpt lat="46.123975" lon="13.4142101"><ele>206.4</ele><time>2026-05-02T13:50:44.787Z</time></trkpt><trkpt lat="46.1239216" lon="13.4140947"><ele>206.20000000000002</ele><time>2026-05-02T13:50:45.784Z</time></trkpt><trkpt lat="46.123866" lon="13.4139945"><ele>206.0</ele><time>2026-05-02T13:50:46.792Z</time></trkpt><trkpt lat="46.1238097" lon="13.413909"><ele>207.20000000000002</ele><time>2026-05-02T13:50:47.778Z</time></trkpt><trkpt lat="46.123759" lon="13.4138185"><ele>208.4</ele><time>2026-05-02T13:50:48.772Z</time></trkpt><trkpt lat="46.1236932" lon="13.4137449"><ele>209.6</ele><time>2026-05-02T13:50:49.784Z</time></trkpt><trkpt lat="46.1236091" lon="13.413706"><ele>210.8</ele><time>2026-05-02T13:50:50.798Z</time></trkpt><trkpt lat="46.1234486" lon="13.413647"><ele>212.0</ele><time>2026-05-02T13:50:52.779Z</time></trkpt><trkpt lat="46.1233652" lon="13.4136426"><ele>212.0</ele><time>2026-05-02T13:50:53.785Z</time></trkpt><trkpt lat="46.1232732" lon="13.4136513"><ele>212.0</ele><time>2026-05-02T13:50:54.79Z</time></trkpt><trkpt lat="46.1231751" lon="13.4136748"><ele>212.0</ele><time>2026-05-02T13:50:55.777Z</time></trkpt><trkpt lat="46.1230686" lon="13.4136922"><ele>212.0</ele><time>2026-05-02T13:50:56.782Z</time></trkpt><trkpt lat="46.1229658" lon="13.4137298"><ele>212.0</ele><time>2026-05-02T13:50:57.782Z</time></trkpt><trkpt lat="46.122862" lon="13.4137666"><ele>209.33333333333334</ele><time>2026-05-02T13:50:58.776Z</time></trkpt><trkpt lat="46.1227676" lon="13.4137968"><ele>206.66666666666669</ele><time>2026-05-02T13:50:59.788Z</time></trkpt><trkpt lat="46.1226839" lon="13.4138246"><ele>204.0</ele><time>2026-05-02T13:51:00.777Z</time></trkpt><trkpt lat="46.1226104" lon="13.4138507"><ele>201.33333333333331</ele><time>2026-05-02T13:51:01.784Z</time></trkpt><trkpt lat="46.1225195" lon="13.4138138"><ele>198.66666666666666</ele><time>2026-05-02T13:51:03.784Z</time></trkpt><trkpt lat="46.1225913" lon="13.4137208"><ele>196.0</ele><time>2026-05-02T13:51:07.78Z</time></trkpt><trkpt lat="46.1226549" lon="13.4136723"><ele>195.5</ele><time>2026-05-02T13:51:08.781Z</time></trkpt><trkpt lat="46.1227152" lon="13.413628"><ele>195.0</ele><time>2026-05-02T13:51:09.791Z</time></trkpt><trkpt lat="46.1228086" lon="13.413519"><ele>194.5</ele><time>2026-05-02T13:51:11.78Z</time></trkpt><trkpt lat="46.1229741" lon="13.4133185"><ele>194.0</ele><time>2026-05-02T13:51:14.781Z</time></trkpt><trkpt lat="46.1230596" lon="13.4132548"><ele>194.0</ele><time>2026-05-02T13:51:15.783Z</time></trkpt><trkpt lat="46.1231503" lon="13.4131955"><ele>194.0</ele><time>2026-05-02T13:51:16.782Z</time></trkpt><trkpt lat="46.1232532" lon="13.4131267"><ele>194.0</ele><time>2026-05-02T13:51:17.786Z</time></trkpt><trkpt lat="46.1233452" lon="13.4130564"><ele>194.0</ele><time>2026-05-02T13:51:18.783Z</time></trkpt><trkpt lat="46.1234206" lon="13.4129992"><ele>194.0</ele><time>2026-05-02T13:51:19.781Z</time></trkpt><trkpt lat="46.1234833" lon="13.4129348"><ele>195.2</ele><time>2026-05-02T13:51:20.775Z</time></trkpt><trkpt lat="46.1235483" lon="13.4128751"><ele>196.39999999999998</ele><time>2026-05-02T13:51:21.782Z</time></trkpt><trkpt lat="46.1236121" lon="13.4127383"><ele>197.6</ele><time>2026-05-02T13:51:23.778Z</time></trkpt><trkpt lat="46.1235993" lon="13.4125763"><ele>198.8</ele><time>2026-05-02T13:51:25.78Z</time></trkpt><trkpt lat="46.1235675" lon="13.4124867"><ele>200.0</ele><time>2026-05-02T13:51:26.781Z</time></trkpt><trkpt lat="46.1235229" lon="13.4123958"><ele>200.0</ele><time>2026-05-02T13:51:27.784Z</time></trkpt><trkpt lat="46.1234772" lon="13.4123104"><ele>200.0</ele><time>2026-05-02T13:51:28.789Z</time></trkpt><trkpt lat="46.1234512" lon="13.4122006"><ele>200.0</ele><time>2026-05-02T13:51:30.79Z</time></trkpt><trkpt lat="46.1233895" lon="13.4121564"><ele>200.0</ele><time>2026-05-02T13:52:16.78Z</time></trkpt><trkpt lat="46.1232649" lon="13.411992"><ele>200.0</ele><time>2026-05-02T13:52:19.78Z</time></trkpt><trkpt lat="46.123207" lon="13.4118978"><ele>195.83333333333334</ele><time>2026-05-02T13:52:20.783Z</time></trkpt><trkpt lat="46.1231536" lon="13.4118226"><ele>191.66666666666669</ele><time>2026-05-02T13:52:21.782Z</time></trkpt><trkpt lat="46.1230811" lon="13.4117727"><ele>187.5</ele><time>2026-05-02T13:52:22.782Z</time></trkpt><trkpt lat="46.1229932" lon="13.4117566"><ele>183.33333333333334</ele><time>2026-05-02T13:52:23.795Z</time></trkpt><trkpt lat="46.1229044" lon="13.4117501"><ele>179.16666666666669</ele><time>2026-05-02T13:52:24.783Z</time></trkpt><trkpt lat="46.1228115" lon="13.4117431"><ele>175.0</ele><time>2026-05-02T13:52:25.795Z</time></trkpt><trkpt lat="46.1227161" lon="13.4117256"><ele>175.0</ele><time>2026-05-02T13:52:26.777Z</time></trkpt><trkpt lat="46.1226229" lon="13.411698"><ele>175.0</ele><time>2026-05-02T13:52:27.78Z</time></trkpt><trkpt lat="46.122531" lon="13.4116441"><ele>175.0</ele><time>2026-05-02T13:52:28.78Z</time></trkpt><trkpt lat="46.1224363" lon="13.4115796"><ele>175.0</ele><time>2026-05-02T13:52:29.785Z</time></trkpt><trkpt lat="46.1223375" lon="13.4115014"><ele>175.0</ele><time>2026-05-02T13:52:30.784Z</time></trkpt><trkpt lat="46.1222431" lon="13.4113977"><ele>171.5</ele><time>2026-05-02T13:52:31.781Z</time></trkpt><trkpt lat="46.1221461" lon="13.4112841"><ele>168.0</ele><time>2026-05-02T13:52:32.792Z</time></trkpt><trkpt lat="46.1220425" lon="13.411182"><ele>164.5</ele><time>2026-05-02T13:52:33.789Z</time></trkpt><trkpt lat="46.1219385" lon="13.411077"><ele>161.0</ele><time>2026-05-02T13:52:34.786Z</time></trkpt><trkpt lat="46.1218294" lon="13.4109675"><ele>161.0</ele><time>2026-05-02T13:52:35.786Z</time></trkpt><trkpt lat="46.1217253" lon="13.4108539"><ele>161.0</ele><time>2026-05-02T13:52:36.781Z</time></trkpt><trkpt lat="46.1216361" lon="13.4107385"><ele>161.0</ele><time>2026-05-02T13:52:37.779Z</time></trkpt><trkpt lat="46.1214373" lon="13.4105209"><ele>161.0</ele><time>2026-05-02T13:52:39.786Z</time></trkpt><trkpt lat="46.1213284" lon="13.4104252"><ele>161.0</ele><time>2026-05-02T13:52:40.778Z</time></trkpt><trkpt lat="46.1212099" lon="13.4103299"><ele>161.0</ele><time>2026-05-02T13:52:41.782Z</time></trkpt><trkpt lat="46.1210936" lon="13.4102425"><ele>161.0</ele><time>2026-05-02T13:52:42.777Z</time></trkpt><trkpt lat="46.1209904" lon="13.4101713"><ele>161.0</ele><time>2026-05-02T13:52:43.788Z</time></trkpt><trkpt lat="46.1208895" lon="13.4101026"><ele>161.0</ele><time>2026-05-02T13:52:44.778Z</time></trkpt><trkpt lat="46.1208003" lon="13.4100082"><ele>161.0</ele><time>2026-05-02T13:52:45.786Z</time></trkpt><trkpt lat="46.1207097" lon="13.4099366"><ele>161.0</ele><time>2026-05-02T13:52:46.788Z</time></trkpt><trkpt lat="46.1205607" lon="13.4097159"><ele>160.4</ele><time>2026-05-02T13:52:48.782Z</time></trkpt><trkpt lat="46.1205062" lon="13.4095999"><ele>159.8</ele><time>2026-05-02T13:52:49.774Z</time></trkpt><trkpt lat="46.1204719" lon="13.4094836"><ele>159.20000000000002</ele><time>2026-05-02T13:52:50.782Z</time></trkpt><trkpt lat="46.1204394" lon="13.4093691"><ele>158.60000000000002</ele><time>2026-05-02T13:52:51.781Z</time></trkpt><trkpt lat="46.1203928" lon="13.4092318"><ele>158.0</ele><time>2026-05-02T13:52:52.779Z</time></trkpt><trkpt lat="46.1203537" lon="13.4090872"><ele>158.0</ele><time>2026-05-02T13:52:53.781Z</time></trkpt><trkpt lat="46.1203277" lon="13.4089403"><ele>158.0</ele><time>2026-05-02T13:52:54.789Z</time></trkpt><trkpt lat="46.1202922" lon="13.4088125"><ele>158.0</ele><time>2026-05-02T13:52:55.784Z</time></trkpt><trkpt lat="46.1202511" lon="13.4087026"><ele>158.0</ele><time>2026-05-02T13:52:56.788Z</time></trkpt><trkpt lat="46.1201707" lon="13.4086166"><ele>158.0</ele><time>2026-05-02T13:52:57.783Z</time></trkpt><trkpt lat="46.1200854" lon="13.4085369"><ele>156.0</ele><time>2026-05-02T13:52:58.781Z</time></trkpt><trkpt lat="46.1199096" lon="13.4084436"><ele>154.0</ele><time>2026-05-02T13:53:00.786Z</time></trkpt><trkpt lat="46.1198179" lon="13.4084519"><ele>152.0</ele><time>2026-05-02T13:53:01.779Z</time></trkpt><trkpt lat="46.1197149" lon="13.4085202"><ele>150.0</ele><time>2026-05-02T13:53:02.778Z</time></trkpt><trkpt lat="46.1196189" lon="13.4086186"><ele>150.25</ele><time>2026-05-02T13:53:03.786Z</time></trkpt><trkpt lat="46.1195263" lon="13.4087214"><ele>150.5</ele><time>2026-05-02T13:53:04.785Z</time></trkpt><trkpt lat="46.1194354" lon="13.4088307"><ele>150.75</ele><time>2026-05-02T13:53:05.783Z</time></trkpt><trkpt lat="46.1193491" lon="13.4089299"><ele>151.0</ele><time>2026-05-02T13:53:06.783Z</time></trkpt><trkpt lat="46.1192683" lon="13.4090249"><ele>151.0</ele><time>2026-05-02T13:53:07.784Z</time></trkpt><trkpt lat="46.119197" lon="13.4091078"><ele>151.0</ele><time>2026-05-02T13:53:08.781Z</time></trkpt><trkpt lat="46.1191357" lon="13.4091884"><ele>151.0</ele><time>2026-05-02T13:53:09.779Z</time></trkpt><trkpt lat="46.119088" lon="13.4092562"><ele>151.0</ele><time>2026-05-02T13:53:10.786Z</time></trkpt><trkpt lat="46.1190674" lon="13.4093707"><ele>151.0</ele><time>2026-05-02T13:53:14.789Z</time></trkpt><trkpt lat="46.1191083" lon="13.4095045"><ele>151.0</ele><time>2026-05-02T13:53:16.783Z</time></trkpt><trkpt lat="46.1191504" lon="13.4096547"><ele>152.25</ele><time>2026-05-02T13:53:18.783Z</time></trkpt><trkpt lat="46.119184" lon="13.4099141"><ele>153.5</ele><time>2026-05-02T13:53:21.785Z</time></trkpt><trkpt lat="46.1191793" lon="13.4100269"><ele>154.75</ele><time>2026-05-02T13:53:22.784Z</time></trkpt><trkpt lat="46.1191684" lon="13.4101511"><ele>156.0</ele><time>2026-05-02T13:53:23.781Z</time></trkpt><trkpt lat="46.1191483" lon="13.4102991"><ele>156.0</ele><time>2026-05-02T13:53:24.783Z</time></trkpt><trkpt lat="46.1191276" lon="13.4104551"><ele>156.0</ele><time>2026-05-02T13:53:25.778Z</time></trkpt><trkpt lat="46.1191083" lon="13.4106234"><ele>156.0</ele><time>2026-05-02T13:53:26.785Z</time></trkpt><trkpt lat="46.1190949" lon="13.4108013"><ele>156.0</ele><time>2026-05-02T13:53:27.788Z</time></trkpt><trkpt lat="46.1190837" lon="13.4109821"><ele>154.5</ele><time>2026-05-02T13:53:28.778Z</time></trkpt><trkpt lat="46.1190805" lon="13.4111659"><ele>153.0</ele><time>2026-05-02T13:53:29.779Z</time></trkpt><trkpt lat="46.119096" lon="13.4113569"><ele>151.5</ele><time>2026-05-02T13:53:30.784Z</time></trkpt><trkpt lat="46.1191206" lon="13.4115514"><ele>150.0</ele><time>2026-05-02T13:53:31.779Z</time></trkpt><trkpt lat="46.1191503" lon="13.4117443"><ele>149.75</ele><time>2026-05-02T13:53:32.779Z</time></trkpt><trkpt lat="46.1191905" lon="13.4119453"><ele>149.5</ele><time>2026-05-02T13:53:33.774Z</time></trkpt><trkpt lat="46.119232" lon="13.4121471"><ele>149.25</ele><time>2026-05-02T13:53:34.775Z</time></trkpt><trkpt lat="46.1192712" lon="13.4123483"><ele>149.0</ele><time>2026-05-02T13:53:35.78Z</time></trkpt><trkpt lat="46.1193199" lon="13.41254"><ele>149.0</ele><time>2026-05-02T13:53:36.788Z</time></trkpt><trkpt lat="46.1193602" lon="13.4127415"><ele>149.0</ele><time>2026-05-02T13:53:37.784Z</time></trkpt><trkpt lat="46.1193924" lon="13.412939"><ele>149.0</ele><time>2026-05-02T13:53:38.783Z</time></trkpt><trkpt lat="46.1194034" lon="13.4131412"><ele>149.0</ele><time>2026-05-02T13:53:39.779Z</time></trkpt><trkpt lat="46.1194004" lon="13.4133518"><ele>148.0</ele><time>2026-05-02T13:53:40.789Z</time></trkpt><trkpt lat="46.1194168" lon="13.4137805"><ele>147.0</ele><time>2026-05-02T13:53:42.778Z</time></trkpt><trkpt lat="46.1194315" lon="13.4139707"><ele>146.0</ele><time>2026-05-02T13:53:43.782Z</time></trkpt><trkpt lat="46.1194561" lon="13.4141695"><ele>146.0</ele><time>2026-05-02T13:53:44.782Z</time></trkpt><trkpt lat="46.1194946" lon="13.4143625"><ele>146.0</ele><time>2026-05-02T13:53:45.781Z</time></trkpt><trkpt lat="46.119521" lon="13.4145468"><ele>146.0</ele><time>2026-05-02T13:53:46.788Z</time></trkpt><trkpt lat="46.1195498" lon="13.4147349"><ele>146.0</ele><time>2026-05-02T13:53:47.79Z</time></trkpt><trkpt lat="46.1195709" lon="13.414932"><ele>146.0</ele><time>2026-05-02T13:53:48.779Z</time></trkpt><trkpt lat="46.1195858" lon="13.4151371"><ele>146.0</ele><time>2026-05-02T13:53:49.78Z</time></trkpt><trkpt lat="46.1196151" lon="13.4153457"><ele>146.0</ele><time>2026-05-02T13:53:50.778Z</time></trkpt><trkpt lat="46.1196399" lon="13.4155501"><ele>146.0</ele><time>2026-05-02T13:53:51.784Z</time></trkpt><trkpt lat="46.1196596" lon="13.4157449"><ele>146.25</ele><time>2026-05-02T13:53:52.787Z</time></trkpt><trkpt lat="46.1196952" lon="13.4159303"><ele>146.5</ele><time>2026-05-02T13:53:53.78Z</time></trkpt><trkpt lat="46.1197298" lon="13.4161391"><ele>146.75</ele><time>2026-05-02T13:53:54.788Z</time></trkpt><trkpt lat="46.1197685" lon="13.416335"><ele>147.0</ele><time>2026-05-02T13:53:55.787Z</time></trkpt><trkpt lat="46.1198171" lon="13.4165219"><ele>147.5</ele><time>2026-05-02T13:53:56.78Z</time></trkpt><trkpt lat="46.1198735" lon="13.4167131"><ele>148.0</ele><time>2026-05-02T13:53:57.787Z</time></trkpt><trkpt lat="46.1199215" lon="13.4169141"><ele>148.5</ele><time>2026-05-02T13:53:58.784Z</time></trkpt><trkpt lat="46.1199793" lon="13.4171165"><ele>149.0</ele><time>2026-05-02T13:53:59.783Z</time></trkpt><trkpt lat="46.1200365" lon="13.4173091"><ele>149.0</ele><time>2026-05-02T13:54:00.78Z</time></trkpt><trkpt lat="46.1200815" lon="13.4174881"><ele>149.0</ele><time>2026-05-02T13:54:01.778Z</time></trkpt><trkpt lat="46.1201593" lon="13.4178166"><ele>149.0</ele><time>2026-05-02T13:54:03.786Z</time></trkpt><trkpt lat="46.1201991" lon="13.4179712"><ele>149.5</ele><time>2026-05-02T13:54:04.778Z</time></trkpt><trkpt lat="46.1202363" lon="13.4181269"><ele>150.0</ele><time>2026-05-02T13:54:05.778Z</time></trkpt><trkpt lat="46.1202695" lon="13.4182966"><ele>150.5</ele><time>2026-05-02T13:54:06.778Z</time></trkpt><trkpt lat="46.1203174" lon="13.4184831"><ele>151.0</ele><time>2026-05-02T13:54:07.786Z</time></trkpt><trkpt lat="46.1203578" lon="13.4186681"><ele>152.0</ele><time>2026-05-02T13:54:08.779Z</time></trkpt><trkpt lat="46.1203969" lon="13.4188302"><ele>153.0</ele><time>2026-05-02T13:54:09.784Z</time></trkpt><trkpt lat="46.1204337" lon="13.4189788"><ele>154.0</ele><time>2026-05-02T13:54:10.791Z</time></trkpt><trkpt lat="46.1204607" lon="13.4191373"><ele>155.0</ele><time>2026-05-02T13:54:11.779Z</time></trkpt><trkpt lat="46.1204895" lon="13.4192951"><ele>155.0</ele><time>2026-05-02T13:54:12.789Z</time></trkpt><trkpt lat="46.1205138" lon="13.4194534"><ele>155.0</ele><time>2026-05-02T13:54:13.786Z</time></trkpt><trkpt lat="46.1205253" lon="13.4196079"><ele>155.0</ele><time>2026-05-02T13:54:14.781Z</time></trkpt><trkpt lat="46.1205133" lon="13.4197442"><ele>155.0</ele><time>2026-05-02T13:54:15.781Z</time></trkpt><trkpt lat="46.1205048" lon="13.4198599"><ele>155.0</ele><time>2026-05-02T13:54:16.778Z</time></trkpt><trkpt lat="46.1204921" lon="13.4199696"><ele>155.0</ele><time>2026-05-02T13:54:17.783Z</time></trkpt><trkpt lat="46.1204793" lon="13.4201551"><ele>155.0</ele><time>2026-05-02T13:54:19.781Z</time></trkpt><trkpt lat="46.1204385" lon="13.4202597"><ele>155.0</ele><time>2026-05-02T13:54:20.787Z</time></trkpt><trkpt lat="46.1203785" lon="13.4203682"><ele>155.0</ele><time>2026-05-02T13:54:21.782Z</time></trkpt><trkpt lat="46.1203088" lon="13.4204902"><ele>155.0</ele><time>2026-05-02T13:54:22.778Z</time></trkpt><trkpt lat="46.120087" lon="13.420876"><ele>155.0</ele><time>2026-05-02T13:54:25.789Z</time></trkpt><trkpt lat="46.1200292" lon="13.4209901"><ele>155.0</ele><time>2026-05-02T13:54:26.79Z</time></trkpt><trkpt lat="46.1199795" lon="13.4210911"><ele>155.0</ele><time>2026-05-02T13:54:27.784Z</time></trkpt><trkpt lat="46.1199333" lon="13.4211863"><ele>155.0</ele><time>2026-05-02T13:54:28.779Z</time></trkpt><trkpt lat="46.1198993" lon="13.421264"><ele>155.0</ele><time>2026-05-02T13:54:29.784Z</time></trkpt><trkpt lat="46.1198537" lon="13.4213679"><ele>155.0</ele><time>2026-05-02T13:54:32.785Z</time></trkpt><trkpt lat="46.1198001" lon="13.421475"><ele>155.0</ele><time>2026-05-02T13:54:35.785Z</time></trkpt><trkpt lat="46.119838" lon="13.4215577"><ele>155.0</ele><time>2026-05-02T13:54:37.778Z</time></trkpt><trkpt lat="46.1198961" lon="13.4216152"><ele>155.0</ele><time>2026-05-02T13:54:38.777Z</time></trkpt><trkpt lat="46.1199555" lon="13.4216773"><ele>155.0</ele><time>2026-05-02T13:54:39.779Z</time></trkpt><trkpt lat="46.1200084" lon="13.4217425"><ele>155.0</ele><time>2026-05-02T13:54:40.781Z</time></trkpt><trkpt lat="46.1200556" lon="13.4218112"><ele>155.0</ele><time>2026-05-02T13:54:41.779Z</time></trkpt><trkpt lat="46.1200484" lon="13.4219056"><ele>155.0</ele><time>2026-05-02T13:54:43.788Z</time></trkpt><trkpt lat="46.119974" lon="13.4218299"><ele>154.4</ele><time>2026-05-02T13:54:46.774Z</time></trkpt><trkpt lat="46.1198371" lon="13.4216149"><ele>153.8</ele><time>2026-05-02T13:54:50.787Z</time></trkpt><trkpt lat="46.1197513" lon="13.4215595"><ele>153.2</ele><time>2026-05-02T13:54:52.781Z</time></trkpt><trkpt lat="46.1196857" lon="13.421587"><ele>152.6</ele><time>2026-05-02T13:54:54.795Z</time></trkpt><trkpt lat="46.1196149" lon="13.4216297"><ele>152.0</ele><time>2026-05-02T13:54:56.777Z</time></trkpt><trkpt lat="46.1195567" lon="13.4217367"><ele>152.0</ele><time>2026-05-02T13:54:58.776Z</time></trkpt><trkpt lat="46.1195138" lon="13.4218866"><ele>152.0</ele><time>2026-05-02T13:55:00.779Z</time></trkpt><trkpt lat="46.119496" lon="13.4220538"><ele>152.0</ele><time>2026-05-02T13:55:02.787Z</time></trkpt><trkpt lat="46.1195341" lon="13.4221283"><ele>152.0</ele><time>2026-05-02T13:55:04.775Z</time></trkpt><trkpt lat="46.1196008" lon="13.4221838"><ele>152.0</ele><time>2026-05-02T13:55:06.779Z</time></trkpt><trkpt lat="46.119664" lon="13.4222359"><ele>152.0</ele><time>2026-05-02T13:55:31.786Z</time></trkpt><trkpt lat="46.1198316" lon="13.4223546"><ele>151.79999999999998</ele><time>2026-05-02T13:55:35.785Z</time></trkpt><trkpt lat="46.1198846" lon="13.4224147"><ele>151.6</ele><time>2026-05-02T13:55:36.787Z</time></trkpt><trkpt lat="46.1199561" lon="13.4225874"><ele>151.39999999999998</ele><time>2026-05-02T13:55:38.778Z</time></trkpt><trkpt lat="46.1200037" lon="13.4226996"><ele>151.2</ele><time>2026-05-02T13:55:39.781Z</time></trkpt><trkpt lat="46.1200464" lon="13.4228166"><ele>151.0</ele><time>2026-05-02T13:55:40.778Z</time></trkpt><trkpt lat="46.1200846" lon="13.4229301"><ele>151.16666666666669</ele><time>2026-05-02T13:55:41.791Z</time></trkpt><trkpt lat="46.1201024" lon="13.4230349"><ele>151.33333333333334</ele><time>2026-05-02T13:55:42.78Z</time></trkpt><trkpt lat="46.1201069" lon="13.4231372"><ele>151.5</ele><time>2026-05-02T13:55:43.778Z</time></trkpt><trkpt lat="46.1201024" lon="13.4232354"><ele>151.66666666666666</ele><time>2026-05-02T13:55:44.773Z</time></trkpt><trkpt lat="46.1200176" lon="13.4233742"><ele>151.83333333333331</ele><time>2026-05-02T13:55:46.785Z</time></trkpt><trkpt lat="46.1199417" lon="13.4234337"><ele>152.0</ele><time>2026-05-02T13:55:47.78Z</time></trkpt><trkpt lat="46.119854" lon="13.4234942"><ele>152.0</ele><time>2026-05-02T13:55:48.787Z</time></trkpt><trkpt lat="46.1197744" lon="13.4235596"><ele>152.0</ele><time>2026-05-02T13:55:49.777Z</time></trkpt><trkpt lat="46.1197111" lon="13.4236343"><ele>152.0</ele><time>2026-05-02T13:55:50.778Z</time></trkpt><trkpt lat="46.1196676" lon="13.423721"><ele>152.0</ele><time>2026-05-02T13:55:51.789Z</time></trkpt><trkpt lat="46.1196482" lon="13.4238237"><ele>152.0</ele><time>2026-05-02T13:55:52.777Z</time></trkpt><trkpt lat="46.119638" lon="13.4240487"><ele>152.5</ele><time>2026-05-02T13:55:54.779Z</time></trkpt><trkpt lat="46.1196462" lon="13.4241921"><ele>153.0</ele><time>2026-05-02T13:55:55.789Z</time></trkpt><trkpt lat="46.1196542" lon="13.4243618"><ele>153.5</ele><time>2026-05-02T13:55:56.776Z</time></trkpt><trkpt lat="46.1196615" lon="13.4245499"><ele>154.0</ele><time>2026-05-02T13:55:57.777Z</time></trkpt><trkpt lat="46.1196527" lon="13.4247488"><ele>154.33333333333334</ele><time>2026-05-02T13:55:58.785Z</time></trkpt><trkpt lat="46.11962" lon="13.4249782"><ele>154.66666666666666</ele><time>2026-05-02T13:55:59.777Z</time></trkpt><trkpt lat="46.1195758" lon="13.4252181"><ele>155.0</ele><time>2026-05-02T13:56:00.791Z</time></trkpt><trkpt lat="46.1195393" lon="13.4254196"><ele>155.2</ele><time>2026-05-02T13:56:01.785Z</time></trkpt><trkpt lat="46.1195067" lon="13.4255472"><ele>155.4</ele><time>2026-05-02T13:56:02.779Z</time></trkpt><trkpt lat="46.1194741" lon="13.4256488"><ele>155.6</ele><time>2026-05-02T13:56:03.783Z</time></trkpt><trkpt lat="46.1193287" lon="13.4257738"><ele>155.8</ele><time>2026-05-02T13:56:05.777Z</time></trkpt><trkpt lat="46.1192714" lon="13.4258121"><ele>156.0</ele><time>2026-05-02T13:56:06.796Z</time></trkpt><trkpt lat="46.119213" lon="13.4259059"><ele>156.0</ele><time>2026-05-02T13:56:08.779Z</time></trkpt><trkpt lat="46.119263" lon="13.4260553"><ele>156.0</ele><time>2026-05-02T13:56:10.79Z</time></trkpt><trkpt lat="46.1193101" lon="13.4261675"><ele>156.0</ele><time>2026-05-02T13:56:11.773Z</time></trkpt><trkpt lat="46.1193691" lon="13.426305"><ele>156.0</ele><time>2026-05-02T13:56:12.783Z</time></trkpt><trkpt lat="46.1194505" lon="13.4264607"><ele>156.0</ele><time>2026-05-02T13:56:13.779Z</time></trkpt><trkpt lat="46.119657" lon="13.4267905"><ele>156.0</ele><time>2026-05-02T13:56:15.777Z</time></trkpt><trkpt lat="46.1197868" lon="13.4269768"><ele>156.66666666666666</ele><time>2026-05-02T13:56:16.776Z</time></trkpt><trkpt lat="46.1199266" lon="13.4271673"><ele>157.33333333333331</ele><time>2026-05-02T13:56:17.784Z</time></trkpt><trkpt lat="46.1200561" lon="13.4273522"><ele>158.0</ele><time>2026-05-02T13:56:18.774Z</time></trkpt><trkpt lat="46.1201678" lon="13.4275118"><ele>158.0</ele><time>2026-05-02T13:56:19.787Z</time></trkpt><trkpt lat="46.1202706" lon="13.4276749"><ele>158.0</ele><time>2026-05-02T13:56:20.777Z</time></trkpt><trkpt lat="46.1203629" lon="13.4278291"><ele>158.0</ele><time>2026-05-02T13:56:21.784Z</time></trkpt><trkpt lat="46.1204476" lon="13.4279799"><ele>158.0</ele><time>2026-05-02T13:56:22.785Z</time></trkpt><trkpt lat="46.1205223" lon="13.4281154"><ele>158.0</ele><time>2026-05-02T13:56:23.778Z</time></trkpt><trkpt lat="46.1205866" lon="13.4282109"><ele>158.0</ele><time>2026-05-02T13:56:24.778Z</time></trkpt><trkpt lat="46.1206504" lon="13.4282621"><ele>158.0</ele><time>2026-05-02T13:56:25.775Z</time></trkpt><trkpt lat="46.1207314" lon="13.4282648"><ele>158.0</ele><time>2026-05-02T13:56:27.785Z</time></trkpt><trkpt lat="46.1208218" lon="13.4282206"><ele>158.0</ele><time>2026-05-02T13:56:31.786Z</time></trkpt><trkpt lat="46.1209197" lon="13.4281717"><ele>158.0</ele><time>2026-05-02T13:56:33.777Z</time></trkpt><trkpt lat="46.1209814" lon="13.4281529"><ele>158.75</ele><time>2026-05-02T13:56:34.779Z</time></trkpt><trkpt lat="46.1210502" lon="13.4281505"><ele>159.5</ele><time>2026-05-02T13:56:35.795Z</time></trkpt><trkpt lat="46.1212396" lon="13.4281534"><ele>160.25</ele><time>2026-05-02T13:56:37.779Z</time></trkpt><trkpt lat="46.121351" lon="13.4281546"><ele>161.0</ele><time>2026-05-02T13:56:38.791Z</time></trkpt><trkpt lat="46.12147" lon="13.4281621"><ele>161.0</ele><time>2026-05-02T13:56:39.785Z</time></trkpt><trkpt lat="46.1215918" lon="13.4281673"><ele>161.0</ele><time>2026-05-02T13:56:40.779Z</time></trkpt><trkpt lat="46.1217088" lon="13.4281631"><ele>161.0</ele><time>2026-05-02T13:56:41.781Z</time></trkpt><trkpt lat="46.121828" lon="13.4281607"><ele>161.0</ele><time>2026-05-02T13:56:42.783Z</time></trkpt><trkpt lat="46.1219424" lon="13.4281661"><ele>161.0</ele><time>2026-05-02T13:56:43.789Z</time></trkpt><trkpt lat="46.1220499" lon="13.428173"><ele>161.0</ele><time>2026-05-02T13:56:44.777Z</time></trkpt><trkpt lat="46.1221578" lon="13.4281931"><ele>161.0</ele><time>2026-05-02T13:56:45.78Z</time></trkpt><trkpt lat="46.1222577" lon="13.4282318"><ele>161.0</ele><time>2026-05-02T13:56:46.78Z</time></trkpt><trkpt lat="46.122346" lon="13.4282678"><ele>161.0</ele><time>2026-05-02T13:56:47.775Z</time></trkpt><trkpt lat="46.1224166" lon="13.4283047"><ele>161.0</ele><time>2026-05-02T13:56:48.792Z</time></trkpt><trkpt lat="46.1225153" lon="13.4283528"><ele>161.0</ele><time>2026-05-02T13:56:50.782Z</time></trkpt><trkpt lat="46.1225738" lon="13.4283865"><ele>161.0</ele><time>2026-05-02T13:56:51.773Z</time></trkpt><trkpt lat="46.1226334" lon="13.4284353"><ele>161.0</ele><time>2026-05-02T13:56:52.792Z</time></trkpt><trkpt lat="46.1226842" lon="13.4284929"><ele>161.0</ele><time>2026-05-02T13:56:53.782Z</time></trkpt><trkpt lat="46.1227602" lon="13.4286263"><ele>161.0</ele><time>2026-05-02T13:56:55.78Z</time></trkpt><trkpt lat="46.1227999" lon="13.4287022"><ele>161.0</ele><time>2026-05-02T13:56:56.782Z</time></trkpt><trkpt lat="46.1228509" lon="13.4287915"><ele>161.0</ele><time>2026-05-02T13:56:57.778Z</time></trkpt><trkpt lat="46.1229834" lon="13.4290044"><ele>161.0</ele><time>2026-05-02T13:56:59.789Z</time></trkpt><trkpt lat="46.123065" lon="13.4291316"><ele>161.0</ele><time>2026-05-02T13:57:00.777Z</time></trkpt><trkpt lat="46.1231561" lon="13.4292718"><ele>162.66666666666666</ele><time>2026-05-02T13:57:01.779Z</time></trkpt><trkpt lat="46.1232757" lon="13.429428"><ele>164.33333333333334</ele><time>2026-05-02T13:57:02.785Z</time></trkpt><trkpt lat="46.1234029" lon="13.429609"><ele>166.0</ele><time>2026-05-02T13:57:03.779Z</time></trkpt><trkpt lat="46.1235164" lon="13.429793"><ele>166.0</ele><time>2026-05-02T13:57:04.78Z</time></trkpt><trkpt lat="46.1236203" lon="13.4299375"><ele>166.0</ele><time>2026-05-02T13:57:05.773Z</time></trkpt><trkpt lat="46.1237488" lon="13.4300378"><ele>166.0</ele><time>2026-05-02T13:57:06.779Z</time></trkpt><trkpt lat="46.1238922" lon="13.4300973"><ele>166.0</ele><time>2026-05-02T13:57:07.782Z</time></trkpt><trkpt lat="46.12405" lon="13.4301096"><ele>166.25</ele><time>2026-05-02T13:57:08.788Z</time></trkpt><trkpt lat="46.1241934" lon="13.4300839"><ele>166.5</ele><time>2026-05-02T13:57:09.776Z</time></trkpt><trkpt lat="46.1243004" lon="13.4300182"><ele>166.75</ele><time>2026-05-02T13:57:10.779Z</time></trkpt><trkpt lat="46.1243827" lon="13.4299223"><ele>167.0</ele><time>2026-05-02T13:57:11.781Z</time></trkpt><trkpt lat="46.1244594" lon="13.4298048"><ele>167.0</ele><time>2026-05-02T13:57:12.779Z</time></trkpt><trkpt lat="46.1245215" lon="13.4296777"><ele>167.0</ele><time>2026-05-02T13:57:13.782Z</time></trkpt><trkpt lat="46.1245972" lon="13.4295713"><ele>167.0</ele><time>2026-05-02T13:57:14.783Z</time></trkpt><trkpt lat="46.1246582" lon="13.4294791"><ele>167.0</ele><time>2026-05-02T13:57:15.791Z</time></trkpt><trkpt lat="46.1247287" lon="13.4294051"><ele>167.0</ele><time>2026-05-02T13:57:16.787Z</time></trkpt><trkpt lat="46.1247949" lon="13.4293577"><ele>167.66666666666666</ele><time>2026-05-02T13:57:17.775Z</time></trkpt><trkpt lat="46.124901" lon="13.4293913"><ele>168.33333333333334</ele><time>2026-05-02T13:57:19.784Z</time></trkpt><trkpt lat="46.1250585" lon="13.4296213"><ele>169.0</ele><time>2026-05-02T13:57:21.786Z</time></trkpt><trkpt lat="46.125147" lon="13.4297424"><ele>169.2</ele><time>2026-05-02T13:57:22.787Z</time></trkpt><trkpt lat="46.1252312" lon="13.4298542"><ele>169.39999999999998</ele><time>2026-05-02T13:57:23.779Z</time></trkpt><trkpt lat="46.1253053" lon="13.4299383"><ele>169.6</ele><time>2026-05-02T13:57:24.777Z</time></trkpt><trkpt lat="46.1253651" lon="13.4300173"><ele>169.8</ele><time>2026-05-02T13:57:25.786Z</time></trkpt><trkpt lat="46.1254166" lon="13.4300947"><ele>170.0</ele><time>2026-05-02T13:57:26.777Z</time></trkpt><trkpt lat="46.1254829" lon="13.4302077"><ele>170.0</ele><time>2026-05-02T13:57:28.776Z</time></trkpt><trkpt lat="46.1255555" lon="13.4302017"><ele>170.0</ele><time>2026-05-02T13:57:31.775Z</time></trkpt><trkpt lat="46.1256027" lon="13.4300925"><ele>170.0</ele><time>2026-05-02T13:57:33.781Z</time></trkpt><trkpt lat="46.1256428" lon="13.4299641"><ele>170.0</ele><time>2026-05-02T13:57:35.775Z</time></trkpt><trkpt lat="46.125685" lon="13.4298653"><ele>170.0</ele><time>2026-05-02T13:57:37.781Z</time></trkpt><trkpt lat="46.1257814" lon="13.4297168"><ele>170.25</ele><time>2026-05-02T13:57:39.782Z</time></trkpt><trkpt lat="46.1259803" lon="13.4294801"><ele>170.5</ele><time>2026-05-02T13:57:42.774Z</time></trkpt><trkpt lat="46.1260496" lon="13.4294217"><ele>170.75</ele><time>2026-05-02T13:57:43.773Z</time></trkpt><trkpt lat="46.1261136" lon="13.4293569"><ele>171.0</ele><time>2026-05-02T13:57:44.776Z</time></trkpt><trkpt lat="46.1261769" lon="13.4292961"><ele>171.0</ele><time>2026-05-02T13:57:45.784Z</time></trkpt><trkpt lat="46.1262928" lon="13.4292946"><ele>171.0</ele><time>2026-05-02T13:57:47.774Z</time></trkpt><trkpt lat="46.1263469" lon="13.4293533"><ele>171.0</ele><time>2026-05-02T13:57:48.787Z</time></trkpt><trkpt lat="46.1264042" lon="13.4294443"><ele>171.0</ele><time>2026-05-02T13:57:49.779Z</time></trkpt><trkpt lat="46.1264695" lon="13.4295512"><ele>171.0</ele><time>2026-05-02T13:57:50.784Z</time></trkpt><trkpt lat="46.1265465" lon="13.4296575"><ele>171.5</ele><time>2026-05-02T13:57:51.784Z</time></trkpt><trkpt lat="46.1266361" lon="13.4297665"><ele>172.0</ele><time>2026-05-02T13:57:52.777Z</time></trkpt><trkpt lat="46.1267305" lon="13.4298685"><ele>172.5</ele><time>2026-05-02T13:57:53.774Z</time></trkpt><trkpt lat="46.1268356" lon="13.4299635"><ele>173.0</ele><time>2026-05-02T13:57:54.78Z</time></trkpt><trkpt lat="46.1269464" lon="13.430054"><ele>173.0</ele><time>2026-05-02T13:57:55.793Z</time></trkpt><trkpt lat="46.1270602" lon="13.4301405"><ele>173.0</ele><time>2026-05-02T13:57:56.787Z</time></trkpt><trkpt lat="46.1271726" lon="13.4302266"><ele>173.0</ele><time>2026-05-02T13:57:57.787Z</time></trkpt><trkpt lat="46.1272836" lon="13.4303041"><ele>173.0</ele><time>2026-05-02T13:57:58.782Z</time></trkpt><trkpt lat="46.1273961" lon="13.4303779"><ele>173.66666666666666</ele><time>2026-05-02T13:57:59.777Z</time></trkpt><trkpt lat="46.1275032" lon="13.4304743"><ele>174.33333333333334</ele><time>2026-05-02T13:58:00.777Z</time></trkpt><trkpt lat="46.1277195" lon="13.4306888"><ele>175.0</ele><time>2026-05-02T13:58:02.788Z</time></trkpt><trkpt lat="46.1278223" lon="13.4308163"><ele>175.25</ele><time>2026-05-02T13:58:03.782Z</time></trkpt><trkpt lat="46.127926" lon="13.4309534"><ele>175.5</ele><time>2026-05-02T13:58:04.783Z</time></trkpt><trkpt lat="46.128029" lon="13.4310951"><ele>175.75</ele><time>2026-05-02T13:58:05.775Z</time></trkpt><trkpt lat="46.1281351" lon="13.4312266"><ele>176.0</ele><time>2026-05-02T13:58:06.78Z</time></trkpt><trkpt lat="46.1282485" lon="13.4313633"><ele>176.25</ele><time>2026-05-02T13:58:07.785Z</time></trkpt><trkpt lat="46.1283594" lon="13.431513"><ele>176.5</ele><time>2026-05-02T13:58:08.787Z</time></trkpt><trkpt lat="46.1284552" lon="13.4316529"><ele>176.75</ele><time>2026-05-02T13:58:09.785Z</time></trkpt><trkpt lat="46.1285495" lon="13.4317825"><ele>177.0</ele><time>2026-05-02T13:58:10.785Z</time></trkpt><trkpt lat="46.1286562" lon="13.4319202"><ele>177.0</ele><time>2026-05-02T13:58:11.779Z</time></trkpt><trkpt lat="46.1287723" lon="13.4320557"><ele>177.0</ele><time>2026-05-02T13:58:12.779Z</time></trkpt><trkpt lat="46.1289046" lon="13.4321575"><ele>177.0</ele><time>2026-05-02T13:58:13.792Z</time></trkpt><trkpt lat="46.1290404" lon="13.4322376"><ele>177.0</ele><time>2026-05-02T13:58:14.776Z</time></trkpt><trkpt lat="46.1291789" lon="13.4323138"><ele>178.5</ele><time>2026-05-02T13:58:15.785Z</time></trkpt><trkpt lat="46.1293271" lon="13.4323667"><ele>180.0</ele><time>2026-05-02T13:58:16.773Z</time></trkpt><trkpt lat="46.1294664" lon="13.4324205"><ele>181.5</ele><time>2026-05-02T13:58:17.783Z</time></trkpt><trkpt lat="46.1295857" lon="13.432456"><ele>183.0</ele><time>2026-05-02T13:58:18.782Z</time></trkpt><trkpt lat="46.1296935" lon="13.4325147"><ele>183.0</ele><time>2026-05-02T13:58:19.78Z</time></trkpt><trkpt lat="46.1298044" lon="13.4325774"><ele>183.0</ele><time>2026-05-02T13:58:20.784Z</time></trkpt><trkpt lat="46.1299155" lon="13.4326401"><ele>183.0</ele><time>2026-05-02T13:58:21.778Z</time></trkpt><trkpt lat="46.1301342" lon="13.4327552"><ele>183.0</ele><time>2026-05-02T13:58:23.778Z</time></trkpt><trkpt lat="46.130251" lon="13.4327856"><ele>183.0</ele><time>2026-05-02T13:58:24.78Z</time></trkpt><trkpt lat="46.1303644" lon="13.4328339"><ele>183.0</ele><time>2026-05-02T13:58:25.777Z</time></trkpt><trkpt lat="46.1304783" lon="13.4328822"><ele>183.0</ele><time>2026-05-02T13:58:26.783Z</time></trkpt><trkpt lat="46.1305858" lon="13.4329349"><ele>183.25</ele><time>2026-05-02T13:58:27.774Z</time></trkpt><trkpt lat="46.1306889" lon="13.4329881"><ele>183.5</ele><time>2026-05-02T13:58:28.786Z</time></trkpt><trkpt lat="46.1307989" lon="13.4330484"><ele>183.75</ele><time>2026-05-02T13:58:29.78Z</time></trkpt><trkpt lat="46.1309086" lon="13.4331147"><ele>184.0</ele><time>2026-05-02T13:58:30.781Z</time></trkpt><trkpt lat="46.1310149" lon="13.4331896"><ele>185.0</ele><time>2026-05-02T13:58:31.781Z</time></trkpt><trkpt lat="46.1311069" lon="13.4332632"><ele>186.0</ele><time>2026-05-02T13:58:32.79Z</time></trkpt><trkpt lat="46.1311921" lon="13.4333601"><ele>187.0</ele><time>2026-05-02T13:58:33.784Z</time></trkpt><trkpt lat="46.1312831" lon="13.4334602"><ele>188.0</ele><time>2026-05-02T13:58:34.778Z</time></trkpt><trkpt lat="46.1313773" lon="13.4335515"><ele>189.0</ele><time>2026-05-02T13:58:35.778Z</time></trkpt><trkpt lat="46.1314728" lon="13.4336431"><ele>189.0</ele><time>2026-05-02T13:58:36.777Z</time></trkpt><trkpt lat="46.1315845" lon="13.4337427"><ele>189.0</ele><time>2026-05-02T13:58:37.789Z</time></trkpt><trkpt lat="46.1316916" lon="13.4338351"><ele>189.0</ele><time>2026-05-02T13:58:38.788Z</time></trkpt><trkpt lat="46.1317998" lon="13.4339284"><ele>189.0</ele><time>2026-05-02T13:58:39.783Z</time></trkpt><trkpt lat="46.131898" lon="13.4340172"><ele>189.2</ele><time>2026-05-02T13:58:40.778Z</time></trkpt><trkpt lat="46.1319897" lon="13.4340859"><ele>189.39999999999998</ele><time>2026-05-02T13:58:41.787Z</time></trkpt><trkpt lat="46.132069" lon="13.4341489"><ele>189.6</ele><time>2026-05-02T13:58:42.78Z</time></trkpt><trkpt lat="46.1321377" lon="13.4342045"><ele>189.8</ele><time>2026-05-02T13:58:43.781Z</time></trkpt><trkpt lat="46.1322079" lon="13.4342752"><ele>190.0</ele><time>2026-05-02T13:58:44.775Z</time></trkpt><trkpt lat="46.1323308" lon="13.4344989"><ele>190.0</ele><time>2026-05-02T13:58:46.792Z</time></trkpt><trkpt lat="46.1323861" lon="13.4346368"><ele>190.0</ele><time>2026-05-02T13:58:47.783Z</time></trkpt><trkpt lat="46.1324364" lon="13.4347732"><ele>190.0</ele><time>2026-05-02T13:58:48.785Z</time></trkpt><trkpt lat="46.1324811" lon="13.4349016"><ele>190.0</ele><time>2026-05-02T13:58:49.782Z</time></trkpt><trkpt lat="46.1325188" lon="13.4350347"><ele>190.0</ele><time>2026-05-02T13:58:50.776Z</time></trkpt><trkpt lat="46.1325575" lon="13.4351618"><ele>190.16666666666669</ele><time>2026-05-02T13:58:51.789Z</time></trkpt><trkpt lat="46.1325958" lon="13.4352739"><ele>190.33333333333334</ele><time>2026-05-02T13:58:52.784Z</time></trkpt><trkpt lat="46.132636" lon="13.4353708"><ele>190.5</ele><time>2026-05-02T13:58:53.781Z</time></trkpt><trkpt lat="46.1326815" lon="13.4354488"><ele>190.66666666666666</ele><time>2026-05-02T13:58:54.781Z</time></trkpt><trkpt lat="46.1327317" lon="13.4355199"><ele>190.83333333333331</ele><time>2026-05-02T13:58:55.778Z</time></trkpt><trkpt lat="46.1328085" lon="13.4356217"><ele>191.0</ele><time>2026-05-02T13:58:57.782Z</time></trkpt><trkpt lat="46.1328348" lon="13.4357262"><ele>191.0</ele><time>2026-05-02T13:59:00.781Z</time></trkpt><trkpt lat="46.132769" lon="13.4358242"><ele>191.0</ele><time>2026-05-02T13:59:02.78Z</time></trkpt><trkpt lat="46.1326935" lon="13.4359488"><ele>191.0</ele><time>2026-05-02T13:59:04.775Z</time></trkpt><trkpt lat="46.1326538" lon="13.4360285"><ele>191.0</ele><time>2026-05-02T13:59:05.778Z</time></trkpt><trkpt lat="46.1325278" lon="13.4362724"><ele>191.33333333333331</ele><time>2026-05-02T13:59:08.787Z</time></trkpt><trkpt lat="46.1324813" lon="13.4363555"><ele>191.66666666666666</ele><time>2026-05-02T13:59:09.783Z</time></trkpt><trkpt lat="46.1324286" lon="13.4364441"><ele>192.0</ele><time>2026-05-02T13:59:10.788Z</time></trkpt><trkpt lat="46.1323728" lon="13.4365384"><ele>192.33333333333331</ele><time>2026-05-02T13:59:11.778Z</time></trkpt><trkpt lat="46.1323223" lon="13.4366335"><ele>192.66666666666666</ele><time>2026-05-02T13:59:12.788Z</time></trkpt><trkpt lat="46.1322682" lon="13.4367247"><ele>193.0</ele><time>2026-05-02T13:59:13.78Z</time></trkpt><trkpt lat="46.1322148" lon="13.4367966"><ele>195.2</ele><time>2026-05-02T13:59:14.777Z</time></trkpt><trkpt lat="46.1321148" lon="13.4368928"><ele>197.4</ele><time>2026-05-02T13:59:16.783Z</time></trkpt><trkpt lat="46.1319849" lon="13.4368957"><ele>199.6</ele><time>2026-05-02T13:59:18.789Z</time></trkpt><trkpt lat="46.1319004" lon="13.436852"><ele>201.79999999999998</ele><time>2026-05-02T13:59:19.782Z</time></trkpt><trkpt lat="46.1318134" lon="13.436827"><ele>204.0</ele><time>2026-05-02T13:59:20.779Z</time></trkpt><trkpt lat="46.1317265" lon="13.4368065"><ele>204.0</ele><time>2026-05-02T13:59:21.785Z</time></trkpt><trkpt lat="46.1316454" lon="13.4368092"><ele>204.0</ele><time>2026-05-02T13:59:22.791Z</time></trkpt><trkpt lat="46.1315578" lon="13.4367974"><ele>204.0</ele><time>2026-05-02T13:59:23.78Z</time></trkpt><trkpt lat="46.1314861" lon="13.4368156"><ele>204.0</ele><time>2026-05-02T13:59:24.784Z</time></trkpt><trkpt lat="46.1314153" lon="13.4368458"><ele>204.0</ele><time>2026-05-02T13:59:25.78Z</time></trkpt><trkpt lat="46.1313417" lon="13.4368705"><ele>204.0</ele><time>2026-05-02T13:59:26.79Z</time></trkpt><trkpt lat="46.1312103" lon="13.436902"><ele>204.6</ele><time>2026-05-02T13:59:28.775Z</time></trkpt><trkpt lat="46.1311036" lon="13.436899"><ele>205.2</ele><time>2026-05-02T13:59:30.779Z</time></trkpt><trkpt lat="46.1310332" lon="13.4369212"><ele>205.79999999999998</ele><time>2026-05-02T13:59:32.778Z</time></trkpt><trkpt lat="46.1311" lon="13.4370047"><ele>206.39999999999998</ele><time>2026-05-02T13:59:37.78Z</time></trkpt><trkpt lat="46.131189" lon="13.4370393"><ele>207.0</ele><time>2026-05-02T13:59:38.787Z</time></trkpt><trkpt lat="46.1312851" lon="13.4370819"><ele>207.0</ele><time>2026-05-02T13:59:39.783Z</time></trkpt><trkpt lat="46.1313901" lon="13.437122"><ele>207.0</ele><time>2026-05-02T13:59:40.781Z</time></trkpt><trkpt lat="46.1314907" lon="13.4371635"><ele>207.0</ele><time>2026-05-02T13:59:41.78Z</time></trkpt><trkpt lat="46.131587" lon="13.4372174"><ele>207.0</ele><time>2026-05-02T13:59:42.777Z</time></trkpt><trkpt lat="46.1316716" lon="13.4372918"><ele>207.0</ele><time>2026-05-02T13:59:43.775Z</time></trkpt><trkpt lat="46.1317418" lon="13.4373753"><ele>211.0</ele><time>2026-05-02T13:59:44.782Z</time></trkpt><trkpt lat="46.1318117" lon="13.437468"><ele>215.0</ele><time>2026-05-02T13:59:45.779Z</time></trkpt><trkpt lat="46.1318665" lon="13.4375695"><ele>219.0</ele><time>2026-05-02T13:59:46.778Z</time></trkpt><trkpt lat="46.1319283" lon="13.4376747"><ele>223.0</ele><time>2026-05-02T13:59:47.776Z</time></trkpt><trkpt lat="46.1320705" lon="13.437962"><ele>227.2</ele><time>2026-05-02T13:59:50.776Z</time></trkpt><trkpt lat="46.1321133" lon="13.4380721"><ele>231.4</ele><time>2026-05-02T13:59:51.784Z</time></trkpt><trkpt lat="46.1321523" lon="13.4381817"><ele>235.59999999999997</ele><time>2026-05-02T13:59:52.773Z</time></trkpt><trkpt lat="46.1321899" lon="13.4382973"><ele>239.79999999999998</ele><time>2026-05-02T13:59:53.785Z</time></trkpt><trkpt lat="46.1322417" lon="13.4384198"><ele>244.0</ele><time>2026-05-02T13:59:54.774Z</time></trkpt><trkpt lat="46.1323007" lon="13.4385414"><ele>244.0</ele><time>2026-05-02T13:59:55.791Z</time></trkpt><trkpt lat="46.132358" lon="13.4386568"><ele>243.99999999999997</ele><time>2026-05-02T13:59:56.775Z</time></trkpt><trkpt lat="46.1324254" lon="13.4387668"><ele>243.99999999999997</ele><time>2026-05-02T13:59:57.778Z</time></trkpt><trkpt lat="46.1324881" lon="13.438882"><ele>244.0</ele><time>2026-05-02T13:59:58.772Z</time></trkpt><trkpt lat="46.1325514" lon="13.4389934"><ele>244.0</ele><time>2026-05-02T13:59:59.783Z</time></trkpt><trkpt lat="46.132617" lon="13.4390909"><ele>246.39999999999998</ele><time>2026-05-02T14:00:00.783Z</time></trkpt><trkpt lat="46.1326889" lon="13.4391891"><ele>248.79999999999998</ele><time>2026-05-02T14:00:01.776Z</time></trkpt><trkpt lat="46.132764" lon="13.4392874"><ele>251.20000000000002</ele><time>2026-05-02T14:00:02.774Z</time></trkpt><trkpt lat="46.1328365" lon="13.4393922"><ele>253.60000000000002</ele><time>2026-05-02T14:00:03.777Z</time></trkpt><trkpt lat="46.1329045" lon="13.439506"><ele>256.0</ele><time>2026-05-02T14:00:04.782Z</time></trkpt><trkpt lat="46.1329593" lon="13.4396116"><ele>259.66666666666663</ele><time>2026-05-02T14:00:05.779Z</time></trkpt><trkpt lat="46.1330152" lon="13.439697"><ele>263.3333333333333</ele><time>2026-05-02T14:00:06.786Z</time></trkpt><trkpt lat="46.1330658" lon="13.4397786"><ele>267.0</ele><time>2026-05-02T14:00:07.78Z</time></trkpt><trkpt lat="46.1331104" lon="13.4398454"><ele>270.6666666666667</ele><time>2026-05-02T14:00:08.776Z</time></trkpt><trkpt lat="46.133066" lon="13.4400079"><ele>274.33333333333337</ele><time>2026-05-02T14:00:12.783Z</time></trkpt><trkpt lat="46.1329815" lon="13.4399555"><ele>278.0</ele><time>2026-05-02T14:00:14.778Z</time></trkpt><trkpt lat="46.1328525" lon="13.4398477"><ele>278.0</ele><time>2026-05-02T14:00:16.783Z</time></trkpt><trkpt lat="46.1327515" lon="13.4397728"><ele>278.0</ele><time>2026-05-02T14:00:17.785Z</time></trkpt><trkpt lat="46.1326424" lon="13.4396908"><ele>278.0</ele><time>2026-05-02T14:00:18.78Z</time></trkpt><trkpt lat="46.1325321" lon="13.4396002"><ele>278.0</ele><time>2026-05-02T14:00:19.77Z</time></trkpt><trkpt lat="46.1324264" lon="13.4395158"><ele>275.6</ele><time>2026-05-02T14:00:20.786Z</time></trkpt><trkpt lat="46.1323231" lon="13.4394381"><ele>273.20000000000005</ele><time>2026-05-02T14:00:21.783Z</time></trkpt><trkpt lat="46.1322149" lon="13.4393821"><ele>270.8</ele><time>2026-05-02T14:00:22.78Z</time></trkpt><trkpt lat="46.132113" lon="13.4393258"><ele>268.40000000000003</ele><time>2026-05-02T14:00:23.776Z</time></trkpt><trkpt lat="46.1320125" lon="13.4392876"><ele>266.0</ele><time>2026-05-02T14:00:24.781Z</time></trkpt><trkpt lat="46.1319136" lon="13.4392485"><ele>266.0</ele><time>2026-05-02T14:00:25.783Z</time></trkpt><trkpt lat="46.1318319" lon="13.4392113"><ele>266.0</ele><time>2026-05-02T14:00:26.78Z</time></trkpt><trkpt lat="46.1317554" lon="13.4391929"><ele>266.0</ele><time>2026-05-02T14:00:27.779Z</time></trkpt><trkpt lat="46.1316679" lon="13.4392021"><ele>266.0</ele><time>2026-05-02T14:00:28.782Z</time></trkpt><trkpt lat="46.1315765" lon="13.4392301"><ele>266.0</ele><time>2026-05-02T14:00:29.779Z</time></trkpt><trkpt lat="46.1314126" lon="13.439315"><ele>269.33333333333337</ele><time>2026-05-02T14:00:31.777Z</time></trkpt><trkpt lat="46.1313415" lon="13.4393616"><ele>272.6666666666667</ele><time>2026-05-02T14:00:32.777Z</time></trkpt><trkpt lat="46.1312772" lon="13.4394055"><ele>276.0</ele><time>2026-05-02T14:00:33.784Z</time></trkpt><trkpt lat="46.1312009" lon="13.4394915"><ele>279.3333333333333</ele><time>2026-05-02T14:00:35.788Z</time></trkpt><trkpt lat="46.1312553" lon="13.439578"><ele>282.66666666666663</ele><time>2026-05-02T14:00:37.774Z</time></trkpt><trkpt lat="46.13132" lon="13.4396017"><ele>286.0</ele><time>2026-05-02T14:00:38.778Z</time></trkpt><trkpt lat="46.1314093" lon="13.4396182"><ele>286.0</ele><time>2026-05-02T14:00:39.783Z</time></trkpt><trkpt lat="46.1315008" lon="13.4396104"><ele>286.0</ele><time>2026-05-02T14:00:40.783Z</time></trkpt><trkpt lat="46.1315967" lon="13.4396052"><ele>286.0</ele><time>2026-05-02T14:00:41.776Z</time></trkpt><trkpt lat="46.1316882" lon="13.439588"><ele>286.0</ele><time>2026-05-02T14:00:42.779Z</time></trkpt><trkpt lat="46.1317774" lon="13.439597"><ele>286.0</ele><time>2026-05-02T14:00:43.783Z</time></trkpt><trkpt lat="46.1318632" lon="13.4396327"><ele>286.8</ele><time>2026-05-02T14:00:44.779Z</time></trkpt><trkpt lat="46.1319465" lon="13.4396909"><ele>287.6</ele><time>2026-05-02T14:00:45.777Z</time></trkpt><trkpt lat="46.1320375" lon="13.439769"><ele>288.4</ele><time>2026-05-02T14:00:46.784Z</time></trkpt><trkpt lat="46.1321206" lon="13.4398539"><ele>289.2</ele><time>2026-05-02T14:00:47.779Z</time></trkpt><trkpt lat="46.1322075" lon="13.4399356"><ele>290.0</ele><time>2026-05-02T14:00:48.778Z</time></trkpt><trkpt lat="46.1322827" lon="13.4400339"><ele>290.0</ele><time>2026-05-02T14:00:49.777Z</time></trkpt><trkpt lat="46.1323498" lon="13.4401334"><ele>290.0</ele><time>2026-05-02T14:00:50.79Z</time></trkpt><trkpt lat="46.1324088" lon="13.4402394"><ele>290.0</ele><time>2026-05-02T14:00:51.78Z</time></trkpt><trkpt lat="46.1325042" lon="13.4404808"><ele>290.0</ele><time>2026-05-02T14:00:53.784Z</time></trkpt><trkpt lat="46.1325528" lon="13.4406079"><ele>290.6666666666667</ele><time>2026-05-02T14:00:54.772Z</time></trkpt><trkpt lat="46.1325909" lon="13.4407371"><ele>291.33333333333337</ele><time>2026-05-02T14:00:55.789Z</time></trkpt><trkpt lat="46.1326155" lon="13.440842"><ele>292.0</ele><time>2026-05-02T14:00:56.778Z</time></trkpt><trkpt lat="46.1326273" lon="13.4409516"><ele>292.6666666666667</ele><time>2026-05-02T14:00:57.784Z</time></trkpt><trkpt lat="46.1326273" lon="13.4410601"><ele>293.3333333333333</ele><time>2026-05-02T14:00:58.777Z</time></trkpt><trkpt lat="46.1326145" lon="13.4411558"><ele>294.0</ele><time>2026-05-02T14:00:59.779Z</time></trkpt><trkpt lat="46.1325388" lon="13.4412558"><ele>295.8</ele><time>2026-05-02T14:01:00.772Z</time></trkpt><trkpt lat="46.132481" lon="13.4413673"><ele>297.59999999999997</ele><time>2026-05-02T14:01:01.777Z</time></trkpt><trkpt lat="46.132446" lon="13.4414972"><ele>299.4</ele><time>2026-05-02T14:01:02.781Z</time></trkpt><trkpt lat="46.1324177" lon="13.4416346"><ele>301.2</ele><time>2026-05-02T14:01:03.776Z</time></trkpt><trkpt lat="46.1323792" lon="13.4417603"><ele>303.0</ele><time>2026-05-02T14:01:04.791Z</time></trkpt><trkpt lat="46.1323557" lon="13.4418756"><ele>304.1666666666667</ele><time>2026-05-02T14:01:05.777Z</time></trkpt><trkpt lat="46.132334" lon="13.4419894"><ele>305.3333333333333</ele><time>2026-05-02T14:01:06.78Z</time></trkpt><trkpt lat="46.1323159" lon="13.4421057"><ele>306.5</ele><time>2026-05-02T14:01:07.796Z</time></trkpt><trkpt lat="46.1323125" lon="13.4422076"><ele>307.66666666666663</ele><time>2026-05-02T14:01:08.791Z</time></trkpt><trkpt lat="46.1323335" lon="13.4423091"><ele>308.8333333333333</ele><time>2026-05-02T14:01:09.783Z</time></trkpt><trkpt lat="46.1323761" lon="13.442397"><ele>310.0</ele><time>2026-05-02T14:01:10.79Z</time></trkpt><trkpt lat="46.1324225" lon="13.442495"><ele>310.0</ele><time>2026-05-02T14:01:11.782Z</time></trkpt><trkpt lat="46.1324671" lon="13.4425994"><ele>310.0</ele><time>2026-05-02T14:01:12.774Z</time></trkpt><trkpt lat="46.1325174" lon="13.4427118"><ele>310.0</ele><time>2026-05-02T14:01:13.784Z</time></trkpt><trkpt lat="46.1326042" lon="13.4429749"><ele>310.0</ele><time>2026-05-02T14:01:15.779Z</time></trkpt><trkpt lat="46.1326366" lon="13.4430928"><ele>311.5</ele><time>2026-05-02T14:01:16.782Z</time></trkpt><trkpt lat="46.1326463" lon="13.4431996"><ele>313.0</ele><time>2026-05-02T14:01:17.787Z</time></trkpt><trkpt lat="46.1326302" lon="13.4433147"><ele>314.5</ele><time>2026-05-02T14:01:18.782Z</time></trkpt><trkpt lat="46.1326" lon="13.4434351"><ele>316.0</ele><time>2026-05-02T14:01:19.77Z</time></trkpt><trkpt lat="46.1325792" lon="13.4435513"><ele>317.5</ele><time>2026-05-02T14:01:20.781Z</time></trkpt><trkpt lat="46.1325663" lon="13.4436481"><ele>319.0</ele><time>2026-05-02T14:01:21.773Z</time></trkpt><trkpt lat="46.1325993" lon="13.4437897"><ele>319.0</ele><time>2026-05-02T14:01:23.783Z</time></trkpt><trkpt lat="46.1327097" lon="13.4437937"><ele>319.0</ele><time>2026-05-02T14:01:25.781Z</time></trkpt><trkpt lat="46.132776" lon="13.4437604"><ele>319.0</ele><time>2026-05-02T14:01:26.777Z</time></trkpt><trkpt lat="46.1328474" lon="13.4437166"><ele>319.0</ele><time>2026-05-02T14:01:27.77Z</time></trkpt><trkpt lat="46.1329216" lon="13.4436651"><ele>319.0</ele><time>2026-05-02T14:01:28.774Z</time></trkpt><trkpt lat="46.1329981" lon="13.4436305"><ele>319.0</ele><time>2026-05-02T14:01:29.773Z</time></trkpt><trkpt lat="46.1330667" lon="13.4436202"><ele>319.0</ele><time>2026-05-02T14:01:30.774Z</time></trkpt><trkpt lat="46.1331799" lon="13.4437005"><ele>319.0</ele><time>2026-05-02T14:01:32.78Z</time></trkpt><trkpt lat="46.1332369" lon="13.4437768"><ele>319.0</ele><time>2026-05-02T14:01:33.774Z</time></trkpt><trkpt lat="46.1332871" lon="13.4438661"><ele>319.0</ele><time>2026-05-02T14:01:34.772Z</time></trkpt><trkpt lat="46.1333999" lon="13.4441176"><ele>318.8333333333333</ele><time>2026-05-02T14:01:36.789Z</time></trkpt><trkpt lat="46.1334425" lon="13.444251"><ele>318.66666666666663</ele><time>2026-05-02T14:01:37.774Z</time></trkpt><trkpt lat="46.1334725" lon="13.4443745"><ele>318.5</ele><time>2026-05-02T14:01:38.777Z</time></trkpt><trkpt lat="46.1334995" lon="13.4444853"><ele>318.3333333333333</ele><time>2026-05-02T14:01:39.778Z</time></trkpt><trkpt lat="46.1335283" lon="13.4445919"><ele>318.1666666666667</ele><time>2026-05-02T14:01:40.789Z</time></trkpt><trkpt lat="46.1335614" lon="13.4446765"><ele>318.0</ele><time>2026-05-02T14:01:41.77Z</time></trkpt><trkpt lat="46.1336061" lon="13.4447517"><ele>319.5</ele><time>2026-05-02T14:01:42.78Z</time></trkpt><trkpt lat="46.1336674" lon="13.4447938"><ele>321.0</ele><time>2026-05-02T14:01:43.778Z</time></trkpt><trkpt lat="46.1337323" lon="13.4447968"><ele>322.5</ele><time>2026-05-02T14:01:44.779Z</time></trkpt><trkpt lat="46.1338064" lon="13.4447795"><ele>324.0</ele><time>2026-05-02T14:01:45.779Z</time></trkpt><trkpt lat="46.1338968" lon="13.4447436"><ele>325.5</ele><time>2026-05-02T14:01:46.788Z</time></trkpt><trkpt lat="46.1339909" lon="13.4446903"><ele>327.0</ele><time>2026-05-02T14:01:47.773Z</time></trkpt><trkpt lat="46.1340995" lon="13.444639"><ele>322.5</ele><time>2026-05-02T14:01:48.774Z</time></trkpt><trkpt lat="46.1342145" lon="13.4445838"><ele>318.0</ele><time>2026-05-02T14:01:49.772Z</time></trkpt><trkpt lat="46.1343162" lon="13.444501"><ele>313.5</ele><time>2026-05-02T14:01:50.782Z</time></trkpt><trkpt lat="46.1344164" lon="13.444415"><ele>309.0</ele><time>2026-05-02T14:01:51.779Z</time></trkpt><trkpt lat="46.1345085" lon="13.4443255"><ele>309.0</ele><time>2026-05-02T14:01:52.784Z</time></trkpt><trkpt lat="46.134579" lon="13.4442378"><ele>309.0</ele><time>2026-05-02T14:01:53.783Z</time></trkpt><trkpt lat="46.1346482" lon="13.4441513"><ele>309.0</ele><time>2026-05-02T14:01:54.774Z</time></trkpt><trkpt lat="46.1347059" lon="13.4440546"><ele>309.0</ele><time>2026-05-02T14:01:55.775Z</time></trkpt><trkpt lat="46.1347863" lon="13.4436935"><ele>307.5</ele><time>2026-05-02T14:01:59.777Z</time></trkpt><trkpt lat="46.1347888" lon="13.4435806"><ele>306.0</ele><time>2026-05-02T14:02:00.774Z</time></trkpt><trkpt lat="46.1347915" lon="13.4434481"><ele>304.5</ele><time>2026-05-02T14:02:01.774Z</time></trkpt><trkpt lat="46.1347922" lon="13.4433227"><ele>303.0</ele><time>2026-05-02T14:02:02.776Z</time></trkpt><trkpt lat="46.1348003" lon="13.4432024"><ele>301.5</ele><time>2026-05-02T14:02:03.772Z</time></trkpt><trkpt lat="46.134815" lon="13.4430863"><ele>300.0</ele><time>2026-05-02T14:02:04.778Z</time></trkpt><trkpt lat="46.1348441" lon="13.4429734"><ele>300.6</ele><time>2026-05-02T14:02:05.778Z</time></trkpt><trkpt lat="46.1348835" lon="13.442877"><ele>301.2</ele><time>2026-05-02T14:02:06.785Z</time></trkpt><trkpt lat="46.1349779" lon="13.4428521"><ele>301.8</ele><time>2026-05-02T14:02:08.776Z</time></trkpt><trkpt lat="46.1350518" lon="13.4429668"><ele>302.4</ele><time>2026-05-02T14:02:10.78Z</time></trkpt><trkpt lat="46.1350757" lon="13.4430811"><ele>303.0</ele><time>2026-05-02T14:02:11.777Z</time></trkpt><trkpt lat="46.1350915" lon="13.4432205"><ele>304.0</ele><time>2026-05-02T14:02:12.782Z</time></trkpt><trkpt lat="46.1350918" lon="13.443372"><ele>305.0</ele><time>2026-05-02T14:02:13.776Z</time></trkpt><trkpt lat="46.1350863" lon="13.4435226"><ele>306.0</ele><time>2026-05-02T14:02:14.778Z</time></trkpt><trkpt lat="46.1350692" lon="13.4436709"><ele>307.0</ele><time>2026-05-02T14:02:15.777Z</time></trkpt><trkpt lat="46.135035" lon="13.443819"><ele>308.0</ele><time>2026-05-02T14:02:16.778Z</time></trkpt><trkpt lat="46.1349762" lon="13.4440663"><ele>309.0</ele><time>2026-05-02T14:02:18.784Z</time></trkpt><trkpt lat="46.1349846" lon="13.4441792"><ele>310.0</ele><time>2026-05-02T14:02:19.777Z</time></trkpt><trkpt lat="46.135001" lon="13.4442974"><ele>311.0</ele><time>2026-05-02T14:02:20.778Z</time></trkpt><trkpt lat="46.1350278" lon="13.4444258"><ele>312.0</ele><time>2026-05-02T14:02:21.783Z</time></trkpt><trkpt lat="46.1350497" lon="13.4445527"><ele>313.0</ele><time>2026-05-02T14:02:22.775Z</time></trkpt><trkpt lat="46.1350574" lon="13.4446896"><ele>314.0</ele><time>2026-05-02T14:02:23.782Z</time></trkpt><trkpt lat="46.1350583" lon="13.4448224"><ele>315.6666666666667</ele><time>2026-05-02T14:02:24.776Z</time></trkpt><trkpt lat="46.1350457" lon="13.4449509"><ele>317.33333333333337</ele><time>2026-05-02T14:02:25.78Z</time></trkpt><trkpt lat="46.1350325" lon="13.4450669"><ele>319.0</ele><time>2026-05-02T14:02:26.781Z</time></trkpt><trkpt lat="46.135033" lon="13.4451706"><ele>320.6666666666667</ele><time>2026-05-02T14:02:27.778Z</time></trkpt><trkpt lat="46.1350416" lon="13.4452808"><ele>322.3333333333333</ele><time>2026-05-02T14:02:28.78Z</time></trkpt><trkpt lat="46.1350513" lon="13.4453901"><ele>324.0</ele><time>2026-05-02T14:02:29.782Z</time></trkpt><trkpt lat="46.1351124" lon="13.4455281"><ele>326.6666666666667</ele><time>2026-05-02T14:02:31.782Z</time></trkpt><trkpt lat="46.1351747" lon="13.4455518"><ele>329.3333333333333</ele><time>2026-05-02T14:02:32.772Z</time></trkpt><trkpt lat="46.1352431" lon="13.4455599"><ele>332.0</ele><time>2026-05-02T14:02:33.78Z</time></trkpt><trkpt lat="46.1353157" lon="13.4455853"><ele>334.66666666666663</ele><time>2026-05-02T14:02:34.781Z</time></trkpt><trkpt lat="46.1353877" lon="13.4456431"><ele>337.3333333333333</ele><time>2026-05-02T14:02:35.791Z</time></trkpt><trkpt lat="46.1354547" lon="13.4457209"><ele>340.0</ele><time>2026-05-02T14:02:36.78Z</time></trkpt><trkpt lat="46.135529" lon="13.4458139"><ele>340.0</ele><time>2026-05-02T14:02:37.784Z</time></trkpt><trkpt lat="46.1357019" lon="13.4460337"><ele>340.0</ele><time>2026-05-02T14:02:39.776Z</time></trkpt><trkpt lat="46.1357879" lon="13.4461577"><ele>340.0</ele><time>2026-05-02T14:02:40.779Z</time></trkpt><trkpt lat="46.1358701" lon="13.4462837"><ele>343.6</ele><time>2026-05-02T14:02:41.777Z</time></trkpt><trkpt lat="46.1359371" lon="13.4464137"><ele>347.2</ele><time>2026-05-02T14:02:42.774Z</time></trkpt><trkpt lat="46.1359894" lon="13.4465483"><ele>350.79999999999995</ele><time>2026-05-02T14:02:43.777Z</time></trkpt><trkpt lat="46.1360304" lon="13.4466889"><ele>354.4</ele><time>2026-05-02T14:02:44.779Z</time></trkpt><trkpt lat="46.1360563" lon="13.4468358"><ele>358.0</ele><time>2026-05-02T14:02:45.777Z</time></trkpt><trkpt lat="46.1360047" lon="13.4469808"><ele>358.0</ele><time>2026-05-02T14:02:46.778Z</time></trkpt><trkpt lat="46.1359555" lon="13.4470905"><ele>358.0</ele><time>2026-05-02T14:02:47.784Z</time></trkpt><trkpt lat="46.1359209" lon="13.4471918"><ele>358.0</ele><time>2026-05-02T14:02:48.777Z</time></trkpt><trkpt lat="46.1358918" lon="13.4473093"><ele>358.0</ele><time>2026-05-02T14:02:50.777Z</time></trkpt><trkpt lat="46.1359159" lon="13.4474396"><ele>358.0</ele><time>2026-05-02T14:02:52.777Z</time></trkpt><trkpt lat="46.135998" lon="13.4474394"><ele>358.0</ele><time>2026-05-02T14:02:54.782Z</time></trkpt><trkpt lat="46.1360678" lon="13.4473854"><ele>358.0</ele><time>2026-05-02T14:02:55.778Z</time></trkpt><trkpt lat="46.1361489" lon="13.4473085"><ele>358.0</ele><time>2026-05-02T14:02:56.779Z</time></trkpt><trkpt lat="46.136223" lon="13.4472144"><ele>358.0</ele><time>2026-05-02T14:02:57.778Z</time></trkpt><trkpt lat="46.1362933" lon="13.4471185"><ele>358.0</ele><time>2026-05-02T14:02:58.778Z</time></trkpt><trkpt lat="46.1363549" lon="13.4470245"><ele>358.0</ele><time>2026-05-02T14:02:59.781Z</time></trkpt><trkpt lat="46.1364862" lon="13.4469601"><ele>358.66666666666663</ele><time>2026-05-02T14:03:01.789Z</time></trkpt><trkpt lat="46.1365545" lon="13.4469914"><ele>359.3333333333333</ele><time>2026-05-02T14:03:02.783Z</time></trkpt><trkpt lat="46.1366298" lon="13.447057"><ele>360.0</ele><time>2026-05-02T14:03:03.772Z</time></trkpt><trkpt lat="46.1366936" lon="13.4471509"><ele>360.6666666666667</ele><time>2026-05-02T14:03:04.776Z</time></trkpt><trkpt lat="46.1367492" lon="13.4472687"><ele>361.33333333333337</ele><time>2026-05-02T14:03:05.779Z</time></trkpt><trkpt lat="46.1367939" lon="13.4473867"><ele>362.0</ele><time>2026-05-02T14:03:06.78Z</time></trkpt><trkpt lat="46.1368305" lon="13.4475101"><ele>362.0</ele><time>2026-05-02T14:03:07.78Z</time></trkpt><trkpt lat="46.1368629" lon="13.4476401"><ele>362.0</ele><time>2026-05-02T14:03:08.779Z</time></trkpt><trkpt lat="46.1368893" lon="13.4477735"><ele>362.0</ele><time>2026-05-02T14:03:09.778Z</time></trkpt><trkpt lat="46.1369112" lon="13.4479106"><ele>362.0</ele><time>2026-05-02T14:03:10.779Z</time></trkpt><trkpt lat="46.1369294" lon="13.4480453"><ele>362.0</ele><time>2026-05-02T14:03:11.773Z</time></trkpt><trkpt lat="46.1369361" lon="13.4481695"><ele>364.8</ele><time>2026-05-02T14:03:12.786Z</time></trkpt><trkpt lat="46.1369383" lon="13.4482964"><ele>367.6</ele><time>2026-05-02T14:03:13.775Z</time></trkpt><trkpt lat="46.1369329" lon="13.4484257"><ele>370.40000000000003</ele><time>2026-05-02T14:03:14.784Z</time></trkpt><trkpt lat="46.1369312" lon="13.4485681"><ele>373.20000000000005</ele><time>2026-05-02T14:03:15.776Z</time></trkpt><trkpt lat="46.1369364" lon="13.4487141"><ele>376.0</ele><time>2026-05-02T14:03:16.777Z</time></trkpt><trkpt lat="46.1369478" lon="13.4488493"><ele>378.8</ele><time>2026-05-02T14:03:17.785Z</time></trkpt><trkpt lat="46.1369548" lon="13.4489872"><ele>381.6</ele><time>2026-05-02T14:03:18.779Z</time></trkpt><trkpt lat="46.1369538" lon="13.4491178"><ele>384.4</ele><time>2026-05-02T14:03:19.779Z</time></trkpt><trkpt lat="46.1369496" lon="13.4492442"><ele>387.2</ele><time>2026-05-02T14:03:20.786Z</time></trkpt><trkpt lat="46.1369397" lon="13.4493699"><ele>390.0</ele><time>2026-05-02T14:03:21.775Z</time></trkpt><trkpt lat="46.1368767" lon="13.4495895"><ele>392.5</ele><time>2026-05-02T14:03:23.776Z</time></trkpt><trkpt lat="46.136851" lon="13.4496827"><ele>395.0</ele><time>2026-05-02T14:03:24.78Z</time></trkpt><trkpt lat="46.1368277" lon="13.4498141"><ele>397.5</ele><time>2026-05-02T14:03:26.776Z</time></trkpt><trkpt lat="46.1369044" lon="13.4499125"><ele>400.0</ele><time>2026-05-02T14:03:29.778Z</time></trkpt><trkpt lat="46.1369832" lon="13.4499375"><ele>402.5</ele><time>2026-05-02T14:03:30.786Z</time></trkpt><trkpt lat="46.1370718" lon="13.449958"><ele>405.0</ele><time>2026-05-02T14:03:31.79Z</time></trkpt><trkpt lat="46.1372102" lon="13.450039"><ele>405.0</ele><time>2026-05-02T14:03:33.776Z</time></trkpt><trkpt lat="46.1372426" lon="13.4501427"><ele>405.0</ele><time>2026-05-02T14:03:34.776Z</time></trkpt><trkpt lat="46.1372442" lon="13.4502551"><ele>405.0</ele><time>2026-05-02T14:03:35.774Z</time></trkpt><trkpt lat="46.1372311" lon="13.4503805"><ele>405.0</ele><time>2026-05-02T14:03:36.777Z</time></trkpt><trkpt lat="46.1372054" lon="13.4504998"><ele>405.0</ele><time>2026-05-02T14:03:37.778Z</time></trkpt><trkpt lat="46.1371611" lon="13.4506271"><ele>405.0</ele><time>2026-05-02T14:03:38.776Z</time></trkpt><trkpt lat="46.137101" lon="13.4507623"><ele>408.0</ele><time>2026-05-02T14:03:39.784Z</time></trkpt><trkpt lat="46.1370389" lon="13.4508785"><ele>411.0</ele><time>2026-05-02T14:03:40.774Z</time></trkpt><trkpt lat="46.1369867" lon="13.4509885"><ele>414.0</ele><time>2026-05-02T14:03:41.771Z</time></trkpt><trkpt lat="46.1369623" lon="13.451077"><ele>417.0</ele><time>2026-05-02T14:03:42.783Z</time></trkpt><trkpt lat="46.1370564" lon="13.4512667"><ele>420.0</ele><time>2026-05-02T14:03:45.78Z</time></trkpt><trkpt lat="46.137128" lon="13.4512987"><ele>422.0</ele><time>2026-05-02T14:03:46.778Z</time></trkpt><trkpt lat="46.1371927" lon="13.4513293"><ele>424.0</ele><time>2026-05-02T14:03:47.785Z</time></trkpt><trkpt lat="46.1372536" lon="13.4513588"><ele>426.0</ele><time>2026-05-02T14:03:48.777Z</time></trkpt><trkpt lat="46.1373265" lon="13.4514136"><ele>428.0</ele><time>2026-05-02T14:03:50.779Z</time></trkpt><trkpt lat="46.1372801" lon="13.4515047"><ele>430.0</ele><time>2026-05-02T14:03:53.785Z</time></trkpt><trkpt lat="46.1371616" lon="13.4515027"><ele>432.0</ele><time>2026-05-02T14:03:55.781Z</time></trkpt><trkpt lat="46.1370845" lon="13.451496"><ele>432.0</ele><time>2026-05-02T14:03:56.773Z</time></trkpt><trkpt lat="46.136999" lon="13.4514706"><ele>432.0</ele><time>2026-05-02T14:03:57.781Z</time></trkpt><trkpt lat="46.1369152" lon="13.4514249"><ele>432.0</ele><time>2026-05-02T14:03:58.782Z</time></trkpt><trkpt lat="46.1368346" lon="13.4513605"><ele>432.0</ele><time>2026-05-02T14:03:59.779Z</time></trkpt><trkpt lat="46.1367828" lon="13.4512697"><ele>432.0</ele><time>2026-05-02T14:04:00.777Z</time></trkpt><trkpt lat="46.1367635" lon="13.4511628"><ele>432.0</ele><time>2026-05-02T14:04:01.773Z</time></trkpt><trkpt lat="46.1367581" lon="13.4510433"><ele>428.0</ele><time>2026-05-02T14:04:02.776Z</time></trkpt><trkpt lat="46.1367453" lon="13.4509253"><ele>424.0</ele><time>2026-05-02T14:04:03.779Z</time></trkpt><trkpt lat="46.1366028" lon="13.4506048"><ele>420.0</ele><time>2026-05-02T14:04:06.773Z</time></trkpt><trkpt lat="46.1365207" lon="13.4504943"><ele>423.2</ele><time>2026-05-02T14:04:07.776Z</time></trkpt><trkpt lat="46.1364263" lon="13.4503824"><ele>426.4</ele><time>2026-05-02T14:04:08.774Z</time></trkpt><trkpt lat="46.1363378" lon="13.4502739"><ele>429.6</ele><time>2026-05-02T14:04:09.786Z</time></trkpt><trkpt lat="46.1362578" lon="13.4501786"><ele>432.8</ele><time>2026-05-02T14:04:10.776Z</time></trkpt><trkpt lat="46.1361797" lon="13.4500809"><ele>436.0</ele><time>2026-05-02T14:04:11.774Z</time></trkpt><trkpt lat="46.1361122" lon="13.449964"><ele>436.00000000000006</ele><time>2026-05-02T14:04:12.777Z</time></trkpt><trkpt lat="46.1360583" lon="13.4498517"><ele>436.0</ele><time>2026-05-02T14:04:13.775Z</time></trkpt><trkpt lat="46.1360125" lon="13.4497136"><ele>436.0</ele><time>2026-05-02T14:04:14.78Z</time></trkpt><trkpt lat="46.135974" lon="13.449587"><ele>436.0</ele><time>2026-05-02T14:04:15.792Z</time></trkpt><trkpt lat="46.1359324" lon="13.4494825"><ele>436.00000000000006</ele><time>2026-05-02T14:04:16.774Z</time></trkpt><trkpt lat="46.1358898" lon="13.449406"><ele>436.0</ele><time>2026-05-02T14:04:17.777Z</time></trkpt><trkpt lat="46.1358332" lon="13.4493536"><ele>436.20000000000005</ele><time>2026-05-02T14:04:18.773Z</time></trkpt><trkpt lat="46.1357535" lon="13.4493051"><ele>436.40000000000003</ele><time>2026-05-02T14:04:19.786Z</time></trkpt><trkpt lat="46.1356571" lon="13.4492659"><ele>436.6</ele><time>2026-05-02T14:04:20.777Z</time></trkpt><trkpt lat="46.1355574" lon="13.4492248"><ele>436.8</ele><time>2026-05-02T14:04:21.773Z</time></trkpt><trkpt lat="46.1354449" lon="13.4491811"><ele>437.0</ele><time>2026-05-02T14:04:22.774Z</time></trkpt><trkpt lat="46.1353316" lon="13.449133"><ele>437.0</ele><time>2026-05-02T14:04:23.784Z</time></trkpt><trkpt lat="46.1352278" lon="13.4491047"><ele>437.0</ele><time>2026-05-02T14:04:24.783Z</time></trkpt><trkpt lat="46.1351311" lon="13.4490795"><ele>437.0</ele><time>2026-05-02T14:04:25.774Z</time></trkpt><trkpt lat="46.1349629" lon="13.449026"><ele>437.0</ele><time>2026-05-02T14:04:27.791Z</time></trkpt><trkpt lat="46.1348961" lon="13.4489568"><ele>437.20000000000005</ele><time>2026-05-02T14:04:28.778Z</time></trkpt><trkpt lat="46.1348351" lon="13.4488631"><ele>437.40000000000003</ele><time>2026-05-02T14:04:29.777Z</time></trkpt><trkpt lat="46.1347724" lon="13.4487746"><ele>437.59999999999997</ele><time>2026-05-02T14:04:30.781Z</time></trkpt><trkpt lat="46.1347026" lon="13.4486655"><ele>437.79999999999995</ele><time>2026-05-02T14:04:31.78Z</time></trkpt><trkpt lat="46.1346268" lon="13.4485522"><ele>438.0</ele><time>2026-05-02T14:04:32.787Z</time></trkpt><trkpt lat="46.1345459" lon="13.4484482"><ele>438.0</ele><time>2026-05-02T14:04:33.773Z</time></trkpt><trkpt lat="46.1344729" lon="13.4483677"><ele>437.99999999999994</ele><time>2026-05-02T14:04:34.773Z</time></trkpt><trkpt lat="46.1343903" lon="13.4483217"><ele>437.99999999999994</ele><time>2026-05-02T14:04:35.775Z</time></trkpt><trkpt lat="46.1342893" lon="13.4482751"><ele>438.0</ele><time>2026-05-02T14:04:36.774Z</time></trkpt><trkpt lat="46.1341811" lon="13.4482197"><ele>438.0</ele><time>2026-05-02T14:04:37.79Z</time></trkpt><trkpt lat="46.1340631" lon="13.4481647"><ele>440.0</ele><time>2026-05-02T14:04:38.772Z</time></trkpt><trkpt lat="46.1339458" lon="13.4481174"><ele>442.0</ele><time>2026-05-02T14:04:39.783Z</time></trkpt><trkpt lat="46.1338255" lon="13.448064"><ele>444.0</ele><time>2026-05-02T14:04:40.779Z</time></trkpt><trkpt lat="46.1337198" lon="13.4480151"><ele>446.0</ele><time>2026-05-02T14:04:41.777Z</time></trkpt><trkpt lat="46.1336262" lon="13.4479861"><ele>448.4</ele><time>2026-05-02T14:04:42.768Z</time></trkpt><trkpt lat="46.1335342" lon="13.4479581"><ele>450.8</ele><time>2026-05-02T14:04:43.782Z</time></trkpt><trkpt lat="46.1334504" lon="13.4479355"><ele>453.19999999999993</ele><time>2026-05-02T14:04:44.78Z</time></trkpt><trkpt lat="46.1333762" lon="13.4479239"><ele>455.59999999999997</ele><time>2026-05-02T14:04:45.772Z</time></trkpt><trkpt lat="46.1333066" lon="13.4479592"><ele>458.0</ele><time>2026-05-02T14:04:46.78Z</time></trkpt><trkpt lat="46.133178" lon="13.4481181"><ele>457.99999999999994</ele><time>2026-05-02T14:04:48.78Z</time></trkpt><trkpt lat="46.1331066" lon="13.4482165"><ele>458.0</ele><time>2026-05-02T14:04:49.786Z</time></trkpt><trkpt lat="46.133037" lon="13.4483243"><ele>458.0</ele><time>2026-05-02T14:04:50.773Z</time></trkpt><trkpt lat="46.1329793" lon="13.4484271"><ele>458.0</ele><time>2026-05-02T14:04:51.775Z</time></trkpt><trkpt lat="46.1329303" lon="13.4485189"><ele>457.99999999999994</ele><time>2026-05-02T14:04:52.788Z</time></trkpt><trkpt lat="46.1328712" lon="13.4485686"><ele>458.0</ele><time>2026-05-02T14:04:53.779Z</time></trkpt><trkpt lat="46.1327738" lon="13.4484965"><ele>458.0</ele><time>2026-05-02T14:04:55.783Z</time></trkpt><trkpt lat="46.1327307" lon="13.4484095"><ele>457.99999999999994</ele><time>2026-05-02T14:04:56.779Z</time></trkpt><trkpt lat="46.132688" lon="13.4482758"><ele>457.99999999999994</ele><time>2026-05-02T14:04:57.775Z</time></trkpt><trkpt lat="46.1326328" lon="13.4481231"><ele>458.0</ele><time>2026-05-02T14:04:58.781Z</time></trkpt><trkpt lat="46.1325621" lon="13.4479913"><ele>458.0</ele><time>2026-05-02T14:04:59.77Z</time></trkpt><trkpt lat="46.1324907" lon="13.4478965"><ele>457.2</ele><time>2026-05-02T14:05:00.774Z</time></trkpt><trkpt lat="46.1324195" lon="13.447798"><ele>456.4</ele><time>2026-05-02T14:05:01.777Z</time></trkpt><trkpt lat="46.1323321" lon="13.447694"><ele>455.59999999999997</ele><time>2026-05-02T14:05:02.774Z</time></trkpt><trkpt lat="46.132235" lon="13.4475986"><ele>454.79999999999995</ele><time>2026-05-02T14:05:03.785Z</time></trkpt><trkpt lat="46.1321414" lon="13.4475059"><ele>454.0</ele><time>2026-05-02T14:05:04.782Z</time></trkpt><trkpt lat="46.1320465" lon="13.4474193"><ele>454.0</ele><time>2026-05-02T14:05:05.774Z</time></trkpt><trkpt lat="46.1319503" lon="13.4473558"><ele>454.0</ele><time>2026-05-02T14:05:06.774Z</time></trkpt><trkpt lat="46.1318552" lon="13.4472983"><ele>454.0</ele><time>2026-05-02T14:05:07.777Z</time></trkpt><trkpt lat="46.1315831" lon="13.4472412"><ele>454.2</ele><time>2026-05-02T14:05:10.777Z</time></trkpt><trkpt lat="46.1314917" lon="13.4472559"><ele>454.4</ele><time>2026-05-02T14:05:11.773Z</time></trkpt><trkpt lat="46.1314033" lon="13.4472874"><ele>454.6</ele><time>2026-05-02T14:05:12.776Z</time></trkpt><trkpt lat="46.1313168" lon="13.4473392"><ele>454.8</ele><time>2026-05-02T14:05:13.779Z</time></trkpt><trkpt lat="46.1312211" lon="13.4474302"><ele>455.0</ele><time>2026-05-02T14:05:14.787Z</time></trkpt><trkpt lat="46.1311268" lon="13.4475349"><ele>454.99999999999994</ele><time>2026-05-02T14:05:15.778Z</time></trkpt><trkpt lat="46.1310339" lon="13.4476297"><ele>455.0</ele><time>2026-05-02T14:05:16.775Z</time></trkpt><trkpt lat="46.1309532" lon="13.4476936"><ele>455.0</ele><time>2026-05-02T14:05:17.777Z</time></trkpt><trkpt lat="46.1308923" lon="13.4477295"><ele>455.0</ele><time>2026-05-02T14:05:18.77Z</time></trkpt><trkpt lat="46.1308269" lon="13.4477724"><ele>454.99999999999994</ele><time>2026-05-02T14:05:20.776Z</time></trkpt><trkpt lat="46.130763" lon="13.447764"><ele>455.0</ele><time>2026-05-02T14:05:35.776Z</time></trkpt><trkpt lat="46.1306034" lon="13.4476814"><ele>456.16666666666663</ele><time>2026-05-02T14:05:41.776Z</time></trkpt><trkpt lat="46.1305597" lon="13.4475906"><ele>457.3333333333333</ele><time>2026-05-02T14:05:45.778Z</time></trkpt><trkpt lat="46.1305532" lon="13.4474787"><ele>458.5</ele><time>2026-05-02T14:05:48.776Z</time></trkpt><trkpt lat="46.1305665" lon="13.4473852"><ele>459.66666666666663</ele><time>2026-05-02T14:05:52.784Z</time></trkpt><trkpt lat="46.1305828" lon="13.4472809"><ele>460.8333333333333</ele><time>2026-05-02T14:05:55.78Z</time></trkpt><trkpt lat="46.1305735" lon="13.4471744"><ele>462.0</ele><time>2026-05-02T14:05:58.785Z</time></trkpt><trkpt lat="46.1305788" lon="13.4469617"><ele>462.0</ele><time>2026-05-02T14:07:44.772Z</time></trkpt><trkpt lat="46.1305842" lon="13.4467213"><ele>462.0</ele><time>2026-05-02T14:07:49.787Z</time></trkpt><trkpt lat="46.1305431" lon="13.4465461"><ele>462.0</ele><time>2026-05-02T14:07:51.773Z</time></trkpt><trkpt lat="46.1304937" lon="13.4464705"><ele>462.0</ele><time>2026-05-02T14:07:52.774Z</time></trkpt><trkpt lat="46.1304125" lon="13.4463813"><ele>462.0</ele><time>2026-05-02T14:07:54.778Z</time></trkpt><trkpt lat="46.1303614" lon="13.4463194"><ele>462.0</ele><time>2026-05-02T14:07:55.786Z</time></trkpt><trkpt lat="46.1303138" lon="13.4462537"><ele>462.0</ele><time>2026-05-02T14:07:56.773Z</time></trkpt><trkpt lat="46.1302122" lon="13.4461524"><ele>462.0</ele><time>2026-05-02T14:07:58.776Z</time></trkpt><trkpt lat="46.1301528" lon="13.4461137"><ele>462.0</ele><time>2026-05-02T14:07:59.781Z</time></trkpt><trkpt lat="46.1300913" lon="13.4460771"><ele>462.0</ele><time>2026-05-02T14:08:00.769Z</time></trkpt><trkpt lat="46.1299801" lon="13.4460089"><ele>456.0</ele><time>2026-05-02T14:08:02.774Z</time></trkpt><trkpt lat="46.1298544" lon="13.4459392"><ele>450.0</ele><time>2026-05-02T14:08:04.775Z</time></trkpt><trkpt lat="46.1297264" lon="13.445897"><ele>444.0</ele><time>2026-05-02T14:08:06.778Z</time></trkpt><trkpt lat="46.1295833" lon="13.445878"><ele>438.0</ele><time>2026-05-02T14:08:08.778Z</time></trkpt><trkpt lat="46.1295074" lon="13.4458656"><ele>438.0</ele><time>2026-05-02T14:08:09.772Z</time></trkpt><trkpt lat="46.1294296" lon="13.4458533"><ele>438.0</ele><time>2026-05-02T14:08:10.775Z</time></trkpt><trkpt lat="46.1293469" lon="13.4458503"><ele>438.0</ele><time>2026-05-02T14:08:11.771Z</time></trkpt><trkpt lat="46.1292623" lon="13.4458375"><ele>438.0</ele><time>2026-05-02T14:08:12.776Z</time></trkpt><trkpt lat="46.1291718" lon="13.4458304"><ele>438.0</ele><time>2026-05-02T14:08:13.774Z</time></trkpt><trkpt lat="46.1290823" lon="13.4458267"><ele>438.0</ele><time>2026-05-02T14:08:14.772Z</time></trkpt><trkpt lat="46.1289938" lon="13.4458163"><ele>437.79999999999995</ele><time>2026-05-02T14:08:15.778Z</time></trkpt><trkpt lat="46.1289117" lon="13.4458041"><ele>437.59999999999997</ele><time>2026-05-02T14:08:16.783Z</time></trkpt><trkpt lat="46.1288266" lon="13.4457771"><ele>437.40000000000003</ele><time>2026-05-02T14:08:17.773Z</time></trkpt><trkpt lat="46.1286636" lon="13.4457466"><ele>437.20000000000005</ele><time>2026-05-02T14:08:19.777Z</time></trkpt><trkpt lat="46.128592" lon="13.4457452"><ele>437.0</ele><time>2026-05-02T14:08:20.776Z</time></trkpt><trkpt lat="46.1285173" lon="13.4457322"><ele>437.0</ele><time>2026-05-02T14:08:21.772Z</time></trkpt><trkpt lat="46.1284476" lon="13.4457274"><ele>437.0</ele><time>2026-05-02T14:08:22.775Z</time></trkpt><trkpt lat="46.128384" lon="13.4457192"><ele>437.0</ele><time>2026-05-02T14:08:23.791Z</time></trkpt><trkpt lat="46.1283174" lon="13.445702"><ele>437.0</ele><time>2026-05-02T14:08:24.774Z</time></trkpt><trkpt lat="46.1282527" lon="13.4456855"><ele>437.0</ele><time>2026-05-02T14:08:25.787Z</time></trkpt><trkpt lat="46.128177" lon="13.4456452"><ele>437.0</ele><time>2026-05-02T14:08:26.783Z</time></trkpt><trkpt lat="46.128108" lon="13.4456188"><ele>437.0</ele><time>2026-05-02T14:08:27.769Z</time></trkpt><trkpt lat="46.127983" lon="13.4455718"><ele>437.0</ele><time>2026-05-02T14:08:29.775Z</time></trkpt><trkpt lat="46.1279163" lon="13.4455352"><ele>437.0</ele><time>2026-05-02T14:08:30.777Z</time></trkpt><trkpt lat="46.1278573" lon="13.4454989"><ele>437.0</ele><time>2026-05-02T14:08:31.785Z</time></trkpt><trkpt lat="46.1278058" lon="13.4454299"><ele>437.0</ele><time>2026-05-02T14:08:32.772Z</time></trkpt><trkpt lat="46.1277472" lon="13.4453745"><ele>437.0</ele><time>2026-05-02T14:08:33.782Z</time></trkpt><trkpt lat="46.1276865" lon="13.4453315"><ele>437.0</ele><time>2026-05-02T14:08:34.782Z</time></trkpt><trkpt lat="46.1276229" lon="13.4453048"><ele>437.0</ele><time>2026-05-02T14:08:35.774Z</time></trkpt><trkpt lat="46.1275026" lon="13.4452735"><ele>434.2857142857143</ele><time>2026-05-02T14:08:37.779Z</time></trkpt><trkpt lat="46.1274403" lon="13.4452354"><ele>431.5714285714286</ele><time>2026-05-02T14:08:38.776Z</time></trkpt><trkpt lat="46.1273874" lon="13.44518"><ele>428.8571428571429</ele><time>2026-05-02T14:08:39.79Z</time></trkpt><trkpt lat="46.1273374" lon="13.4451201"><ele>426.1428571428571</ele><time>2026-05-02T14:08:40.77Z</time></trkpt><trkpt lat="46.1272862" lon="13.4450514"><ele>423.42857142857144</ele><time>2026-05-02T14:08:41.782Z</time></trkpt><trkpt lat="46.1272445" lon="13.4449826"><ele>420.7142857142857</ele><time>2026-05-02T14:08:42.773Z</time></trkpt><trkpt lat="46.1271648" lon="13.4448652"><ele>418.0</ele><time>2026-05-02T14:08:44.776Z</time></trkpt><trkpt lat="46.1270961" lon="13.444748"><ele>418.0</ele><time>2026-05-02T14:08:46.781Z</time></trkpt><trkpt lat="46.1270632" lon="13.4446704"><ele>418.0</ele><time>2026-05-02T14:08:47.772Z</time></trkpt><trkpt lat="46.1270376" lon="13.4445839"><ele>418.0</ele><time>2026-05-02T14:08:48.78Z</time></trkpt><trkpt lat="46.1269164" lon="13.4443073"><ele>418.0</ele><time>2026-05-02T14:08:52.771Z</time></trkpt><trkpt lat="46.1268528" lon="13.4441909"><ele>416.00000000000006</ele><time>2026-05-02T14:08:54.774Z</time></trkpt><trkpt lat="46.1267777" lon="13.4440613"><ele>414.0</ele><time>2026-05-02T14:08:56.777Z</time></trkpt><trkpt lat="46.1266776" lon="13.4439818"><ele>412.0</ele><time>2026-05-02T14:08:58.772Z</time></trkpt><trkpt lat="46.126615" lon="13.443949"><ele>410.0</ele><time>2026-05-02T14:08:59.775Z</time></trkpt><trkpt lat="46.1265486" lon="13.4439168"><ele>408.00000000000006</ele><time>2026-05-02T14:09:00.777Z</time></trkpt><trkpt lat="46.1264837" lon="13.4438851"><ele>406.0</ele><time>2026-05-02T14:09:01.775Z</time></trkpt><trkpt lat="46.1264197" lon="13.443857"><ele>406.00000000000006</ele><time>2026-05-02T14:09:02.785Z</time></trkpt><trkpt lat="46.1263506" lon="13.4438251"><ele>406.0</ele><time>2026-05-02T14:09:03.766Z</time></trkpt><trkpt lat="46.126287" lon="13.4437906"><ele>406.0</ele><time>2026-05-02T14:09:04.773Z</time></trkpt><trkpt lat="46.1262078" lon="13.4437167"><ele>406.0</ele><time>2026-05-02T14:09:06.777Z</time></trkpt><trkpt lat="46.1261365" lon="13.4436567"><ele>406.00000000000006</ele><time>2026-05-02T14:09:08.772Z</time></trkpt><trkpt lat="46.126054" lon="13.4435876"><ele>406.0</ele><time>2026-05-02T14:09:10.781Z</time></trkpt><trkpt lat="46.1259723" lon="13.4435256"><ele>403.75</ele><time>2026-05-02T14:09:12.771Z</time></trkpt><trkpt lat="46.1258346" lon="13.4433791"><ele>401.5</ele><time>2026-05-02T14:09:15.777Z</time></trkpt><trkpt lat="46.1257856" lon="13.4433191"><ele>399.25</ele><time>2026-05-02T14:09:16.779Z</time></trkpt><trkpt lat="46.1257083" lon="13.4431951"><ele>397.0</ele><time>2026-05-02T14:09:18.778Z</time></trkpt><trkpt lat="46.1256336" lon="13.4430546"><ele>398.0</ele><time>2026-05-02T14:09:20.772Z</time></trkpt><trkpt lat="46.1255322" lon="13.4428217"><ele>399.0</ele><time>2026-05-02T14:09:23.778Z</time></trkpt><trkpt lat="46.1255077" lon="13.4427334"><ele>400.0</ele><time>2026-05-02T14:09:24.769Z</time></trkpt><trkpt lat="46.1254854" lon="13.4426429"><ele>401.0</ele><time>2026-05-02T14:09:25.786Z</time></trkpt><trkpt lat="46.1254438" lon="13.4424943"><ele>402.0</ele><time>2026-05-02T14:09:27.781Z</time></trkpt><trkpt lat="46.1254125" lon="13.4423792"><ele>402.0</ele><time>2026-05-02T14:09:29.772Z</time></trkpt><trkpt lat="46.1253885" lon="13.4422605"><ele>402.0</ele><time>2026-05-02T14:09:31.778Z</time></trkpt><trkpt lat="46.1253874" lon="13.4421583"><ele>402.0</ele><time>2026-05-02T14:09:38.784Z</time></trkpt><trkpt lat="46.1254138" lon="13.4419529"><ele>402.0</ele><time>2026-05-02T14:09:44.775Z</time></trkpt><trkpt lat="46.1254014" lon="13.4418533"><ele>402.0</ele><time>2026-05-02T14:09:46.774Z</time></trkpt><trkpt lat="46.125379" lon="13.4416942"><ele>402.75</ele><time>2026-05-02T14:09:48.781Z</time></trkpt><trkpt lat="46.1253462" lon="13.4415689"><ele>403.5</ele><time>2026-05-02T14:09:50.777Z</time></trkpt><trkpt lat="46.1253123" lon="13.4414161"><ele>404.25</ele><time>2026-05-02T14:09:52.779Z</time></trkpt><trkpt lat="46.1252478" lon="13.4412285"><ele>405.0</ele><time>2026-05-02T14:09:55.791Z</time></trkpt><trkpt lat="46.1252159" lon="13.4410757"><ele>402.25</ele><time>2026-05-02T14:09:57.778Z</time></trkpt><trkpt lat="46.1252429" lon="13.4409045"><ele>399.5</ele><time>2026-05-02T14:09:59.771Z</time></trkpt><trkpt lat="46.1252961" lon="13.4407322"><ele>396.75</ele><time>2026-05-02T14:10:01.784Z</time></trkpt><trkpt lat="46.1253332" lon="13.4405574"><ele>394.0</ele><time>2026-05-02T14:10:03.774Z</time></trkpt><trkpt lat="46.12535" lon="13.4404567"><ele>391.79999999999995</ele><time>2026-05-02T14:10:04.773Z</time></trkpt><trkpt lat="46.1253605" lon="13.4403567"><ele>389.59999999999997</ele><time>2026-05-02T14:10:05.774Z</time></trkpt><trkpt lat="46.1253715" lon="13.4402014"><ele>387.4</ele><time>2026-05-02T14:10:07.773Z</time></trkpt><trkpt lat="46.1253788" lon="13.4400708"><ele>385.2</ele><time>2026-05-02T14:10:09.771Z</time></trkpt><trkpt lat="46.1253611" lon="13.4399589"><ele>383.0</ele><time>2026-05-02T14:10:11.772Z</time></trkpt><trkpt lat="46.1253042" lon="13.439823"><ele>383.0</ele><time>2026-05-02T14:10:13.781Z</time></trkpt><trkpt lat="46.1252612" lon="13.4397504"><ele>383.0</ele><time>2026-05-02T14:10:14.772Z</time></trkpt><trkpt lat="46.1252112" lon="13.4396736"><ele>383.0</ele><time>2026-05-02T14:10:15.785Z</time></trkpt><trkpt lat="46.1251569" lon="13.439605"><ele>383.0</ele><time>2026-05-02T14:10:16.769Z</time></trkpt><trkpt lat="46.1251033" lon="13.4395397"><ele>383.0</ele><time>2026-05-02T14:10:17.769Z</time></trkpt><trkpt lat="46.1250216" lon="13.4394356"><ele>383.0</ele><time>2026-05-02T14:10:19.773Z</time></trkpt><trkpt lat="46.1249419" lon="13.4393087"><ele>378.5</ele><time>2026-05-02T14:10:21.771Z</time></trkpt><trkpt lat="46.1248678" lon="13.4391543"><ele>374.0</ele><time>2026-05-02T14:10:23.769Z</time></trkpt><trkpt lat="46.1248129" lon="13.4390268"><ele>369.5</ele><time>2026-05-02T14:10:25.773Z</time></trkpt><trkpt lat="46.1247648" lon="13.4388909"><ele>365.0</ele><time>2026-05-02T14:10:27.783Z</time></trkpt><trkpt lat="46.1247249" lon="13.4387339"><ele>361.0</ele><time>2026-05-02T14:10:29.774Z</time></trkpt><trkpt lat="46.1246706" lon="13.4386257"><ele>357.0</ele><time>2026-05-02T14:10:31.776Z</time></trkpt><trkpt lat="46.1245856" lon="13.4385627"><ele>353.0</ele><time>2026-05-02T14:10:33.779Z</time></trkpt><trkpt lat="46.1244828" lon="13.438563"><ele>349.0</ele><time>2026-05-02T14:10:35.771Z</time></trkpt><trkpt lat="46.1243829" lon="13.4385982"><ele>345.0</ele><time>2026-05-02T14:10:37.772Z</time></trkpt><trkpt lat="46.1242683" lon="13.4386365"><ele>345.0</ele><time>2026-05-02T14:10:39.765Z</time></trkpt><trkpt lat="46.1241584" lon="13.438678"><ele>345.0</ele><time>2026-05-02T14:10:41.771Z</time></trkpt><trkpt lat="46.124072" lon="13.4387603"><ele>345.0</ele><time>2026-05-02T14:10:43.774Z</time></trkpt><trkpt lat="46.1239131" lon="13.4389189"><ele>345.0</ele><time>2026-05-02T14:10:47.785Z</time></trkpt><trkpt lat="46.1238161" lon="13.4389656"><ele>346.6</ele><time>2026-05-02T14:10:49.77Z</time></trkpt><trkpt lat="46.12372" lon="13.4390132"><ele>348.2</ele><time>2026-05-02T14:10:51.772Z</time></trkpt><trkpt lat="46.1236154" lon="13.4390486"><ele>349.79999999999995</ele><time>2026-05-02T14:10:53.774Z</time></trkpt><trkpt lat="46.1235039" lon="13.4390686"><ele>351.4</ele><time>2026-05-02T14:10:55.771Z</time></trkpt><trkpt lat="46.1233906" lon="13.4390523"><ele>353.0</ele><time>2026-05-02T14:10:57.778Z</time></trkpt><trkpt lat="46.1232687" lon="13.4390241"><ele>353.5</ele><time>2026-05-02T14:10:59.784Z</time></trkpt><trkpt lat="46.123153" lon="13.4390054"><ele>354.0</ele><time>2026-05-02T14:11:01.781Z</time></trkpt><trkpt lat="46.1230507" lon="13.4390054"><ele>354.5</ele><time>2026-05-02T14:11:03.777Z</time></trkpt><trkpt lat="46.1229563" lon="13.4389772"><ele>355.0</ele><time>2026-05-02T14:11:05.77Z</time></trkpt><trkpt lat="46.1227973" lon="13.4388939"><ele>355.0</ele><time>2026-05-02T14:11:08.773Z</time></trkpt><trkpt lat="46.1226872" lon="13.4388765"><ele>355.0</ele><time>2026-05-02T14:11:10.773Z</time></trkpt><trkpt lat="46.1225628" lon="13.4388517"><ele>355.0</ele><time>2026-05-02T14:11:12.764Z</time></trkpt><trkpt lat="46.1224993" lon="13.438843"><ele>355.0</ele><time>2026-05-02T14:11:13.776Z</time></trkpt><trkpt lat="46.1223865" lon="13.4388462"><ele>355.0</ele><time>2026-05-02T14:11:15.772Z</time></trkpt><trkpt lat="46.1222666" lon="13.438827"><ele>355.16666666666663</ele><time>2026-05-02T14:11:17.776Z</time></trkpt><trkpt lat="46.1222039" lon="13.4388098"><ele>355.3333333333333</ele><time>2026-05-02T14:11:18.768Z</time></trkpt><trkpt lat="46.122088" lon="13.4387731"><ele>355.5</ele><time>2026-05-02T14:11:20.776Z</time></trkpt><trkpt lat="46.1219769" lon="13.4387415"><ele>355.6666666666667</ele><time>2026-05-02T14:11:22.78Z</time></trkpt><trkpt lat="46.1219123" lon="13.4387328"><ele>355.83333333333337</ele><time>2026-05-02T14:11:23.778Z</time></trkpt><trkpt lat="46.1218423" lon="13.4387235"><ele>356.0</ele><time>2026-05-02T14:11:24.776Z</time></trkpt><trkpt lat="46.1217784" lon="13.4387254"><ele>350.5</ele><time>2026-05-02T14:11:25.767Z</time></trkpt><trkpt lat="46.1216699" lon="13.4387267"><ele>345.0</ele><time>2026-05-02T14:11:27.78Z</time></trkpt><trkpt lat="46.1214918" lon="13.4385992"><ele>339.5</ele><time>2026-05-02T14:11:31.768Z</time></trkpt><trkpt lat="46.1213923" lon="13.4385434"><ele>334.0</ele><time>2026-05-02T14:11:33.775Z</time></trkpt><trkpt lat="46.1212878" lon="13.4385583"><ele>334.0</ele><time>2026-05-02T14:11:35.774Z</time></trkpt><trkpt lat="46.1211901" lon="13.438547"><ele>334.0</ele><time>2026-05-02T14:11:37.784Z</time></trkpt><trkpt lat="46.121117" lon="13.4384756"><ele>334.0</ele><time>2026-05-02T14:11:39.775Z</time></trkpt><trkpt lat="46.1210513" lon="13.4383509"><ele>334.0</ele><time>2026-05-02T14:11:41.767Z</time></trkpt><trkpt lat="46.1209825" lon="13.4382392"><ele>334.0</ele><time>2026-05-02T14:11:43.768Z</time></trkpt><trkpt lat="46.1208905" lon="13.4381843"><ele>334.0</ele><time>2026-05-02T14:11:45.764Z</time></trkpt><trkpt lat="46.1208001" lon="13.4381726"><ele>334.0</ele><time>2026-05-02T14:11:47.769Z</time></trkpt><trkpt lat="46.1207203" lon="13.438156"><ele>334.0</ele><time>2026-05-02T14:11:49.777Z</time></trkpt><trkpt lat="46.120583" lon="13.4380156"><ele>334.0</ele><time>2026-05-02T14:11:53.775Z</time></trkpt><trkpt lat="46.1205474" lon="13.43786"><ele>334.5</ele><time>2026-05-02T14:11:55.775Z</time></trkpt><trkpt lat="46.1205391" lon="13.4377658"><ele>335.0</ele><time>2026-05-02T14:11:56.765Z</time></trkpt><trkpt lat="46.1205367" lon="13.4375826"><ele>335.5</ele><time>2026-05-02T14:11:58.78Z</time></trkpt><trkpt lat="46.1205352" lon="13.4374071"><ele>336.0</ele><time>2026-05-02T14:12:00.785Z</time></trkpt><trkpt lat="46.1205138" lon="13.4371479"><ele>333.1666666666667</ele><time>2026-05-02T14:12:03.773Z</time></trkpt><trkpt lat="46.1204998" lon="13.437057"><ele>330.3333333333333</ele><time>2026-05-02T14:12:04.769Z</time></trkpt><trkpt lat="46.1204778" lon="13.4369703"><ele>327.5</ele><time>2026-05-02T14:12:05.779Z</time></trkpt><trkpt lat="46.1204426" lon="13.4368888"><ele>324.66666666666663</ele><time>2026-05-02T14:12:06.766Z</time></trkpt><trkpt lat="46.1203913" lon="13.436731"><ele>321.8333333333333</ele><time>2026-05-02T14:12:08.769Z</time></trkpt><trkpt lat="46.1203643" lon="13.436551"><ele>319.0</ele><time>2026-05-02T14:12:10.778Z</time></trkpt><trkpt lat="46.120322" lon="13.4363698"><ele>314.4</ele><time>2026-05-02T14:12:12.772Z</time></trkpt><trkpt lat="46.1202647" lon="13.4362347"><ele>309.79999999999995</ele><time>2026-05-02T14:12:14.781Z</time></trkpt><trkpt lat="46.1201701" lon="13.4361243"><ele>305.20000000000005</ele><time>2026-05-02T14:12:16.783Z</time></trkpt><trkpt lat="46.1200731" lon="13.4360433"><ele>300.6</ele><time>2026-05-02T14:12:18.772Z</time></trkpt><trkpt lat="46.1199841" lon="13.4359748"><ele>296.0</ele><time>2026-05-02T14:12:20.78Z</time></trkpt><trkpt lat="46.1198917" lon="13.4359638"><ele>294.1666666666667</ele><time>2026-05-02T14:12:22.768Z</time></trkpt><trkpt lat="46.1197831" lon="13.4360034"><ele>292.33333333333337</ele><time>2026-05-02T14:12:24.77Z</time></trkpt><trkpt lat="46.1197212" lon="13.4360412"><ele>290.5</ele><time>2026-05-02T14:12:25.784Z</time></trkpt><trkpt lat="46.1196555" lon="13.4360818"><ele>288.6666666666667</ele><time>2026-05-02T14:12:26.771Z</time></trkpt><trkpt lat="46.119585" lon="13.436103"><ele>286.8333333333333</ele><time>2026-05-02T14:12:27.771Z</time></trkpt><trkpt lat="46.119522" lon="13.4361278"><ele>285.0</ele><time>2026-05-02T14:12:28.778Z</time></trkpt><trkpt lat="46.1194066" lon="13.4361752"><ele>285.0</ele><time>2026-05-02T14:12:30.772Z</time></trkpt><trkpt lat="46.119347" lon="13.4362087"><ele>285.0</ele><time>2026-05-02T14:12:31.777Z</time></trkpt><trkpt lat="46.1191166" lon="13.4363395"><ele>285.0</ele><time>2026-05-02T14:12:35.777Z</time></trkpt><trkpt lat="46.1190009" lon="13.4363915"><ele>285.0</ele><time>2026-05-02T14:12:37.765Z</time></trkpt><trkpt lat="46.1188872" lon="13.4364219"><ele>286.4</ele><time>2026-05-02T14:12:39.771Z</time></trkpt><trkpt lat="46.1187842" lon="13.436461"><ele>287.8</ele><time>2026-05-02T14:12:41.782Z</time></trkpt><trkpt lat="46.1186894" lon="13.4365415"><ele>289.2</ele><time>2026-05-02T14:12:43.767Z</time></trkpt><trkpt lat="46.1185917" lon="13.4365946"><ele>290.6</ele><time>2026-05-02T14:12:45.771Z</time></trkpt><trkpt lat="46.1185036" lon="13.4366164"><ele>292.0</ele><time>2026-05-02T14:12:47.774Z</time></trkpt><trkpt lat="46.1184171" lon="13.4366161"><ele>292.0</ele><time>2026-05-02T14:12:49.77Z</time></trkpt><trkpt lat="46.1183287" lon="13.4366146"><ele>292.0</ele><time>2026-05-02T14:12:51.777Z</time></trkpt><trkpt lat="46.1182424" lon="13.4366073"><ele>292.0</ele><time>2026-05-02T14:12:53.768Z</time></trkpt><trkpt lat="46.1180673" lon="13.4364884"><ele>292.0</ele><time>2026-05-02T14:12:57.768Z</time></trkpt><trkpt lat="46.1179623" lon="13.4364217"><ele>291.75</ele><time>2026-05-02T14:12:59.773Z</time></trkpt><trkpt lat="46.1178514" lon="13.4363707"><ele>291.5</ele><time>2026-05-02T14:13:01.775Z</time></trkpt><trkpt lat="46.1177315" lon="13.4363342"><ele>291.25</ele><time>2026-05-02T14:17:45.773Z</time></trkpt><trkpt lat="46.1175957" lon="13.4363219"><ele>291.0</ele><time>2026-05-02T14:17:50.78Z</time></trkpt><trkpt lat="46.1175153" lon="13.4363119"><ele>291.1666666666667</ele><time>2026-05-02T14:17:52.779Z</time></trkpt><trkpt lat="46.1174312" lon="13.4362967"><ele>291.3333333333333</ele><time>2026-05-02T14:17:54.771Z</time></trkpt><trkpt lat="46.1173306" lon="13.4362462"><ele>291.5</ele><time>2026-05-02T14:17:56.77Z</time></trkpt><trkpt lat="46.1172373" lon="13.4361633"><ele>291.66666666666663</ele><time>2026-05-02T14:17:58.777Z</time></trkpt><trkpt lat="46.1171903" lon="13.4360999"><ele>291.8333333333333</ele><time>2026-05-02T14:17:59.766Z</time></trkpt><trkpt lat="46.1171426" lon="13.4360248"><ele>292.0</ele><time>2026-05-02T14:18:00.77Z</time></trkpt><trkpt lat="46.1170934" lon="13.4359441"><ele>292.0</ele><time>2026-05-02T14:18:01.778Z</time></trkpt><trkpt lat="46.1170518" lon="13.4358709"><ele>292.0</ele><time>2026-05-02T14:18:02.776Z</time></trkpt><trkpt lat="46.1170076" lon="13.4357958"><ele>292.0</ele><time>2026-05-02T14:18:03.782Z</time></trkpt><trkpt lat="46.1169686" lon="13.4357124"><ele>292.0</ele><time>2026-05-02T14:18:04.77Z</time></trkpt><trkpt lat="46.1169277" lon="13.4356229"><ele>292.0</ele><time>2026-05-02T14:18:05.765Z</time></trkpt><trkpt lat="46.1168769" lon="13.4355408"><ele>292.0</ele><time>2026-05-02T14:18:06.767Z</time></trkpt><trkpt lat="46.1167475" lon="13.4354305"><ele>292.5</ele><time>2026-05-02T14:18:08.768Z</time></trkpt><trkpt lat="46.1166792" lon="13.4353692"><ele>293.0</ele><time>2026-05-02T14:18:09.77Z</time></trkpt><trkpt lat="46.116614" lon="13.4353124"><ele>293.5</ele><time>2026-05-02T14:18:10.77Z</time></trkpt><trkpt lat="46.1165476" lon="13.4352416"><ele>294.0</ele><time>2026-05-02T14:18:11.768Z</time></trkpt><trkpt lat="46.1164781" lon="13.4351873"><ele>294.5</ele><time>2026-05-02T14:18:12.768Z</time></trkpt><trkpt lat="46.1164078" lon="13.435134"><ele>295.0</ele><time>2026-05-02T14:18:13.771Z</time></trkpt><trkpt lat="46.1163407" lon="13.4350941"><ele>295.00000000000006</ele><time>2026-05-02T14:18:14.767Z</time></trkpt><trkpt lat="46.1162764" lon="13.4350505"><ele>295.0</ele><time>2026-05-02T14:18:15.769Z</time></trkpt><trkpt lat="46.1162057" lon="13.4350106"><ele>295.0</ele><time>2026-05-02T14:18:16.776Z</time></trkpt><trkpt lat="46.1161352" lon="13.4349729"><ele>295.0</ele><time>2026-05-02T14:18:17.767Z</time></trkpt><trkpt lat="46.1160699" lon="13.4349335"><ele>295.0</ele><time>2026-05-02T14:18:18.775Z</time></trkpt><trkpt lat="46.1160071" lon="13.4348797"><ele>295.00000000000006</ele><time>2026-05-02T14:18:19.773Z</time></trkpt><trkpt lat="46.1159482" lon="13.4348199"><ele>295.0</ele><time>2026-05-02T14:18:20.77Z</time></trkpt><trkpt lat="46.115891" lon="13.4347602"><ele>295.0</ele><time>2026-05-02T14:18:21.772Z</time></trkpt><trkpt lat="46.1158379" lon="13.4346824"><ele>295.0</ele><time>2026-05-02T14:18:22.772Z</time></trkpt><trkpt lat="46.1157914" lon="13.4345818"><ele>295.0</ele><time>2026-05-02T14:18:23.771Z</time></trkpt><trkpt lat="46.1157486" lon="13.4344712"><ele>295.0</ele><time>2026-05-02T14:18:24.769Z</time></trkpt><trkpt lat="46.1157212" lon="13.4343521"><ele>295.0</ele><time>2026-05-02T14:18:25.772Z</time></trkpt><trkpt lat="46.1157075" lon="13.434224"><ele>295.0</ele><time>2026-05-02T14:18:26.78Z</time></trkpt><trkpt lat="46.1156854" lon="13.4341094"><ele>295.4</ele><time>2026-05-02T14:18:27.768Z</time></trkpt><trkpt lat="46.115624" lon="13.4338803"><ele>295.8</ele><time>2026-05-02T14:18:29.774Z</time></trkpt><trkpt lat="46.1155974" lon="13.4337607"><ele>296.2</ele><time>2026-05-02T14:18:30.778Z</time></trkpt><trkpt lat="46.1155695" lon="13.4336645"><ele>296.6</ele><time>2026-05-02T14:18:31.772Z</time></trkpt><trkpt lat="46.1155473" lon="13.4335607"><ele>297.0</ele><time>2026-05-02T14:18:32.771Z</time></trkpt><trkpt lat="46.1155285" lon="13.4334703"><ele>297.0</ele><time>2026-05-02T14:18:33.775Z</time></trkpt><trkpt lat="46.1154829" lon="13.4333462"><ele>297.0</ele><time>2026-05-02T14:18:35.765Z</time></trkpt><trkpt lat="46.1153758" lon="13.4332805"><ele>297.0</ele><time>2026-05-02T14:18:37.767Z</time></trkpt><trkpt lat="46.1153141" lon="13.4332611"><ele>297.0</ele><time>2026-05-02T14:18:38.771Z</time></trkpt><trkpt lat="46.1152534" lon="13.4332257"><ele>297.0</ele><time>2026-05-02T14:18:39.777Z</time></trkpt><trkpt lat="46.1151542" lon="13.4331347"><ele>297.0</ele><time>2026-05-02T14:18:41.772Z</time></trkpt><trkpt lat="46.115111" lon="13.4330662"><ele>297.0</ele><time>2026-05-02T14:18:42.768Z</time></trkpt><trkpt lat="46.1150754" lon="13.4329907"><ele>297.0</ele><time>2026-05-02T14:18:43.765Z</time></trkpt><trkpt lat="46.1150438" lon="13.4329057"><ele>297.0</ele><time>2026-05-02T14:18:44.774Z</time></trkpt><trkpt lat="46.1150188" lon="13.4328156"><ele>297.0</ele><time>2026-05-02T14:18:45.775Z</time></trkpt><trkpt lat="46.1149997" lon="13.432719"><ele>297.0</ele><time>2026-05-02T14:18:46.775Z</time></trkpt><trkpt lat="46.1149779" lon="13.4326263"><ele>297.0</ele><time>2026-05-02T14:18:47.765Z</time></trkpt><trkpt lat="46.1149684" lon="13.4325336"><ele>297.8</ele><time>2026-05-02T14:18:48.781Z</time></trkpt><trkpt lat="46.1149445" lon="13.4324287"><ele>298.6</ele><time>2026-05-02T14:18:49.776Z</time></trkpt><trkpt lat="46.114895" lon="13.432141"><ele>299.40000000000003</ele><time>2026-05-02T14:18:52.777Z</time></trkpt><trkpt lat="46.1148725" lon="13.4320485"><ele>300.2</ele><time>2026-05-02T14:18:53.769Z</time></trkpt><trkpt lat="46.1148489" lon="13.4319617"><ele>301.0</ele><time>2026-05-02T14:18:54.77Z</time></trkpt><trkpt lat="46.114805" lon="13.4317947"><ele>298.5</ele><time>2026-05-02T14:18:56.774Z</time></trkpt><trkpt lat="46.1147801" lon="13.4316267"><ele>296.0</ele><time>2026-05-02T14:18:58.771Z</time></trkpt><trkpt lat="46.1147851" lon="13.4315256"><ele>293.5</ele><time>2026-05-02T14:18:59.78Z</time></trkpt><trkpt lat="46.1148006" lon="13.4314243"><ele>291.0</ele><time>2026-05-02T14:19:00.767Z</time></trkpt><trkpt lat="46.114827" lon="13.4313332"><ele>288.5</ele><time>2026-05-02T14:19:01.768Z</time></trkpt><trkpt lat="46.114854" lon="13.4312315"><ele>286.0</ele><time>2026-05-02T14:19:02.771Z</time></trkpt><trkpt lat="46.1148798" lon="13.4311221"><ele>282.8333333333333</ele><time>2026-05-02T14:19:03.774Z</time></trkpt><trkpt lat="46.1149099" lon="13.4310261"><ele>279.66666666666663</ele><time>2026-05-02T14:19:04.764Z</time></trkpt><trkpt lat="46.1149352" lon="13.4309293"><ele>276.5</ele><time>2026-05-02T14:19:05.769Z</time></trkpt><trkpt lat="46.1149519" lon="13.4308162"><ele>273.3333333333333</ele><time>2026-05-02T14:19:06.77Z</time></trkpt><trkpt lat="46.1149761" lon="13.4306996"><ele>270.1666666666667</ele><time>2026-05-02T14:19:07.768Z</time></trkpt><trkpt lat="46.1149952" lon="13.4305886"><ele>267.0</ele><time>2026-05-02T14:19:08.768Z</time></trkpt><trkpt lat="46.1150102" lon="13.4304878"><ele>266.0</ele><time>2026-05-02T14:19:09.772Z</time></trkpt><trkpt lat="46.1150071" lon="13.4303462"><ele>265.0</ele><time>2026-05-02T14:19:11.775Z</time></trkpt><trkpt lat="46.1148529" lon="13.4301669"><ele>264.0</ele><time>2026-05-02T14:19:15.768Z</time></trkpt><trkpt lat="46.1147258" lon="13.4301646"><ele>263.0</ele><time>2026-05-02T14:19:17.774Z</time></trkpt><trkpt lat="46.1146573" lon="13.4301793"><ele>263.83333333333337</ele><time>2026-05-02T14:19:18.771Z</time></trkpt><trkpt lat="46.1145773" lon="13.4301912"><ele>264.6666666666667</ele><time>2026-05-02T14:19:19.765Z</time></trkpt><trkpt lat="46.1145057" lon="13.4302155"><ele>265.5</ele><time>2026-05-02T14:19:20.775Z</time></trkpt><trkpt lat="46.114442" lon="13.4302359"><ele>266.3333333333333</ele><time>2026-05-02T14:19:21.761Z</time></trkpt><trkpt lat="46.1143421" lon="13.4302988"><ele>267.16666666666663</ele><time>2026-05-02T14:19:23.776Z</time></trkpt><trkpt lat="46.1142594" lon="13.4304025"><ele>268.0</ele><time>2026-05-02T14:19:25.771Z</time></trkpt><trkpt lat="46.1141947" lon="13.4305191"><ele>268.0</ele><time>2026-05-02T14:19:27.767Z</time></trkpt><trkpt lat="46.1141376" lon="13.4306343"><ele>268.0</ele><time>2026-05-02T14:19:29.77Z</time></trkpt><trkpt lat="46.114083" lon="13.4307645"><ele>268.0</ele><time>2026-05-02T14:19:31.768Z</time></trkpt><trkpt lat="46.1140201" lon="13.4308885"><ele>268.0</ele><time>2026-05-02T14:19:33.773Z</time></trkpt><trkpt lat="46.1138347" lon="13.4310721"><ele>265.16666666666663</ele><time>2026-05-02T14:19:37.769Z</time></trkpt><trkpt lat="46.113726" lon="13.4311127"><ele>262.3333333333333</ele><time>2026-05-02T14:19:39.763Z</time></trkpt><trkpt lat="46.113638" lon="13.4311351"><ele>259.5</ele><time>2026-05-02T14:19:41.768Z</time></trkpt><trkpt lat="46.1135637" lon="13.4311595"><ele>256.6666666666667</ele><time>2026-05-02T14:19:43.767Z</time></trkpt><trkpt lat="46.1134841" lon="13.4311957"><ele>253.83333333333334</ele><time>2026-05-02T14:19:45.777Z</time></trkpt><trkpt lat="46.1134177" lon="13.4312389"><ele>251.0</ele><time>2026-05-02T14:19:47.771Z</time></trkpt><trkpt lat="46.1133404" lon="13.4312447"><ele>251.0</ele><time>2026-05-02T14:19:49.775Z</time></trkpt><trkpt lat="46.1132561" lon="13.4311787"><ele>251.00000000000003</ele><time>2026-05-02T14:19:51.77Z</time></trkpt><trkpt lat="46.1131565" lon="13.4310506"><ele>251.00000000000003</ele><time>2026-05-02T14:19:53.776Z</time></trkpt><trkpt lat="46.1130989" lon="13.430986"><ele>251.0</ele><time>2026-05-02T14:19:54.771Z</time></trkpt><trkpt lat="46.1129684" lon="13.4309281"><ele>251.0</ele><time>2026-05-02T14:19:56.768Z</time></trkpt><trkpt lat="46.1128958" lon="13.4309164"><ele>250.8</ele><time>2026-05-02T14:19:57.762Z</time></trkpt><trkpt lat="46.1127844" lon="13.4309021"><ele>250.60000000000002</ele><time>2026-05-02T14:19:59.768Z</time></trkpt><trkpt lat="46.1126926" lon="13.4309222"><ele>250.4</ele><time>2026-05-02T14:20:01.777Z</time></trkpt><trkpt lat="46.1125944" lon="13.430912"><ele>250.2</ele><time>2026-05-02T14:20:03.764Z</time></trkpt><trkpt lat="46.1124867" lon="13.430859"><ele>250.0</ele><time>2026-05-02T14:20:05.762Z</time></trkpt><trkpt lat="46.1124312" lon="13.4308144"><ele>248.8</ele><time>2026-05-02T14:20:06.775Z</time></trkpt><trkpt lat="46.1123514" lon="13.4306742"><ele>247.6</ele><time>2026-05-02T14:20:08.776Z</time></trkpt><trkpt lat="46.1123208" lon="13.4305911"><ele>246.39999999999998</ele><time>2026-05-02T14:20:09.771Z</time></trkpt><trkpt lat="46.1122501" lon="13.4304645"><ele>245.2</ele><time>2026-05-02T14:20:11.763Z</time></trkpt><trkpt lat="46.1121656" lon="13.4303929"><ele>244.0</ele><time>2026-05-02T14:20:13.769Z</time></trkpt><trkpt lat="46.112094" lon="13.430332"><ele>244.0</ele><time>2026-05-02T14:20:15.776Z</time></trkpt><trkpt lat="46.1119664" lon="13.4301726"><ele>243.99999999999997</ele><time>2026-05-02T14:20:19.779Z</time></trkpt><trkpt lat="46.1119017" lon="13.4301116"><ele>243.99999999999997</ele><time>2026-05-02T14:20:21.775Z</time></trkpt><trkpt lat="46.1118192" lon="13.4300043"><ele>244.0</ele><time>2026-05-02T14:20:23.767Z</time></trkpt><trkpt lat="46.1117707" lon="13.4299189"><ele>244.0</ele><time>2026-05-02T14:20:24.784Z</time></trkpt><trkpt lat="46.1117198" lon="13.429836"><ele>244.0</ele><time>2026-05-02T14:20:25.766Z</time></trkpt><trkpt lat="46.1116145" lon="13.4297068"><ele>243.99999999999997</ele><time>2026-05-02T14:20:27.778Z</time></trkpt><trkpt lat="46.1115565" lon="13.4296579"><ele>243.99999999999997</ele><time>2026-05-02T14:20:28.766Z</time></trkpt><trkpt lat="46.1114457" lon="13.4295694"><ele>244.0</ele><time>2026-05-02T14:20:30.773Z</time></trkpt><trkpt lat="46.1113512" lon="13.4294767"><ele>244.0</ele><time>2026-05-02T14:20:32.769Z</time></trkpt><trkpt lat="46.11123" lon="13.429414"><ele>243.0</ele><time>2026-05-02T14:20:34.768Z</time></trkpt><trkpt lat="46.1111609" lon="13.4293748"><ele>241.99999999999997</ele><time>2026-05-02T14:20:35.767Z</time></trkpt><trkpt lat="46.111089" lon="13.4293389"><ele>240.99999999999997</ele><time>2026-05-02T14:20:36.77Z</time></trkpt><trkpt lat="46.1109171" lon="13.429249"><ele>240.0</ele><time>2026-05-02T14:20:39.769Z</time></trkpt><trkpt lat="46.1108557" lon="13.4291892"><ele>239.0</ele><time>2026-05-02T14:20:41.766Z</time></trkpt><trkpt lat="46.110785" lon="13.4291302"><ele>239.0</ele><time>2026-05-02T14:20:43.772Z</time></trkpt><trkpt lat="46.1107079" lon="13.429068"><ele>238.99999999999997</ele><time>2026-05-02T14:20:45.762Z</time></trkpt><trkpt lat="46.1106539" lon="13.4289717"><ele>238.99999999999997</ele><time>2026-05-02T14:20:47.764Z</time></trkpt><trkpt lat="46.1106466" lon="13.4288212"><ele>239.0</ele><time>2026-05-02T14:20:49.763Z</time></trkpt><trkpt lat="46.1106632" lon="13.428676"><ele>239.0</ele><time>2026-05-02T14:20:51.771Z</time></trkpt><trkpt lat="46.1107133" lon="13.4285535"><ele>237.39999999999998</ele><time>2026-05-02T14:20:53.765Z</time></trkpt><trkpt lat="46.1108115" lon="13.428454"><ele>235.79999999999998</ele><time>2026-05-02T14:20:55.773Z</time></trkpt><trkpt lat="46.1108573" lon="13.4283812"><ele>234.20000000000002</ele><time>2026-05-02T14:20:56.775Z</time></trkpt><trkpt lat="46.110903" lon="13.4282954"><ele>232.60000000000002</ele><time>2026-05-02T14:20:57.775Z</time></trkpt><trkpt lat="46.1109333" lon="13.4282156"><ele>231.0</ele><time>2026-05-02T14:20:58.772Z</time></trkpt><trkpt lat="46.1108402" lon="13.4279488"><ele>228.8</ele><time>2026-05-02T14:21:02.767Z</time></trkpt><trkpt lat="46.1107593" lon="13.4278016"><ele>226.60000000000002</ele><time>2026-05-02T14:21:04.771Z</time></trkpt><trkpt lat="46.1107279" lon="13.4276951"><ele>224.4</ele><time>2026-05-02T14:21:05.779Z</time></trkpt><trkpt lat="46.1107009" lon="13.427594"><ele>222.2</ele><time>2026-05-02T14:21:06.766Z</time></trkpt><trkpt lat="46.110655" lon="13.4275229"><ele>220.0</ele><time>2026-05-02T14:21:07.779Z</time></trkpt><trkpt lat="46.110556" lon="13.4274603"><ele>219.99999999999997</ele><time>2026-05-02T14:21:09.777Z</time></trkpt><trkpt lat="46.1104866" lon="13.4274657"><ele>220.0</ele><time>2026-05-02T14:21:10.778Z</time></trkpt><trkpt lat="46.110404" lon="13.4274882"><ele>220.0</ele><time>2026-05-02T14:21:11.766Z</time></trkpt><trkpt lat="46.1103078" lon="13.4275026"><ele>220.0</ele><time>2026-05-02T14:21:12.774Z</time></trkpt><trkpt lat="46.1102228" lon="13.4275"><ele>219.99999999999997</ele><time>2026-05-02T14:21:13.769Z</time></trkpt><trkpt lat="46.1101449" lon="13.4274632"><ele>220.0</ele><time>2026-05-02T14:21:14.763Z</time></trkpt><trkpt lat="46.1100736" lon="13.4274156"><ele>219.99999999999997</ele><time>2026-05-02T14:21:15.767Z</time></trkpt><trkpt lat="46.1100022" lon="13.4273529"><ele>220.0</ele><time>2026-05-02T14:21:16.764Z</time></trkpt><trkpt lat="46.1099395" lon="13.4272963"><ele>220.0</ele><time>2026-05-02T14:21:17.764Z</time></trkpt><trkpt lat="46.1098899" lon="13.4272368"><ele>220.0</ele><time>2026-05-02T14:21:18.775Z</time></trkpt><trkpt lat="46.1098233" lon="13.4271543"><ele>219.99999999999997</ele><time>2026-05-02T14:21:20.767Z</time></trkpt><trkpt lat="46.1097372" lon="13.4270159"><ele>220.0</ele><time>2026-05-02T14:21:33.763Z</time></trkpt><trkpt lat="46.1097252" lon="13.4269128"><ele>220.33333333333331</ele><time>2026-05-02T14:21:35.767Z</time></trkpt><trkpt lat="46.1097017" lon="13.4267765"><ele>220.66666666666666</ele><time>2026-05-02T14:21:37.765Z</time></trkpt><trkpt lat="46.1096893" lon="13.4266868"><ele>221.0</ele><time>2026-05-02T14:21:38.778Z</time></trkpt><trkpt lat="46.1096765" lon="13.4265706"><ele>221.33333333333331</ele><time>2026-05-02T14:21:39.773Z</time></trkpt><trkpt lat="46.1096759" lon="13.4264381"><ele>221.66666666666666</ele><time>2026-05-02T14:21:40.769Z</time></trkpt><trkpt lat="46.1096731" lon="13.4263328"><ele>222.0</ele><time>2026-05-02T14:21:41.769Z</time></trkpt><trkpt lat="46.1097135" lon="13.4260132"><ele>223.0</ele><time>2026-05-02T14:21:44.762Z</time></trkpt><trkpt lat="46.1097318" lon="13.4259186"><ele>224.0</ele><time>2026-05-02T14:21:45.761Z</time></trkpt><trkpt lat="46.1097465" lon="13.425774"><ele>225.0</ele><time>2026-05-02T14:21:47.768Z</time></trkpt><trkpt lat="46.1097505" lon="13.4256495"><ele>226.0</ele><time>2026-05-02T14:21:49.779Z</time></trkpt><trkpt lat="46.109791" lon="13.4257832"><ele>227.0</ele><time>2026-05-02T14:22:07.767Z</time></trkpt><trkpt lat="46.1097376" lon="13.4260377"><ele>227.00000000000003</ele><time>2026-05-02T14:22:10.782Z</time></trkpt><trkpt lat="46.1097258" lon="13.4261426"><ele>227.0</ele><time>2026-05-02T14:22:11.764Z</time></trkpt><trkpt lat="46.1097268" lon="13.4262367"><ele>227.0</ele><time>2026-05-02T14:22:12.767Z</time></trkpt><trkpt lat="46.1097547" lon="13.4263791"><ele>227.0</ele><time>2026-05-02T14:22:14.765Z</time></trkpt><trkpt lat="46.1097744" lon="13.4265161"><ele>227.00000000000003</ele><time>2026-05-02T14:22:16.775Z</time></trkpt><trkpt lat="46.1097747" lon="13.4266205"><ele>227.0</ele><time>2026-05-02T14:22:18.772Z</time></trkpt><trkpt lat="46.109767" lon="13.4267112"><ele>226.0</ele><time>2026-05-02T14:22:28.767Z</time></trkpt><trkpt lat="46.1097924" lon="13.426981"><ele>225.0</ele><time>2026-05-02T14:22:38.774Z</time></trkpt><trkpt lat="46.1098384" lon="13.4270814"><ele>224.0</ele><time>2026-05-02T14:22:40.766Z</time></trkpt><trkpt lat="46.1098909" lon="13.4271478"><ele>223.0</ele><time>2026-05-02T14:22:42.764Z</time></trkpt><trkpt lat="46.1099425" lon="13.4272186"><ele>222.0</ele><time>2026-05-02T14:22:46.763Z</time></trkpt><trkpt lat="46.1098448" lon="13.4272075"><ele>222.0</ele><time>2026-05-02T14:22:51.772Z</time></trkpt><trkpt lat="46.1097205" lon="13.427127"><ele>222.0</ele><time>2026-05-02T14:22:53.776Z</time></trkpt><trkpt lat="46.1096588" lon="13.427086"><ele>222.0</ele><time>2026-05-02T14:22:54.766Z</time></trkpt><trkpt lat="46.1095828" lon="13.4270159"><ele>222.0</ele><time>2026-05-02T14:22:55.76Z</time></trkpt><trkpt lat="46.1095196" lon="13.4269546"><ele>222.0</ele><time>2026-05-02T14:22:56.773Z</time></trkpt><trkpt lat="46.1094513" lon="13.4269151"><ele>222.0</ele><time>2026-05-02T14:22:57.771Z</time></trkpt><trkpt lat="46.1093593" lon="13.4268441"><ele>222.0</ele><time>2026-05-02T14:22:59.763Z</time></trkpt><trkpt lat="46.1092765" lon="13.4267429"><ele>222.0</ele><time>2026-05-02T14:23:01.765Z</time></trkpt><trkpt lat="46.1091988" lon="13.4266429"><ele>222.0</ele><time>2026-05-02T14:23:03.769Z</time></trkpt><trkpt lat="46.1091284" lon="13.4265296"><ele>222.0</ele><time>2026-05-02T14:23:05.774Z</time></trkpt><trkpt lat="46.1090709" lon="13.4263639"><ele>222.0</ele><time>2026-05-02T14:23:07.764Z</time></trkpt><trkpt lat="46.1090503" lon="13.4262709"><ele>219.66666666666669</ele><time>2026-05-02T14:23:08.774Z</time></trkpt><trkpt lat="46.10903" lon="13.4260878"><ele>217.33333333333334</ele><time>2026-05-02T14:23:10.771Z</time></trkpt><trkpt lat="46.1089873" lon="13.4259236"><ele>215.0</ele><time>2026-05-02T14:23:12.762Z</time></trkpt><trkpt lat="46.1088053" lon="13.4257353"><ele>215.0</ele><time>2026-05-02T14:23:16.762Z</time></trkpt><trkpt lat="46.1087435" lon="13.4256815"><ele>215.0</ele><time>2026-05-02T14:23:17.77Z</time></trkpt><trkpt lat="46.1086885" lon="13.4256191"><ele>215.0</ele><time>2026-05-02T14:23:18.765Z</time></trkpt><trkpt lat="46.1086391" lon="13.4255611"><ele>215.0</ele><time>2026-05-02T14:23:19.78Z</time></trkpt><trkpt lat="46.1085828" lon="13.4255126"><ele>215.0</ele><time>2026-05-02T14:23:20.766Z</time></trkpt><trkpt lat="46.1085208" lon="13.4254654"><ele>215.0</ele><time>2026-05-02T14:23:21.772Z</time></trkpt><trkpt lat="46.1084434" lon="13.4254305"><ele>215.0</ele><time>2026-05-02T14:23:22.763Z</time></trkpt><trkpt lat="46.1083574" lon="13.4254056"><ele>213.8</ele><time>2026-05-02T14:23:23.761Z</time></trkpt><trkpt lat="46.1082849" lon="13.4253913"><ele>212.6</ele><time>2026-05-02T14:23:24.768Z</time></trkpt><trkpt lat="46.1082124" lon="13.4253735"><ele>211.39999999999998</ele><time>2026-05-02T14:23:25.765Z</time></trkpt><trkpt lat="46.1080997" lon="13.4253555"><ele>210.2</ele><time>2026-05-02T14:23:27.767Z</time></trkpt><trkpt lat="46.1079918" lon="13.4253143"><ele>209.0</ele><time>2026-05-02T14:23:29.782Z</time></trkpt><trkpt lat="46.107913" lon="13.4252112"><ele>209.0</ele><time>2026-05-02T14:23:31.759Z</time></trkpt><trkpt lat="46.1078458" lon="13.4250815"><ele>209.0</ele><time>2026-05-02T14:23:33.765Z</time></trkpt><trkpt lat="46.1077599" lon="13.4247632"><ele>209.0</ele><time>2026-05-02T14:23:37.763Z</time></trkpt><trkpt lat="46.1077342" lon="13.4246751"><ele>209.0</ele><time>2026-05-02T14:23:38.774Z</time></trkpt><trkpt lat="46.1077026" lon="13.4245849"><ele>209.50000000000003</ele><time>2026-05-02T14:23:39.774Z</time></trkpt><trkpt lat="46.1076763" lon="13.4244944"><ele>210.0</ele><time>2026-05-02T14:23:40.778Z</time></trkpt><trkpt lat="46.1076453" lon="13.4244122"><ele>210.5</ele><time>2026-05-02T14:23:41.762Z</time></trkpt><trkpt lat="46.1076075" lon="13.4243221"><ele>211.0</ele><time>2026-05-02T14:23:42.772Z</time></trkpt><trkpt lat="46.1075662" lon="13.424221"><ele>211.50000000000003</ele><time>2026-05-02T14:23:43.773Z</time></trkpt><trkpt lat="46.1075191" lon="13.4241477"><ele>212.0</ele><time>2026-05-02T14:23:44.769Z</time></trkpt><trkpt lat="46.1074404" lon="13.4240406"><ele>210.5</ele><time>2026-05-02T14:23:46.764Z</time></trkpt><trkpt lat="46.1073739" lon="13.42399"><ele>209.0</ele><time>2026-05-02T14:23:48.77Z</time></trkpt><trkpt lat="46.1072759" lon="13.4240487"><ele>207.5</ele><time>2026-05-02T14:23:53.769Z</time></trkpt><trkpt lat="46.1072053" lon="13.4240755"><ele>206.0</ele><time>2026-05-02T14:23:54.768Z</time></trkpt><trkpt lat="46.1069753" lon="13.4241025"><ele>206.0</ele><time>2026-05-02T14:23:57.774Z</time></trkpt><trkpt lat="46.1068757" lon="13.424107"><ele>206.0</ele><time>2026-05-02T14:23:58.768Z</time></trkpt><trkpt lat="46.1067708" lon="13.4241111"><ele>206.0</ele><time>2026-05-02T14:23:59.762Z</time></trkpt><trkpt lat="46.1066757" lon="13.4241484"><ele>206.0</ele><time>2026-05-02T14:24:00.768Z</time></trkpt><trkpt lat="46.1065815" lon="13.4241831"><ele>206.0</ele><time>2026-05-02T14:24:01.774Z</time></trkpt><trkpt lat="46.1064939" lon="13.4242276"><ele>207.00000000000003</ele><time>2026-05-02T14:24:02.76Z</time></trkpt><trkpt lat="46.1064114" lon="13.4242664"><ele>208.0</ele><time>2026-05-02T14:24:03.781Z</time></trkpt><trkpt lat="46.106339" lon="13.4243129"><ele>209.0</ele><time>2026-05-02T14:24:04.777Z</time></trkpt><trkpt lat="46.1062728" lon="13.4243806"><ele>210.0</ele><time>2026-05-02T14:24:05.777Z</time></trkpt><trkpt lat="46.1062048" lon="13.4244514"><ele>211.00000000000003</ele><time>2026-05-02T14:24:06.772Z</time></trkpt><trkpt lat="46.1061286" lon="13.4244992"><ele>212.0</ele><time>2026-05-02T14:24:07.767Z</time></trkpt><trkpt lat="46.1060542" lon="13.4245429"><ele>212.0</ele><time>2026-05-02T14:24:08.775Z</time></trkpt><trkpt lat="46.1059702" lon="13.4245854"><ele>212.0</ele><time>2026-05-02T14:24:09.78Z</time></trkpt><trkpt lat="46.1058793" lon="13.4246288"><ele>212.0</ele><time>2026-05-02T14:24:10.776Z</time></trkpt><trkpt lat="46.1057829" lon="13.4246756"><ele>212.0</ele><time>2026-05-02T14:24:11.768Z</time></trkpt><trkpt lat="46.1056725" lon="13.4247201"><ele>212.0</ele><time>2026-05-02T14:24:12.763Z</time></trkpt><trkpt lat="46.1054456" lon="13.4247791"><ele>212.25</ele><time>2026-05-02T14:24:14.772Z</time></trkpt><trkpt lat="46.1053292" lon="13.4247662"><ele>212.5</ele><time>2026-05-02T14:24:15.764Z</time></trkpt><trkpt lat="46.1051112" lon="13.4247021"><ele>212.75</ele><time>2026-05-02T14:24:17.764Z</time></trkpt><trkpt lat="46.105003" lon="13.4246786"><ele>213.0</ele><time>2026-05-02T14:24:18.771Z</time></trkpt><trkpt lat="46.1048916" lon="13.4246809"><ele>212.25</ele><time>2026-05-02T14:24:19.762Z</time></trkpt><trkpt lat="46.1047717" lon="13.4246718"><ele>211.5</ele><time>2026-05-02T14:24:20.775Z</time></trkpt><trkpt lat="46.1046517" lon="13.424654"><ele>210.75</ele><time>2026-05-02T14:24:21.761Z</time></trkpt><trkpt lat="46.1045277" lon="13.4246196"><ele>210.0</ele><time>2026-05-02T14:24:22.771Z</time></trkpt><trkpt lat="46.104403" lon="13.424578"><ele>206.5</ele><time>2026-05-02T14:24:23.767Z</time></trkpt><trkpt lat="46.1042722" lon="13.4245396"><ele>203.0</ele><time>2026-05-02T14:24:24.772Z</time></trkpt><trkpt lat="46.104138" lon="13.4245217"><ele>199.5</ele><time>2026-05-02T14:24:25.779Z</time></trkpt><trkpt lat="46.1040162" lon="13.4245036"><ele>196.0</ele><time>2026-05-02T14:24:26.768Z</time></trkpt><trkpt lat="46.1039108" lon="13.4244759"><ele>194.60000000000002</ele><time>2026-05-02T14:24:27.766Z</time></trkpt><trkpt lat="46.1038156" lon="13.4244365"><ele>193.2</ele><time>2026-05-02T14:24:28.777Z</time></trkpt><trkpt lat="46.1037265" lon="13.4243839"><ele>191.8</ele><time>2026-05-02T14:24:29.767Z</time></trkpt><trkpt lat="46.1036319" lon="13.4243557"><ele>190.39999999999998</ele><time>2026-05-02T14:24:30.763Z</time></trkpt><trkpt lat="46.1035286" lon="13.4243674"><ele>189.0</ele><time>2026-05-02T14:24:31.764Z</time></trkpt><trkpt lat="46.1034397" lon="13.4244051"><ele>189.0</ele><time>2026-05-02T14:24:32.763Z</time></trkpt><trkpt lat="46.103354" lon="13.4244184"><ele>189.0</ele><time>2026-05-02T14:24:33.759Z</time></trkpt><trkpt lat="46.1032319" lon="13.424409"><ele>189.0</ele><time>2026-05-02T14:24:35.767Z</time></trkpt><trkpt lat="46.1031617" lon="13.4244242"><ele>189.0</ele><time>2026-05-02T14:24:36.775Z</time></trkpt><trkpt lat="46.1030134" lon="13.4244798"><ele>189.0</ele><time>2026-05-02T14:24:38.766Z</time></trkpt><trkpt lat="46.1029321" lon="13.4244864"><ele>187.6</ele><time>2026-05-02T14:24:39.771Z</time></trkpt><trkpt lat="46.102839" lon="13.4244523"><ele>186.2</ele><time>2026-05-02T14:24:40.775Z</time></trkpt><trkpt lat="46.1027394" lon="13.4243957"><ele>184.79999999999998</ele><time>2026-05-02T14:24:41.766Z</time></trkpt><trkpt lat="46.1026474" lon="13.4243413"><ele>183.39999999999998</ele><time>2026-05-02T14:24:42.766Z</time></trkpt><trkpt lat="46.1025625" lon="13.4242953"><ele>182.0</ele><time>2026-05-02T14:24:43.761Z</time></trkpt><trkpt lat="46.1024767" lon="13.4242652"><ele>180.66666666666666</ele><time>2026-05-02T14:24:44.773Z</time></trkpt><trkpt lat="46.1024033" lon="13.4242337"><ele>179.33333333333331</ele><time>2026-05-02T14:24:45.775Z</time></trkpt><trkpt lat="46.1023382" lon="13.4241942"><ele>178.0</ele><time>2026-05-02T14:24:46.777Z</time></trkpt><trkpt lat="46.102216" lon="13.4241814"><ele>176.66666666666666</ele><time>2026-05-02T14:24:48.759Z</time></trkpt><trkpt lat="46.1021407" lon="13.4241641"><ele>175.33333333333334</ele><time>2026-05-02T14:24:49.768Z</time></trkpt><trkpt lat="46.1020563" lon="13.4241248"><ele>174.0</ele><time>2026-05-02T14:24:50.764Z</time></trkpt><trkpt lat="46.1019931" lon="13.424103"><ele>174.0</ele><time>2026-05-02T14:24:51.766Z</time></trkpt><trkpt lat="46.1019137" lon="13.4240921"><ele>174.0</ele><time>2026-05-02T14:24:53.776Z</time></trkpt><trkpt lat="46.1018174" lon="13.424034"><ele>174.0</ele><time>2026-05-02T14:24:55.773Z</time></trkpt><trkpt lat="46.1017497" lon="13.4240105"><ele>174.0</ele><time>2026-05-02T14:24:56.767Z</time></trkpt><trkpt lat="46.1016795" lon="13.423987"><ele>174.0</ele><time>2026-05-02T14:24:57.767Z</time></trkpt><trkpt lat="46.1015293" lon="13.4239193"><ele>173.0</ele><time>2026-05-02T14:24:59.768Z</time></trkpt><trkpt lat="46.101454" lon="13.4238671"><ele>172.0</ele><time>2026-05-02T14:25:00.785Z</time></trkpt><trkpt lat="46.1013896" lon="13.4238039"><ele>171.0</ele><time>2026-05-02T14:25:01.763Z</time></trkpt><trkpt lat="46.1013307" lon="13.423732"><ele>170.0</ele><time>2026-05-02T14:25:02.76Z</time></trkpt><trkpt lat="46.1012756" lon="13.4236467"><ele>169.0</ele><time>2026-05-02T14:25:03.77Z</time></trkpt><trkpt lat="46.101218" lon="13.4235672"><ele>168.0</ele><time>2026-05-02T14:25:04.769Z</time></trkpt><trkpt lat="46.1011617" lon="13.4234902"><ele>168.0</ele><time>2026-05-02T14:25:05.769Z</time></trkpt><trkpt lat="46.1011003" lon="13.423423"><ele>168.0</ele><time>2026-05-02T14:25:06.765Z</time></trkpt><trkpt lat="46.1010413" lon="13.4233605"><ele>168.0</ele><time>2026-05-02T14:25:07.764Z</time></trkpt><trkpt lat="46.1009761" lon="13.4233184"><ele>168.0</ele><time>2026-05-02T14:25:08.773Z</time></trkpt><trkpt lat="46.1008911" lon="13.4232914"><ele>168.0</ele><time>2026-05-02T14:25:09.772Z</time></trkpt><trkpt lat="46.1007999" lon="13.423299"><ele>168.0</ele><time>2026-05-02T14:25:10.762Z</time></trkpt><trkpt lat="46.1007001" lon="13.4233426"><ele>164.0</ele><time>2026-05-02T14:25:11.777Z</time></trkpt><trkpt lat="46.1006044" lon="13.4234351"><ele>160.0</ele><time>2026-05-02T14:25:12.765Z</time></trkpt><trkpt lat="46.1005102" lon="13.423586"><ele>156.0</ele><time>2026-05-02T14:25:13.764Z</time></trkpt><trkpt lat="46.1004085" lon="13.4237592"><ele>152.0</ele><time>2026-05-02T14:25:14.771Z</time></trkpt><trkpt lat="46.1003059" lon="13.4239488"><ele>152.0</ele><time>2026-05-02T14:25:15.765Z</time></trkpt><trkpt lat="46.1002141" lon="13.4241835"><ele>152.0</ele><time>2026-05-02T14:25:16.778Z</time></trkpt><trkpt lat="46.1001114" lon="13.4247096"><ele>150.5</ele><time>2026-05-02T14:25:18.765Z</time></trkpt><trkpt lat="46.1000596" lon="13.4251714"><ele>149.0</ele><time>2026-05-02T14:25:20.766Z</time></trkpt><trkpt lat="46.1000552" lon="13.4253768"><ele>148.5</ele><time>2026-05-02T14:25:21.78Z</time></trkpt><trkpt lat="46.1000892" lon="13.4255886"><ele>148.0</ele><time>2026-05-02T14:25:22.766Z</time></trkpt><trkpt lat="46.1001293" lon="13.4257971"><ele>147.5</ele><time>2026-05-02T14:25:23.767Z</time></trkpt><trkpt lat="46.100151" lon="13.4259846"><ele>147.0</ele><time>2026-05-02T14:25:24.763Z</time></trkpt><trkpt lat="46.1001507" lon="13.4261765"><ele>145.5</ele><time>2026-05-02T14:25:25.768Z</time></trkpt><trkpt lat="46.1001136" lon="13.4263426"><ele>144.0</ele><time>2026-05-02T14:25:26.776Z</time></trkpt><trkpt lat="46.1000642" lon="13.4265011"><ele>142.5</ele><time>2026-05-02T14:25:27.769Z</time></trkpt><trkpt lat="46.0999982" lon="13.4266464"><ele>141.0</ele><time>2026-05-02T14:25:28.766Z</time></trkpt><trkpt lat="46.0999044" lon="13.4267947"><ele>140.0</ele><time>2026-05-02T14:25:29.779Z</time></trkpt><trkpt lat="46.0998104" lon="13.4269093"><ele>139.0</ele><time>2026-05-02T14:25:30.765Z</time></trkpt><trkpt lat="46.0997306" lon="13.4270158"><ele>138.0</ele><time>2026-05-02T14:25:31.759Z</time></trkpt><trkpt lat="46.0996503" lon="13.4270959"><ele>137.0</ele><time>2026-05-02T14:25:32.767Z</time></trkpt><trkpt lat="46.0995561" lon="13.4271358"><ele>136.0</ele><time>2026-05-02T14:25:33.769Z</time></trkpt><trkpt lat="46.0994277" lon="13.4271693"><ele>136.0</ele><time>2026-05-02T14:25:34.767Z</time></trkpt><trkpt lat="46.0993101" lon="13.4271868"><ele>136.0</ele><time>2026-05-02T14:25:35.769Z</time></trkpt><trkpt lat="46.0992029" lon="13.4271546"><ele>136.0</ele><time>2026-05-02T14:25:36.768Z</time></trkpt><trkpt lat="46.0991001" lon="13.4270955"><ele>136.0</ele><time>2026-05-02T14:25:37.769Z</time></trkpt><trkpt lat="46.0989908" lon="13.4270507"><ele>135.66666666666669</ele><time>2026-05-02T14:25:38.765Z</time></trkpt><trkpt lat="46.0988687" lon="13.4270053"><ele>135.33333333333334</ele><time>2026-05-02T14:25:39.776Z</time></trkpt><trkpt lat="46.0986216" lon="13.4269048"><ele>135.0</ele><time>2026-05-02T14:25:41.767Z</time></trkpt><trkpt lat="46.0985085" lon="13.4268618"><ele>135.0</ele><time>2026-05-02T14:25:42.766Z</time></trkpt><trkpt lat="46.0983978" lon="13.4268172"><ele>135.0</ele><time>2026-05-02T14:25:43.765Z</time></trkpt><trkpt lat="46.0982845" lon="13.4267667"><ele>135.0</ele><time>2026-05-02T14:25:44.773Z</time></trkpt><trkpt lat="46.0981784" lon="13.4266972"><ele>135.0</ele><time>2026-05-02T14:25:45.773Z</time></trkpt><trkpt lat="46.0980889" lon="13.4266309"><ele>135.2</ele><time>2026-05-02T14:25:46.776Z</time></trkpt><trkpt lat="46.0980214" lon="13.4265759"><ele>135.4</ele><time>2026-05-02T14:25:47.765Z</time></trkpt><trkpt lat="46.0979547" lon="13.4265242"><ele>135.6</ele><time>2026-05-02T14:25:48.763Z</time></trkpt><trkpt lat="46.0978158" lon="13.4264309"><ele>135.8</ele><time>2026-05-02T14:25:50.77Z</time></trkpt><trkpt lat="46.0977506" lon="13.4263873"><ele>136.0</ele><time>2026-05-02T14:25:51.764Z</time></trkpt><trkpt lat="46.0976791" lon="13.4263269"><ele>136.0</ele><time>2026-05-02T14:25:53.768Z</time></trkpt><trkpt lat="46.0976059" lon="13.4262653"><ele>136.0</ele><time>2026-05-02T14:26:02.769Z</time></trkpt><trkpt lat="46.0974424" lon="13.4263783"><ele>136.0</ele><time>2026-05-02T14:26:06.768Z</time></trkpt><trkpt lat="46.0973816" lon="13.426444"><ele>136.0</ele><time>2026-05-02T14:26:07.772Z</time></trkpt><trkpt lat="46.0973118" lon="13.4264971"><ele>136.0</ele><time>2026-05-02T14:26:08.77Z</time></trkpt><trkpt lat="46.0972402" lon="13.4265455"><ele>135.8</ele><time>2026-05-02T14:26:09.771Z</time></trkpt><trkpt lat="46.0971761" lon="13.4265885"><ele>135.6</ele><time>2026-05-02T14:26:10.766Z</time></trkpt><trkpt lat="46.0970913" lon="13.4266131"><ele>135.4</ele><time>2026-05-02T14:26:11.764Z</time></trkpt><trkpt lat="46.096995" lon="13.426644"><ele>135.2</ele><time>2026-05-02T14:26:12.784Z</time></trkpt><trkpt lat="46.0969008" lon="13.4266811"><ele>135.0</ele><time>2026-05-02T14:26:13.767Z</time></trkpt><trkpt lat="46.0968029" lon="13.4267272"><ele>135.0</ele><time>2026-05-02T14:26:14.767Z</time></trkpt><trkpt lat="46.0967044" lon="13.4267778"><ele>135.0</ele><time>2026-05-02T14:26:15.768Z</time></trkpt><trkpt lat="46.0965996" lon="13.4268329"><ele>135.0</ele><time>2026-05-02T14:26:16.773Z</time></trkpt><trkpt lat="46.0964913" lon="13.42689"><ele>135.0</ele><time>2026-05-02T14:26:17.766Z</time></trkpt><trkpt lat="46.0963851" lon="13.4269483"><ele>135.0</ele><time>2026-05-02T14:26:18.767Z</time></trkpt><trkpt lat="46.0962839" lon="13.4269947"><ele>134.75</ele><time>2026-05-02T14:26:19.764Z</time></trkpt><trkpt lat="46.0961873" lon="13.4270387"><ele>134.5</ele><time>2026-05-02T14:26:20.771Z</time></trkpt><trkpt lat="46.0960137" lon="13.4271093"><ele>134.25</ele><time>2026-05-02T14:26:22.764Z</time></trkpt><trkpt lat="46.0959394" lon="13.4270917"><ele>134.0</ele><time>2026-05-02T14:26:23.772Z</time></trkpt><trkpt lat="46.0958218" lon="13.4269445"><ele>134.0</ele><time>2026-05-02T14:26:25.766Z</time></trkpt><trkpt lat="46.0957927" lon="13.4268311"><ele>134.0</ele><time>2026-05-02T14:26:26.765Z</time></trkpt><trkpt lat="46.0957743" lon="13.4266968"><ele>134.0</ele><time>2026-05-02T14:26:27.766Z</time></trkpt><trkpt lat="46.0957666" lon="13.4265462"><ele>134.0</ele><time>2026-05-02T14:26:28.762Z</time></trkpt><trkpt lat="46.095762" lon="13.4263847"><ele>134.0</ele><time>2026-05-02T14:26:29.767Z</time></trkpt><trkpt lat="46.0957652" lon="13.4262175"><ele>134.2</ele><time>2026-05-02T14:26:30.77Z</time></trkpt><trkpt lat="46.0957686" lon="13.4260474"><ele>134.4</ele><time>2026-05-02T14:26:31.772Z</time></trkpt><trkpt lat="46.0957593" lon="13.425887"><ele>134.6</ele><time>2026-05-02T14:26:32.772Z</time></trkpt><trkpt lat="46.0957515" lon="13.4257357"><ele>134.8</ele><time>2026-05-02T14:26:33.765Z</time></trkpt><trkpt lat="46.0957484" lon="13.4255876"><ele>135.0</ele><time>2026-05-02T14:26:34.76Z</time></trkpt><trkpt lat="46.0957465" lon="13.4254407"><ele>134.8</ele><time>2026-05-02T14:26:35.768Z</time></trkpt><trkpt lat="46.0957515" lon="13.4252893"><ele>134.6</ele><time>2026-05-02T14:26:36.767Z</time></trkpt><trkpt lat="46.0957566" lon="13.4251444"><ele>134.4</ele><time>2026-05-02T14:26:37.77Z</time></trkpt><trkpt lat="46.0957644" lon="13.4250161"><ele>134.2</ele><time>2026-05-02T14:26:38.77Z</time></trkpt><trkpt lat="46.0957774" lon="13.424895"><ele>134.0</ele><time>2026-05-02T14:26:39.769Z</time></trkpt><trkpt lat="46.0957928" lon="13.4247716"><ele>134.0</ele><time>2026-05-02T14:26:40.773Z</time></trkpt><trkpt lat="46.0958172" lon="13.4246569"><ele>134.0</ele><time>2026-05-02T14:26:41.767Z</time></trkpt><trkpt lat="46.0958514" lon="13.4245485"><ele>134.0</ele><time>2026-05-02T14:26:42.771Z</time></trkpt><trkpt lat="46.0958985" lon="13.4244479"><ele>134.0</ele><time>2026-05-02T14:26:43.779Z</time></trkpt><trkpt lat="46.0959336" lon="13.4243509"><ele>134.0</ele><time>2026-05-02T14:26:44.769Z</time></trkpt><trkpt lat="46.0957924" lon="13.4241942"><ele>133.66666666666666</ele><time>2026-05-02T14:26:47.762Z</time></trkpt><trkpt lat="46.0957058" lon="13.424224"><ele>133.33333333333331</ele><time>2026-05-02T14:26:48.764Z</time></trkpt><trkpt lat="46.0956234" lon="13.4242602"><ele>133.0</ele><time>2026-05-02T14:26:49.775Z</time></trkpt><trkpt lat="46.0955479" lon="13.4242956"><ele>132.66666666666666</ele><time>2026-05-02T14:26:50.761Z</time></trkpt><trkpt lat="46.0954722" lon="13.4243298"><ele>132.33333333333334</ele><time>2026-05-02T14:26:51.765Z</time></trkpt><trkpt lat="46.095397" lon="13.4243546"><ele>132.0</ele><time>2026-05-02T14:26:52.765Z</time></trkpt><trkpt lat="46.0952562" lon="13.4243693"><ele>132.0</ele><time>2026-05-02T14:26:54.771Z</time></trkpt><trkpt lat="46.0951865" lon="13.4243753"><ele>132.0</ele><time>2026-05-02T14:26:55.767Z</time></trkpt><trkpt lat="46.095117" lon="13.424382"><ele>132.0</ele><time>2026-05-02T14:26:56.76Z</time></trkpt><trkpt lat="46.0950427" lon="13.4243807"><ele>132.0</ele><time>2026-05-02T14:26:57.768Z</time></trkpt><trkpt lat="46.094968" lon="13.4243725"><ele>132.0</ele><time>2026-05-02T14:26:58.766Z</time></trkpt><trkpt lat="46.0948971" lon="13.4243569"><ele>132.0</ele><time>2026-05-02T14:26:59.766Z</time></trkpt><trkpt lat="46.0948292" lon="13.4243463"><ele>132.0</ele><time>2026-05-02T14:27:00.761Z</time></trkpt><trkpt lat="46.0947011" lon="13.4243542"><ele>132.2</ele><time>2026-05-02T14:27:02.776Z</time></trkpt><trkpt lat="46.0946297" lon="13.424363"><ele>132.39999999999998</ele><time>2026-05-02T14:27:03.761Z</time></trkpt><trkpt lat="46.0945515" lon="13.4243776"><ele>132.60000000000002</ele><time>2026-05-02T14:27:04.773Z</time></trkpt><trkpt lat="46.09447" lon="13.4243942"><ele>132.8</ele><time>2026-05-02T14:27:05.763Z</time></trkpt><trkpt lat="46.0942832" lon="13.4244157"><ele>133.0</ele><time>2026-05-02T14:27:07.769Z</time></trkpt><trkpt lat="46.094194" lon="13.4244356"><ele>133.0</ele><time>2026-05-02T14:27:08.766Z</time></trkpt><trkpt lat="46.0941002" lon="13.4244585"><ele>133.0</ele><time>2026-05-02T14:27:09.766Z</time></trkpt><trkpt lat="46.0940014" lon="13.4244619"><ele>133.0</ele><time>2026-05-02T14:27:10.766Z</time></trkpt><trkpt lat="46.0938989" lon="13.4244626"><ele>133.0</ele><time>2026-05-02T14:27:11.764Z</time></trkpt><trkpt lat="46.0937937" lon="13.4244583"><ele>133.0</ele><time>2026-05-02T14:27:12.767Z</time></trkpt><trkpt lat="46.0936888" lon="13.4244665"><ele>133.0</ele><time>2026-05-02T14:27:13.776Z</time></trkpt><trkpt lat="46.0935947" lon="13.4244796"><ele>133.0</ele><time>2026-05-02T14:27:14.773Z</time></trkpt><trkpt lat="46.0935004" lon="13.4244889"><ele>133.0</ele><time>2026-05-02T14:27:15.762Z</time></trkpt><trkpt lat="46.0934043" lon="13.4245037"><ele>133.0</ele><time>2026-05-02T14:27:16.764Z</time></trkpt><trkpt lat="46.0933106" lon="13.4245209"><ele>133.0</ele><time>2026-05-02T14:27:17.767Z</time></trkpt><trkpt lat="46.0932186" lon="13.4245296"><ele>133.33333333333334</ele><time>2026-05-02T14:27:18.762Z</time></trkpt><trkpt lat="46.0931352" lon="13.4245325"><ele>133.66666666666669</ele><time>2026-05-02T14:27:19.77Z</time></trkpt><trkpt lat="46.0930506" lon="13.4245388"><ele>134.0</ele><time>2026-05-02T14:27:20.767Z</time></trkpt><trkpt lat="46.0929709" lon="13.424545"><ele>134.33333333333334</ele><time>2026-05-02T14:27:21.769Z</time></trkpt><trkpt lat="46.0928928" lon="13.4245568"><ele>134.66666666666666</ele><time>2026-05-02T14:27:22.769Z</time></trkpt><trkpt lat="46.0928139" lon="13.4245674"><ele>135.0</ele><time>2026-05-02T14:27:23.767Z</time></trkpt><trkpt lat="46.0927351" lon="13.4245769"><ele>135.0</ele><time>2026-05-02T14:27:24.768Z</time></trkpt><trkpt lat="46.0925796" lon="13.4246171"><ele>135.0</ele><time>2026-05-02T14:27:26.772Z</time></trkpt><trkpt lat="46.0924413" lon="13.4247045"><ele>135.0</ele><time>2026-05-02T14:27:28.763Z</time></trkpt><trkpt lat="46.0923773" lon="13.4247769"><ele>135.0</ele><time>2026-05-02T14:27:29.759Z</time></trkpt><trkpt lat="46.0923105" lon="13.4248639"><ele>135.2</ele><time>2026-05-02T14:27:30.765Z</time></trkpt><trkpt lat="46.0922357" lon="13.4249499"><ele>135.4</ele><time>2026-05-02T14:27:31.768Z</time></trkpt><trkpt lat="46.0921568" lon="13.4250376"><ele>135.6</ele><time>2026-05-02T14:27:32.761Z</time></trkpt><trkpt lat="46.0920679" lon="13.4251248"><ele>135.8</ele><time>2026-05-02T14:27:33.764Z</time></trkpt><trkpt lat="46.0919762" lon="13.4252027"><ele>136.0</ele><time>2026-05-02T14:27:34.772Z</time></trkpt><trkpt lat="46.0918787" lon="13.4252646"><ele>136.0</ele><time>2026-05-02T14:27:35.765Z</time></trkpt><trkpt lat="46.0917804" lon="13.425326"><ele>136.0</ele><time>2026-05-02T14:27:36.767Z</time></trkpt><trkpt lat="46.0916768" lon="13.4253844"><ele>136.0</ele><time>2026-05-02T14:27:37.77Z</time></trkpt><trkpt lat="46.091572" lon="13.4254431"><ele>136.0</ele><time>2026-05-02T14:27:38.773Z</time></trkpt><trkpt lat="46.091465" lon="13.4255108"><ele>136.0</ele><time>2026-05-02T14:27:39.767Z</time></trkpt><trkpt lat="46.0913563" lon="13.4255813"><ele>135.0</ele><time>2026-05-02T14:27:40.765Z</time></trkpt><trkpt lat="46.0912414" lon="13.4256564"><ele>134.0</ele><time>2026-05-02T14:27:41.759Z</time></trkpt><trkpt lat="46.0911212" lon="13.4257271"><ele>133.0</ele><time>2026-05-02T14:27:42.76Z</time></trkpt><trkpt lat="46.0910066" lon="13.4257983"><ele>132.0</ele><time>2026-05-02T14:27:43.778Z</time></trkpt><trkpt lat="46.0909026" lon="13.4258412"><ele>132.0</ele><time>2026-05-02T14:27:44.76Z</time></trkpt><trkpt lat="46.0907958" lon="13.4258817"><ele>132.0</ele><time>2026-05-02T14:27:45.762Z</time></trkpt><trkpt lat="46.0906885" lon="13.4259188"><ele>132.0</ele><time>2026-05-02T14:27:46.767Z</time></trkpt><trkpt lat="46.0905735" lon="13.4259598"><ele>132.0</ele><time>2026-05-02T14:27:47.774Z</time></trkpt><trkpt lat="46.0903198" lon="13.42606"><ele>130.25</ele><time>2026-05-02T14:27:49.762Z</time></trkpt><trkpt lat="46.0901884" lon="13.4261087"><ele>128.5</ele><time>2026-05-02T14:27:50.761Z</time></trkpt><trkpt lat="46.0900568" lon="13.4261528"><ele>126.75</ele><time>2026-05-02T14:27:51.769Z</time></trkpt><trkpt lat="46.089927" lon="13.4261832"><ele>125.0</ele><time>2026-05-02T14:27:52.761Z</time></trkpt><trkpt lat="46.0897989" lon="13.4262145"><ele>125.0</ele><time>2026-05-02T14:27:53.773Z</time></trkpt><trkpt lat="46.0896665" lon="13.4262465"><ele>125.0</ele><time>2026-05-02T14:27:54.765Z</time></trkpt><trkpt lat="46.0895375" lon="13.4262799"><ele>125.0</ele><time>2026-05-02T14:27:55.77Z</time></trkpt><trkpt lat="46.0894139" lon="13.4263145"><ele>125.0</ele><time>2026-05-02T14:27:56.773Z</time></trkpt><trkpt lat="46.0891824" lon="13.4263823"><ele>125.0</ele><time>2026-05-02T14:27:58.762Z</time></trkpt><trkpt lat="46.089068" lon="13.42641"><ele>125.0</ele><time>2026-05-02T14:27:59.766Z</time></trkpt><trkpt lat="46.088951" lon="13.4264289"><ele>125.0</ele><time>2026-05-02T14:28:00.764Z</time></trkpt><trkpt lat="46.088828" lon="13.4264414"><ele>125.0</ele><time>2026-05-02T14:28:01.763Z</time></trkpt><trkpt lat="46.0887103" lon="13.4264509"><ele>125.0</ele><time>2026-05-02T14:28:02.762Z</time></trkpt><trkpt lat="46.0885861" lon="13.4264584"><ele>125.0</ele><time>2026-05-02T14:28:03.771Z</time></trkpt><trkpt lat="46.0884647" lon="13.426471"><ele>125.0</ele><time>2026-05-02T14:28:04.769Z</time></trkpt><trkpt lat="46.0883503" lon="13.4264896"><ele>125.0</ele><time>2026-05-02T14:28:05.772Z</time></trkpt><trkpt lat="46.0882386" lon="13.426525"><ele>125.33333333333333</ele><time>2026-05-02T14:28:06.77Z</time></trkpt><trkpt lat="46.0881303" lon="13.4265775"><ele>125.66666666666666</ele><time>2026-05-02T14:28:07.768Z</time></trkpt><trkpt lat="46.0880226" lon="13.4266466"><ele>126.0</ele><time>2026-05-02T14:28:08.769Z</time></trkpt><trkpt lat="46.0878339" lon="13.426828"><ele>126.0</ele><time>2026-05-02T14:28:10.761Z</time></trkpt><trkpt lat="46.087749" lon="13.4269376"><ele>126.0</ele><time>2026-05-02T14:28:11.762Z</time></trkpt><trkpt lat="46.0876722" lon="13.4270586"><ele>126.0</ele><time>2026-05-02T14:28:12.767Z</time></trkpt><trkpt lat="46.0875991" lon="13.4271822"><ele>126.0</ele><time>2026-05-02T14:28:13.76Z</time></trkpt><trkpt lat="46.0875385" lon="13.4273186"><ele>127.4</ele><time>2026-05-02T14:28:14.767Z</time></trkpt><trkpt lat="46.0874846" lon="13.427466"><ele>128.8</ele><time>2026-05-02T14:28:15.761Z</time></trkpt><trkpt lat="46.0874363" lon="13.4276056"><ele>130.20000000000002</ele><time>2026-05-02T14:28:16.763Z</time></trkpt><trkpt lat="46.08739" lon="13.4277331"><ele>131.6</ele><time>2026-05-02T14:28:17.775Z</time></trkpt><trkpt lat="46.0873536" lon="13.4278506"><ele>133.0</ele><time>2026-05-02T14:28:18.769Z</time></trkpt><trkpt lat="46.0873191" lon="13.4279563"><ele>133.0</ele><time>2026-05-02T14:28:19.765Z</time></trkpt><trkpt lat="46.0872818" lon="13.4280642"><ele>133.0</ele><time>2026-05-02T14:28:20.771Z</time></trkpt><trkpt lat="46.0872406" lon="13.4281647"><ele>133.0</ele><time>2026-05-02T14:28:21.768Z</time></trkpt><trkpt lat="46.0871987" lon="13.428243"><ele>133.0</ele><time>2026-05-02T14:28:22.776Z</time></trkpt><trkpt lat="46.0871505" lon="13.428311"><ele>133.0</ele><time>2026-05-02T14:28:23.763Z</time></trkpt><trkpt lat="46.0870965" lon="13.4284354"><ele>133.0</ele><time>2026-05-02T14:28:25.767Z</time></trkpt><trkpt lat="46.0871272" lon="13.4285484"><ele>133.0</ele><time>2026-05-02T14:28:27.761Z</time></trkpt><trkpt lat="46.0871811" lon="13.4286118"><ele>133.0</ele><time>2026-05-02T14:28:28.772Z</time></trkpt><trkpt lat="46.0874224" lon="13.428833"><ele>133.0</ele><time>2026-05-02T14:28:31.768Z</time></trkpt><trkpt lat="46.0875135" lon="13.4289155"><ele>132.75</ele><time>2026-05-02T14:28:32.764Z</time></trkpt><trkpt lat="46.0876054" lon="13.4290205"><ele>132.5</ele><time>2026-05-02T14:28:33.774Z</time></trkpt><trkpt lat="46.0876992" lon="13.4291388"><ele>132.25</ele><time>2026-05-02T14:28:34.77Z</time></trkpt><trkpt lat="46.087796" lon="13.4292687"><ele>132.0</ele><time>2026-05-02T14:28:35.759Z</time></trkpt><trkpt lat="46.0878933" lon="13.4294068"><ele>132.0</ele><time>2026-05-02T14:28:36.77Z</time></trkpt><trkpt lat="46.0879839" lon="13.4295637"><ele>132.0</ele><time>2026-05-02T14:28:37.765Z</time></trkpt><trkpt lat="46.0880714" lon="13.4297395"><ele>132.0</ele><time>2026-05-02T14:28:38.764Z</time></trkpt><trkpt lat="46.0881613" lon="13.4299353"><ele>132.0</ele><time>2026-05-02T14:28:39.762Z</time></trkpt><trkpt lat="46.0882558" lon="13.4301909"><ele>132.0</ele><time>2026-05-02T14:28:40.769Z</time></trkpt><trkpt lat="46.0883559" lon="13.4304587"><ele>132.0</ele><time>2026-05-02T14:28:41.764Z</time></trkpt><trkpt lat="46.0884733" lon="13.4307552"><ele>132.66666666666666</ele><time>2026-05-02T14:28:42.762Z</time></trkpt><trkpt lat="46.0885836" lon="13.4309973"><ele>133.33333333333331</ele><time>2026-05-02T14:28:43.763Z</time></trkpt><trkpt lat="46.0886785" lon="13.431223"><ele>134.0</ele><time>2026-05-02T14:28:44.766Z</time></trkpt><trkpt lat="46.0887612" lon="13.4314408"><ele>134.33333333333331</ele><time>2026-05-02T14:28:45.77Z</time></trkpt><trkpt lat="46.0888409" lon="13.4316491"><ele>134.66666666666666</ele><time>2026-05-02T14:28:46.76Z</time></trkpt><trkpt lat="46.088905" lon="13.4318327"><ele>135.0</ele><time>2026-05-02T14:28:47.767Z</time></trkpt><trkpt lat="46.0889741" lon="13.4320231"><ele>135.66666666666666</ele><time>2026-05-02T14:28:48.769Z</time></trkpt><trkpt lat="46.0890464" lon="13.4322058"><ele>136.33333333333331</ele><time>2026-05-02T14:28:49.763Z</time></trkpt><trkpt lat="46.0891196" lon="13.4323886"><ele>137.0</ele><time>2026-05-02T14:28:50.767Z</time></trkpt><trkpt lat="46.0892696" lon="13.4327162"><ele>137.16666666666666</ele><time>2026-05-02T14:28:52.769Z</time></trkpt><trkpt lat="46.0893199" lon="13.4328567"><ele>137.33333333333331</ele><time>2026-05-02T14:28:53.768Z</time></trkpt><trkpt lat="46.089364" lon="13.4329763"><ele>137.5</ele><time>2026-05-02T14:28:54.757Z</time></trkpt><trkpt lat="46.0893791" lon="13.4330776"><ele>137.66666666666666</ele><time>2026-05-02T14:28:55.759Z</time></trkpt><trkpt lat="46.0894402" lon="13.433176"><ele>137.83333333333334</ele><time>2026-05-02T14:28:57.76Z</time></trkpt><trkpt lat="46.0894709" lon="13.4332797"><ele>138.0</ele><time>2026-05-02T14:30:23.76Z</time></trkpt><trkpt lat="46.0895394" lon="13.433545"><ele>137.8</ele><time>2026-05-02T14:30:26.756Z</time></trkpt><trkpt lat="46.0895276" lon="13.4336777"><ele>137.60000000000002</ele><time>2026-05-02T14:30:27.768Z</time></trkpt><trkpt lat="46.0895169" lon="13.4338263"><ele>137.39999999999998</ele><time>2026-05-02T14:30:28.768Z</time></trkpt><trkpt lat="46.0895072" lon="13.4339937"><ele>137.2</ele><time>2026-05-02T14:30:29.772Z</time></trkpt><trkpt lat="46.089498" lon="13.4341555"><ele>137.0</ele><time>2026-05-02T14:30:30.766Z</time></trkpt><trkpt lat="46.0894874" lon="13.4343352"><ele>137.0</ele><time>2026-05-02T14:30:31.763Z</time></trkpt><trkpt lat="46.0894767" lon="13.4345176"><ele>137.0</ele><time>2026-05-02T14:30:32.769Z</time></trkpt><trkpt lat="46.0894693" lon="13.4347003"><ele>137.0</ele><time>2026-05-02T14:30:33.764Z</time></trkpt><trkpt lat="46.0894542" lon="13.4348803"><ele>137.0</ele><time>2026-05-02T14:30:34.759Z</time></trkpt><trkpt lat="46.0894388" lon="13.4350622"><ele>137.25</ele><time>2026-05-02T14:30:35.764Z</time></trkpt><trkpt lat="46.0894209" lon="13.4352544"><ele>137.5</ele><time>2026-05-02T14:30:36.773Z</time></trkpt><trkpt lat="46.0894111" lon="13.4354499"><ele>137.75</ele><time>2026-05-02T14:30:37.763Z</time></trkpt><trkpt lat="46.0894055" lon="13.4356525"><ele>138.0</ele><time>2026-05-02T14:30:38.764Z</time></trkpt><trkpt lat="46.0894008" lon="13.4358649"><ele>138.0</ele><time>2026-05-02T14:30:39.761Z</time></trkpt><trkpt lat="46.0894042" lon="13.436086"><ele>138.0</ele><time>2026-05-02T14:30:40.775Z</time></trkpt><trkpt lat="46.0893945" lon="13.4362968"><ele>138.0</ele><time>2026-05-02T14:30:41.76Z</time></trkpt><trkpt lat="46.0893871" lon="13.4364764"><ele>138.0</ele><time>2026-05-02T14:30:42.759Z</time></trkpt><trkpt lat="46.0893723" lon="13.4366478"><ele>138.0</ele><time>2026-05-02T14:30:43.765Z</time></trkpt><trkpt lat="46.0893624" lon="13.4368081"><ele>138.0</ele><time>2026-05-02T14:30:44.768Z</time></trkpt><trkpt lat="46.0893492" lon="13.4370707"><ele>138.0</ele><time>2026-05-02T14:30:46.767Z</time></trkpt><trkpt lat="46.0893433" lon="13.4371967"><ele>138.0</ele><time>2026-05-02T14:30:47.761Z</time></trkpt><trkpt lat="46.0893346" lon="13.4373175"><ele>138.4</ele><time>2026-05-02T14:30:48.77Z</time></trkpt><trkpt lat="46.0893201" lon="13.4374357"><ele>138.8</ele><time>2026-05-02T14:30:49.764Z</time></trkpt><trkpt lat="46.0893085" lon="13.4375623"><ele>139.2</ele><time>2026-05-02T14:30:50.773Z</time></trkpt><trkpt lat="46.0892973" lon="13.4376928"><ele>139.6</ele><time>2026-05-02T14:30:51.763Z</time></trkpt><trkpt lat="46.0892841" lon="13.4378326"><ele>140.0</ele><time>2026-05-02T14:30:52.767Z</time></trkpt><trkpt lat="46.0892656" lon="13.4379696"><ele>140.0</ele><time>2026-05-02T14:30:53.766Z</time></trkpt><trkpt lat="46.08923" lon="13.4380982"><ele>140.0</ele><time>2026-05-02T14:30:54.761Z</time></trkpt><trkpt lat="46.0891824" lon="13.4382086"><ele>140.0</ele><time>2026-05-02T14:30:55.757Z</time></trkpt><trkpt lat="46.0891366" lon="13.4383032"><ele>140.0</ele><time>2026-05-02T14:30:56.768Z</time></trkpt><trkpt lat="46.0890985" lon="13.438397"><ele>140.0</ele><time>2026-05-02T14:30:57.762Z</time></trkpt><trkpt lat="46.0890834" lon="13.4384965"><ele>140.0</ele><time>2026-05-02T14:30:58.77Z</time></trkpt><trkpt lat="46.0891493" lon="13.4386029"><ele>140.0</ele><time>2026-05-02T14:31:00.757Z</time></trkpt><trkpt lat="46.0892151" lon="13.4386402"><ele>140.0</ele><time>2026-05-02T14:31:01.772Z</time></trkpt><trkpt lat="46.0893127" lon="13.4386753"><ele>140.0</ele><time>2026-05-02T14:31:02.77Z</time></trkpt><trkpt lat="46.0894137" lon="13.438687"><ele>140.0</ele><time>2026-05-02T14:31:03.768Z</time></trkpt><trkpt lat="46.0895283" lon="13.4386805"><ele>140.0</ele><time>2026-05-02T14:31:04.767Z</time></trkpt><trkpt lat="46.0896434" lon="13.4386497"><ele>140.0</ele><time>2026-05-02T14:31:05.768Z</time></trkpt><trkpt lat="46.0898694" lon="13.4385938"><ele>140.0</ele><time>2026-05-02T14:31:07.756Z</time></trkpt><trkpt lat="46.089957" lon="13.4386072"><ele>140.0</ele><time>2026-05-02T14:31:08.763Z</time></trkpt><trkpt lat="46.0900235" lon="13.4386748"><ele>140.0</ele><time>2026-05-02T14:31:09.764Z</time></trkpt><trkpt lat="46.0900817" lon="13.4388043"><ele>139.66666666666666</ele><time>2026-05-02T14:31:10.758Z</time></trkpt><trkpt lat="46.0901439" lon="13.4389738"><ele>139.33333333333334</ele><time>2026-05-02T14:31:11.78Z</time></trkpt><trkpt lat="46.0902093" lon="13.439193"><ele>139.0</ele><time>2026-05-02T14:31:12.761Z</time></trkpt><trkpt lat="46.0902841" lon="13.439493"><ele>139.0</ele><time>2026-05-02T14:31:13.759Z</time></trkpt><trkpt lat="46.090364" lon="13.4398543"><ele>139.0</ele><time>2026-05-02T14:31:14.771Z</time></trkpt><trkpt lat="46.0904682" lon="13.4402591"><ele>138.0</ele><time>2026-05-02T14:31:15.773Z</time></trkpt><trkpt lat="46.0905737" lon="13.4406645"><ele>137.0</ele><time>2026-05-02T14:31:16.762Z</time></trkpt><trkpt lat="46.0906635" lon="13.4410933"><ele>137.0</ele><time>2026-05-02T14:31:17.757Z</time></trkpt><trkpt lat="46.0907354" lon="13.4414877"><ele>137.0</ele><time>2026-05-02T14:31:18.761Z</time></trkpt><trkpt lat="46.0907932" lon="13.4418286"><ele>137.33333333333331</ele><time>2026-05-02T14:31:19.763Z</time></trkpt><trkpt lat="46.0908427" lon="13.4420795"><ele>137.66666666666666</ele><time>2026-05-02T14:31:20.755Z</time></trkpt><trkpt lat="46.0908933" lon="13.4423171"><ele>138.0</ele><time>2026-05-02T14:31:21.758Z</time></trkpt><trkpt lat="46.0909478" lon="13.4425535"><ele>138.0</ele><time>2026-05-02T14:31:22.77Z</time></trkpt><trkpt lat="46.091004" lon="13.4427768"><ele>138.0</ele><time>2026-05-02T14:31:23.761Z</time></trkpt><trkpt lat="46.0910844" lon="13.4429758"><ele>138.0</ele><time>2026-05-02T14:31:24.775Z</time></trkpt><trkpt lat="46.0911467" lon="13.4431613"><ele>138.0</ele><time>2026-05-02T14:31:25.765Z</time></trkpt><trkpt lat="46.0912046" lon="13.4433447"><ele>138.0</ele><time>2026-05-02T14:31:26.763Z</time></trkpt><trkpt lat="46.091261" lon="13.4435286"><ele>138.0</ele><time>2026-05-02T14:31:27.763Z</time></trkpt><trkpt lat="46.0913708" lon="13.4439017"><ele>138.0</ele><time>2026-05-02T14:31:29.762Z</time></trkpt><trkpt lat="46.0914173" lon="13.4440908"><ele>138.0</ele><time>2026-05-02T14:31:30.765Z</time></trkpt><trkpt lat="46.0914668" lon="13.4442961"><ele>138.0</ele><time>2026-05-02T14:31:31.764Z</time></trkpt><trkpt lat="46.0915163" lon="13.4445017"><ele>138.0</ele><time>2026-05-02T14:31:32.766Z</time></trkpt><trkpt lat="46.091543" lon="13.4446997"><ele>138.5</ele><time>2026-05-02T14:31:33.766Z</time></trkpt><trkpt lat="46.0915632" lon="13.444887"><ele>139.0</ele><time>2026-05-02T14:31:34.761Z</time></trkpt><trkpt lat="46.0915769" lon="13.4450813"><ele>139.5</ele><time>2026-05-02T14:31:35.767Z</time></trkpt><trkpt lat="46.0915891" lon="13.4453003"><ele>140.0</ele><time>2026-05-02T14:31:36.76Z</time></trkpt><trkpt lat="46.091618" lon="13.4454985"><ele>140.25</ele><time>2026-05-02T14:31:37.765Z</time></trkpt><trkpt lat="46.0916526" lon="13.4456867"><ele>140.5</ele><time>2026-05-02T14:31:38.763Z</time></trkpt><trkpt lat="46.0916867" lon="13.4458683"><ele>140.75</ele><time>2026-05-02T14:31:39.769Z</time></trkpt><trkpt lat="46.0917266" lon="13.4460539"><ele>141.0</ele><time>2026-05-02T14:31:40.759Z</time></trkpt><trkpt lat="46.0917738" lon="13.4462214"><ele>141.2</ele><time>2026-05-02T14:31:41.771Z</time></trkpt><trkpt lat="46.0918105" lon="13.4463679"><ele>141.39999999999998</ele><time>2026-05-02T14:31:42.759Z</time></trkpt><trkpt lat="46.0918558" lon="13.4464907"><ele>141.6</ele><time>2026-05-02T14:31:43.764Z</time></trkpt><trkpt lat="46.0918916" lon="13.4466252"><ele>141.79999999999998</ele><time>2026-05-02T14:31:44.766Z</time></trkpt><trkpt lat="46.091916" lon="13.446773"><ele>142.0</ele><time>2026-05-02T14:31:45.764Z</time></trkpt><trkpt lat="46.0919407" lon="13.4469301"><ele>142.0</ele><time>2026-05-02T14:31:46.769Z</time></trkpt><trkpt lat="46.0919694" lon="13.4470963"><ele>142.0</ele><time>2026-05-02T14:31:47.761Z</time></trkpt><trkpt lat="46.0920048" lon="13.4472575"><ele>142.0</ele><time>2026-05-02T14:31:48.762Z</time></trkpt><trkpt lat="46.0920825" lon="13.4475526"><ele>142.6</ele><time>2026-05-02T14:31:50.775Z</time></trkpt><trkpt lat="46.0921195" lon="13.4476941"><ele>143.2</ele><time>2026-05-02T14:31:51.761Z</time></trkpt><trkpt lat="46.0921641" lon="13.4478324"><ele>143.8</ele><time>2026-05-02T14:31:52.765Z</time></trkpt><trkpt lat="46.0922134" lon="13.4479729"><ele>144.4</ele><time>2026-05-02T14:31:53.775Z</time></trkpt><trkpt lat="46.0922614" lon="13.4481126"><ele>145.0</ele><time>2026-05-02T14:31:54.766Z</time></trkpt><trkpt lat="46.09231" lon="13.4482542"><ele>146.25</ele><time>2026-05-02T14:31:55.77Z</time></trkpt><trkpt lat="46.0923534" lon="13.4484025"><ele>147.5</ele><time>2026-05-02T14:31:56.77Z</time></trkpt><trkpt lat="46.0923671" lon="13.4485607"><ele>148.75</ele><time>2026-05-02T14:31:57.768Z</time></trkpt><trkpt lat="46.0923491" lon="13.4487309"><ele>150.0</ele><time>2026-05-02T14:31:58.771Z</time></trkpt><trkpt lat="46.0922423" lon="13.4491204"><ele>150.5</ele><time>2026-05-02T14:32:00.76Z</time></trkpt><trkpt lat="46.0921942" lon="13.4493154"><ele>151.0</ele><time>2026-05-02T14:32:01.762Z</time></trkpt><trkpt lat="46.0921514" lon="13.4495168"><ele>151.5</ele><time>2026-05-02T14:32:02.767Z</time></trkpt><trkpt lat="46.0921106" lon="13.4497126"><ele>152.0</ele><time>2026-05-02T14:32:03.767Z</time></trkpt><trkpt lat="46.0920655" lon="13.4499081"><ele>153.5</ele><time>2026-05-02T14:32:04.777Z</time></trkpt><trkpt lat="46.0920336" lon="13.4501059"><ele>155.0</ele><time>2026-05-02T14:32:05.765Z</time></trkpt><trkpt lat="46.0920119" lon="13.4503096"><ele>156.5</ele><time>2026-05-02T14:32:06.772Z</time></trkpt><trkpt lat="46.0919779" lon="13.4505005"><ele>158.0</ele><time>2026-05-02T14:32:07.765Z</time></trkpt><trkpt lat="46.0919513" lon="13.4506974"><ele>160.66666666666666</ele><time>2026-05-02T14:32:08.769Z</time></trkpt><trkpt lat="46.0919421" lon="13.4508982"><ele>163.33333333333334</ele><time>2026-05-02T14:32:09.76Z</time></trkpt><trkpt lat="46.091889" lon="13.4512829"><ele>166.0</ele><time>2026-05-02T14:32:11.77Z</time></trkpt><trkpt lat="46.0918542" lon="13.4514763"><ele>167.0</ele><time>2026-05-02T14:32:12.761Z</time></trkpt><trkpt lat="46.0918303" lon="13.4516573"><ele>168.0</ele><time>2026-05-02T14:32:13.765Z</time></trkpt><trkpt lat="46.0917973" lon="13.4518459"><ele>169.0</ele><time>2026-05-02T14:32:14.763Z</time></trkpt><trkpt lat="46.0917836" lon="13.452013"><ele>170.0</ele><time>2026-05-02T14:32:15.767Z</time></trkpt><trkpt lat="46.0917893" lon="13.4521782"><ele>170.0</ele><time>2026-05-02T14:32:16.765Z</time></trkpt><trkpt lat="46.0918346" lon="13.4523607"><ele>170.0</ele><time>2026-05-02T14:32:17.769Z</time></trkpt><trkpt lat="46.0919054" lon="13.4525442"><ele>170.0</ele><time>2026-05-02T14:32:18.768Z</time></trkpt><trkpt lat="46.0919829" lon="13.4527568"><ele>170.0</ele><time>2026-05-02T14:32:19.775Z</time></trkpt><trkpt lat="46.0920498" lon="13.4529846"><ele>169.0</ele><time>2026-05-02T14:32:20.768Z</time></trkpt><trkpt lat="46.0921047" lon="13.4532373"><ele>168.0</ele><time>2026-05-02T14:32:21.768Z</time></trkpt><trkpt lat="46.0921541" lon="13.4534997"><ele>167.0</ele><time>2026-05-02T14:32:22.761Z</time></trkpt><trkpt lat="46.0921834" lon="13.453766"><ele>168.0</ele><time>2026-05-02T14:32:23.769Z</time></trkpt><trkpt lat="46.0921911" lon="13.4540276"><ele>169.0</ele><time>2026-05-02T14:32:24.759Z</time></trkpt><trkpt lat="46.092183" lon="13.4543057"><ele>170.0</ele><time>2026-05-02T14:32:25.764Z</time></trkpt><trkpt lat="46.0921733" lon="13.4545945"><ele>172.33333333333331</ele><time>2026-05-02T14:32:26.761Z</time></trkpt><trkpt lat="46.092159" lon="13.4548462"><ele>174.66666666666666</ele><time>2026-05-02T14:32:27.756Z</time></trkpt><trkpt lat="46.0921442" lon="13.4550837"><ele>177.0</ele><time>2026-05-02T14:32:28.76Z</time></trkpt><trkpt lat="46.0921151" lon="13.4553098"><ele>181.5</ele><time>2026-05-02T14:32:29.768Z</time></trkpt><trkpt lat="46.0920857" lon="13.4555091"><ele>186.0</ele><time>2026-05-02T14:32:30.767Z</time></trkpt><trkpt lat="46.092015" lon="13.456083"><ele>186.0</ele><time>2026-05-02T14:32:33.763Z</time></trkpt><trkpt lat="46.0919843" lon="13.4562764"><ele>186.0</ele><time>2026-05-02T14:32:34.764Z</time></trkpt><trkpt lat="46.0919508" lon="13.4564802"><ele>186.0</ele><time>2026-05-02T14:32:35.763Z</time></trkpt><trkpt lat="46.0919131" lon="13.4566932"><ele>186.0</ele><time>2026-05-02T14:32:36.764Z</time></trkpt><trkpt lat="46.0918859" lon="13.4569131"><ele>189.66666666666669</ele><time>2026-05-02T14:32:37.767Z</time></trkpt><trkpt lat="46.091861" lon="13.4571367"><ele>193.33333333333334</ele><time>2026-05-02T14:32:38.763Z</time></trkpt><trkpt lat="46.0918519" lon="13.457374"><ele>197.0</ele><time>2026-05-02T14:32:39.767Z</time></trkpt><trkpt lat="46.0918539" lon="13.4575994"><ele>197.0</ele><time>2026-05-02T14:32:40.768Z</time></trkpt><trkpt lat="46.0918432" lon="13.4578331"><ele>197.0</ele><time>2026-05-02T14:32:41.757Z</time></trkpt><trkpt lat="46.0918152" lon="13.4580703"><ele>197.0</ele><time>2026-05-02T14:32:42.759Z</time></trkpt><trkpt lat="46.0917862" lon="13.4583199"><ele>199.66666666666669</ele><time>2026-05-02T14:32:43.765Z</time></trkpt><trkpt lat="46.0917403" lon="13.4585715"><ele>202.33333333333331</ele><time>2026-05-02T14:32:44.763Z</time></trkpt><trkpt lat="46.0916905" lon="13.4587972"><ele>205.0</ele><time>2026-05-02T14:32:45.762Z</time></trkpt><trkpt lat="46.0916251" lon="13.4590201"><ele>204.0</ele><time>2026-05-02T14:32:46.771Z</time></trkpt><trkpt lat="46.0915498" lon="13.4592088"><ele>203.0</ele><time>2026-05-02T14:32:47.755Z</time></trkpt><trkpt lat="46.0914793" lon="13.4593908"><ele>202.0</ele><time>2026-05-02T14:32:48.766Z</time></trkpt><trkpt lat="46.0913978" lon="13.4595544"><ele>201.0</ele><time>2026-05-02T14:32:49.764Z</time></trkpt><trkpt lat="46.0913242" lon="13.4597483"><ele>201.0</ele><time>2026-05-02T14:32:50.764Z</time></trkpt><trkpt lat="46.0912754" lon="13.4599641"><ele>201.0</ele><time>2026-05-02T14:32:51.761Z</time></trkpt><trkpt lat="46.091228" lon="13.4602107"><ele>201.0</ele><time>2026-05-02T14:32:52.761Z</time></trkpt><trkpt lat="46.0911298" lon="13.4606927"><ele>203.75</ele><time>2026-05-02T14:32:54.763Z</time></trkpt><trkpt lat="46.0910927" lon="13.4609182"><ele>206.5</ele><time>2026-05-02T14:32:55.761Z</time></trkpt><trkpt lat="46.0910616" lon="13.4611294"><ele>209.25</ele><time>2026-05-02T14:32:56.771Z</time></trkpt><trkpt lat="46.0910284" lon="13.4613203"><ele>212.0</ele><time>2026-05-02T14:32:57.765Z</time></trkpt><trkpt lat="46.0909743" lon="13.4614967"><ele>214.5</ele><time>2026-05-02T14:32:58.764Z</time></trkpt><trkpt lat="46.0909048" lon="13.4616697"><ele>217.0</ele><time>2026-05-02T14:32:59.77Z</time></trkpt><trkpt lat="46.0908325" lon="13.4618099"><ele>219.5</ele><time>2026-05-02T14:33:00.762Z</time></trkpt><trkpt lat="46.0907816" lon="13.4619764"><ele>222.0</ele><time>2026-05-02T14:33:01.768Z</time></trkpt><trkpt lat="46.0907504" lon="13.4621387"><ele>223.25</ele><time>2026-05-02T14:33:02.768Z</time></trkpt><trkpt lat="46.0907504" lon="13.4624777"><ele>224.5</ele><time>2026-05-02T14:33:04.761Z</time></trkpt><trkpt lat="46.0907644" lon="13.4626107"><ele>225.75</ele><time>2026-05-02T14:33:05.765Z</time></trkpt><trkpt lat="46.0907757" lon="13.462715"><ele>227.0</ele><time>2026-05-02T14:33:06.76Z</time></trkpt><trkpt lat="46.0907723" lon="13.4628111"><ele>231.6</ele><time>2026-05-02T14:33:07.764Z</time></trkpt><trkpt lat="46.0907056" lon="13.4628594"><ele>236.2</ele><time>2026-05-02T14:33:09.761Z</time></trkpt><trkpt lat="46.0906672" lon="13.462752"><ele>240.8</ele><time>2026-05-02T14:33:10.773Z</time></trkpt><trkpt lat="46.090636" lon="13.4625897"><ele>245.4</ele><time>2026-05-02T14:33:11.766Z</time></trkpt><trkpt lat="46.0905939" lon="13.4624146"><ele>250.0</ele><time>2026-05-02T14:33:12.759Z</time></trkpt><trkpt lat="46.0905402" lon="13.4622507"><ele>250.0</ele><time>2026-05-02T14:33:13.765Z</time></trkpt><trkpt lat="46.0903857" lon="13.4620751"><ele>250.0</ele><time>2026-05-02T14:33:15.764Z</time></trkpt><trkpt lat="46.0903217" lon="13.4621036"><ele>250.0</ele><time>2026-05-02T14:33:16.766Z</time></trkpt><trkpt lat="46.0903124" lon="13.4622652"><ele>250.0</ele><time>2026-05-02T14:33:18.766Z</time></trkpt><trkpt lat="46.0903684" lon="13.4623424"><ele>250.0</ele><time>2026-05-02T14:33:19.774Z</time></trkpt><trkpt lat="46.0904107" lon="13.4624526"><ele>250.0</ele><time>2026-05-02T14:33:20.759Z</time></trkpt><trkpt lat="46.0904254" lon="13.4625813"><ele>250.0</ele><time>2026-05-02T14:33:21.766Z</time></trkpt><trkpt lat="46.0904149" lon="13.4627324"><ele>250.0</ele><time>2026-05-02T14:33:22.761Z</time></trkpt><trkpt lat="46.090397" lon="13.4628799"><ele>250.0</ele><time>2026-05-02T14:33:23.773Z</time></trkpt><trkpt lat="46.0903682" lon="13.4630221"><ele>251.4</ele><time>2026-05-02T14:33:24.762Z</time></trkpt><trkpt lat="46.0903328" lon="13.463158"><ele>252.8</ele><time>2026-05-02T14:33:25.76Z</time></trkpt><trkpt lat="46.0902864" lon="13.4633012"><ele>254.2</ele><time>2026-05-02T14:33:26.76Z</time></trkpt><trkpt lat="46.0902278" lon="13.4634239"><ele>255.6</ele><time>2026-05-02T14:33:27.763Z</time></trkpt><trkpt lat="46.0901618" lon="13.4635378"><ele>257.0</ele><time>2026-05-02T14:33:28.764Z</time></trkpt><trkpt lat="46.0900837" lon="13.4636366"><ele>257.0</ele><time>2026-05-02T14:33:29.763Z</time></trkpt><trkpt lat="46.0900111" lon="13.4637385"><ele>257.0</ele><time>2026-05-02T14:33:30.766Z</time></trkpt><trkpt lat="46.0899489" lon="13.4638455"><ele>257.0</ele><time>2026-05-02T14:33:31.767Z</time></trkpt><trkpt lat="46.0899202" lon="13.4639513"><ele>257.0</ele><time>2026-05-02T14:33:32.767Z</time></trkpt><trkpt lat="46.0899096" lon="13.4640558"><ele>257.0</ele><time>2026-05-02T14:33:33.765Z</time></trkpt><trkpt lat="46.0899026" lon="13.4641507"><ele>257.0</ele><time>2026-05-02T14:33:34.763Z</time></trkpt><trkpt lat="46.0898047" lon="13.4641421"><ele>260.1666666666667</ele><time>2026-05-02T14:33:38.761Z</time></trkpt><trkpt lat="46.0898127" lon="13.4640365"><ele>263.33333333333337</ele><time>2026-05-02T14:33:39.774Z</time></trkpt><trkpt lat="46.0898256" lon="13.4639112"><ele>266.5</ele><time>2026-05-02T14:33:40.767Z</time></trkpt><trkpt lat="46.0898348" lon="13.4637815"><ele>269.6666666666667</ele><time>2026-05-02T14:33:41.764Z</time></trkpt><trkpt lat="46.0898408" lon="13.463645"><ele>272.8333333333333</ele><time>2026-05-02T14:33:42.762Z</time></trkpt><trkpt lat="46.0898413" lon="13.4634998"><ele>276.0</ele><time>2026-05-02T14:33:43.762Z</time></trkpt><trkpt lat="46.0898362" lon="13.4633584"><ele>276.0</ele><time>2026-05-02T14:33:44.763Z</time></trkpt><trkpt lat="46.0898249" lon="13.4632259"><ele>276.0</ele><time>2026-05-02T14:33:45.767Z</time></trkpt><trkpt lat="46.0897877" lon="13.4631075"><ele>276.0</ele><time>2026-05-02T14:33:46.763Z</time></trkpt><trkpt lat="46.089738" lon="13.4630188"><ele>276.0</ele><time>2026-05-02T14:33:47.772Z</time></trkpt><trkpt lat="46.0896598" lon="13.4629483"><ele>276.0</ele><time>2026-05-02T14:33:48.761Z</time></trkpt><trkpt lat="46.0895709" lon="13.4628702"><ele>273.40000000000003</ele><time>2026-05-02T14:33:49.756Z</time></trkpt><trkpt lat="46.0894888" lon="13.4627832"><ele>270.8</ele><time>2026-05-02T14:33:50.763Z</time></trkpt><trkpt lat="46.0894" lon="13.4627087"><ele>268.20000000000005</ele><time>2026-05-02T14:33:51.765Z</time></trkpt><trkpt lat="46.0893201" lon="13.4626558"><ele>265.6</ele><time>2026-05-02T14:33:52.767Z</time></trkpt><trkpt lat="46.0892326" lon="13.4626122"><ele>263.0</ele><time>2026-05-02T14:33:53.766Z</time></trkpt><trkpt lat="46.0891476" lon="13.4626028"><ele>262.2</ele><time>2026-05-02T14:33:54.761Z</time></trkpt><trkpt lat="46.0890627" lon="13.4626344"><ele>261.4</ele><time>2026-05-02T14:33:55.769Z</time></trkpt><trkpt lat="46.0889952" lon="13.4626758"><ele>260.59999999999997</ele><time>2026-05-02T14:33:56.778Z</time></trkpt><trkpt lat="46.0888893" lon="13.4628602"><ele>259.8</ele><time>2026-05-02T14:33:58.759Z</time></trkpt><trkpt lat="46.0888676" lon="13.4629875"><ele>259.0</ele><time>2026-05-02T14:33:59.764Z</time></trkpt><trkpt lat="46.0888723" lon="13.4631096"><ele>262.4</ele><time>2026-05-02T14:34:00.76Z</time></trkpt><trkpt lat="46.0889153" lon="13.4632075"><ele>265.79999999999995</ele><time>2026-05-02T14:34:01.764Z</time></trkpt><trkpt lat="46.0889851" lon="13.4632706"><ele>269.20000000000005</ele><time>2026-05-02T14:34:02.77Z</time></trkpt><trkpt lat="46.0890652" lon="13.4633253"><ele>272.6</ele><time>2026-05-02T14:34:03.766Z</time></trkpt><trkpt lat="46.0891524" lon="13.4633992"><ele>276.0</ele><time>2026-05-02T14:34:04.772Z</time></trkpt><trkpt lat="46.0892342" lon="13.4634919"><ele>276.0</ele><time>2026-05-02T14:34:05.761Z</time></trkpt><trkpt lat="46.0892955" lon="13.4636176"><ele>276.0</ele><time>2026-05-02T14:34:06.758Z</time></trkpt><trkpt lat="46.0893368" lon="13.4639154"><ele>276.0</ele><time>2026-05-02T14:34:08.765Z</time></trkpt><trkpt lat="46.0893263" lon="13.4640721"><ele>276.0</ele><time>2026-05-02T14:34:09.762Z</time></trkpt><trkpt lat="46.0892978" lon="13.4642213"><ele>276.6</ele><time>2026-05-02T14:34:10.77Z</time></trkpt><trkpt lat="46.0892535" lon="13.4643766"><ele>277.20000000000005</ele><time>2026-05-02T14:34:11.761Z</time></trkpt><trkpt lat="46.0892073" lon="13.4645242"><ele>277.79999999999995</ele><time>2026-05-02T14:34:12.76Z</time></trkpt><trkpt lat="46.0891634" lon="13.4646635"><ele>278.4</ele><time>2026-05-02T14:34:13.76Z</time></trkpt><trkpt lat="46.0891099" lon="13.4647942"><ele>279.0</ele><time>2026-05-02T14:34:14.769Z</time></trkpt><trkpt lat="46.0890421" lon="13.4649164"><ele>285.3333333333333</ele><time>2026-05-02T14:34:15.767Z</time></trkpt><trkpt lat="46.0889656" lon="13.4650337"><ele>291.66666666666663</ele><time>2026-05-02T14:34:16.759Z</time></trkpt><trkpt lat="46.0888734" lon="13.4651486"><ele>298.0</ele><time>2026-05-02T14:34:17.766Z</time></trkpt><trkpt lat="46.0886504" lon="13.4653209"><ele>298.0</ele><time>2026-05-02T14:34:19.765Z</time></trkpt><trkpt lat="46.0885341" lon="13.4653835"><ele>298.0</ele><time>2026-05-02T14:34:20.766Z</time></trkpt><trkpt lat="46.0884296" lon="13.4654528"><ele>298.0</ele><time>2026-05-02T14:34:21.763Z</time></trkpt><trkpt lat="46.0883289" lon="13.4655123"><ele>298.0</ele><time>2026-05-02T14:34:22.762Z</time></trkpt><trkpt lat="46.088228" lon="13.4655798"><ele>301.5</ele><time>2026-05-02T14:34:23.762Z</time></trkpt><trkpt lat="46.0881225" lon="13.4656631"><ele>305.0</ele><time>2026-05-02T14:34:24.758Z</time></trkpt><trkpt lat="46.0880176" lon="13.4657589"><ele>308.5</ele><time>2026-05-02T14:34:25.755Z</time></trkpt><trkpt lat="46.08792" lon="13.4658693"><ele>312.0</ele><time>2026-05-02T14:34:26.763Z</time></trkpt><trkpt lat="46.087815" lon="13.4659852"><ele>312.0</ele><time>2026-05-02T14:34:27.762Z</time></trkpt><trkpt lat="46.0877053" lon="13.4661196"><ele>312.0</ele><time>2026-05-02T14:34:28.77Z</time></trkpt><trkpt lat="46.0875964" lon="13.4662601"><ele>312.0</ele><time>2026-05-02T14:34:29.78Z</time></trkpt><trkpt lat="46.0875059" lon="13.4664194"><ele>312.0</ele><time>2026-05-02T14:34:30.762Z</time></trkpt><trkpt lat="46.0874192" lon="13.4665647"><ele>317.5</ele><time>2026-05-02T14:34:31.765Z</time></trkpt><trkpt lat="46.0873427" lon="13.4667217"><ele>323.0</ele><time>2026-05-02T14:34:32.771Z</time></trkpt><trkpt lat="46.0872816" lon="13.4668789"><ele>328.5</ele><time>2026-05-02T14:34:33.771Z</time></trkpt><trkpt lat="46.0872298" lon="13.4670292"><ele>334.0</ele><time>2026-05-02T14:34:34.764Z</time></trkpt><trkpt lat="46.0871767" lon="13.4671395"><ele>334.0</ele><time>2026-05-02T14:34:35.765Z</time></trkpt><trkpt lat="46.0871678" lon="13.4672566"><ele>334.0</ele><time>2026-05-02T14:34:36.758Z</time></trkpt><trkpt lat="46.0871924" lon="13.4673877"><ele>334.0</ele><time>2026-05-02T14:34:37.762Z</time></trkpt><trkpt lat="46.0872202" lon="13.4675399"><ele>334.0</ele><time>2026-05-02T14:34:38.759Z</time></trkpt><trkpt lat="46.0872552" lon="13.4676924"><ele>334.0</ele><time>2026-05-02T14:34:39.758Z</time></trkpt><trkpt lat="46.087308" lon="13.4679732"><ele>334.0</ele><time>2026-05-02T14:34:41.77Z</time></trkpt><trkpt lat="46.0873399" lon="13.4680821"><ele>334.0</ele><time>2026-05-02T14:34:42.756Z</time></trkpt><trkpt lat="46.0873906" lon="13.468153"><ele>334.0</ele><time>2026-05-02T14:34:43.764Z</time></trkpt><trkpt lat="46.0874544" lon="13.4681712"><ele>334.0</ele><time>2026-05-02T14:34:44.766Z</time></trkpt><trkpt lat="46.0875368" lon="13.4681442"><ele>334.0</ele><time>2026-05-02T14:34:45.768Z</time></trkpt><trkpt lat="46.0876297" lon="13.4681083"><ele>334.0</ele><time>2026-05-02T14:34:46.761Z</time></trkpt><trkpt lat="46.0877418" lon="13.4680841"><ele>331.0</ele><time>2026-05-02T14:34:47.77Z</time></trkpt><trkpt lat="46.0878368" lon="13.4680708"><ele>328.0</ele><time>2026-05-02T14:34:48.762Z</time></trkpt><trkpt lat="46.0879424" lon="13.4680831"><ele>325.0</ele><time>2026-05-02T14:34:49.764Z</time></trkpt><trkpt lat="46.0880647" lon="13.4681284"><ele>322.0</ele><time>2026-05-02T14:34:50.76Z</time></trkpt><trkpt lat="46.0881873" lon="13.4682144"><ele>319.25</ele><time>2026-05-02T14:34:51.761Z</time></trkpt><trkpt lat="46.0883023" lon="13.4683155"><ele>316.5</ele><time>2026-05-02T14:34:52.781Z</time></trkpt><trkpt lat="46.0884105" lon="13.4684277"><ele>313.75</ele><time>2026-05-02T14:34:53.759Z</time></trkpt><trkpt lat="46.0885188" lon="13.468548"><ele>311.0</ele><time>2026-05-02T14:34:54.761Z</time></trkpt><trkpt lat="46.0886281" lon="13.4686682"><ele>313.0</ele><time>2026-05-02T14:34:55.765Z</time></trkpt><trkpt lat="46.0887332" lon="13.468783"><ele>315.0</ele><time>2026-05-02T14:34:56.76Z</time></trkpt><trkpt lat="46.0888291" lon="13.4688936"><ele>317.0</ele><time>2026-05-02T14:34:57.771Z</time></trkpt><trkpt lat="46.08891" lon="13.4689969"><ele>319.0</ele><time>2026-05-02T14:34:58.762Z</time></trkpt><trkpt lat="46.088974" lon="13.4691021"><ele>319.0</ele><time>2026-05-02T14:34:59.775Z</time></trkpt><trkpt lat="46.0890073" lon="13.4692023"><ele>319.0</ele><time>2026-05-02T14:35:00.762Z</time></trkpt><trkpt lat="46.0889681" lon="13.4693879"><ele>319.0</ele><time>2026-05-02T14:35:02.76Z</time></trkpt><trkpt lat="46.0888884" lon="13.4694612"><ele>319.0</ele><time>2026-05-02T14:35:03.774Z</time></trkpt><trkpt lat="46.0887745" lon="13.4695115"><ele>319.0</ele><time>2026-05-02T14:35:04.763Z</time></trkpt><trkpt lat="46.088633" lon="13.4695519"><ele>319.0</ele><time>2026-05-02T14:35:05.773Z</time></trkpt><trkpt lat="46.0884886" lon="13.4695987"><ele>319.0</ele><time>2026-05-02T14:35:06.769Z</time></trkpt><trkpt lat="46.0883311" lon="13.4696405"><ele>319.0</ele><time>2026-05-02T14:35:07.775Z</time></trkpt><trkpt lat="46.088181" lon="13.4697036"><ele>315.66666666666663</ele><time>2026-05-02T14:35:08.758Z</time></trkpt><trkpt lat="46.0880363" lon="13.4697708"><ele>312.3333333333333</ele><time>2026-05-02T14:35:09.755Z</time></trkpt><trkpt lat="46.0878935" lon="13.4698402"><ele>309.0</ele><time>2026-05-02T14:35:10.764Z</time></trkpt><trkpt lat="46.0876153" lon="13.4699535"><ele>309.0</ele><time>2026-05-02T14:35:12.762Z</time></trkpt><trkpt lat="46.0874853" lon="13.4700058"><ele>309.0</ele><time>2026-05-02T14:35:13.764Z</time></trkpt><trkpt lat="46.0873474" lon="13.4700742"><ele>309.0</ele><time>2026-05-02T14:35:14.762Z</time></trkpt><trkpt lat="46.0872068" lon="13.4701672"><ele>309.0</ele><time>2026-05-02T14:35:15.76Z</time></trkpt><trkpt lat="46.0870833" lon="13.4703099"><ele>308.3333333333333</ele><time>2026-05-02T14:35:16.76Z</time></trkpt><trkpt lat="46.0869945" lon="13.4704907"><ele>307.66666666666663</ele><time>2026-05-02T14:35:17.763Z</time></trkpt><trkpt lat="46.0869187" lon="13.4706739"><ele>307.0</ele><time>2026-05-02T14:35:18.768Z</time></trkpt><trkpt lat="46.0868649" lon="13.4708729"><ele>307.0</ele><time>2026-05-02T14:35:19.762Z</time></trkpt><trkpt lat="46.086832" lon="13.4710963"><ele>307.0</ele><time>2026-05-02T14:35:20.754Z</time></trkpt><trkpt lat="46.0868118" lon="13.4713149"><ele>307.0</ele><time>2026-05-02T14:35:21.773Z</time></trkpt><trkpt lat="46.0867592" lon="13.4716993"><ele>304.0</ele><time>2026-05-02T14:35:23.758Z</time></trkpt><trkpt lat="46.0867239" lon="13.4718996"><ele>301.0</ele><time>2026-05-02T14:35:24.763Z</time></trkpt><trkpt lat="46.0866836" lon="13.4720953"><ele>298.0</ele><time>2026-05-02T14:35:25.76Z</time></trkpt><trkpt lat="46.0866158" lon="13.4722851"><ele>295.0</ele><time>2026-05-02T14:35:26.76Z</time></trkpt><trkpt lat="46.0865304" lon="13.4724765"><ele>290.0</ele><time>2026-05-02T14:35:27.762Z</time></trkpt><trkpt lat="46.0864243" lon="13.4726341"><ele>285.0</ele><time>2026-05-02T14:35:28.755Z</time></trkpt><trkpt lat="46.0862981" lon="13.4727911"><ele>280.0</ele><time>2026-05-02T14:35:29.769Z</time></trkpt><trkpt lat="46.0861948" lon="13.4729214"><ele>278.3333333333333</ele><time>2026-05-02T14:35:30.76Z</time></trkpt><trkpt lat="46.0860815" lon="13.4730466"><ele>276.6666666666667</ele><time>2026-05-02T14:35:31.757Z</time></trkpt><trkpt lat="46.085962" lon="13.473194"><ele>275.0</ele><time>2026-05-02T14:35:32.769Z</time></trkpt><trkpt lat="46.0858495" lon="13.4733509"><ele>273.75</ele><time>2026-05-02T14:35:33.764Z</time></trkpt><trkpt lat="46.0857539" lon="13.4735118"><ele>272.5</ele><time>2026-05-02T14:35:34.771Z</time></trkpt><trkpt lat="46.0856645" lon="13.4736675"><ele>271.25</ele><time>2026-05-02T14:35:35.769Z</time></trkpt><trkpt lat="46.085576" lon="13.4738381"><ele>270.0</ele><time>2026-05-02T14:35:36.768Z</time></trkpt><trkpt lat="46.0854867" lon="13.4740147"><ele>270.0</ele><time>2026-05-02T14:35:37.759Z</time></trkpt><trkpt lat="46.0854147" lon="13.4741789"><ele>270.0</ele><time>2026-05-02T14:35:38.771Z</time></trkpt><trkpt lat="46.0853406" lon="13.474325"><ele>270.0</ele><time>2026-05-02T14:35:39.756Z</time></trkpt><trkpt lat="46.085288" lon="13.4744782"><ele>270.0</ele><time>2026-05-02T14:35:40.76Z</time></trkpt><trkpt lat="46.0852686" lon="13.4746559"><ele>271.0</ele><time>2026-05-02T14:35:41.761Z</time></trkpt><trkpt lat="46.0852882" lon="13.4748514"><ele>272.0</ele><time>2026-05-02T14:35:42.766Z</time></trkpt><trkpt lat="46.0854225" lon="13.4754079"><ele>271.75</ele><time>2026-05-02T14:35:45.763Z</time></trkpt><trkpt lat="46.0854735" lon="13.4756004"><ele>271.5</ele><time>2026-05-02T14:35:46.753Z</time></trkpt><trkpt lat="46.0855295" lon="13.4757993"><ele>271.25</ele><time>2026-05-02T14:35:47.756Z</time></trkpt><trkpt lat="46.0855739" lon="13.4759664"><ele>271.0</ele><time>2026-05-02T14:35:48.767Z</time></trkpt><trkpt lat="46.0856223" lon="13.4761439"><ele>270.75</ele><time>2026-05-02T14:35:49.756Z</time></trkpt><trkpt lat="46.085672" lon="13.476313"><ele>270.5</ele><time>2026-05-02T14:35:50.762Z</time></trkpt><trkpt lat="46.0857002" lon="13.4765015"><ele>270.25</ele><time>2026-05-02T14:35:51.758Z</time></trkpt><trkpt lat="46.0857201" lon="13.4766972"><ele>270.0</ele><time>2026-05-02T14:35:52.768Z</time></trkpt><trkpt lat="46.0857443" lon="13.4768916"><ele>273.5</ele><time>2026-05-02T14:35:53.754Z</time></trkpt><trkpt lat="46.0857706" lon="13.4770815"><ele>277.0</ele><time>2026-05-02T14:35:54.761Z</time></trkpt><trkpt lat="46.0857837" lon="13.4772735"><ele>280.5</ele><time>2026-05-02T14:35:55.763Z</time></trkpt><trkpt lat="46.0857827" lon="13.4774753"><ele>284.0</ele><time>2026-05-02T14:35:56.758Z</time></trkpt><trkpt lat="46.085773" lon="13.477695"><ele>284.0</ele><time>2026-05-02T14:35:57.752Z</time></trkpt><trkpt lat="46.0857783" lon="13.4779311"><ele>284.0</ele><time>2026-05-02T14:35:58.764Z</time></trkpt><trkpt lat="46.085806" lon="13.4781488"><ele>284.0</ele><time>2026-05-02T14:35:59.76Z</time></trkpt><trkpt lat="46.085843" lon="13.478345"><ele>285.75</ele><time>2026-05-02T14:36:00.757Z</time></trkpt><trkpt lat="46.0858887" lon="13.4785472"><ele>287.5</ele><time>2026-05-02T14:36:01.768Z</time></trkpt><trkpt lat="46.085941" lon="13.4787234"><ele>289.25</ele><time>2026-05-02T14:36:02.769Z</time></trkpt><trkpt lat="46.0859917" lon="13.4788988"><ele>291.0</ele><time>2026-05-02T14:36:03.773Z</time></trkpt><trkpt lat="46.0860577" lon="13.4790553"><ele>292.0</ele><time>2026-05-02T14:36:04.766Z</time></trkpt><trkpt lat="46.0861517" lon="13.4793659"><ele>293.0</ele><time>2026-05-02T14:36:06.759Z</time></trkpt><trkpt lat="46.0861789" lon="13.4795392"><ele>294.0</ele><time>2026-05-02T14:36:07.757Z</time></trkpt><trkpt lat="46.0862165" lon="13.4796959"><ele>294.0</ele><time>2026-05-02T14:36:08.764Z</time></trkpt><trkpt lat="46.0862525" lon="13.4798517"><ele>294.0</ele><time>2026-05-02T14:36:09.763Z</time></trkpt><trkpt lat="46.0862778" lon="13.4800049"><ele>294.0</ele><time>2026-05-02T14:36:10.762Z</time></trkpt><trkpt lat="46.0863048" lon="13.4801539"><ele>294.0</ele><time>2026-05-02T14:36:11.763Z</time></trkpt><trkpt lat="46.0863334" lon="13.4802892"><ele>294.0</ele><time>2026-05-02T14:36:12.764Z</time></trkpt><trkpt lat="46.0863556" lon="13.4804233"><ele>295.0</ele><time>2026-05-02T14:36:13.762Z</time></trkpt><trkpt lat="46.0863703" lon="13.4805577"><ele>296.0</ele><time>2026-05-02T14:36:14.768Z</time></trkpt><trkpt lat="46.0863895" lon="13.4808169"><ele>297.0</ele><time>2026-05-02T14:36:16.76Z</time></trkpt><trkpt lat="46.0863867" lon="13.480943"><ele>298.0</ele><time>2026-05-02T14:36:17.757Z</time></trkpt><trkpt lat="46.0863784" lon="13.4810742"><ele>298.0</ele><time>2026-05-02T14:36:18.759Z</time></trkpt><trkpt lat="46.0863647" lon="13.4812089"><ele>298.0</ele><time>2026-05-02T14:36:19.763Z</time></trkpt><trkpt lat="46.0863483" lon="13.4813498"><ele>298.0</ele><time>2026-05-02T14:36:20.766Z</time></trkpt><trkpt lat="46.086338" lon="13.4814887"><ele>298.0</ele><time>2026-05-02T14:36:21.758Z</time></trkpt><trkpt lat="46.0863229" lon="13.4816441"><ele>298.0</ele><time>2026-05-02T14:36:22.774Z</time></trkpt><trkpt lat="46.0863136" lon="13.4818056"><ele>301.0</ele><time>2026-05-02T14:36:23.783Z</time></trkpt><trkpt lat="46.0863128" lon="13.4819766"><ele>304.0</ele><time>2026-05-02T14:36:24.762Z</time></trkpt><trkpt lat="46.0863275" lon="13.4821426"><ele>307.0</ele><time>2026-05-02T14:36:25.761Z</time></trkpt><trkpt lat="46.0864184" lon="13.4824586"><ele>307.5</ele><time>2026-05-02T14:36:27.759Z</time></trkpt><trkpt lat="46.0864698" lon="13.4826276"><ele>308.0</ele><time>2026-05-02T14:36:28.768Z</time></trkpt><trkpt lat="46.0865342" lon="13.4827936"><ele>308.5</ele><time>2026-05-02T14:36:29.762Z</time></trkpt><trkpt lat="46.0866024" lon="13.482948"><ele>309.0</ele><time>2026-05-02T14:36:30.766Z</time></trkpt><trkpt lat="46.0866807" lon="13.4830937"><ele>312.25</ele><time>2026-05-02T14:36:31.755Z</time></trkpt><trkpt lat="46.0867614" lon="13.4832357"><ele>315.5</ele><time>2026-05-02T14:36:32.771Z</time></trkpt><trkpt lat="46.0868458" lon="13.4833686"><ele>318.75</ele><time>2026-05-02T14:36:33.764Z</time></trkpt><trkpt lat="46.0869247" lon="13.4834868"><ele>322.0</ele><time>2026-05-02T14:36:34.769Z</time></trkpt><trkpt lat="46.0870019" lon="13.4836003"><ele>322.0</ele><time>2026-05-02T14:36:35.764Z</time></trkpt><trkpt lat="46.0870766" lon="13.4837156"><ele>322.0</ele><time>2026-05-02T14:36:36.757Z</time></trkpt><trkpt lat="46.0871398" lon="13.4838362"><ele>322.0</ele><time>2026-05-02T14:36:37.754Z</time></trkpt><trkpt lat="46.0871999" lon="13.4839666"><ele>322.0</ele><time>2026-05-02T14:36:38.761Z</time></trkpt><trkpt lat="46.0872466" lon="13.4841143"><ele>322.0</ele><time>2026-05-02T14:36:39.762Z</time></trkpt><trkpt lat="46.0872825" lon="13.4842744"><ele>320.20000000000005</ele><time>2026-05-02T14:36:40.767Z</time></trkpt><trkpt lat="46.0873217" lon="13.4844234"><ele>318.40000000000003</ele><time>2026-05-02T14:36:41.763Z</time></trkpt><trkpt lat="46.0873721" lon="13.4845579"><ele>316.6</ele><time>2026-05-02T14:36:42.768Z</time></trkpt><trkpt lat="46.0874366" lon="13.4846704"><ele>314.8</ele><time>2026-05-02T14:36:43.759Z</time></trkpt><trkpt lat="46.0875144" lon="13.4847649"><ele>313.0</ele><time>2026-05-02T14:36:44.768Z</time></trkpt><trkpt lat="46.0876108" lon="13.4848392"><ele>325.0</ele><time>2026-05-02T14:36:45.76Z</time></trkpt><trkpt lat="46.0877204" lon="13.4848835"><ele>337.0</ele><time>2026-05-02T14:36:46.759Z</time></trkpt><trkpt lat="46.0880578" lon="13.4849787"><ele>337.0</ele><time>2026-05-02T14:36:49.763Z</time></trkpt><trkpt lat="46.0881814" lon="13.4850252"><ele>337.0</ele><time>2026-05-02T14:36:50.764Z</time></trkpt><trkpt lat="46.0883009" lon="13.4850779"><ele>337.0</ele><time>2026-05-02T14:36:51.761Z</time></trkpt><trkpt lat="46.0884243" lon="13.4851266"><ele>337.0</ele><time>2026-05-02T14:36:52.755Z</time></trkpt><trkpt lat="46.0885303" lon="13.4852107"><ele>335.75</ele><time>2026-05-02T14:36:53.76Z</time></trkpt><trkpt lat="46.0886338" lon="13.4853063"><ele>334.5</ele><time>2026-05-02T14:36:54.756Z</time></trkpt><trkpt lat="46.0887423" lon="13.4854041"><ele>333.25</ele><time>2026-05-02T14:36:55.762Z</time></trkpt><trkpt lat="46.088848" lon="13.4855033"><ele>332.0</ele><time>2026-05-02T14:36:56.76Z</time></trkpt><trkpt lat="46.0889523" lon="13.4856167"><ele>332.0</ele><time>2026-05-02T14:36:57.763Z</time></trkpt><trkpt lat="46.0890508" lon="13.4857356"><ele>332.0</ele><time>2026-05-02T14:36:58.767Z</time></trkpt><trkpt lat="46.0891487" lon="13.4858537"><ele>332.0</ele><time>2026-05-02T14:36:59.765Z</time></trkpt><trkpt lat="46.0892438" lon="13.485975"><ele>332.0</ele><time>2026-05-02T14:37:00.762Z</time></trkpt><trkpt lat="46.0893334" lon="13.4861169"><ele>335.5</ele><time>2026-05-02T14:37:01.765Z</time></trkpt><trkpt lat="46.0894078" lon="13.4862878"><ele>339.0</ele><time>2026-05-02T14:37:02.761Z</time></trkpt><trkpt lat="46.0894657" lon="13.4864859"><ele>342.5</ele><time>2026-05-02T14:37:03.751Z</time></trkpt><trkpt lat="46.0894937" lon="13.4867119"><ele>346.0</ele><time>2026-05-02T14:37:04.756Z</time></trkpt><trkpt lat="46.0894877" lon="13.4869024"><ele>346.0</ele><time>2026-05-02T14:37:05.76Z</time></trkpt><trkpt lat="46.0894823" lon="13.4870799"><ele>346.0</ele><time>2026-05-02T14:37:06.766Z</time></trkpt><trkpt lat="46.0895228" lon="13.4872414"><ele>346.0</ele><time>2026-05-02T14:37:07.754Z</time></trkpt><trkpt lat="46.0895684" lon="13.4874034"><ele>346.0</ele><time>2026-05-02T14:37:08.757Z</time></trkpt><trkpt lat="46.0897138" lon="13.4877284"><ele>347.75</ele><time>2026-05-02T14:37:10.755Z</time></trkpt><trkpt lat="46.089798" lon="13.48787"><ele>349.5</ele><time>2026-05-02T14:37:11.759Z</time></trkpt><trkpt lat="46.0898921" lon="13.4880023"><ele>351.25</ele><time>2026-05-02T14:37:12.765Z</time></trkpt><trkpt lat="46.0899737" lon="13.4881368"><ele>353.0</ele><time>2026-05-02T14:37:13.76Z</time></trkpt><trkpt lat="46.0900484" lon="13.4882922"><ele>353.0</ele><time>2026-05-02T14:37:14.754Z</time></trkpt><trkpt lat="46.0901186" lon="13.4884461"><ele>353.0</ele><time>2026-05-02T14:37:15.773Z</time></trkpt><trkpt lat="46.0901879" lon="13.488592"><ele>353.0</ele><time>2026-05-02T14:37:16.759Z</time></trkpt><trkpt lat="46.090244" lon="13.4887263"><ele>353.0</ele><time>2026-05-02T14:37:17.757Z</time></trkpt><trkpt lat="46.0902663" lon="13.4888794"><ele>353.6666666666667</ele><time>2026-05-02T14:37:18.763Z</time></trkpt><trkpt lat="46.090261" lon="13.4892249"><ele>354.3333333333333</ele><time>2026-05-02T14:37:20.756Z</time></trkpt><trkpt lat="46.0902494" lon="13.4894141"><ele>355.0</ele><time>2026-05-02T14:37:21.758Z</time></trkpt><trkpt lat="46.0902293" lon="13.489613"><ele>355.75</ele><time>2026-05-02T14:37:22.76Z</time></trkpt><trkpt lat="46.0902013" lon="13.4898303"><ele>356.5</ele><time>2026-05-02T14:37:23.759Z</time></trkpt><trkpt lat="46.0901605" lon="13.4900475"><ele>357.25</ele><time>2026-05-02T14:37:24.764Z</time></trkpt><trkpt lat="46.0901234" lon="13.4902421"><ele>358.0</ele><time>2026-05-02T14:37:25.759Z</time></trkpt><trkpt lat="46.0900855" lon="13.4904404"><ele>359.25</ele><time>2026-05-02T14:37:26.76Z</time></trkpt><trkpt lat="46.0900533" lon="13.4906421"><ele>360.5</ele><time>2026-05-02T14:37:27.757Z</time></trkpt><trkpt lat="46.0900291" lon="13.4908448"><ele>361.75</ele><time>2026-05-02T14:37:28.765Z</time></trkpt><trkpt lat="46.0900116" lon="13.4910454"><ele>363.0</ele><time>2026-05-02T14:37:29.76Z</time></trkpt><trkpt lat="46.0899805" lon="13.4914604"><ele>364.5</ele><time>2026-05-02T14:37:31.76Z</time></trkpt><trkpt lat="46.0899814" lon="13.4916736"><ele>366.0</ele><time>2026-05-02T14:37:32.755Z</time></trkpt><trkpt lat="46.0899763" lon="13.4918731"><ele>367.5</ele><time>2026-05-02T14:37:33.761Z</time></trkpt><trkpt lat="46.0899699" lon="13.4920643"><ele>369.0</ele><time>2026-05-02T14:37:34.759Z</time></trkpt><trkpt lat="46.0899559" lon="13.4922599"><ele>371.5</ele><time>2026-05-02T14:37:35.762Z</time></trkpt><trkpt lat="46.0899431" lon="13.4924543"><ele>374.0</ele><time>2026-05-02T14:37:36.753Z</time></trkpt><trkpt lat="46.0899446" lon="13.4926279"><ele>376.5</ele><time>2026-05-02T14:37:37.766Z</time></trkpt><trkpt lat="46.0899358" lon="13.4927911"><ele>379.0</ele><time>2026-05-02T14:37:38.758Z</time></trkpt><trkpt lat="46.0899372" lon="13.4929566"><ele>381.0</ele><time>2026-05-02T14:37:39.767Z</time></trkpt><trkpt lat="46.0899424" lon="13.4931223"><ele>383.0</ele><time>2026-05-02T14:37:40.767Z</time></trkpt><trkpt lat="46.089947" lon="13.4932962"><ele>385.0</ele><time>2026-05-02T14:37:41.763Z</time></trkpt><trkpt lat="46.0899472" lon="13.4934471"><ele>387.0</ele><time>2026-05-02T14:37:42.766Z</time></trkpt><trkpt lat="46.089943" lon="13.4936005"><ele>389.0</ele><time>2026-05-02T14:37:43.758Z</time></trkpt><trkpt lat="46.089927" lon="13.4937497"><ele>389.0</ele><time>2026-05-02T14:37:44.76Z</time></trkpt><trkpt lat="46.0899064" lon="13.4938917"><ele>389.0</ele><time>2026-05-02T14:37:45.767Z</time></trkpt><trkpt lat="46.0898755" lon="13.4940306"><ele>389.0</ele><time>2026-05-02T14:37:46.76Z</time></trkpt><trkpt lat="46.0898379" lon="13.4941674"><ele>389.0</ele><time>2026-05-02T14:37:47.761Z</time></trkpt><trkpt lat="46.0897978" lon="13.4943017"><ele>389.0</ele><time>2026-05-02T14:37:48.766Z</time></trkpt><trkpt lat="46.0897504" lon="13.4944138"><ele>389.0</ele><time>2026-05-02T14:37:49.757Z</time></trkpt><trkpt lat="46.0896899" lon="13.4944976"><ele>389.0</ele><time>2026-05-02T14:37:50.762Z</time></trkpt><trkpt lat="46.0894614" lon="13.4945529"><ele>389.0</ele><time>2026-05-02T14:37:53.756Z</time></trkpt><trkpt lat="46.0893868" lon="13.4945553"><ele>389.0</ele><time>2026-05-02T14:37:54.768Z</time></trkpt><trkpt lat="46.0893219" lon="13.4946075"><ele>390.8333333333333</ele><time>2026-05-02T14:37:55.751Z</time></trkpt><trkpt lat="46.0892918" lon="13.4946958"><ele>392.66666666666663</ele><time>2026-05-02T14:37:56.759Z</time></trkpt><trkpt lat="46.0892812" lon="13.4947998"><ele>394.5</ele><time>2026-05-02T14:37:57.772Z</time></trkpt><trkpt lat="46.0892717" lon="13.4949034"><ele>396.33333333333337</ele><time>2026-05-02T14:37:58.758Z</time></trkpt><trkpt lat="46.0892639" lon="13.4949991"><ele>398.1666666666667</ele><time>2026-05-02T14:37:59.751Z</time></trkpt><trkpt lat="46.0893258" lon="13.4951378"><ele>400.0</ele><time>2026-05-02T14:38:01.76Z</time></trkpt><trkpt lat="46.0893896" lon="13.4951364"><ele>400.0</ele><time>2026-05-02T14:38:02.767Z</time></trkpt><trkpt lat="46.0894779" lon="13.4950199"><ele>400.0</ele><time>2026-05-02T14:38:04.761Z</time></trkpt><trkpt lat="46.0895146" lon="13.4948727"><ele>400.0</ele><time>2026-05-02T14:38:06.75Z</time></trkpt><trkpt lat="46.0895943" lon="13.4947878"><ele>400.0</ele><time>2026-05-02T14:38:08.77Z</time></trkpt><trkpt lat="46.0897146" lon="13.4948236"><ele>400.0</ele><time>2026-05-02T14:38:10.767Z</time></trkpt><trkpt lat="46.0897882" lon="13.4948435"><ele>400.0</ele><time>2026-05-02T14:38:11.76Z</time></trkpt><trkpt lat="46.0898537" lon="13.4948658"><ele>400.0</ele><time>2026-05-02T14:38:12.758Z</time></trkpt><trkpt lat="46.0899988" lon="13.4949714"><ele>400.0</ele><time>2026-05-02T14:38:14.761Z</time></trkpt><trkpt lat="46.0900678" lon="13.4950557"><ele>400.0</ele><time>2026-05-02T14:38:15.761Z</time></trkpt><trkpt lat="46.0901199" lon="13.4951638"><ele>403.5</ele><time>2026-05-02T14:38:16.759Z</time></trkpt><trkpt lat="46.0901533" lon="13.4952967"><ele>407.0</ele><time>2026-05-02T14:38:17.768Z</time></trkpt><trkpt lat="46.0901799" lon="13.4954485"><ele>410.5</ele><time>2026-05-02T14:38:18.772Z</time></trkpt><trkpt lat="46.0902094" lon="13.4956311"><ele>414.0</ele><time>2026-05-02T14:38:19.759Z</time></trkpt><trkpt lat="46.0902404" lon="13.4958621"><ele>416.0</ele><time>2026-05-02T14:38:20.758Z</time></trkpt><trkpt lat="46.0902712" lon="13.4961711"><ele>418.0</ele><time>2026-05-02T14:38:21.757Z</time></trkpt><trkpt lat="46.0902697" lon="13.4965029"><ele>420.0</ele><time>2026-05-02T14:38:22.776Z</time></trkpt><trkpt lat="46.0903218" lon="13.4970687"><ele>420.0</ele><time>2026-05-02T14:38:24.757Z</time></trkpt><trkpt lat="46.0903658" lon="13.49733"><ele>420.0</ele><time>2026-05-02T14:38:25.764Z</time></trkpt><trkpt lat="46.0904216" lon="13.4975615"><ele>420.0</ele><time>2026-05-02T14:38:26.759Z</time></trkpt><trkpt lat="46.0904854" lon="13.4977748"><ele>419.25</ele><time>2026-05-02T14:38:27.754Z</time></trkpt><trkpt lat="46.0905631" lon="13.4979669"><ele>418.5</ele><time>2026-05-02T14:38:28.768Z</time></trkpt><trkpt lat="46.0906169" lon="13.4981598"><ele>417.75</ele><time>2026-05-02T14:38:29.755Z</time></trkpt><trkpt lat="46.0906669" lon="13.4983617"><ele>417.0</ele><time>2026-05-02T14:38:30.757Z</time></trkpt><trkpt lat="46.0907067" lon="13.4985735"><ele>415.33333333333337</ele><time>2026-05-02T14:38:31.766Z</time></trkpt><trkpt lat="46.0907366" lon="13.4987934"><ele>413.6666666666667</ele><time>2026-05-02T14:38:32.763Z</time></trkpt><trkpt lat="46.0907635" lon="13.4989986"><ele>412.0</ele><time>2026-05-02T14:38:33.763Z</time></trkpt><trkpt lat="46.0908421" lon="13.4994363"><ele>419.25</ele><time>2026-05-02T14:38:35.778Z</time></trkpt><trkpt lat="46.0909011" lon="13.4996392"><ele>426.5</ele><time>2026-05-02T14:38:36.763Z</time></trkpt><trkpt lat="46.0909522" lon="13.4998169"><ele>433.75</ele><time>2026-05-02T14:38:37.762Z</time></trkpt><trkpt lat="46.09101" lon="13.5000007"><ele>441.0</ele><time>2026-05-02T14:38:38.758Z</time></trkpt><trkpt lat="46.0910632" lon="13.5001951"><ele>441.0</ele><time>2026-05-02T14:38:39.764Z</time></trkpt><trkpt lat="46.0911014" lon="13.5003852"><ele>441.0</ele><time>2026-05-02T14:38:40.761Z</time></trkpt><trkpt lat="46.091128" lon="13.5005866"><ele>441.0</ele><time>2026-05-02T14:38:41.761Z</time></trkpt><trkpt lat="46.0911415" lon="13.5007983"><ele>441.0</ele><time>2026-05-02T14:38:42.767Z</time></trkpt><trkpt lat="46.0911484" lon="13.5010109"><ele>442.66666666666663</ele><time>2026-05-02T14:38:43.768Z</time></trkpt><trkpt lat="46.09115" lon="13.5012445"><ele>444.3333333333333</ele><time>2026-05-02T14:38:44.758Z</time></trkpt><trkpt lat="46.0911523" lon="13.5014815"><ele>446.0</ele><time>2026-05-02T14:38:45.757Z</time></trkpt><trkpt lat="46.0911404" lon="13.5017207"><ele>447.3333333333333</ele><time>2026-05-02T14:38:46.751Z</time></trkpt><trkpt lat="46.0911389" lon="13.501965"><ele>448.66666666666663</ele><time>2026-05-02T14:38:47.764Z</time></trkpt><trkpt lat="46.0911363" lon="13.5022074"><ele>450.0</ele><time>2026-05-02T14:38:48.768Z</time></trkpt><trkpt lat="46.0911299" lon="13.5024315"><ele>450.25</ele><time>2026-05-02T14:38:49.765Z</time></trkpt><trkpt lat="46.0911274" lon="13.5026263"><ele>450.5</ele><time>2026-05-02T14:38:50.767Z</time></trkpt><trkpt lat="46.0911313" lon="13.5028349"><ele>450.75</ele><time>2026-05-02T14:38:51.772Z</time></trkpt><trkpt lat="46.0911592" lon="13.5030298"><ele>451.0</ele><time>2026-05-02T14:38:52.764Z</time></trkpt><trkpt lat="46.0912376" lon="13.5032243"><ele>451.0</ele><time>2026-05-02T14:38:53.754Z</time></trkpt><trkpt lat="46.0913331" lon="13.503382"><ele>451.0</ele><time>2026-05-02T14:38:54.759Z</time></trkpt><trkpt lat="46.0916452" lon="13.5039189"><ele>459.0</ele><time>2026-05-02T14:38:57.754Z</time></trkpt><trkpt lat="46.091742" lon="13.5040927"><ele>467.0</ele><time>2026-05-02T14:38:58.757Z</time></trkpt><trkpt lat="46.0918372" lon="13.5042676"><ele>475.0</ele><time>2026-05-02T14:38:59.77Z</time></trkpt><trkpt lat="46.0919263" lon="13.5044328"><ele>474.25</ele><time>2026-05-02T14:39:00.756Z</time></trkpt><trkpt lat="46.0920159" lon="13.5045875"><ele>473.5</ele><time>2026-05-02T14:39:01.763Z</time></trkpt><trkpt lat="46.0921118" lon="13.5047175"><ele>472.75</ele><time>2026-05-02T14:39:02.758Z</time></trkpt><trkpt lat="46.092177" lon="13.5048282"><ele>472.0</ele><time>2026-05-02T14:39:03.767Z</time></trkpt><trkpt lat="46.0922567" lon="13.5049365"><ele>472.0</ele><time>2026-05-02T14:39:04.766Z</time></trkpt><trkpt lat="46.0923625" lon="13.5050042"><ele>472.0</ele><time>2026-05-02T14:39:05.759Z</time></trkpt><trkpt lat="46.092498" lon="13.5050485"><ele>472.0</ele><time>2026-05-02T14:39:06.756Z</time></trkpt><trkpt lat="46.0926399" lon="13.5050854"><ele>472.0</ele><time>2026-05-02T14:39:07.774Z</time></trkpt><trkpt lat="46.0927874" lon="13.5051303"><ele>476.0</ele><time>2026-05-02T14:39:08.76Z</time></trkpt><trkpt lat="46.0929247" lon="13.5051395"><ele>480.00000000000006</ele><time>2026-05-02T14:39:09.759Z</time></trkpt><trkpt lat="46.0930287" lon="13.5050788"><ele>484.00000000000006</ele><time>2026-05-02T14:39:10.756Z</time></trkpt><trkpt lat="46.0931301" lon="13.5050221"><ele>488.0</ele><time>2026-05-02T14:39:11.761Z</time></trkpt><trkpt lat="46.0931947" lon="13.5049943"><ele>492.0</ele><time>2026-05-02T14:39:12.765Z</time></trkpt><trkpt lat="46.0932273" lon="13.5050918"><ele>492.0</ele><time>2026-05-02T14:39:14.762Z</time></trkpt><trkpt lat="46.0931885" lon="13.5051665"><ele>492.0</ele><time>2026-05-02T14:39:15.758Z</time></trkpt><trkpt lat="46.0931392" lon="13.5052271"><ele>492.0</ele><time>2026-05-02T14:39:16.756Z</time></trkpt><trkpt lat="46.0930584" lon="13.5053781"><ele>492.0</ele><time>2026-05-02T14:39:18.755Z</time></trkpt><trkpt lat="46.0930248" lon="13.5054602"><ele>492.0</ele><time>2026-05-02T14:39:19.757Z</time></trkpt><trkpt lat="46.0929861" lon="13.5055517"><ele>492.0</ele><time>2026-05-02T14:39:20.764Z</time></trkpt><trkpt lat="46.0929585" lon="13.5056559"><ele>492.3333333333333</ele><time>2026-05-02T14:39:21.764Z</time></trkpt><trkpt lat="46.0929446" lon="13.5057748"><ele>492.66666666666663</ele><time>2026-05-02T14:39:22.755Z</time></trkpt><trkpt lat="46.092937" lon="13.5058855"><ele>493.0</ele><time>2026-05-02T14:39:23.759Z</time></trkpt><trkpt lat="46.0929291" lon="13.5059847"><ele>493.3333333333333</ele><time>2026-05-02T14:39:24.759Z</time></trkpt><trkpt lat="46.0929291" lon="13.5060975"><ele>493.66666666666663</ele><time>2026-05-02T14:39:25.765Z</time></trkpt><trkpt lat="46.0929317" lon="13.5062164"><ele>494.0</ele><time>2026-05-02T14:39:26.765Z</time></trkpt><trkpt lat="46.0929706" lon="13.5064022"><ele>494.0</ele><time>2026-05-02T14:39:28.761Z</time></trkpt><trkpt lat="46.0929587" lon="13.5062656"><ele>494.0</ele><time>2026-05-02T14:39:35.762Z</time></trkpt><trkpt lat="46.0929493" lon="13.5061491"><ele>494.0</ele><time>2026-05-02T14:39:36.76Z</time></trkpt><trkpt lat="46.0929478" lon="13.5060188"><ele>494.0</ele><time>2026-05-02T14:39:37.755Z</time></trkpt><trkpt lat="46.0929681" lon="13.5057597"><ele>494.0</ele><time>2026-05-02T14:39:39.76Z</time></trkpt><trkpt lat="46.0929857" lon="13.5056327"><ele>493.99999999999994</ele><time>2026-05-02T14:39:40.753Z</time></trkpt><trkpt lat="46.0930059" lon="13.5055097"><ele>494.0</ele><time>2026-05-02T14:39:41.755Z</time></trkpt><trkpt lat="46.0930335" lon="13.5053894"><ele>494.0</ele><time>2026-05-02T14:39:42.767Z</time></trkpt><trkpt lat="46.0930686" lon="13.5052913"><ele>494.0</ele><time>2026-05-02T14:39:43.768Z</time></trkpt><trkpt lat="46.0931453" lon="13.5051585"><ele>493.99999999999994</ele><time>2026-05-02T14:39:45.765Z</time></trkpt><trkpt lat="46.0931893" lon="13.505073"><ele>494.0</ele><time>2026-05-02T14:39:47.766Z</time></trkpt><trkpt lat="46.0931425" lon="13.5049678"><ele>493.66666666666663</ele><time>2026-05-02T14:39:50.765Z</time></trkpt><trkpt lat="46.0930307" lon="13.5049877"><ele>493.3333333333333</ele><time>2026-05-02T14:39:52.766Z</time></trkpt><trkpt lat="46.0929629" lon="13.5050188"><ele>493.0</ele><time>2026-05-02T14:39:53.755Z</time></trkpt><trkpt lat="46.0928803" lon="13.5050549"><ele>492.66666666666663</ele><time>2026-05-02T14:39:54.758Z</time></trkpt><trkpt lat="46.0927958" lon="13.5050771"><ele>492.3333333333333</ele><time>2026-05-02T14:39:55.756Z</time></trkpt><trkpt lat="46.0927193" lon="13.5050853"><ele>492.0</ele><time>2026-05-02T14:39:56.763Z</time></trkpt><trkpt lat="46.092652" lon="13.5050855"><ele>492.0</ele><time>2026-05-02T14:39:57.768Z</time></trkpt><trkpt lat="46.0925655" lon="13.5050094"><ele>492.0</ele><time>2026-05-02T14:40:00.757Z</time></trkpt><trkpt lat="46.0926899" lon="13.5048648"><ele>492.0</ele><time>2026-05-02T14:40:05.763Z</time></trkpt><trkpt lat="46.0928202" lon="13.5048439"><ele>492.0</ele><time>2026-05-02T14:40:07.768Z</time></trkpt><trkpt lat="46.0929023" lon="13.5048354"><ele>492.0</ele><time>2026-05-02T14:40:08.765Z</time></trkpt><trkpt lat="46.0929908" lon="13.5048334"><ele>492.0</ele><time>2026-05-02T14:40:09.769Z</time></trkpt><trkpt lat="46.0930849" lon="13.5048262"><ele>492.0</ele><time>2026-05-02T14:40:10.757Z</time></trkpt><trkpt lat="46.0931615" lon="13.5048151"><ele>492.0</ele><time>2026-05-02T14:40:11.769Z</time></trkpt><trkpt lat="46.09323" lon="13.5048116"><ele>492.0</ele><time>2026-05-02T14:40:12.752Z</time></trkpt><trkpt lat="46.0932975" lon="13.5048185"><ele>492.0</ele><time>2026-05-02T14:40:13.76Z</time></trkpt><trkpt lat="46.0933636" lon="13.5048358"><ele>493.0</ele><time>2026-05-02T14:40:14.769Z</time></trkpt><trkpt lat="46.0934309" lon="13.5048851"><ele>494.00000000000006</ele><time>2026-05-02T14:40:15.757Z</time></trkpt><trkpt lat="46.0935128" lon="13.5049552"><ele>495.00000000000006</ele><time>2026-05-02T14:40:16.758Z</time></trkpt><trkpt lat="46.0936051" lon="13.5050319"><ele>496.0</ele><time>2026-05-02T14:40:17.758Z</time></trkpt><trkpt lat="46.0936954" lon="13.5051047"><ele>497.0</ele><time>2026-05-02T14:40:18.772Z</time></trkpt><trkpt lat="46.0937865" lon="13.5051872"><ele>497.0</ele><time>2026-05-02T14:40:19.762Z</time></trkpt><trkpt lat="46.0938794" lon="13.5052758"><ele>497.0</ele><time>2026-05-02T14:40:20.771Z</time></trkpt><trkpt lat="46.0939692" lon="13.5053575"><ele>497.0</ele><time>2026-05-02T14:40:21.755Z</time></trkpt><trkpt lat="46.0940631" lon="13.5054302"><ele>497.0</ele><time>2026-05-02T14:40:22.76Z</time></trkpt><trkpt lat="46.0942424" lon="13.5055463"><ele>496.99999999999994</ele><time>2026-05-02T14:40:24.762Z</time></trkpt><trkpt lat="46.0943312" lon="13.505585"><ele>497.0</ele><time>2026-05-02T14:40:25.756Z</time></trkpt><trkpt lat="46.0944208" lon="13.505621"><ele>497.0</ele><time>2026-05-02T14:40:26.756Z</time></trkpt><trkpt lat="46.0945164" lon="13.5056459"><ele>497.0</ele><time>2026-05-02T14:40:27.759Z</time></trkpt><trkpt lat="46.0945996" lon="13.5056533"><ele>496.99999999999994</ele><time>2026-05-02T14:40:28.759Z</time></trkpt><trkpt lat="46.094681" lon="13.5056405"><ele>497.0</ele><time>2026-05-02T14:40:29.762Z</time></trkpt><trkpt lat="46.0947556" lon="13.5055989"><ele>497.0</ele><time>2026-05-02T14:40:30.762Z</time></trkpt><trkpt lat="46.0949187" lon="13.5054361"><ele>497.00000000000006</ele><time>2026-05-02T14:40:32.767Z</time></trkpt><trkpt lat="46.0949859" lon="13.5053702"><ele>497.00000000000006</ele><time>2026-05-02T14:40:33.761Z</time></trkpt><trkpt lat="46.0950367" lon="13.5053123"><ele>497.0</ele><time>2026-05-02T14:40:34.758Z</time></trkpt><trkpt lat="46.0951074" lon="13.5052769"><ele>497.0</ele><time>2026-05-02T14:40:35.755Z</time></trkpt><trkpt lat="46.0951894" lon="13.5052486"><ele>492.16666666666663</ele><time>2026-05-02T14:40:36.755Z</time></trkpt><trkpt lat="46.0952725" lon="13.5052506"><ele>487.3333333333333</ele><time>2026-05-02T14:40:37.756Z</time></trkpt><trkpt lat="46.0953524" lon="13.5052509"><ele>482.5</ele><time>2026-05-02T14:40:38.76Z</time></trkpt><trkpt lat="46.0954266" lon="13.5052465"><ele>477.66666666666663</ele><time>2026-05-02T14:40:39.755Z</time></trkpt><trkpt lat="46.0954966" lon="13.5052158"><ele>472.8333333333333</ele><time>2026-05-02T14:40:40.763Z</time></trkpt><trkpt lat="46.0955745" lon="13.5051677"><ele>468.0</ele><time>2026-05-02T14:40:41.773Z</time></trkpt><trkpt lat="46.0956576" lon="13.5050719"><ele>468.0</ele><time>2026-05-02T14:40:42.758Z</time></trkpt><trkpt lat="46.0957297" lon="13.5049571"><ele>468.0</ele><time>2026-05-02T14:40:43.759Z</time></trkpt><trkpt lat="46.0958724" lon="13.5047094"><ele>468.0</ele><time>2026-05-02T14:40:45.757Z</time></trkpt><trkpt lat="46.0959452" lon="13.5045838"><ele>468.0</ele><time>2026-05-02T14:40:46.757Z</time></trkpt><trkpt lat="46.0960185" lon="13.5044588"><ele>465.2</ele><time>2026-05-02T14:40:47.755Z</time></trkpt><trkpt lat="46.0961065" lon="13.5043463"><ele>462.4</ele><time>2026-05-02T14:40:48.755Z</time></trkpt><trkpt lat="46.0961859" lon="13.5042386"><ele>459.59999999999997</ele><time>2026-05-02T14:40:49.768Z</time></trkpt><trkpt lat="46.0962546" lon="13.5041469"><ele>456.79999999999995</ele><time>2026-05-02T14:40:50.762Z</time></trkpt><trkpt lat="46.0963142" lon="13.5040835"><ele>454.0</ele><time>2026-05-02T14:40:51.754Z</time></trkpt><trkpt lat="46.0963688" lon="13.5040283"><ele>454.0</ele><time>2026-05-02T14:40:52.763Z</time></trkpt><trkpt lat="46.0964258" lon="13.503963"><ele>454.0</ele><time>2026-05-02T14:40:53.767Z</time></trkpt><trkpt lat="46.0965323" lon="13.5038706"><ele>454.0</ele><time>2026-05-02T14:40:55.767Z</time></trkpt><trkpt lat="46.0966414" lon="13.5037696"><ele>454.0</ele><time>2026-05-02T14:40:57.757Z</time></trkpt><trkpt lat="46.0967073" lon="13.5037019"><ele>454.0</ele><time>2026-05-02T14:40:58.759Z</time></trkpt><trkpt lat="46.0967788" lon="13.5036274"><ele>452.5</ele><time>2026-05-02T14:40:59.761Z</time></trkpt><trkpt lat="46.0968549" lon="13.5035516"><ele>451.0</ele><time>2026-05-02T14:41:00.763Z</time></trkpt><trkpt lat="46.0969399" lon="13.5034754"><ele>449.5</ele><time>2026-05-02T14:41:01.769Z</time></trkpt><trkpt lat="46.0970313" lon="13.5033993"><ele>448.0</ele><time>2026-05-02T14:41:02.762Z</time></trkpt><trkpt lat="46.0972607" lon="13.503267"><ele>444.6666666666667</ele><time>2026-05-02T14:41:04.756Z</time></trkpt><trkpt lat="46.0975249" lon="13.5031305"><ele>441.33333333333337</ele><time>2026-05-02T14:41:06.761Z</time></trkpt><trkpt lat="46.0976468" lon="13.5030668"><ele>438.0</ele><time>2026-05-02T14:41:07.758Z</time></trkpt><trkpt lat="46.0977606" lon="13.5030041"><ele>438.0</ele><time>2026-05-02T14:41:08.758Z</time></trkpt><trkpt lat="46.0978742" lon="13.5029451"><ele>438.0</ele><time>2026-05-02T14:41:09.756Z</time></trkpt><trkpt lat="46.0979841" lon="13.5028834"><ele>438.0</ele><time>2026-05-02T14:41:10.759Z</time></trkpt><trkpt lat="46.0980981" lon="13.5028316"><ele>438.0</ele><time>2026-05-02T14:41:11.748Z</time></trkpt><trkpt lat="46.0981986" lon="13.5027891"><ele>437.2</ele><time>2026-05-02T14:41:12.764Z</time></trkpt><trkpt lat="46.098295" lon="13.5027538"><ele>436.4</ele><time>2026-05-02T14:41:13.756Z</time></trkpt><trkpt lat="46.0983853" lon="13.5026977"><ele>435.59999999999997</ele><time>2026-05-02T14:41:14.751Z</time></trkpt><trkpt lat="46.0984739" lon="13.5026226"><ele>434.79999999999995</ele><time>2026-05-02T14:41:15.754Z</time></trkpt><trkpt lat="46.0985563" lon="13.5025279"><ele>434.0</ele><time>2026-05-02T14:41:16.761Z</time></trkpt><trkpt lat="46.0986493" lon="13.5024008"><ele>434.0</ele><time>2026-05-02T14:41:17.761Z</time></trkpt><trkpt lat="46.0987314" lon="13.5022508"><ele>434.0</ele><time>2026-05-02T14:41:18.755Z</time></trkpt><trkpt lat="46.0988031" lon="13.5021051"><ele>434.0</ele><time>2026-05-02T14:41:19.754Z</time></trkpt><trkpt lat="46.0988719" lon="13.5019559"><ele>434.0</ele><time>2026-05-02T14:41:20.76Z</time></trkpt><trkpt lat="46.0989397" lon="13.5018194"><ele>432.6</ele><time>2026-05-02T14:41:21.763Z</time></trkpt><trkpt lat="46.0990168" lon="13.5017024"><ele>431.2</ele><time>2026-05-02T14:41:22.754Z</time></trkpt><trkpt lat="46.0990827" lon="13.5015797"><ele>429.80000000000007</ele><time>2026-05-02T14:41:23.756Z</time></trkpt><trkpt lat="46.0991597" lon="13.5014851"><ele>428.40000000000003</ele><time>2026-05-02T14:41:24.754Z</time></trkpt><trkpt lat="46.0992356" lon="13.5013966"><ele>427.0</ele><time>2026-05-02T14:41:25.762Z</time></trkpt><trkpt lat="46.0993725" lon="13.5011645"><ele>425.6</ele><time>2026-05-02T14:41:27.758Z</time></trkpt><trkpt lat="46.0994172" lon="13.5010315"><ele>424.20000000000005</ele><time>2026-05-02T14:41:28.755Z</time></trkpt><trkpt lat="46.0994502" lon="13.500892"><ele>422.8</ele><time>2026-05-02T14:41:29.766Z</time></trkpt><trkpt lat="46.0994734" lon="13.5007554"><ele>421.4</ele><time>2026-05-02T14:41:30.761Z</time></trkpt><trkpt lat="46.0994931" lon="13.5006032"><ele>420.0</ele><time>2026-05-02T14:41:31.763Z</time></trkpt><trkpt lat="46.0995158" lon="13.5004392"><ele>417.66666666666663</ele><time>2026-05-02T14:41:32.758Z</time></trkpt><trkpt lat="46.0995391" lon="13.5002702"><ele>415.3333333333333</ele><time>2026-05-02T14:41:33.753Z</time></trkpt><trkpt lat="46.0995591" lon="13.5000834"><ele>413.0</ele><time>2026-05-02T14:41:34.761Z</time></trkpt><trkpt lat="46.0995897" lon="13.4997161"><ele>411.25</ele><time>2026-05-02T14:41:36.757Z</time></trkpt><trkpt lat="46.0996132" lon="13.4995501"><ele>409.5</ele><time>2026-05-02T14:41:37.76Z</time></trkpt><trkpt lat="46.0996299" lon="13.4993936"><ele>407.75</ele><time>2026-05-02T14:41:38.757Z</time></trkpt><trkpt lat="46.0996574" lon="13.4992465"><ele>406.0</ele><time>2026-05-02T14:41:39.757Z</time></trkpt><trkpt lat="46.0997018" lon="13.4990811"><ele>406.0</ele><time>2026-05-02T14:41:40.762Z</time></trkpt><trkpt lat="46.0997678" lon="13.4988952"><ele>406.0</ele><time>2026-05-02T14:41:41.761Z</time></trkpt><trkpt lat="46.0998595" lon="13.4986975"><ele>406.0</ele><time>2026-05-02T14:41:42.756Z</time></trkpt><trkpt lat="46.099953" lon="13.4984973"><ele>409.33333333333337</ele><time>2026-05-02T14:41:43.763Z</time></trkpt><trkpt lat="46.1000161" lon="13.4982743"><ele>412.66666666666663</ele><time>2026-05-02T14:41:44.76Z</time></trkpt><trkpt lat="46.1000796" lon="13.4980725"><ele>416.0</ele><time>2026-05-02T14:41:45.755Z</time></trkpt><trkpt lat="46.1001431" lon="13.4978763"><ele>416.0</ele><time>2026-05-02T14:41:46.757Z</time></trkpt><trkpt lat="46.1002598" lon="13.497517"><ele>416.0</ele><time>2026-05-02T14:41:48.772Z</time></trkpt><trkpt lat="46.1002986" lon="13.497333"><ele>416.0</ele><time>2026-05-02T14:41:49.759Z</time></trkpt><trkpt lat="46.1003362" lon="13.4971599"><ele>414.0</ele><time>2026-05-02T14:41:50.761Z</time></trkpt><trkpt lat="46.1003834" lon="13.4969912"><ele>412.0</ele><time>2026-05-02T14:41:51.775Z</time></trkpt><trkpt lat="46.1004187" lon="13.4968113"><ele>410.0</ele><time>2026-05-02T14:41:52.756Z</time></trkpt><trkpt lat="46.1004417" lon="13.496634"><ele>408.0</ele><time>2026-05-02T14:41:53.754Z</time></trkpt><trkpt lat="46.1004608" lon="13.4964767"><ele>408.0</ele><time>2026-05-02T14:41:54.759Z</time></trkpt><trkpt lat="46.100474" lon="13.4963374"><ele>408.0</ele><time>2026-05-02T14:41:55.765Z</time></trkpt><trkpt lat="46.1004992" lon="13.4961928"><ele>408.0</ele><time>2026-05-02T14:41:56.756Z</time></trkpt><trkpt lat="46.1005256" lon="13.4960336"><ele>408.0</ele><time>2026-05-02T14:41:57.766Z</time></trkpt><trkpt lat="46.1005593" lon="13.4958606"><ele>408.0</ele><time>2026-05-02T14:41:58.754Z</time></trkpt><trkpt lat="46.1005988" lon="13.4957003"><ele>409.75</ele><time>2026-05-02T14:41:59.763Z</time></trkpt><trkpt lat="46.1006509" lon="13.4955414"><ele>411.5</ele><time>2026-05-02T14:42:00.769Z</time></trkpt><trkpt lat="46.100715" lon="13.495381"><ele>413.25</ele><time>2026-05-02T14:42:01.758Z</time></trkpt><trkpt lat="46.100791" lon="13.4952211"><ele>415.0</ele><time>2026-05-02T14:42:02.76Z</time></trkpt><trkpt lat="46.1008675" lon="13.4950517"><ele>415.0</ele><time>2026-05-02T14:42:03.757Z</time></trkpt><trkpt lat="46.1009432" lon="13.4948874"><ele>415.0</ele><time>2026-05-02T14:42:04.754Z</time></trkpt><trkpt lat="46.1010292" lon="13.4947204"><ele>415.0</ele><time>2026-05-02T14:42:05.767Z</time></trkpt><trkpt lat="46.1011105" lon="13.4945606"><ele>415.0</ele><time>2026-05-02T14:42:06.755Z</time></trkpt><trkpt lat="46.101356" lon="13.4941296"><ele>411.75</ele><time>2026-05-02T14:42:09.754Z</time></trkpt><trkpt lat="46.1014345" lon="13.4939815"><ele>408.5</ele><time>2026-05-02T14:42:10.754Z</time></trkpt><trkpt lat="46.10151" lon="13.4938412"><ele>405.25</ele><time>2026-05-02T14:42:11.753Z</time></trkpt><trkpt lat="46.1015878" lon="13.4937041"><ele>402.0</ele><time>2026-05-02T14:42:12.765Z</time></trkpt><trkpt lat="46.1016639" lon="13.4935813"><ele>402.0</ele><time>2026-05-02T14:42:13.771Z</time></trkpt><trkpt lat="46.1017298" lon="13.4934613"><ele>402.0</ele><time>2026-05-02T14:42:14.756Z</time></trkpt><trkpt lat="46.1017992" lon="13.4933604"><ele>402.0</ele><time>2026-05-02T14:42:15.752Z</time></trkpt><trkpt lat="46.101876" lon="13.4932857"><ele>402.0</ele><time>2026-05-02T14:42:16.757Z</time></trkpt><trkpt lat="46.1019612" lon="13.4932081"><ele>402.0</ele><time>2026-05-02T14:42:17.755Z</time></trkpt><trkpt lat="46.1020454" lon="13.4931178"><ele>402.0</ele><time>2026-05-02T14:42:18.766Z</time></trkpt><trkpt lat="46.1021195" lon="13.4930086"><ele>402.0</ele><time>2026-05-02T14:42:19.759Z</time></trkpt><trkpt lat="46.1021873" lon="13.4928974"><ele>402.0</ele><time>2026-05-02T14:42:20.751Z</time></trkpt><trkpt lat="46.1022323" lon="13.4927859"><ele>402.0</ele><time>2026-05-02T14:42:21.763Z</time></trkpt><trkpt lat="46.1022678" lon="13.4926654"><ele>402.0</ele><time>2026-05-02T14:42:22.754Z</time></trkpt><trkpt lat="46.1023003" lon="13.4925656"><ele>402.40000000000003</ele><time>2026-05-02T14:42:23.76Z</time></trkpt><trkpt lat="46.102329" lon="13.4924743"><ele>402.8</ele><time>2026-05-02T14:42:24.761Z</time></trkpt><trkpt lat="46.102361" lon="13.4923885"><ele>403.2</ele><time>2026-05-02T14:42:25.754Z</time></trkpt><trkpt lat="46.1024125" lon="13.4922289"><ele>403.6</ele><time>2026-05-02T14:42:27.76Z</time></trkpt><trkpt lat="46.1024644" lon="13.4920636"><ele>404.0</ele><time>2026-05-02T14:42:29.767Z</time></trkpt><trkpt lat="46.1025281" lon="13.491886"><ele>403.99999999999994</ele><time>2026-05-02T14:42:31.759Z</time></trkpt><trkpt lat="46.1025594" lon="13.4917867"><ele>404.0</ele><time>2026-05-02T14:42:32.758Z</time></trkpt><trkpt lat="46.102598" lon="13.491684"><ele>404.0</ele><time>2026-05-02T14:42:33.76Z</time></trkpt><trkpt lat="46.1026449" lon="13.4915665"><ele>404.0</ele><time>2026-05-02T14:42:34.762Z</time></trkpt><trkpt lat="46.102683" lon="13.4914436"><ele>403.99999999999994</ele><time>2026-05-02T14:42:35.766Z</time></trkpt><trkpt lat="46.1027201" lon="13.4913323"><ele>404.0</ele><time>2026-05-02T14:42:36.757Z</time></trkpt><trkpt lat="46.1027482" lon="13.4912248"><ele>402.2</ele><time>2026-05-02T14:42:37.761Z</time></trkpt><trkpt lat="46.102779" lon="13.4911233"><ele>400.4</ele><time>2026-05-02T14:42:38.757Z</time></trkpt><trkpt lat="46.1028486" lon="13.4909344"><ele>398.6</ele><time>2026-05-02T14:42:40.758Z</time></trkpt><trkpt lat="46.1029053" lon="13.4908769"><ele>396.8</ele><time>2026-05-02T14:42:41.763Z</time></trkpt><trkpt lat="46.1030116" lon="13.4908458"><ele>395.0</ele><time>2026-05-02T14:42:43.757Z</time></trkpt><trkpt lat="46.1030889" lon="13.4908258"><ele>395.0</ele><time>2026-05-02T14:42:45.756Z</time></trkpt><trkpt lat="46.1030394" lon="13.4907536"><ele>395.0</ele><time>2026-05-02T14:42:47.754Z</time></trkpt><trkpt lat="46.102995" lon="13.4906843"><ele>395.0</ele><time>2026-05-02T14:42:48.759Z</time></trkpt><trkpt lat="46.1029379" lon="13.4906004"><ele>395.0</ele><time>2026-05-02T14:42:49.761Z</time></trkpt><trkpt lat="46.1028814" lon="13.4905109"><ele>395.0</ele><time>2026-05-02T14:42:50.76Z</time></trkpt><trkpt lat="46.1027804" lon="13.4903231"><ele>392.3333333333333</ele><time>2026-05-02T14:42:52.76Z</time></trkpt><trkpt lat="46.1027402" lon="13.490238"><ele>389.66666666666663</ele><time>2026-05-02T14:42:53.763Z</time></trkpt><trkpt lat="46.1027812" lon="13.4901376"><ele>387.0</ele><time>2026-05-02T14:42:55.755Z</time></trkpt><trkpt lat="46.1028505" lon="13.4901149"><ele>384.3333333333333</ele><time>2026-05-02T14:42:56.753Z</time></trkpt><trkpt lat="46.1029294" lon="13.4901022"><ele>381.66666666666663</ele><time>2026-05-02T14:42:57.756Z</time></trkpt><trkpt lat="46.1030132" lon="13.4900855"><ele>379.0</ele><time>2026-05-02T14:42:58.763Z</time></trkpt><trkpt lat="46.1030864" lon="13.4900335"><ele>379.0</ele><time>2026-05-02T14:42:59.753Z</time></trkpt><trkpt lat="46.1031299" lon="13.4899481"><ele>379.0</ele><time>2026-05-02T14:43:00.774Z</time></trkpt><trkpt lat="46.103116" lon="13.4898276"><ele>379.0</ele><time>2026-05-02T14:43:01.757Z</time></trkpt><trkpt lat="46.1031267" lon="13.4896705"><ele>379.0</ele><time>2026-05-02T14:43:02.77Z</time></trkpt><trkpt lat="46.1031266" lon="13.4894849"><ele>379.0</ele><time>2026-05-02T14:43:03.754Z</time></trkpt><trkpt lat="46.1031232" lon="13.489305"><ele>374.25</ele><time>2026-05-02T14:43:04.756Z</time></trkpt><trkpt lat="46.1031048" lon="13.4891501"><ele>369.5</ele><time>2026-05-02T14:43:05.753Z</time></trkpt><trkpt lat="46.1030864" lon="13.4889889"><ele>364.75</ele><time>2026-05-02T14:43:06.76Z</time></trkpt><trkpt lat="46.1030799" lon="13.4888232"><ele>360.0</ele><time>2026-05-02T14:43:07.76Z</time></trkpt><trkpt lat="46.1030761" lon="13.4886496"><ele>357.3333333333333</ele><time>2026-05-02T14:43:08.76Z</time></trkpt><trkpt lat="46.1030639" lon="13.4884914"><ele>354.66666666666663</ele><time>2026-05-02T14:43:09.767Z</time></trkpt><trkpt lat="46.103059" lon="13.4883464"><ele>352.0</ele><time>2026-05-02T14:43:10.756Z</time></trkpt><trkpt lat="46.1030882" lon="13.487992"><ele>351.3333333333333</ele><time>2026-05-02T14:43:13.761Z</time></trkpt><trkpt lat="46.1030869" lon="13.4878763"><ele>350.66666666666663</ele><time>2026-05-02T14:43:14.763Z</time></trkpt><trkpt lat="46.1030764" lon="13.4877617"><ele>350.0</ele><time>2026-05-02T14:43:15.755Z</time></trkpt><trkpt lat="46.103063" lon="13.4876428"><ele>349.3333333333333</ele><time>2026-05-02T14:43:16.762Z</time></trkpt><trkpt lat="46.1030524" lon="13.4875228"><ele>348.6666666666667</ele><time>2026-05-02T14:43:17.765Z</time></trkpt><trkpt lat="46.1030468" lon="13.487399"><ele>348.0</ele><time>2026-05-02T14:43:18.753Z</time></trkpt><trkpt lat="46.1030506" lon="13.4872737"><ele>348.0</ele><time>2026-05-02T14:43:19.771Z</time></trkpt><trkpt lat="46.1030642" lon="13.487147"><ele>348.0</ele><time>2026-05-02T14:43:20.756Z</time></trkpt><trkpt lat="46.1030996" lon="13.486997"><ele>348.0</ele><time>2026-05-02T14:43:21.765Z</time></trkpt><trkpt lat="46.1031396" lon="13.4868488"><ele>348.0</ele><time>2026-05-02T14:43:22.758Z</time></trkpt><trkpt lat="46.1031692" lon="13.4867073"><ele>348.0</ele><time>2026-05-02T14:43:23.76Z</time></trkpt><trkpt lat="46.1031961" lon="13.4865644"><ele>346.2</ele><time>2026-05-02T14:43:24.76Z</time></trkpt><trkpt lat="46.1032141" lon="13.4864084"><ele>344.4</ele><time>2026-05-02T14:43:25.756Z</time></trkpt><trkpt lat="46.1032277" lon="13.48625"><ele>342.59999999999997</ele><time>2026-05-02T14:43:26.759Z</time></trkpt><trkpt lat="46.1032373" lon="13.4860985"><ele>340.79999999999995</ele><time>2026-05-02T14:43:27.753Z</time></trkpt><trkpt lat="46.1032376" lon="13.4859505"><ele>339.0</ele><time>2026-05-02T14:43:28.754Z</time></trkpt><trkpt lat="46.1032267" lon="13.4857901"><ele>336.75</ele><time>2026-05-02T14:43:29.765Z</time></trkpt><trkpt lat="46.10321" lon="13.4856243"><ele>334.5</ele><time>2026-05-02T14:43:30.757Z</time></trkpt><trkpt lat="46.1032021" lon="13.4854586"><ele>332.25</ele><time>2026-05-02T14:43:31.757Z</time></trkpt><trkpt lat="46.1031915" lon="13.4852931"><ele>330.0</ele><time>2026-05-02T14:43:32.768Z</time></trkpt><trkpt lat="46.1031989" lon="13.4849479"><ele>329.0</ele><time>2026-05-02T14:43:34.757Z</time></trkpt><trkpt lat="46.1032008" lon="13.4847776"><ele>328.0</ele><time>2026-05-02T14:43:35.765Z</time></trkpt><trkpt lat="46.1032068" lon="13.4846204"><ele>327.0</ele><time>2026-05-02T14:43:36.769Z</time></trkpt><trkpt lat="46.1032092" lon="13.4844597"><ele>326.0</ele><time>2026-05-02T14:43:37.757Z</time></trkpt><trkpt lat="46.1032209" lon="13.4842905"><ele>324.5</ele><time>2026-05-02T14:43:38.755Z</time></trkpt><trkpt lat="46.1032432" lon="13.4841193"><ele>323.0</ele><time>2026-05-02T14:43:39.755Z</time></trkpt><trkpt lat="46.1032692" lon="13.4839434"><ele>321.5</ele><time>2026-05-02T14:43:40.752Z</time></trkpt><trkpt lat="46.103307" lon="13.4837724"><ele>320.0</ele><time>2026-05-02T14:43:41.755Z</time></trkpt><trkpt lat="46.1033333" lon="13.483598"><ele>320.25</ele><time>2026-05-02T14:43:42.756Z</time></trkpt><trkpt lat="46.103365" lon="13.4832737"><ele>320.5</ele><time>2026-05-02T14:43:44.755Z</time></trkpt><trkpt lat="46.1033882" lon="13.4831339"><ele>320.75</ele><time>2026-05-02T14:43:45.758Z</time></trkpt><trkpt lat="46.1034216" lon="13.4830111"><ele>321.0</ele><time>2026-05-02T14:43:46.754Z</time></trkpt><trkpt lat="46.1034517" lon="13.4828869"><ele>321.0</ele><time>2026-05-02T14:43:47.758Z</time></trkpt><trkpt lat="46.1034914" lon="13.4827787"><ele>321.0</ele><time>2026-05-02T14:43:48.752Z</time></trkpt><trkpt lat="46.1035549" lon="13.4826943"><ele>321.0</ele><time>2026-05-02T14:43:49.756Z</time></trkpt><trkpt lat="46.1036284" lon="13.4826058"><ele>321.0</ele><time>2026-05-02T14:43:50.758Z</time></trkpt><trkpt lat="46.1036886" lon="13.4825644"><ele>321.0</ele><time>2026-05-02T14:43:51.76Z</time></trkpt><trkpt lat="46.1037521" lon="13.4825831"><ele>321.0</ele><time>2026-05-02T14:43:53.764Z</time></trkpt><trkpt lat="46.1038927" lon="13.4826225"><ele>321.0</ele><time>2026-05-02T14:43:58.755Z</time></trkpt><trkpt lat="46.1039699" lon="13.4825751"><ele>321.0</ele><time>2026-05-02T14:44:01.759Z</time></trkpt><trkpt lat="46.1040152" lon="13.4825012"><ele>321.0</ele><time>2026-05-02T14:44:03.767Z</time></trkpt><trkpt lat="46.104108" lon="13.4823225"><ele>321.0</ele><time>2026-05-02T14:44:05.753Z</time></trkpt><trkpt lat="46.1041677" lon="13.4821785"><ele>321.0</ele><time>2026-05-02T14:44:06.76Z</time></trkpt><trkpt lat="46.1042249" lon="13.4820155"><ele>320.6</ele><time>2026-05-02T14:44:07.759Z</time></trkpt><trkpt lat="46.1042874" lon="13.4818636"><ele>320.20000000000005</ele><time>2026-05-02T14:44:08.75Z</time></trkpt><trkpt lat="46.1043393" lon="13.481739"><ele>319.79999999999995</ele><time>2026-05-02T14:44:09.764Z</time></trkpt><trkpt lat="46.1043925" lon="13.4816566"><ele>319.4</ele><time>2026-05-02T14:44:10.766Z</time></trkpt><trkpt lat="46.1044482" lon="13.4815722"><ele>319.0</ele><time>2026-05-02T14:44:11.756Z</time></trkpt><trkpt lat="46.104507" lon="13.4814858"><ele>319.0</ele><time>2026-05-02T14:44:12.755Z</time></trkpt><trkpt lat="46.1045805" lon="13.4814233"><ele>319.0</ele><time>2026-05-02T14:44:13.765Z</time></trkpt><trkpt lat="46.1046614" lon="13.4813779"><ele>319.0</ele><time>2026-05-02T14:44:14.759Z</time></trkpt><trkpt lat="46.1048912" lon="13.4813564"><ele>319.0</ele><time>2026-05-02T14:44:17.765Z</time></trkpt><trkpt lat="46.104962" lon="13.4814084"><ele>320.0</ele><time>2026-05-02T14:44:18.759Z</time></trkpt><trkpt lat="46.1050234" lon="13.4815048"><ele>321.0</ele><time>2026-05-02T14:44:19.774Z</time></trkpt><trkpt lat="46.105099" lon="13.4816425"><ele>322.0</ele><time>2026-05-02T14:44:20.764Z</time></trkpt><trkpt lat="46.1051625" lon="13.4817615"><ele>323.0</ele><time>2026-05-02T14:44:21.751Z</time></trkpt><trkpt lat="46.1052315" lon="13.4818845"><ele>324.0</ele><time>2026-05-02T14:44:22.763Z</time></trkpt><trkpt lat="46.1053068" lon="13.481991"><ele>324.0</ele><time>2026-05-02T14:44:23.76Z</time></trkpt><trkpt lat="46.105375" lon="13.4820789"><ele>324.0</ele><time>2026-05-02T14:44:24.76Z</time></trkpt><trkpt lat="46.1054378" lon="13.4821509"><ele>324.0</ele><time>2026-05-02T14:44:25.761Z</time></trkpt><trkpt lat="46.1055322" lon="13.4820854"><ele>324.0</ele><time>2026-05-02T14:44:27.751Z</time></trkpt><trkpt lat="46.105569" lon="13.4819574"><ele>324.0</ele><time>2026-05-02T14:44:28.76Z</time></trkpt><trkpt lat="46.1056138" lon="13.4818152"><ele>324.0</ele><time>2026-05-02T14:44:29.763Z</time></trkpt><trkpt lat="46.1056858" lon="13.4816673"><ele>324.0</ele><time>2026-05-02T14:44:30.752Z</time></trkpt><trkpt lat="46.1057665" lon="13.4815185"><ele>324.0</ele><time>2026-05-02T14:44:31.765Z</time></trkpt><trkpt lat="46.1058596" lon="13.4813839"><ele>324.0</ele><time>2026-05-02T14:44:32.765Z</time></trkpt><trkpt lat="46.1059573" lon="13.4812591"><ele>317.5</ele><time>2026-05-02T14:44:33.755Z</time></trkpt><trkpt lat="46.1060549" lon="13.4811206"><ele>311.0</ele><time>2026-05-02T14:44:34.755Z</time></trkpt><trkpt lat="46.1061524" lon="13.4809889"><ele>304.5</ele><time>2026-05-02T14:44:35.75Z</time></trkpt><trkpt lat="46.1062414" lon="13.480858"><ele>298.0</ele><time>2026-05-02T14:44:36.761Z</time></trkpt><trkpt lat="46.1064147" lon="13.4805779"><ele>298.0</ele><time>2026-05-02T14:44:38.757Z</time></trkpt><trkpt lat="46.106497" lon="13.4804467"><ele>298.0</ele><time>2026-05-02T14:44:39.756Z</time></trkpt><trkpt lat="46.1065817" lon="13.480342"><ele>298.0</ele><time>2026-05-02T14:44:40.751Z</time></trkpt><trkpt lat="46.1066652" lon="13.4802426"><ele>298.0</ele><time>2026-05-02T14:44:41.756Z</time></trkpt><trkpt lat="46.1067565" lon="13.4801564"><ele>296.0</ele><time>2026-05-02T14:44:42.76Z</time></trkpt><trkpt lat="46.1068513" lon="13.4800872"><ele>294.0</ele><time>2026-05-02T14:44:43.763Z</time></trkpt><trkpt lat="46.1069461" lon="13.4800344"><ele>292.0</ele><time>2026-05-02T14:44:44.752Z</time></trkpt><trkpt lat="46.1070325" lon="13.4800008"><ele>290.0</ele><time>2026-05-02T14:44:45.76Z</time></trkpt><trkpt lat="46.1071169" lon="13.4799911"><ele>288.0</ele><time>2026-05-02T14:44:46.761Z</time></trkpt><trkpt lat="46.107259" lon="13.4800456"><ele>288.0</ele><time>2026-05-02T14:44:48.76Z</time></trkpt><trkpt lat="46.107356" lon="13.4800771"><ele>288.0</ele><time>2026-05-02T14:44:50.767Z</time></trkpt><trkpt lat="46.1073848" lon="13.480195"><ele>288.0</ele><time>2026-05-02T14:45:17.755Z</time></trkpt><trkpt lat="46.107396" lon="13.4802898"><ele>288.0</ele><time>2026-05-02T14:45:18.756Z</time></trkpt><trkpt lat="46.1074697" lon="13.4806242"><ele>290.2</ele><time>2026-05-02T14:45:21.757Z</time></trkpt><trkpt lat="46.1074919" lon="13.4807461"><ele>292.4</ele><time>2026-05-02T14:45:22.753Z</time></trkpt><trkpt lat="46.1075281" lon="13.4808703"><ele>294.59999999999997</ele><time>2026-05-02T14:45:23.756Z</time></trkpt><trkpt lat="46.1075566" lon="13.4810019"><ele>296.8</ele><time>2026-05-02T14:45:24.756Z</time></trkpt><trkpt lat="46.1075839" lon="13.481134"><ele>299.0</ele><time>2026-05-02T14:45:25.755Z</time></trkpt><trkpt lat="46.1076137" lon="13.4812652"><ele>302.33333333333337</ele><time>2026-05-02T14:45:26.758Z</time></trkpt><trkpt lat="46.1076425" lon="13.4813895"><ele>305.6666666666667</ele><time>2026-05-02T14:45:27.749Z</time></trkpt><trkpt lat="46.1076691" lon="13.4815135"><ele>309.0</ele><time>2026-05-02T14:45:28.759Z</time></trkpt><trkpt lat="46.1076944" lon="13.4816269"><ele>312.3333333333333</ele><time>2026-05-02T14:45:29.756Z</time></trkpt><trkpt lat="46.1077327" lon="13.4817223"><ele>315.66666666666663</ele><time>2026-05-02T14:45:30.754Z</time></trkpt><trkpt lat="46.1077791" lon="13.4818179"><ele>319.0</ele><time>2026-05-02T14:45:31.749Z</time></trkpt><trkpt lat="46.1078354" lon="13.4819118"><ele>319.0</ele><time>2026-05-02T14:45:32.756Z</time></trkpt><trkpt lat="46.1078939" lon="13.4819997"><ele>319.0</ele><time>2026-05-02T14:45:33.779Z</time></trkpt><trkpt lat="46.1079573" lon="13.482096"><ele>319.0</ele><time>2026-05-02T14:45:34.76Z</time></trkpt><trkpt lat="46.1080231" lon="13.4821921"><ele>319.0</ele><time>2026-05-02T14:45:35.759Z</time></trkpt><trkpt lat="46.1080825" lon="13.4822943"><ele>319.0</ele><time>2026-05-02T14:45:36.754Z</time></trkpt><trkpt lat="46.1081243" lon="13.4823799"><ele>319.0</ele><time>2026-05-02T14:45:37.756Z</time></trkpt><trkpt lat="46.1081568" lon="13.4824615"><ele>322.6</ele><time>2026-05-02T14:45:38.75Z</time></trkpt><trkpt lat="46.1081816" lon="13.4825496"><ele>326.2</ele><time>2026-05-02T14:45:39.759Z</time></trkpt><trkpt lat="46.1081755" lon="13.4826602"><ele>329.8</ele><time>2026-05-02T14:45:40.761Z</time></trkpt><trkpt lat="46.1081561" lon="13.4829"><ele>333.40000000000003</ele><time>2026-05-02T14:45:42.749Z</time></trkpt><trkpt lat="46.1081573" lon="13.4830311"><ele>337.0</ele><time>2026-05-02T14:45:43.757Z</time></trkpt><trkpt lat="46.1081585" lon="13.4831743"><ele>337.0</ele><time>2026-05-02T14:45:44.754Z</time></trkpt><trkpt lat="46.108157" lon="13.4833218"><ele>337.0</ele><time>2026-05-02T14:45:45.753Z</time></trkpt><trkpt lat="46.108136" lon="13.4834498"><ele>337.0</ele><time>2026-05-02T14:45:46.751Z</time></trkpt><trkpt lat="46.1081004" lon="13.4835783"><ele>337.0</ele><time>2026-05-02T14:45:47.758Z</time></trkpt><trkpt lat="46.1080483" lon="13.4837125"><ele>337.0</ele><time>2026-05-02T14:45:48.766Z</time></trkpt><trkpt lat="46.1079997" lon="13.4838422"><ele>337.0</ele><time>2026-05-02T14:45:49.759Z</time></trkpt><trkpt lat="46.1079566" lon="13.4839596"><ele>337.0</ele><time>2026-05-02T14:45:50.759Z</time></trkpt><trkpt lat="46.1078943" lon="13.484206"><ele>337.0</ele><time>2026-05-02T14:45:52.755Z</time></trkpt><trkpt lat="46.1078832" lon="13.4843327"><ele>337.0</ele><time>2026-05-02T14:45:53.763Z</time></trkpt><trkpt lat="46.1078681" lon="13.4844553"><ele>337.0</ele><time>2026-05-02T14:45:54.769Z</time></trkpt><trkpt lat="46.1078646" lon="13.484586"><ele>335.6</ele><time>2026-05-02T14:45:55.756Z</time></trkpt><trkpt lat="46.1078641" lon="13.4847275"><ele>334.20000000000005</ele><time>2026-05-02T14:45:56.75Z</time></trkpt><trkpt lat="46.1078844" lon="13.4848786"><ele>332.8</ele><time>2026-05-02T14:45:57.755Z</time></trkpt><trkpt lat="46.1079127" lon="13.4850388"><ele>331.4</ele><time>2026-05-02T14:45:58.761Z</time></trkpt><trkpt lat="46.1079478" lon="13.4851756"><ele>330.0</ele><time>2026-05-02T14:45:59.752Z</time></trkpt><trkpt lat="46.1079879" lon="13.4853006"><ele>330.0</ele><time>2026-05-02T14:46:00.756Z</time></trkpt><trkpt lat="46.1080327" lon="13.4854246"><ele>330.0</ele><time>2026-05-02T14:46:01.756Z</time></trkpt><trkpt lat="46.1081012" lon="13.4856757"><ele>330.0</ele><time>2026-05-02T14:46:03.754Z</time></trkpt><trkpt lat="46.1081342" lon="13.4857881"><ele>330.0</ele><time>2026-05-02T14:46:04.759Z</time></trkpt><trkpt lat="46.1081752" lon="13.4858974"><ele>330.0</ele><time>2026-05-02T14:46:05.765Z</time></trkpt><trkpt lat="46.1082135" lon="13.4860043"><ele>330.0</ele><time>2026-05-02T14:46:06.769Z</time></trkpt><trkpt lat="46.1082443" lon="13.4861133"><ele>330.0</ele><time>2026-05-02T14:46:07.756Z</time></trkpt><trkpt lat="46.1082629" lon="13.4862372"><ele>330.0</ele><time>2026-05-02T14:46:08.757Z</time></trkpt><trkpt lat="46.1082781" lon="13.4863807"><ele>330.0</ele><time>2026-05-02T14:46:09.754Z</time></trkpt><trkpt lat="46.1082731" lon="13.486556"><ele>323.0</ele><time>2026-05-02T14:46:10.753Z</time></trkpt><trkpt lat="46.1082752" lon="13.4867488"><ele>316.0</ele><time>2026-05-02T14:46:11.752Z</time></trkpt><trkpt lat="46.1082867" lon="13.4869335"><ele>309.0</ele><time>2026-05-02T14:46:12.755Z</time></trkpt><trkpt lat="46.1082978" lon="13.4871097"><ele>302.0</ele><time>2026-05-02T14:46:13.75Z</time></trkpt><trkpt lat="46.108322" lon="13.4872648"><ele>302.0</ele><time>2026-05-02T14:46:14.751Z</time></trkpt><trkpt lat="46.1083454" lon="13.4874197"><ele>302.0</ele><time>2026-05-02T14:46:15.753Z</time></trkpt><trkpt lat="46.108357" lon="13.4875678"><ele>302.0</ele><time>2026-05-02T14:46:16.756Z</time></trkpt><trkpt lat="46.1083613" lon="13.4877186"><ele>302.0</ele><time>2026-05-02T14:46:17.754Z</time></trkpt><trkpt lat="46.1083472" lon="13.4878852"><ele>302.0</ele><time>2026-05-02T14:46:18.762Z</time></trkpt><trkpt lat="46.108329" lon="13.4880445"><ele>301.25</ele><time>2026-05-02T14:46:19.762Z</time></trkpt><trkpt lat="46.1082959" lon="13.488205"><ele>300.5</ele><time>2026-05-02T14:46:20.762Z</time></trkpt><trkpt lat="46.1082726" lon="13.4883594"><ele>299.75</ele><time>2026-05-02T14:46:21.754Z</time></trkpt><trkpt lat="46.1082524" lon="13.4885199"><ele>299.0</ele><time>2026-05-02T14:46:22.754Z</time></trkpt><trkpt lat="46.1082237" lon="13.4889259"><ele>300.1666666666667</ele><time>2026-05-02T14:46:25.761Z</time></trkpt><trkpt lat="46.108226" lon="13.4890293"><ele>301.33333333333337</ele><time>2026-05-02T14:46:26.76Z</time></trkpt><trkpt lat="46.10824" lon="13.4891392"><ele>302.5</ele><time>2026-05-02T14:46:27.757Z</time></trkpt><trkpt lat="46.1082858" lon="13.4892874"><ele>303.6666666666667</ele><time>2026-05-02T14:46:29.754Z</time></trkpt><trkpt lat="46.1083363" lon="13.4893566"><ele>304.8333333333333</ele><time>2026-05-02T14:46:30.778Z</time></trkpt><trkpt lat="46.1084258" lon="13.4894324"><ele>306.0</ele><time>2026-05-02T14:46:31.755Z</time></trkpt><trkpt lat="46.108518" lon="13.4895167"><ele>306.0</ele><time>2026-05-02T14:46:32.768Z</time></trkpt><trkpt lat="46.1086237" lon="13.4895687"><ele>306.0</ele><time>2026-05-02T14:46:33.759Z</time></trkpt><trkpt lat="46.1087352" lon="13.4896243"><ele>306.0</ele><time>2026-05-02T14:46:34.757Z</time></trkpt><trkpt lat="46.1088399" lon="13.489684"><ele>306.0</ele><time>2026-05-02T14:46:35.753Z</time></trkpt><trkpt lat="46.1089284" lon="13.4897454"><ele>306.0</ele><time>2026-05-02T14:46:36.759Z</time></trkpt><trkpt lat="46.1089951" lon="13.4898164"><ele>305.0</ele><time>2026-05-02T14:46:37.758Z</time></trkpt><trkpt lat="46.1090572" lon="13.4899171"><ele>304.0</ele><time>2026-05-02T14:46:38.752Z</time></trkpt><trkpt lat="46.1091103" lon="13.4900253"><ele>303.0</ele><time>2026-05-02T14:46:39.752Z</time></trkpt><trkpt lat="46.1091486" lon="13.4901458"><ele>302.0</ele><time>2026-05-02T14:46:40.748Z</time></trkpt><trkpt lat="46.109148" lon="13.4902861"><ele>301.0</ele><time>2026-05-02T14:46:41.756Z</time></trkpt><trkpt lat="46.1091393" lon="13.4904183"><ele>303.0</ele><time>2026-05-02T14:46:42.754Z</time></trkpt><trkpt lat="46.1091364" lon="13.4905333"><ele>305.0</ele><time>2026-05-02T14:46:43.759Z</time></trkpt><trkpt lat="46.1091326" lon="13.4906366"><ele>307.0</ele><time>2026-05-02T14:46:44.748Z</time></trkpt><trkpt lat="46.10914" lon="13.4908456"><ele>309.0</ele><time>2026-05-02T14:46:46.758Z</time></trkpt><trkpt lat="46.1091497" lon="13.4909526"><ele>311.0</ele><time>2026-05-02T14:46:47.768Z</time></trkpt><trkpt lat="46.109163" lon="13.4910473"><ele>313.0</ele><time>2026-05-02T14:46:48.759Z</time></trkpt><trkpt lat="46.1091919" lon="13.4911422"><ele>313.0</ele><time>2026-05-02T14:46:49.754Z</time></trkpt><trkpt lat="46.109232" lon="13.4912212"><ele>313.0</ele><time>2026-05-02T14:46:50.754Z</time></trkpt><trkpt lat="46.1092936" lon="13.4913025"><ele>313.0</ele><time>2026-05-02T14:46:51.767Z</time></trkpt><trkpt lat="46.1093748" lon="13.4913666"><ele>313.0</ele><time>2026-05-02T14:46:52.757Z</time></trkpt><trkpt lat="46.1094589" lon="13.4914198"><ele>313.0</ele><time>2026-05-02T14:46:53.749Z</time></trkpt><trkpt lat="46.1095442" lon="13.4914518"><ele>313.0</ele><time>2026-05-02T14:46:54.759Z</time></trkpt><trkpt lat="46.109713" lon="13.4914959"><ele>312.8333333333333</ele><time>2026-05-02T14:46:56.76Z</time></trkpt><trkpt lat="46.1097845" lon="13.4915264"><ele>312.66666666666663</ele><time>2026-05-02T14:46:57.758Z</time></trkpt><trkpt lat="46.1098895" lon="13.4916116"><ele>312.5</ele><time>2026-05-02T14:46:59.75Z</time></trkpt><trkpt lat="46.109941" lon="13.4916903"><ele>312.3333333333333</ele><time>2026-05-02T14:47:00.757Z</time></trkpt><trkpt lat="46.1099711" lon="13.4918066"><ele>312.1666666666667</ele><time>2026-05-02T14:47:01.752Z</time></trkpt><trkpt lat="46.1099875" lon="13.4919253"><ele>312.0</ele><time>2026-05-02T14:47:02.764Z</time></trkpt><trkpt lat="46.1100021" lon="13.4920497"><ele>307.5</ele><time>2026-05-02T14:47:03.759Z</time></trkpt><trkpt lat="46.1100103" lon="13.4921761"><ele>303.0</ele><time>2026-05-02T14:47:04.761Z</time></trkpt><trkpt lat="46.1100097" lon="13.4923059"><ele>298.5</ele><time>2026-05-02T14:47:05.757Z</time></trkpt><trkpt lat="46.1099662" lon="13.4925982"><ele>294.0</ele><time>2026-05-02T14:47:07.755Z</time></trkpt><trkpt lat="46.109941" lon="13.4927407"><ele>294.0</ele><time>2026-05-02T14:47:08.766Z</time></trkpt><trkpt lat="46.1099189" lon="13.492874"><ele>294.0</ele><time>2026-05-02T14:47:09.755Z</time></trkpt><trkpt lat="46.1098868" lon="13.4929971"><ele>294.0</ele><time>2026-05-02T14:47:10.751Z</time></trkpt><trkpt lat="46.109845" lon="13.4931094"><ele>294.0</ele><time>2026-05-02T14:47:11.758Z</time></trkpt><trkpt lat="46.1097902" lon="13.4932149"><ele>294.0</ele><time>2026-05-02T14:47:12.754Z</time></trkpt><trkpt lat="46.1097287" lon="13.4933065"><ele>292.6666666666667</ele><time>2026-05-02T14:47:13.757Z</time></trkpt><trkpt lat="46.1096658" lon="13.4933876"><ele>291.3333333333333</ele><time>2026-05-02T14:47:14.755Z</time></trkpt><trkpt lat="46.1095958" lon="13.4934401"><ele>290.0</ele><time>2026-05-02T14:47:15.756Z</time></trkpt><trkpt lat="46.1095228" lon="13.4934759"><ele>288.66666666666663</ele><time>2026-05-02T14:47:16.759Z</time></trkpt><trkpt lat="46.1094448" lon="13.4935009"><ele>287.3333333333333</ele><time>2026-05-02T14:47:17.756Z</time></trkpt><trkpt lat="46.1093523" lon="13.4935193"><ele>286.0</ele><time>2026-05-02T14:47:18.758Z</time></trkpt><trkpt lat="46.1092568" lon="13.4935198"><ele>286.0</ele><time>2026-05-02T14:47:19.76Z</time></trkpt><trkpt lat="46.1091557" lon="13.4935116"><ele>286.0</ele><time>2026-05-02T14:47:20.759Z</time></trkpt><trkpt lat="46.1090586" lon="13.4935255"><ele>286.0</ele><time>2026-05-02T14:47:21.755Z</time></trkpt><trkpt lat="46.1089734" lon="13.4935123"><ele>286.0</ele><time>2026-05-02T14:47:22.751Z</time></trkpt><trkpt lat="46.1088976" lon="13.4934766"><ele>286.0</ele><time>2026-05-02T14:47:23.767Z</time></trkpt><trkpt lat="46.1088189" lon="13.4934177"><ele>280.3333333333333</ele><time>2026-05-02T14:47:24.757Z</time></trkpt><trkpt lat="46.1087368" lon="13.4933633"><ele>274.6666666666667</ele><time>2026-05-02T14:47:25.761Z</time></trkpt><trkpt lat="46.1086587" lon="13.4933033"><ele>269.0</ele><time>2026-05-02T14:47:26.755Z</time></trkpt><trkpt lat="46.1084181" lon="13.4930629"><ele>269.0</ele><time>2026-05-02T14:47:29.758Z</time></trkpt><trkpt lat="46.1083485" lon="13.4929782"><ele>269.0</ele><time>2026-05-02T14:47:30.764Z</time></trkpt><trkpt lat="46.1082909" lon="13.4929123"><ele>269.0</ele><time>2026-05-02T14:47:31.766Z</time></trkpt><trkpt lat="46.1082271" lon="13.4928688"><ele>269.0</ele><time>2026-05-02T14:47:32.756Z</time></trkpt><trkpt lat="46.1081443" lon="13.492901"><ele>269.0</ele><time>2026-05-02T14:47:34.754Z</time></trkpt><trkpt lat="46.1080606" lon="13.4930374"><ele>269.0</ele><time>2026-05-02T14:47:36.754Z</time></trkpt><trkpt lat="46.1080134" lon="13.4931173"><ele>266.83333333333337</ele><time>2026-05-02T14:47:37.756Z</time></trkpt><trkpt lat="46.1079665" lon="13.4931981"><ele>264.6666666666667</ele><time>2026-05-02T14:47:38.753Z</time></trkpt><trkpt lat="46.1079155" lon="13.493272"><ele>262.5</ele><time>2026-05-02T14:47:39.759Z</time></trkpt><trkpt lat="46.107856" lon="13.4933264"><ele>260.3333333333333</ele><time>2026-05-02T14:47:40.752Z</time></trkpt><trkpt lat="46.1077856" lon="13.4933743"><ele>258.16666666666663</ele><time>2026-05-02T14:47:41.754Z</time></trkpt><trkpt lat="46.1077103" lon="13.4934016"><ele>256.0</ele><time>2026-05-02T14:47:42.761Z</time></trkpt><trkpt lat="46.1076319" lon="13.4934163"><ele>255.99999999999997</ele><time>2026-05-02T14:47:43.764Z</time></trkpt><trkpt lat="46.1075562" lon="13.4934188"><ele>256.0</ele><time>2026-05-02T14:47:44.757Z</time></trkpt><trkpt lat="46.1074855" lon="13.493399"><ele>256.0</ele><time>2026-05-02T14:47:45.754Z</time></trkpt><trkpt lat="46.1074237" lon="13.4933662"><ele>256.0</ele><time>2026-05-02T14:47:46.753Z</time></trkpt><trkpt lat="46.1073641" lon="13.49331"><ele>255.99999999999997</ele><time>2026-05-02T14:47:47.758Z</time></trkpt><trkpt lat="46.1073006" lon="13.4932409"><ele>256.0</ele><time>2026-05-02T14:47:48.755Z</time></trkpt><trkpt lat="46.1071595" lon="13.4931332"><ele>254.83333333333331</ele><time>2026-05-02T14:47:50.753Z</time></trkpt><trkpt lat="46.1070935" lon="13.4931006"><ele>253.66666666666666</ele><time>2026-05-02T14:47:51.752Z</time></trkpt><trkpt lat="46.1070232" lon="13.4930734"><ele>252.5</ele><time>2026-05-02T14:47:52.752Z</time></trkpt><trkpt lat="46.1069567" lon="13.4930342"><ele>251.33333333333331</ele><time>2026-05-02T14:47:53.759Z</time></trkpt><trkpt lat="46.106893" lon="13.4930131"><ele>250.16666666666666</ele><time>2026-05-02T14:47:54.748Z</time></trkpt><trkpt lat="46.1067819" lon="13.4930528"><ele>249.0</ele><time>2026-05-02T14:47:56.765Z</time></trkpt><trkpt lat="46.1067324" lon="13.4931109"><ele>249.0</ele><time>2026-05-02T14:47:57.758Z</time></trkpt><trkpt lat="46.1066679" lon="13.4931957"><ele>248.99999999999997</ele><time>2026-05-02T14:47:58.762Z</time></trkpt><trkpt lat="46.1065641" lon="13.4933978"><ele>248.99999999999997</ele><time>2026-05-02T14:48:00.761Z</time></trkpt><trkpt lat="46.1065032" lon="13.4934748"><ele>249.0</ele><time>2026-05-02T14:48:01.755Z</time></trkpt><trkpt lat="46.1064523" lon="13.4935343"><ele>249.0</ele><time>2026-05-02T14:48:02.756Z</time></trkpt><trkpt lat="46.1063707" lon="13.493596"><ele>251.0</ele><time>2026-05-02T14:48:04.754Z</time></trkpt><trkpt lat="46.1062706" lon="13.4935633"><ele>253.0</ele><time>2026-05-02T14:48:06.757Z</time></trkpt><trkpt lat="46.1061712" lon="13.4934596"><ele>255.0</ele><time>2026-05-02T14:48:08.761Z</time></trkpt><trkpt lat="46.1061159" lon="13.4933815"><ele>257.0</ele><time>2026-05-02T14:48:09.761Z</time></trkpt><trkpt lat="46.105974" lon="13.4932287"><ele>257.0</ele><time>2026-05-02T14:48:11.755Z</time></trkpt><trkpt lat="46.1059003" lon="13.4931442"><ele>257.0</ele><time>2026-05-02T14:48:12.753Z</time></trkpt><trkpt lat="46.1058189" lon="13.4930691"><ele>257.0</ele><time>2026-05-02T14:48:13.753Z</time></trkpt><trkpt lat="46.1057321" lon="13.4930197"><ele>257.0</ele><time>2026-05-02T14:48:14.758Z</time></trkpt><trkpt lat="46.1056455" lon="13.4929955"><ele>257.0</ele><time>2026-05-02T14:48:15.757Z</time></trkpt><trkpt lat="46.1055693" lon="13.4929945"><ele>257.0</ele><time>2026-05-02T14:48:16.748Z</time></trkpt><trkpt lat="46.105502" lon="13.493013"><ele>265.6</ele><time>2026-05-02T14:48:17.752Z</time></trkpt><trkpt lat="46.1054163" lon="13.4931305"><ele>274.2</ele><time>2026-05-02T14:48:19.759Z</time></trkpt><trkpt lat="46.1054042" lon="13.4932348"><ele>282.8</ele><time>2026-05-02T14:48:20.766Z</time></trkpt><trkpt lat="46.1054895" lon="13.4933325"><ele>291.4</ele><time>2026-05-02T14:48:21.758Z</time></trkpt><trkpt lat="46.105556" lon="13.4934709"><ele>300.0</ele><time>2026-05-02T14:48:22.751Z</time></trkpt><trkpt lat="46.1056035" lon="13.4936404"><ele>300.75</ele><time>2026-05-02T14:48:23.762Z</time></trkpt><trkpt lat="46.1056249" lon="13.4938344"><ele>301.5</ele><time>2026-05-02T14:48:24.756Z</time></trkpt><trkpt lat="46.1056304" lon="13.4940007"><ele>302.25</ele><time>2026-05-02T14:48:25.754Z</time></trkpt><trkpt lat="46.1056231" lon="13.4941518"><ele>303.0</ele><time>2026-05-02T14:48:26.76Z</time></trkpt><trkpt lat="46.1055863" lon="13.4942833"><ele>303.0</ele><time>2026-05-02T14:48:27.749Z</time></trkpt><trkpt lat="46.1055502" lon="13.4944325"><ele>303.0</ele><time>2026-05-02T14:48:28.759Z</time></trkpt><trkpt lat="46.1055167" lon="13.4945969"><ele>303.0</ele><time>2026-05-02T14:48:29.756Z</time></trkpt><trkpt lat="46.1054971" lon="13.4947528"><ele>303.0</ele><time>2026-05-02T14:48:30.754Z</time></trkpt><trkpt lat="46.1054751" lon="13.495219"><ele>299.6666666666667</ele><time>2026-05-02T14:48:33.753Z</time></trkpt><trkpt lat="46.1054625" lon="13.4953346"><ele>296.3333333333333</ele><time>2026-05-02T14:48:34.759Z</time></trkpt><trkpt lat="46.1054428" lon="13.4954466"><ele>293.0</ele><time>2026-05-02T14:48:35.751Z</time></trkpt><trkpt lat="46.1054054" lon="13.4955615"><ele>289.66666666666663</ele><time>2026-05-02T14:48:36.758Z</time></trkpt><trkpt lat="46.1053529" lon="13.4956746"><ele>286.3333333333333</ele><time>2026-05-02T14:48:37.752Z</time></trkpt><trkpt lat="46.1052858" lon="13.4957812"><ele>283.0</ele><time>2026-05-02T14:48:38.76Z</time></trkpt><trkpt lat="46.1052107" lon="13.4958856"><ele>286.6</ele><time>2026-05-02T14:48:39.758Z</time></trkpt><trkpt lat="46.1051328" lon="13.4959961"><ele>290.20000000000005</ele><time>2026-05-02T14:48:40.754Z</time></trkpt><trkpt lat="46.1050551" lon="13.4961094"><ele>293.8</ele><time>2026-05-02T14:48:41.747Z</time></trkpt><trkpt lat="46.1049716" lon="13.4962264"><ele>297.40000000000003</ele><time>2026-05-02T14:48:42.763Z</time></trkpt><trkpt lat="46.1048928" lon="13.4963418"><ele>301.0</ele><time>2026-05-02T14:48:43.754Z</time></trkpt><trkpt lat="46.1048187" lon="13.4964624"><ele>301.0</ele><time>2026-05-02T14:48:44.765Z</time></trkpt><trkpt lat="46.104747" lon="13.4965745"><ele>301.0</ele><time>2026-05-02T14:48:45.75Z</time></trkpt><trkpt lat="46.104704" lon="13.4966961"><ele>301.0</ele><time>2026-05-02T14:48:46.76Z</time></trkpt><trkpt lat="46.1046641" lon="13.4968135"><ele>301.0</ele><time>2026-05-02T14:48:47.751Z</time></trkpt><trkpt lat="46.1046212" lon="13.4969346"><ele>301.0</ele><time>2026-05-02T14:48:48.75Z</time></trkpt><trkpt lat="46.1045699" lon="13.4970445"><ele>302.6</ele><time>2026-05-02T14:48:49.755Z</time></trkpt><trkpt lat="46.1045183" lon="13.4971454"><ele>304.20000000000005</ele><time>2026-05-02T14:48:50.762Z</time></trkpt><trkpt lat="46.1044637" lon="13.4972548"><ele>305.79999999999995</ele><time>2026-05-02T14:48:51.755Z</time></trkpt><trkpt lat="46.1044293" lon="13.4973394"><ele>307.4</ele><time>2026-05-02T14:48:52.768Z</time></trkpt><trkpt lat="46.1044883" lon="13.4976025"><ele>309.0</ele><time>2026-05-02T14:48:56.753Z</time></trkpt><trkpt lat="46.1046086" lon="13.4976583"><ele>309.0</ele><time>2026-05-02T14:48:58.757Z</time></trkpt><trkpt lat="46.1046873" lon="13.4976827"><ele>309.0</ele><time>2026-05-02T14:48:59.75Z</time></trkpt><trkpt lat="46.1047542" lon="13.4977178"><ele>309.0</ele><time>2026-05-02T14:49:00.764Z</time></trkpt><trkpt lat="46.1048156" lon="13.4977479"><ele>309.0</ele><time>2026-05-02T14:49:01.753Z</time></trkpt><trkpt lat="46.104882" lon="13.4977918"><ele>309.0</ele><time>2026-05-02T14:49:02.751Z</time></trkpt><trkpt lat="46.1050259" lon="13.4979045"><ele>304.8</ele><time>2026-05-02T14:49:04.755Z</time></trkpt><trkpt lat="46.1051126" lon="13.4979721"><ele>300.59999999999997</ele><time>2026-05-02T14:49:05.755Z</time></trkpt><trkpt lat="46.1052037" lon="13.4980458"><ele>296.4</ele><time>2026-05-02T14:49:06.754Z</time></trkpt><trkpt lat="46.1053081" lon="13.4981268"><ele>292.2</ele><time>2026-05-02T14:49:07.753Z</time></trkpt><trkpt lat="46.1054125" lon="13.4982166"><ele>288.0</ele><time>2026-05-02T14:49:08.752Z</time></trkpt><trkpt lat="46.1054788" lon="13.4983341"><ele>288.0</ele><time>2026-05-02T14:49:09.759Z</time></trkpt><trkpt lat="46.1055378" lon="13.4984589"><ele>288.0</ele><time>2026-05-02T14:49:10.766Z</time></trkpt><trkpt lat="46.1055951" lon="13.4985867"><ele>288.0</ele><time>2026-05-02T14:49:11.76Z</time></trkpt><trkpt lat="46.1056541" lon="13.4986982"><ele>288.0</ele><time>2026-05-02T14:49:12.759Z</time></trkpt><trkpt lat="46.1057168" lon="13.4988124"><ele>288.0</ele><time>2026-05-02T14:49:13.756Z</time></trkpt><trkpt lat="46.105875" lon="13.4990285"><ele>285.6</ele><time>2026-05-02T14:49:15.752Z</time></trkpt><trkpt lat="46.1059604" lon="13.499113"><ele>283.20000000000005</ele><time>2026-05-02T14:49:16.755Z</time></trkpt><trkpt lat="46.1060495" lon="13.4991895"><ele>280.8</ele><time>2026-05-02T14:49:17.764Z</time></trkpt><trkpt lat="46.1061371" lon="13.4992325"><ele>278.40000000000003</ele><time>2026-05-02T14:49:18.751Z</time></trkpt><trkpt lat="46.1062138" lon="13.4992473"><ele>276.0</ele><time>2026-05-02T14:49:19.751Z</time></trkpt><trkpt lat="46.1062882" lon="13.4992284"><ele>276.0</ele><time>2026-05-02T14:49:20.763Z</time></trkpt><trkpt lat="46.1063709" lon="13.4991834"><ele>276.0</ele><time>2026-05-02T14:49:21.767Z</time></trkpt><trkpt lat="46.1064527" lon="13.4990985"><ele>276.0</ele><time>2026-05-02T14:49:22.758Z</time></trkpt><trkpt lat="46.1065358" lon="13.4990227"><ele>276.0</ele><time>2026-05-02T14:49:23.762Z</time></trkpt><trkpt lat="46.1066149" lon="13.4989609"><ele>276.0</ele><time>2026-05-02T14:49:24.754Z</time></trkpt><trkpt lat="46.1066823" lon="13.4989377"><ele>276.0</ele><time>2026-05-02T14:49:25.756Z</time></trkpt><trkpt lat="46.1068162" lon="13.4989655"><ele>271.8333333333333</ele><time>2026-05-02T14:49:27.752Z</time></trkpt><trkpt lat="46.1068938" lon="13.4989892"><ele>267.6666666666667</ele><time>2026-05-02T14:49:28.753Z</time></trkpt><trkpt lat="46.1069819" lon="13.4990034"><ele>263.5</ele><time>2026-05-02T14:49:29.753Z</time></trkpt><trkpt lat="46.1070713" lon="13.4990023"><ele>259.33333333333337</ele><time>2026-05-02T14:49:30.752Z</time></trkpt><trkpt lat="46.1071544" lon="13.4989908"><ele>255.16666666666669</ele><time>2026-05-02T14:49:31.751Z</time></trkpt><trkpt lat="46.1072372" lon="13.4989828"><ele>251.0</ele><time>2026-05-02T14:49:32.755Z</time></trkpt><trkpt lat="46.1073125" lon="13.4989852"><ele>251.0</ele><time>2026-05-02T14:49:33.768Z</time></trkpt><trkpt lat="46.1073849" lon="13.4989991"><ele>251.0</ele><time>2026-05-02T14:49:34.755Z</time></trkpt><trkpt lat="46.1075475" lon="13.4989938"><ele>251.0</ele><time>2026-05-02T14:50:57.747Z</time></trkpt><trkpt lat="46.1076972" lon="13.4990422"><ele>251.0</ele><time>2026-05-02T14:51:00.753Z</time></trkpt><trkpt lat="46.1077615" lon="13.4990759"><ele>248.50000000000003</ele><time>2026-05-02T14:51:01.749Z</time></trkpt><trkpt lat="46.1078698" lon="13.4991255"><ele>246.0</ele><time>2026-05-02T14:51:03.754Z</time></trkpt><trkpt lat="46.107968" lon="13.499214"><ele>243.5</ele><time>2026-05-02T14:51:05.758Z</time></trkpt><trkpt lat="46.1080173" lon="13.4992737"><ele>241.0</ele><time>2026-05-02T14:51:06.755Z</time></trkpt><trkpt lat="46.108056" lon="13.4993527"><ele>238.50000000000003</ele><time>2026-05-02T14:51:07.75Z</time></trkpt><trkpt lat="46.1080966" lon="13.4994321"><ele>236.0</ele><time>2026-05-02T14:51:08.75Z</time></trkpt><trkpt lat="46.1081173" lon="13.4995225"><ele>236.83333333333334</ele><time>2026-05-02T14:51:09.745Z</time></trkpt><trkpt lat="46.1081406" lon="13.4996294"><ele>237.66666666666669</ele><time>2026-05-02T14:51:10.751Z</time></trkpt><trkpt lat="46.1081491" lon="13.4997446"><ele>238.5</ele><time>2026-05-02T14:51:11.763Z</time></trkpt><trkpt lat="46.1081534" lon="13.4998626"><ele>239.33333333333331</ele><time>2026-05-02T14:51:12.751Z</time></trkpt><trkpt lat="46.1081614" lon="13.499981"><ele>240.16666666666666</ele><time>2026-05-02T14:51:13.763Z</time></trkpt><trkpt lat="46.1081706" lon="13.5001108"><ele>241.0</ele><time>2026-05-02T14:51:14.752Z</time></trkpt><trkpt lat="46.1081796" lon="13.5002252"><ele>241.0</ele><time>2026-05-02T14:51:15.751Z</time></trkpt><trkpt lat="46.1081911" lon="13.5003351"><ele>241.0</ele><time>2026-05-02T14:51:16.763Z</time></trkpt><trkpt lat="46.1082329" lon="13.5004582"><ele>241.0</ele><time>2026-05-02T14:51:18.756Z</time></trkpt><trkpt lat="46.1084206" lon="13.5005191"><ele>241.0</ele><time>2026-05-02T14:51:21.745Z</time></trkpt><trkpt lat="46.1085079" lon="13.5005216"><ele>236.33333333333331</ele><time>2026-05-02T14:51:22.753Z</time></trkpt><trkpt lat="46.1085856" lon="13.500522"><ele>231.66666666666666</ele><time>2026-05-02T14:51:23.748Z</time></trkpt><trkpt lat="46.1086665" lon="13.500522"><ele>227.0</ele><time>2026-05-02T14:51:24.75Z</time></trkpt><trkpt lat="46.1087413" lon="13.5005039"><ele>222.33333333333331</ele><time>2026-05-02T14:51:25.752Z</time></trkpt><trkpt lat="46.1088207" lon="13.5004811"><ele>217.66666666666666</ele><time>2026-05-02T14:51:26.753Z</time></trkpt><trkpt lat="46.1089063" lon="13.5004379"><ele>213.0</ele><time>2026-05-02T14:51:27.75Z</time></trkpt><trkpt lat="46.1090013" lon="13.5003938"><ele>209.2</ele><time>2026-05-02T14:51:28.753Z</time></trkpt><trkpt lat="46.1091715" lon="13.5003314"><ele>205.4</ele><time>2026-05-02T14:51:30.758Z</time></trkpt><trkpt lat="46.1092399" lon="13.5003116"><ele>201.6</ele><time>2026-05-02T14:51:31.75Z</time></trkpt><trkpt lat="46.1093259" lon="13.5002999"><ele>197.79999999999998</ele><time>2026-05-02T14:51:32.76Z</time></trkpt><trkpt lat="46.1094191" lon="13.5003001"><ele>194.0</ele><time>2026-05-02T14:51:33.753Z</time></trkpt><trkpt lat="46.1095081" lon="13.5003094"><ele>194.00000000000003</ele><time>2026-05-02T14:51:34.75Z</time></trkpt><trkpt lat="46.1096005" lon="13.5003217"><ele>194.0</ele><time>2026-05-02T14:51:35.752Z</time></trkpt><trkpt lat="46.1096896" lon="13.5003344"><ele>194.0</ele><time>2026-05-02T14:51:36.758Z</time></trkpt><trkpt lat="46.1097789" lon="13.5003701"><ele>194.0</ele><time>2026-05-02T14:51:37.766Z</time></trkpt><trkpt lat="46.1098524" lon="13.5004195"><ele>194.00000000000003</ele><time>2026-05-02T14:51:38.751Z</time></trkpt><trkpt lat="46.1099159" lon="13.5004729"><ele>194.0</ele><time>2026-05-02T14:51:39.746Z</time></trkpt><trkpt lat="46.1100629" lon="13.5006687"><ele>191.6</ele><time>2026-05-02T14:51:41.752Z</time></trkpt><trkpt lat="46.1101413" lon="13.5007749"><ele>189.2</ele><time>2026-05-02T14:51:42.747Z</time></trkpt><trkpt lat="46.1102136" lon="13.5008845"><ele>186.79999999999998</ele><time>2026-05-02T14:51:43.751Z</time></trkpt><trkpt lat="46.1102898" lon="13.5009793"><ele>184.39999999999998</ele><time>2026-05-02T14:51:44.754Z</time></trkpt><trkpt lat="46.110372" lon="13.5010766"><ele>182.0</ele><time>2026-05-02T14:51:45.749Z</time></trkpt><trkpt lat="46.1104514" lon="13.5011792"><ele>180.2</ele><time>2026-05-02T14:51:46.758Z</time></trkpt><trkpt lat="46.1105204" lon="13.5012884"><ele>178.39999999999998</ele><time>2026-05-02T14:51:47.754Z</time></trkpt><trkpt lat="46.1105833" lon="13.5014014"><ele>176.60000000000002</ele><time>2026-05-02T14:51:48.763Z</time></trkpt><trkpt lat="46.1106421" lon="13.5015098"><ele>174.8</ele><time>2026-05-02T14:51:49.748Z</time></trkpt><trkpt lat="46.1106897" lon="13.5016265"><ele>173.0</ele><time>2026-05-02T14:51:50.745Z</time></trkpt><trkpt lat="46.110706" lon="13.5017222"><ele>173.0</ele><time>2026-05-02T14:51:51.752Z</time></trkpt><trkpt lat="46.1107244" lon="13.5018265"><ele>173.0</ele><time>2026-05-02T14:51:52.748Z</time></trkpt><trkpt lat="46.1107411" lon="13.5019234"><ele>173.0</ele><time>2026-05-02T14:51:53.748Z</time></trkpt><trkpt lat="46.1107817" lon="13.502014"><ele>173.0</ele><time>2026-05-02T14:51:54.751Z</time></trkpt><trkpt lat="46.1108266" lon="13.5020991"><ele>173.0</ele><time>2026-05-02T14:51:55.75Z</time></trkpt><trkpt lat="46.1108713" lon="13.5021991"><ele>173.0</ele><time>2026-05-02T14:51:56.764Z</time></trkpt><trkpt lat="46.1109188" lon="13.502289"><ele>170.0</ele><time>2026-05-02T14:51:57.753Z</time></trkpt><trkpt lat="46.1109723" lon="13.5023844"><ele>167.0</ele><time>2026-05-02T14:51:58.767Z</time></trkpt><trkpt lat="46.1110304" lon="13.5024649"><ele>164.0</ele><time>2026-05-02T14:51:59.765Z</time></trkpt><trkpt lat="46.1110937" lon="13.5025499"><ele>161.0</ele><time>2026-05-02T14:52:00.759Z</time></trkpt><trkpt lat="46.1113381" lon="13.5027624"><ele>161.0</ele><time>2026-05-02T14:52:03.751Z</time></trkpt><trkpt lat="46.1114303" lon="13.502831"><ele>161.0</ele><time>2026-05-02T14:52:04.748Z</time></trkpt><trkpt lat="46.111527" lon="13.5028968"><ele>161.0</ele><time>2026-05-02T14:52:05.763Z</time></trkpt><trkpt lat="46.1116358" lon="13.5029552"><ele>161.0</ele><time>2026-05-02T14:52:06.762Z</time></trkpt><trkpt lat="46.1117388" lon="13.502997"><ele>161.0</ele><time>2026-05-02T14:52:07.75Z</time></trkpt><trkpt lat="46.1118359" lon="13.503009"><ele>159.20000000000002</ele><time>2026-05-02T14:52:08.755Z</time></trkpt><trkpt lat="46.1119338" lon="13.5030356"><ele>157.4</ele><time>2026-05-02T14:52:09.753Z</time></trkpt><trkpt lat="46.1120341" lon="13.5030553"><ele>155.6</ele><time>2026-05-02T14:52:10.749Z</time></trkpt><trkpt lat="46.1121309" lon="13.5030709"><ele>153.8</ele><time>2026-05-02T14:52:11.754Z</time></trkpt><trkpt lat="46.1122234" lon="13.503091"><ele>152.0</ele><time>2026-05-02T14:52:12.758Z</time></trkpt><trkpt lat="46.1122988" lon="13.5031283"><ele>152.0</ele><time>2026-05-02T14:52:13.748Z</time></trkpt><trkpt lat="46.1123561" lon="13.5032698"><ele>152.0</ele><time>2026-05-02T14:52:15.751Z</time></trkpt><trkpt lat="46.1123612" lon="13.5033649"><ele>152.0</ele><time>2026-05-02T14:52:16.756Z</time></trkpt><trkpt lat="46.1123586" lon="13.5034681"><ele>152.0</ele><time>2026-05-02T14:52:17.75Z</time></trkpt><trkpt lat="46.1123561" lon="13.5035712"><ele>152.0</ele><time>2026-05-02T14:52:18.758Z</time></trkpt><trkpt lat="46.1123382" lon="13.5036758"><ele>152.0</ele><time>2026-05-02T14:52:19.749Z</time></trkpt><trkpt lat="46.1123207" lon="13.5037703"><ele>151.6</ele><time>2026-05-02T14:52:20.757Z</time></trkpt><trkpt lat="46.1122978" lon="13.5038605"><ele>151.2</ele><time>2026-05-02T14:52:21.758Z</time></trkpt><trkpt lat="46.1122688" lon="13.5039552"><ele>150.8</ele><time>2026-05-02T14:52:22.765Z</time></trkpt><trkpt lat="46.1121883" lon="13.5041437"><ele>150.4</ele><time>2026-05-02T14:52:24.754Z</time></trkpt><trkpt lat="46.1121399" lon="13.5042339"><ele>150.0</ele><time>2026-05-02T14:52:25.751Z</time></trkpt><trkpt lat="46.1120897" lon="13.5043245"><ele>150.0</ele><time>2026-05-02T14:52:26.746Z</time></trkpt><trkpt lat="46.1120496" lon="13.504414"><ele>150.0</ele><time>2026-05-02T14:52:27.756Z</time></trkpt><trkpt lat="46.1120142" lon="13.5045111"><ele>150.0</ele><time>2026-05-02T14:52:28.754Z</time></trkpt><trkpt lat="46.1119752" lon="13.5046159"><ele>150.0</ele><time>2026-05-02T14:52:29.759Z</time></trkpt><trkpt lat="46.1119311" lon="13.504725"><ele>150.0</ele><time>2026-05-02T14:52:30.75Z</time></trkpt><trkpt lat="46.1118811" lon="13.5048412"><ele>150.0</ele><time>2026-05-02T14:52:31.753Z</time></trkpt><trkpt lat="46.1118378" lon="13.5049677"><ele>150.0</ele><time>2026-05-02T14:52:32.757Z</time></trkpt><trkpt lat="46.111779" lon="13.5052188"><ele>150.0</ele><time>2026-05-02T14:52:34.756Z</time></trkpt><trkpt lat="46.1118022" lon="13.5053468"><ele>150.0</ele><time>2026-05-02T14:52:35.762Z</time></trkpt><trkpt lat="46.1118504" lon="13.5054685"><ele>150.0</ele><time>2026-05-02T14:52:36.753Z</time></trkpt><trkpt lat="46.1119179" lon="13.5055865"><ele>153.25</ele><time>2026-05-02T14:52:37.748Z</time></trkpt><trkpt lat="46.1119949" lon="13.5057011"><ele>156.5</ele><time>2026-05-02T14:52:38.753Z</time></trkpt><trkpt lat="46.1120735" lon="13.5058213"><ele>159.75</ele><time>2026-05-02T14:52:39.767Z</time></trkpt><trkpt lat="46.1121521" lon="13.5059452"><ele>163.0</ele><time>2026-05-02T14:52:40.755Z</time></trkpt><trkpt lat="46.1122482" lon="13.5060652"><ele>163.0</ele><time>2026-05-02T14:52:41.745Z</time></trkpt><trkpt lat="46.1123302" lon="13.5061722"><ele>163.0</ele><time>2026-05-02T14:52:42.749Z</time></trkpt><trkpt lat="46.1124226" lon="13.5062896"><ele>163.0</ele><time>2026-05-02T14:52:43.75Z</time></trkpt><trkpt lat="46.1125884" lon="13.506523"><ele>165.4</ele><time>2026-05-02T14:52:45.752Z</time></trkpt><trkpt lat="46.1126692" lon="13.5066363"><ele>167.8</ele><time>2026-05-02T14:52:46.754Z</time></trkpt><trkpt lat="46.1127417" lon="13.5067341"><ele>170.2</ele><time>2026-05-02T14:52:47.758Z</time></trkpt><trkpt lat="46.1128144" lon="13.5068165"><ele>172.6</ele><time>2026-05-02T14:52:48.763Z</time></trkpt><trkpt lat="46.1128963" lon="13.5068894"><ele>175.0</ele><time>2026-05-02T14:52:49.752Z</time></trkpt><trkpt lat="46.1129523" lon="13.5069651"><ele>175.0</ele><time>2026-05-02T14:52:50.756Z</time></trkpt><trkpt lat="46.1130138" lon="13.5070716"><ele>175.0</ele><time>2026-05-02T14:52:51.75Z</time></trkpt><trkpt lat="46.1130749" lon="13.5071922"><ele>175.0</ele><time>2026-05-02T14:52:52.748Z</time></trkpt><trkpt lat="46.1131366" lon="13.5073122"><ele>175.0</ele><time>2026-05-02T14:52:53.751Z</time></trkpt><trkpt lat="46.1131945" lon="13.5074323"><ele>175.0</ele><time>2026-05-02T14:52:54.751Z</time></trkpt><trkpt lat="46.1132447" lon="13.5075349"><ele>171.66666666666669</ele><time>2026-05-02T14:52:55.756Z</time></trkpt><trkpt lat="46.1133046" lon="13.5076579"><ele>168.33333333333334</ele><time>2026-05-02T14:52:57.756Z</time></trkpt><trkpt lat="46.1133511" lon="13.5077818"><ele>165.0</ele><time>2026-05-02T14:52:59.759Z</time></trkpt><trkpt lat="46.1133711" lon="13.5078701"><ele>161.66666666666666</ele><time>2026-05-02T14:53:00.757Z</time></trkpt><trkpt lat="46.1133982" lon="13.5079655"><ele>158.33333333333331</ele><time>2026-05-02T14:53:01.75Z</time></trkpt><trkpt lat="46.1134225" lon="13.5080648"><ele>155.0</ele><time>2026-05-02T14:53:02.759Z</time></trkpt><trkpt lat="46.113443" lon="13.5081536"><ele>155.0</ele><time>2026-05-02T14:53:03.752Z</time></trkpt><trkpt lat="46.1135195" lon="13.5083947"><ele>155.0</ele><time>2026-05-02T14:53:06.756Z</time></trkpt><trkpt lat="46.1136418" lon="13.5086175"><ele>155.0</ele><time>2026-05-02T14:53:09.749Z</time></trkpt><trkpt lat="46.1136949" lon="13.5086913"><ele>155.5</ele><time>2026-05-02T14:53:10.772Z</time></trkpt><trkpt lat="46.1137509" lon="13.5087708"><ele>156.0</ele><time>2026-05-02T14:53:11.752Z</time></trkpt><trkpt lat="46.1137987" lon="13.5088482"><ele>156.5</ele><time>2026-05-02T14:53:12.75Z</time></trkpt><trkpt lat="46.1138488" lon="13.5089262"><ele>157.0</ele><time>2026-05-02T14:53:13.75Z</time></trkpt><trkpt lat="46.1138949" lon="13.5090053"><ele>157.5</ele><time>2026-05-02T14:53:14.756Z</time></trkpt><trkpt lat="46.1139338" lon="13.5090856"><ele>158.0</ele><time>2026-05-02T14:53:15.756Z</time></trkpt><trkpt lat="46.113977" lon="13.5092358"><ele>158.0</ele><time>2026-05-02T14:53:17.759Z</time></trkpt><trkpt lat="46.1139546" lon="13.5093562"><ele>158.0</ele><time>2026-05-02T14:53:19.751Z</time></trkpt><trkpt lat="46.1138368" lon="13.5094343"><ele>158.0</ele><time>2026-05-02T14:53:21.747Z</time></trkpt><trkpt lat="46.1137399" lon="13.5095481"><ele>158.0</ele><time>2026-05-02T14:53:23.751Z</time></trkpt><trkpt lat="46.1137011" lon="13.5097461"><ele>159.33333333333331</ele><time>2026-05-02T14:53:25.746Z</time></trkpt><trkpt lat="46.1137028" lon="13.5099186"><ele>160.66666666666666</ele><time>2026-05-02T14:53:26.751Z</time></trkpt><trkpt lat="46.113719" lon="13.5101026"><ele>162.0</ele><time>2026-05-02T14:53:27.749Z</time></trkpt><trkpt lat="46.1137566" lon="13.5104713"><ele>162.0</ele><time>2026-05-02T14:53:29.746Z</time></trkpt><trkpt lat="46.1137746" lon="13.5106466"><ele>162.0</ele><time>2026-05-02T14:53:30.751Z</time></trkpt><trkpt lat="46.1137922" lon="13.5108219"><ele>162.0</ele><time>2026-05-02T14:53:31.755Z</time></trkpt><trkpt lat="46.1137988" lon="13.5109898"><ele>162.0</ele><time>2026-05-02T14:53:32.751Z</time></trkpt><trkpt lat="46.1138048" lon="13.5111763"><ele>162.25</ele><time>2026-05-02T14:53:33.752Z</time></trkpt><trkpt lat="46.1138085" lon="13.5113569"><ele>162.5</ele><time>2026-05-02T14:53:34.754Z</time></trkpt><trkpt lat="46.1138144" lon="13.5115217"><ele>162.75</ele><time>2026-05-02T14:53:35.753Z</time></trkpt><trkpt lat="46.1138119" lon="13.5116742"><ele>163.0</ele><time>2026-05-02T14:53:36.756Z</time></trkpt><trkpt lat="46.1138196" lon="13.5119595"><ele>165.60000000000002</ele><time>2026-05-02T14:53:38.751Z</time></trkpt><trkpt lat="46.1138466" lon="13.5120905"><ele>168.20000000000002</ele><time>2026-05-02T14:53:39.764Z</time></trkpt><trkpt lat="46.1138827" lon="13.5122334"><ele>170.8</ele><time>2026-05-02T14:53:40.748Z</time></trkpt><trkpt lat="46.1139178" lon="13.5123849"><ele>173.4</ele><time>2026-05-02T14:53:41.753Z</time></trkpt><trkpt lat="46.1139529" lon="13.5125332"><ele>176.0</ele><time>2026-05-02T14:53:42.756Z</time></trkpt><trkpt lat="46.1139744" lon="13.5126718"><ele>176.0</ele><time>2026-05-02T14:53:43.757Z</time></trkpt><trkpt lat="46.1140048" lon="13.5128072"><ele>176.0</ele><time>2026-05-02T14:53:44.75Z</time></trkpt><trkpt lat="46.1140307" lon="13.5129445"><ele>176.0</ele><time>2026-05-02T14:53:45.75Z</time></trkpt><trkpt lat="46.114043" lon="13.5130849"><ele>176.0</ele><time>2026-05-02T14:53:46.76Z</time></trkpt><trkpt lat="46.1140542" lon="13.5132308"><ele>176.0</ele><time>2026-05-02T14:53:47.746Z</time></trkpt><trkpt lat="46.1140785" lon="13.5133858"><ele>173.25</ele><time>2026-05-02T14:53:48.754Z</time></trkpt><trkpt lat="46.1141302" lon="13.5136598"><ele>170.5</ele><time>2026-05-02T14:53:50.749Z</time></trkpt><trkpt lat="46.1141642" lon="13.5137949"><ele>167.75</ele><time>2026-05-02T14:53:51.758Z</time></trkpt><trkpt lat="46.1141991" lon="13.5139272"><ele>165.0</ele><time>2026-05-02T14:53:52.752Z</time></trkpt><trkpt lat="46.114238" lon="13.5140486"><ele>165.0</ele><time>2026-05-02T14:53:53.759Z</time></trkpt><trkpt lat="46.1142642" lon="13.5141786"><ele>165.0</ele><time>2026-05-02T14:53:54.757Z</time></trkpt><trkpt lat="46.1142909" lon="13.51431"><ele>165.0</ele><time>2026-05-02T14:53:55.751Z</time></trkpt><trkpt lat="46.114316" lon="13.51445"><ele>165.0</ele><time>2026-05-02T14:53:56.764Z</time></trkpt><trkpt lat="46.1143471" lon="13.5146158"><ele>165.0</ele><time>2026-05-02T14:53:57.75Z</time></trkpt><trkpt lat="46.114363" lon="13.514789"><ele>166.0</ele><time>2026-05-02T14:53:58.749Z</time></trkpt><trkpt lat="46.1143669" lon="13.5149777"><ele>167.0</ele><time>2026-05-02T14:53:59.762Z</time></trkpt><trkpt lat="46.1143739" lon="13.5151545"><ele>168.0</ele><time>2026-05-02T14:54:00.75Z</time></trkpt><trkpt lat="46.1143908" lon="13.5153178"><ele>169.0</ele><time>2026-05-02T14:54:01.748Z</time></trkpt><trkpt lat="46.1144086" lon="13.5154719"><ele>169.5</ele><time>2026-05-02T14:54:02.754Z</time></trkpt><trkpt lat="46.1144219" lon="13.5156179"><ele>170.0</ele><time>2026-05-02T14:54:03.756Z</time></trkpt><trkpt lat="46.1144309" lon="13.5157579"><ele>170.5</ele><time>2026-05-02T14:54:04.747Z</time></trkpt><trkpt lat="46.1144351" lon="13.5158853"><ele>171.0</ele><time>2026-05-02T14:54:05.755Z</time></trkpt><trkpt lat="46.1144405" lon="13.5159881"><ele>171.5</ele><time>2026-05-02T14:54:06.76Z</time></trkpt><trkpt lat="46.1144534" lon="13.5160962"><ele>172.0</ele><time>2026-05-02T14:54:07.757Z</time></trkpt><trkpt lat="46.1144817" lon="13.5162188"><ele>172.0</ele><time>2026-05-02T14:54:08.748Z</time></trkpt><trkpt lat="46.1145975" lon="13.516601"><ele>172.0</ele><time>2026-05-02T14:54:11.751Z</time></trkpt><trkpt lat="46.1146627" lon="13.5167333"><ele>172.0</ele><time>2026-05-02T14:54:12.751Z</time></trkpt><trkpt lat="46.1147413" lon="13.5168608"><ele>172.0</ele><time>2026-05-02T14:54:13.757Z</time></trkpt><trkpt lat="46.1148272" lon="13.516997"><ele>172.0</ele><time>2026-05-02T14:54:14.752Z</time></trkpt><trkpt lat="46.1149016" lon="13.5171389"><ele>172.0</ele><time>2026-05-02T14:54:15.76Z</time></trkpt><trkpt lat="46.1149818" lon="13.5172834"><ele>172.0</ele><time>2026-05-02T14:54:16.745Z</time></trkpt><trkpt lat="46.1150619" lon="13.5174216"><ele>167.0</ele><time>2026-05-02T14:54:17.751Z</time></trkpt><trkpt lat="46.1151489" lon="13.5175513"><ele>162.0</ele><time>2026-05-02T14:54:18.751Z</time></trkpt><trkpt lat="46.1152378" lon="13.5176732"><ele>157.0</ele><time>2026-05-02T14:54:19.762Z</time></trkpt><trkpt lat="46.1153238" lon="13.5177944"><ele>152.0</ele><time>2026-05-02T14:54:20.745Z</time></trkpt><trkpt lat="46.1153985" lon="13.5179166"><ele>151.79999999999998</ele><time>2026-05-02T14:54:21.751Z</time></trkpt><trkpt lat="46.1154776" lon="13.5180221"><ele>151.6</ele><time>2026-05-02T14:54:22.751Z</time></trkpt><trkpt lat="46.1155497" lon="13.5181075"><ele>151.39999999999998</ele><time>2026-05-02T14:54:23.748Z</time></trkpt><trkpt lat="46.1156179" lon="13.5181856"><ele>151.2</ele><time>2026-05-02T14:54:24.757Z</time></trkpt><trkpt lat="46.1156924" lon="13.5182676"><ele>151.0</ele><time>2026-05-02T14:54:25.749Z</time></trkpt><trkpt lat="46.1157669" lon="13.5183354"><ele>151.0</ele><time>2026-05-02T14:54:26.751Z</time></trkpt><trkpt lat="46.1158661" lon="13.5184138"><ele>151.0</ele><time>2026-05-02T14:54:27.758Z</time></trkpt><trkpt lat="46.1159762" lon="13.5185025"><ele>151.0</ele><time>2026-05-02T14:54:28.753Z</time></trkpt><trkpt lat="46.1161038" lon="13.5185843"><ele>151.0</ele><time>2026-05-02T14:54:29.76Z</time></trkpt><trkpt lat="46.1162288" lon="13.5186698"><ele>151.0</ele><time>2026-05-02T14:54:30.768Z</time></trkpt><trkpt lat="46.1164442" lon="13.5188897"><ele>151.0</ele><time>2026-05-02T14:54:32.755Z</time></trkpt><trkpt lat="46.1165629" lon="13.5190016"><ele>151.0</ele><time>2026-05-02T14:54:33.751Z</time></trkpt><trkpt lat="46.1166742" lon="13.5190931"><ele>151.75</ele><time>2026-05-02T14:54:34.759Z</time></trkpt><trkpt lat="46.1167796" lon="13.5191773"><ele>152.5</ele><time>2026-05-02T14:54:35.748Z</time></trkpt><trkpt lat="46.1168803" lon="13.5192567"><ele>153.25</ele><time>2026-05-02T14:54:36.756Z</time></trkpt><trkpt lat="46.1169773" lon="13.5193358"><ele>154.0</ele><time>2026-05-02T14:54:37.749Z</time></trkpt><trkpt lat="46.1170691" lon="13.5194281"><ele>154.0</ele><time>2026-05-02T14:54:38.753Z</time></trkpt><trkpt lat="46.11716" lon="13.5195301"><ele>154.0</ele><time>2026-05-02T14:54:39.76Z</time></trkpt><trkpt lat="46.1172492" lon="13.5196252"><ele>154.0</ele><time>2026-05-02T14:54:40.747Z</time></trkpt><trkpt lat="46.117409" lon="13.5198202"><ele>154.0</ele><time>2026-05-02T14:54:42.751Z</time></trkpt><trkpt lat="46.1174567" lon="13.5199176"><ele>153.8</ele><time>2026-05-02T14:54:43.752Z</time></trkpt><trkpt lat="46.1174851" lon="13.5200214"><ele>153.60000000000002</ele><time>2026-05-02T14:54:44.757Z</time></trkpt><trkpt lat="46.1175034" lon="13.5201583"><ele>153.4</ele><time>2026-05-02T14:54:45.757Z</time></trkpt><trkpt lat="46.1175218" lon="13.5203058"><ele>153.20000000000002</ele><time>2026-05-02T14:54:46.756Z</time></trkpt><trkpt lat="46.1175488" lon="13.5204409"><ele>153.0</ele><time>2026-05-02T14:54:47.749Z</time></trkpt><trkpt lat="46.1175934" lon="13.5205732"><ele>153.0</ele><time>2026-05-02T14:54:48.751Z</time></trkpt><trkpt lat="46.1176514" lon="13.5206792"><ele>153.0</ele><time>2026-05-02T14:54:49.759Z</time></trkpt><trkpt lat="46.1176985" lon="13.5207713"><ele>153.0</ele><time>2026-05-02T14:54:50.751Z</time></trkpt><trkpt lat="46.1177546" lon="13.5208377"><ele>153.0</ele><time>2026-05-02T14:54:51.753Z</time></trkpt><trkpt lat="46.117896" lon="13.5209763"><ele>153.0</ele><time>2026-05-02T14:54:53.746Z</time></trkpt><trkpt lat="46.1179757" lon="13.5210493"><ele>153.0</ele><time>2026-05-02T14:54:54.746Z</time></trkpt><trkpt lat="46.1180541" lon="13.5211166"><ele>153.0</ele><time>2026-05-02T14:54:55.752Z</time></trkpt><trkpt lat="46.1181302" lon="13.5211762"><ele>153.0</ele><time>2026-05-02T14:54:56.756Z</time></trkpt><trkpt lat="46.11819" lon="13.5212372"><ele>153.0</ele><time>2026-05-02T14:54:57.757Z</time></trkpt><trkpt lat="46.118228" lon="13.5213139"><ele>153.0</ele><time>2026-05-02T14:54:58.751Z</time></trkpt><trkpt lat="46.1182149" lon="13.521491"><ele>153.0</ele><time>2026-05-02T14:55:00.755Z</time></trkpt><trkpt lat="46.1181881" lon="13.5215908"><ele>153.0</ele><time>2026-05-02T14:55:01.754Z</time></trkpt><trkpt lat="46.118153" lon="13.5216949"><ele>153.0</ele><time>2026-05-02T14:55:02.753Z</time></trkpt><trkpt lat="46.118128" lon="13.5217873"><ele>153.0</ele><time>2026-05-02T14:55:03.758Z</time></trkpt><trkpt lat="46.1181287" lon="13.5218957"><ele>153.0</ele><time>2026-05-02T14:55:05.746Z</time></trkpt><trkpt lat="46.1182141" lon="13.5219172"><ele>153.0</ele><time>2026-05-02T14:55:07.754Z</time></trkpt><trkpt lat="46.1182998" lon="13.5219152"><ele>153.0</ele><time>2026-05-02T14:55:08.756Z</time></trkpt><trkpt lat="46.1184002" lon="13.5219185"><ele>153.0</ele><time>2026-05-02T14:55:09.754Z</time></trkpt><trkpt lat="46.1185063" lon="13.5219477"><ele>153.0</ele><time>2026-05-02T14:55:10.751Z</time></trkpt><trkpt lat="46.1186088" lon="13.5219915"><ele>153.0</ele><time>2026-05-02T14:55:11.752Z</time></trkpt><trkpt lat="46.1187121" lon="13.5220432"><ele>153.0</ele><time>2026-05-02T14:55:12.752Z</time></trkpt><trkpt lat="46.1190123" lon="13.5221972"><ele>153.4</ele><time>2026-05-02T14:55:15.764Z</time></trkpt><trkpt lat="46.1191144" lon="13.522248"><ele>153.8</ele><time>2026-05-02T14:55:16.756Z</time></trkpt><trkpt lat="46.1192126" lon="13.5222921"><ele>154.2</ele><time>2026-05-02T14:55:17.761Z</time></trkpt><trkpt lat="46.1193047" lon="13.5223163"><ele>154.6</ele><time>2026-05-02T14:55:18.75Z</time></trkpt><trkpt lat="46.1193968" lon="13.5223161"><ele>155.0</ele><time>2026-05-02T14:55:19.746Z</time></trkpt><trkpt lat="46.1194929" lon="13.5222989"><ele>155.0</ele><time>2026-05-02T14:55:20.751Z</time></trkpt><trkpt lat="46.1195827" lon="13.5222958"><ele>155.0</ele><time>2026-05-02T14:55:21.755Z</time></trkpt><trkpt lat="46.1196732" lon="13.5223502"><ele>155.0</ele><time>2026-05-02T14:55:22.761Z</time></trkpt><trkpt lat="46.1197598" lon="13.5224759"><ele>155.0</ele><time>2026-05-02T14:55:23.749Z</time></trkpt><trkpt lat="46.1198484" lon="13.5226108"><ele>155.0</ele><time>2026-05-02T14:55:24.748Z</time></trkpt><trkpt lat="46.1199335" lon="13.5227344"><ele>155.0</ele><time>2026-05-02T14:55:25.756Z</time></trkpt><trkpt lat="46.1200057" lon="13.5228685"><ele>155.0</ele><time>2026-05-02T14:55:26.749Z</time></trkpt><trkpt lat="46.1200653" lon="13.5230031"><ele>155.0</ele><time>2026-05-02T14:55:27.754Z</time></trkpt><trkpt lat="46.1201175" lon="13.5231337"><ele>155.0</ele><time>2026-05-02T14:55:28.752Z</time></trkpt><trkpt lat="46.1201711" lon="13.523256"><ele>155.0</ele><time>2026-05-02T14:55:29.748Z</time></trkpt><trkpt lat="46.1202214" lon="13.5233735"><ele>155.0</ele><time>2026-05-02T14:55:30.742Z</time></trkpt><trkpt lat="46.1202691" lon="13.5234711"><ele>155.0</ele><time>2026-05-02T14:55:31.742Z</time></trkpt><trkpt lat="46.1203108" lon="13.5235542"><ele>155.0</ele><time>2026-05-02T14:55:32.746Z</time></trkpt><trkpt lat="46.1203584" lon="13.5236874"><ele>155.0</ele><time>2026-05-02T14:55:34.753Z</time></trkpt><trkpt lat="46.1202219" lon="13.5238952"><ele>155.0</ele><time>2026-05-02T14:55:38.749Z</time></trkpt><trkpt lat="46.1201543" lon="13.5239412"><ele>155.0</ele><time>2026-05-02T14:55:39.765Z</time></trkpt><trkpt lat="46.1200842" lon="13.5239769"><ele>155.0</ele><time>2026-05-02T14:55:40.752Z</time></trkpt><trkpt lat="46.1200259" lon="13.5240154"><ele>155.0</ele><time>2026-05-02T14:55:41.743Z</time></trkpt><trkpt lat="46.1199587" lon="13.5240751"><ele>155.0</ele><time>2026-05-02T14:55:43.756Z</time></trkpt><trkpt lat="46.1200354" lon="13.5241199"><ele>155.0</ele><time>2026-05-02T14:59:51.756Z</time></trkpt><trkpt lat="46.120218" lon="13.5239561"><ele>155.0</ele><time>2026-05-02T14:59:56.746Z</time></trkpt><trkpt lat="46.1203344" lon="13.5239052"><ele>155.0</ele><time>2026-05-02T14:59:58.747Z</time></trkpt><trkpt lat="46.1204276" lon="13.5238228"><ele>155.0</ele><time>2026-05-02T15:00:00.752Z</time></trkpt><trkpt lat="46.1205031" lon="13.5237883"><ele>155.0</ele><time>2026-05-02T15:00:01.754Z</time></trkpt><trkpt lat="46.1205714" lon="13.5237413"><ele>155.0</ele><time>2026-05-02T15:00:02.753Z</time></trkpt><trkpt lat="46.1206583" lon="13.5236878"><ele>155.4</ele><time>2026-05-02T15:00:03.763Z</time></trkpt><trkpt lat="46.120767" lon="13.523621"><ele>155.8</ele><time>2026-05-02T15:00:04.751Z</time></trkpt><trkpt lat="46.1208675" lon="13.5235707"><ele>156.2</ele><time>2026-05-02T15:00:05.749Z</time></trkpt><trkpt lat="46.1209507" lon="13.5235441"><ele>156.6</ele><time>2026-05-02T15:00:06.742Z</time></trkpt><trkpt lat="46.1210457" lon="13.5235225"><ele>157.0</ele><time>2026-05-02T15:00:08.748Z</time></trkpt><trkpt lat="46.1210941" lon="13.5234293"><ele>157.0</ele><time>2026-05-02T15:00:10.756Z</time></trkpt><trkpt lat="46.1211056" lon="13.5233079"><ele>157.0</ele><time>2026-05-02T15:00:11.748Z</time></trkpt><trkpt lat="46.1211094" lon="13.5231583"><ele>157.0</ele><time>2026-05-02T15:00:12.752Z</time></trkpt><trkpt lat="46.1211371" lon="13.5228766"><ele>157.0</ele><time>2026-05-02T15:00:14.757Z</time></trkpt><trkpt lat="46.1211536" lon="13.5227509"><ele>156.83333333333334</ele><time>2026-05-02T15:00:15.75Z</time></trkpt><trkpt lat="46.1211664" lon="13.5226291"><ele>156.66666666666669</ele><time>2026-05-02T15:00:16.758Z</time></trkpt><trkpt lat="46.1211757" lon="13.5225092"><ele>156.5</ele><time>2026-05-02T15:00:17.751Z</time></trkpt><trkpt lat="46.1211876" lon="13.5223974"><ele>156.33333333333334</ele><time>2026-05-02T15:00:18.746Z</time></trkpt><trkpt lat="46.1211952" lon="13.5223044"><ele>156.16666666666666</ele><time>2026-05-02T15:00:19.748Z</time></trkpt><trkpt lat="46.121204" lon="13.5221946"><ele>156.0</ele><time>2026-05-02T15:00:21.749Z</time></trkpt><trkpt lat="46.1212182" lon="13.5220999"><ele>156.0</ele><time>2026-05-02T15:00:25.742Z</time></trkpt><trkpt lat="46.1211471" lon="13.522013"><ele>156.0</ele><time>2026-05-02T15:00:27.746Z</time></trkpt><trkpt lat="46.1210863" lon="13.5219532"><ele>156.0</ele><time>2026-05-02T15:00:28.755Z</time></trkpt><trkpt lat="46.1210105" lon="13.5218757"><ele>156.0</ele><time>2026-05-02T15:00:29.749Z</time></trkpt><trkpt lat="46.1209278" lon="13.5217884"><ele>156.0</ele><time>2026-05-02T15:00:30.757Z</time></trkpt><trkpt lat="46.1208464" lon="13.5216915"><ele>156.0</ele><time>2026-05-02T15:00:31.754Z</time></trkpt><trkpt lat="46.1207579" lon="13.521576"><ele>156.0</ele><time>2026-05-02T15:00:32.747Z</time></trkpt><trkpt lat="46.1206636" lon="13.5214352"><ele>156.0</ele><time>2026-05-02T15:00:33.758Z</time></trkpt><trkpt lat="46.1204359" lon="13.5210788"><ele>156.0</ele><time>2026-05-02T15:00:35.745Z</time></trkpt><trkpt lat="46.1202788" lon="13.5208528"><ele>156.0</ele><time>2026-05-02T15:00:36.756Z</time></trkpt><trkpt lat="46.1201109" lon="13.520609"><ele>155.5</ele><time>2026-05-02T15:00:37.75Z</time></trkpt><trkpt lat="46.1199139" lon="13.5203127"><ele>155.0</ele><time>2026-05-02T15:00:38.751Z</time></trkpt><trkpt lat="46.1197434" lon="13.5199824"><ele>155.0</ele><time>2026-05-02T15:00:39.749Z</time></trkpt><trkpt lat="46.1195921" lon="13.5196737"><ele>155.0</ele><time>2026-05-02T15:00:40.744Z</time></trkpt><trkpt lat="46.1193199" lon="13.5191478"><ele>155.33333333333331</ele><time>2026-05-02T15:00:42.741Z</time></trkpt><trkpt lat="46.1192079" lon="13.5189054"><ele>155.66666666666666</ele><time>2026-05-02T15:00:43.751Z</time></trkpt><trkpt lat="46.1191083" lon="13.5186776"><ele>156.0</ele><time>2026-05-02T15:00:44.747Z</time></trkpt><trkpt lat="46.1190192" lon="13.5184385"><ele>156.0</ele><time>2026-05-02T15:00:45.747Z</time></trkpt><trkpt lat="46.1189347" lon="13.518198"><ele>156.0</ele><time>2026-05-02T15:00:46.752Z</time></trkpt><trkpt lat="46.1188668" lon="13.5179617"><ele>156.0</ele><time>2026-05-02T15:00:47.75Z</time></trkpt><trkpt lat="46.118802" lon="13.517727"><ele>157.0</ele><time>2026-05-02T15:00:48.746Z</time></trkpt><trkpt lat="46.1187353" lon="13.5175042"><ele>158.0</ele><time>2026-05-02T15:00:49.745Z</time></trkpt><trkpt lat="46.1186573" lon="13.5172753"><ele>159.0</ele><time>2026-05-02T15:00:50.748Z</time></trkpt><trkpt lat="46.1185812" lon="13.517045"><ele>159.0</ele><time>2026-05-02T15:00:51.763Z</time></trkpt><trkpt lat="46.1184999" lon="13.5168225"><ele>159.0</ele><time>2026-05-02T15:00:52.745Z</time></trkpt><trkpt lat="46.1184212" lon="13.5165954"><ele>159.0</ele><time>2026-05-02T15:00:53.745Z</time></trkpt><trkpt lat="46.1183363" lon="13.5163542"><ele>159.5</ele><time>2026-05-02T15:00:54.747Z</time></trkpt><trkpt lat="46.1181753" lon="13.5158527"><ele>160.0</ele><time>2026-05-02T15:00:56.753Z</time></trkpt><trkpt lat="46.1180981" lon="13.5155996"><ele>159.66666666666669</ele><time>2026-05-02T15:00:57.745Z</time></trkpt><trkpt lat="46.1180142" lon="13.5153496"><ele>159.33333333333334</ele><time>2026-05-02T15:00:58.745Z</time></trkpt><trkpt lat="46.1179313" lon="13.5150939"><ele>159.0</ele><time>2026-05-02T15:00:59.748Z</time></trkpt><trkpt lat="46.1178528" lon="13.5148473"><ele>159.0</ele><time>2026-05-02T15:01:00.745Z</time></trkpt><trkpt lat="46.1177842" lon="13.5146312"><ele>159.0</ele><time>2026-05-02T15:01:01.741Z</time></trkpt><trkpt lat="46.117748" lon="13.5144065"><ele>159.0</ele><time>2026-05-02T15:01:02.754Z</time></trkpt><trkpt lat="46.117728" lon="13.5141763"><ele>159.0</ele><time>2026-05-02T15:01:03.748Z</time></trkpt><trkpt lat="46.1177345" lon="13.5139634"><ele>159.0</ele><time>2026-05-02T15:01:04.756Z</time></trkpt><trkpt lat="46.1177555" lon="13.513762"><ele>159.0</ele><time>2026-05-02T15:01:05.753Z</time></trkpt></trkseg></trk></gpx>